﻿<?xml version="1.0" encoding="UTF-8" standalone="no" ?>
<gpx xmlns="http://www.topografix.com/GPX/1/1" creator="CompeGPS" version="1.1" xmlns:xsi="http://www.w3.org/2001/XMLSchema-instance" xsi:schemaLocation="http://www.topografix.com/GPX/1/1 http://www.topografix.com/GPX/1/1/gpx.xsd">
  <metadata>
    <link href="http://www.compegps.com">
      <text>CompeGPS TEAM, SL</text>
    </link>
    <time>2015-02-09T20:37:37Z</time>
    <bounds maxlat="38.369466" maxlon="-1.320460" minlat="38.174106" minlon="-1.595118"/>
  </metadata>
  <trk>
    <name>88_Cieza100_track_Completo_2013</name>
    <trkseg>
      <trkpt lat="38.237980" lon="-1.423350">
        <ele>188.1</ele>
        <time>2011-04-02T05:41:49Z</time>
      </trkpt>
      <trkpt lat="38.237980" lon="-1.423350">
        <ele>188.1</ele>
        <time>2011-04-02T05:41:53Z</time>
      </trkpt>
      <trkpt lat="38.238020" lon="-1.423350">
        <ele>187.1</ele>
        <time>2011-04-02T05:42:12Z</time>
      </trkpt>
      <trkpt lat="38.237790" lon="-1.423240">
        <ele>187.1</ele>
        <time>2011-04-02T05:42:40Z</time>
      </trkpt>
      <trkpt lat="38.237810" lon="-1.423270">
        <ele>188.7</ele>
        <time>2011-04-02T05:43:22Z</time>
      </trkpt>
      <trkpt lat="38.237610" lon="-1.423070">
        <ele>186.8</ele>
        <time>2011-04-02T05:43:45Z</time>
      </trkpt>
      <trkpt lat="38.237290" lon="-1.422860">
        <ele>188.7</ele>
        <time>2011-04-02T05:44:13Z</time>
      </trkpt>
      <trkpt lat="38.237210" lon="-1.422840">
        <ele>186.8</ele>
        <time>2011-04-02T05:44:20Z</time>
      </trkpt>
      <trkpt lat="38.237140" lon="-1.422770">
        <ele>186.8</ele>
        <time>2011-04-02T05:44:29Z</time>
      </trkpt>
      <trkpt lat="38.236950" lon="-1.422640">
        <ele>186.2</ele>
        <time>2011-04-02T05:44:49Z</time>
      </trkpt>
      <trkpt lat="38.236930" lon="-1.422540">
        <ele>186.2</ele>
        <time>2011-04-02T05:44:56Z</time>
      </trkpt>
      <trkpt lat="38.236990" lon="-1.422150">
        <ele>185.6</ele>
        <time>2011-04-02T05:45:23Z</time>
      </trkpt>
      <trkpt lat="38.236950" lon="-1.421700">
        <ele>185.6</ele>
        <time>2011-04-02T05:45:46Z</time>
      </trkpt>
      <trkpt lat="38.236910" lon="-1.421230">
        <ele>187.1</ele>
        <time>2011-04-02T05:46:15Z</time>
      </trkpt>
      <trkpt lat="38.236890" lon="-1.420880">
        <ele>188.1</ele>
        <time>2011-04-02T05:46:39Z</time>
      </trkpt>
      <trkpt lat="38.236890" lon="-1.420500">
        <ele>186.2</ele>
        <time>2011-04-02T05:47:02Z</time>
      </trkpt>
      <trkpt lat="38.236930" lon="-1.420090">
        <ele>182.9</ele>
        <time>2011-04-02T05:47:24Z</time>
      </trkpt>
      <trkpt lat="38.236930" lon="-1.419750">
        <ele>182.3</ele>
        <time>2011-04-02T05:47:41Z</time>
      </trkpt>
      <trkpt lat="38.236930" lon="-1.419360">
        <ele>181.4</ele>
        <time>2011-04-02T05:48:09Z</time>
      </trkpt>
      <trkpt lat="38.236882" lon="-1.419155">
        <ele>181.4</ele>
        <time>2011-04-02T05:48:21Z</time>
      </trkpt>
      <trkpt lat="38.236890" lon="-1.418818">
        <ele>179.8</ele>
        <time>2011-04-02T05:48:44Z</time>
      </trkpt>
      <trkpt lat="38.236885" lon="-1.418458">
        <ele>179.8</ele>
        <time>2011-04-02T05:48:50Z</time>
      </trkpt>
      <trkpt lat="38.236891" lon="-1.417944">
        <ele>180.4</ele>
        <time>2011-04-02T05:49:09Z</time>
      </trkpt>
      <trkpt lat="38.236889" lon="-1.417776">
        <ele>179.8</ele>
        <time>2011-04-02T05:49:34Z</time>
      </trkpt>
      <trkpt lat="38.236842" lon="-1.417167">
        <ele>182.3</ele>
        <time>2011-04-02T05:49:42Z</time>
      </trkpt>
      <trkpt lat="38.236545" lon="-1.416660">
        <ele>182.3</ele>
        <time>2011-04-02T05:49:46Z</time>
      </trkpt>
      <trkpt lat="38.236404" lon="-1.416519">
        <ele>180.4</ele>
        <time>2011-04-02T05:49:57Z</time>
      </trkpt>
      <trkpt lat="38.236250" lon="-1.416394">
        <ele>181.4</ele>
        <time>2011-04-02T05:50:01Z</time>
      </trkpt>
      <trkpt lat="38.236225" lon="-1.416386">
        <ele>183.2</ele>
        <time>2011-04-02T05:50:21Z</time>
      </trkpt>
      <trkpt lat="38.236045" lon="-1.416214">
        <ele>181.4</ele>
        <time>2011-04-02T05:50:43Z</time>
      </trkpt>
      <trkpt lat="38.235891" lon="-1.416081">
        <ele>178.0</ele>
        <time>2011-04-02T05:51:01Z</time>
      </trkpt>
      <trkpt lat="38.235698" lon="-1.415828">
        <ele>175.6</ele>
        <time>2011-04-02T05:51:20Z</time>
      </trkpt>
      <trkpt lat="38.235635" lon="-1.415797">
        <ele>171.6</ele>
        <time>2011-04-02T05:51:36Z</time>
      </trkpt>
      <trkpt lat="38.235400" lon="-1.415650">
        <ele>167.3</ele>
        <time>2011-04-02T05:53:29Z</time>
      </trkpt>
      <trkpt lat="38.235250" lon="-1.415460">
        <ele>167.3</ele>
        <time>2011-04-02T05:53:46Z</time>
      </trkpt>
      <trkpt lat="38.235060" lon="-1.415220">
        <ele>169.2</ele>
        <time>2011-04-02T05:54:06Z</time>
      </trkpt>
      <trkpt lat="38.234870" lon="-1.415070">
        <ele>169.8</ele>
        <time>2011-04-02T05:54:23Z</time>
      </trkpt>
      <trkpt lat="38.234670" lon="-1.414849">
        <ele>169.2</ele>
        <time>2011-04-02T05:54:43Z</time>
      </trkpt>
      <trkpt lat="38.234460" lon="-1.414660">
        <ele>166.7</ele>
        <time>2011-04-02T05:55:04Z</time>
      </trkpt>
      <trkpt lat="38.234140" lon="-1.414340">
        <ele>166.7</ele>
        <time>2011-04-02T05:55:34Z</time>
      </trkpt>
      <trkpt lat="38.233900" lon="-1.414080">
        <ele>164.9</ele>
        <time>2011-04-02T05:55:58Z</time>
      </trkpt>
      <trkpt lat="38.233640" lon="-1.413760">
        <ele>168.9</ele>
        <time>2011-04-02T05:56:22Z</time>
      </trkpt>
      <trkpt lat="38.233320" lon="-1.413420">
        <ele>169.8</ele>
        <time>2011-04-02T05:56:51Z</time>
      </trkpt>
      <trkpt lat="38.233090" lon="-1.413200">
        <ele>168.9</ele>
        <time>2011-04-02T05:57:12Z</time>
      </trkpt>
      <trkpt lat="38.232850" lon="-1.412970">
        <ele>167.3</ele>
        <time>2011-04-02T05:57:35Z</time>
      </trkpt>
      <trkpt lat="38.232850" lon="-1.412990">
        <ele>163.4</ele>
        <time>2011-04-02T05:57:58Z</time>
      </trkpt>
      <trkpt lat="38.232770" lon="-1.412880">
        <ele>162.5</ele>
        <time>2011-04-02T05:58:12Z</time>
      </trkpt>
      <trkpt lat="38.232510" lon="-1.412640">
        <ele>163.4</ele>
        <time>2011-04-02T05:58:34Z</time>
      </trkpt>
      <trkpt lat="38.232340" lon="-1.412580">
        <ele>162.5</ele>
        <time>2011-04-02T05:58:51Z</time>
      </trkpt>
      <trkpt lat="38.232160" lon="-1.412580">
        <ele>164.3</ele>
        <time>2011-04-02T05:59:06Z</time>
      </trkpt>
      <trkpt lat="38.231950" lon="-1.412450">
        <ele>163.4</ele>
        <time>2011-04-02T05:59:24Z</time>
      </trkpt>
      <trkpt lat="38.231860" lon="-1.412410">
        <ele>163.4</ele>
        <time>2011-04-02T05:59:30Z</time>
      </trkpt>
      <trkpt lat="38.231650" lon="-1.412240">
        <ele>164.9</ele>
        <time>2011-04-02T05:59:50Z</time>
      </trkpt>
      <trkpt lat="38.231540" lon="-1.412150">
        <ele>165.8</ele>
        <time>2011-04-02T06:00:03Z</time>
      </trkpt>
      <trkpt lat="38.231500" lon="-1.412110">
        <ele>166.4</ele>
        <time>2011-04-02T06:00:17Z</time>
      </trkpt>
      <trkpt lat="38.231480" lon="-1.412090">
        <ele>166.4</ele>
        <time>2011-04-02T06:00:28Z</time>
      </trkpt>
      <trkpt lat="38.231330" lon="-1.411980">
        <ele>165.8</ele>
        <time>2011-04-02T06:00:42Z</time>
      </trkpt>
      <trkpt lat="38.231110" lon="-1.411810">
        <ele>164.0</ele>
        <time>2011-04-02T06:01:03Z</time>
      </trkpt>
      <trkpt lat="38.230920" lon="-1.411660">
        <ele>164.0</ele>
        <time>2011-04-02T06:01:22Z</time>
      </trkpt>
      <trkpt lat="38.230710" lon="-1.411510">
        <ele>163.4</ele>
        <time>2011-04-02T06:01:42Z</time>
      </trkpt>
      <trkpt lat="38.230580" lon="-1.411400">
        <ele>164.0</ele>
        <time>2011-04-02T06:01:56Z</time>
      </trkpt>
      <trkpt lat="38.230380" lon="-1.411190">
        <ele>165.8</ele>
        <time>2011-04-02T06:02:14Z</time>
      </trkpt>
      <trkpt lat="38.230250" lon="-1.410950">
        <ele>164.9</ele>
        <time>2011-04-02T06:02:33Z</time>
      </trkpt>
      <trkpt lat="38.230130" lon="-1.410760">
        <ele>167.3</ele>
        <time>2011-04-02T06:02:52Z</time>
      </trkpt>
      <trkpt lat="38.230100" lon="-1.410780">
        <ele>166.7</ele>
        <time>2011-04-02T06:02:55Z</time>
      </trkpt>
      <trkpt lat="38.230000" lon="-1.411100">
        <ele>164.3</ele>
        <time>2011-04-02T06:03:16Z</time>
      </trkpt>
      <trkpt lat="38.229930" lon="-1.411360">
        <ele>163.4</ele>
        <time>2011-04-02T06:03:32Z</time>
      </trkpt>
      <trkpt lat="38.229870" lon="-1.411680">
        <ele>161.8</ele>
        <time>2011-04-02T06:03:51Z</time>
      </trkpt>
      <trkpt lat="38.229800" lon="-1.411940">
        <ele>161.8</ele>
        <time>2011-04-02T06:04:08Z</time>
      </trkpt>
      <trkpt lat="38.229740" lon="-1.412190">
        <ele>162.5</ele>
        <time>2011-04-02T06:04:25Z</time>
      </trkpt>
      <trkpt lat="38.229700" lon="-1.412490">
        <ele>164.3</ele>
        <time>2011-04-02T06:04:43Z</time>
      </trkpt>
      <trkpt lat="38.229530" lon="-1.412670">
        <ele>164.0</ele>
        <time>2011-04-02T06:05:00Z</time>
      </trkpt>
      <trkpt lat="38.229370" lon="-1.412790">
        <ele>162.5</ele>
        <time>2011-04-02T06:05:13Z</time>
      </trkpt>
      <trkpt lat="38.229310" lon="-1.412860">
        <ele>162.5</ele>
        <time>2011-04-02T06:05:19Z</time>
      </trkpt>
      <trkpt lat="38.229140" lon="-1.413140">
        <ele>162.5</ele>
        <time>2011-04-02T06:05:39Z</time>
      </trkpt>
      <trkpt lat="38.228920" lon="-1.413420">
        <ele>164.3</ele>
        <time>2011-04-02T06:06:02Z</time>
      </trkpt>
      <trkpt lat="38.228730" lon="-1.413700">
        <ele>165.8</ele>
        <time>2011-04-02T06:06:24Z</time>
      </trkpt>
      <trkpt lat="38.228650" lon="-1.413890">
        <ele>164.9</ele>
        <time>2011-04-02T06:06:39Z</time>
      </trkpt>
      <trkpt lat="38.228470" lon="-1.414170">
        <ele>164.9</ele>
        <time>2011-04-02T06:07:00Z</time>
      </trkpt>
      <trkpt lat="38.228280" lon="-1.414470">
        <ele>164.3</ele>
        <time>2011-04-02T06:07:22Z</time>
      </trkpt>
      <trkpt lat="38.228130" lon="-1.414750">
        <ele>164.0</ele>
        <time>2011-04-02T06:07:41Z</time>
      </trkpt>
      <trkpt lat="38.227980" lon="-1.415050">
        <ele>164.0</ele>
        <time>2011-04-02T06:08:02Z</time>
      </trkpt>
      <trkpt lat="38.227810" lon="-1.415390">
        <ele>164.0</ele>
        <time>2011-04-02T06:08:25Z</time>
      </trkpt>
      <trkpt lat="38.227810" lon="-1.415410">
        <ele>163.4</ele>
        <time>2011-04-02T06:08:27Z</time>
      </trkpt>
      <trkpt lat="38.227680" lon="-1.415670">
        <ele>161.5</ele>
        <time>2011-04-02T06:08:45Z</time>
      </trkpt>
      <trkpt lat="38.227570" lon="-1.415910">
        <ele>162.5</ele>
        <time>2011-04-02T06:09:02Z</time>
      </trkpt>
      <trkpt lat="38.227510" lon="-1.415990">
        <ele>162.5</ele>
        <time>2011-04-02T06:09:15Z</time>
      </trkpt>
      <trkpt lat="38.227470" lon="-1.416060">
        <ele>160.9</ele>
        <time>2011-04-02T06:09:35Z</time>
      </trkpt>
      <trkpt lat="38.227440" lon="-1.416140">
        <ele>161.5</ele>
        <time>2011-04-02T06:09:49Z</time>
      </trkpt>
      <trkpt lat="38.227290" lon="-1.416400">
        <ele>161.5</ele>
        <time>2011-04-02T06:10:07Z</time>
      </trkpt>
      <trkpt lat="38.227120" lon="-1.416680">
        <ele>161.8</ele>
        <time>2011-04-02T06:10:27Z</time>
      </trkpt>
      <trkpt lat="38.226950" lon="-1.417020">
        <ele>163.4</ele>
        <time>2011-04-02T06:10:50Z</time>
      </trkpt>
      <trkpt lat="38.226800" lon="-1.417390">
        <ele>162.5</ele>
        <time>2011-04-02T06:11:14Z</time>
      </trkpt>
      <trkpt lat="38.226630" lon="-1.417640">
        <ele>163.4</ele>
        <time>2011-04-02T06:11:33Z</time>
      </trkpt>
      <trkpt lat="38.226540" lon="-1.417710">
        <ele>163.4</ele>
        <time>2011-04-02T06:11:41Z</time>
      </trkpt>
      <trkpt lat="38.226390" lon="-1.417860">
        <ele>161.8</ele>
        <time>2011-04-02T06:11:57Z</time>
      </trkpt>
      <trkpt lat="38.226110" lon="-1.417920">
        <ele>160.9</ele>
        <time>2011-04-02T06:12:17Z</time>
      </trkpt>
      <trkpt lat="38.225830" lon="-1.417840">
        <ele>159.4</ele>
        <time>2011-04-02T06:12:38Z</time>
      </trkpt>
      <trkpt lat="38.225600" lon="-1.417620">
        <ele>159.1</ele>
        <time>2011-04-02T06:12:59Z</time>
      </trkpt>
      <trkpt lat="38.225360" lon="-1.417370">
        <ele>159.4</ele>
        <time>2011-04-02T06:13:20Z</time>
      </trkpt>
      <trkpt lat="38.225170" lon="-1.417150">
        <ele>160.0</ele>
        <time>2011-04-02T06:13:39Z</time>
      </trkpt>
      <trkpt lat="38.224890" lon="-1.416910">
        <ele>161.5</ele>
        <time>2011-04-02T06:14:02Z</time>
      </trkpt>
      <trkpt lat="38.224650" lon="-1.416720">
        <ele>161.5</ele>
        <time>2011-04-02T06:14:23Z</time>
      </trkpt>
      <trkpt lat="38.224400" lon="-1.416490">
        <ele>161.5</ele>
        <time>2011-04-02T06:14:45Z</time>
      </trkpt>
      <trkpt lat="38.224180" lon="-1.416340">
        <ele>160.0</ele>
        <time>2011-04-02T06:15:05Z</time>
      </trkpt>
      <trkpt lat="38.223970" lon="-1.416140">
        <ele>159.1</ele>
        <time>2011-04-02T06:15:24Z</time>
      </trkpt>
      <trkpt lat="38.223800" lon="-1.416010">
        <ele>158.5</ele>
        <time>2011-04-02T06:15:40Z</time>
      </trkpt>
      <trkpt lat="38.223560" lon="-1.415840">
        <ele>157.9</ele>
        <time>2011-04-02T06:16:01Z</time>
      </trkpt>
      <trkpt lat="38.223300" lon="-1.415730">
        <ele>158.5</ele>
        <time>2011-04-02T06:16:21Z</time>
      </trkpt>
      <trkpt lat="38.223070" lon="-1.415560">
        <ele>157.9</ele>
        <time>2011-04-02T06:16:41Z</time>
      </trkpt>
      <trkpt lat="38.222810" lon="-1.415370">
        <ele>158.5</ele>
        <time>2011-04-02T06:17:01Z</time>
      </trkpt>
      <trkpt lat="38.222700" lon="-1.415310">
        <ele>158.5</ele>
        <time>2011-04-02T06:17:09Z</time>
      </trkpt>
      <trkpt lat="38.222660" lon="-1.415150">
        <ele>159.4</ele>
        <time>2011-04-02T06:17:15Z</time>
      </trkpt>
      <trkpt lat="38.222570" lon="-1.415070">
        <ele>159.1</ele>
        <time>2011-04-02T06:17:24Z</time>
      </trkpt>
      <trkpt lat="38.222440" lon="-1.415050">
        <ele>159.4</ele>
        <time>2011-04-02T06:17:37Z</time>
      </trkpt>
      <trkpt lat="38.222230" lon="-1.414920">
        <ele>159.1</ele>
        <time>2011-04-02T06:17:58Z</time>
      </trkpt>
      <trkpt lat="38.222120" lon="-1.414900">
        <ele>157.9</ele>
        <time>2011-04-02T06:18:07Z</time>
      </trkpt>
      <trkpt lat="38.222040" lon="-1.414900">
        <ele>157.0</ele>
        <time>2011-04-02T06:18:14Z</time>
      </trkpt>
      <trkpt lat="38.221930" lon="-1.414940">
        <ele>160.0</ele>
        <time>2011-04-02T06:18:23Z</time>
      </trkpt>
      <trkpt lat="38.221710" lon="-1.415000">
        <ele>157.6</ele>
        <time>2011-04-02T06:18:40Z</time>
      </trkpt>
      <trkpt lat="38.221460" lon="-1.415030">
        <ele>157.9</ele>
        <time>2011-04-02T06:18:58Z</time>
      </trkpt>
      <trkpt lat="38.221220" lon="-1.415030">
        <ele>159.1</ele>
        <time>2011-04-02T06:19:18Z</time>
      </trkpt>
      <trkpt lat="38.221140" lon="-1.415030">
        <ele>156.7</ele>
        <time>2011-04-02T06:19:37Z</time>
      </trkpt>
      <trkpt lat="38.221050" lon="-1.415090">
        <ele>156.7</ele>
        <time>2011-04-02T06:19:44Z</time>
      </trkpt>
      <trkpt lat="38.221030" lon="-1.415070">
        <ele>158.5</ele>
        <time>2011-04-02T06:19:53Z</time>
      </trkpt>
      <trkpt lat="38.220900" lon="-1.415110">
        <ele>157.9</ele>
        <time>2011-04-02T06:20:04Z</time>
      </trkpt>
      <trkpt lat="38.220880" lon="-1.415110">
        <ele>158.5</ele>
        <time>2011-04-02T06:20:07Z</time>
      </trkpt>
      <trkpt lat="38.220730" lon="-1.415180">
        <ele>156.7</ele>
        <time>2011-04-02T06:20:22Z</time>
      </trkpt>
      <trkpt lat="38.220510" lon="-1.415200">
        <ele>156.7</ele>
        <time>2011-04-02T06:20:40Z</time>
      </trkpt>
      <trkpt lat="38.220510" lon="-1.415200">
        <ele>156.7</ele>
        <time>2011-04-02T06:20:55Z</time>
      </trkpt>
      <trkpt lat="38.220320" lon="-1.415220">
        <ele>157.0</ele>
        <time>2011-04-02T06:21:23Z</time>
      </trkpt>
      <trkpt lat="38.220060" lon="-1.415260">
        <ele>155.8</ele>
        <time>2011-04-02T06:21:39Z</time>
      </trkpt>
      <trkpt lat="38.219700" lon="-1.415390">
        <ele>154.5</ele>
        <time>2011-04-02T06:22:03Z</time>
      </trkpt>
      <trkpt lat="38.219400" lon="-1.415370">
        <ele>154.5</ele>
        <time>2011-04-02T06:22:22Z</time>
      </trkpt>
      <trkpt lat="38.219270" lon="-1.415330">
        <ele>155.1</ele>
        <time>2011-04-02T06:22:35Z</time>
      </trkpt>
      <trkpt lat="38.219080" lon="-1.415260">
        <ele>157.9</ele>
        <time>2011-04-02T06:23:12Z</time>
      </trkpt>
      <trkpt lat="38.218750" lon="-1.415240">
        <ele>156.7</ele>
        <time>2011-04-02T06:23:32Z</time>
      </trkpt>
      <trkpt lat="38.218500" lon="-1.415260">
        <ele>157.0</ele>
        <time>2011-04-02T06:23:48Z</time>
      </trkpt>
      <trkpt lat="38.218450" lon="-1.415260">
        <ele>156.7</ele>
        <time>2011-04-02T06:23:51Z</time>
      </trkpt>
      <trkpt lat="38.218350" lon="-1.415200">
        <ele>156.1</ele>
        <time>2011-04-02T06:23:59Z</time>
      </trkpt>
      <trkpt lat="38.218170" lon="-1.415030">
        <ele>155.8</ele>
        <time>2011-04-02T06:24:14Z</time>
      </trkpt>
      <trkpt lat="38.218200" lon="-1.414940">
        <ele>155.1</ele>
        <time>2011-04-02T06:24:21Z</time>
      </trkpt>
      <trkpt lat="38.218240" lon="-1.414900">
        <ele>155.1</ele>
        <time>2011-04-02T06:24:25Z</time>
      </trkpt>
      <trkpt lat="38.218260" lon="-1.414880">
        <ele>154.5</ele>
        <time>2011-04-02T06:24:28Z</time>
      </trkpt>
      <trkpt lat="38.218350" lon="-1.414550">
        <ele>154.2</ele>
        <time>2011-04-02T06:24:46Z</time>
      </trkpt>
      <trkpt lat="38.218370" lon="-1.414450">
        <ele>152.7</ele>
        <time>2011-04-02T06:24:53Z</time>
      </trkpt>
      <trkpt lat="38.218390" lon="-1.414430">
        <ele>153.6</ele>
        <time>2011-04-02T06:24:55Z</time>
      </trkpt>
      <trkpt lat="38.218520" lon="-1.414170">
        <ele>155.8</ele>
        <time>2011-04-02T06:25:11Z</time>
      </trkpt>
      <trkpt lat="38.218690" lon="-1.413820">
        <ele>155.8</ele>
        <time>2011-04-02T06:25:32Z</time>
      </trkpt>
      <trkpt lat="38.218770" lon="-1.413520">
        <ele>157.9</ele>
        <time>2011-04-02T06:25:49Z</time>
      </trkpt>
      <trkpt lat="38.218800" lon="-1.413330">
        <ele>157.0</ele>
        <time>2011-04-02T06:26:07Z</time>
      </trkpt>
      <trkpt lat="38.218820" lon="-1.413120">
        <ele>159.4</ele>
        <time>2011-04-02T06:26:44Z</time>
      </trkpt>
      <trkpt lat="38.218840" lon="-1.412790">
        <ele>156.7</ele>
        <time>2011-04-02T06:27:01Z</time>
      </trkpt>
      <trkpt lat="38.218880" lon="-1.412520">
        <ele>157.6</ele>
        <time>2011-04-02T06:27:19Z</time>
      </trkpt>
      <trkpt lat="38.218880" lon="-1.412470">
        <ele>158.5</ele>
        <time>2011-04-02T06:27:26Z</time>
      </trkpt>
      <trkpt lat="38.218900" lon="-1.412320">
        <ele>157.9</ele>
        <time>2011-04-02T06:27:38Z</time>
      </trkpt>
      <trkpt lat="38.218970" lon="-1.411910">
        <ele>160.3</ele>
        <time>2011-04-02T06:28:00Z</time>
      </trkpt>
      <trkpt lat="38.218970" lon="-1.411640">
        <ele>157.6</ele>
        <time>2011-04-02T06:28:16Z</time>
      </trkpt>
      <trkpt lat="38.218950" lon="-1.411230">
        <ele>156.1</ele>
        <time>2011-04-02T06:28:36Z</time>
      </trkpt>
      <trkpt lat="38.218970" lon="-1.411060">
        <ele>156.1</ele>
        <time>2011-04-02T06:28:45Z</time>
      </trkpt>
      <trkpt lat="38.218920" lon="-1.410990">
        <ele>156.7</ele>
        <time>2011-04-02T06:28:54Z</time>
      </trkpt>
      <trkpt lat="38.218840" lon="-1.410990">
        <ele>154.5</ele>
        <time>2011-04-02T06:29:10Z</time>
      </trkpt>
      <trkpt lat="38.218880" lon="-1.411010">
        <ele>159.1</ele>
        <time>2011-04-02T06:29:41Z</time>
      </trkpt>
      <trkpt lat="38.218920" lon="-1.411010">
        <ele>158.5</ele>
        <time>2011-04-02T06:29:51Z</time>
      </trkpt>
      <trkpt lat="38.219050" lon="-1.410670">
        <ele>160.0</ele>
        <time>2011-04-02T06:30:10Z</time>
      </trkpt>
      <trkpt lat="38.219140" lon="-1.410280">
        <ele>159.4</ele>
        <time>2011-04-02T06:30:31Z</time>
      </trkpt>
      <trkpt lat="38.219120" lon="-1.409940">
        <ele>158.5</ele>
        <time>2011-04-02T06:30:49Z</time>
      </trkpt>
      <trkpt lat="38.219120" lon="-1.409550">
        <ele>155.8</ele>
        <time>2011-04-02T06:31:09Z</time>
      </trkpt>
      <trkpt lat="38.219080" lon="-1.409250">
        <ele>155.8</ele>
        <time>2011-04-02T06:31:27Z</time>
      </trkpt>
      <trkpt lat="38.218990" lon="-1.408950">
        <ele>156.7</ele>
        <time>2011-04-02T06:31:48Z</time>
      </trkpt>
      <trkpt lat="38.218840" lon="-1.408700">
        <ele>155.1</ele>
        <time>2011-04-02T06:32:07Z</time>
      </trkpt>
      <trkpt lat="38.218620" lon="-1.408370">
        <ele>154.5</ele>
        <time>2011-04-02T06:32:33Z</time>
      </trkpt>
      <trkpt lat="38.218410" lon="-1.408220">
        <ele>154.5</ele>
        <time>2011-04-02T06:32:53Z</time>
      </trkpt>
      <trkpt lat="38.218110" lon="-1.408140">
        <ele>152.7</ele>
        <time>2011-04-02T06:33:16Z</time>
      </trkpt>
      <trkpt lat="38.217830" lon="-1.408050">
        <ele>153.3</ele>
        <time>2011-04-02T06:33:38Z</time>
      </trkpt>
      <trkpt lat="38.217530" lon="-1.407990">
        <ele>155.8</ele>
        <time>2011-04-02T06:34:01Z</time>
      </trkpt>
      <trkpt lat="38.217420" lon="-1.407970">
        <ele>157.6</ele>
        <time>2011-04-02T06:34:17Z</time>
      </trkpt>
      <trkpt lat="38.217380" lon="-1.407950">
        <ele>158.5</ele>
        <time>2011-04-02T06:34:22Z</time>
      </trkpt>
      <trkpt lat="38.217360" lon="-1.407920">
        <ele>157.9</ele>
        <time>2011-04-02T06:34:25Z</time>
      </trkpt>
      <trkpt lat="38.217210" lon="-1.407840">
        <ele>157.9</ele>
        <time>2011-04-02T06:34:40Z</time>
      </trkpt>
      <trkpt lat="38.217140" lon="-1.407750">
        <ele>159.4</ele>
        <time>2011-04-02T06:34:55Z</time>
      </trkpt>
      <trkpt lat="38.217140" lon="-1.407750">
        <ele>160.0</ele>
        <time>2011-04-02T06:35:03Z</time>
      </trkpt>
      <trkpt lat="38.217170" lon="-1.407750">
        <ele>164.0</ele>
        <time>2011-04-02T06:35:24Z</time>
      </trkpt>
      <trkpt lat="38.217140" lon="-1.407750">
        <ele>162.5</ele>
        <time>2011-04-02T06:35:41Z</time>
      </trkpt>
      <trkpt lat="38.216930" lon="-1.407430">
        <ele>162.5</ele>
        <time>2011-04-02T06:36:02Z</time>
      </trkpt>
      <trkpt lat="38.216670" lon="-1.407130">
        <ele>162.5</ele>
        <time>2011-04-02T06:36:25Z</time>
      </trkpt>
      <trkpt lat="38.216460" lon="-1.406850">
        <ele>164.9</ele>
        <time>2011-04-02T06:36:47Z</time>
      </trkpt>
      <trkpt lat="38.216350" lon="-1.406550">
        <ele>165.8</ele>
        <time>2011-04-02T06:37:04Z</time>
      </trkpt>
      <trkpt lat="38.216180" lon="-1.406290">
        <ele>167.3</ele>
        <time>2011-04-02T06:37:22Z</time>
      </trkpt>
      <trkpt lat="38.216180" lon="-1.406270">
        <ele>167.3</ele>
        <time>2011-04-02T06:37:26Z</time>
      </trkpt>
      <trkpt lat="38.216180" lon="-1.406270">
        <ele>167.3</ele>
        <time>2011-04-02T06:37:32Z</time>
      </trkpt>
      <trkpt lat="38.216010" lon="-1.405970">
        <ele>165.8</ele>
        <time>2011-04-02T06:37:52Z</time>
      </trkpt>
      <trkpt lat="38.215810" lon="-1.405710">
        <ele>167.3</ele>
        <time>2011-04-02T06:38:15Z</time>
      </trkpt>
      <trkpt lat="38.215810" lon="-1.405690">
        <ele>166.4</ele>
        <time>2011-04-02T06:38:26Z</time>
      </trkpt>
      <trkpt lat="38.215840" lon="-1.405670">
        <ele>165.8</ele>
        <time>2011-04-02T06:38:32Z</time>
      </trkpt>
      <trkpt lat="38.215900" lon="-1.405690">
        <ele>164.9</ele>
        <time>2011-04-02T06:38:37Z</time>
      </trkpt>
      <trkpt lat="38.215960" lon="-1.405740">
        <ele>164.0</ele>
        <time>2011-04-02T06:38:42Z</time>
      </trkpt>
      <trkpt lat="38.216110" lon="-1.406010">
        <ele>162.5</ele>
        <time>2011-04-02T06:39:03Z</time>
      </trkpt>
      <trkpt lat="38.216260" lon="-1.406140">
        <ele>160.9</ele>
        <time>2011-04-02T06:39:16Z</time>
      </trkpt>
      <trkpt lat="38.216410" lon="-1.405910">
        <ele>160.3</ele>
        <time>2011-04-02T06:39:33Z</time>
      </trkpt>
      <trkpt lat="38.216650" lon="-1.405630">
        <ele>160.0</ele>
        <time>2011-04-02T06:39:55Z</time>
      </trkpt>
      <trkpt lat="38.216870" lon="-1.405330">
        <ele>159.1</ele>
        <time>2011-04-02T06:40:18Z</time>
      </trkpt>
      <trkpt lat="38.217020" lon="-1.404960">
        <ele>156.7</ele>
        <time>2011-04-02T06:40:41Z</time>
      </trkpt>
      <trkpt lat="38.217080" lon="-1.404620">
        <ele>156.7</ele>
        <time>2011-04-02T06:40:59Z</time>
      </trkpt>
      <trkpt lat="38.217100" lon="-1.404300">
        <ele>157.0</ele>
        <time>2011-04-02T06:41:18Z</time>
      </trkpt>
      <trkpt lat="38.217080" lon="-1.403930">
        <ele>158.5</ele>
        <time>2011-04-02T06:41:37Z</time>
      </trkpt>
      <trkpt lat="38.217020" lon="-1.403570">
        <ele>160.0</ele>
        <time>2011-04-02T06:41:59Z</time>
      </trkpt>
      <trkpt lat="38.216910" lon="-1.403310">
        <ele>160.0</ele>
        <time>2011-04-02T06:42:15Z</time>
      </trkpt>
      <trkpt lat="38.216820" lon="-1.403100">
        <ele>160.3</ele>
        <time>2011-04-02T06:42:31Z</time>
      </trkpt>
      <trkpt lat="38.216670" lon="-1.402690">
        <ele>160.0</ele>
        <time>2011-04-02T06:42:56Z</time>
      </trkpt>
      <trkpt lat="38.216650" lon="-1.402539">
        <ele>160.0</ele>
        <time>2011-04-02T06:43:06Z</time>
      </trkpt>
      <trkpt lat="38.216610" lon="-1.402430">
        <ele>161.5</ele>
        <time>2011-04-02T06:43:13Z</time>
      </trkpt>
      <trkpt lat="38.216520" lon="-1.402150">
        <ele>161.5</ele>
        <time>2011-04-02T06:43:33Z</time>
      </trkpt>
      <trkpt lat="38.216410" lon="-1.401850">
        <ele>164.0</ele>
        <time>2011-04-02T06:43:54Z</time>
      </trkpt>
      <trkpt lat="38.216330" lon="-1.401510">
        <ele>164.3</ele>
        <time>2011-04-02T06:44:18Z</time>
      </trkpt>
      <trkpt lat="38.216260" lon="-1.401270">
        <ele>164.9</ele>
        <time>2011-04-02T06:44:36Z</time>
      </trkpt>
      <trkpt lat="38.216240" lon="-1.400930">
        <ele>164.9</ele>
        <time>2011-04-02T06:44:57Z</time>
      </trkpt>
      <trkpt lat="38.216220" lon="-1.400560">
        <ele>165.8</ele>
        <time>2011-04-02T06:45:17Z</time>
      </trkpt>
      <trkpt lat="38.216200" lon="-1.400310">
        <ele>164.0</ele>
        <time>2011-04-02T06:45:35Z</time>
      </trkpt>
      <trkpt lat="38.216180" lon="-1.399960">
        <ele>162.5</ele>
        <time>2011-04-02T06:45:56Z</time>
      </trkpt>
      <trkpt lat="38.216140" lon="-1.399830">
        <ele>161.8</ele>
        <time>2011-04-02T06:46:10Z</time>
      </trkpt>
      <trkpt lat="38.216070" lon="-1.399580">
        <ele>161.8</ele>
        <time>2011-04-02T06:46:24Z</time>
      </trkpt>
      <trkpt lat="38.216070" lon="-1.399530">
        <ele>161.5</ele>
        <time>2011-04-02T06:46:27Z</time>
      </trkpt>
      <trkpt lat="38.216070" lon="-1.399230">
        <ele>162.5</ele>
        <time>2011-04-02T06:46:46Z</time>
      </trkpt>
      <trkpt lat="38.216140" lon="-1.398980">
        <ele>161.8</ele>
        <time>2011-04-02T06:47:02Z</time>
      </trkpt>
      <trkpt lat="38.216260" lon="-1.398720">
        <ele>163.4</ele>
        <time>2011-04-02T06:47:20Z</time>
      </trkpt>
      <trkpt lat="38.216480" lon="-1.398550">
        <ele>160.0</ele>
        <time>2011-04-02T06:47:40Z</time>
      </trkpt>
      <trkpt lat="38.216590" lon="-1.398310">
        <ele>158.5</ele>
        <time>2011-04-02T06:47:56Z</time>
      </trkpt>
      <trkpt lat="38.216780" lon="-1.398160">
        <ele>159.4</ele>
        <time>2011-04-02T06:48:15Z</time>
      </trkpt>
      <trkpt lat="38.216890" lon="-1.398070">
        <ele>158.5</ele>
        <time>2011-04-02T06:48:24Z</time>
      </trkpt>
      <trkpt lat="38.216930" lon="-1.398050">
        <ele>158.5</ele>
        <time>2011-04-02T06:48:28Z</time>
      </trkpt>
      <trkpt lat="38.217230" lon="-1.397900">
        <ele>157.6</ele>
        <time>2011-04-02T06:48:53Z</time>
      </trkpt>
      <trkpt lat="38.217490" lon="-1.397840">
        <ele>154.2</ele>
        <time>2011-04-02T06:49:13Z</time>
      </trkpt>
      <trkpt lat="38.217590" lon="-1.397800">
        <ele>156.1</ele>
        <time>2011-04-02T06:49:21Z</time>
      </trkpt>
      <trkpt lat="38.217830" lon="-1.397620">
        <ele>157.9</ele>
        <time>2011-04-02T06:49:42Z</time>
      </trkpt>
      <trkpt lat="38.218090" lon="-1.397500">
        <ele>159.4</ele>
        <time>2011-04-02T06:50:04Z</time>
      </trkpt>
      <trkpt lat="38.218350" lon="-1.397370">
        <ele>159.1</ele>
        <time>2011-04-02T06:50:25Z</time>
      </trkpt>
      <trkpt lat="38.218600" lon="-1.397240">
        <ele>160.3</ele>
        <time>2011-04-02T06:50:47Z</time>
      </trkpt>
      <trkpt lat="38.218730" lon="-1.397020">
        <ele>159.1</ele>
        <time>2011-04-02T06:51:06Z</time>
      </trkpt>
      <trkpt lat="38.218880" lon="-1.396810">
        <ele>157.6</ele>
        <time>2011-04-02T06:51:24Z</time>
      </trkpt>
      <trkpt lat="38.219250" lon="-1.395970">
        <ele>166.4</ele>
        <time>2011-04-02T06:52:21Z</time>
      </trkpt>
      <trkpt lat="38.219350" lon="-1.395590">
        <ele>168.2</ele>
        <time>2011-04-02T06:52:45Z</time>
      </trkpt>
      <trkpt lat="38.219400" lon="-1.395330">
        <ele>168.9</ele>
        <time>2011-04-02T06:53:04Z</time>
      </trkpt>
      <trkpt lat="38.219440" lon="-1.394980">
        <ele>169.8</ele>
        <time>2011-04-02T06:53:26Z</time>
      </trkpt>
      <trkpt lat="38.219500" lon="-1.394640">
        <ele>169.2</ele>
        <time>2011-04-02T06:53:49Z</time>
      </trkpt>
      <trkpt lat="38.219480" lon="-1.394620">
        <ele>164.9</ele>
        <time>2011-04-02T07:01:20Z</time>
      </trkpt>
      <trkpt lat="38.219480" lon="-1.394580">
        <ele>164.9</ele>
        <time>2011-04-02T07:01:24Z</time>
      </trkpt>
      <trkpt lat="38.219590" lon="-1.394190">
        <ele>164.9</ele>
        <time>2011-04-02T07:01:48Z</time>
      </trkpt>
      <trkpt lat="38.219740" lon="-1.393870">
        <ele>167.3</ele>
        <time>2011-04-02T07:02:09Z</time>
      </trkpt>
      <trkpt lat="38.219910" lon="-1.393530">
        <ele>166.4</ele>
        <time>2011-04-02T07:02:34Z</time>
      </trkpt>
      <trkpt lat="38.220020" lon="-1.393120">
        <ele>169.8</ele>
        <time>2011-04-02T07:03:00Z</time>
      </trkpt>
      <trkpt lat="38.220190" lon="-1.392840">
        <ele>169.2</ele>
        <time>2011-04-02T07:03:22Z</time>
      </trkpt>
      <trkpt lat="38.220380" lon="-1.392560">
        <ele>169.2</ele>
        <time>2011-04-02T07:03:44Z</time>
      </trkpt>
      <trkpt lat="38.220560" lon="-1.392240">
        <ele>169.8</ele>
        <time>2011-04-02T07:04:07Z</time>
      </trkpt>
      <trkpt lat="38.220730" lon="-1.391920">
        <ele>172.2</ele>
        <time>2011-04-02T07:04:27Z</time>
      </trkpt>
      <trkpt lat="38.220880" lon="-1.391680">
        <ele>170.7</ele>
        <time>2011-04-02T07:04:50Z</time>
      </trkpt>
      <trkpt lat="38.220900" lon="-1.391700">
        <ele>175.6</ele>
        <time>2011-04-02T07:05:16Z</time>
      </trkpt>
      <trkpt lat="38.220920" lon="-1.391680">
        <ele>175.6</ele>
        <time>2011-04-02T07:05:27Z</time>
      </trkpt>
      <trkpt lat="38.221010" lon="-1.391380">
        <ele>174.0</ele>
        <time>2011-04-02T07:05:45Z</time>
      </trkpt>
      <trkpt lat="38.221030" lon="-1.391340">
        <ele>173.1</ele>
        <time>2011-04-02T07:05:49Z</time>
      </trkpt>
      <trkpt lat="38.221010" lon="-1.390780">
        <ele>173.1</ele>
        <time>2011-04-02T07:06:16Z</time>
      </trkpt>
      <trkpt lat="38.221030" lon="-1.390370">
        <ele>171.6</ele>
        <time>2011-04-02T07:06:38Z</time>
      </trkpt>
      <trkpt lat="38.221090" lon="-1.390010">
        <ele>172.2</ele>
        <time>2011-04-02T07:06:58Z</time>
      </trkpt>
      <trkpt lat="38.221310" lon="-1.389660">
        <ele>172.2</ele>
        <time>2011-04-02T07:07:20Z</time>
      </trkpt>
      <trkpt lat="38.221460" lon="-1.389340">
        <ele>174.0</ele>
        <time>2011-04-02T07:07:42Z</time>
      </trkpt>
      <trkpt lat="38.221560" lon="-1.388930">
        <ele>175.6</ele>
        <time>2011-04-02T07:08:06Z</time>
      </trkpt>
      <trkpt lat="38.221690" lon="-1.388570">
        <ele>177.4</ele>
        <time>2011-04-02T07:08:30Z</time>
      </trkpt>
      <trkpt lat="38.221890" lon="-1.388200">
        <ele>177.4</ele>
        <time>2011-04-02T07:08:54Z</time>
      </trkpt>
      <trkpt lat="38.222660" lon="-1.387750">
        <ele>174.0</ele>
        <time>2011-04-02T07:10:02Z</time>
      </trkpt>
      <trkpt lat="38.222850" lon="-1.387430">
        <ele>177.4</ele>
        <time>2011-04-02T07:10:23Z</time>
      </trkpt>
      <trkpt lat="38.222870" lon="-1.387070">
        <ele>174.0</ele>
        <time>2011-04-02T07:10:48Z</time>
      </trkpt>
      <trkpt lat="38.222920" lon="-1.387090">
        <ele>175.0</ele>
        <time>2011-04-02T07:11:04Z</time>
      </trkpt>
      <trkpt lat="38.222920" lon="-1.386960">
        <ele>174.0</ele>
        <time>2011-04-02T07:11:26Z</time>
      </trkpt>
      <trkpt lat="38.222830" lon="-1.386720">
        <ele>175.6</ele>
        <time>2011-04-02T07:11:42Z</time>
      </trkpt>
      <trkpt lat="38.222700" lon="-1.386400">
        <ele>175.6</ele>
        <time>2011-04-02T07:12:04Z</time>
      </trkpt>
      <trkpt lat="38.222660" lon="-1.386080">
        <ele>175.6</ele>
        <time>2011-04-02T07:12:22Z</time>
      </trkpt>
      <trkpt lat="38.222570" lon="-1.385760">
        <ele>179.8</ele>
        <time>2011-04-02T07:12:42Z</time>
      </trkpt>
      <trkpt lat="38.222490" lon="-1.385440">
        <ele>183.8</ele>
        <time>2011-04-02T07:13:02Z</time>
      </trkpt>
      <trkpt lat="38.222420" lon="-1.385160">
        <ele>183.2</ele>
        <time>2011-04-02T07:13:19Z</time>
      </trkpt>
      <trkpt lat="38.222420" lon="-1.384790">
        <ele>182.9</ele>
        <time>2011-04-02T07:13:40Z</time>
      </trkpt>
      <trkpt lat="38.222380" lon="-1.384410">
        <ele>183.2</ele>
        <time>2011-04-02T07:14:02Z</time>
      </trkpt>
      <trkpt lat="38.222210" lon="-1.384080">
        <ele>181.4</ele>
        <time>2011-04-02T07:14:24Z</time>
      </trkpt>
      <trkpt lat="38.222040" lon="-1.383740">
        <ele>178.9</ele>
        <time>2011-04-02T07:14:48Z</time>
      </trkpt>
      <trkpt lat="38.221950" lon="-1.383350">
        <ele>179.8</ele>
        <time>2011-04-02T07:15:09Z</time>
      </trkpt>
      <trkpt lat="38.221910" lon="-1.383030">
        <ele>181.4</ele>
        <time>2011-04-02T07:15:29Z</time>
      </trkpt>
      <trkpt lat="38.221890" lon="-1.382630">
        <ele>182.3</ele>
        <time>2011-04-02T07:15:52Z</time>
      </trkpt>
      <trkpt lat="38.221860" lon="-1.382220">
        <ele>182.9</ele>
        <time>2011-04-02T07:16:14Z</time>
      </trkpt>
      <trkpt lat="38.221890" lon="-1.381830">
        <ele>184.7</ele>
        <time>2011-04-02T07:16:37Z</time>
      </trkpt>
      <trkpt lat="38.221890" lon="-1.381680">
        <ele>183.8</ele>
        <time>2011-04-02T07:16:56Z</time>
      </trkpt>
      <trkpt lat="38.221860" lon="-1.381270">
        <ele>183.8</ele>
        <time>2011-04-02T07:17:16Z</time>
      </trkpt>
      <trkpt lat="38.221860" lon="-1.381020">
        <ele>183.8</ele>
        <time>2011-04-02T07:17:29Z</time>
      </trkpt>
      <trkpt lat="38.221860" lon="-1.380930">
        <ele>183.8</ele>
        <time>2011-04-02T07:17:35Z</time>
      </trkpt>
      <trkpt lat="38.221930" lon="-1.380540">
        <ele>182.9</ele>
        <time>2011-04-02T07:17:56Z</time>
      </trkpt>
      <trkpt lat="38.221910" lon="-1.380200">
        <ele>183.8</ele>
        <time>2011-04-02T07:18:17Z</time>
      </trkpt>
      <trkpt lat="38.221910" lon="-1.380160">
        <ele>186.8</ele>
        <time>2011-04-02T07:18:35Z</time>
      </trkpt>
      <trkpt lat="38.221970" lon="-1.379920">
        <ele>182.9</ele>
        <time>2011-04-02T07:19:33Z</time>
      </trkpt>
      <trkpt lat="38.222010" lon="-1.379540">
        <ele>182.3</ele>
        <time>2011-04-02T07:19:52Z</time>
      </trkpt>
      <trkpt lat="38.222080" lon="-1.379110">
        <ele>182.3</ele>
        <time>2011-04-02T07:20:12Z</time>
      </trkpt>
      <trkpt lat="38.222120" lon="-1.378700">
        <ele>184.7</ele>
        <time>2011-04-02T07:20:32Z</time>
      </trkpt>
      <trkpt lat="38.222190" lon="-1.378290">
        <ele>184.7</ele>
        <time>2011-04-02T07:20:53Z</time>
      </trkpt>
      <trkpt lat="38.222270" lon="-1.377880">
        <ele>185.3</ele>
        <time>2011-04-02T07:21:14Z</time>
      </trkpt>
      <trkpt lat="38.222290" lon="-1.377540">
        <ele>185.3</ele>
        <time>2011-04-02T07:21:32Z</time>
      </trkpt>
      <trkpt lat="38.222320" lon="-1.377150">
        <ele>184.7</ele>
        <time>2011-04-02T07:21:52Z</time>
      </trkpt>
      <trkpt lat="38.222380" lon="-1.376810">
        <ele>183.8</ele>
        <time>2011-04-02T07:22:11Z</time>
      </trkpt>
      <trkpt lat="38.222440" lon="-1.376420">
        <ele>183.8</ele>
        <time>2011-04-02T07:22:31Z</time>
      </trkpt>
      <trkpt lat="38.222530" lon="-1.376060">
        <ele>187.8</ele>
        <time>2011-04-02T07:22:51Z</time>
      </trkpt>
      <trkpt lat="38.222590" lon="-1.375670">
        <ele>187.1</ele>
        <time>2011-04-02T07:23:15Z</time>
      </trkpt>
      <trkpt lat="38.222510" lon="-1.375310">
        <ele>184.7</ele>
        <time>2011-04-02T07:23:36Z</time>
      </trkpt>
      <trkpt lat="38.222440" lon="-1.374960">
        <ele>185.6</ele>
        <time>2011-04-02T07:23:55Z</time>
      </trkpt>
      <trkpt lat="38.222470" lon="-1.374580">
        <ele>187.1</ele>
        <time>2011-04-02T07:24:15Z</time>
      </trkpt>
      <trkpt lat="38.222490" lon="-1.374300">
        <ele>188.1</ele>
        <time>2011-04-02T07:24:30Z</time>
      </trkpt>
      <trkpt lat="38.222530" lon="-1.374040">
        <ele>187.1</ele>
        <time>2011-04-02T07:24:46Z</time>
      </trkpt>
      <trkpt lat="38.222590" lon="-1.373740">
        <ele>188.1</ele>
        <time>2011-04-02T07:25:04Z</time>
      </trkpt>
      <trkpt lat="38.222660" lon="-1.373510">
        <ele>188.7</ele>
        <time>2011-04-02T07:25:20Z</time>
      </trkpt>
      <trkpt lat="38.222700" lon="-1.373420">
        <ele>188.7</ele>
        <time>2011-04-02T07:25:33Z</time>
      </trkpt>
      <trkpt lat="38.222770" lon="-1.373330">
        <ele>188.7</ele>
        <time>2011-04-02T07:25:48Z</time>
      </trkpt>
      <trkpt lat="38.222810" lon="-1.373230">
        <ele>195.1</ele>
        <time>2011-04-02T07:26:21Z</time>
      </trkpt>
      <trkpt lat="38.222920" lon="-1.372880">
        <ele>194.5</ele>
        <time>2011-04-02T07:26:41Z</time>
      </trkpt>
      <trkpt lat="38.223020" lon="-1.372560">
        <ele>193.5</ele>
        <time>2011-04-02T07:27:00Z</time>
      </trkpt>
      <trkpt lat="38.223150" lon="-1.372240">
        <ele>192.9</ele>
        <time>2011-04-02T07:27:18Z</time>
      </trkpt>
      <trkpt lat="38.223280" lon="-1.371940">
        <ele>192.6</ele>
        <time>2011-04-02T07:27:37Z</time>
      </trkpt>
      <trkpt lat="38.223500" lon="-1.371550">
        <ele>192.6</ele>
        <time>2011-04-02T07:28:00Z</time>
      </trkpt>
      <trkpt lat="38.223710" lon="-1.371250">
        <ele>192.9</ele>
        <time>2011-04-02T07:28:22Z</time>
      </trkpt>
      <trkpt lat="38.223880" lon="-1.370950">
        <ele>193.5</ele>
        <time>2011-04-02T07:28:42Z</time>
      </trkpt>
      <trkpt lat="38.224070" lon="-1.370670">
        <ele>193.5</ele>
        <time>2011-04-02T07:29:03Z</time>
      </trkpt>
      <trkpt lat="38.224200" lon="-1.370420">
        <ele>193.9</ele>
        <time>2011-04-02T07:29:21Z</time>
      </trkpt>
      <trkpt lat="38.224330" lon="-1.370090">
        <ele>192.9</ele>
        <time>2011-04-02T07:29:41Z</time>
      </trkpt>
      <trkpt lat="38.224350" lon="-1.369730">
        <ele>193.5</ele>
        <time>2011-04-02T07:30:01Z</time>
      </trkpt>
      <trkpt lat="38.224330" lon="-1.369620">
        <ele>193.5</ele>
        <time>2011-04-02T07:30:08Z</time>
      </trkpt>
      <trkpt lat="38.224330" lon="-1.369240">
        <ele>193.5</ele>
        <time>2011-04-02T07:30:31Z</time>
      </trkpt>
      <trkpt lat="38.224310" lon="-1.369040">
        <ele>195.1</ele>
        <time>2011-04-02T07:30:48Z</time>
      </trkpt>
      <trkpt lat="38.224310" lon="-1.369020">
        <ele>195.1</ele>
        <time>2011-04-02T07:31:11Z</time>
      </trkpt>
      <trkpt lat="38.224270" lon="-1.368850">
        <ele>193.9</ele>
        <time>2011-04-02T07:32:07Z</time>
      </trkpt>
      <trkpt lat="38.224270" lon="-1.368830">
        <ele>195.1</ele>
        <time>2011-04-02T07:32:10Z</time>
      </trkpt>
      <trkpt lat="38.224290" lon="-1.368590">
        <ele>195.1</ele>
        <time>2011-04-02T07:32:27Z</time>
      </trkpt>
      <trkpt lat="38.224290" lon="-1.368570">
        <ele>195.1</ele>
        <time>2011-04-02T07:32:41Z</time>
      </trkpt>
      <trkpt lat="38.224270" lon="-1.368400">
        <ele>196.0</ele>
        <time>2011-04-02T07:32:52Z</time>
      </trkpt>
      <trkpt lat="38.224330" lon="-1.368310">
        <ele>198.4</ele>
        <time>2011-04-02T07:33:12Z</time>
      </trkpt>
      <trkpt lat="38.224310" lon="-1.368310">
        <ele>197.8</ele>
        <time>2011-04-02T07:33:43Z</time>
      </trkpt>
      <trkpt lat="38.224330" lon="-1.368290">
        <ele>196.3</ele>
        <time>2011-04-02T07:34:00Z</time>
      </trkpt>
      <trkpt lat="38.224350" lon="-1.368250">
        <ele>192.0</ele>
        <time>2011-04-02T07:34:28Z</time>
      </trkpt>
      <trkpt lat="38.224330" lon="-1.368250">
        <ele>195.4</ele>
        <time>2011-04-02T07:34:45Z</time>
      </trkpt>
      <trkpt lat="38.224350" lon="-1.368010">
        <ele>195.1</ele>
        <time>2011-04-02T07:35:00Z</time>
      </trkpt>
      <trkpt lat="38.224400" lon="-1.367840">
        <ele>196.3</ele>
        <time>2011-04-02T07:35:10Z</time>
      </trkpt>
      <trkpt lat="38.224590" lon="-1.367650">
        <ele>193.9</ele>
        <time>2011-04-02T07:35:29Z</time>
      </trkpt>
      <trkpt lat="38.224720" lon="-1.367500">
        <ele>192.6</ele>
        <time>2011-04-02T07:35:43Z</time>
      </trkpt>
      <trkpt lat="38.224800" lon="-1.367330">
        <ele>192.0</ele>
        <time>2011-04-02T07:35:58Z</time>
      </trkpt>
      <trkpt lat="38.224800" lon="-1.367330">
        <ele>192.6</ele>
        <time>2011-04-02T07:36:08Z</time>
      </trkpt>
      <trkpt lat="38.224870" lon="-1.367300">
        <ele>192.0</ele>
        <time>2011-04-02T07:36:12Z</time>
      </trkpt>
      <trkpt lat="38.224890" lon="-1.367300">
        <ele>191.1</ele>
        <time>2011-04-02T07:36:14Z</time>
      </trkpt>
      <trkpt lat="38.224910" lon="-1.367280">
        <ele>191.1</ele>
        <time>2011-04-02T07:36:17Z</time>
      </trkpt>
      <trkpt lat="38.224890" lon="-1.367150">
        <ele>191.4</ele>
        <time>2011-04-02T07:36:24Z</time>
      </trkpt>
      <trkpt lat="38.224910" lon="-1.366940">
        <ele>192.0</ele>
        <time>2011-04-02T07:36:38Z</time>
      </trkpt>
      <trkpt lat="38.224950" lon="-1.366750">
        <ele>191.1</ele>
        <time>2011-04-02T07:36:52Z</time>
      </trkpt>
      <trkpt lat="38.224980" lon="-1.366400">
        <ele>190.5</ele>
        <time>2011-04-02T07:37:10Z</time>
      </trkpt>
      <trkpt lat="38.225130" lon="-1.366100">
        <ele>192.0</ele>
        <time>2011-04-02T07:37:31Z</time>
      </trkpt>
      <trkpt lat="38.225150" lon="-1.366080">
        <ele>192.0</ele>
        <time>2011-04-02T07:37:34Z</time>
      </trkpt>
      <trkpt lat="38.225190" lon="-1.366040">
        <ele>192.9</ele>
        <time>2011-04-02T07:37:46Z</time>
      </trkpt>
      <trkpt lat="38.225230" lon="-1.366040">
        <ele>192.6</ele>
        <time>2011-04-02T07:37:52Z</time>
      </trkpt>
      <trkpt lat="38.225280" lon="-1.366020">
        <ele>192.9</ele>
        <time>2011-04-02T07:39:15Z</time>
      </trkpt>
      <trkpt lat="38.225530" lon="-1.365780">
        <ele>194.5</ele>
        <time>2011-04-02T07:39:36Z</time>
      </trkpt>
      <trkpt lat="38.225810" lon="-1.365820">
        <ele>196.0</ele>
        <time>2011-04-02T07:39:55Z</time>
      </trkpt>
      <trkpt lat="38.226130" lon="-1.365910">
        <ele>198.7</ele>
        <time>2011-04-02T07:40:16Z</time>
      </trkpt>
      <trkpt lat="38.226310" lon="-1.366040">
        <ele>200.9</ele>
        <time>2011-04-02T07:40:30Z</time>
      </trkpt>
      <trkpt lat="38.226590" lon="-1.366120">
        <ele>202.4</ele>
        <time>2011-04-02T07:40:48Z</time>
      </trkpt>
      <trkpt lat="38.226860" lon="-1.366250">
        <ele>202.7</ele>
        <time>2011-04-02T07:41:08Z</time>
      </trkpt>
      <trkpt lat="38.227120" lon="-1.366400">
        <ele>205.7</ele>
        <time>2011-04-02T07:41:28Z</time>
      </trkpt>
      <trkpt lat="38.227380" lon="-1.366530">
        <ele>207.3</ele>
        <time>2011-04-02T07:41:47Z</time>
      </trkpt>
      <trkpt lat="38.227620" lon="-1.366600">
        <ele>209.1</ele>
        <time>2011-04-02T07:42:04Z</time>
      </trkpt>
      <trkpt lat="38.227870" lon="-1.366640">
        <ele>209.1</ele>
        <time>2011-04-02T07:42:22Z</time>
      </trkpt>
      <trkpt lat="38.228070" lon="-1.366680">
        <ele>210.9</ele>
        <time>2011-04-02T07:42:38Z</time>
      </trkpt>
      <trkpt lat="38.228130" lon="-1.366700">
        <ele>211.5</ele>
        <time>2011-04-02T07:42:44Z</time>
      </trkpt>
      <trkpt lat="38.228170" lon="-1.366750">
        <ele>213.1</ele>
        <time>2011-04-02T07:42:56Z</time>
      </trkpt>
      <trkpt lat="38.228240" lon="-1.366770">
        <ele>214.0</ele>
        <time>2011-04-02T07:43:02Z</time>
      </trkpt>
      <trkpt lat="38.228300" lon="-1.366830">
        <ele>214.0</ele>
        <time>2011-04-02T07:43:08Z</time>
      </trkpt>
      <trkpt lat="38.228500" lon="-1.367050">
        <ele>214.0</ele>
        <time>2011-04-02T07:43:27Z</time>
      </trkpt>
      <trkpt lat="38.228580" lon="-1.367280">
        <ele>214.0</ele>
        <time>2011-04-02T07:43:41Z</time>
      </trkpt>
      <trkpt lat="38.228800" lon="-1.367430">
        <ele>218.8</ele>
        <time>2011-04-02T07:43:58Z</time>
      </trkpt>
      <trkpt lat="38.229050" lon="-1.367480">
        <ele>218.8</ele>
        <time>2011-04-02T07:44:17Z</time>
      </trkpt>
      <trkpt lat="38.229250" lon="-1.367449">
        <ele>218.2</ele>
        <time>2011-04-02T07:44:37Z</time>
      </trkpt>
      <trkpt lat="38.229370" lon="-1.367430">
        <ele>220.7</ele>
        <time>2011-04-02T07:44:55Z</time>
      </trkpt>
      <trkpt lat="38.229630" lon="-1.367430">
        <ele>222.2</ele>
        <time>2011-04-02T07:45:14Z</time>
      </trkpt>
      <trkpt lat="38.229870" lon="-1.367430">
        <ele>223.7</ele>
        <time>2011-04-02T07:45:33Z</time>
      </trkpt>
      <trkpt lat="38.229980" lon="-1.367449">
        <ele>223.1</ele>
        <time>2011-04-02T07:45:49Z</time>
      </trkpt>
      <trkpt lat="38.229980" lon="-1.367430">
        <ele>222.2</ele>
        <time>2011-04-02T07:46:11Z</time>
      </trkpt>
      <trkpt lat="38.229980" lon="-1.367449">
        <ele>223.7</ele>
        <time>2011-04-02T07:46:48Z</time>
      </trkpt>
      <trkpt lat="38.230150" lon="-1.367880">
        <ele>223.7</ele>
        <time>2011-04-02T07:47:10Z</time>
      </trkpt>
      <trkpt lat="38.230280" lon="-1.368080">
        <ele>225.6</ele>
        <time>2011-04-02T07:47:24Z</time>
      </trkpt>
      <trkpt lat="38.230470" lon="-1.368230">
        <ele>225.6</ele>
        <time>2011-04-02T07:47:40Z</time>
      </trkpt>
      <trkpt lat="38.230730" lon="-1.368330">
        <ele>226.5</ele>
        <time>2011-04-02T07:47:59Z</time>
      </trkpt>
      <trkpt lat="38.230880" lon="-1.368460">
        <ele>228.9</ele>
        <time>2011-04-02T07:48:23Z</time>
      </trkpt>
      <trkpt lat="38.230880" lon="-1.368510">
        <ele>231.3</ele>
        <time>2011-04-02T08:25:26Z</time>
      </trkpt>
      <trkpt lat="38.230920" lon="-1.368530">
        <ele>232.0</ele>
        <time>2011-04-02T08:25:30Z</time>
      </trkpt>
      <trkpt lat="38.231130" lon="-1.368550">
        <ele>231.3</ele>
        <time>2011-04-02T08:25:47Z</time>
      </trkpt>
      <trkpt lat="38.231130" lon="-1.368550">
        <ele>231.3</ele>
        <time>2011-04-02T08:25:50Z</time>
      </trkpt>
      <trkpt lat="38.231180" lon="-1.368550">
        <ele>231.3</ele>
        <time>2011-04-02T08:26:29Z</time>
      </trkpt>
      <trkpt lat="38.231180" lon="-1.368550">
        <ele>232.0</ele>
        <time>2011-04-02T08:26:56Z</time>
      </trkpt>
      <trkpt lat="38.231260" lon="-1.368590">
        <ele>232.0</ele>
        <time>2011-04-02T08:27:02Z</time>
      </trkpt>
      <trkpt lat="38.231330" lon="-1.368590">
        <ele>232.0</ele>
        <time>2011-04-02T08:27:07Z</time>
      </trkpt>
      <trkpt lat="38.231370" lon="-1.368590">
        <ele>232.3</ele>
        <time>2011-04-02T08:27:13Z</time>
      </trkpt>
      <trkpt lat="38.231540" lon="-1.368660">
        <ele>234.7</ele>
        <time>2011-04-02T08:27:29Z</time>
      </trkpt>
      <trkpt lat="38.231710" lon="-1.368680">
        <ele>234.7</ele>
        <time>2011-04-02T08:27:46Z</time>
      </trkpt>
      <trkpt lat="38.231860" lon="-1.368720">
        <ele>235.3</ele>
        <time>2011-04-02T08:28:02Z</time>
      </trkpt>
      <trkpt lat="38.232080" lon="-1.368810">
        <ele>237.7</ele>
        <time>2011-04-02T08:28:20Z</time>
      </trkpt>
      <trkpt lat="38.232190" lon="-1.368910">
        <ele>238.4</ele>
        <time>2011-04-02T08:28:36Z</time>
      </trkpt>
      <trkpt lat="38.232230" lon="-1.368940">
        <ele>239.3</ele>
        <time>2011-04-02T08:28:47Z</time>
      </trkpt>
      <trkpt lat="38.232290" lon="-1.369040">
        <ele>240.2</ele>
        <time>2011-04-02T08:29:03Z</time>
      </trkpt>
      <trkpt lat="38.232440" lon="-1.369190">
        <ele>240.2</ele>
        <time>2011-04-02T08:29:20Z</time>
      </trkpt>
      <trkpt lat="38.232590" lon="-1.369340">
        <ele>240.2</ele>
        <time>2011-04-02T08:29:36Z</time>
      </trkpt>
      <trkpt lat="38.232720" lon="-1.369450">
        <ele>242.0</ele>
        <time>2011-04-02T08:29:47Z</time>
      </trkpt>
      <trkpt lat="38.232890" lon="-1.369560">
        <ele>241.1</ele>
        <time>2011-04-02T08:30:02Z</time>
      </trkpt>
      <trkpt lat="38.232890" lon="-1.369560">
        <ele>241.1</ele>
        <time>2011-04-02T08:30:03Z</time>
      </trkpt>
      <trkpt lat="38.232960" lon="-1.369600">
        <ele>241.7</ele>
        <time>2011-04-02T08:30:14Z</time>
      </trkpt>
      <trkpt lat="38.233130" lon="-1.369750">
        <ele>240.8</ele>
        <time>2011-04-02T08:30:29Z</time>
      </trkpt>
      <trkpt lat="38.233170" lon="-1.369770">
        <ele>240.8</ele>
        <time>2011-04-02T08:30:32Z</time>
      </trkpt>
      <trkpt lat="38.233220" lon="-1.369810">
        <ele>240.2</ele>
        <time>2011-04-02T08:30:36Z</time>
      </trkpt>
      <trkpt lat="38.233410" lon="-1.370070">
        <ele>239.6</ele>
        <time>2011-04-02T08:30:57Z</time>
      </trkpt>
      <trkpt lat="38.233470" lon="-1.370120">
        <ele>240.2</ele>
        <time>2011-04-02T08:31:06Z</time>
      </trkpt>
      <trkpt lat="38.233520" lon="-1.370050">
        <ele>239.3</ele>
        <time>2011-04-02T08:31:21Z</time>
      </trkpt>
      <trkpt lat="38.233540" lon="-1.369900">
        <ele>237.1</ele>
        <time>2011-04-02T08:31:37Z</time>
      </trkpt>
      <trkpt lat="38.233540" lon="-1.369790">
        <ele>234.4</ele>
        <time>2011-04-02T08:31:47Z</time>
      </trkpt>
      <trkpt lat="38.233520" lon="-1.369660">
        <ele>228.9</ele>
        <time>2011-04-02T08:32:02Z</time>
      </trkpt>
      <trkpt lat="38.233450" lon="-1.369560">
        <ele>226.5</ele>
        <time>2011-04-02T08:32:15Z</time>
      </trkpt>
      <trkpt lat="38.233300" lon="-1.369390">
        <ele>221.3</ele>
        <time>2011-04-02T08:32:31Z</time>
      </trkpt>
      <trkpt lat="38.233190" lon="-1.369190">
        <ele>219.8</ele>
        <time>2011-04-02T08:32:46Z</time>
      </trkpt>
      <trkpt lat="38.233260" lon="-1.369000">
        <ele>219.8</ele>
        <time>2011-04-02T08:32:59Z</time>
      </trkpt>
      <trkpt lat="38.233370" lon="-1.368740">
        <ele>218.8</ele>
        <time>2011-04-02T08:33:17Z</time>
      </trkpt>
      <trkpt lat="38.233430" lon="-1.368460">
        <ele>216.4</ele>
        <time>2011-04-02T08:33:34Z</time>
      </trkpt>
      <trkpt lat="38.233580" lon="-1.368210">
        <ele>212.4</ele>
        <time>2011-04-02T08:33:54Z</time>
      </trkpt>
      <trkpt lat="38.233730" lon="-1.367990">
        <ele>211.5</ele>
        <time>2011-04-02T08:34:11Z</time>
      </trkpt>
      <trkpt lat="38.233880" lon="-1.367730">
        <ele>210.0</ele>
        <time>2011-04-02T08:34:30Z</time>
      </trkpt>
      <trkpt lat="38.234030" lon="-1.367480">
        <ele>213.1</ele>
        <time>2011-04-02T08:34:49Z</time>
      </trkpt>
      <trkpt lat="38.234050" lon="-1.367200">
        <ele>214.9</ele>
        <time>2011-04-02T08:35:07Z</time>
      </trkpt>
      <trkpt lat="38.234030" lon="-1.367030">
        <ele>215.8</ele>
        <time>2011-04-02T08:35:22Z</time>
      </trkpt>
      <trkpt lat="38.234030" lon="-1.366750">
        <ele>213.4</ele>
        <time>2011-04-02T08:35:40Z</time>
      </trkpt>
      <trkpt lat="38.234100" lon="-1.366400">
        <ele>211.5</ele>
        <time>2011-04-02T08:36:02Z</time>
      </trkpt>
      <trkpt lat="38.234100" lon="-1.366190">
        <ele>213.1</ele>
        <time>2011-04-02T08:36:20Z</time>
      </trkpt>
      <trkpt lat="38.234070" lon="-1.366190">
        <ele>222.2</ele>
        <time>2011-04-02T08:36:45Z</time>
      </trkpt>
      <trkpt lat="38.234070" lon="-1.366170">
        <ele>215.8</ele>
        <time>2011-04-02T08:37:03Z</time>
      </trkpt>
      <trkpt lat="38.234010" lon="-1.365850">
        <ele>213.1</ele>
        <time>2011-04-02T08:37:20Z</time>
      </trkpt>
      <trkpt lat="38.233970" lon="-1.365520">
        <ele>211.5</ele>
        <time>2011-04-02T08:37:38Z</time>
      </trkpt>
      <trkpt lat="38.233950" lon="-1.365200">
        <ele>213.1</ele>
        <time>2011-04-02T08:37:55Z</time>
      </trkpt>
      <trkpt lat="38.233970" lon="-1.365140">
        <ele>213.4</ele>
        <time>2011-04-02T08:37:59Z</time>
      </trkpt>
      <trkpt lat="38.233880" lon="-1.364730">
        <ele>214.9</ele>
        <time>2011-04-02T08:38:23Z</time>
      </trkpt>
      <trkpt lat="38.233820" lon="-1.364540">
        <ele>214.9</ele>
        <time>2011-04-02T08:38:41Z</time>
      </trkpt>
      <trkpt lat="38.233820" lon="-1.364510">
        <ele>215.8</ele>
        <time>2011-04-02T08:38:47Z</time>
      </trkpt>
      <trkpt lat="38.233770" lon="-1.364210">
        <ele>216.4</ele>
        <time>2011-04-02T08:39:04Z</time>
      </trkpt>
      <trkpt lat="38.233750" lon="-1.363910">
        <ele>217.3</ele>
        <time>2011-04-02T08:39:23Z</time>
      </trkpt>
      <trkpt lat="38.233750" lon="-1.363640">
        <ele>216.4</ele>
        <time>2011-04-02T08:39:40Z</time>
      </trkpt>
      <trkpt lat="38.233800" lon="-1.363270">
        <ele>216.4</ele>
        <time>2011-04-02T08:40:02Z</time>
      </trkpt>
      <trkpt lat="38.233900" lon="-1.363080">
        <ele>214.0</ele>
        <time>2011-04-02T08:40:17Z</time>
      </trkpt>
      <trkpt lat="38.234180" lon="-1.362880">
        <ele>214.9</ele>
        <time>2011-04-02T08:40:40Z</time>
      </trkpt>
      <trkpt lat="38.234250" lon="-1.362730">
        <ele>216.4</ele>
        <time>2011-04-02T08:40:54Z</time>
      </trkpt>
      <trkpt lat="38.234370" lon="-1.362540">
        <ele>216.4</ele>
        <time>2011-04-02T08:41:09Z</time>
      </trkpt>
      <trkpt lat="38.234550" lon="-1.362410">
        <ele>217.3</ele>
        <time>2011-04-02T08:41:26Z</time>
      </trkpt>
      <trkpt lat="38.234780" lon="-1.362220">
        <ele>217.3</ele>
        <time>2011-04-02T08:41:46Z</time>
      </trkpt>
      <trkpt lat="38.234830" lon="-1.362180">
        <ele>217.3</ele>
        <time>2011-04-02T08:41:50Z</time>
      </trkpt>
      <trkpt lat="38.235000" lon="-1.362000">
        <ele>217.3</ele>
        <time>2011-04-02T08:42:06Z</time>
      </trkpt>
      <trkpt lat="38.235170" lon="-1.361750">
        <ele>216.4</ele>
        <time>2011-04-02T08:42:25Z</time>
      </trkpt>
      <trkpt lat="38.235300" lon="-1.361600">
        <ele>214.0</ele>
        <time>2011-04-02T08:42:39Z</time>
      </trkpt>
      <trkpt lat="38.235510" lon="-1.361270">
        <ele>213.4</ele>
        <time>2011-04-02T08:43:03Z</time>
      </trkpt>
      <trkpt lat="38.235770" lon="-1.361000">
        <ele>212.4</ele>
        <time>2011-04-02T08:43:27Z</time>
      </trkpt>
      <trkpt lat="38.235940" lon="-1.360760">
        <ele>213.1</ele>
        <time>2011-04-02T08:43:47Z</time>
      </trkpt>
      <trkpt lat="38.235960" lon="-1.360740">
        <ele>214.9</ele>
        <time>2011-04-02T08:44:07Z</time>
      </trkpt>
      <trkpt lat="38.235960" lon="-1.360720">
        <ele>217.3</ele>
        <time>2011-04-02T08:44:36Z</time>
      </trkpt>
      <trkpt lat="38.236090" lon="-1.360460">
        <ele>216.4</ele>
        <time>2011-04-02T08:44:52Z</time>
      </trkpt>
      <trkpt lat="38.236280" lon="-1.360310">
        <ele>214.0</ele>
        <time>2011-04-02T08:45:08Z</time>
      </trkpt>
      <trkpt lat="38.236430" lon="-1.360220">
        <ele>216.4</ele>
        <time>2011-04-02T08:45:44Z</time>
      </trkpt>
      <trkpt lat="38.236710" lon="-1.360290">
        <ele>215.8</ele>
        <time>2011-04-02T08:46:04Z</time>
      </trkpt>
      <trkpt lat="38.236890" lon="-1.360370">
        <ele>214.9</ele>
        <time>2011-04-02T08:46:17Z</time>
      </trkpt>
      <trkpt lat="38.236970" lon="-1.360350">
        <ele>214.0</ele>
        <time>2011-04-02T08:46:30Z</time>
      </trkpt>
      <trkpt lat="38.237040" lon="-1.360310">
        <ele>211.5</ele>
        <time>2011-04-02T08:46:35Z</time>
      </trkpt>
      <trkpt lat="38.237190" lon="-1.360240">
        <ele>213.4</ele>
        <time>2011-04-02T08:46:51Z</time>
      </trkpt>
      <trkpt lat="38.237440" lon="-1.360140">
        <ele>216.4</ele>
        <time>2011-04-02T08:47:10Z</time>
      </trkpt>
      <trkpt lat="38.237660" lon="-1.360050">
        <ele>217.3</ele>
        <time>2011-04-02T08:47:31Z</time>
      </trkpt>
      <trkpt lat="38.237700" lon="-1.360030">
        <ele>217.3</ele>
        <time>2011-04-02T08:47:44Z</time>
      </trkpt>
      <trkpt lat="38.237850" lon="-1.359970">
        <ele>217.3</ele>
        <time>2011-04-02T08:47:57Z</time>
      </trkpt>
      <trkpt lat="38.237870" lon="-1.359920">
        <ele>217.3</ele>
        <time>2011-04-02T08:48:00Z</time>
      </trkpt>
      <trkpt lat="38.237940" lon="-1.359790">
        <ele>218.2</ele>
        <time>2011-04-02T08:48:09Z</time>
      </trkpt>
      <trkpt lat="38.238090" lon="-1.359560">
        <ele>219.8</ele>
        <time>2011-04-02T08:48:28Z</time>
      </trkpt>
      <trkpt lat="38.238280" lon="-1.359560">
        <ele>219.8</ele>
        <time>2011-04-02T08:48:44Z</time>
      </trkpt>
      <trkpt lat="38.238370" lon="-1.359580">
        <ele>218.8</ele>
        <time>2011-04-02T08:48:51Z</time>
      </trkpt>
      <trkpt lat="38.238560" lon="-1.359640">
        <ele>218.2</ele>
        <time>2011-04-02T08:49:06Z</time>
      </trkpt>
      <trkpt lat="38.238690" lon="-1.359730">
        <ele>218.2</ele>
        <time>2011-04-02T08:49:22Z</time>
      </trkpt>
      <trkpt lat="38.238730" lon="-1.359730">
        <ele>217.3</ele>
        <time>2011-04-02T08:49:29Z</time>
      </trkpt>
      <trkpt lat="38.238950" lon="-1.359640">
        <ele>219.8</ele>
        <time>2011-04-02T08:49:46Z</time>
      </trkpt>
      <trkpt lat="38.238950" lon="-1.359640">
        <ele>217.3</ele>
        <time>2011-04-02T08:49:51Z</time>
      </trkpt>
      <trkpt lat="38.239160" lon="-1.359539">
        <ele>217.3</ele>
        <time>2011-04-02T08:50:08Z</time>
      </trkpt>
      <trkpt lat="38.239330" lon="-1.359430">
        <ele>218.8</ele>
        <time>2011-04-02T08:50:24Z</time>
      </trkpt>
      <trkpt lat="38.239550" lon="-1.359320">
        <ele>221.3</ele>
        <time>2011-04-02T08:50:41Z</time>
      </trkpt>
      <trkpt lat="38.239760" lon="-1.359240">
        <ele>221.3</ele>
        <time>2011-04-02T08:50:58Z</time>
      </trkpt>
      <trkpt lat="38.239930" lon="-1.359340">
        <ele>221.3</ele>
        <time>2011-04-02T08:51:13Z</time>
      </trkpt>
      <trkpt lat="38.240130" lon="-1.359240">
        <ele>223.1</ele>
        <time>2011-04-02T08:51:29Z</time>
      </trkpt>
      <trkpt lat="38.240340" lon="-1.359090">
        <ele>223.1</ele>
        <time>2011-04-02T08:51:47Z</time>
      </trkpt>
      <trkpt lat="38.240360" lon="-1.359060">
        <ele>223.1</ele>
        <time>2011-04-02T08:51:49Z</time>
      </trkpt>
      <trkpt lat="38.240380" lon="-1.359000">
        <ele>224.0</ele>
        <time>2011-04-02T08:52:03Z</time>
      </trkpt>
      <trkpt lat="38.240430" lon="-1.358980">
        <ele>225.6</ele>
        <time>2011-04-02T08:52:15Z</time>
      </trkpt>
      <trkpt lat="38.240450" lon="-1.358940">
        <ele>224.0</ele>
        <time>2011-04-02T08:52:39Z</time>
      </trkpt>
      <trkpt lat="38.240450" lon="-1.358910">
        <ele>224.6</ele>
        <time>2011-04-02T08:52:44Z</time>
      </trkpt>
      <trkpt lat="38.240470" lon="-1.358810">
        <ele>225.6</ele>
        <time>2011-04-02T08:53:01Z</time>
      </trkpt>
      <trkpt lat="38.240490" lon="-1.358830">
        <ele>225.6</ele>
        <time>2011-04-02T08:53:25Z</time>
      </trkpt>
      <trkpt lat="38.240490" lon="-1.358810">
        <ele>224.6</ele>
        <time>2011-04-02T08:53:47Z</time>
      </trkpt>
      <trkpt lat="38.240600" lon="-1.358760">
        <ele>223.7</ele>
        <time>2011-04-02T08:54:02Z</time>
      </trkpt>
      <trkpt lat="38.240680" lon="-1.358720">
        <ele>223.7</ele>
        <time>2011-04-02T08:54:31Z</time>
      </trkpt>
      <trkpt lat="38.240730" lon="-1.358720">
        <ele>224.0</ele>
        <time>2011-04-02T08:54:42Z</time>
      </trkpt>
      <trkpt lat="38.240750" lon="-1.358720">
        <ele>223.1</ele>
        <time>2011-04-02T08:54:52Z</time>
      </trkpt>
      <trkpt lat="38.240830" lon="-1.358660">
        <ele>222.2</ele>
        <time>2011-04-02T08:55:03Z</time>
      </trkpt>
      <trkpt lat="38.240900" lon="-1.358660">
        <ele>220.7</ele>
        <time>2011-04-02T08:55:09Z</time>
      </trkpt>
      <trkpt lat="38.240980" lon="-1.358610">
        <ele>221.3</ele>
        <time>2011-04-02T08:55:23Z</time>
      </trkpt>
      <trkpt lat="38.241050" lon="-1.358590">
        <ele>221.3</ele>
        <time>2011-04-02T08:55:36Z</time>
      </trkpt>
      <trkpt lat="38.241090" lon="-1.358590">
        <ele>222.2</ele>
        <time>2011-04-02T08:55:56Z</time>
      </trkpt>
      <trkpt lat="38.241130" lon="-1.358570">
        <ele>222.2</ele>
        <time>2011-04-02T08:56:01Z</time>
      </trkpt>
      <trkpt lat="38.241240" lon="-1.358530">
        <ele>221.3</ele>
        <time>2011-04-02T08:56:17Z</time>
      </trkpt>
      <trkpt lat="38.241220" lon="-1.358490">
        <ele>223.7</ele>
        <time>2011-04-02T08:56:48Z</time>
      </trkpt>
      <trkpt lat="38.241310" lon="-1.358440">
        <ele>219.8</ele>
        <time>2011-04-02T08:57:23Z</time>
      </trkpt>
      <trkpt lat="38.241460" lon="-1.358420">
        <ele>217.3</ele>
        <time>2011-04-02T08:57:37Z</time>
      </trkpt>
      <trkpt lat="38.241480" lon="-1.358400">
        <ele>218.2</ele>
        <time>2011-04-02T08:57:38Z</time>
      </trkpt>
      <trkpt lat="38.241500" lon="-1.358380">
        <ele>218.2</ele>
        <time>2011-04-02T08:57:43Z</time>
      </trkpt>
      <trkpt lat="38.241520" lon="-1.358380">
        <ele>218.2</ele>
        <time>2011-04-02T08:57:45Z</time>
      </trkpt>
      <trkpt lat="38.241560" lon="-1.358360">
        <ele>218.8</ele>
        <time>2011-04-02T08:57:49Z</time>
      </trkpt>
      <trkpt lat="38.241610" lon="-1.358310">
        <ele>218.8</ele>
        <time>2011-04-02T08:57:54Z</time>
      </trkpt>
      <trkpt lat="38.241630" lon="-1.358310">
        <ele>218.2</ele>
        <time>2011-04-02T08:57:57Z</time>
      </trkpt>
      <trkpt lat="38.241710" lon="-1.358310">
        <ele>218.8</ele>
        <time>2011-04-02T08:58:10Z</time>
      </trkpt>
      <trkpt lat="38.241760" lon="-1.358290">
        <ele>219.8</ele>
        <time>2011-04-02T08:58:22Z</time>
      </trkpt>
      <trkpt lat="38.241780" lon="-1.358290">
        <ele>218.8</ele>
        <time>2011-04-02T08:59:04Z</time>
      </trkpt>
      <trkpt lat="38.241800" lon="-1.358270">
        <ele>218.8</ele>
        <time>2011-04-02T08:59:26Z</time>
      </trkpt>
      <trkpt lat="38.241880" lon="-1.358250">
        <ele>218.8</ele>
        <time>2011-04-02T08:59:40Z</time>
      </trkpt>
      <trkpt lat="38.241910" lon="-1.358290">
        <ele>219.8</ele>
        <time>2011-04-02T08:59:54Z</time>
      </trkpt>
      <trkpt lat="38.241910" lon="-1.358420">
        <ele>222.2</ele>
        <time>2011-04-02T09:00:17Z</time>
      </trkpt>
      <trkpt lat="38.241930" lon="-1.358460">
        <ele>223.1</ele>
        <time>2011-04-02T09:00:29Z</time>
      </trkpt>
      <trkpt lat="38.241970" lon="-1.358460">
        <ele>223.1</ele>
        <time>2011-04-02T09:00:42Z</time>
      </trkpt>
      <trkpt lat="38.241990" lon="-1.358400">
        <ele>224.6</ele>
        <time>2011-04-02T09:00:46Z</time>
      </trkpt>
      <trkpt lat="38.242060" lon="-1.358380">
        <ele>225.6</ele>
        <time>2011-04-02T09:01:00Z</time>
      </trkpt>
      <trkpt lat="38.242080" lon="-1.358380">
        <ele>224.0</ele>
        <time>2011-04-02T09:02:32Z</time>
      </trkpt>
      <trkpt lat="38.242190" lon="-1.358400">
        <ele>224.6</ele>
        <time>2011-04-02T09:02:40Z</time>
      </trkpt>
      <trkpt lat="38.242230" lon="-1.358310">
        <ele>232.0</ele>
        <time>2011-04-02T09:05:35Z</time>
      </trkpt>
      <trkpt lat="38.242230" lon="-1.358270">
        <ele>230.4</ele>
        <time>2011-04-02T09:05:55Z</time>
      </trkpt>
      <trkpt lat="38.242230" lon="-1.358230">
        <ele>231.3</ele>
        <time>2011-04-02T09:06:23Z</time>
      </trkpt>
      <trkpt lat="38.242210" lon="-1.358160">
        <ele>227.4</ele>
        <time>2011-04-02T09:06:37Z</time>
      </trkpt>
      <trkpt lat="38.242190" lon="-1.358140">
        <ele>226.5</ele>
        <time>2011-04-02T09:06:39Z</time>
      </trkpt>
      <trkpt lat="38.242190" lon="-1.358120">
        <ele>226.5</ele>
        <time>2011-04-02T09:06:50Z</time>
      </trkpt>
      <trkpt lat="38.242190" lon="-1.358140">
        <ele>226.5</ele>
        <time>2011-04-02T09:06:52Z</time>
      </trkpt>
      <trkpt lat="38.242160" lon="-1.358060">
        <ele>225.6</ele>
        <time>2011-04-02T09:06:57Z</time>
      </trkpt>
      <trkpt lat="38.242140" lon="-1.357950">
        <ele>224.6</ele>
        <time>2011-04-02T09:07:03Z</time>
      </trkpt>
      <trkpt lat="38.242250" lon="-1.357760">
        <ele>223.7</ele>
        <time>2011-04-02T09:07:18Z</time>
      </trkpt>
      <trkpt lat="38.242290" lon="-1.357730">
        <ele>223.7</ele>
        <time>2011-04-02T09:07:23Z</time>
      </trkpt>
      <trkpt lat="38.242360" lon="-1.357710">
        <ele>223.1</ele>
        <time>2011-04-02T09:07:30Z</time>
      </trkpt>
      <trkpt lat="38.242460" lon="-1.357690">
        <ele>223.1</ele>
        <time>2011-04-02T09:07:37Z</time>
      </trkpt>
      <trkpt lat="38.242550" lon="-1.357670">
        <ele>222.2</ele>
        <time>2011-04-02T09:07:51Z</time>
      </trkpt>
      <trkpt lat="38.242570" lon="-1.357670">
        <ele>222.2</ele>
        <time>2011-04-02T09:08:04Z</time>
      </trkpt>
      <trkpt lat="38.242570" lon="-1.357650">
        <ele>222.2</ele>
        <time>2011-04-02T09:08:07Z</time>
      </trkpt>
      <trkpt lat="38.242640" lon="-1.357580">
        <ele>223.1</ele>
        <time>2011-04-02T09:08:21Z</time>
      </trkpt>
      <trkpt lat="38.242660" lon="-1.357540">
        <ele>223.1</ele>
        <time>2011-04-02T09:08:32Z</time>
      </trkpt>
      <trkpt lat="38.242680" lon="-1.357480">
        <ele>223.1</ele>
        <time>2011-04-02T09:08:40Z</time>
      </trkpt>
      <trkpt lat="38.242740" lon="-1.357430">
        <ele>223.7</ele>
        <time>2011-04-02T09:08:46Z</time>
      </trkpt>
      <trkpt lat="38.242960" lon="-1.357480">
        <ele>224.0</ele>
        <time>2011-04-02T09:09:05Z</time>
      </trkpt>
      <trkpt lat="38.243130" lon="-1.357430">
        <ele>224.6</ele>
        <time>2011-04-02T09:09:20Z</time>
      </trkpt>
      <trkpt lat="38.243340" lon="-1.357460">
        <ele>224.6</ele>
        <time>2011-04-02T09:09:38Z</time>
      </trkpt>
      <trkpt lat="38.243390" lon="-1.357480">
        <ele>224.6</ele>
        <time>2011-04-02T09:09:51Z</time>
      </trkpt>
      <trkpt lat="38.243520" lon="-1.357430">
        <ele>226.5</ele>
        <time>2011-04-02T09:10:12Z</time>
      </trkpt>
      <trkpt lat="38.243690" lon="-1.357280">
        <ele>227.1</ele>
        <time>2011-04-02T09:10:29Z</time>
      </trkpt>
      <trkpt lat="38.244010" lon="-1.357090">
        <ele>226.5</ele>
        <time>2011-04-02T09:10:53Z</time>
      </trkpt>
      <trkpt lat="38.244250" lon="-1.356940">
        <ele>227.4</ele>
        <time>2011-04-02T09:11:12Z</time>
      </trkpt>
      <trkpt lat="38.244370" lon="-1.356810">
        <ele>228.0</ele>
        <time>2011-04-02T09:11:23Z</time>
      </trkpt>
      <trkpt lat="38.244570" lon="-1.356510">
        <ele>229.8</ele>
        <time>2011-04-02T09:11:44Z</time>
      </trkpt>
      <trkpt lat="38.244720" lon="-1.356120">
        <ele>228.9</ele>
        <time>2011-04-02T09:12:08Z</time>
      </trkpt>
      <trkpt lat="38.244820" lon="-1.355820">
        <ele>228.9</ele>
        <time>2011-04-02T09:12:29Z</time>
      </trkpt>
      <trkpt lat="38.244890" lon="-1.355720">
        <ele>228.9</ele>
        <time>2011-04-02T09:12:44Z</time>
      </trkpt>
      <trkpt lat="38.244970" lon="-1.355550">
        <ele>229.8</ele>
        <time>2011-04-02T09:12:57Z</time>
      </trkpt>
      <trkpt lat="38.245100" lon="-1.355270">
        <ele>231.3</ele>
        <time>2011-04-02T09:13:15Z</time>
      </trkpt>
      <trkpt lat="38.245210" lon="-1.355010">
        <ele>232.9</ele>
        <time>2011-04-02T09:13:31Z</time>
      </trkpt>
      <trkpt lat="38.245360" lon="-1.354670">
        <ele>233.8</ele>
        <time>2011-04-02T09:13:53Z</time>
      </trkpt>
      <trkpt lat="38.245510" lon="-1.354320">
        <ele>233.5</ele>
        <time>2011-04-02T09:14:14Z</time>
      </trkpt>
      <trkpt lat="38.245660" lon="-1.354000">
        <ele>231.3</ele>
        <time>2011-04-02T09:14:36Z</time>
      </trkpt>
      <trkpt lat="38.245810" lon="-1.353700">
        <ele>231.3</ele>
        <time>2011-04-02T09:14:56Z</time>
      </trkpt>
      <trkpt lat="38.245920" lon="-1.353490">
        <ele>232.9</ele>
        <time>2011-04-02T09:15:13Z</time>
      </trkpt>
      <trkpt lat="38.246070" lon="-1.353230">
        <ele>232.9</ele>
        <time>2011-04-02T09:15:31Z</time>
      </trkpt>
      <trkpt lat="38.246180" lon="-1.352930">
        <ele>233.5</ele>
        <time>2011-04-02T09:15:51Z</time>
      </trkpt>
      <trkpt lat="38.246300" lon="-1.352580">
        <ele>232.0</ele>
        <time>2011-04-02T09:16:13Z</time>
      </trkpt>
      <trkpt lat="38.246350" lon="-1.352370">
        <ele>231.3</ele>
        <time>2011-04-02T09:16:28Z</time>
      </trkpt>
      <trkpt lat="38.246410" lon="-1.352180">
        <ele>229.8</ele>
        <time>2011-04-02T09:16:41Z</time>
      </trkpt>
      <trkpt lat="38.246540" lon="-1.351900">
        <ele>231.3</ele>
        <time>2011-04-02T09:17:00Z</time>
      </trkpt>
      <trkpt lat="38.246650" lon="-1.351620">
        <ele>232.0</ele>
        <time>2011-04-02T09:17:19Z</time>
      </trkpt>
      <trkpt lat="38.246730" lon="-1.351400">
        <ele>232.0</ele>
        <time>2011-04-02T09:17:35Z</time>
      </trkpt>
      <trkpt lat="38.246820" lon="-1.351250">
        <ele>233.8</ele>
        <time>2011-04-02T09:17:51Z</time>
      </trkpt>
      <trkpt lat="38.246970" lon="-1.350980">
        <ele>233.8</ele>
        <time>2011-04-02T09:18:11Z</time>
      </trkpt>
      <trkpt lat="38.247140" lon="-1.350820">
        <ele>233.5</ele>
        <time>2011-04-02T09:18:29Z</time>
      </trkpt>
      <trkpt lat="38.247210" lon="-1.350760">
        <ele>233.5</ele>
        <time>2011-04-02T09:18:40Z</time>
      </trkpt>
      <trkpt lat="38.247310" lon="-1.350610">
        <ele>232.0</ele>
        <time>2011-04-02T09:18:59Z</time>
      </trkpt>
      <trkpt lat="38.247440" lon="-1.350500">
        <ele>232.3</ele>
        <time>2011-04-02T09:19:12Z</time>
      </trkpt>
      <trkpt lat="38.247590" lon="-1.350290">
        <ele>233.8</ele>
        <time>2011-04-02T09:19:29Z</time>
      </trkpt>
      <trkpt lat="38.247830" lon="-1.350030">
        <ele>234.4</ele>
        <time>2011-04-02T09:19:52Z</time>
      </trkpt>
      <trkpt lat="38.248020" lon="-1.349770">
        <ele>235.3</ele>
        <time>2011-04-02T09:20:13Z</time>
      </trkpt>
      <trkpt lat="38.248240" lon="-1.349540">
        <ele>235.3</ele>
        <time>2011-04-02T09:20:34Z</time>
      </trkpt>
      <trkpt lat="38.248300" lon="-1.349430">
        <ele>235.9</ele>
        <time>2011-04-02T09:20:48Z</time>
      </trkpt>
      <trkpt lat="38.248390" lon="-1.349340">
        <ele>236.2</ele>
        <time>2011-04-02T09:21:04Z</time>
      </trkpt>
      <trkpt lat="38.248470" lon="-1.349260">
        <ele>237.7</ele>
        <time>2011-04-02T09:21:24Z</time>
      </trkpt>
      <trkpt lat="38.248640" lon="-1.349070">
        <ele>238.4</ele>
        <time>2011-04-02T09:21:43Z</time>
      </trkpt>
      <trkpt lat="38.248750" lon="-1.348920">
        <ele>238.4</ele>
        <time>2011-04-02T09:21:58Z</time>
      </trkpt>
      <trkpt lat="38.248770" lon="-1.348890">
        <ele>234.4</ele>
        <time>2011-04-02T09:22:13Z</time>
      </trkpt>
      <trkpt lat="38.248860" lon="-1.348740">
        <ele>227.1</ele>
        <time>2011-04-02T09:23:08Z</time>
      </trkpt>
      <trkpt lat="38.249010" lon="-1.348550">
        <ele>227.4</ele>
        <time>2011-04-02T09:23:22Z</time>
      </trkpt>
      <trkpt lat="38.249200" lon="-1.348310">
        <ele>228.9</ele>
        <time>2011-04-02T09:23:43Z</time>
      </trkpt>
      <trkpt lat="38.249350" lon="-1.348120">
        <ele>228.9</ele>
        <time>2011-04-02T09:23:58Z</time>
      </trkpt>
      <trkpt lat="38.249590" lon="-1.347860">
        <ele>231.3</ele>
        <time>2011-04-02T09:24:18Z</time>
      </trkpt>
      <trkpt lat="38.249890" lon="-1.347610">
        <ele>236.2</ele>
        <time>2011-04-02T09:24:41Z</time>
      </trkpt>
      <trkpt lat="38.250170" lon="-1.347280">
        <ele>238.7</ele>
        <time>2011-04-02T09:25:06Z</time>
      </trkpt>
      <trkpt lat="38.250420" lon="-1.347050">
        <ele>240.2</ele>
        <time>2011-04-02T09:25:27Z</time>
      </trkpt>
      <trkpt lat="38.250640" lon="-1.346880">
        <ele>240.8</ele>
        <time>2011-04-02T09:25:44Z</time>
      </trkpt>
      <trkpt lat="38.250960" lon="-1.346640">
        <ele>242.6</ele>
        <time>2011-04-02T09:26:09Z</time>
      </trkpt>
      <trkpt lat="38.251240" lon="-1.346450">
        <ele>241.1</ele>
        <time>2011-04-02T09:26:30Z</time>
      </trkpt>
      <trkpt lat="38.251480" lon="-1.346210">
        <ele>239.6</ele>
        <time>2011-04-02T09:26:51Z</time>
      </trkpt>
      <trkpt lat="38.251780" lon="-1.345950">
        <ele>239.3</ele>
        <time>2011-04-02T09:27:15Z</time>
      </trkpt>
      <trkpt lat="38.251950" lon="-1.345700">
        <ele>238.7</ele>
        <time>2011-04-02T09:27:33Z</time>
      </trkpt>
      <trkpt lat="38.252210" lon="-1.345500">
        <ele>238.7</ele>
        <time>2011-04-02T09:27:53Z</time>
      </trkpt>
      <trkpt lat="38.252440" lon="-1.345330">
        <ele>240.8</ele>
        <time>2011-04-02T09:28:11Z</time>
      </trkpt>
      <trkpt lat="38.252760" lon="-1.345100">
        <ele>238.4</ele>
        <time>2011-04-02T09:28:34Z</time>
      </trkpt>
      <trkpt lat="38.253000" lon="-1.344950">
        <ele>240.8</ele>
        <time>2011-04-02T09:28:53Z</time>
      </trkpt>
      <trkpt lat="38.253320" lon="-1.344710">
        <ele>242.6</ele>
        <time>2011-04-02T09:29:19Z</time>
      </trkpt>
      <trkpt lat="38.253510" lon="-1.344540">
        <ele>243.5</ele>
        <time>2011-04-02T09:29:37Z</time>
      </trkpt>
      <trkpt lat="38.253750" lon="-1.344320">
        <ele>244.1</ele>
        <time>2011-04-02T09:29:56Z</time>
      </trkpt>
      <trkpt lat="38.253940" lon="-1.344110">
        <ele>244.4</ele>
        <time>2011-04-02T09:30:15Z</time>
      </trkpt>
      <trkpt lat="38.254200" lon="-1.343810">
        <ele>245.4</ele>
        <time>2011-04-02T09:30:39Z</time>
      </trkpt>
      <trkpt lat="38.254420" lon="-1.343590">
        <ele>245.1</ele>
        <time>2011-04-02T09:30:59Z</time>
      </trkpt>
      <trkpt lat="38.254630" lon="-1.343360">
        <ele>246.0</ele>
        <time>2011-04-02T09:31:21Z</time>
      </trkpt>
      <trkpt lat="38.254820" lon="-1.343140">
        <ele>245.1</ele>
        <time>2011-04-02T09:31:40Z</time>
      </trkpt>
      <trkpt lat="38.255080" lon="-1.342820">
        <ele>245.4</ele>
        <time>2011-04-02T09:32:07Z</time>
      </trkpt>
      <trkpt lat="38.255190" lon="-1.342560">
        <ele>244.1</ele>
        <time>2011-04-02T09:32:25Z</time>
      </trkpt>
      <trkpt lat="38.255300" lon="-1.342500">
        <ele>244.1</ele>
        <time>2011-04-02T09:32:37Z</time>
      </trkpt>
      <trkpt lat="38.255320" lon="-1.342480">
        <ele>243.5</ele>
        <time>2011-04-02T09:32:43Z</time>
      </trkpt>
      <trkpt lat="38.255320" lon="-1.342430">
        <ele>242.9</ele>
        <time>2011-04-02T09:32:55Z</time>
      </trkpt>
      <trkpt lat="38.255320" lon="-1.342410">
        <ele>242.9</ele>
        <time>2011-04-02T09:32:56Z</time>
      </trkpt>
      <trkpt lat="38.255380" lon="-1.342260">
        <ele>244.1</ele>
        <time>2011-04-02T09:33:08Z</time>
      </trkpt>
      <trkpt lat="38.255420" lon="-1.342220">
        <ele>243.5</ele>
        <time>2011-04-02T09:33:12Z</time>
      </trkpt>
      <trkpt lat="38.255600" lon="-1.342030">
        <ele>244.4</ele>
        <time>2011-04-02T09:33:31Z</time>
      </trkpt>
      <trkpt lat="38.255770" lon="-1.341920">
        <ele>245.1</ele>
        <time>2011-04-02T09:33:48Z</time>
      </trkpt>
      <trkpt lat="38.255900" lon="-1.341790">
        <ele>245.1</ele>
        <time>2011-04-02T09:34:04Z</time>
      </trkpt>
      <trkpt lat="38.255920" lon="-1.341790">
        <ele>245.1</ele>
        <time>2011-04-02T09:34:05Z</time>
      </trkpt>
      <trkpt lat="38.255920" lon="-1.341790">
        <ele>245.1</ele>
        <time>2011-04-02T09:34:07Z</time>
      </trkpt>
      <trkpt lat="38.255900" lon="-1.341790">
        <ele>245.1</ele>
        <time>2011-04-02T09:34:18Z</time>
      </trkpt>
      <trkpt lat="38.255920" lon="-1.341770">
        <ele>245.1</ele>
        <time>2011-04-02T09:34:21Z</time>
      </trkpt>
      <trkpt lat="38.255980" lon="-1.341710">
        <ele>245.4</ele>
        <time>2011-04-02T09:34:27Z</time>
      </trkpt>
      <trkpt lat="38.256110" lon="-1.341660">
        <ele>246.0</ele>
        <time>2011-04-02T09:34:41Z</time>
      </trkpt>
      <trkpt lat="38.256240" lon="-1.341640">
        <ele>247.5</ele>
        <time>2011-04-02T09:35:13Z</time>
      </trkpt>
      <trkpt lat="38.256540" lon="-1.341600">
        <ele>244.1</ele>
        <time>2011-04-02T09:35:35Z</time>
      </trkpt>
      <trkpt lat="38.256840" lon="-1.341580">
        <ele>244.4</ele>
        <time>2011-04-02T09:35:57Z</time>
      </trkpt>
      <trkpt lat="38.257030" lon="-1.341560">
        <ele>246.0</ele>
        <time>2011-04-02T09:36:12Z</time>
      </trkpt>
      <trkpt lat="38.257080" lon="-1.341490">
        <ele>245.4</ele>
        <time>2011-04-02T09:36:18Z</time>
      </trkpt>
      <trkpt lat="38.257140" lon="-1.341470">
        <ele>245.4</ele>
        <time>2011-04-02T09:36:22Z</time>
      </trkpt>
      <trkpt lat="38.257210" lon="-1.341400">
        <ele>245.4</ele>
        <time>2011-04-02T09:36:35Z</time>
      </trkpt>
      <trkpt lat="38.257420" lon="-1.341190">
        <ele>245.1</ele>
        <time>2011-04-02T09:36:54Z</time>
      </trkpt>
      <trkpt lat="38.257680" lon="-1.340980">
        <ele>246.0</ele>
        <time>2011-04-02T09:37:14Z</time>
      </trkpt>
      <trkpt lat="38.257890" lon="-1.340800">
        <ele>247.5</ele>
        <time>2011-04-02T09:37:32Z</time>
      </trkpt>
      <trkpt lat="38.258150" lon="-1.340630">
        <ele>246.6</ele>
        <time>2011-04-02T09:37:53Z</time>
      </trkpt>
      <trkpt lat="38.258340" lon="-1.340530">
        <ele>246.6</ele>
        <time>2011-04-02T09:38:07Z</time>
      </trkpt>
      <trkpt lat="38.258450" lon="-1.340420">
        <ele>246.0</ele>
        <time>2011-04-02T09:38:18Z</time>
      </trkpt>
      <trkpt lat="38.258510" lon="-1.340310">
        <ele>246.6</ele>
        <time>2011-04-02T09:38:27Z</time>
      </trkpt>
      <trkpt lat="38.258560" lon="-1.340290">
        <ele>246.6</ele>
        <time>2011-04-02T09:38:31Z</time>
      </trkpt>
      <trkpt lat="38.258640" lon="-1.340200">
        <ele>246.0</ele>
        <time>2011-04-02T09:38:42Z</time>
      </trkpt>
      <trkpt lat="38.258730" lon="-1.340050">
        <ele>246.0</ele>
        <time>2011-04-02T09:38:56Z</time>
      </trkpt>
      <trkpt lat="38.258730" lon="-1.340030">
        <ele>246.0</ele>
        <time>2011-04-02T09:39:01Z</time>
      </trkpt>
      <trkpt lat="38.258730" lon="-1.339990">
        <ele>245.4</ele>
        <time>2011-04-02T09:39:05Z</time>
      </trkpt>
      <trkpt lat="38.258790" lon="-1.339970">
        <ele>246.6</ele>
        <time>2011-04-02T09:39:10Z</time>
      </trkpt>
      <trkpt lat="38.258860" lon="-1.339970">
        <ele>246.9</ele>
        <time>2011-04-02T09:39:15Z</time>
      </trkpt>
      <trkpt lat="38.258990" lon="-1.339920">
        <ele>247.5</ele>
        <time>2011-04-02T09:39:29Z</time>
      </trkpt>
      <trkpt lat="38.259070" lon="-1.339840">
        <ele>247.8</ele>
        <time>2011-04-02T09:39:40Z</time>
      </trkpt>
      <trkpt lat="38.259220" lon="-1.339800">
        <ele>249.0</ele>
        <time>2011-04-02T09:39:54Z</time>
      </trkpt>
      <trkpt lat="38.259220" lon="-1.339800">
        <ele>249.0</ele>
        <time>2011-04-02T09:39:55Z</time>
      </trkpt>
      <trkpt lat="38.259290" lon="-1.339730">
        <ele>249.3</ele>
        <time>2011-04-02T09:40:01Z</time>
      </trkpt>
      <trkpt lat="38.259330" lon="-1.339750">
        <ele>249.3</ele>
        <time>2011-04-02T09:40:05Z</time>
      </trkpt>
      <trkpt lat="38.259370" lon="-1.339730">
        <ele>249.3</ele>
        <time>2011-04-02T09:40:09Z</time>
      </trkpt>
      <trkpt lat="38.259420" lon="-1.339710">
        <ele>249.9</ele>
        <time>2011-04-02T09:40:13Z</time>
      </trkpt>
      <trkpt lat="38.259480" lon="-1.339690">
        <ele>249.9</ele>
        <time>2011-04-02T09:40:19Z</time>
      </trkpt>
      <trkpt lat="38.259500" lon="-1.339690">
        <ele>249.9</ele>
        <time>2011-04-02T09:40:22Z</time>
      </trkpt>
      <trkpt lat="38.259570" lon="-1.339690">
        <ele>249.9</ele>
        <time>2011-04-02T09:40:26Z</time>
      </trkpt>
      <trkpt lat="38.259800" lon="-1.339580">
        <ele>249.9</ele>
        <time>2011-04-02T09:40:44Z</time>
      </trkpt>
      <trkpt lat="38.259990" lon="-1.339470">
        <ele>249.9</ele>
        <time>2011-04-02T09:41:00Z</time>
      </trkpt>
      <trkpt lat="38.260230" lon="-1.339410">
        <ele>251.8</ele>
        <time>2011-04-02T09:41:18Z</time>
      </trkpt>
      <trkpt lat="38.260320" lon="-1.339340">
        <ele>251.5</ele>
        <time>2011-04-02T09:41:33Z</time>
      </trkpt>
      <trkpt lat="38.260340" lon="-1.339340">
        <ele>249.9</ele>
        <time>2011-04-02T09:41:38Z</time>
      </trkpt>
      <trkpt lat="38.260550" lon="-1.339260">
        <ele>251.8</ele>
        <time>2011-04-02T09:41:57Z</time>
      </trkpt>
      <trkpt lat="38.260770" lon="-1.339280">
        <ele>253.3</ele>
        <time>2011-04-02T09:42:12Z</time>
      </trkpt>
      <trkpt lat="38.260940" lon="-1.339370">
        <ele>253.3</ele>
        <time>2011-04-02T09:42:28Z</time>
      </trkpt>
      <trkpt lat="38.261130" lon="-1.339470">
        <ele>253.9</ele>
        <time>2011-04-02T09:42:44Z</time>
      </trkpt>
      <trkpt lat="38.261150" lon="-1.339500">
        <ele>253.9</ele>
        <time>2011-04-02T09:42:46Z</time>
      </trkpt>
      <trkpt lat="38.261390" lon="-1.339520">
        <ele>254.2</ele>
        <time>2011-04-02T09:43:03Z</time>
      </trkpt>
      <trkpt lat="38.261630" lon="-1.339560">
        <ele>253.9</ele>
        <time>2011-04-02T09:43:21Z</time>
      </trkpt>
      <trkpt lat="38.261840" lon="-1.339670">
        <ele>252.4</ele>
        <time>2011-04-02T09:43:40Z</time>
      </trkpt>
      <trkpt lat="38.262080" lon="-1.339880">
        <ele>252.4</ele>
        <time>2011-04-02T09:44:00Z</time>
      </trkpt>
      <trkpt lat="38.262230" lon="-1.339970">
        <ele>253.3</ele>
        <time>2011-04-02T09:44:16Z</time>
      </trkpt>
      <trkpt lat="38.262310" lon="-1.339970">
        <ele>250.9</ele>
        <time>2011-04-02T09:44:29Z</time>
      </trkpt>
      <trkpt lat="38.262480" lon="-1.340010">
        <ele>251.8</ele>
        <time>2011-04-02T09:44:43Z</time>
      </trkpt>
      <trkpt lat="38.262480" lon="-1.340030">
        <ele>251.8</ele>
        <time>2011-04-02T09:44:44Z</time>
      </trkpt>
      <trkpt lat="38.262700" lon="-1.340160">
        <ele>252.4</ele>
        <time>2011-04-02T09:45:03Z</time>
      </trkpt>
      <trkpt lat="38.262890" lon="-1.340270">
        <ele>253.9</ele>
        <time>2011-04-02T09:45:21Z</time>
      </trkpt>
      <trkpt lat="38.263080" lon="-1.340310">
        <ele>253.9</ele>
        <time>2011-04-02T09:45:37Z</time>
      </trkpt>
      <trkpt lat="38.263300" lon="-1.340350">
        <ele>253.9</ele>
        <time>2011-04-02T09:45:53Z</time>
      </trkpt>
      <trkpt lat="38.263510" lon="-1.340420">
        <ele>254.8</ele>
        <time>2011-04-02T09:46:09Z</time>
      </trkpt>
      <trkpt lat="38.263690" lon="-1.340570">
        <ele>254.8</ele>
        <time>2011-04-02T09:46:26Z</time>
      </trkpt>
      <trkpt lat="38.263880" lon="-1.340760">
        <ele>254.8</ele>
        <time>2011-04-02T09:46:44Z</time>
      </trkpt>
      <trkpt lat="38.264070" lon="-1.340980">
        <ele>254.8</ele>
        <time>2011-04-02T09:47:03Z</time>
      </trkpt>
      <trkpt lat="38.264240" lon="-1.341150">
        <ele>255.7</ele>
        <time>2011-04-02T09:47:22Z</time>
      </trkpt>
      <trkpt lat="38.264440" lon="-1.341360">
        <ele>256.6</ele>
        <time>2011-04-02T09:47:40Z</time>
      </trkpt>
      <trkpt lat="38.264480" lon="-1.341360">
        <ele>256.0</ele>
        <time>2011-04-02T09:47:44Z</time>
      </trkpt>
      <trkpt lat="38.264690" lon="-1.341430">
        <ele>257.3</ele>
        <time>2011-04-02T09:48:02Z</time>
      </trkpt>
      <trkpt lat="38.264950" lon="-1.341400">
        <ele>258.2</ele>
        <time>2011-04-02T09:48:21Z</time>
      </trkpt>
      <trkpt lat="38.265100" lon="-1.341380">
        <ele>257.9</ele>
        <time>2011-04-02T09:48:33Z</time>
      </trkpt>
      <trkpt lat="38.265140" lon="-1.341360">
        <ele>257.9</ele>
        <time>2011-04-02T09:48:37Z</time>
      </trkpt>
      <trkpt lat="38.265340" lon="-1.341210">
        <ele>257.9</ele>
        <time>2011-04-02T09:48:54Z</time>
      </trkpt>
      <trkpt lat="38.265530" lon="-1.341020">
        <ele>257.9</ele>
        <time>2011-04-02T09:49:12Z</time>
      </trkpt>
      <trkpt lat="38.265720" lon="-1.340800">
        <ele>257.9</ele>
        <time>2011-04-02T09:49:30Z</time>
      </trkpt>
      <trkpt lat="38.265850" lon="-1.340500">
        <ele>257.9</ele>
        <time>2011-04-02T09:49:50Z</time>
      </trkpt>
      <trkpt lat="38.265940" lon="-1.340350">
        <ele>257.9</ele>
        <time>2011-04-02T09:50:02Z</time>
      </trkpt>
      <trkpt lat="38.266130" lon="-1.340100">
        <ele>257.3</ele>
        <time>2011-04-02T09:50:21Z</time>
      </trkpt>
      <trkpt lat="38.266320" lon="-1.339880">
        <ele>257.3</ele>
        <time>2011-04-02T09:50:40Z</time>
      </trkpt>
      <trkpt lat="38.266520" lon="-1.339750">
        <ele>256.9</ele>
        <time>2011-04-02T09:50:56Z</time>
      </trkpt>
      <trkpt lat="38.266670" lon="-1.339520">
        <ele>257.9</ele>
        <time>2011-04-02T09:51:13Z</time>
      </trkpt>
      <trkpt lat="38.266710" lon="-1.339470">
        <ele>258.2</ele>
        <time>2011-04-02T09:51:20Z</time>
      </trkpt>
      <trkpt lat="38.266750" lon="-1.339450">
        <ele>256.9</ele>
        <time>2011-04-02T09:51:24Z</time>
      </trkpt>
      <trkpt lat="38.266990" lon="-1.339370">
        <ele>257.3</ele>
        <time>2011-04-02T09:51:43Z</time>
      </trkpt>
      <trkpt lat="38.267180" lon="-1.339260">
        <ele>256.9</ele>
        <time>2011-04-02T09:52:01Z</time>
      </trkpt>
      <trkpt lat="38.267380" lon="-1.339220">
        <ele>256.6</ele>
        <time>2011-04-02T09:52:17Z</time>
      </trkpt>
      <trkpt lat="38.267610" lon="-1.339220">
        <ele>256.0</ele>
        <time>2011-04-02T09:52:35Z</time>
      </trkpt>
      <trkpt lat="38.267810" lon="-1.339190">
        <ele>256.6</ele>
        <time>2011-04-02T09:52:51Z</time>
      </trkpt>
      <trkpt lat="38.268000" lon="-1.339170">
        <ele>256.0</ele>
        <time>2011-04-02T09:53:06Z</time>
      </trkpt>
      <trkpt lat="38.268280" lon="-1.339170">
        <ele>257.3</ele>
        <time>2011-04-02T09:53:27Z</time>
      </trkpt>
      <trkpt lat="38.268510" lon="-1.339150">
        <ele>256.0</ele>
        <time>2011-04-02T09:53:47Z</time>
      </trkpt>
      <trkpt lat="38.268750" lon="-1.339110">
        <ele>256.6</ele>
        <time>2011-04-02T09:54:04Z</time>
      </trkpt>
      <trkpt lat="38.268990" lon="-1.339110">
        <ele>258.8</ele>
        <time>2011-04-02T09:54:22Z</time>
      </trkpt>
      <trkpt lat="38.269220" lon="-1.339130">
        <ele>260.6</ele>
        <time>2011-04-02T09:54:39Z</time>
      </trkpt>
      <trkpt lat="38.269410" lon="-1.339130">
        <ele>260.6</ele>
        <time>2011-04-02T09:54:52Z</time>
      </trkpt>
      <trkpt lat="38.269440" lon="-1.339150">
        <ele>259.7</ele>
        <time>2011-04-02T09:54:54Z</time>
      </trkpt>
      <trkpt lat="38.269690" lon="-1.339150">
        <ele>256.0</ele>
        <time>2011-04-02T09:55:12Z</time>
      </trkpt>
      <trkpt lat="38.269990" lon="-1.339220">
        <ele>256.0</ele>
        <time>2011-04-02T09:55:35Z</time>
      </trkpt>
      <trkpt lat="38.270230" lon="-1.339300">
        <ele>256.0</ele>
        <time>2011-04-02T09:55:53Z</time>
      </trkpt>
      <trkpt lat="38.270380" lon="-1.339410">
        <ele>256.0</ele>
        <time>2011-04-02T09:56:07Z</time>
      </trkpt>
      <trkpt lat="38.270530" lon="-1.339560">
        <ele>256.6</ele>
        <time>2011-04-02T09:56:23Z</time>
      </trkpt>
      <trkpt lat="38.270570" lon="-1.339600">
        <ele>257.3</ele>
        <time>2011-04-02T09:56:35Z</time>
      </trkpt>
      <trkpt lat="38.270620" lon="-1.339650">
        <ele>256.6</ele>
        <time>2011-04-02T09:56:47Z</time>
      </trkpt>
      <trkpt lat="38.270750" lon="-1.339730">
        <ele>255.7</ele>
        <time>2011-04-02T09:57:01Z</time>
      </trkpt>
      <trkpt lat="38.270960" lon="-1.339840">
        <ele>255.7</ele>
        <time>2011-04-02T09:57:19Z</time>
      </trkpt>
      <trkpt lat="38.271170" lon="-1.339880">
        <ele>254.8</ele>
        <time>2011-04-02T09:57:35Z</time>
      </trkpt>
      <trkpt lat="38.271320" lon="-1.339950">
        <ele>256.0</ele>
        <time>2011-04-02T09:57:49Z</time>
      </trkpt>
      <trkpt lat="38.271560" lon="-1.340120">
        <ele>256.9</ele>
        <time>2011-04-02T09:58:07Z</time>
      </trkpt>
      <trkpt lat="38.271780" lon="-1.340250">
        <ele>256.6</ele>
        <time>2011-04-02T09:58:24Z</time>
      </trkpt>
      <trkpt lat="38.272010" lon="-1.340330">
        <ele>260.9</ele>
        <time>2011-04-02T09:58:41Z</time>
      </trkpt>
      <trkpt lat="38.272230" lon="-1.340420">
        <ele>263.7</ele>
        <time>2011-04-02T09:58:58Z</time>
      </trkpt>
      <trkpt lat="38.272270" lon="-1.340460">
        <ele>264.6</ele>
        <time>2011-04-02T09:59:02Z</time>
      </trkpt>
      <trkpt lat="38.272550" lon="-1.340590">
        <ele>263.7</ele>
        <time>2011-04-02T09:59:24Z</time>
      </trkpt>
      <trkpt lat="38.272630" lon="-1.340650">
        <ele>264.6</ele>
        <time>2011-04-02T09:59:34Z</time>
      </trkpt>
      <trkpt lat="38.272830" lon="-1.340780">
        <ele>263.7</ele>
        <time>2011-04-02T09:59:49Z</time>
      </trkpt>
      <trkpt lat="38.272930" lon="-1.340850">
        <ele>264.0</ele>
        <time>2011-04-02T10:00:02Z</time>
      </trkpt>
      <trkpt lat="38.273040" lon="-1.340910">
        <ele>263.7</ele>
        <time>2011-04-02T10:00:16Z</time>
      </trkpt>
      <trkpt lat="38.273230" lon="-1.341000">
        <ele>262.7</ele>
        <time>2011-04-02T10:00:32Z</time>
      </trkpt>
      <trkpt lat="38.273340" lon="-1.341060">
        <ele>263.7</ele>
        <time>2011-04-02T10:00:47Z</time>
      </trkpt>
      <trkpt lat="38.273450" lon="-1.341100">
        <ele>262.7</ele>
        <time>2011-04-02T10:01:01Z</time>
      </trkpt>
      <trkpt lat="38.273470" lon="-1.341130">
        <ele>262.4</ele>
        <time>2011-04-02T10:01:05Z</time>
      </trkpt>
      <trkpt lat="38.273680" lon="-1.341210">
        <ele>260.9</ele>
        <time>2011-04-02T10:01:24Z</time>
      </trkpt>
      <trkpt lat="38.273900" lon="-1.341300">
        <ele>260.6</ele>
        <time>2011-04-02T10:01:44Z</time>
      </trkpt>
      <trkpt lat="38.274030" lon="-1.341340">
        <ele>261.8</ele>
        <time>2011-04-02T10:01:59Z</time>
      </trkpt>
      <trkpt lat="38.274260" lon="-1.341360">
        <ele>263.0</ele>
        <time>2011-04-02T10:02:16Z</time>
      </trkpt>
      <trkpt lat="38.274350" lon="-1.341360">
        <ele>263.7</ele>
        <time>2011-04-02T10:02:23Z</time>
      </trkpt>
      <trkpt lat="38.274390" lon="-1.341380">
        <ele>264.0</ele>
        <time>2011-04-02T10:02:27Z</time>
      </trkpt>
      <trkpt lat="38.274480" lon="-1.341380">
        <ele>264.9</ele>
        <time>2011-04-02T10:02:34Z</time>
      </trkpt>
      <trkpt lat="38.274670" lon="-1.341450">
        <ele>266.7</ele>
        <time>2011-04-02T10:02:50Z</time>
      </trkpt>
      <trkpt lat="38.274820" lon="-1.341470">
        <ele>266.4</ele>
        <time>2011-04-02T10:03:03Z</time>
      </trkpt>
      <trkpt lat="38.274970" lon="-1.341510">
        <ele>264.0</ele>
        <time>2011-04-02T10:03:17Z</time>
      </trkpt>
      <trkpt lat="38.275020" lon="-1.341510">
        <ele>264.0</ele>
        <time>2011-04-02T10:03:27Z</time>
      </trkpt>
      <trkpt lat="38.275250" lon="-1.341530">
        <ele>264.0</ele>
        <time>2011-04-02T10:03:44Z</time>
      </trkpt>
      <trkpt lat="38.275340" lon="-1.341530">
        <ele>264.0</ele>
        <time>2011-04-02T10:03:56Z</time>
      </trkpt>
      <trkpt lat="38.275420" lon="-1.341530">
        <ele>264.9</ele>
        <time>2011-04-02T10:04:02Z</time>
      </trkpt>
      <trkpt lat="38.275660" lon="-1.341450">
        <ele>266.4</ele>
        <time>2011-04-02T10:04:21Z</time>
      </trkpt>
      <trkpt lat="38.275900" lon="-1.341360">
        <ele>266.7</ele>
        <time>2011-04-02T10:04:37Z</time>
      </trkpt>
      <trkpt lat="38.276150" lon="-1.341230">
        <ele>268.8</ele>
        <time>2011-04-02T10:04:57Z</time>
      </trkpt>
      <trkpt lat="38.276350" lon="-1.341150">
        <ele>270.7</ele>
        <time>2011-04-02T10:05:14Z</time>
      </trkpt>
      <trkpt lat="38.276370" lon="-1.341130">
        <ele>270.7</ele>
        <time>2011-04-02T10:05:26Z</time>
      </trkpt>
      <trkpt lat="38.276500" lon="-1.341080">
        <ele>272.5</ele>
        <time>2011-04-02T10:05:39Z</time>
      </trkpt>
      <trkpt lat="38.276710" lon="-1.340980">
        <ele>273.4</ele>
        <time>2011-04-02T10:05:56Z</time>
      </trkpt>
      <trkpt lat="38.276800" lon="-1.340910">
        <ele>274.6</ele>
        <time>2011-04-02T10:06:11Z</time>
      </trkpt>
      <trkpt lat="38.276880" lon="-1.340780">
        <ele>273.7</ele>
        <time>2011-04-02T10:06:27Z</time>
      </trkpt>
      <trkpt lat="38.277120" lon="-1.340530">
        <ele>273.7</ele>
        <time>2011-04-02T10:06:49Z</time>
      </trkpt>
      <trkpt lat="38.277350" lon="-1.340420">
        <ele>273.4</ele>
        <time>2011-04-02T10:07:06Z</time>
      </trkpt>
      <trkpt lat="38.277480" lon="-1.340350">
        <ele>272.5</ele>
        <time>2011-04-02T10:07:17Z</time>
      </trkpt>
      <trkpt lat="38.277550" lon="-1.340290">
        <ele>272.2</ele>
        <time>2011-04-02T10:07:22Z</time>
      </trkpt>
      <trkpt lat="38.277700" lon="-1.340180">
        <ele>272.5</ele>
        <time>2011-04-02T10:07:35Z</time>
      </trkpt>
      <trkpt lat="38.277910" lon="-1.340070">
        <ele>272.5</ele>
        <time>2011-04-02T10:07:52Z</time>
      </trkpt>
      <trkpt lat="38.278150" lon="-1.339970">
        <ele>272.2</ele>
        <time>2011-04-02T10:08:11Z</time>
      </trkpt>
      <trkpt lat="38.278360" lon="-1.339880">
        <ele>272.8</ele>
        <time>2011-04-02T10:08:28Z</time>
      </trkpt>
      <trkpt lat="38.278600" lon="-1.339750">
        <ele>272.8</ele>
        <time>2011-04-02T10:08:46Z</time>
      </trkpt>
      <trkpt lat="38.278830" lon="-1.339620">
        <ele>271.6</ele>
        <time>2011-04-02T10:09:06Z</time>
      </trkpt>
      <trkpt lat="38.279030" lon="-1.339540">
        <ele>269.7</ele>
        <time>2011-04-02T10:09:22Z</time>
      </trkpt>
      <trkpt lat="38.279260" lon="-1.339430">
        <ele>266.7</ele>
        <time>2011-04-02T10:09:41Z</time>
      </trkpt>
      <trkpt lat="38.279460" lon="-1.339320">
        <ele>267.3</ele>
        <time>2011-04-02T10:09:58Z</time>
      </trkpt>
      <trkpt lat="38.279560" lon="-1.339260">
        <ele>267.3</ele>
        <time>2011-04-02T10:10:10Z</time>
      </trkpt>
      <trkpt lat="38.279800" lon="-1.339130">
        <ele>265.8</ele>
        <time>2011-04-02T10:10:29Z</time>
      </trkpt>
      <trkpt lat="38.280040" lon="-1.338960">
        <ele>264.6</ele>
        <time>2011-04-02T10:10:50Z</time>
      </trkpt>
      <trkpt lat="38.280210" lon="-1.338790">
        <ele>266.7</ele>
        <time>2011-04-02T10:11:07Z</time>
      </trkpt>
      <trkpt lat="38.280210" lon="-1.338790">
        <ele>266.7</ele>
        <time>2011-04-02T10:11:08Z</time>
      </trkpt>
      <trkpt lat="38.280230" lon="-1.338700">
        <ele>268.8</ele>
        <time>2011-04-02T10:11:20Z</time>
      </trkpt>
      <trkpt lat="38.280360" lon="-1.338640">
        <ele>270.7</ele>
        <time>2011-04-02T10:11:34Z</time>
      </trkpt>
      <trkpt lat="38.280620" lon="-1.338660">
        <ele>272.8</ele>
        <time>2011-04-02T10:11:55Z</time>
      </trkpt>
      <trkpt lat="38.280920" lon="-1.338550">
        <ele>273.7</ele>
        <time>2011-04-02T10:12:17Z</time>
      </trkpt>
      <trkpt lat="38.281200" lon="-1.338440">
        <ele>273.4</ele>
        <time>2011-04-02T10:12:38Z</time>
      </trkpt>
      <trkpt lat="38.281350" lon="-1.338380">
        <ele>272.5</ele>
        <time>2011-04-02T10:12:58Z</time>
      </trkpt>
      <trkpt lat="38.281410" lon="-1.338320">
        <ele>272.8</ele>
        <time>2011-04-02T10:13:12Z</time>
      </trkpt>
      <trkpt lat="38.281520" lon="-1.338230">
        <ele>272.2</ele>
        <time>2011-04-02T10:13:21Z</time>
      </trkpt>
      <trkpt lat="38.281560" lon="-1.338160">
        <ele>272.2</ele>
        <time>2011-04-02T10:13:27Z</time>
      </trkpt>
      <trkpt lat="38.281690" lon="-1.337950">
        <ele>272.8</ele>
        <time>2011-04-02T10:13:44Z</time>
      </trkpt>
      <trkpt lat="38.281690" lon="-1.337930">
        <ele>273.4</ele>
        <time>2011-04-02T10:13:46Z</time>
      </trkpt>
      <trkpt lat="38.281820" lon="-1.337740">
        <ele>274.3</ele>
        <time>2011-04-02T10:14:04Z</time>
      </trkpt>
      <trkpt lat="38.282030" lon="-1.337610">
        <ele>276.5</ele>
        <time>2011-04-02T10:14:21Z</time>
      </trkpt>
      <trkpt lat="38.282290" lon="-1.337610">
        <ele>277.4</ele>
        <time>2011-04-02T10:14:41Z</time>
      </trkpt>
      <trkpt lat="38.282500" lon="-1.337440">
        <ele>277.4</ele>
        <time>2011-04-02T10:14:59Z</time>
      </trkpt>
      <trkpt lat="38.282610" lon="-1.337220">
        <ele>279.2</ele>
        <time>2011-04-02T10:15:14Z</time>
      </trkpt>
      <trkpt lat="38.282800" lon="-1.336980">
        <ele>278.6</ele>
        <time>2011-04-02T10:15:33Z</time>
      </trkpt>
      <trkpt lat="38.282910" lon="-1.336730">
        <ele>279.5</ele>
        <time>2011-04-02T10:15:50Z</time>
      </trkpt>
      <trkpt lat="38.283000" lon="-1.336470">
        <ele>281.3</ele>
        <time>2011-04-02T10:16:08Z</time>
      </trkpt>
      <trkpt lat="38.283040" lon="-1.336340">
        <ele>281.3</ele>
        <time>2011-04-02T10:16:17Z</time>
      </trkpt>
      <trkpt lat="38.283130" lon="-1.336210">
        <ele>280.4</ele>
        <time>2011-04-02T10:16:36Z</time>
      </trkpt>
      <trkpt lat="38.283230" lon="-1.336060">
        <ele>281.3</ele>
        <time>2011-04-02T10:16:56Z</time>
      </trkpt>
      <trkpt lat="38.283280" lon="-1.335890">
        <ele>281.3</ele>
        <time>2011-04-02T10:17:12Z</time>
      </trkpt>
      <trkpt lat="38.283320" lon="-1.335870">
        <ele>281.3</ele>
        <time>2011-04-02T10:17:17Z</time>
      </trkpt>
      <trkpt lat="38.283340" lon="-1.335870">
        <ele>282.2</ele>
        <time>2011-04-02T10:17:20Z</time>
      </trkpt>
      <trkpt lat="38.283360" lon="-1.335800">
        <ele>281.3</ele>
        <time>2011-04-02T10:17:35Z</time>
      </trkpt>
      <trkpt lat="38.283410" lon="-1.335680">
        <ele>282.2</ele>
        <time>2011-04-02T10:18:05Z</time>
      </trkpt>
      <trkpt lat="38.283450" lon="-1.335460">
        <ele>283.2</ele>
        <time>2011-04-02T10:18:17Z</time>
      </trkpt>
      <trkpt lat="38.283560" lon="-1.335070">
        <ele>284.1</ele>
        <time>2011-04-02T10:18:38Z</time>
      </trkpt>
      <trkpt lat="38.283680" lon="-1.334770">
        <ele>283.2</ele>
        <time>2011-04-02T10:18:57Z</time>
      </trkpt>
      <trkpt lat="38.283860" lon="-1.334410">
        <ele>284.1</ele>
        <time>2011-04-02T10:19:23Z</time>
      </trkpt>
      <trkpt lat="38.283960" lon="-1.334220">
        <ele>284.1</ele>
        <time>2011-04-02T10:19:38Z</time>
      </trkpt>
      <trkpt lat="38.283980" lon="-1.334150">
        <ele>284.1</ele>
        <time>2011-04-02T10:19:42Z</time>
      </trkpt>
      <trkpt lat="38.284010" lon="-1.334090">
        <ele>284.1</ele>
        <time>2011-04-02T10:19:46Z</time>
      </trkpt>
      <trkpt lat="38.284050" lon="-1.334020">
        <ele>284.1</ele>
        <time>2011-04-02T10:19:50Z</time>
      </trkpt>
      <trkpt lat="38.284070" lon="-1.333960">
        <ele>284.1</ele>
        <time>2011-04-02T10:19:54Z</time>
      </trkpt>
      <trkpt lat="38.284200" lon="-1.333660">
        <ele>285.0</ele>
        <time>2011-04-02T10:20:15Z</time>
      </trkpt>
      <trkpt lat="38.284260" lon="-1.333530">
        <ele>286.2</ele>
        <time>2011-04-02T10:20:27Z</time>
      </trkpt>
      <trkpt lat="38.284290" lon="-1.333440">
        <ele>285.9</ele>
        <time>2011-04-02T10:20:41Z</time>
      </trkpt>
      <trkpt lat="38.284290" lon="-1.333340">
        <ele>285.3</ele>
        <time>2011-04-02T10:20:47Z</time>
      </trkpt>
      <trkpt lat="38.284460" lon="-1.333140">
        <ele>284.1</ele>
        <time>2011-04-02T10:21:04Z</time>
      </trkpt>
      <trkpt lat="38.284740" lon="-1.332930">
        <ele>285.9</ele>
        <time>2011-04-02T10:21:27Z</time>
      </trkpt>
      <trkpt lat="38.284800" lon="-1.332860">
        <ele>286.2</ele>
        <time>2011-04-02T10:21:34Z</time>
      </trkpt>
      <trkpt lat="38.284820" lon="-1.332820">
        <ele>286.2</ele>
        <time>2011-04-02T10:21:38Z</time>
      </trkpt>
      <trkpt lat="38.285040" lon="-1.332610">
        <ele>287.1</ele>
        <time>2011-04-02T10:22:02Z</time>
      </trkpt>
      <trkpt lat="38.285080" lon="-1.332560">
        <ele>286.8</ele>
        <time>2011-04-02T10:22:09Z</time>
      </trkpt>
      <trkpt lat="38.285190" lon="-1.332480">
        <ele>286.2</ele>
        <time>2011-04-02T10:22:22Z</time>
      </trkpt>
      <trkpt lat="38.285470" lon="-1.332310">
        <ele>286.2</ele>
        <time>2011-04-02T10:22:44Z</time>
      </trkpt>
      <trkpt lat="38.285720" lon="-1.332070">
        <ele>288.0</ele>
        <time>2011-04-02T10:23:05Z</time>
      </trkpt>
      <trkpt lat="38.285890" lon="-1.331770">
        <ele>288.0</ele>
        <time>2011-04-02T10:23:26Z</time>
      </trkpt>
      <trkpt lat="38.286040" lon="-1.331380">
        <ele>287.1</ele>
        <time>2011-04-02T10:23:50Z</time>
      </trkpt>
      <trkpt lat="38.286170" lon="-1.331150">
        <ele>286.2</ele>
        <time>2011-04-02T10:24:06Z</time>
      </trkpt>
      <trkpt lat="38.286320" lon="-1.330910">
        <ele>286.2</ele>
        <time>2011-04-02T10:24:25Z</time>
      </trkpt>
      <trkpt lat="38.286520" lon="-1.330740">
        <ele>285.9</ele>
        <time>2011-04-02T10:24:43Z</time>
      </trkpt>
      <trkpt lat="38.286730" lon="-1.330590">
        <ele>287.1</ele>
        <time>2011-04-02T10:25:02Z</time>
      </trkpt>
      <trkpt lat="38.286990" lon="-1.330440">
        <ele>288.0</ele>
        <time>2011-04-02T10:25:21Z</time>
      </trkpt>
      <trkpt lat="38.287310" lon="-1.330290">
        <ele>289.0</ele>
        <time>2011-04-02T10:25:45Z</time>
      </trkpt>
      <trkpt lat="38.287500" lon="-1.330180">
        <ele>289.9</ele>
        <time>2011-04-02T10:26:02Z</time>
      </trkpt>
      <trkpt lat="38.287800" lon="-1.330010">
        <ele>290.8</ele>
        <time>2011-04-02T10:26:24Z</time>
      </trkpt>
      <trkpt lat="38.288000" lon="-1.329840">
        <ele>291.7</ele>
        <time>2011-04-02T10:26:42Z</time>
      </trkpt>
      <trkpt lat="38.288080" lon="-1.329770">
        <ele>291.7</ele>
        <time>2011-04-02T10:26:48Z</time>
      </trkpt>
      <trkpt lat="38.288320" lon="-1.329670">
        <ele>292.0</ele>
        <time>2011-04-02T10:27:06Z</time>
      </trkpt>
      <trkpt lat="38.288600" lon="-1.329540">
        <ele>291.1</ele>
        <time>2011-04-02T10:27:27Z</time>
      </trkpt>
      <trkpt lat="38.288750" lon="-1.329300">
        <ele>291.1</ele>
        <time>2011-04-02T10:27:45Z</time>
      </trkpt>
      <trkpt lat="38.288880" lon="-1.329000">
        <ele>289.9</ele>
        <time>2011-04-02T10:28:05Z</time>
      </trkpt>
      <trkpt lat="38.289070" lon="-1.328830">
        <ele>289.9</ele>
        <time>2011-04-02T10:28:22Z</time>
      </trkpt>
      <trkpt lat="38.289200" lon="-1.328790">
        <ele>289.0</ele>
        <time>2011-04-02T10:28:39Z</time>
      </trkpt>
      <trkpt lat="38.289200" lon="-1.328770">
        <ele>289.0</ele>
        <time>2011-04-02T10:28:40Z</time>
      </trkpt>
      <trkpt lat="38.289260" lon="-1.328680">
        <ele>289.9</ele>
        <time>2011-04-02T10:28:46Z</time>
      </trkpt>
      <trkpt lat="38.289410" lon="-1.328570">
        <ele>289.9</ele>
        <time>2011-04-02T10:28:59Z</time>
      </trkpt>
      <trkpt lat="38.289650" lon="-1.328420">
        <ele>290.8</ele>
        <time>2011-04-02T10:29:17Z</time>
      </trkpt>
      <trkpt lat="38.289840" lon="-1.328250">
        <ele>291.7</ele>
        <time>2011-04-02T10:29:33Z</time>
      </trkpt>
      <trkpt lat="38.289930" lon="-1.328170">
        <ele>292.6</ele>
        <time>2011-04-02T10:29:44Z</time>
      </trkpt>
      <trkpt lat="38.290100" lon="-1.328040">
        <ele>292.0</ele>
        <time>2011-04-02T10:29:59Z</time>
      </trkpt>
      <trkpt lat="38.290310" lon="-1.327870">
        <ele>289.9</ele>
        <time>2011-04-02T10:30:18Z</time>
      </trkpt>
      <trkpt lat="38.290510" lon="-1.327710">
        <ele>289.9</ele>
        <time>2011-04-02T10:30:35Z</time>
      </trkpt>
      <trkpt lat="38.290640" lon="-1.327590">
        <ele>289.0</ele>
        <time>2011-04-02T10:30:49Z</time>
      </trkpt>
      <trkpt lat="38.290920" lon="-1.327460">
        <ele>289.0</ele>
        <time>2011-04-02T10:31:09Z</time>
      </trkpt>
      <trkpt lat="38.291150" lon="-1.327350">
        <ele>289.9</ele>
        <time>2011-04-02T10:31:28Z</time>
      </trkpt>
      <trkpt lat="38.291370" lon="-1.327200">
        <ele>289.9</ele>
        <time>2011-04-02T10:31:45Z</time>
      </trkpt>
      <trkpt lat="38.291560" lon="-1.327220">
        <ele>289.9</ele>
        <time>2011-04-02T10:32:01Z</time>
      </trkpt>
      <trkpt lat="38.291770" lon="-1.327090">
        <ele>289.0</ele>
        <time>2011-04-02T10:32:17Z</time>
      </trkpt>
      <trkpt lat="38.291920" lon="-1.326860">
        <ele>288.0</ele>
        <time>2011-04-02T10:32:36Z</time>
      </trkpt>
      <trkpt lat="38.292120" lon="-1.326640">
        <ele>288.0</ele>
        <time>2011-04-02T10:32:56Z</time>
      </trkpt>
      <trkpt lat="38.292350" lon="-1.326410">
        <ele>289.9</ele>
        <time>2011-04-02T10:33:18Z</time>
      </trkpt>
      <trkpt lat="38.292550" lon="-1.326210">
        <ele>292.0</ele>
        <time>2011-04-02T10:33:36Z</time>
      </trkpt>
      <trkpt lat="38.292630" lon="-1.326110">
        <ele>292.6</ele>
        <time>2011-04-02T10:33:46Z</time>
      </trkpt>
      <trkpt lat="38.292720" lon="-1.326020">
        <ele>293.8</ele>
        <time>2011-04-02T10:33:54Z</time>
      </trkpt>
      <trkpt lat="38.292740" lon="-1.325960">
        <ele>292.6</ele>
        <time>2011-04-02T10:33:58Z</time>
      </trkpt>
      <trkpt lat="38.292780" lon="-1.325910">
        <ele>292.9</ele>
        <time>2011-04-02T10:34:03Z</time>
      </trkpt>
      <trkpt lat="38.292830" lon="-1.325830">
        <ele>292.6</ele>
        <time>2011-04-02T10:34:09Z</time>
      </trkpt>
      <trkpt lat="38.292930" lon="-1.325570">
        <ele>292.6</ele>
        <time>2011-04-02T10:34:25Z</time>
      </trkpt>
      <trkpt lat="38.293060" lon="-1.325350">
        <ele>292.0</ele>
        <time>2011-04-02T10:34:43Z</time>
      </trkpt>
      <trkpt lat="38.293230" lon="-1.325030">
        <ele>292.6</ele>
        <time>2011-04-02T10:35:05Z</time>
      </trkpt>
      <trkpt lat="38.293380" lon="-1.324690">
        <ele>292.6</ele>
        <time>2011-04-02T10:35:27Z</time>
      </trkpt>
      <trkpt lat="38.293430" lon="-1.324630">
        <ele>292.6</ele>
        <time>2011-04-02T10:35:32Z</time>
      </trkpt>
      <trkpt lat="38.293530" lon="-1.324390">
        <ele>293.8</ele>
        <time>2011-04-02T10:35:46Z</time>
      </trkpt>
      <trkpt lat="38.293680" lon="-1.324050">
        <ele>296.6</ele>
        <time>2011-04-02T10:36:07Z</time>
      </trkpt>
      <trkpt lat="38.293830" lon="-1.323770">
        <ele>296.6</ele>
        <time>2011-04-02T10:36:27Z</time>
      </trkpt>
      <trkpt lat="38.293880" lon="-1.323640">
        <ele>297.5</ele>
        <time>2011-04-02T10:36:43Z</time>
      </trkpt>
      <trkpt lat="38.293900" lon="-1.323640">
        <ele>297.5</ele>
        <time>2011-04-02T10:36:55Z</time>
      </trkpt>
      <trkpt lat="38.293900" lon="-1.323600">
        <ele>296.9</ele>
        <time>2011-04-02T10:37:07Z</time>
      </trkpt>
      <trkpt lat="38.293920" lon="-1.323550">
        <ele>298.4</ele>
        <time>2011-04-02T10:37:24Z</time>
      </trkpt>
      <trkpt lat="38.294030" lon="-1.323320">
        <ele>298.7</ele>
        <time>2011-04-02T10:37:40Z</time>
      </trkpt>
      <trkpt lat="38.294200" lon="-1.322990">
        <ele>298.7</ele>
        <time>2011-04-02T10:38:01Z</time>
      </trkpt>
      <trkpt lat="38.294240" lon="-1.322930">
        <ele>298.7</ele>
        <time>2011-04-02T10:38:05Z</time>
      </trkpt>
      <trkpt lat="38.294280" lon="-1.322870">
        <ele>298.7</ele>
        <time>2011-04-02T10:38:09Z</time>
      </trkpt>
      <trkpt lat="38.294460" lon="-1.322570">
        <ele>297.5</ele>
        <time>2011-04-02T10:38:30Z</time>
      </trkpt>
      <trkpt lat="38.294610" lon="-1.322220">
        <ele>296.9</ele>
        <time>2011-04-02T10:38:52Z</time>
      </trkpt>
      <trkpt lat="38.294800" lon="-1.321880">
        <ele>295.7</ele>
        <time>2011-04-02T10:39:15Z</time>
      </trkpt>
      <trkpt lat="38.294820" lon="-1.321880">
        <ele>295.7</ele>
        <time>2011-04-02T10:39:16Z</time>
      </trkpt>
      <trkpt lat="38.294840" lon="-1.321810">
        <ele>295.7</ele>
        <time>2011-04-02T10:39:20Z</time>
      </trkpt>
      <trkpt lat="38.295040" lon="-1.321620">
        <ele>295.7</ele>
        <time>2011-04-02T10:39:39Z</time>
      </trkpt>
      <trkpt lat="38.295250" lon="-1.321429">
        <ele>296.9</ele>
        <time>2011-04-02T10:39:59Z</time>
      </trkpt>
      <trkpt lat="38.295490" lon="-1.321260">
        <ele>295.7</ele>
        <time>2011-04-02T10:40:19Z</time>
      </trkpt>
      <trkpt lat="38.295740" lon="-1.321190">
        <ele>295.7</ele>
        <time>2011-04-02T10:40:39Z</time>
      </trkpt>
      <trkpt lat="38.295960" lon="-1.321280">
        <ele>296.6</ele>
        <time>2011-04-02T10:40:57Z</time>
      </trkpt>
      <trkpt lat="38.296020" lon="-1.321300">
        <ele>297.5</ele>
        <time>2011-04-02T10:41:09Z</time>
      </trkpt>
      <trkpt lat="38.296260" lon="-1.321470">
        <ele>295.7</ele>
        <time>2011-04-02T10:41:28Z</time>
      </trkpt>
      <trkpt lat="38.296540" lon="-1.321620">
        <ele>295.7</ele>
        <time>2011-04-02T10:41:50Z</time>
      </trkpt>
      <trkpt lat="38.296820" lon="-1.321660">
        <ele>295.7</ele>
        <time>2011-04-02T10:42:11Z</time>
      </trkpt>
      <trkpt lat="38.297030" lon="-1.321730">
        <ele>296.6</ele>
        <time>2011-04-02T10:42:30Z</time>
      </trkpt>
      <trkpt lat="38.297250" lon="-1.321770">
        <ele>296.6</ele>
        <time>2011-04-02T10:42:46Z</time>
      </trkpt>
      <trkpt lat="38.297550" lon="-1.321810">
        <ele>295.7</ele>
        <time>2011-04-02T10:43:07Z</time>
      </trkpt>
      <trkpt lat="38.297780" lon="-1.321880">
        <ele>295.7</ele>
        <time>2011-04-02T10:43:25Z</time>
      </trkpt>
      <trkpt lat="38.298040" lon="-1.321900">
        <ele>296.6</ele>
        <time>2011-04-02T10:43:44Z</time>
      </trkpt>
      <trkpt lat="38.298210" lon="-1.321900">
        <ele>297.8</ele>
        <time>2011-04-02T10:43:59Z</time>
      </trkpt>
      <trkpt lat="38.298450" lon="-1.321900">
        <ele>298.4</ele>
        <time>2011-04-02T10:44:17Z</time>
      </trkpt>
      <trkpt lat="38.298660" lon="-1.321880">
        <ele>298.7</ele>
        <time>2011-04-02T10:44:34Z</time>
      </trkpt>
      <trkpt lat="38.298850" lon="-1.321880">
        <ele>298.7</ele>
        <time>2011-04-02T10:44:49Z</time>
      </trkpt>
      <trkpt lat="38.299090" lon="-1.321810">
        <ele>298.7</ele>
        <time>2011-04-02T10:45:09Z</time>
      </trkpt>
      <trkpt lat="38.299090" lon="-1.321840">
        <ele>298.7</ele>
        <time>2011-04-02T10:45:11Z</time>
      </trkpt>
      <trkpt lat="38.299160" lon="-1.321880">
        <ele>300.5</ele>
        <time>2011-04-02T10:45:18Z</time>
      </trkpt>
      <trkpt lat="38.299280" lon="-1.321960">
        <ele>300.5</ele>
        <time>2011-04-02T10:45:28Z</time>
      </trkpt>
      <trkpt lat="38.299310" lon="-1.321990">
        <ele>301.8</ele>
        <time>2011-04-02T10:45:32Z</time>
      </trkpt>
      <trkpt lat="38.299350" lon="-1.321990">
        <ele>302.4</ele>
        <time>2011-04-02T10:45:35Z</time>
      </trkpt>
      <trkpt lat="38.299370" lon="-1.322010">
        <ele>302.7</ele>
        <time>2011-04-02T10:45:37Z</time>
      </trkpt>
      <trkpt lat="38.299580" lon="-1.321960">
        <ele>301.8</ele>
        <time>2011-04-02T10:45:54Z</time>
      </trkpt>
      <trkpt lat="38.299860" lon="-1.321900">
        <ele>301.8</ele>
        <time>2011-04-02T10:46:16Z</time>
      </trkpt>
      <trkpt lat="38.300140" lon="-1.321840">
        <ele>301.8</ele>
        <time>2011-04-02T10:46:36Z</time>
      </trkpt>
      <trkpt lat="38.300460" lon="-1.321790">
        <ele>301.4</ele>
        <time>2011-04-02T10:47:01Z</time>
      </trkpt>
      <trkpt lat="38.300720" lon="-1.321710">
        <ele>301.8</ele>
        <time>2011-04-02T10:47:20Z</time>
      </trkpt>
      <trkpt lat="38.300740" lon="-1.321580">
        <ele>300.5</ele>
        <time>2011-04-02T10:47:30Z</time>
      </trkpt>
      <trkpt lat="38.300890" lon="-1.321430">
        <ele>300.5</ele>
        <time>2011-04-02T10:47:46Z</time>
      </trkpt>
      <trkpt lat="38.300940" lon="-1.321410">
        <ele>300.5</ele>
        <time>2011-04-02T10:48:13Z</time>
      </trkpt>
      <trkpt lat="38.300980" lon="-1.321410">
        <ele>301.8</ele>
        <time>2011-04-02T10:48:25Z</time>
      </trkpt>
      <trkpt lat="38.301040" lon="-1.321410">
        <ele>301.8</ele>
        <time>2011-04-02T10:48:30Z</time>
      </trkpt>
      <trkpt lat="38.301280" lon="-1.321380">
        <ele>300.5</ele>
        <time>2011-04-02T10:48:46Z</time>
      </trkpt>
      <trkpt lat="38.301340" lon="-1.321360">
        <ele>301.4</ele>
        <time>2011-04-02T10:48:51Z</time>
      </trkpt>
      <trkpt lat="38.301560" lon="-1.321340">
        <ele>302.7</ele>
        <time>2011-04-02T10:49:10Z</time>
      </trkpt>
      <trkpt lat="38.301670" lon="-1.321340">
        <ele>303.9</ele>
        <time>2011-04-02T10:49:23Z</time>
      </trkpt>
      <trkpt lat="38.301750" lon="-1.321320">
        <ele>303.9</ele>
        <time>2011-04-02T10:49:35Z</time>
      </trkpt>
      <trkpt lat="38.301990" lon="-1.321340">
        <ele>302.7</ele>
        <time>2011-04-02T10:49:52Z</time>
      </trkpt>
      <trkpt lat="38.302200" lon="-1.321380">
        <ele>301.4</ele>
        <time>2011-04-02T10:50:08Z</time>
      </trkpt>
      <trkpt lat="38.302420" lon="-1.321360">
        <ele>301.8</ele>
        <time>2011-04-02T10:50:25Z</time>
      </trkpt>
      <trkpt lat="38.302610" lon="-1.321300">
        <ele>301.8</ele>
        <time>2011-04-02T10:50:41Z</time>
      </trkpt>
      <trkpt lat="38.302760" lon="-1.321280">
        <ele>302.7</ele>
        <time>2011-04-02T10:50:56Z</time>
      </trkpt>
      <trkpt lat="38.302780" lon="-1.321300">
        <ele>303.3</ele>
        <time>2011-04-02T10:51:01Z</time>
      </trkpt>
      <trkpt lat="38.302870" lon="-1.321380">
        <ele>304.8</ele>
        <time>2011-04-02T10:51:14Z</time>
      </trkpt>
      <trkpt lat="38.302870" lon="-1.321410">
        <ele>304.5</ele>
        <time>2011-04-02T10:51:17Z</time>
      </trkpt>
      <trkpt lat="38.303040" lon="-1.321380">
        <ele>304.5</ele>
        <time>2011-04-02T10:51:30Z</time>
      </trkpt>
      <trkpt lat="38.303150" lon="-1.321360">
        <ele>305.4</ele>
        <time>2011-04-02T10:51:40Z</time>
      </trkpt>
      <trkpt lat="38.303230" lon="-1.321340">
        <ele>304.8</ele>
        <time>2011-04-02T10:51:46Z</time>
      </trkpt>
      <trkpt lat="38.303280" lon="-1.321320">
        <ele>305.4</ele>
        <time>2011-04-02T10:51:49Z</time>
      </trkpt>
      <trkpt lat="38.303360" lon="-1.321300">
        <ele>306.3</ele>
        <time>2011-04-02T10:51:55Z</time>
      </trkpt>
      <trkpt lat="38.303580" lon="-1.321260">
        <ele>305.4</ele>
        <time>2011-04-02T10:52:11Z</time>
      </trkpt>
      <trkpt lat="38.303640" lon="-1.321230">
        <ele>304.8</ele>
        <time>2011-04-02T10:52:15Z</time>
      </trkpt>
      <trkpt lat="38.303880" lon="-1.321190">
        <ele>304.5</ele>
        <time>2011-04-02T10:52:31Z</time>
      </trkpt>
      <trkpt lat="38.304200" lon="-1.321110">
        <ele>303.3</ele>
        <time>2011-04-02T10:52:54Z</time>
      </trkpt>
      <trkpt lat="38.304520" lon="-1.321040">
        <ele>302.7</ele>
        <time>2011-04-02T10:53:18Z</time>
      </trkpt>
      <trkpt lat="38.304650" lon="-1.321020">
        <ele>303.3</ele>
        <time>2011-04-02T10:53:27Z</time>
      </trkpt>
      <trkpt lat="38.304910" lon="-1.320980">
        <ele>303.6</ele>
        <time>2011-04-02T10:53:45Z</time>
      </trkpt>
      <trkpt lat="38.305120" lon="-1.320930">
        <ele>304.5</ele>
        <time>2011-04-02T10:54:00Z</time>
      </trkpt>
      <trkpt lat="38.305400" lon="-1.320910">
        <ele>304.8</ele>
        <time>2011-04-02T10:54:19Z</time>
      </trkpt>
      <trkpt lat="38.305720" lon="-1.320960">
        <ele>306.6</ele>
        <time>2011-04-02T10:54:42Z</time>
      </trkpt>
      <trkpt lat="38.306040" lon="-1.321020">
        <ele>306.6</ele>
        <time>2011-04-02T10:55:06Z</time>
      </trkpt>
      <trkpt lat="38.306370" lon="-1.321060">
        <ele>306.3</ele>
        <time>2011-04-02T10:55:29Z</time>
      </trkpt>
      <trkpt lat="38.306710" lon="-1.321110">
        <ele>308.2</ele>
        <time>2011-04-02T10:55:52Z</time>
      </trkpt>
      <trkpt lat="38.306990" lon="-1.321150">
        <ele>308.8</ele>
        <time>2011-04-02T10:56:12Z</time>
      </trkpt>
      <trkpt lat="38.307180" lon="-1.321020">
        <ele>308.5</ele>
        <time>2011-04-02T10:56:31Z</time>
      </trkpt>
      <trkpt lat="38.307310" lon="-1.320960">
        <ele>308.5</ele>
        <time>2011-04-02T10:56:42Z</time>
      </trkpt>
      <trkpt lat="38.307440" lon="-1.320930">
        <ele>307.2</ele>
        <time>2011-04-02T10:56:55Z</time>
      </trkpt>
      <trkpt lat="38.307630" lon="-1.320910">
        <ele>306.6</ele>
        <time>2011-04-02T10:57:09Z</time>
      </trkpt>
      <trkpt lat="38.307850" lon="-1.320960">
        <ele>308.2</ele>
        <time>2011-04-02T10:57:27Z</time>
      </trkpt>
      <trkpt lat="38.307950" lon="-1.320980">
        <ele>307.5</ele>
        <time>2011-04-02T10:57:38Z</time>
      </trkpt>
      <trkpt lat="38.308060" lon="-1.321000">
        <ele>308.2</ele>
        <time>2011-04-02T10:57:48Z</time>
      </trkpt>
      <trkpt lat="38.308320" lon="-1.321040">
        <ele>308.5</ele>
        <time>2011-04-02T10:58:06Z</time>
      </trkpt>
      <trkpt lat="38.308400" lon="-1.321060">
        <ele>308.8</ele>
        <time>2011-04-02T10:58:12Z</time>
      </trkpt>
      <trkpt lat="38.308550" lon="-1.321000">
        <ele>309.4</ele>
        <time>2011-04-02T10:58:25Z</time>
      </trkpt>
      <trkpt lat="38.308580" lon="-1.321000">
        <ele>309.4</ele>
        <time>2011-04-02T10:58:26Z</time>
      </trkpt>
      <trkpt lat="38.308660" lon="-1.321020">
        <ele>309.7</ele>
        <time>2011-04-02T10:58:33Z</time>
      </trkpt>
      <trkpt lat="38.308790" lon="-1.321000">
        <ele>309.7</ele>
        <time>2011-04-02T10:58:45Z</time>
      </trkpt>
      <trkpt lat="38.308920" lon="-1.321000">
        <ele>310.3</ele>
        <time>2011-04-02T10:58:54Z</time>
      </trkpt>
      <trkpt lat="38.308960" lon="-1.320960">
        <ele>310.3</ele>
        <time>2011-04-02T10:59:01Z</time>
      </trkpt>
      <trkpt lat="38.308980" lon="-1.321000">
        <ele>310.6</ele>
        <time>2011-04-02T10:59:03Z</time>
      </trkpt>
      <trkpt lat="38.309030" lon="-1.321000">
        <ele>310.6</ele>
        <time>2011-04-02T10:59:07Z</time>
      </trkpt>
      <trkpt lat="38.309300" lon="-1.320910">
        <ele>310.3</ele>
        <time>2011-04-02T10:59:27Z</time>
      </trkpt>
      <trkpt lat="38.309480" lon="-1.320850">
        <ele>310.6</ele>
        <time>2011-04-02T10:59:41Z</time>
      </trkpt>
      <trkpt lat="38.309690" lon="-1.320850">
        <ele>311.5</ele>
        <time>2011-04-02T10:59:56Z</time>
      </trkpt>
      <trkpt lat="38.309820" lon="-1.320830">
        <ele>311.5</ele>
        <time>2011-04-02T11:00:08Z</time>
      </trkpt>
      <trkpt lat="38.310010" lon="-1.320740">
        <ele>310.6</ele>
        <time>2011-04-02T11:00:24Z</time>
      </trkpt>
      <trkpt lat="38.310120" lon="-1.320740">
        <ele>311.5</ele>
        <time>2011-04-02T11:00:33Z</time>
      </trkpt>
      <trkpt lat="38.310270" lon="-1.320720">
        <ele>311.5</ele>
        <time>2011-04-02T11:00:45Z</time>
      </trkpt>
      <trkpt lat="38.310550" lon="-1.320610">
        <ele>311.5</ele>
        <time>2011-04-02T11:01:05Z</time>
      </trkpt>
      <trkpt lat="38.310760" lon="-1.320480">
        <ele>313.0</ele>
        <time>2011-04-02T11:01:22Z</time>
      </trkpt>
      <trkpt lat="38.310830" lon="-1.320460">
        <ele>313.9</ele>
        <time>2011-04-02T11:01:28Z</time>
      </trkpt>
      <trkpt lat="38.310870" lon="-1.320460">
        <ele>313.3</ele>
        <time>2011-04-02T11:01:37Z</time>
      </trkpt>
      <trkpt lat="38.311020" lon="-1.320530">
        <ele>313.0</ele>
        <time>2011-04-02T11:01:50Z</time>
      </trkpt>
      <trkpt lat="38.311020" lon="-1.320530">
        <ele>313.0</ele>
        <time>2011-04-02T11:01:53Z</time>
      </trkpt>
      <trkpt lat="38.311060" lon="-1.320550">
        <ele>311.5</ele>
        <time>2011-04-02T11:02:04Z</time>
      </trkpt>
      <trkpt lat="38.311060" lon="-1.320550">
        <ele>311.5</ele>
        <time>2011-04-02T11:02:14Z</time>
      </trkpt>
      <trkpt lat="38.311280" lon="-1.320680">
        <ele>314.2</ele>
        <time>2011-04-02T11:02:33Z</time>
      </trkpt>
      <trkpt lat="38.311360" lon="-1.320740">
        <ele>316.1</ele>
        <time>2011-04-02T11:02:47Z</time>
      </trkpt>
      <trkpt lat="38.311490" lon="-1.320850">
        <ele>318.8</ele>
        <time>2011-04-02T11:03:00Z</time>
      </trkpt>
      <trkpt lat="38.311640" lon="-1.321000">
        <ele>321.0</ele>
        <time>2011-04-02T11:03:16Z</time>
      </trkpt>
      <trkpt lat="38.311770" lon="-1.321280">
        <ele>323.1</ele>
        <time>2011-04-02T11:03:35Z</time>
      </trkpt>
      <trkpt lat="38.311790" lon="-1.321429">
        <ele>320.3</ele>
        <time>2011-04-02T11:03:53Z</time>
      </trkpt>
      <trkpt lat="38.311790" lon="-1.321429">
        <ele>320.3</ele>
        <time>2011-04-02T11:03:57Z</time>
      </trkpt>
      <trkpt lat="38.311880" lon="-1.321770">
        <ele>320.3</ele>
        <time>2011-04-02T11:04:17Z</time>
      </trkpt>
      <trkpt lat="38.311920" lon="-1.322090">
        <ele>319.4</ele>
        <time>2011-04-02T11:04:35Z</time>
      </trkpt>
      <trkpt lat="38.311970" lon="-1.322390">
        <ele>318.8</ele>
        <time>2011-04-02T11:04:52Z</time>
      </trkpt>
      <trkpt lat="38.312050" lon="-1.322760">
        <ele>318.8</ele>
        <time>2011-04-02T11:05:13Z</time>
      </trkpt>
      <trkpt lat="38.312180" lon="-1.323020">
        <ele>321.0</ele>
        <time>2011-04-02T11:05:31Z</time>
      </trkpt>
      <trkpt lat="38.312270" lon="-1.323170">
        <ele>322.2</ele>
        <time>2011-04-02T11:05:41Z</time>
      </trkpt>
      <trkpt lat="38.312520" lon="-1.323340">
        <ele>324.9</ele>
        <time>2011-04-02T11:06:03Z</time>
      </trkpt>
      <trkpt lat="38.312570" lon="-1.323360">
        <ele>326.1</ele>
        <time>2011-04-02T11:06:06Z</time>
      </trkpt>
      <trkpt lat="38.312760" lon="-1.323490">
        <ele>327.1</ele>
        <time>2011-04-02T11:06:23Z</time>
      </trkpt>
      <trkpt lat="38.312930" lon="-1.323600">
        <ele>327.7</ele>
        <time>2011-04-02T11:06:38Z</time>
      </trkpt>
      <trkpt lat="38.313210" lon="-1.323720">
        <ele>330.7</ele>
        <time>2011-04-02T11:06:59Z</time>
      </trkpt>
      <trkpt lat="38.313490" lon="-1.323830">
        <ele>333.8</ele>
        <time>2011-04-02T11:07:18Z</time>
      </trkpt>
      <trkpt lat="38.313790" lon="-1.323960">
        <ele>334.7</ele>
        <time>2011-04-02T11:07:41Z</time>
      </trkpt>
      <trkpt lat="38.314070" lon="-1.324090">
        <ele>335.6</ele>
        <time>2011-04-02T11:08:02Z</time>
      </trkpt>
      <trkpt lat="38.314350" lon="-1.324200">
        <ele>336.5</ele>
        <time>2011-04-02T11:08:23Z</time>
      </trkpt>
      <trkpt lat="38.314600" lon="-1.324300">
        <ele>336.5</ele>
        <time>2011-04-02T11:08:43Z</time>
      </trkpt>
      <trkpt lat="38.314820" lon="-1.324410">
        <ele>336.5</ele>
        <time>2011-04-02T11:08:58Z</time>
      </trkpt>
      <trkpt lat="38.315030" lon="-1.324600">
        <ele>336.5</ele>
        <time>2011-04-02T11:09:19Z</time>
      </trkpt>
      <trkpt lat="38.315230" lon="-1.324860">
        <ele>338.6</ele>
        <time>2011-04-02T11:09:38Z</time>
      </trkpt>
      <trkpt lat="38.315400" lon="-1.325100">
        <ele>338.6</ele>
        <time>2011-04-02T11:09:56Z</time>
      </trkpt>
      <trkpt lat="38.315590" lon="-1.325330">
        <ele>339.2</ele>
        <time>2011-04-02T11:10:16Z</time>
      </trkpt>
      <trkpt lat="38.315720" lon="-1.325500">
        <ele>340.5</ele>
        <time>2011-04-02T11:10:30Z</time>
      </trkpt>
      <trkpt lat="38.315760" lon="-1.325550">
        <ele>341.4</ele>
        <time>2011-04-02T11:10:41Z</time>
      </trkpt>
      <trkpt lat="38.315810" lon="-1.325610">
        <ele>340.5</ele>
        <time>2011-04-02T11:10:57Z</time>
      </trkpt>
      <trkpt lat="38.315960" lon="-1.325890">
        <ele>341.4</ele>
        <time>2011-04-02T11:11:16Z</time>
      </trkpt>
      <trkpt lat="38.316110" lon="-1.326170">
        <ele>342.6</ele>
        <time>2011-04-02T11:11:36Z</time>
      </trkpt>
      <trkpt lat="38.316280" lon="-1.326450">
        <ele>344.7</ele>
        <time>2011-04-02T11:11:56Z</time>
      </trkpt>
      <trkpt lat="38.316390" lon="-1.326660">
        <ele>345.3</ele>
        <time>2011-04-02T11:12:11Z</time>
      </trkpt>
      <trkpt lat="38.316490" lon="-1.326770">
        <ele>345.6</ele>
        <time>2011-04-02T11:12:28Z</time>
      </trkpt>
      <trkpt lat="38.316540" lon="-1.326790">
        <ele>345.3</ele>
        <time>2011-04-02T11:12:46Z</time>
      </trkpt>
      <trkpt lat="38.316580" lon="-1.326790">
        <ele>345.3</ele>
        <time>2011-04-02T11:12:51Z</time>
      </trkpt>
      <trkpt lat="38.316620" lon="-1.326790">
        <ele>342.3</ele>
        <time>2011-04-02T11:13:06Z</time>
      </trkpt>
      <trkpt lat="38.316660" lon="-1.326840">
        <ele>347.2</ele>
        <time>2011-04-02T11:15:49Z</time>
      </trkpt>
      <trkpt lat="38.316840" lon="-1.326900">
        <ele>345.3</ele>
        <time>2011-04-02T11:16:08Z</time>
      </trkpt>
      <trkpt lat="38.316840" lon="-1.326960">
        <ele>347.2</ele>
        <time>2011-04-02T11:17:05Z</time>
      </trkpt>
      <trkpt lat="38.316940" lon="-1.326990">
        <ele>347.2</ele>
        <time>2011-04-02T11:18:00Z</time>
      </trkpt>
      <trkpt lat="38.317220" lon="-1.327070">
        <ele>345.6</ele>
        <time>2011-04-02T11:18:22Z</time>
      </trkpt>
      <trkpt lat="38.317480" lon="-1.327160">
        <ele>346.3</ele>
        <time>2011-04-02T11:18:42Z</time>
      </trkpt>
      <trkpt lat="38.317760" lon="-1.327239">
        <ele>345.6</ele>
        <time>2011-04-02T11:19:04Z</time>
      </trkpt>
      <trkpt lat="38.318060" lon="-1.327350">
        <ele>347.2</ele>
        <time>2011-04-02T11:19:26Z</time>
      </trkpt>
      <trkpt lat="38.318300" lon="-1.327460">
        <ele>348.1</ele>
        <time>2011-04-02T11:19:45Z</time>
      </trkpt>
      <trkpt lat="38.318550" lon="-1.327540">
        <ele>349.3</ele>
        <time>2011-04-02T11:20:06Z</time>
      </trkpt>
      <trkpt lat="38.318750" lon="-1.327650">
        <ele>349.9</ele>
        <time>2011-04-02T11:20:24Z</time>
      </trkpt>
      <trkpt lat="38.319050" lon="-1.327800">
        <ele>351.1</ele>
        <time>2011-04-02T11:20:47Z</time>
      </trkpt>
      <trkpt lat="38.319240" lon="-1.327930">
        <ele>353.3</ele>
        <time>2011-04-02T11:21:04Z</time>
      </trkpt>
      <trkpt lat="38.319430" lon="-1.328100">
        <ele>354.8</ele>
        <time>2011-04-02T11:21:22Z</time>
      </trkpt>
      <trkpt lat="38.319450" lon="-1.328340">
        <ele>353.9</ele>
        <time>2011-04-02T11:21:38Z</time>
      </trkpt>
      <trkpt lat="38.319500" lon="-1.328420">
        <ele>353.3</ele>
        <time>2011-04-02T11:21:45Z</time>
      </trkpt>
      <trkpt lat="38.319560" lon="-1.328440">
        <ele>353.9</ele>
        <time>2011-04-02T11:22:04Z</time>
      </trkpt>
      <trkpt lat="38.319580" lon="-1.328470">
        <ele>349.0</ele>
        <time>2011-04-02T11:22:33Z</time>
      </trkpt>
      <trkpt lat="38.319630" lon="-1.328490">
        <ele>347.2</ele>
        <time>2011-04-02T11:22:51Z</time>
      </trkpt>
      <trkpt lat="38.319750" lon="-1.328620">
        <ele>347.2</ele>
        <time>2011-04-02T11:23:12Z</time>
      </trkpt>
      <trkpt lat="38.319900" lon="-1.328940">
        <ele>343.5</ele>
        <time>2011-04-02T11:23:31Z</time>
      </trkpt>
      <trkpt lat="38.320010" lon="-1.329240">
        <ele>345.6</ele>
        <time>2011-04-02T11:23:50Z</time>
      </trkpt>
      <trkpt lat="38.320100" lon="-1.329560">
        <ele>348.1</ele>
        <time>2011-04-02T11:24:10Z</time>
      </trkpt>
      <trkpt lat="38.320100" lon="-1.329560">
        <ele>349.9</ele>
        <time>2011-04-02T11:24:32Z</time>
      </trkpt>
      <trkpt lat="38.320140" lon="-1.329600">
        <ele>349.3</ele>
        <time>2011-04-02T11:24:47Z</time>
      </trkpt>
      <trkpt lat="38.320160" lon="-1.329600">
        <ele>347.2</ele>
        <time>2011-04-02T11:25:00Z</time>
      </trkpt>
      <trkpt lat="38.320270" lon="-1.329690">
        <ele>348.1</ele>
        <time>2011-04-02T11:25:15Z</time>
      </trkpt>
      <trkpt lat="38.320270" lon="-1.329690">
        <ele>348.4</ele>
        <time>2011-04-02T11:25:16Z</time>
      </trkpt>
      <trkpt lat="38.320290" lon="-1.329730">
        <ele>348.4</ele>
        <time>2011-04-02T11:25:22Z</time>
      </trkpt>
      <trkpt lat="38.320330" lon="-1.329860">
        <ele>345.6</ele>
        <time>2011-04-02T11:25:35Z</time>
      </trkpt>
      <trkpt lat="38.320360" lon="-1.329880">
        <ele>345.6</ele>
        <time>2011-04-02T11:25:37Z</time>
      </trkpt>
      <trkpt lat="38.320400" lon="-1.329970">
        <ele>346.3</ele>
        <time>2011-04-02T11:25:56Z</time>
      </trkpt>
      <trkpt lat="38.320420" lon="-1.330080">
        <ele>345.3</ele>
        <time>2011-04-02T11:26:14Z</time>
      </trkpt>
      <trkpt lat="38.320460" lon="-1.330200">
        <ele>345.6</ele>
        <time>2011-04-02T11:26:31Z</time>
      </trkpt>
      <trkpt lat="38.320460" lon="-1.330230">
        <ele>344.1</ele>
        <time>2011-04-02T11:26:45Z</time>
      </trkpt>
      <trkpt lat="38.320510" lon="-1.330270">
        <ele>349.3</ele>
        <time>2011-04-02T11:26:57Z</time>
      </trkpt>
      <trkpt lat="38.320550" lon="-1.330350">
        <ele>351.4</ele>
        <time>2011-04-02T11:27:04Z</time>
      </trkpt>
      <trkpt lat="38.320680" lon="-1.330570">
        <ele>350.5</ele>
        <time>2011-04-02T11:27:23Z</time>
      </trkpt>
      <trkpt lat="38.320680" lon="-1.330630">
        <ele>350.5</ele>
        <time>2011-04-02T11:27:33Z</time>
      </trkpt>
      <trkpt lat="38.320760" lon="-1.330780">
        <ele>349.0</ele>
        <time>2011-04-02T11:27:46Z</time>
      </trkpt>
      <trkpt lat="38.320810" lon="-1.330800">
        <ele>348.4</ele>
        <time>2011-04-02T11:27:50Z</time>
      </trkpt>
      <trkpt lat="38.320830" lon="-1.330830">
        <ele>348.4</ele>
        <time>2011-04-02T11:27:54Z</time>
      </trkpt>
      <trkpt lat="38.320910" lon="-1.330870">
        <ele>347.2</ele>
        <time>2011-04-02T11:28:09Z</time>
      </trkpt>
      <trkpt lat="38.320960" lon="-1.331040">
        <ele>345.6</ele>
        <time>2011-04-02T11:28:28Z</time>
      </trkpt>
      <trkpt lat="38.321000" lon="-1.331150">
        <ele>347.2</ele>
        <time>2011-04-02T11:28:46Z</time>
      </trkpt>
      <trkpt lat="38.321040" lon="-1.331190">
        <ele>345.3</ele>
        <time>2011-04-02T11:29:00Z</time>
      </trkpt>
      <trkpt lat="38.321040" lon="-1.331300">
        <ele>348.4</ele>
        <time>2011-04-02T11:29:16Z</time>
      </trkpt>
      <trkpt lat="38.321040" lon="-1.331320">
        <ele>347.2</ele>
        <time>2011-04-02T11:29:18Z</time>
      </trkpt>
      <trkpt lat="38.321020" lon="-1.331450">
        <ele>345.3</ele>
        <time>2011-04-02T11:29:35Z</time>
      </trkpt>
      <trkpt lat="38.321080" lon="-1.331510">
        <ele>347.2</ele>
        <time>2011-04-02T11:29:49Z</time>
      </trkpt>
      <trkpt lat="38.321150" lon="-1.331580">
        <ele>347.2</ele>
        <time>2011-04-02T11:30:06Z</time>
      </trkpt>
      <trkpt lat="38.321170" lon="-1.331710">
        <ele>349.3</ele>
        <time>2011-04-02T11:30:25Z</time>
      </trkpt>
      <trkpt lat="38.321130" lon="-1.331810">
        <ele>348.1</ele>
        <time>2011-04-02T11:30:40Z</time>
      </trkpt>
      <trkpt lat="38.321080" lon="-1.331920">
        <ele>352.3</ele>
        <time>2011-04-02T11:30:59Z</time>
      </trkpt>
      <trkpt lat="38.321130" lon="-1.331960">
        <ele>354.2</ele>
        <time>2011-04-02T11:31:13Z</time>
      </trkpt>
      <trkpt lat="38.321150" lon="-1.332030">
        <ele>356.3</ele>
        <time>2011-04-02T11:31:29Z</time>
      </trkpt>
      <trkpt lat="38.321170" lon="-1.332030">
        <ele>356.9</ele>
        <time>2011-04-02T11:31:32Z</time>
      </trkpt>
      <trkpt lat="38.321190" lon="-1.332070">
        <ele>356.3</ele>
        <time>2011-04-02T11:31:36Z</time>
      </trkpt>
      <trkpt lat="38.321300" lon="-1.332240">
        <ele>356.9</ele>
        <time>2011-04-02T11:31:52Z</time>
      </trkpt>
      <trkpt lat="38.321390" lon="-1.332370">
        <ele>358.1</ele>
        <time>2011-04-02T11:32:02Z</time>
      </trkpt>
      <trkpt lat="38.321510" lon="-1.332540">
        <ele>359.7</ele>
        <time>2011-04-02T11:32:17Z</time>
      </trkpt>
      <trkpt lat="38.321600" lon="-1.332760">
        <ele>364.8</ele>
        <time>2011-04-02T11:32:40Z</time>
      </trkpt>
      <trkpt lat="38.321620" lon="-1.332819">
        <ele>367.6</ele>
        <time>2011-04-02T11:32:51Z</time>
      </trkpt>
      <trkpt lat="38.321620" lon="-1.332819">
        <ele>368.8</ele>
        <time>2011-04-02T11:33:03Z</time>
      </trkpt>
      <trkpt lat="38.321620" lon="-1.332840">
        <ele>368.8</ele>
        <time>2011-04-02T11:33:05Z</time>
      </trkpt>
      <trkpt lat="38.321620" lon="-1.332860">
        <ele>369.7</ele>
        <time>2011-04-02T11:33:07Z</time>
      </trkpt>
      <trkpt lat="38.321640" lon="-1.332910">
        <ele>369.7</ele>
        <time>2011-04-02T11:33:11Z</time>
      </trkpt>
      <trkpt lat="38.321600" lon="-1.333040">
        <ele>372.8</ele>
        <time>2011-04-02T11:33:23Z</time>
      </trkpt>
      <trkpt lat="38.321640" lon="-1.333210">
        <ele>374.6</ele>
        <time>2011-04-02T11:33:35Z</time>
      </trkpt>
      <trkpt lat="38.321640" lon="-1.333340">
        <ele>374.3</ele>
        <time>2011-04-02T11:33:49Z</time>
      </trkpt>
      <trkpt lat="38.321710" lon="-1.333340">
        <ele>372.5</ele>
        <time>2011-04-02T11:33:59Z</time>
      </trkpt>
      <trkpt lat="38.321710" lon="-1.333530">
        <ele>370.6</ele>
        <time>2011-04-02T11:34:13Z</time>
      </trkpt>
      <trkpt lat="38.321730" lon="-1.333570">
        <ele>370.6</ele>
        <time>2011-04-02T11:34:17Z</time>
      </trkpt>
      <trkpt lat="38.321710" lon="-1.333620">
        <ele>371.6</ele>
        <time>2011-04-02T11:34:20Z</time>
      </trkpt>
      <trkpt lat="38.321730" lon="-1.333700">
        <ele>372.8</ele>
        <time>2011-04-02T11:34:34Z</time>
      </trkpt>
      <trkpt lat="38.321730" lon="-1.333740">
        <ele>372.5</ele>
        <time>2011-04-02T11:34:37Z</time>
      </trkpt>
      <trkpt lat="38.321690" lon="-1.333980">
        <ele>372.8</ele>
        <time>2011-04-02T11:34:55Z</time>
      </trkpt>
      <trkpt lat="38.321660" lon="-1.334130">
        <ele>373.4</ele>
        <time>2011-04-02T11:35:07Z</time>
      </trkpt>
      <trkpt lat="38.321640" lon="-1.334150">
        <ele>373.7</ele>
        <time>2011-04-02T11:35:11Z</time>
      </trkpt>
      <trkpt lat="38.321750" lon="-1.334240">
        <ele>372.8</ele>
        <time>2011-04-02T11:35:28Z</time>
      </trkpt>
      <trkpt lat="38.321810" lon="-1.334300">
        <ele>372.8</ele>
        <time>2011-04-02T11:35:41Z</time>
      </trkpt>
      <trkpt lat="38.321860" lon="-1.334300">
        <ele>372.5</ele>
        <time>2011-04-02T11:35:44Z</time>
      </trkpt>
      <trkpt lat="38.321990" lon="-1.334410">
        <ele>372.8</ele>
        <time>2011-04-02T11:36:04Z</time>
      </trkpt>
      <trkpt lat="38.322030" lon="-1.334540">
        <ele>375.5</ele>
        <time>2011-04-02T11:36:19Z</time>
      </trkpt>
      <trkpt lat="38.322110" lon="-1.334580">
        <ele>376.4</ele>
        <time>2011-04-02T11:36:31Z</time>
      </trkpt>
      <trkpt lat="38.322180" lon="-1.334650">
        <ele>378.3</ele>
        <time>2011-04-02T11:36:46Z</time>
      </trkpt>
      <trkpt lat="38.322180" lon="-1.334670">
        <ele>377.3</ele>
        <time>2011-04-02T11:37:16Z</time>
      </trkpt>
      <trkpt lat="38.322310" lon="-1.334800">
        <ele>380.4</ele>
        <time>2011-04-02T11:37:46Z</time>
      </trkpt>
      <trkpt lat="38.322440" lon="-1.334820">
        <ele>381.3</ele>
        <time>2011-04-02T11:37:58Z</time>
      </trkpt>
      <trkpt lat="38.322650" lon="-1.334880">
        <ele>383.1</ele>
        <time>2011-04-02T11:38:13Z</time>
      </trkpt>
      <trkpt lat="38.322870" lon="-1.334950">
        <ele>382.2</ele>
        <time>2011-04-02T11:38:29Z</time>
      </trkpt>
      <trkpt lat="38.323100" lon="-1.335030">
        <ele>383.1</ele>
        <time>2011-04-02T11:38:47Z</time>
      </trkpt>
      <trkpt lat="38.323270" lon="-1.335180">
        <ele>383.1</ele>
        <time>2011-04-02T11:39:04Z</time>
      </trkpt>
      <trkpt lat="38.323380" lon="-1.335270">
        <ele>381.3</ele>
        <time>2011-04-02T11:39:19Z</time>
      </trkpt>
      <trkpt lat="38.323600" lon="-1.335310">
        <ele>385.0</ele>
        <time>2011-04-02T11:39:39Z</time>
      </trkpt>
      <trkpt lat="38.323620" lon="-1.335310">
        <ele>385.9</ele>
        <time>2011-04-02T11:39:41Z</time>
      </trkpt>
      <trkpt lat="38.323790" lon="-1.335330">
        <ele>386.5</ele>
        <time>2011-04-02T11:39:56Z</time>
      </trkpt>
      <trkpt lat="38.323980" lon="-1.335400">
        <ele>388.0</ele>
        <time>2011-04-02T11:40:11Z</time>
      </trkpt>
      <trkpt lat="38.324150" lon="-1.335530">
        <ele>384.0</ele>
        <time>2011-04-02T11:40:30Z</time>
      </trkpt>
      <trkpt lat="38.324240" lon="-1.335550">
        <ele>386.2</ele>
        <time>2011-04-02T11:40:45Z</time>
      </trkpt>
      <trkpt lat="38.324240" lon="-1.335570">
        <ele>386.5</ele>
        <time>2011-04-02T11:40:48Z</time>
      </trkpt>
      <trkpt lat="38.324330" lon="-1.335740">
        <ele>386.2</ele>
        <time>2011-04-02T11:41:06Z</time>
      </trkpt>
      <trkpt lat="38.324450" lon="-1.335910">
        <ele>388.0</ele>
        <time>2011-04-02T11:41:27Z</time>
      </trkpt>
      <trkpt lat="38.324600" lon="-1.336040">
        <ele>391.4</ele>
        <time>2011-04-02T11:41:48Z</time>
      </trkpt>
      <trkpt lat="38.324600" lon="-1.336100">
        <ele>391.4</ele>
        <time>2011-04-02T11:41:53Z</time>
      </trkpt>
      <trkpt lat="38.324650" lon="-1.336360">
        <ele>396.8</ele>
        <time>2011-04-02T11:42:15Z</time>
      </trkpt>
      <trkpt lat="38.324630" lon="-1.336380">
        <ele>398.1</ele>
        <time>2011-04-02T11:42:21Z</time>
      </trkpt>
      <trkpt lat="38.324650" lon="-1.336530">
        <ele>401.4</ele>
        <time>2011-04-02T11:42:36Z</time>
      </trkpt>
      <trkpt lat="38.324690" lon="-1.336560">
        <ele>401.7</ele>
        <time>2011-04-02T11:42:44Z</time>
      </trkpt>
      <trkpt lat="38.324800" lon="-1.336710">
        <ele>399.9</ele>
        <time>2011-04-02T11:43:03Z</time>
      </trkpt>
      <trkpt lat="38.324840" lon="-1.336900">
        <ele>400.8</ele>
        <time>2011-04-02T11:43:19Z</time>
      </trkpt>
      <trkpt lat="38.324860" lon="-1.337010">
        <ele>406.6</ele>
        <time>2011-04-02T11:43:32Z</time>
      </trkpt>
      <trkpt lat="38.324900" lon="-1.337090">
        <ele>409.7</ele>
        <time>2011-04-02T11:43:46Z</time>
      </trkpt>
      <trkpt lat="38.324880" lon="-1.337130">
        <ele>409.7</ele>
        <time>2011-04-02T11:43:50Z</time>
      </trkpt>
      <trkpt lat="38.324860" lon="-1.337290">
        <ele>415.1</ele>
        <time>2011-04-02T11:44:04Z</time>
      </trkpt>
      <trkpt lat="38.324930" lon="-1.337440">
        <ele>419.1</ele>
        <time>2011-04-02T11:44:18Z</time>
      </trkpt>
      <trkpt lat="38.324970" lon="-1.337540">
        <ele>424.0</ele>
        <time>2011-04-02T11:44:30Z</time>
      </trkpt>
      <trkpt lat="38.325010" lon="-1.337650">
        <ele>425.2</ele>
        <time>2011-04-02T11:44:45Z</time>
      </trkpt>
      <trkpt lat="38.325050" lon="-1.337740">
        <ele>429.8</ele>
        <time>2011-04-02T11:45:00Z</time>
      </trkpt>
      <trkpt lat="38.325120" lon="-1.337820">
        <ele>428.9</ele>
        <time>2011-04-02T11:45:13Z</time>
      </trkpt>
      <trkpt lat="38.325200" lon="-1.337910">
        <ele>428.9</ele>
        <time>2011-04-02T11:45:27Z</time>
      </trkpt>
      <trkpt lat="38.325360" lon="-1.338120">
        <ele>427.3</ele>
        <time>2011-04-02T11:45:51Z</time>
      </trkpt>
      <trkpt lat="38.325420" lon="-1.338190">
        <ele>424.0</ele>
        <time>2011-04-02T11:46:18Z</time>
      </trkpt>
      <trkpt lat="38.325460" lon="-1.338230">
        <ele>424.0</ele>
        <time>2011-04-02T11:46:26Z</time>
      </trkpt>
      <trkpt lat="38.325480" lon="-1.338470">
        <ele>427.9</ele>
        <time>2011-04-02T11:46:49Z</time>
      </trkpt>
      <trkpt lat="38.325610" lon="-1.338620">
        <ele>432.2</ele>
        <time>2011-04-02T11:47:10Z</time>
      </trkpt>
      <trkpt lat="38.325660" lon="-1.338850">
        <ele>436.8</ele>
        <time>2011-04-02T11:47:33Z</time>
      </trkpt>
      <trkpt lat="38.325660" lon="-1.339000">
        <ele>439.5</ele>
        <time>2011-04-02T11:47:50Z</time>
      </trkpt>
      <trkpt lat="38.325740" lon="-1.339260">
        <ele>441.7</ele>
        <time>2011-04-02T11:48:11Z</time>
      </trkpt>
      <trkpt lat="38.325870" lon="-1.339500">
        <ele>441.4</ele>
        <time>2011-04-02T11:48:37Z</time>
      </trkpt>
      <trkpt lat="38.325960" lon="-1.339620">
        <ele>442.3</ele>
        <time>2011-04-02T11:48:50Z</time>
      </trkpt>
      <trkpt lat="38.326170" lon="-1.339860">
        <ele>441.4</ele>
        <time>2011-04-02T11:49:17Z</time>
      </trkpt>
      <trkpt lat="38.326280" lon="-1.340010">
        <ele>444.7</ele>
        <time>2011-04-02T11:49:30Z</time>
      </trkpt>
      <trkpt lat="38.326300" lon="-1.340050">
        <ele>445.6</ele>
        <time>2011-04-02T11:49:34Z</time>
      </trkpt>
      <trkpt lat="38.326410" lon="-1.340180">
        <ele>448.7</ele>
        <time>2011-04-02T11:49:48Z</time>
      </trkpt>
      <trkpt lat="38.326580" lon="-1.340310">
        <ele>452.3</ele>
        <time>2011-04-02T11:50:06Z</time>
      </trkpt>
      <trkpt lat="38.326770" lon="-1.340400">
        <ele>455.4</ele>
        <time>2011-04-02T11:50:26Z</time>
      </trkpt>
      <trkpt lat="38.326900" lon="-1.340480">
        <ele>459.0</ele>
        <time>2011-04-02T11:50:42Z</time>
      </trkpt>
      <trkpt lat="38.327010" lon="-1.340570">
        <ele>460.9</ele>
        <time>2011-04-02T11:50:57Z</time>
      </trkpt>
      <trkpt lat="38.327010" lon="-1.340570">
        <ele>460.9</ele>
        <time>2011-04-02T11:51:04Z</time>
      </trkpt>
      <trkpt lat="38.327140" lon="-1.340680">
        <ele>463.9</ele>
        <time>2011-04-02T11:51:17Z</time>
      </trkpt>
      <trkpt lat="38.327180" lon="-1.340760">
        <ele>465.7</ele>
        <time>2011-04-02T11:51:25Z</time>
      </trkpt>
      <trkpt lat="38.327220" lon="-1.340850">
        <ele>466.0</ele>
        <time>2011-04-02T11:51:33Z</time>
      </trkpt>
      <trkpt lat="38.327220" lon="-1.341080">
        <ele>468.8</ele>
        <time>2011-04-02T11:51:51Z</time>
      </trkpt>
      <trkpt lat="38.327200" lon="-1.341170">
        <ele>469.7</ele>
        <time>2011-04-02T11:52:01Z</time>
      </trkpt>
      <trkpt lat="38.327260" lon="-1.341430">
        <ele>470.6</ele>
        <time>2011-04-02T11:52:21Z</time>
      </trkpt>
      <trkpt lat="38.327240" lon="-1.341560">
        <ele>471.5</ele>
        <time>2011-04-02T11:52:36Z</time>
      </trkpt>
      <trkpt lat="38.327220" lon="-1.341830">
        <ele>469.7</ele>
        <time>2011-04-02T11:52:54Z</time>
      </trkpt>
      <trkpt lat="38.327160" lon="-1.342090">
        <ele>467.0</ele>
        <time>2011-04-02T11:53:13Z</time>
      </trkpt>
      <trkpt lat="38.327090" lon="-1.342310">
        <ele>463.9</ele>
        <time>2011-04-02T11:53:29Z</time>
      </trkpt>
      <trkpt lat="38.327090" lon="-1.342330">
        <ele>463.9</ele>
        <time>2011-04-02T11:53:31Z</time>
      </trkpt>
      <trkpt lat="38.327010" lon="-1.342590">
        <ele>462.1</ele>
        <time>2011-04-02T11:53:50Z</time>
      </trkpt>
      <trkpt lat="38.326940" lon="-1.342690">
        <ele>462.1</ele>
        <time>2011-04-02T11:54:03Z</time>
      </trkpt>
      <trkpt lat="38.326840" lon="-1.342910">
        <ele>463.0</ele>
        <time>2011-04-02T11:54:18Z</time>
      </trkpt>
      <trkpt lat="38.326880" lon="-1.343270">
        <ele>463.0</ele>
        <time>2011-04-02T11:54:40Z</time>
      </trkpt>
      <trkpt lat="38.326920" lon="-1.343530">
        <ele>463.0</ele>
        <time>2011-04-02T11:54:58Z</time>
      </trkpt>
      <trkpt lat="38.326990" lon="-1.343850">
        <ele>463.0</ele>
        <time>2011-04-02T11:55:18Z</time>
      </trkpt>
      <trkpt lat="38.326990" lon="-1.343890">
        <ele>462.1</ele>
        <time>2011-04-02T11:55:21Z</time>
      </trkpt>
      <trkpt lat="38.326990" lon="-1.344090">
        <ele>460.2</ele>
        <time>2011-04-02T11:55:33Z</time>
      </trkpt>
      <trkpt lat="38.327030" lon="-1.344370">
        <ele>458.1</ele>
        <time>2011-04-02T11:55:52Z</time>
      </trkpt>
      <trkpt lat="38.327070" lon="-1.344710">
        <ele>458.1</ele>
        <time>2011-04-02T11:56:14Z</time>
      </trkpt>
      <trkpt lat="38.327110" lon="-1.344990">
        <ele>456.3</ele>
        <time>2011-04-02T11:56:31Z</time>
      </trkpt>
      <trkpt lat="38.327180" lon="-1.345250">
        <ele>453.5</ele>
        <time>2011-04-02T11:56:48Z</time>
      </trkpt>
      <trkpt lat="38.327200" lon="-1.345330">
        <ele>454.2</ele>
        <time>2011-04-02T11:56:56Z</time>
      </trkpt>
      <trkpt lat="38.327240" lon="-1.345350">
        <ele>453.2</ele>
        <time>2011-04-02T11:57:01Z</time>
      </trkpt>
      <trkpt lat="38.327200" lon="-1.345670">
        <ele>452.3</ele>
        <time>2011-04-02T11:57:20Z</time>
      </trkpt>
      <trkpt lat="38.327140" lon="-1.346000">
        <ele>453.2</ele>
        <time>2011-04-02T11:57:39Z</time>
      </trkpt>
      <trkpt lat="38.327050" lon="-1.346380">
        <ele>451.4</ele>
        <time>2011-04-02T11:58:01Z</time>
      </trkpt>
      <trkpt lat="38.326990" lon="-1.346700">
        <ele>449.3</ele>
        <time>2011-04-02T11:58:20Z</time>
      </trkpt>
      <trkpt lat="38.326960" lon="-1.346860">
        <ele>448.7</ele>
        <time>2011-04-02T11:58:29Z</time>
      </trkpt>
      <trkpt lat="38.326860" lon="-1.347200">
        <ele>445.6</ele>
        <time>2011-04-02T11:58:51Z</time>
      </trkpt>
      <trkpt lat="38.326810" lon="-1.347350">
        <ele>444.4</ele>
        <time>2011-04-02T11:59:03Z</time>
      </trkpt>
      <trkpt lat="38.326750" lon="-1.347730">
        <ele>443.5</ele>
        <time>2011-04-02T11:59:25Z</time>
      </trkpt>
      <trkpt lat="38.326660" lon="-1.348060">
        <ele>442.3</ele>
        <time>2011-04-02T11:59:44Z</time>
      </trkpt>
      <trkpt lat="38.326620" lon="-1.348190">
        <ele>441.7</ele>
        <time>2011-04-02T11:59:59Z</time>
      </trkpt>
      <trkpt lat="38.326560" lon="-1.348380">
        <ele>442.3</ele>
        <time>2011-04-02T12:00:18Z</time>
      </trkpt>
      <trkpt lat="38.326560" lon="-1.348380">
        <ele>442.3</ele>
        <time>2011-04-02T12:00:20Z</time>
      </trkpt>
      <trkpt lat="38.326450" lon="-1.348590">
        <ele>442.3</ele>
        <time>2011-04-02T12:00:40Z</time>
      </trkpt>
      <trkpt lat="38.326410" lon="-1.348660">
        <ele>442.3</ele>
        <time>2011-04-02T12:00:56Z</time>
      </trkpt>
      <trkpt lat="38.326280" lon="-1.348870">
        <ele>440.7</ele>
        <time>2011-04-02T12:01:13Z</time>
      </trkpt>
      <trkpt lat="38.326080" lon="-1.349110">
        <ele>440.7</ele>
        <time>2011-04-02T12:01:32Z</time>
      </trkpt>
      <trkpt lat="38.325890" lon="-1.349370">
        <ele>438.0</ele>
        <time>2011-04-02T12:01:53Z</time>
      </trkpt>
      <trkpt lat="38.325740" lon="-1.349540">
        <ele>437.4</ele>
        <time>2011-04-02T12:02:07Z</time>
      </trkpt>
      <trkpt lat="38.325700" lon="-1.349560">
        <ele>434.6</ele>
        <time>2011-04-02T12:02:22Z</time>
      </trkpt>
      <trkpt lat="38.325700" lon="-1.349560">
        <ele>434.6</ele>
        <time>2011-04-02T12:02:53Z</time>
      </trkpt>
      <trkpt lat="38.325700" lon="-1.349540">
        <ele>431.6</ele>
        <time>2011-04-02T12:03:54Z</time>
      </trkpt>
      <trkpt lat="38.325660" lon="-1.349600">
        <ele>435.9</ele>
        <time>2011-04-02T12:04:33Z</time>
      </trkpt>
      <trkpt lat="38.325610" lon="-1.349690">
        <ele>436.8</ele>
        <time>2011-04-02T12:04:43Z</time>
      </trkpt>
      <trkpt lat="38.325420" lon="-1.349990">
        <ele>438.6</ele>
        <time>2011-04-02T12:05:01Z</time>
      </trkpt>
      <trkpt lat="38.325180" lon="-1.350310">
        <ele>440.7</ele>
        <time>2011-04-02T12:05:22Z</time>
      </trkpt>
      <trkpt lat="38.324970" lon="-1.350590">
        <ele>440.7</ele>
        <time>2011-04-02T12:05:42Z</time>
      </trkpt>
      <trkpt lat="38.324750" lon="-1.350890">
        <ele>438.9</ele>
        <time>2011-04-02T12:06:03Z</time>
      </trkpt>
      <trkpt lat="38.324520" lon="-1.351170">
        <ele>438.0</ele>
        <time>2011-04-02T12:06:25Z</time>
      </trkpt>
      <trkpt lat="38.324300" lon="-1.351450">
        <ele>437.4</ele>
        <time>2011-04-02T12:06:46Z</time>
      </trkpt>
      <trkpt lat="38.324110" lon="-1.351680">
        <ele>436.8</ele>
        <time>2011-04-02T12:07:02Z</time>
      </trkpt>
      <trkpt lat="38.323900" lon="-1.351940">
        <ele>436.5</ele>
        <time>2011-04-02T12:07:22Z</time>
      </trkpt>
      <trkpt lat="38.323720" lon="-1.352200">
        <ele>435.6</ele>
        <time>2011-04-02T12:07:39Z</time>
      </trkpt>
      <trkpt lat="38.323510" lon="-1.352430">
        <ele>435.6</ele>
        <time>2011-04-02T12:07:58Z</time>
      </trkpt>
      <trkpt lat="38.323340" lon="-1.352690">
        <ele>434.6</ele>
        <time>2011-04-02T12:08:15Z</time>
      </trkpt>
      <trkpt lat="38.323120" lon="-1.352970">
        <ele>431.6</ele>
        <time>2011-04-02T12:08:37Z</time>
      </trkpt>
      <trkpt lat="38.322890" lon="-1.353230">
        <ele>430.1</ele>
        <time>2011-04-02T12:08:59Z</time>
      </trkpt>
      <trkpt lat="38.322670" lon="-1.353510">
        <ele>427.9</ele>
        <time>2011-04-02T12:09:19Z</time>
      </trkpt>
      <trkpt lat="38.322460" lon="-1.353790">
        <ele>427.3</ele>
        <time>2011-04-02T12:09:39Z</time>
      </trkpt>
      <trkpt lat="38.322240" lon="-1.354040">
        <ele>425.2</ele>
        <time>2011-04-02T12:09:59Z</time>
      </trkpt>
      <trkpt lat="38.322050" lon="-1.354280">
        <ele>424.0</ele>
        <time>2011-04-02T12:10:19Z</time>
      </trkpt>
      <trkpt lat="38.321810" lon="-1.354560">
        <ele>425.8</ele>
        <time>2011-04-02T12:10:40Z</time>
      </trkpt>
      <trkpt lat="38.321640" lon="-1.354880">
        <ele>428.9</ele>
        <time>2011-04-02T12:11:00Z</time>
      </trkpt>
      <trkpt lat="38.321510" lon="-1.355220">
        <ele>427.3</ele>
        <time>2011-04-02T12:11:21Z</time>
      </trkpt>
      <trkpt lat="38.321490" lon="-1.355330">
        <ele>427.3</ele>
        <time>2011-04-02T12:11:36Z</time>
      </trkpt>
      <trkpt lat="38.321560" lon="-1.355370">
        <ele>427.0</ele>
        <time>2011-04-02T12:11:40Z</time>
      </trkpt>
      <trkpt lat="38.321730" lon="-1.355570">
        <ele>426.1</ele>
        <time>2011-04-02T12:11:58Z</time>
      </trkpt>
      <trkpt lat="38.321860" lon="-1.355890">
        <ele>425.8</ele>
        <time>2011-04-02T12:12:19Z</time>
      </trkpt>
      <trkpt lat="38.321960" lon="-1.356120">
        <ele>422.1</ele>
        <time>2011-04-02T12:12:34Z</time>
      </trkpt>
      <trkpt lat="38.322030" lon="-1.356170">
        <ele>422.1</ele>
        <time>2011-04-02T12:12:42Z</time>
      </trkpt>
      <trkpt lat="38.322090" lon="-1.356230">
        <ele>420.3</ele>
        <time>2011-04-02T12:12:48Z</time>
      </trkpt>
      <trkpt lat="38.322220" lon="-1.356470">
        <ele>419.4</ele>
        <time>2011-04-02T12:13:03Z</time>
      </trkpt>
      <trkpt lat="38.322270" lon="-1.356620">
        <ele>419.4</ele>
        <time>2011-04-02T12:13:11Z</time>
      </trkpt>
      <trkpt lat="38.322180" lon="-1.356940">
        <ele>418.2</ele>
        <time>2011-04-02T12:13:29Z</time>
      </trkpt>
      <trkpt lat="38.322140" lon="-1.357090">
        <ele>419.1</ele>
        <time>2011-04-02T12:13:41Z</time>
      </trkpt>
      <trkpt lat="38.322161" lon="-1.357155">
        <ele>418.8</ele>
        <time>2013-11-02T07:58:10Z</time>
      </trkpt>
      <trkpt lat="38.322185" lon="-1.357201">
        <ele>419.8</ele>
        <time>2013-11-02T07:58:14Z</time>
      </trkpt>
      <trkpt lat="38.322351" lon="-1.357382">
        <ele>421.2</ele>
        <time>2013-11-02T07:58:32Z</time>
      </trkpt>
      <trkpt lat="38.322397" lon="-1.357435">
        <ele>420.7</ele>
        <time>2013-11-02T07:58:37Z</time>
      </trkpt>
      <trkpt lat="38.322531" lon="-1.357595">
        <ele>421.2</ele>
        <time>2013-11-02T07:58:52Z</time>
      </trkpt>
      <trkpt lat="38.322556" lon="-1.357600">
        <ele>421.2</ele>
        <time>2013-11-02T07:59:03Z</time>
      </trkpt>
      <trkpt lat="38.322550" lon="-1.357604">
        <ele>421.2</ele>
        <time>2013-11-02T07:59:08Z</time>
      </trkpt>
      <trkpt lat="38.322696" lon="-1.357828">
        <ele>421.7</ele>
        <time>2013-11-02T07:59:23Z</time>
      </trkpt>
      <trkpt lat="38.322710" lon="-1.357849">
        <ele>421.2</ele>
        <time>2013-11-02T07:59:25Z</time>
      </trkpt>
      <trkpt lat="38.322753" lon="-1.357889">
        <ele>422.2</ele>
        <time>2013-11-02T07:59:29Z</time>
      </trkpt>
      <trkpt lat="38.322949" lon="-1.358083">
        <ele>421.7</ele>
        <time>2013-11-02T07:59:44Z</time>
      </trkpt>
      <trkpt lat="38.323006" lon="-1.358184">
        <ele>422.2</ele>
        <time>2013-11-02T07:59:55Z</time>
      </trkpt>
      <trkpt lat="38.323062" lon="-1.358233">
        <ele>422.2</ele>
        <time>2013-11-02T08:00:08Z</time>
      </trkpt>
      <trkpt lat="38.323062" lon="-1.358235">
        <ele>422.2</ele>
        <time>2013-11-02T08:00:09Z</time>
      </trkpt>
      <trkpt lat="38.323123" lon="-1.358329">
        <ele>422.6</ele>
        <time>2013-11-02T08:00:25Z</time>
      </trkpt>
      <trkpt lat="38.323245" lon="-1.358460">
        <ele>422.6</ele>
        <time>2013-11-02T08:00:38Z</time>
      </trkpt>
      <trkpt lat="38.323328" lon="-1.358556">
        <ele>423.1</ele>
        <time>2013-11-02T08:00:49Z</time>
      </trkpt>
      <trkpt lat="38.323581" lon="-1.358744">
        <ele>425.0</ele>
        <time>2013-11-02T08:01:08Z</time>
      </trkpt>
      <trkpt lat="38.323756" lon="-1.358872">
        <ele>425.5</ele>
        <time>2013-11-02T08:01:21Z</time>
      </trkpt>
      <trkpt lat="38.323823" lon="-1.358892">
        <ele>425.5</ele>
        <time>2013-11-02T08:01:26Z</time>
      </trkpt>
      <trkpt lat="38.324064" lon="-1.359030">
        <ele>426.0</ele>
        <time>2013-11-02T08:01:43Z</time>
      </trkpt>
      <trkpt lat="38.324092" lon="-1.359072">
        <ele>426.5</ele>
        <time>2013-11-02T08:01:46Z</time>
      </trkpt>
      <trkpt lat="38.324121" lon="-1.359098">
        <ele>426.0</ele>
        <time>2013-11-02T08:02:29Z</time>
      </trkpt>
      <trkpt lat="38.324196" lon="-1.359372">
        <ele>426.5</ele>
        <time>2013-11-02T08:02:43Z</time>
      </trkpt>
      <trkpt lat="38.324254" lon="-1.359696">
        <ele>427.0</ele>
        <time>2013-11-02T08:03:00Z</time>
      </trkpt>
      <trkpt lat="38.324344" lon="-1.359925">
        <ele>427.0</ele>
        <time>2013-11-02T08:03:14Z</time>
      </trkpt>
      <trkpt lat="38.324480" lon="-1.360286">
        <ele>427.4</ele>
        <time>2013-11-02T08:03:34Z</time>
      </trkpt>
      <trkpt lat="38.324558" lon="-1.360535">
        <ele>427.4</ele>
        <time>2013-11-02T08:03:48Z</time>
      </trkpt>
      <trkpt lat="38.324655" lon="-1.360790">
        <ele>428.4</ele>
        <time>2013-11-02T08:04:03Z</time>
      </trkpt>
      <trkpt lat="38.324712" lon="-1.360894">
        <ele>427.9</ele>
        <time>2013-11-02T08:04:17Z</time>
      </trkpt>
      <trkpt lat="38.324770" lon="-1.361075">
        <ele>428.9</ele>
        <time>2013-11-02T08:04:31Z</time>
      </trkpt>
      <trkpt lat="38.324786" lon="-1.361109">
        <ele>429.4</ele>
        <time>2013-11-02T08:04:33Z</time>
      </trkpt>
      <trkpt lat="38.324808" lon="-1.361223">
        <ele>429.4</ele>
        <time>2013-11-02T08:04:39Z</time>
      </trkpt>
      <trkpt lat="38.324952" lon="-1.361484">
        <ele>431.8</ele>
        <time>2013-11-02T08:04:56Z</time>
      </trkpt>
      <trkpt lat="38.324963" lon="-1.361518">
        <ele>432.2</ele>
        <time>2013-11-02T08:05:02Z</time>
      </trkpt>
      <trkpt lat="38.325071" lon="-1.361650">
        <ele>434.6</ele>
        <time>2013-11-02T08:05:13Z</time>
      </trkpt>
      <trkpt lat="38.325204" lon="-1.361792">
        <ele>437.1</ele>
        <time>2013-11-02T08:05:27Z</time>
      </trkpt>
      <trkpt lat="38.325213" lon="-1.361798">
        <ele>437.1</ele>
        <time>2013-11-02T08:05:28Z</time>
      </trkpt>
      <trkpt lat="38.325351" lon="-1.361850">
        <ele>440.4</ele>
        <time>2013-11-02T08:05:41Z</time>
      </trkpt>
      <trkpt lat="38.325362" lon="-1.361855">
        <ele>439.9</ele>
        <time>2013-11-02T08:05:42Z</time>
      </trkpt>
      <trkpt lat="38.325383" lon="-1.361873">
        <ele>440.4</ele>
        <time>2013-11-02T08:05:44Z</time>
      </trkpt>
      <trkpt lat="38.325442" lon="-1.361913">
        <ele>442.3</ele>
        <time>2013-11-02T08:05:49Z</time>
      </trkpt>
      <trkpt lat="38.325553" lon="-1.361988">
        <ele>444.8</ele>
        <time>2013-11-02T08:05:58Z</time>
      </trkpt>
      <trkpt lat="38.325614" lon="-1.362006">
        <ele>445.7</ele>
        <time>2013-11-02T08:06:04Z</time>
      </trkpt>
      <trkpt lat="38.325655" lon="-1.362044">
        <ele>445.2</ele>
        <time>2013-11-02T08:06:08Z</time>
      </trkpt>
      <trkpt lat="38.325738" lon="-1.362154">
        <ele>445.7</ele>
        <time>2013-11-02T08:06:21Z</time>
      </trkpt>
      <trkpt lat="38.325738" lon="-1.362151">
        <ele>446.2</ele>
        <time>2013-11-02T08:06:36Z</time>
      </trkpt>
      <trkpt lat="38.325830" lon="-1.362287">
        <ele>444.8</ele>
        <time>2013-11-02T08:06:51Z</time>
      </trkpt>
      <trkpt lat="38.325880" lon="-1.362354">
        <ele>443.8</ele>
        <time>2013-11-02T08:07:01Z</time>
      </trkpt>
      <trkpt lat="38.325920" lon="-1.362402">
        <ele>442.3</ele>
        <time>2013-11-02T08:07:05Z</time>
      </trkpt>
      <trkpt lat="38.325973" lon="-1.362450">
        <ele>440.4</ele>
        <time>2013-11-02T08:07:21Z</time>
      </trkpt>
      <trkpt lat="38.325978" lon="-1.362460">
        <ele>440.9</ele>
        <time>2013-11-02T08:07:23Z</time>
      </trkpt>
      <trkpt lat="38.326014" lon="-1.362537">
        <ele>439.5</ele>
        <time>2013-11-02T08:07:29Z</time>
      </trkpt>
      <trkpt lat="38.326179" lon="-1.362769">
        <ele>435.6</ele>
        <time>2013-11-02T08:07:46Z</time>
      </trkpt>
      <trkpt lat="38.326311" lon="-1.362966">
        <ele>433.7</ele>
        <time>2013-11-02T08:08:02Z</time>
      </trkpt>
      <trkpt lat="38.326428" lon="-1.363157">
        <ele>432.2</ele>
        <time>2013-11-02T08:08:15Z</time>
      </trkpt>
      <trkpt lat="38.326536" lon="-1.363279">
        <ele>430.8</ele>
        <time>2013-11-02T08:08:27Z</time>
      </trkpt>
      <trkpt lat="38.326574" lon="-1.363359">
        <ele>431.3</ele>
        <time>2013-11-02T08:08:33Z</time>
      </trkpt>
      <trkpt lat="38.326592" lon="-1.363373">
        <ele>431.8</ele>
        <time>2013-11-02T08:08:35Z</time>
      </trkpt>
      <trkpt lat="38.326612" lon="-1.363404">
        <ele>431.8</ele>
        <time>2013-11-02T08:08:38Z</time>
      </trkpt>
      <trkpt lat="38.326740" lon="-1.363572">
        <ele>433.2</ele>
        <time>2013-11-02T08:08:53Z</time>
      </trkpt>
      <trkpt lat="38.326869" lon="-1.363728">
        <ele>433.7</ele>
        <time>2013-11-02T08:09:07Z</time>
      </trkpt>
      <trkpt lat="38.326966" lon="-1.363847">
        <ele>434.6</ele>
        <time>2013-11-02T08:09:18Z</time>
      </trkpt>
      <trkpt lat="38.327005" lon="-1.363914">
        <ele>434.2</ele>
        <time>2013-11-02T08:09:23Z</time>
      </trkpt>
      <trkpt lat="38.327140" lon="-1.364075">
        <ele>434.6</ele>
        <time>2013-11-02T08:09:38Z</time>
      </trkpt>
      <trkpt lat="38.327248" lon="-1.364223">
        <ele>435.6</ele>
        <time>2013-11-02T08:09:52Z</time>
      </trkpt>
      <trkpt lat="38.327250" lon="-1.364231">
        <ele>436.1</ele>
        <time>2013-11-02T08:09:59Z</time>
      </trkpt>
      <trkpt lat="38.327415" lon="-1.364427">
        <ele>436.1</ele>
        <time>2013-11-02T08:10:15Z</time>
      </trkpt>
      <trkpt lat="38.327446" lon="-1.364470">
        <ele>436.6</ele>
        <time>2013-11-02T08:10:18Z</time>
      </trkpt>
      <trkpt lat="38.327601" lon="-1.364696">
        <ele>437.1</ele>
        <time>2013-11-02T08:10:36Z</time>
      </trkpt>
      <trkpt lat="38.327650" lon="-1.364738">
        <ele>437.1</ele>
        <time>2013-11-02T08:10:41Z</time>
      </trkpt>
      <trkpt lat="38.327727" lon="-1.364822">
        <ele>437.1</ele>
        <time>2013-11-02T08:10:48Z</time>
      </trkpt>
      <trkpt lat="38.327779" lon="-1.364877">
        <ele>437.5</ele>
        <time>2013-11-02T08:10:53Z</time>
      </trkpt>
      <trkpt lat="38.327912" lon="-1.365053">
        <ele>437.5</ele>
        <time>2013-11-02T08:11:09Z</time>
      </trkpt>
      <trkpt lat="38.327932" lon="-1.365065">
        <ele>438.0</ele>
        <time>2013-11-02T08:11:20Z</time>
      </trkpt>
      <trkpt lat="38.327955" lon="-1.365108">
        <ele>438.5</ele>
        <time>2013-11-02T08:11:24Z</time>
      </trkpt>
      <trkpt lat="38.328001" lon="-1.365175">
        <ele>439.9</ele>
        <time>2013-11-02T08:11:29Z</time>
      </trkpt>
      <trkpt lat="38.328107" lon="-1.365311">
        <ele>439.0</ele>
        <time>2013-11-02T08:11:43Z</time>
      </trkpt>
      <trkpt lat="38.328255" lon="-1.365507">
        <ele>439.0</ele>
        <time>2013-11-02T08:12:01Z</time>
      </trkpt>
      <trkpt lat="38.328375" lon="-1.365652">
        <ele>439.5</ele>
        <time>2013-11-02T08:12:15Z</time>
      </trkpt>
      <trkpt lat="38.328482" lon="-1.365811">
        <ele>439.5</ele>
        <time>2013-11-02T08:12:31Z</time>
      </trkpt>
      <trkpt lat="38.328590" lon="-1.365935">
        <ele>439.9</ele>
        <time>2013-11-02T08:12:46Z</time>
      </trkpt>
      <trkpt lat="38.328602" lon="-1.365957">
        <ele>439.9</ele>
        <time>2013-11-02T08:12:48Z</time>
      </trkpt>
      <trkpt lat="38.328717" lon="-1.366119">
        <ele>439.0</ele>
        <time>2013-11-02T08:13:05Z</time>
      </trkpt>
      <trkpt lat="38.328793" lon="-1.366227">
        <ele>439.0</ele>
        <time>2013-11-02T08:13:15Z</time>
      </trkpt>
      <trkpt lat="38.328834" lon="-1.366261">
        <ele>439.5</ele>
        <time>2013-11-02T08:13:19Z</time>
      </trkpt>
      <trkpt lat="38.328900" lon="-1.366344">
        <ele>439.9</ele>
        <time>2013-11-02T08:13:27Z</time>
      </trkpt>
      <trkpt lat="38.329034" lon="-1.366523">
        <ele>439.5</ele>
        <time>2013-11-02T08:13:43Z</time>
      </trkpt>
      <trkpt lat="38.329091" lon="-1.366610">
        <ele>439.9</ele>
        <time>2013-11-02T08:13:50Z</time>
      </trkpt>
      <trkpt lat="38.329154" lon="-1.366683">
        <ele>439.5</ele>
        <time>2013-11-02T08:13:57Z</time>
      </trkpt>
      <trkpt lat="38.329216" lon="-1.366745">
        <ele>439.9</ele>
        <time>2013-11-02T08:14:03Z</time>
      </trkpt>
      <trkpt lat="38.329256" lon="-1.366800">
        <ele>439.9</ele>
        <time>2013-11-02T08:14:08Z</time>
      </trkpt>
      <trkpt lat="38.329395" lon="-1.366995">
        <ele>440.4</ele>
        <time>2013-11-02T08:14:24Z</time>
      </trkpt>
      <trkpt lat="38.329441" lon="-1.367068">
        <ele>441.4</ele>
        <time>2013-11-02T08:14:31Z</time>
      </trkpt>
      <trkpt lat="38.329476" lon="-1.367114">
        <ele>441.4</ele>
        <time>2013-11-02T08:14:35Z</time>
      </trkpt>
      <trkpt lat="38.329616" lon="-1.367288">
        <ele>442.3</ele>
        <time>2013-11-02T08:14:51Z</time>
      </trkpt>
      <trkpt lat="38.329748" lon="-1.367461">
        <ele>442.8</ele>
        <time>2013-11-02T08:15:06Z</time>
      </trkpt>
      <trkpt lat="38.329893" lon="-1.367643">
        <ele>442.3</ele>
        <time>2013-11-02T08:15:22Z</time>
      </trkpt>
      <trkpt lat="38.330029" lon="-1.367832">
        <ele>441.9</ele>
        <time>2013-11-02T08:15:38Z</time>
      </trkpt>
      <trkpt lat="38.330176" lon="-1.368023">
        <ele>441.9</ele>
        <time>2013-11-02T08:15:55Z</time>
      </trkpt>
      <trkpt lat="38.330313" lon="-1.368206">
        <ele>442.3</ele>
        <time>2013-11-02T08:16:11Z</time>
      </trkpt>
      <trkpt lat="38.330343" lon="-1.368239">
        <ele>442.3</ele>
        <time>2013-11-02T08:16:14Z</time>
      </trkpt>
      <trkpt lat="38.330443" lon="-1.368382">
        <ele>443.3</ele>
        <time>2013-11-02T08:16:28Z</time>
      </trkpt>
      <trkpt lat="38.330568" lon="-1.368567">
        <ele>442.8</ele>
        <time>2013-11-02T08:16:43Z</time>
      </trkpt>
      <trkpt lat="38.330627" lon="-1.368634">
        <ele>442.8</ele>
        <time>2013-11-02T08:16:49Z</time>
      </trkpt>
      <trkpt lat="38.330683" lon="-1.368720">
        <ele>442.8</ele>
        <time>2013-11-02T08:16:56Z</time>
      </trkpt>
      <trkpt lat="38.330829" lon="-1.368909">
        <ele>442.8</ele>
        <time>2013-11-02T08:17:13Z</time>
      </trkpt>
      <trkpt lat="38.330986" lon="-1.369104">
        <ele>442.8</ele>
        <time>2013-11-02T08:17:30Z</time>
      </trkpt>
      <trkpt lat="38.331112" lon="-1.369304">
        <ele>441.9</ele>
        <time>2013-11-02T08:17:45Z</time>
      </trkpt>
      <trkpt lat="38.331153" lon="-1.369352">
        <ele>441.9</ele>
        <time>2013-11-02T08:17:50Z</time>
      </trkpt>
      <trkpt lat="38.331200" lon="-1.369424">
        <ele>441.4</ele>
        <time>2013-11-02T08:17:57Z</time>
      </trkpt>
      <trkpt lat="38.331238" lon="-1.369475">
        <ele>440.9</ele>
        <time>2013-11-02T08:18:02Z</time>
      </trkpt>
      <trkpt lat="38.331367" lon="-1.369649">
        <ele>439.5</ele>
        <time>2013-11-02T08:18:17Z</time>
      </trkpt>
      <trkpt lat="38.331513" lon="-1.369842">
        <ele>439.0</ele>
        <time>2013-11-02T08:18:33Z</time>
      </trkpt>
      <trkpt lat="38.331584" lon="-1.369919">
        <ele>439.9</ele>
        <time>2013-11-02T08:18:41Z</time>
      </trkpt>
      <trkpt lat="38.331613" lon="-1.369970">
        <ele>440.4</ele>
        <time>2013-11-02T08:18:45Z</time>
      </trkpt>
      <trkpt lat="38.331750" lon="-1.370157">
        <ele>440.4</ele>
        <time>2013-11-02T08:19:00Z</time>
      </trkpt>
      <trkpt lat="38.331783" lon="-1.370193">
        <ele>440.4</ele>
        <time>2013-11-02T08:19:04Z</time>
      </trkpt>
      <trkpt lat="38.331822" lon="-1.370249">
        <ele>441.4</ele>
        <time>2013-11-02T08:19:09Z</time>
      </trkpt>
      <trkpt lat="38.331920" lon="-1.370408">
        <ele>443.3</ele>
        <time>2013-11-02T08:19:23Z</time>
      </trkpt>
      <trkpt lat="38.332065" lon="-1.370628">
        <ele>443.3</ele>
        <time>2013-11-02T08:19:42Z</time>
      </trkpt>
      <trkpt lat="38.332162" lon="-1.370798">
        <ele>445.2</ele>
        <time>2013-11-02T08:19:56Z</time>
      </trkpt>
      <trkpt lat="38.332169" lon="-1.370808">
        <ele>444.3</ele>
        <time>2013-11-02T08:19:57Z</time>
      </trkpt>
      <trkpt lat="38.332212" lon="-1.370882">
        <ele>444.8</ele>
        <time>2013-11-02T08:20:03Z</time>
      </trkpt>
      <trkpt lat="38.332376" lon="-1.371103">
        <ele>445.2</ele>
        <time>2013-11-02T08:20:22Z</time>
      </trkpt>
      <trkpt lat="38.332513" lon="-1.371284">
        <ele>445.7</ele>
        <time>2013-11-02T08:20:37Z</time>
      </trkpt>
      <trkpt lat="38.332615" lon="-1.371432">
        <ele>447.1</ele>
        <time>2013-11-02T08:20:49Z</time>
      </trkpt>
      <trkpt lat="38.332656" lon="-1.371477">
        <ele>447.1</ele>
        <time>2013-11-02T08:20:53Z</time>
      </trkpt>
      <trkpt lat="38.332678" lon="-1.371494">
        <ele>447.6</ele>
        <time>2013-11-02T08:20:55Z</time>
      </trkpt>
      <trkpt lat="38.332705" lon="-1.371536">
        <ele>448.1</ele>
        <time>2013-11-02T08:20:59Z</time>
      </trkpt>
      <trkpt lat="38.332828" lon="-1.371748">
        <ele>448.1</ele>
        <time>2013-11-02T08:21:15Z</time>
      </trkpt>
      <trkpt lat="38.332907" lon="-1.371890">
        <ele>448.6</ele>
        <time>2013-11-02T08:21:26Z</time>
      </trkpt>
      <trkpt lat="38.333021" lon="-1.372063">
        <ele>448.6</ele>
        <time>2013-11-02T08:21:41Z</time>
      </trkpt>
      <trkpt lat="38.333117" lon="-1.372158">
        <ele>449.1</ele>
        <time>2013-11-02T08:21:55Z</time>
      </trkpt>
      <trkpt lat="38.333130" lon="-1.372137">
        <ele>449.1</ele>
        <time>2013-11-02T08:22:10Z</time>
      </trkpt>
      <trkpt lat="38.333153" lon="-1.372149">
        <ele>449.5</ele>
        <time>2013-11-02T08:22:25Z</time>
      </trkpt>
      <trkpt lat="38.333345" lon="-1.372375">
        <ele>450.0</ele>
        <time>2013-11-02T08:22:43Z</time>
      </trkpt>
      <trkpt lat="38.333530" lon="-1.372659">
        <ele>449.5</ele>
        <time>2013-11-02T08:23:03Z</time>
      </trkpt>
      <trkpt lat="38.333736" lon="-1.372935">
        <ele>449.5</ele>
        <time>2013-11-02T08:23:24Z</time>
      </trkpt>
      <trkpt lat="38.333928" lon="-1.373203">
        <ele>451.0</ele>
        <time>2013-11-02T08:23:44Z</time>
      </trkpt>
      <trkpt lat="38.333964" lon="-1.373264">
        <ele>452.0</ele>
        <time>2013-11-02T08:23:49Z</time>
      </trkpt>
      <trkpt lat="38.334019" lon="-1.373358">
        <ele>452.4</ele>
        <time>2013-11-02T08:23:56Z</time>
      </trkpt>
      <trkpt lat="38.334071" lon="-1.373420">
        <ele>452.4</ele>
        <time>2013-11-02T08:24:01Z</time>
      </trkpt>
      <trkpt lat="38.334223" lon="-1.373638">
        <ele>454.4</ele>
        <time>2013-11-02T08:24:18Z</time>
      </trkpt>
      <trkpt lat="38.334293" lon="-1.373744">
        <ele>454.8</ele>
        <time>2013-11-02T08:24:27Z</time>
      </trkpt>
      <trkpt lat="38.334364" lon="-1.373852">
        <ele>456.3</ele>
        <time>2013-11-02T08:24:36Z</time>
      </trkpt>
      <trkpt lat="38.334411" lon="-1.373910">
        <ele>456.3</ele>
        <time>2013-11-02T08:24:41Z</time>
      </trkpt>
      <trkpt lat="38.334449" lon="-1.373974">
        <ele>456.8</ele>
        <time>2013-11-02T08:24:46Z</time>
      </trkpt>
      <trkpt lat="38.334626" lon="-1.374189">
        <ele>457.2</ele>
        <time>2013-11-02T08:25:03Z</time>
      </trkpt>
      <trkpt lat="38.334740" lon="-1.374338">
        <ele>458.2</ele>
        <time>2013-11-02T08:25:17Z</time>
      </trkpt>
      <trkpt lat="38.334762" lon="-1.374313">
        <ele>458.2</ele>
        <time>2013-11-02T08:25:29Z</time>
      </trkpt>
      <trkpt lat="38.334769" lon="-1.374321">
        <ele>457.2</ele>
        <time>2013-11-02T08:25:42Z</time>
      </trkpt>
      <trkpt lat="38.334771" lon="-1.374347">
        <ele>458.7</ele>
        <time>2013-11-02T08:26:01Z</time>
      </trkpt>
      <trkpt lat="38.334850" lon="-1.374479">
        <ele>459.2</ele>
        <time>2013-11-02T08:26:12Z</time>
      </trkpt>
      <trkpt lat="38.334953" lon="-1.374628">
        <ele>459.6</ele>
        <time>2013-11-02T08:26:24Z</time>
      </trkpt>
      <trkpt lat="38.335052" lon="-1.374811">
        <ele>461.1</ele>
        <time>2013-11-02T08:26:38Z</time>
      </trkpt>
      <trkpt lat="38.335209" lon="-1.375005">
        <ele>461.6</ele>
        <time>2013-11-02T08:26:55Z</time>
      </trkpt>
      <trkpt lat="38.335316" lon="-1.375187">
        <ele>462.0</ele>
        <time>2013-11-02T08:27:08Z</time>
      </trkpt>
      <trkpt lat="38.335437" lon="-1.375357">
        <ele>463.5</ele>
        <time>2013-11-02T08:27:22Z</time>
      </trkpt>
      <trkpt lat="38.335571" lon="-1.375553">
        <ele>464.0</ele>
        <time>2013-11-02T08:27:37Z</time>
      </trkpt>
      <trkpt lat="38.335587" lon="-1.375580">
        <ele>464.0</ele>
        <time>2013-11-02T08:27:39Z</time>
      </trkpt>
      <trkpt lat="38.335662" lon="-1.375703">
        <ele>464.9</ele>
        <time>2013-11-02T08:27:49Z</time>
      </trkpt>
      <trkpt lat="38.335718" lon="-1.375773">
        <ele>464.9</ele>
        <time>2013-11-02T08:27:55Z</time>
      </trkpt>
      <trkpt lat="38.335865" lon="-1.375975">
        <ele>466.4</ele>
        <time>2013-11-02T08:28:12Z</time>
      </trkpt>
      <trkpt lat="38.335883" lon="-1.376005">
        <ele>466.4</ele>
        <time>2013-11-02T08:28:15Z</time>
      </trkpt>
      <trkpt lat="38.335944" lon="-1.376089">
        <ele>465.9</ele>
        <time>2013-11-02T08:28:24Z</time>
      </trkpt>
      <trkpt lat="38.335989" lon="-1.376155">
        <ele>466.9</ele>
        <time>2013-11-02T08:28:30Z</time>
      </trkpt>
      <trkpt lat="38.336057" lon="-1.376238">
        <ele>466.9</ele>
        <time>2013-11-02T08:28:38Z</time>
      </trkpt>
      <trkpt lat="38.336156" lon="-1.376352">
        <ele>467.8</ele>
        <time>2013-11-02T08:28:52Z</time>
      </trkpt>
      <trkpt lat="38.336161" lon="-1.376361">
        <ele>467.8</ele>
        <time>2013-11-02T08:28:53Z</time>
      </trkpt>
      <trkpt lat="38.336172" lon="-1.376379">
        <ele>467.8</ele>
        <time>2013-11-02T08:28:55Z</time>
      </trkpt>
      <trkpt lat="38.336268" lon="-1.376468">
        <ele>467.8</ele>
        <time>2013-11-02T08:29:05Z</time>
      </trkpt>
      <trkpt lat="38.336434" lon="-1.376634">
        <ele>467.8</ele>
        <time>2013-11-02T08:29:23Z</time>
      </trkpt>
      <trkpt lat="38.336568" lon="-1.376813">
        <ele>466.9</ele>
        <time>2013-11-02T08:29:39Z</time>
      </trkpt>
      <trkpt lat="38.336703" lon="-1.376982">
        <ele>467.3</ele>
        <time>2013-11-02T08:29:55Z</time>
      </trkpt>
      <trkpt lat="38.336716" lon="-1.377008">
        <ele>467.8</ele>
        <time>2013-11-02T08:29:57Z</time>
      </trkpt>
      <trkpt lat="38.336733" lon="-1.377033">
        <ele>467.8</ele>
        <time>2013-11-02T08:29:59Z</time>
      </trkpt>
      <trkpt lat="38.336764" lon="-1.377074">
        <ele>468.3</ele>
        <time>2013-11-02T08:30:03Z</time>
      </trkpt>
      <trkpt lat="38.336902" lon="-1.377279">
        <ele>469.3</ele>
        <time>2013-11-02T08:30:20Z</time>
      </trkpt>
      <trkpt lat="38.336943" lon="-1.377342">
        <ele>469.7</ele>
        <time>2013-11-02T08:30:25Z</time>
      </trkpt>
      <trkpt lat="38.336960" lon="-1.377358">
        <ele>470.2</ele>
        <time>2013-11-02T08:30:27Z</time>
      </trkpt>
      <trkpt lat="38.336999" lon="-1.377420">
        <ele>471.2</ele>
        <time>2013-11-02T08:30:33Z</time>
      </trkpt>
      <trkpt lat="38.337017" lon="-1.377440">
        <ele>471.2</ele>
        <time>2013-11-02T08:30:35Z</time>
      </trkpt>
      <trkpt lat="38.337027" lon="-1.377463">
        <ele>471.7</ele>
        <time>2013-11-02T08:30:37Z</time>
      </trkpt>
      <trkpt lat="38.337038" lon="-1.377477">
        <ele>471.2</ele>
        <time>2013-11-02T08:30:39Z</time>
      </trkpt>
      <trkpt lat="38.337045" lon="-1.377494">
        <ele>471.7</ele>
        <time>2013-11-02T08:30:41Z</time>
      </trkpt>
      <trkpt lat="38.337061" lon="-1.377509">
        <ele>472.1</ele>
        <time>2013-11-02T08:30:43Z</time>
      </trkpt>
      <trkpt lat="38.337088" lon="-1.377554">
        <ele>472.1</ele>
        <time>2013-11-02T08:30:47Z</time>
      </trkpt>
      <trkpt lat="38.337128" lon="-1.377642">
        <ele>473.1</ele>
        <time>2013-11-02T08:30:53Z</time>
      </trkpt>
      <trkpt lat="38.337165" lon="-1.377693">
        <ele>473.6</ele>
        <time>2013-11-02T08:30:57Z</time>
      </trkpt>
      <trkpt lat="38.337213" lon="-1.377741">
        <ele>474.5</ele>
        <time>2013-11-02T08:31:09Z</time>
      </trkpt>
      <trkpt lat="38.337217" lon="-1.377746">
        <ele>474.1</ele>
        <time>2013-11-02T08:31:23Z</time>
      </trkpt>
      <trkpt lat="38.337216" lon="-1.377739">
        <ele>474.5</ele>
        <time>2013-11-02T08:31:39Z</time>
      </trkpt>
      <trkpt lat="38.337249" lon="-1.377777">
        <ele>474.5</ele>
        <time>2013-11-02T08:31:56Z</time>
      </trkpt>
      <trkpt lat="38.337262" lon="-1.377808">
        <ele>475.0</ele>
        <time>2013-11-02T08:31:58Z</time>
      </trkpt>
      <trkpt lat="38.337302" lon="-1.377861">
        <ele>475.5</ele>
        <time>2013-11-02T08:32:03Z</time>
      </trkpt>
      <trkpt lat="38.337386" lon="-1.377988">
        <ele>476.0</ele>
        <time>2013-11-02T08:32:13Z</time>
      </trkpt>
      <trkpt lat="38.337421" lon="-1.378045">
        <ele>476.5</ele>
        <time>2013-11-02T08:32:18Z</time>
      </trkpt>
      <trkpt lat="38.337478" lon="-1.378111">
        <ele>476.5</ele>
        <time>2013-11-02T08:32:24Z</time>
      </trkpt>
      <trkpt lat="38.337616" lon="-1.378305">
        <ele>477.9</ele>
        <time>2013-11-02T08:32:40Z</time>
      </trkpt>
      <trkpt lat="38.337694" lon="-1.378416">
        <ele>478.4</ele>
        <time>2013-11-02T08:32:49Z</time>
      </trkpt>
      <trkpt lat="38.337854" lon="-1.378621">
        <ele>479.4</ele>
        <time>2013-11-02T08:33:06Z</time>
      </trkpt>
      <trkpt lat="38.337976" lon="-1.378784">
        <ele>478.9</ele>
        <time>2013-11-02T08:33:20Z</time>
      </trkpt>
      <trkpt lat="38.338056" lon="-1.378925">
        <ele>481.8</ele>
        <time>2013-11-02T08:33:31Z</time>
      </trkpt>
      <trkpt lat="38.338163" lon="-1.379121">
        <ele>482.2</ele>
        <time>2013-11-02T08:33:46Z</time>
      </trkpt>
      <trkpt lat="38.338281" lon="-1.379288">
        <ele>484.6</ele>
        <time>2013-11-02T08:34:00Z</time>
      </trkpt>
      <trkpt lat="38.338308" lon="-1.379318">
        <ele>485.1</ele>
        <time>2013-11-02T08:34:04Z</time>
      </trkpt>
      <trkpt lat="38.338430" lon="-1.379510">
        <ele>486.1</ele>
        <time>2013-11-02T08:34:19Z</time>
      </trkpt>
      <trkpt lat="38.338536" lon="-1.379679">
        <ele>488.5</ele>
        <time>2013-11-02T08:34:32Z</time>
      </trkpt>
      <trkpt lat="38.338666" lon="-1.379884">
        <ele>489.9</ele>
        <time>2013-11-02T08:34:48Z</time>
      </trkpt>
      <trkpt lat="38.338784" lon="-1.380032">
        <ele>491.4</ele>
        <time>2013-11-02T08:35:01Z</time>
      </trkpt>
      <trkpt lat="38.338926" lon="-1.380179">
        <ele>492.8</ele>
        <time>2013-11-02T08:35:15Z</time>
      </trkpt>
      <trkpt lat="38.339001" lon="-1.380274">
        <ele>492.8</ele>
        <time>2013-11-02T08:35:23Z</time>
      </trkpt>
      <trkpt lat="38.339026" lon="-1.380336">
        <ele>493.3</ele>
        <time>2013-11-02T08:35:27Z</time>
      </trkpt>
      <trkpt lat="38.339137" lon="-1.380526">
        <ele>495.2</ele>
        <time>2013-11-02T08:35:41Z</time>
      </trkpt>
      <trkpt lat="38.339240" lon="-1.380654">
        <ele>496.2</ele>
        <time>2013-11-02T08:35:52Z</time>
      </trkpt>
      <trkpt lat="38.339353" lon="-1.380789">
        <ele>496.7</ele>
        <time>2013-11-02T08:36:05Z</time>
      </trkpt>
      <trkpt lat="38.339362" lon="-1.380798">
        <ele>496.7</ele>
        <time>2013-11-02T08:36:06Z</time>
      </trkpt>
      <trkpt lat="38.339494" lon="-1.380977">
        <ele>497.6</ele>
        <time>2013-11-02T08:36:21Z</time>
      </trkpt>
      <trkpt lat="38.339603" lon="-1.381122">
        <ele>499.5</ele>
        <time>2013-11-02T08:36:33Z</time>
      </trkpt>
      <trkpt lat="38.339641" lon="-1.381156">
        <ele>499.1</ele>
        <time>2013-11-02T08:36:37Z</time>
      </trkpt>
      <trkpt lat="38.339709" lon="-1.381217">
        <ele>499.5</ele>
        <time>2013-11-02T08:36:44Z</time>
      </trkpt>
      <trkpt lat="38.339819" lon="-1.381326">
        <ele>499.5</ele>
        <time>2013-11-02T08:36:56Z</time>
      </trkpt>
      <trkpt lat="38.339851" lon="-1.381365">
        <ele>500.0</ele>
        <time>2013-11-02T08:37:00Z</time>
      </trkpt>
      <trkpt lat="38.339964" lon="-1.381524">
        <ele>501.5</ele>
        <time>2013-11-02T08:37:15Z</time>
      </trkpt>
      <trkpt lat="38.339975" lon="-1.381551">
        <ele>501.5</ele>
        <time>2013-11-02T08:37:17Z</time>
      </trkpt>
      <trkpt lat="38.340031" lon="-1.381616">
        <ele>502.4</ele>
        <time>2013-11-02T08:37:24Z</time>
      </trkpt>
      <trkpt lat="38.340115" lon="-1.381717">
        <ele>502.9</ele>
        <time>2013-11-02T08:37:34Z</time>
      </trkpt>
      <trkpt lat="38.340276" lon="-1.381836">
        <ele>504.4</ele>
        <time>2013-11-02T08:37:49Z</time>
      </trkpt>
      <trkpt lat="38.340324" lon="-1.381878">
        <ele>504.4</ele>
        <time>2013-11-02T08:37:54Z</time>
      </trkpt>
      <trkpt lat="38.340459" lon="-1.381982">
        <ele>504.8</ele>
        <time>2013-11-02T08:38:07Z</time>
      </trkpt>
      <trkpt lat="38.340487" lon="-1.382022">
        <ele>504.8</ele>
        <time>2013-11-02T08:38:11Z</time>
      </trkpt>
      <trkpt lat="38.340504" lon="-1.382037">
        <ele>504.8</ele>
        <time>2013-11-02T08:38:13Z</time>
      </trkpt>
      <trkpt lat="38.340519" lon="-1.382057">
        <ele>505.3</ele>
        <time>2013-11-02T08:38:15Z</time>
      </trkpt>
      <trkpt lat="38.340532" lon="-1.382077">
        <ele>506.3</ele>
        <time>2013-11-02T08:38:17Z</time>
      </trkpt>
      <trkpt lat="38.340534" lon="-1.382087">
        <ele>506.3</ele>
        <time>2013-11-02T08:38:18Z</time>
      </trkpt>
      <trkpt lat="38.340547" lon="-1.382094">
        <ele>506.3</ele>
        <time>2013-11-02T08:38:20Z</time>
      </trkpt>
      <trkpt lat="38.340557" lon="-1.382110">
        <ele>506.8</ele>
        <time>2013-11-02T08:38:22Z</time>
      </trkpt>
      <trkpt lat="38.340573" lon="-1.382125">
        <ele>507.2</ele>
        <time>2013-11-02T08:38:24Z</time>
      </trkpt>
      <trkpt lat="38.340659" lon="-1.382219">
        <ele>508.2</ele>
        <time>2013-11-02T08:38:36Z</time>
      </trkpt>
      <trkpt lat="38.340693" lon="-1.382262">
        <ele>509.6</ele>
        <time>2013-11-02T08:38:41Z</time>
      </trkpt>
      <trkpt lat="38.340724" lon="-1.382296">
        <ele>510.1</ele>
        <time>2013-11-02T08:38:45Z</time>
      </trkpt>
      <trkpt lat="38.340755" lon="-1.382319">
        <ele>510.6</ele>
        <time>2013-11-02T08:38:48Z</time>
      </trkpt>
      <trkpt lat="38.340770" lon="-1.382341">
        <ele>510.6</ele>
        <time>2013-11-02T08:38:50Z</time>
      </trkpt>
      <trkpt lat="38.340789" lon="-1.382350">
        <ele>510.1</ele>
        <time>2013-11-02T08:38:52Z</time>
      </trkpt>
      <trkpt lat="38.340803" lon="-1.382360">
        <ele>511.1</ele>
        <time>2013-11-02T08:38:54Z</time>
      </trkpt>
      <trkpt lat="38.340868" lon="-1.382394">
        <ele>511.6</ele>
        <time>2013-11-02T08:39:00Z</time>
      </trkpt>
      <trkpt lat="38.340882" lon="-1.382411">
        <ele>512.0</ele>
        <time>2013-11-02T08:39:02Z</time>
      </trkpt>
      <trkpt lat="38.340906" lon="-1.382429">
        <ele>512.5</ele>
        <time>2013-11-02T08:39:05Z</time>
      </trkpt>
      <trkpt lat="38.341005" lon="-1.382494">
        <ele>514.0</ele>
        <time>2013-11-02T08:39:16Z</time>
      </trkpt>
      <trkpt lat="38.341041" lon="-1.382506">
        <ele>513.5</ele>
        <time>2013-11-02T08:39:19Z</time>
      </trkpt>
      <trkpt lat="38.341051" lon="-1.382524">
        <ele>514.9</ele>
        <time>2013-11-02T08:39:21Z</time>
      </trkpt>
      <trkpt lat="38.341134" lon="-1.382577">
        <ele>514.9</ele>
        <time>2013-11-02T08:39:31Z</time>
      </trkpt>
      <trkpt lat="38.341142" lon="-1.382584">
        <ele>515.9</ele>
        <time>2013-11-02T08:39:32Z</time>
      </trkpt>
      <trkpt lat="38.341224" lon="-1.382674">
        <ele>517.3</ele>
        <time>2013-11-02T08:39:44Z</time>
      </trkpt>
      <trkpt lat="38.341237" lon="-1.382690">
        <ele>517.8</ele>
        <time>2013-11-02T08:39:46Z</time>
      </trkpt>
      <trkpt lat="38.341306" lon="-1.382757">
        <ele>518.8</ele>
        <time>2013-11-02T08:39:55Z</time>
      </trkpt>
      <trkpt lat="38.341325" lon="-1.382783">
        <ele>519.2</ele>
        <time>2013-11-02T08:39:59Z</time>
      </trkpt>
      <trkpt lat="38.341355" lon="-1.382809">
        <ele>519.7</ele>
        <time>2013-11-02T08:40:03Z</time>
      </trkpt>
      <trkpt lat="38.341369" lon="-1.382837">
        <ele>519.7</ele>
        <time>2013-11-02T08:40:10Z</time>
      </trkpt>
      <trkpt lat="38.341460" lon="-1.382934">
        <ele>521.2</ele>
        <time>2013-11-02T08:40:23Z</time>
      </trkpt>
      <trkpt lat="38.341501" lon="-1.382992">
        <ele>522.1</ele>
        <time>2013-11-02T08:40:30Z</time>
      </trkpt>
      <trkpt lat="38.341592" lon="-1.383098">
        <ele>522.6</ele>
        <time>2013-11-02T08:40:44Z</time>
      </trkpt>
      <trkpt lat="38.341603" lon="-1.383102">
        <ele>522.6</ele>
        <time>2013-11-02T08:40:45Z</time>
      </trkpt>
      <trkpt lat="38.341682" lon="-1.383090">
        <ele>523.6</ele>
        <time>2013-11-02T08:40:54Z</time>
      </trkpt>
      <trkpt lat="38.341735" lon="-1.383119">
        <ele>523.6</ele>
        <time>2013-11-02T08:41:06Z</time>
      </trkpt>
      <trkpt lat="38.341801" lon="-1.383131">
        <ele>523.1</ele>
        <time>2013-11-02T08:41:12Z</time>
      </trkpt>
      <trkpt lat="38.342013" lon="-1.383178">
        <ele>523.6</ele>
        <time>2013-11-02T08:41:29Z</time>
      </trkpt>
      <trkpt lat="38.342092" lon="-1.383193">
        <ele>523.6</ele>
        <time>2013-11-02T08:41:36Z</time>
      </trkpt>
      <trkpt lat="38.342112" lon="-1.383204">
        <ele>524.1</ele>
        <time>2013-11-02T08:41:38Z</time>
      </trkpt>
      <trkpt lat="38.342234" lon="-1.383248">
        <ele>524.5</ele>
        <time>2013-11-02T08:41:51Z</time>
      </trkpt>
      <trkpt lat="38.342316" lon="-1.383276">
        <ele>525.5</ele>
        <time>2013-11-02T08:42:01Z</time>
      </trkpt>
      <trkpt lat="38.342412" lon="-1.383303">
        <ele>526.0</ele>
        <time>2013-11-02T08:42:13Z</time>
      </trkpt>
      <trkpt lat="38.342489" lon="-1.383358">
        <ele>526.5</ele>
        <time>2013-11-02T08:42:23Z</time>
      </trkpt>
      <trkpt lat="38.342510" lon="-1.383366">
        <ele>526.9</ele>
        <time>2013-11-02T08:42:25Z</time>
      </trkpt>
      <trkpt lat="38.342526" lon="-1.383376">
        <ele>526.5</ele>
        <time>2013-11-02T08:42:27Z</time>
      </trkpt>
      <trkpt lat="38.342571" lon="-1.383381">
        <ele>526.5</ele>
        <time>2013-11-02T08:42:32Z</time>
      </trkpt>
      <trkpt lat="38.342638" lon="-1.383357">
        <ele>525.5</ele>
        <time>2013-11-02T08:42:38Z</time>
      </trkpt>
      <trkpt lat="38.342692" lon="-1.383329">
        <ele>525.0</ele>
        <time>2013-11-02T08:42:43Z</time>
      </trkpt>
      <trkpt lat="38.342737" lon="-1.383313">
        <ele>525.0</ele>
        <time>2013-11-02T08:42:47Z</time>
      </trkpt>
      <trkpt lat="38.342820" lon="-1.383332">
        <ele>525.5</ele>
        <time>2013-11-02T08:42:55Z</time>
      </trkpt>
      <trkpt lat="38.342848" lon="-1.383365">
        <ele>526.0</ele>
        <time>2013-11-02T08:42:59Z</time>
      </trkpt>
      <trkpt lat="38.342908" lon="-1.383412">
        <ele>525.0</ele>
        <time>2013-11-02T08:43:06Z</time>
      </trkpt>
      <trkpt lat="38.343007" lon="-1.383534">
        <ele>523.6</ele>
        <time>2013-11-02T08:43:21Z</time>
      </trkpt>
      <trkpt lat="38.343036" lon="-1.383572">
        <ele>524.1</ele>
        <time>2013-11-02T08:43:32Z</time>
      </trkpt>
      <trkpt lat="38.343122" lon="-1.383689">
        <ele>526.0</ele>
        <time>2013-11-02T08:43:41Z</time>
      </trkpt>
      <trkpt lat="38.343127" lon="-1.383701">
        <ele>526.0</ele>
        <time>2013-11-02T08:43:42Z</time>
      </trkpt>
      <trkpt lat="38.343162" lon="-1.383771">
        <ele>526.5</ele>
        <time>2013-11-02T08:43:48Z</time>
      </trkpt>
      <trkpt lat="38.343213" lon="-1.383892">
        <ele>526.0</ele>
        <time>2013-11-02T08:43:58Z</time>
      </trkpt>
      <trkpt lat="38.343221" lon="-1.383921">
        <ele>526.0</ele>
        <time>2013-11-02T08:44:00Z</time>
      </trkpt>
      <trkpt lat="38.343247" lon="-1.383970">
        <ele>526.9</ele>
        <time>2013-11-02T08:44:05Z</time>
      </trkpt>
      <trkpt lat="38.343285" lon="-1.384063">
        <ele>526.9</ele>
        <time>2013-11-02T08:44:15Z</time>
      </trkpt>
      <trkpt lat="38.343352" lon="-1.384211">
        <ele>527.9</ele>
        <time>2013-11-02T08:44:28Z</time>
      </trkpt>
      <trkpt lat="38.343341" lon="-1.384338">
        <ele>527.9</ele>
        <time>2013-11-02T08:44:40Z</time>
      </trkpt>
      <trkpt lat="38.343277" lon="-1.384421">
        <ele>528.4</ele>
        <time>2013-11-02T08:44:52Z</time>
      </trkpt>
      <trkpt lat="38.343208" lon="-1.384497">
        <ele>530.3</ele>
        <time>2013-11-02T08:45:04Z</time>
      </trkpt>
      <trkpt lat="38.343153" lon="-1.384538">
        <ele>531.3</ele>
        <time>2013-11-02T08:45:11Z</time>
      </trkpt>
      <trkpt lat="38.343145" lon="-1.384557">
        <ele>531.8</ele>
        <time>2013-11-02T08:45:13Z</time>
      </trkpt>
      <trkpt lat="38.343117" lon="-1.384591">
        <ele>532.2</ele>
        <time>2013-11-02T08:45:19Z</time>
      </trkpt>
      <trkpt lat="38.343079" lon="-1.384716">
        <ele>533.2</ele>
        <time>2013-11-02T08:45:29Z</time>
      </trkpt>
      <trkpt lat="38.343076" lon="-1.384869">
        <ele>533.7</ele>
        <time>2013-11-02T08:45:41Z</time>
      </trkpt>
      <trkpt lat="38.343076" lon="-1.384951">
        <ele>535.1</ele>
        <time>2013-11-02T08:45:51Z</time>
      </trkpt>
      <trkpt lat="38.343045" lon="-1.385044">
        <ele>537.5</ele>
        <time>2013-11-02T08:46:02Z</time>
      </trkpt>
      <trkpt lat="38.343056" lon="-1.385152">
        <ele>538.5</ele>
        <time>2013-11-02T08:46:11Z</time>
      </trkpt>
      <trkpt lat="38.343091" lon="-1.385311">
        <ele>540.4</ele>
        <time>2013-11-02T08:46:24Z</time>
      </trkpt>
      <trkpt lat="38.343117" lon="-1.385390">
        <ele>540.4</ele>
        <time>2013-11-02T08:46:30Z</time>
      </trkpt>
      <trkpt lat="38.343177" lon="-1.385492">
        <ele>541.4</ele>
        <time>2013-11-02T08:46:39Z</time>
      </trkpt>
      <trkpt lat="38.343217" lon="-1.385567">
        <ele>541.8</ele>
        <time>2013-11-02T08:46:47Z</time>
      </trkpt>
      <trkpt lat="38.343228" lon="-1.385602">
        <ele>542.3</ele>
        <time>2013-11-02T08:46:50Z</time>
      </trkpt>
      <trkpt lat="38.343237" lon="-1.385630">
        <ele>542.3</ele>
        <time>2013-11-02T08:46:53Z</time>
      </trkpt>
      <trkpt lat="38.343275" lon="-1.385789">
        <ele>543.8</ele>
        <time>2013-11-02T08:47:05Z</time>
      </trkpt>
      <trkpt lat="38.343318" lon="-1.385974">
        <ele>542.8</ele>
        <time>2013-11-02T08:47:19Z</time>
      </trkpt>
      <trkpt lat="38.343325" lon="-1.386021">
        <ele>543.3</ele>
        <time>2013-11-02T08:47:23Z</time>
      </trkpt>
      <trkpt lat="38.343375" lon="-1.386132">
        <ele>544.2</ele>
        <time>2013-11-02T08:47:35Z</time>
      </trkpt>
      <trkpt lat="38.343423" lon="-1.386230">
        <ele>545.7</ele>
        <time>2013-11-02T08:47:46Z</time>
      </trkpt>
      <trkpt lat="38.343449" lon="-1.386295">
        <ele>546.2</ele>
        <time>2013-11-02T08:47:52Z</time>
      </trkpt>
      <trkpt lat="38.343470" lon="-1.386339">
        <ele>547.6</ele>
        <time>2013-11-02T08:47:57Z</time>
      </trkpt>
      <trkpt lat="38.343492" lon="-1.386393">
        <ele>548.1</ele>
        <time>2013-11-02T08:48:02Z</time>
      </trkpt>
      <trkpt lat="38.343510" lon="-1.386523">
        <ele>550.0</ele>
        <time>2013-11-02T08:48:15Z</time>
      </trkpt>
      <trkpt lat="38.343519" lon="-1.386670">
        <ele>550.5</ele>
        <time>2013-11-02T08:48:27Z</time>
      </trkpt>
      <trkpt lat="38.343572" lon="-1.386810">
        <ele>551.5</ele>
        <time>2013-11-02T08:48:39Z</time>
      </trkpt>
      <trkpt lat="38.343579" lon="-1.386931">
        <ele>554.3</ele>
        <time>2013-11-02T08:48:54Z</time>
      </trkpt>
      <trkpt lat="38.343576" lon="-1.386941">
        <ele>554.3</ele>
        <time>2013-11-02T08:48:55Z</time>
      </trkpt>
      <trkpt lat="38.343570" lon="-1.386966">
        <ele>554.8</ele>
        <time>2013-11-02T08:48:57Z</time>
      </trkpt>
      <trkpt lat="38.343564" lon="-1.386991">
        <ele>554.8</ele>
        <time>2013-11-02T08:48:59Z</time>
      </trkpt>
      <trkpt lat="38.343551" lon="-1.387047">
        <ele>555.8</ele>
        <time>2013-11-02T08:49:04Z</time>
      </trkpt>
      <trkpt lat="38.343545" lon="-1.387069">
        <ele>556.3</ele>
        <time>2013-11-02T08:49:06Z</time>
      </trkpt>
      <trkpt lat="38.343533" lon="-1.387185">
        <ele>557.2</ele>
        <time>2013-11-02T08:49:16Z</time>
      </trkpt>
      <trkpt lat="38.343543" lon="-1.387252">
        <ele>557.2</ele>
        <time>2013-11-02T08:49:21Z</time>
      </trkpt>
      <trkpt lat="38.343588" lon="-1.387315">
        <ele>557.2</ele>
        <time>2013-11-02T08:49:27Z</time>
      </trkpt>
      <trkpt lat="38.343605" lon="-1.387617">
        <ele>559.1</ele>
        <time>2013-11-02T08:50:24Z</time>
      </trkpt>
      <trkpt lat="38.343575" lon="-1.387677">
        <ele>560.6</ele>
        <time>2013-11-02T08:50:36Z</time>
      </trkpt>
      <trkpt lat="38.343579" lon="-1.387815">
        <ele>560.1</ele>
        <time>2013-11-02T08:50:45Z</time>
      </trkpt>
      <trkpt lat="38.343636" lon="-1.387934">
        <ele>562.5</ele>
        <time>2013-11-02T08:50:56Z</time>
      </trkpt>
      <trkpt lat="38.343659" lon="-1.387950">
        <ele>564.0</ele>
        <time>2013-11-02T08:50:58Z</time>
      </trkpt>
      <trkpt lat="38.343719" lon="-1.388010">
        <ele>565.4</ele>
        <time>2013-11-02T08:51:04Z</time>
      </trkpt>
      <trkpt lat="38.343817" lon="-1.388104">
        <ele>568.3</ele>
        <time>2013-11-02T08:51:14Z</time>
      </trkpt>
      <trkpt lat="38.343831" lon="-1.388160">
        <ele>569.2</ele>
        <time>2013-11-02T08:51:19Z</time>
      </trkpt>
      <trkpt lat="38.343819" lon="-1.388194">
        <ele>570.2</ele>
        <time>2013-11-02T08:51:33Z</time>
      </trkpt>
      <trkpt lat="38.343911" lon="-1.388332">
        <ele>570.7</ele>
        <time>2013-11-02T08:51:47Z</time>
      </trkpt>
      <trkpt lat="38.343931" lon="-1.388327">
        <ele>572.6</ele>
        <time>2013-11-02T08:51:56Z</time>
      </trkpt>
      <trkpt lat="38.344036" lon="-1.388461">
        <ele>573.1</ele>
        <time>2013-11-02T08:52:09Z</time>
      </trkpt>
      <trkpt lat="38.344072" lon="-1.388465">
        <ele>574.5</ele>
        <time>2013-11-02T08:52:22Z</time>
      </trkpt>
      <trkpt lat="38.344122" lon="-1.388475">
        <ele>575.0</ele>
        <time>2013-11-02T08:52:37Z</time>
      </trkpt>
      <trkpt lat="38.344221" lon="-1.388485">
        <ele>575.5</ele>
        <time>2013-11-02T08:52:48Z</time>
      </trkpt>
      <trkpt lat="38.344276" lon="-1.388500">
        <ele>576.0</ele>
        <time>2013-11-02T08:52:59Z</time>
      </trkpt>
      <trkpt lat="38.344286" lon="-1.388506">
        <ele>575.5</ele>
        <time>2013-11-02T08:53:07Z</time>
      </trkpt>
      <trkpt lat="38.344335" lon="-1.388576">
        <ele>576.9</ele>
        <time>2013-11-02T08:53:14Z</time>
      </trkpt>
      <trkpt lat="38.344407" lon="-1.388599">
        <ele>579.8</ele>
        <time>2013-11-02T08:53:21Z</time>
      </trkpt>
      <trkpt lat="38.344454" lon="-1.388595">
        <ele>581.2</ele>
        <time>2013-11-02T08:53:34Z</time>
      </trkpt>
      <trkpt lat="38.344505" lon="-1.388615">
        <ele>582.2</ele>
        <time>2013-11-02T08:53:49Z</time>
      </trkpt>
      <trkpt lat="38.344519" lon="-1.388624">
        <ele>582.7</ele>
        <time>2013-11-02T08:53:51Z</time>
      </trkpt>
      <trkpt lat="38.344550" lon="-1.388673">
        <ele>583.7</ele>
        <time>2013-11-02T08:53:55Z</time>
      </trkpt>
      <trkpt lat="38.344672" lon="-1.388822">
        <ele>585.1</ele>
        <time>2013-11-02T08:54:10Z</time>
      </trkpt>
      <trkpt lat="38.344688" lon="-1.388846">
        <ele>585.6</ele>
        <time>2013-11-02T08:54:12Z</time>
      </trkpt>
      <trkpt lat="38.344720" lon="-1.388860">
        <ele>587.5</ele>
        <time>2013-11-02T08:54:24Z</time>
      </trkpt>
      <trkpt lat="38.344715" lon="-1.388899">
        <ele>587.5</ele>
        <time>2013-11-02T08:54:41Z</time>
      </trkpt>
      <trkpt lat="38.344784" lon="-1.389007">
        <ele>589.9</ele>
        <time>2013-11-02T08:54:50Z</time>
      </trkpt>
      <trkpt lat="38.344864" lon="-1.389145">
        <ele>590.9</ele>
        <time>2013-11-02T08:55:05Z</time>
      </trkpt>
      <trkpt lat="38.344887" lon="-1.389190">
        <ele>592.8</ele>
        <time>2013-11-02T08:55:38Z</time>
      </trkpt>
      <trkpt lat="38.344924" lon="-1.389219">
        <ele>590.9</ele>
        <time>2013-11-02T08:55:42Z</time>
      </trkpt>
      <trkpt lat="38.345029" lon="-1.389408">
        <ele>594.7</ele>
        <time>2013-11-02T08:55:57Z</time>
      </trkpt>
      <trkpt lat="38.345107" lon="-1.389515">
        <ele>597.6</ele>
        <time>2013-11-02T08:56:08Z</time>
      </trkpt>
      <trkpt lat="38.345170" lon="-1.389595">
        <ele>599.0</ele>
        <time>2013-11-02T08:56:16Z</time>
      </trkpt>
      <trkpt lat="38.345203" lon="-1.389613">
        <ele>600.0</ele>
        <time>2013-11-02T08:56:20Z</time>
      </trkpt>
      <trkpt lat="38.345241" lon="-1.389694">
        <ele>601.4</ele>
        <time>2013-11-02T08:56:33Z</time>
      </trkpt>
      <trkpt lat="38.345260" lon="-1.389727">
        <ele>601.9</ele>
        <time>2013-11-02T08:56:47Z</time>
      </trkpt>
      <trkpt lat="38.345280" lon="-1.389807">
        <ele>604.3</ele>
        <time>2013-11-02T08:56:59Z</time>
      </trkpt>
      <trkpt lat="38.345289" lon="-1.389819">
        <ele>603.8</ele>
        <time>2013-11-02T08:57:07Z</time>
      </trkpt>
      <trkpt lat="38.345313" lon="-1.389866">
        <ele>604.3</ele>
        <time>2013-11-02T08:57:11Z</time>
      </trkpt>
      <trkpt lat="38.345335" lon="-1.389898">
        <ele>605.3</ele>
        <time>2013-11-02T08:57:14Z</time>
      </trkpt>
      <trkpt lat="38.345451" lon="-1.390005">
        <ele>607.7</ele>
        <time>2013-11-02T08:57:28Z</time>
      </trkpt>
      <trkpt lat="38.345499" lon="-1.390128">
        <ele>610.1</ele>
        <time>2013-11-02T08:57:39Z</time>
      </trkpt>
      <trkpt lat="38.345523" lon="-1.390166">
        <ele>611.5</ele>
        <time>2013-11-02T08:57:43Z</time>
      </trkpt>
      <trkpt lat="38.345534" lon="-1.390191">
        <ele>612.5</ele>
        <time>2013-11-02T08:57:55Z</time>
      </trkpt>
      <trkpt lat="38.345599" lon="-1.390254">
        <ele>613.0</ele>
        <time>2013-11-02T08:58:09Z</time>
      </trkpt>
      <trkpt lat="38.345675" lon="-1.390304">
        <ele>615.4</ele>
        <time>2013-11-02T08:58:20Z</time>
      </trkpt>
      <trkpt lat="38.345694" lon="-1.390335">
        <ele>616.3</ele>
        <time>2013-11-02T08:58:24Z</time>
      </trkpt>
      <trkpt lat="38.345708" lon="-1.390354">
        <ele>617.8</ele>
        <time>2013-11-02T08:58:26Z</time>
      </trkpt>
      <trkpt lat="38.345764" lon="-1.390428">
        <ele>619.7</ele>
        <time>2013-11-02T08:58:39Z</time>
      </trkpt>
      <trkpt lat="38.345825" lon="-1.390436">
        <ele>621.2</ele>
        <time>2013-11-02T08:58:49Z</time>
      </trkpt>
      <trkpt lat="38.345884" lon="-1.390529">
        <ele>623.5</ele>
        <time>2013-11-02T08:59:16Z</time>
      </trkpt>
      <trkpt lat="38.345965" lon="-1.390629">
        <ele>625.0</ele>
        <time>2013-11-02T08:59:27Z</time>
      </trkpt>
      <trkpt lat="38.346013" lon="-1.390666">
        <ele>626.4</ele>
        <time>2013-11-02T08:59:39Z</time>
      </trkpt>
      <trkpt lat="38.346078" lon="-1.390702">
        <ele>626.9</ele>
        <time>2013-11-02T08:59:51Z</time>
      </trkpt>
      <trkpt lat="38.346097" lon="-1.390713">
        <ele>627.9</ele>
        <time>2013-11-02T08:59:53Z</time>
      </trkpt>
      <trkpt lat="38.346216" lon="-1.390785">
        <ele>630.8</ele>
        <time>2013-11-02T09:00:06Z</time>
      </trkpt>
      <trkpt lat="38.346266" lon="-1.390770">
        <ele>631.2</ele>
        <time>2013-11-02T09:01:06Z</time>
      </trkpt>
      <trkpt lat="38.346271" lon="-1.390752">
        <ele>630.8</ele>
        <time>2013-11-02T09:01:46Z</time>
      </trkpt>
      <trkpt lat="38.346276" lon="-1.390763">
        <ele>631.2</ele>
        <time>2013-11-02T09:02:14Z</time>
      </trkpt>
      <trkpt lat="38.346315" lon="-1.390810">
        <ele>630.3</ele>
        <time>2013-11-02T09:02:25Z</time>
      </trkpt>
      <trkpt lat="38.346311" lon="-1.390839">
        <ele>629.8</ele>
        <time>2013-11-02T09:02:42Z</time>
      </trkpt>
      <trkpt lat="38.346322" lon="-1.390897">
        <ele>627.4</ele>
        <time>2013-11-02T09:02:50Z</time>
      </trkpt>
      <trkpt lat="38.346335" lon="-1.390880">
        <ele>623.1</ele>
        <time>2013-11-02T09:03:20Z</time>
      </trkpt>
      <trkpt lat="38.346345" lon="-1.390843">
        <ele>620.7</ele>
        <time>2013-11-02T09:03:31Z</time>
      </trkpt>
      <trkpt lat="38.346402" lon="-1.390826">
        <ele>618.3</ele>
        <time>2013-11-02T09:03:42Z</time>
      </trkpt>
      <trkpt lat="38.346424" lon="-1.390814">
        <ele>616.3</ele>
        <time>2013-11-02T09:03:55Z</time>
      </trkpt>
      <trkpt lat="38.346444" lon="-1.390809">
        <ele>614.9</ele>
        <time>2013-11-02T09:04:07Z</time>
      </trkpt>
      <trkpt lat="38.346450" lon="-1.390827">
        <ele>613.0</ele>
        <time>2013-11-02T09:04:20Z</time>
      </trkpt>
      <trkpt lat="38.346494" lon="-1.390854">
        <ele>612.0</ele>
        <time>2013-11-02T09:04:32Z</time>
      </trkpt>
      <trkpt lat="38.346521" lon="-1.390869">
        <ele>611.1</ele>
        <time>2013-11-02T09:04:44Z</time>
      </trkpt>
      <trkpt lat="38.346556" lon="-1.390858">
        <ele>608.7</ele>
        <time>2013-11-02T09:04:55Z</time>
      </trkpt>
      <trkpt lat="38.346589" lon="-1.390881">
        <ele>601.9</ele>
        <time>2013-11-02T09:06:53Z</time>
      </trkpt>
      <trkpt lat="38.346599" lon="-1.390912">
        <ele>600.5</ele>
        <time>2013-11-02T09:07:07Z</time>
      </trkpt>
      <trkpt lat="38.346637" lon="-1.390928">
        <ele>599.5</ele>
        <time>2013-11-02T09:07:17Z</time>
      </trkpt>
      <trkpt lat="38.346680" lon="-1.390956">
        <ele>598.1</ele>
        <time>2013-11-02T09:07:29Z</time>
      </trkpt>
      <trkpt lat="38.346678" lon="-1.390977">
        <ele>596.6</ele>
        <time>2013-11-02T09:07:42Z</time>
      </trkpt>
      <trkpt lat="38.346667" lon="-1.390994">
        <ele>595.7</ele>
        <time>2013-11-02T09:07:48Z</time>
      </trkpt>
      <trkpt lat="38.346671" lon="-1.391030">
        <ele>594.7</ele>
        <time>2013-11-02T09:07:58Z</time>
      </trkpt>
      <trkpt lat="38.346609" lon="-1.391152">
        <ele>595.7</ele>
        <time>2013-11-02T09:09:08Z</time>
      </trkpt>
      <trkpt lat="38.346641" lon="-1.391240">
        <ele>596.6</ele>
        <time>2013-11-02T09:11:16Z</time>
      </trkpt>
      <trkpt lat="38.346604" lon="-1.391320">
        <ele>598.1</ele>
        <time>2013-11-02T09:11:29Z</time>
      </trkpt>
      <trkpt lat="38.346548" lon="-1.391387">
        <ele>598.6</ele>
        <time>2013-11-02T09:11:41Z</time>
      </trkpt>
      <trkpt lat="38.346508" lon="-1.391370">
        <ele>598.6</ele>
        <time>2013-11-02T09:11:56Z</time>
      </trkpt>
      <trkpt lat="38.346519" lon="-1.391442">
        <ele>598.1</ele>
        <time>2013-11-02T09:12:13Z</time>
      </trkpt>
      <trkpt lat="38.346533" lon="-1.391437">
        <ele>598.6</ele>
        <time>2013-11-02T09:12:23Z</time>
      </trkpt>
      <trkpt lat="38.346537" lon="-1.391437">
        <ele>598.6</ele>
        <time>2013-11-02T09:12:36Z</time>
      </trkpt>
      <trkpt lat="38.346536" lon="-1.391504">
        <ele>596.6</ele>
        <time>2013-11-02T09:12:49Z</time>
      </trkpt>
      <trkpt lat="38.346547" lon="-1.391563">
        <ele>595.7</ele>
        <time>2013-11-02T09:13:00Z</time>
      </trkpt>
      <trkpt lat="38.346540" lon="-1.391599">
        <ele>595.7</ele>
        <time>2013-11-02T09:13:13Z</time>
      </trkpt>
      <trkpt lat="38.346584" lon="-1.391625">
        <ele>596.6</ele>
        <time>2013-11-02T09:13:33Z</time>
      </trkpt>
      <trkpt lat="38.346658" lon="-1.391680">
        <ele>595.2</ele>
        <time>2013-11-02T09:13:45Z</time>
      </trkpt>
      <trkpt lat="38.346737" lon="-1.391724">
        <ele>594.7</ele>
        <time>2013-11-02T09:13:57Z</time>
      </trkpt>
      <trkpt lat="38.346679" lon="-1.391770">
        <ele>595.2</ele>
        <time>2013-11-02T09:14:11Z</time>
      </trkpt>
      <trkpt lat="38.346642" lon="-1.391838">
        <ele>594.2</ele>
        <time>2013-11-02T09:14:19Z</time>
      </trkpt>
      <trkpt lat="38.346614" lon="-1.391876">
        <ele>594.7</ele>
        <time>2013-11-02T09:14:32Z</time>
      </trkpt>
      <trkpt lat="38.346615" lon="-1.391898">
        <ele>594.2</ele>
        <time>2013-11-02T09:14:41Z</time>
      </trkpt>
      <trkpt lat="38.346598" lon="-1.391933">
        <ele>591.3</ele>
        <time>2013-11-02T09:14:48Z</time>
      </trkpt>
      <trkpt lat="38.346606" lon="-1.391945">
        <ele>592.3</ele>
        <time>2013-11-02T09:14:52Z</time>
      </trkpt>
      <trkpt lat="38.346593" lon="-1.391978">
        <ele>591.3</ele>
        <time>2013-11-02T09:15:02Z</time>
      </trkpt>
      <trkpt lat="38.346587" lon="-1.392035">
        <ele>587.5</ele>
        <time>2013-11-02T09:15:10Z</time>
      </trkpt>
      <trkpt lat="38.346589" lon="-1.392033">
        <ele>595.2</ele>
        <time>2013-11-02T09:15:11Z</time>
      </trkpt>
      <trkpt lat="38.346624" lon="-1.392055">
        <ele>593.8</ele>
        <time>2013-11-02T09:15:24Z</time>
      </trkpt>
      <trkpt lat="38.346632" lon="-1.392080">
        <ele>592.8</ele>
        <time>2013-11-02T09:15:26Z</time>
      </trkpt>
      <trkpt lat="38.346611" lon="-1.392213">
        <ele>591.3</ele>
        <time>2013-11-02T09:15:39Z</time>
      </trkpt>
      <trkpt lat="38.346566" lon="-1.392268">
        <ele>589.9</ele>
        <time>2013-11-02T09:15:53Z</time>
      </trkpt>
      <trkpt lat="38.346568" lon="-1.392325">
        <ele>589.0</ele>
        <time>2013-11-02T09:15:57Z</time>
      </trkpt>
      <trkpt lat="38.346613" lon="-1.392408">
        <ele>586.5</ele>
        <time>2013-11-02T09:16:09Z</time>
      </trkpt>
      <trkpt lat="38.346634" lon="-1.392431">
        <ele>585.1</ele>
        <time>2013-11-02T09:16:21Z</time>
      </trkpt>
      <trkpt lat="38.346677" lon="-1.392502">
        <ele>582.7</ele>
        <time>2013-11-02T09:16:34Z</time>
      </trkpt>
      <trkpt lat="38.346703" lon="-1.392554">
        <ele>580.8</ele>
        <time>2013-11-02T09:16:48Z</time>
      </trkpt>
      <trkpt lat="38.346676" lon="-1.392587">
        <ele>579.8</ele>
        <time>2013-11-02T09:17:04Z</time>
      </trkpt>
      <trkpt lat="38.346704" lon="-1.392613">
        <ele>578.4</ele>
        <time>2013-11-02T09:17:16Z</time>
      </trkpt>
      <trkpt lat="38.346736" lon="-1.392679">
        <ele>576.0</ele>
        <time>2013-11-02T09:17:30Z</time>
      </trkpt>
      <trkpt lat="38.346798" lon="-1.392789">
        <ele>573.1</ele>
        <time>2013-11-02T09:17:43Z</time>
      </trkpt>
      <trkpt lat="38.346815" lon="-1.392834">
        <ele>571.6</ele>
        <time>2013-11-02T09:17:56Z</time>
      </trkpt>
      <trkpt lat="38.346827" lon="-1.392881">
        <ele>569.7</ele>
        <time>2013-11-02T09:18:07Z</time>
      </trkpt>
      <trkpt lat="38.346853" lon="-1.392936">
        <ele>567.8</ele>
        <time>2013-11-02T09:18:20Z</time>
      </trkpt>
      <trkpt lat="38.346854" lon="-1.392985">
        <ele>566.3</ele>
        <time>2013-11-02T09:18:31Z</time>
      </trkpt>
      <trkpt lat="38.346881" lon="-1.393017">
        <ele>562.0</ele>
        <time>2013-11-02T09:18:40Z</time>
      </trkpt>
      <trkpt lat="38.346878" lon="-1.393026">
        <ele>563.5</ele>
        <time>2013-11-02T09:18:41Z</time>
      </trkpt>
      <trkpt lat="38.346828" lon="-1.393172">
        <ele>563.5</ele>
        <time>2013-11-02T09:18:55Z</time>
      </trkpt>
      <trkpt lat="38.346819" lon="-1.393216">
        <ele>564.0</ele>
        <time>2013-11-02T09:18:59Z</time>
      </trkpt>
      <trkpt lat="38.346807" lon="-1.393239">
        <ele>562.5</ele>
        <time>2013-11-02T09:19:01Z</time>
      </trkpt>
      <trkpt lat="38.346796" lon="-1.393295">
        <ele>560.6</ele>
        <time>2013-11-02T09:19:13Z</time>
      </trkpt>
      <trkpt lat="38.346806" lon="-1.393347">
        <ele>559.1</ele>
        <time>2013-11-02T09:19:27Z</time>
      </trkpt>
      <trkpt lat="38.346865" lon="-1.393388">
        <ele>557.2</ele>
        <time>2013-11-02T09:21:45Z</time>
      </trkpt>
      <trkpt lat="38.346899" lon="-1.393439">
        <ele>557.2</ele>
        <time>2013-11-02T09:22:12Z</time>
      </trkpt>
      <trkpt lat="38.346906" lon="-1.393481">
        <ele>554.8</ele>
        <time>2013-11-02T09:22:46Z</time>
      </trkpt>
      <trkpt lat="38.346917" lon="-1.393521">
        <ele>553.4</ele>
        <time>2013-11-02T09:24:20Z</time>
      </trkpt>
      <trkpt lat="38.346925" lon="-1.393573">
        <ele>552.9</ele>
        <time>2013-11-02T09:24:27Z</time>
      </trkpt>
      <trkpt lat="38.346940" lon="-1.393599">
        <ele>551.9</ele>
        <time>2013-11-02T09:24:39Z</time>
      </trkpt>
      <trkpt lat="38.346947" lon="-1.393680">
        <ele>550.5</ele>
        <time>2013-11-02T09:24:54Z</time>
      </trkpt>
      <trkpt lat="38.346941" lon="-1.393712">
        <ele>550.5</ele>
        <time>2013-11-02T09:25:09Z</time>
      </trkpt>
      <trkpt lat="38.346952" lon="-1.393796">
        <ele>549.5</ele>
        <time>2013-11-02T09:25:21Z</time>
      </trkpt>
      <trkpt lat="38.346973" lon="-1.393855">
        <ele>547.1</ele>
        <time>2013-11-02T09:25:36Z</time>
      </trkpt>
      <trkpt lat="38.346964" lon="-1.393915">
        <ele>544.7</ele>
        <time>2013-11-02T09:25:53Z</time>
      </trkpt>
      <trkpt lat="38.347013" lon="-1.393952">
        <ele>544.2</ele>
        <time>2013-11-02T09:26:06Z</time>
      </trkpt>
      <trkpt lat="38.347118" lon="-1.394004">
        <ele>541.4</ele>
        <time>2013-11-02T09:26:22Z</time>
      </trkpt>
      <trkpt lat="38.347134" lon="-1.393987">
        <ele>541.4</ele>
        <time>2013-11-02T09:26:35Z</time>
      </trkpt>
      <trkpt lat="38.347139" lon="-1.394006">
        <ele>539.0</ele>
        <time>2013-11-02T09:26:54Z</time>
      </trkpt>
      <trkpt lat="38.347157" lon="-1.394077">
        <ele>536.1</ele>
        <time>2013-11-02T09:27:04Z</time>
      </trkpt>
      <trkpt lat="38.347190" lon="-1.394123">
        <ele>533.7</ele>
        <time>2013-11-02T09:27:12Z</time>
      </trkpt>
      <trkpt lat="38.347213" lon="-1.394176">
        <ele>532.7</ele>
        <time>2013-11-02T09:27:26Z</time>
      </trkpt>
      <trkpt lat="38.347240" lon="-1.394202">
        <ele>530.8</ele>
        <time>2013-11-02T09:27:31Z</time>
      </trkpt>
      <trkpt lat="38.347286" lon="-1.394245">
        <ele>528.4</ele>
        <time>2013-11-02T09:27:42Z</time>
      </trkpt>
      <trkpt lat="38.347363" lon="-1.394309">
        <ele>526.0</ele>
        <time>2013-11-02T09:27:54Z</time>
      </trkpt>
      <trkpt lat="38.347387" lon="-1.394324">
        <ele>524.5</ele>
        <time>2013-11-02T09:28:08Z</time>
      </trkpt>
      <trkpt lat="38.347422" lon="-1.394333">
        <ele>524.1</ele>
        <time>2013-11-02T09:28:14Z</time>
      </trkpt>
      <trkpt lat="38.347441" lon="-1.394381">
        <ele>521.7</ele>
        <time>2013-11-02T09:28:24Z</time>
      </trkpt>
      <trkpt lat="38.347517" lon="-1.394427">
        <ele>519.2</ele>
        <time>2013-11-02T09:28:36Z</time>
      </trkpt>
      <trkpt lat="38.347574" lon="-1.394464">
        <ele>517.3</ele>
        <time>2013-11-02T09:28:48Z</time>
      </trkpt>
      <trkpt lat="38.347688" lon="-1.394550">
        <ele>514.0</ele>
        <time>2013-11-02T09:29:02Z</time>
      </trkpt>
      <trkpt lat="38.347765" lon="-1.394637">
        <ele>512.5</ele>
        <time>2013-11-02T09:29:15Z</time>
      </trkpt>
      <trkpt lat="38.347742" lon="-1.394714">
        <ele>511.6</ele>
        <time>2013-11-02T09:29:28Z</time>
      </trkpt>
      <trkpt lat="38.347694" lon="-1.394805">
        <ele>509.6</ele>
        <time>2013-11-02T09:29:43Z</time>
      </trkpt>
      <trkpt lat="38.347659" lon="-1.394807">
        <ele>509.2</ele>
        <time>2013-11-02T09:29:57Z</time>
      </trkpt>
      <trkpt lat="38.347623" lon="-1.394925">
        <ele>506.8</ele>
        <time>2013-11-02T09:30:10Z</time>
      </trkpt>
      <trkpt lat="38.347621" lon="-1.395000">
        <ele>506.8</ele>
        <time>2013-11-02T09:30:18Z</time>
      </trkpt>
      <trkpt lat="38.347650" lon="-1.395087">
        <ele>504.4</ele>
        <time>2013-11-02T09:30:32Z</time>
      </trkpt>
      <trkpt lat="38.347621" lon="-1.395203">
        <ele>502.0</ele>
        <time>2013-11-02T09:30:45Z</time>
      </trkpt>
      <trkpt lat="38.347561" lon="-1.395267">
        <ele>502.0</ele>
        <time>2013-11-02T09:30:55Z</time>
      </trkpt>
      <trkpt lat="38.347579" lon="-1.395350">
        <ele>500.5</ele>
        <time>2013-11-02T09:31:04Z</time>
      </trkpt>
      <trkpt lat="38.347604" lon="-1.395415">
        <ele>498.6</ele>
        <time>2013-11-02T09:31:16Z</time>
      </trkpt>
      <trkpt lat="38.347625" lon="-1.395518">
        <ele>496.7</ele>
        <time>2013-11-02T09:31:28Z</time>
      </trkpt>
      <trkpt lat="38.347672" lon="-1.395561">
        <ele>495.2</ele>
        <time>2013-11-02T09:31:43Z</time>
      </trkpt>
      <trkpt lat="38.347691" lon="-1.395606">
        <ele>493.8</ele>
        <time>2013-11-02T09:31:50Z</time>
      </trkpt>
      <trkpt lat="38.347702" lon="-1.395638">
        <ele>494.3</ele>
        <time>2013-11-02T09:32:01Z</time>
      </trkpt>
      <trkpt lat="38.347702" lon="-1.395665">
        <ele>493.3</ele>
        <time>2013-11-02T09:32:06Z</time>
      </trkpt>
      <trkpt lat="38.347712" lon="-1.395676">
        <ele>493.3</ele>
        <time>2013-11-02T09:32:19Z</time>
      </trkpt>
      <trkpt lat="38.347774" lon="-1.395725">
        <ele>492.8</ele>
        <time>2013-11-02T09:33:11Z</time>
      </trkpt>
      <trkpt lat="38.347851" lon="-1.395770">
        <ele>492.8</ele>
        <time>2013-11-02T09:33:23Z</time>
      </trkpt>
      <trkpt lat="38.347931" lon="-1.395840">
        <ele>492.3</ele>
        <time>2013-11-02T09:33:36Z</time>
      </trkpt>
      <trkpt lat="38.347948" lon="-1.395894">
        <ele>490.9</ele>
        <time>2013-11-02T09:33:47Z</time>
      </trkpt>
      <trkpt lat="38.347996" lon="-1.395986">
        <ele>489.0</ele>
        <time>2013-11-02T09:34:00Z</time>
      </trkpt>
      <trkpt lat="38.348007" lon="-1.396001">
        <ele>488.5</ele>
        <time>2013-11-02T09:34:02Z</time>
      </trkpt>
      <trkpt lat="38.348042" lon="-1.396118">
        <ele>487.5</ele>
        <time>2013-11-02T09:34:16Z</time>
      </trkpt>
      <trkpt lat="38.348053" lon="-1.396158">
        <ele>486.6</ele>
        <time>2013-11-02T09:34:21Z</time>
      </trkpt>
      <trkpt lat="38.348084" lon="-1.396264">
        <ele>485.6</ele>
        <time>2013-11-02T09:34:34Z</time>
      </trkpt>
      <trkpt lat="38.348065" lon="-1.396352">
        <ele>483.7</ele>
        <time>2013-11-02T09:34:44Z</time>
      </trkpt>
      <trkpt lat="38.348036" lon="-1.396436">
        <ele>481.3</ele>
        <time>2013-11-02T09:34:57Z</time>
      </trkpt>
      <trkpt lat="38.348051" lon="-1.396444">
        <ele>480.8</ele>
        <time>2013-11-02T09:35:00Z</time>
      </trkpt>
      <trkpt lat="38.348058" lon="-1.396477">
        <ele>480.8</ele>
        <time>2013-11-02T09:35:10Z</time>
      </trkpt>
      <trkpt lat="38.348084" lon="-1.396512">
        <ele>480.3</ele>
        <time>2013-11-02T09:35:20Z</time>
      </trkpt>
      <trkpt lat="38.348096" lon="-1.396576">
        <ele>479.4</ele>
        <time>2013-11-02T09:35:26Z</time>
      </trkpt>
      <trkpt lat="38.348095" lon="-1.396636">
        <ele>478.4</ele>
        <time>2013-11-02T09:35:32Z</time>
      </trkpt>
      <trkpt lat="38.348159" lon="-1.396753">
        <ele>476.5</ele>
        <time>2013-11-02T09:35:45Z</time>
      </trkpt>
      <trkpt lat="38.348264" lon="-1.396867">
        <ele>474.5</ele>
        <time>2013-11-02T09:36:00Z</time>
      </trkpt>
      <trkpt lat="38.348283" lon="-1.396900">
        <ele>474.1</ele>
        <time>2013-11-02T09:36:03Z</time>
      </trkpt>
      <trkpt lat="38.348360" lon="-1.397059">
        <ele>472.6</ele>
        <time>2013-11-02T09:36:20Z</time>
      </trkpt>
      <trkpt lat="38.348365" lon="-1.397067">
        <ele>472.6</ele>
        <time>2013-11-02T09:36:36Z</time>
      </trkpt>
      <trkpt lat="38.348373" lon="-1.397070">
        <ele>472.6</ele>
        <time>2013-11-02T09:38:01Z</time>
      </trkpt>
      <trkpt lat="38.348375" lon="-1.397070">
        <ele>472.6</ele>
        <time>2013-11-02T09:38:16Z</time>
      </trkpt>
      <trkpt lat="38.348392" lon="-1.397121">
        <ele>472.1</ele>
        <time>2013-11-02T09:38:32Z</time>
      </trkpt>
      <trkpt lat="38.348404" lon="-1.397142">
        <ele>472.6</ele>
        <time>2013-11-02T09:38:34Z</time>
      </trkpt>
      <trkpt lat="38.348442" lon="-1.397213">
        <ele>471.7</ele>
        <time>2013-11-02T09:38:48Z</time>
      </trkpt>
      <trkpt lat="38.348508" lon="-1.397331">
        <ele>470.2</ele>
        <time>2013-11-02T09:39:00Z</time>
      </trkpt>
      <trkpt lat="38.348533" lon="-1.397355">
        <ele>469.7</ele>
        <time>2013-11-02T09:39:03Z</time>
      </trkpt>
      <trkpt lat="38.348575" lon="-1.397460">
        <ele>468.8</ele>
        <time>2013-11-02T09:39:14Z</time>
      </trkpt>
      <trkpt lat="38.348640" lon="-1.397631">
        <ele>466.9</ele>
        <time>2013-11-02T09:39:29Z</time>
      </trkpt>
      <trkpt lat="38.348662" lon="-1.397672">
        <ele>466.4</ele>
        <time>2013-11-02T09:39:33Z</time>
      </trkpt>
      <trkpt lat="38.348663" lon="-1.397713">
        <ele>466.4</ele>
        <time>2013-11-02T09:39:36Z</time>
      </trkpt>
      <trkpt lat="38.348706" lon="-1.397837">
        <ele>464.9</ele>
        <time>2013-11-02T09:39:46Z</time>
      </trkpt>
      <trkpt lat="38.348782" lon="-1.398010">
        <ele>463.0</ele>
        <time>2013-11-02T09:40:02Z</time>
      </trkpt>
      <trkpt lat="38.348792" lon="-1.398046">
        <ele>462.5</ele>
        <time>2013-11-02T09:40:05Z</time>
      </trkpt>
      <trkpt lat="38.348829" lon="-1.398122">
        <ele>461.6</ele>
        <time>2013-11-02T09:40:12Z</time>
      </trkpt>
      <trkpt lat="38.348857" lon="-1.398179">
        <ele>461.6</ele>
        <time>2013-11-02T09:40:17Z</time>
      </trkpt>
      <trkpt lat="38.348940" lon="-1.398295">
        <ele>460.1</ele>
        <time>2013-11-02T09:40:31Z</time>
      </trkpt>
      <trkpt lat="38.348955" lon="-1.398339">
        <ele>460.1</ele>
        <time>2013-11-02T09:40:41Z</time>
      </trkpt>
      <trkpt lat="38.348993" lon="-1.398478">
        <ele>458.7</ele>
        <time>2013-11-02T09:40:54Z</time>
      </trkpt>
      <trkpt lat="38.349048" lon="-1.398607">
        <ele>457.7</ele>
        <time>2013-11-02T09:41:06Z</time>
      </trkpt>
      <trkpt lat="38.349115" lon="-1.398765">
        <ele>456.8</ele>
        <time>2013-11-02T09:41:20Z</time>
      </trkpt>
      <trkpt lat="38.349181" lon="-1.398911">
        <ele>454.8</ele>
        <time>2013-11-02T09:41:33Z</time>
      </trkpt>
      <trkpt lat="38.349222" lon="-1.399028">
        <ele>453.9</ele>
        <time>2013-11-02T09:41:45Z</time>
      </trkpt>
      <trkpt lat="38.349291" lon="-1.399197">
        <ele>452.4</ele>
        <time>2013-11-02T09:42:02Z</time>
      </trkpt>
      <trkpt lat="38.349335" lon="-1.399333">
        <ele>452.0</ele>
        <time>2013-11-02T09:42:15Z</time>
      </trkpt>
      <trkpt lat="38.349359" lon="-1.399388">
        <ele>451.5</ele>
        <time>2013-11-02T09:42:19Z</time>
      </trkpt>
      <trkpt lat="38.349366" lon="-1.399413">
        <ele>451.0</ele>
        <time>2013-11-02T09:42:21Z</time>
      </trkpt>
      <trkpt lat="38.349379" lon="-1.399459">
        <ele>451.0</ele>
        <time>2013-11-02T09:42:25Z</time>
      </trkpt>
      <trkpt lat="38.349422" lon="-1.399577">
        <ele>450.0</ele>
        <time>2013-11-02T09:42:35Z</time>
      </trkpt>
      <trkpt lat="38.349467" lon="-1.399726">
        <ele>448.6</ele>
        <time>2013-11-02T09:42:49Z</time>
      </trkpt>
      <trkpt lat="38.349493" lon="-1.399852">
        <ele>447.6</ele>
        <time>2013-11-02T09:43:00Z</time>
      </trkpt>
      <trkpt lat="38.349517" lon="-1.399943">
        <ele>447.1</ele>
        <time>2013-11-02T09:43:11Z</time>
      </trkpt>
      <trkpt lat="38.349523" lon="-1.399977">
        <ele>447.1</ele>
        <time>2013-11-02T09:43:17Z</time>
      </trkpt>
      <trkpt lat="38.349536" lon="-1.400106">
        <ele>445.7</ele>
        <time>2013-11-02T09:43:30Z</time>
      </trkpt>
      <trkpt lat="38.349557" lon="-1.400172">
        <ele>445.7</ele>
        <time>2013-11-02T09:43:39Z</time>
      </trkpt>
      <trkpt lat="38.349577" lon="-1.400329">
        <ele>444.8</ele>
        <time>2013-11-02T09:43:55Z</time>
      </trkpt>
      <trkpt lat="38.349572" lon="-1.400349">
        <ele>444.8</ele>
        <time>2013-11-02T09:44:50Z</time>
      </trkpt>
      <trkpt lat="38.349580" lon="-1.400431">
        <ele>446.2</ele>
        <time>2013-11-02T10:11:58Z</time>
      </trkpt>
      <trkpt lat="38.349594" lon="-1.400514">
        <ele>445.7</ele>
        <time>2013-11-02T10:12:09Z</time>
      </trkpt>
      <trkpt lat="38.349630" lon="-1.400621">
        <ele>445.2</ele>
        <time>2013-11-02T10:12:21Z</time>
      </trkpt>
      <trkpt lat="38.349697" lon="-1.400791">
        <ele>444.8</ele>
        <time>2013-11-02T10:12:39Z</time>
      </trkpt>
      <trkpt lat="38.349717" lon="-1.400821">
        <ele>444.3</ele>
        <time>2013-11-02T10:12:43Z</time>
      </trkpt>
      <trkpt lat="38.349764" lon="-1.400953">
        <ele>443.3</ele>
        <time>2013-11-02T10:12:56Z</time>
      </trkpt>
      <trkpt lat="38.349844" lon="-1.401099">
        <ele>443.8</ele>
        <time>2013-11-02T10:13:11Z</time>
      </trkpt>
      <trkpt lat="38.349905" lon="-1.401269">
        <ele>442.8</ele>
        <time>2013-11-02T10:13:26Z</time>
      </trkpt>
      <trkpt lat="38.349948" lon="-1.401425">
        <ele>442.8</ele>
        <time>2013-11-02T10:13:39Z</time>
      </trkpt>
      <trkpt lat="38.349958" lon="-1.401478">
        <ele>442.3</ele>
        <time>2013-11-02T10:13:44Z</time>
      </trkpt>
      <trkpt lat="38.349968" lon="-1.401519">
        <ele>443.8</ele>
        <time>2013-11-02T10:13:48Z</time>
      </trkpt>
      <trkpt lat="38.349988" lon="-1.401652">
        <ele>443.3</ele>
        <time>2013-11-02T10:13:59Z</time>
      </trkpt>
      <trkpt lat="38.350001" lon="-1.401718">
        <ele>443.3</ele>
        <time>2013-11-02T10:14:04Z</time>
      </trkpt>
      <trkpt lat="38.350003" lon="-1.401742">
        <ele>443.3</ele>
        <time>2013-11-02T10:14:06Z</time>
      </trkpt>
      <trkpt lat="38.350033" lon="-1.401846">
        <ele>442.8</ele>
        <time>2013-11-02T10:14:15Z</time>
      </trkpt>
      <trkpt lat="38.350034" lon="-1.401908">
        <ele>442.3</ele>
        <time>2013-11-02T10:14:20Z</time>
      </trkpt>
      <trkpt lat="38.350041" lon="-1.401932">
        <ele>441.9</ele>
        <time>2013-11-02T10:14:22Z</time>
      </trkpt>
      <trkpt lat="38.350049" lon="-1.401997">
        <ele>441.9</ele>
        <time>2013-11-02T10:14:27Z</time>
      </trkpt>
      <trkpt lat="38.350086" lon="-1.402186">
        <ele>438.5</ele>
        <time>2013-11-02T10:14:43Z</time>
      </trkpt>
      <trkpt lat="38.350099" lon="-1.402262">
        <ele>438.0</ele>
        <time>2013-11-02T10:14:58Z</time>
      </trkpt>
      <trkpt lat="38.350130" lon="-1.402274">
        <ele>438.0</ele>
        <time>2013-11-02T10:15:09Z</time>
      </trkpt>
      <trkpt lat="38.350126" lon="-1.402351">
        <ele>436.6</ele>
        <time>2013-11-02T10:15:14Z</time>
      </trkpt>
      <trkpt lat="38.350145" lon="-1.402423">
        <ele>437.5</ele>
        <time>2013-11-02T10:15:19Z</time>
      </trkpt>
      <trkpt lat="38.350152" lon="-1.402632">
        <ele>437.1</ele>
        <time>2013-11-02T10:15:34Z</time>
      </trkpt>
      <trkpt lat="38.350154" lon="-1.402685">
        <ele>437.1</ele>
        <time>2013-11-02T10:15:37Z</time>
      </trkpt>
      <trkpt lat="38.350175" lon="-1.402908">
        <ele>435.6</ele>
        <time>2013-11-02T10:15:54Z</time>
      </trkpt>
      <trkpt lat="38.350171" lon="-1.403052">
        <ele>436.1</ele>
        <time>2013-11-02T10:16:19Z</time>
      </trkpt>
      <trkpt lat="38.350163" lon="-1.403169">
        <ele>435.1</ele>
        <time>2013-11-02T10:19:05Z</time>
      </trkpt>
      <trkpt lat="38.350169" lon="-1.403261">
        <ele>434.2</ele>
        <time>2013-11-02T10:19:14Z</time>
      </trkpt>
      <trkpt lat="38.350181" lon="-1.403409">
        <ele>434.2</ele>
        <time>2013-11-02T10:19:27Z</time>
      </trkpt>
      <trkpt lat="38.350191" lon="-1.403513">
        <ele>434.2</ele>
        <time>2013-11-02T10:19:36Z</time>
      </trkpt>
      <trkpt lat="38.350194" lon="-1.403541">
        <ele>434.2</ele>
        <time>2013-11-02T10:19:38Z</time>
      </trkpt>
      <trkpt lat="38.350196" lon="-1.403728">
        <ele>433.2</ele>
        <time>2013-11-02T10:19:54Z</time>
      </trkpt>
      <trkpt lat="38.350195" lon="-1.403740">
        <ele>433.2</ele>
        <time>2013-11-02T10:19:55Z</time>
      </trkpt>
      <trkpt lat="38.350202" lon="-1.403951">
        <ele>432.7</ele>
        <time>2013-11-02T10:20:12Z</time>
      </trkpt>
      <trkpt lat="38.350202" lon="-1.404009">
        <ele>431.8</ele>
        <time>2013-11-02T10:20:17Z</time>
      </trkpt>
      <trkpt lat="38.350197" lon="-1.404032">
        <ele>432.7</ele>
        <time>2013-11-02T10:20:19Z</time>
      </trkpt>
      <trkpt lat="38.350199" lon="-1.404186">
        <ele>431.8</ele>
        <time>2013-11-02T10:20:32Z</time>
      </trkpt>
      <trkpt lat="38.350205" lon="-1.404210">
        <ele>431.8</ele>
        <time>2013-11-02T10:20:34Z</time>
      </trkpt>
      <trkpt lat="38.350215" lon="-1.404382">
        <ele>430.8</ele>
        <time>2013-11-02T10:20:49Z</time>
      </trkpt>
      <trkpt lat="38.350208" lon="-1.404540">
        <ele>430.3</ele>
        <time>2013-11-02T10:21:03Z</time>
      </trkpt>
      <trkpt lat="38.350201" lon="-1.404782">
        <ele>428.9</ele>
        <time>2013-11-02T10:21:21Z</time>
      </trkpt>
      <trkpt lat="38.350193" lon="-1.404897">
        <ele>428.4</ele>
        <time>2013-11-02T10:21:30Z</time>
      </trkpt>
      <trkpt lat="38.350184" lon="-1.405131">
        <ele>427.9</ele>
        <time>2013-11-02T10:21:48Z</time>
      </trkpt>
      <trkpt lat="38.350179" lon="-1.405366">
        <ele>426.5</ele>
        <time>2013-11-02T10:22:05Z</time>
      </trkpt>
      <trkpt lat="38.350178" lon="-1.405459">
        <ele>426.5</ele>
        <time>2013-11-02T10:22:14Z</time>
      </trkpt>
      <trkpt lat="38.350191" lon="-1.405686">
        <ele>425.0</ele>
        <time>2013-11-02T10:22:30Z</time>
      </trkpt>
      <trkpt lat="38.350206" lon="-1.405871">
        <ele>425.0</ele>
        <time>2013-11-02T10:22:43Z</time>
      </trkpt>
      <trkpt lat="38.350205" lon="-1.406085">
        <ele>424.1</ele>
        <time>2013-11-02T10:22:58Z</time>
      </trkpt>
      <trkpt lat="38.350208" lon="-1.406176">
        <ele>423.6</ele>
        <time>2013-11-02T10:23:05Z</time>
      </trkpt>
      <trkpt lat="38.350216" lon="-1.406278">
        <ele>423.6</ele>
        <time>2013-11-02T10:23:12Z</time>
      </trkpt>
      <trkpt lat="38.350237" lon="-1.406486">
        <ele>423.1</ele>
        <time>2013-11-02T10:23:27Z</time>
      </trkpt>
      <trkpt lat="38.350271" lon="-1.406645">
        <ele>421.7</ele>
        <time>2013-11-02T10:23:38Z</time>
      </trkpt>
      <trkpt lat="38.350340" lon="-1.406884">
        <ele>421.2</ele>
        <time>2013-11-02T10:23:56Z</time>
      </trkpt>
      <trkpt lat="38.350411" lon="-1.407043">
        <ele>420.2</ele>
        <time>2013-11-02T10:24:10Z</time>
      </trkpt>
      <trkpt lat="38.350433" lon="-1.407064">
        <ele>419.8</ele>
        <time>2013-11-02T10:24:19Z</time>
      </trkpt>
      <trkpt lat="38.350448" lon="-1.407133">
        <ele>420.2</ele>
        <time>2013-11-02T10:24:26Z</time>
      </trkpt>
      <trkpt lat="38.350473" lon="-1.407188">
        <ele>419.8</ele>
        <time>2013-11-02T10:24:30Z</time>
      </trkpt>
      <trkpt lat="38.350550" lon="-1.407346">
        <ele>419.3</ele>
        <time>2013-11-02T10:24:42Z</time>
      </trkpt>
      <trkpt lat="38.350668" lon="-1.407579">
        <ele>418.8</ele>
        <time>2013-11-02T10:25:00Z</time>
      </trkpt>
      <trkpt lat="38.350711" lon="-1.407654">
        <ele>418.8</ele>
        <time>2013-11-02T10:25:06Z</time>
      </trkpt>
      <trkpt lat="38.350836" lon="-1.407851">
        <ele>417.8</ele>
        <time>2013-11-02T10:25:23Z</time>
      </trkpt>
      <trkpt lat="38.350875" lon="-1.407902">
        <ele>416.9</ele>
        <time>2013-11-02T10:25:28Z</time>
      </trkpt>
      <trkpt lat="38.350995" lon="-1.408110">
        <ele>416.4</ele>
        <time>2013-11-02T10:25:45Z</time>
      </trkpt>
      <trkpt lat="38.351024" lon="-1.408170">
        <ele>415.9</ele>
        <time>2013-11-02T10:25:50Z</time>
      </trkpt>
      <trkpt lat="38.351063" lon="-1.408210">
        <ele>415.9</ele>
        <time>2013-11-02T10:25:54Z</time>
      </trkpt>
      <trkpt lat="38.351090" lon="-1.408276">
        <ele>415.9</ele>
        <time>2013-11-02T10:25:59Z</time>
      </trkpt>
      <trkpt lat="38.351191" lon="-1.408463">
        <ele>415.0</ele>
        <time>2013-11-02T10:26:14Z</time>
      </trkpt>
      <trkpt lat="38.351279" lon="-1.408639">
        <ele>415.4</ele>
        <time>2013-11-02T10:26:28Z</time>
      </trkpt>
      <trkpt lat="38.351379" lon="-1.408824">
        <ele>414.0</ele>
        <time>2013-11-02T10:26:43Z</time>
      </trkpt>
      <trkpt lat="38.351409" lon="-1.408844">
        <ele>413.5</ele>
        <time>2013-11-02T10:26:56Z</time>
      </trkpt>
      <trkpt lat="38.351490" lon="-1.409021">
        <ele>413.0</ele>
        <time>2013-11-02T10:27:10Z</time>
      </trkpt>
      <trkpt lat="38.351526" lon="-1.409102">
        <ele>413.0</ele>
        <time>2013-11-02T10:27:17Z</time>
      </trkpt>
      <trkpt lat="38.351538" lon="-1.409120">
        <ele>412.5</ele>
        <time>2013-11-02T10:27:19Z</time>
      </trkpt>
      <trkpt lat="38.351542" lon="-1.409143">
        <ele>412.1</ele>
        <time>2013-11-02T10:27:21Z</time>
      </trkpt>
      <trkpt lat="38.351623" lon="-1.409316">
        <ele>411.6</ele>
        <time>2013-11-02T10:27:36Z</time>
      </trkpt>
      <trkpt lat="38.351644" lon="-1.409385">
        <ele>411.1</ele>
        <time>2013-11-02T10:27:41Z</time>
      </trkpt>
      <trkpt lat="38.351722" lon="-1.409527">
        <ele>410.6</ele>
        <time>2013-11-02T10:27:52Z</time>
      </trkpt>
      <trkpt lat="38.351790" lon="-1.409752">
        <ele>409.7</ele>
        <time>2013-11-02T10:28:07Z</time>
      </trkpt>
      <trkpt lat="38.351849" lon="-1.410017">
        <ele>408.7</ele>
        <time>2013-11-02T10:28:25Z</time>
      </trkpt>
      <trkpt lat="38.351901" lon="-1.410297">
        <ele>407.7</ele>
        <time>2013-11-02T10:28:43Z</time>
      </trkpt>
      <trkpt lat="38.351913" lon="-1.410412">
        <ele>407.7</ele>
        <time>2013-11-02T10:28:50Z</time>
      </trkpt>
      <trkpt lat="38.351913" lon="-1.410453">
        <ele>407.3</ele>
        <time>2013-11-02T10:28:53Z</time>
      </trkpt>
      <trkpt lat="38.351942" lon="-1.410725">
        <ele>406.8</ele>
        <time>2013-11-02T10:29:10Z</time>
      </trkpt>
      <trkpt lat="38.351969" lon="-1.410853">
        <ele>405.8</ele>
        <time>2013-11-02T10:29:22Z</time>
      </trkpt>
      <trkpt lat="38.351967" lon="-1.410899">
        <ele>405.3</ele>
        <time>2013-11-02T10:29:25Z</time>
      </trkpt>
      <trkpt lat="38.351978" lon="-1.410938">
        <ele>405.3</ele>
        <time>2013-11-02T10:29:28Z</time>
      </trkpt>
      <trkpt lat="38.351987" lon="-1.411059">
        <ele>404.9</ele>
        <time>2013-11-02T10:29:36Z</time>
      </trkpt>
      <trkpt lat="38.352018" lon="-1.411297">
        <ele>403.9</ele>
        <time>2013-11-02T10:29:52Z</time>
      </trkpt>
      <trkpt lat="38.352034" lon="-1.411553">
        <ele>402.5</ele>
        <time>2013-11-02T10:30:09Z</time>
      </trkpt>
      <trkpt lat="38.352071" lon="-1.411798">
        <ele>401.5</ele>
        <time>2013-11-02T10:30:26Z</time>
      </trkpt>
      <trkpt lat="38.352083" lon="-1.411962">
        <ele>401.0</ele>
        <time>2013-11-02T10:30:37Z</time>
      </trkpt>
      <trkpt lat="38.352101" lon="-1.412208">
        <ele>401.0</ele>
        <time>2013-11-02T10:30:53Z</time>
      </trkpt>
      <trkpt lat="38.352112" lon="-1.412442">
        <ele>399.6</ele>
        <time>2013-11-02T10:31:08Z</time>
      </trkpt>
      <trkpt lat="38.352133" lon="-1.412720">
        <ele>398.1</ele>
        <time>2013-11-02T10:31:26Z</time>
      </trkpt>
      <trkpt lat="38.352136" lon="-1.412990">
        <ele>397.2</ele>
        <time>2013-11-02T10:31:43Z</time>
      </trkpt>
      <trkpt lat="38.352145" lon="-1.413249">
        <ele>396.2</ele>
        <time>2013-11-02T10:31:58Z</time>
      </trkpt>
      <trkpt lat="38.352168" lon="-1.413532">
        <ele>395.2</ele>
        <time>2013-11-02T10:32:15Z</time>
      </trkpt>
      <trkpt lat="38.352240" lon="-1.413802">
        <ele>394.3</ele>
        <time>2013-11-02T10:32:32Z</time>
      </trkpt>
      <trkpt lat="38.352291" lon="-1.414003">
        <ele>394.3</ele>
        <time>2013-11-02T10:32:45Z</time>
      </trkpt>
      <trkpt lat="38.352294" lon="-1.414031">
        <ele>394.3</ele>
        <time>2013-11-02T10:32:47Z</time>
      </trkpt>
      <trkpt lat="38.352321" lon="-1.414084">
        <ele>393.3</ele>
        <time>2013-11-02T10:32:51Z</time>
      </trkpt>
      <trkpt lat="38.352372" lon="-1.414277">
        <ele>393.3</ele>
        <time>2013-11-02T10:33:04Z</time>
      </trkpt>
      <trkpt lat="38.352375" lon="-1.414339">
        <ele>393.3</ele>
        <time>2013-11-02T10:33:08Z</time>
      </trkpt>
      <trkpt lat="38.352424" lon="-1.414553">
        <ele>391.9</ele>
        <time>2013-11-02T10:33:22Z</time>
      </trkpt>
      <trkpt lat="38.352425" lon="-1.414610">
        <ele>391.4</ele>
        <time>2013-11-02T10:33:26Z</time>
      </trkpt>
      <trkpt lat="38.352457" lon="-1.414861">
        <ele>390.9</ele>
        <time>2013-11-02T10:33:42Z</time>
      </trkpt>
      <trkpt lat="38.352463" lon="-1.414909">
        <ele>390.9</ele>
        <time>2013-11-02T10:33:45Z</time>
      </trkpt>
      <trkpt lat="38.352516" lon="-1.415169">
        <ele>390.0</ele>
        <time>2013-11-02T10:34:02Z</time>
      </trkpt>
      <trkpt lat="38.352538" lon="-1.415394">
        <ele>389.5</ele>
        <time>2013-11-02T10:34:17Z</time>
      </trkpt>
      <trkpt lat="38.352564" lon="-1.415534">
        <ele>388.5</ele>
        <time>2013-11-02T10:34:26Z</time>
      </trkpt>
      <trkpt lat="38.352626" lon="-1.415790">
        <ele>388.0</ele>
        <time>2013-11-02T10:34:43Z</time>
      </trkpt>
      <trkpt lat="38.352679" lon="-1.416077">
        <ele>387.5</ele>
        <time>2013-11-02T10:35:01Z</time>
      </trkpt>
      <trkpt lat="38.352715" lon="-1.416309">
        <ele>387.1</ele>
        <time>2013-11-02T10:35:16Z</time>
      </trkpt>
      <trkpt lat="38.352730" lon="-1.416544">
        <ele>386.1</ele>
        <time>2013-11-02T10:35:31Z</time>
      </trkpt>
      <trkpt lat="38.352731" lon="-1.416558">
        <ele>386.1</ele>
        <time>2013-11-02T10:35:32Z</time>
      </trkpt>
      <trkpt lat="38.352754" lon="-1.416673">
        <ele>386.1</ele>
        <time>2013-11-02T10:35:39Z</time>
      </trkpt>
      <trkpt lat="38.352754" lon="-1.416736">
        <ele>385.6</ele>
        <time>2013-11-02T10:35:43Z</time>
      </trkpt>
      <trkpt lat="38.352775" lon="-1.417028">
        <ele>384.7</ele>
        <time>2013-11-02T10:36:01Z</time>
      </trkpt>
      <trkpt lat="38.352765" lon="-1.417270">
        <ele>384.2</ele>
        <time>2013-11-02T10:36:16Z</time>
      </trkpt>
      <trkpt lat="38.352744" lon="-1.417561">
        <ele>383.7</ele>
        <time>2013-11-02T10:36:34Z</time>
      </trkpt>
      <trkpt lat="38.352695" lon="-1.417852">
        <ele>382.3</ele>
        <time>2013-11-02T10:36:52Z</time>
      </trkpt>
      <trkpt lat="38.352637" lon="-1.418088">
        <ele>382.3</ele>
        <time>2013-11-02T10:37:08Z</time>
      </trkpt>
      <trkpt lat="38.352591" lon="-1.418332">
        <ele>381.3</ele>
        <time>2013-11-02T10:37:24Z</time>
      </trkpt>
      <trkpt lat="38.352560" lon="-1.418581">
        <ele>380.8</ele>
        <time>2013-11-02T10:37:40Z</time>
      </trkpt>
      <trkpt lat="38.352558" lon="-1.418612">
        <ele>380.8</ele>
        <time>2013-11-02T10:37:42Z</time>
      </trkpt>
      <trkpt lat="38.352518" lon="-1.418866">
        <ele>380.8</ele>
        <time>2013-11-02T10:37:59Z</time>
      </trkpt>
      <trkpt lat="38.352503" lon="-1.419056">
        <ele>379.9</ele>
        <time>2013-11-02T10:38:13Z</time>
      </trkpt>
      <trkpt lat="38.352502" lon="-1.419057">
        <ele>379.9</ele>
        <time>2013-11-02T10:38:17Z</time>
      </trkpt>
      <trkpt lat="38.352497" lon="-1.419115">
        <ele>379.9</ele>
        <time>2013-11-02T10:38:21Z</time>
      </trkpt>
      <trkpt lat="38.352463" lon="-1.419419">
        <ele>379.9</ele>
        <time>2013-11-02T10:38:39Z</time>
      </trkpt>
      <trkpt lat="38.352455" lon="-1.419659">
        <ele>379.4</ele>
        <time>2013-11-02T10:38:54Z</time>
      </trkpt>
      <trkpt lat="38.352462" lon="-1.419915">
        <ele>378.9</ele>
        <time>2013-11-02T10:39:09Z</time>
      </trkpt>
      <trkpt lat="38.352456" lon="-1.420185">
        <ele>377.9</ele>
        <time>2013-11-02T10:39:25Z</time>
      </trkpt>
      <trkpt lat="38.352403" lon="-1.420440">
        <ele>377.0</ele>
        <time>2013-11-02T10:39:41Z</time>
      </trkpt>
      <trkpt lat="38.352365" lon="-1.420656">
        <ele>376.0</ele>
        <time>2013-11-02T10:39:55Z</time>
      </trkpt>
      <trkpt lat="38.352385" lon="-1.420826">
        <ele>376.0</ele>
        <time>2013-11-02T10:40:05Z</time>
      </trkpt>
      <trkpt lat="38.352419" lon="-1.420937">
        <ele>375.5</ele>
        <time>2013-11-02T10:40:12Z</time>
      </trkpt>
      <trkpt lat="38.352489" lon="-1.421208">
        <ele>375.0</ele>
        <time>2013-11-02T10:40:30Z</time>
      </trkpt>
      <trkpt lat="38.352524" lon="-1.421309">
        <ele>374.6</ele>
        <time>2013-11-02T10:40:38Z</time>
      </trkpt>
      <trkpt lat="38.352529" lon="-1.421342">
        <ele>374.6</ele>
        <time>2013-11-02T10:40:43Z</time>
      </trkpt>
      <trkpt lat="38.352554" lon="-1.421412">
        <ele>374.1</ele>
        <time>2013-11-02T10:40:48Z</time>
      </trkpt>
      <trkpt lat="38.352635" lon="-1.421637">
        <ele>374.1</ele>
        <time>2013-11-02T10:41:04Z</time>
      </trkpt>
      <trkpt lat="38.352720" lon="-1.421876">
        <ele>373.1</ele>
        <time>2013-11-02T10:41:21Z</time>
      </trkpt>
      <trkpt lat="38.352798" lon="-1.422149">
        <ele>372.6</ele>
        <time>2013-11-02T10:41:41Z</time>
      </trkpt>
      <trkpt lat="38.352793" lon="-1.422393">
        <ele>372.2</ele>
        <time>2013-11-02T10:41:57Z</time>
      </trkpt>
      <trkpt lat="38.352750" lon="-1.422645">
        <ele>371.2</ele>
        <time>2013-11-02T10:42:14Z</time>
      </trkpt>
      <trkpt lat="38.352707" lon="-1.422902">
        <ele>370.7</ele>
        <time>2013-11-02T10:42:31Z</time>
      </trkpt>
      <trkpt lat="38.352662" lon="-1.423212">
        <ele>369.3</ele>
        <time>2013-11-02T10:42:50Z</time>
      </trkpt>
      <trkpt lat="38.352653" lon="-1.423237">
        <ele>370.2</ele>
        <time>2013-11-02T10:42:52Z</time>
      </trkpt>
      <trkpt lat="38.352651" lon="-1.423267">
        <ele>369.8</ele>
        <time>2013-11-02T10:42:54Z</time>
      </trkpt>
      <trkpt lat="38.352646" lon="-1.423324">
        <ele>369.3</ele>
        <time>2013-11-02T10:43:02Z</time>
      </trkpt>
      <trkpt lat="38.352615" lon="-1.423478">
        <ele>369.3</ele>
        <time>2013-11-02T10:43:17Z</time>
      </trkpt>
      <trkpt lat="38.352612" lon="-1.423498">
        <ele>369.3</ele>
        <time>2013-11-02T10:43:32Z</time>
      </trkpt>
      <trkpt lat="38.352598" lon="-1.423510">
        <ele>368.8</ele>
        <time>2013-11-02T10:43:50Z</time>
      </trkpt>
      <trkpt lat="38.352592" lon="-1.423513">
        <ele>368.8</ele>
        <time>2013-11-02T10:44:02Z</time>
      </trkpt>
      <trkpt lat="38.352592" lon="-1.423536">
        <ele>368.8</ele>
        <time>2013-11-02T10:44:11Z</time>
      </trkpt>
      <trkpt lat="38.352594" lon="-1.423556">
        <ele>369.3</ele>
        <time>2013-11-02T10:44:26Z</time>
      </trkpt>
      <trkpt lat="38.352600" lon="-1.423550">
        <ele>368.8</ele>
        <time>2013-11-02T10:44:40Z</time>
      </trkpt>
      <trkpt lat="38.352598" lon="-1.423544">
        <ele>369.3</ele>
        <time>2013-11-02T10:44:55Z</time>
      </trkpt>
      <trkpt lat="38.352595" lon="-1.423556">
        <ele>368.8</ele>
        <time>2013-11-02T10:45:06Z</time>
      </trkpt>
      <trkpt lat="38.352591" lon="-1.423559">
        <ele>368.8</ele>
        <time>2013-11-02T10:45:22Z</time>
      </trkpt>
      <trkpt lat="38.352585" lon="-1.423584">
        <ele>368.8</ele>
        <time>2013-11-02T10:45:37Z</time>
      </trkpt>
      <trkpt lat="38.352577" lon="-1.423604">
        <ele>368.8</ele>
        <time>2013-11-02T10:45:47Z</time>
      </trkpt>
      <trkpt lat="38.352561" lon="-1.423641">
        <ele>368.8</ele>
        <time>2013-11-02T10:45:59Z</time>
      </trkpt>
      <trkpt lat="38.352549" lon="-1.423684">
        <ele>368.3</ele>
        <time>2013-11-02T10:46:09Z</time>
      </trkpt>
      <trkpt lat="38.352543" lon="-1.423737">
        <ele>368.3</ele>
        <time>2013-11-02T10:46:18Z</time>
      </trkpt>
      <trkpt lat="38.352517" lon="-1.423752">
        <ele>368.8</ele>
        <time>2013-11-02T10:46:29Z</time>
      </trkpt>
      <trkpt lat="38.352517" lon="-1.423758">
        <ele>368.8</ele>
        <time>2013-11-02T10:46:58Z</time>
      </trkpt>
      <trkpt lat="38.352513" lon="-1.423776">
        <ele>367.8</ele>
        <time>2013-11-02T10:47:14Z</time>
      </trkpt>
      <trkpt lat="38.352463" lon="-1.423901">
        <ele>368.3</ele>
        <time>2013-11-02T10:47:30Z</time>
      </trkpt>
      <trkpt lat="38.352449" lon="-1.423957">
        <ele>368.3</ele>
        <time>2013-11-02T10:47:34Z</time>
      </trkpt>
      <trkpt lat="38.352385" lon="-1.424281">
        <ele>367.4</ele>
        <time>2013-11-02T10:47:52Z</time>
      </trkpt>
      <trkpt lat="38.352301" lon="-1.424605">
        <ele>366.9</ele>
        <time>2013-11-02T10:48:10Z</time>
      </trkpt>
      <trkpt lat="38.352230" lon="-1.424886">
        <ele>366.4</ele>
        <time>2013-11-02T10:48:26Z</time>
      </trkpt>
      <trkpt lat="38.352180" lon="-1.425112">
        <ele>366.4</ele>
        <time>2013-11-02T10:48:41Z</time>
      </trkpt>
      <trkpt lat="38.352103" lon="-1.425369">
        <ele>365.9</ele>
        <time>2013-11-02T10:48:58Z</time>
      </trkpt>
      <trkpt lat="38.352067" lon="-1.425617">
        <ele>366.9</ele>
        <time>2013-11-02T10:49:13Z</time>
      </trkpt>
      <trkpt lat="38.352067" lon="-1.425633">
        <ele>366.9</ele>
        <time>2013-11-02T10:49:14Z</time>
      </trkpt>
      <trkpt lat="38.352051" lon="-1.425892">
        <ele>366.9</ele>
        <time>2013-11-02T10:49:29Z</time>
      </trkpt>
      <trkpt lat="38.352044" lon="-1.426191">
        <ele>366.9</ele>
        <time>2013-11-02T10:49:46Z</time>
      </trkpt>
      <trkpt lat="38.352052" lon="-1.426461">
        <ele>365.0</ele>
        <time>2013-11-02T10:50:01Z</time>
      </trkpt>
      <trkpt lat="38.352026" lon="-1.426660">
        <ele>365.0</ele>
        <time>2013-11-02T10:50:13Z</time>
      </trkpt>
      <trkpt lat="38.352017" lon="-1.426727">
        <ele>365.0</ele>
        <time>2013-11-02T10:50:17Z</time>
      </trkpt>
      <trkpt lat="38.351979" lon="-1.426850">
        <ele>364.5</ele>
        <time>2013-11-02T10:50:25Z</time>
      </trkpt>
      <trkpt lat="38.351947" lon="-1.427127">
        <ele>364.0</ele>
        <time>2013-11-02T10:50:42Z</time>
      </trkpt>
      <trkpt lat="38.351941" lon="-1.427303">
        <ele>365.0</ele>
        <time>2013-11-02T10:50:56Z</time>
      </trkpt>
      <trkpt lat="38.351875" lon="-1.427547">
        <ele>365.0</ele>
        <time>2013-11-02T10:51:12Z</time>
      </trkpt>
      <trkpt lat="38.351826" lon="-1.427702">
        <ele>365.4</ele>
        <time>2013-11-02T10:51:22Z</time>
      </trkpt>
      <trkpt lat="38.351763" lon="-1.427967">
        <ele>365.4</ele>
        <time>2013-11-02T10:51:38Z</time>
      </trkpt>
      <trkpt lat="38.351738" lon="-1.428120">
        <ele>365.4</ele>
        <time>2013-11-02T10:51:47Z</time>
      </trkpt>
      <trkpt lat="38.351683" lon="-1.428344">
        <ele>365.4</ele>
        <time>2013-11-02T10:52:02Z</time>
      </trkpt>
      <trkpt lat="38.351650" lon="-1.428364">
        <ele>365.9</ele>
        <time>2013-11-02T10:52:05Z</time>
      </trkpt>
      <trkpt lat="38.351486" lon="-1.428508">
        <ele>365.0</ele>
        <time>2013-11-02T10:52:21Z</time>
      </trkpt>
      <trkpt lat="38.351328" lon="-1.428631">
        <ele>364.0</ele>
        <time>2013-11-02T10:52:36Z</time>
      </trkpt>
      <trkpt lat="38.351163" lon="-1.428822">
        <ele>363.5</ele>
        <time>2013-11-02T10:52:52Z</time>
      </trkpt>
      <trkpt lat="38.351014" lon="-1.428994">
        <ele>363.0</ele>
        <time>2013-11-02T10:53:07Z</time>
      </trkpt>
      <trkpt lat="38.350866" lon="-1.429197">
        <ele>362.5</ele>
        <time>2013-11-02T10:53:23Z</time>
      </trkpt>
      <trkpt lat="38.350720" lon="-1.429420">
        <ele>361.6</ele>
        <time>2013-11-02T10:53:39Z</time>
      </trkpt>
      <trkpt lat="38.350662" lon="-1.429506">
        <ele>360.1</ele>
        <time>2013-11-02T10:53:45Z</time>
      </trkpt>
      <trkpt lat="38.350615" lon="-1.429551">
        <ele>361.1</ele>
        <time>2013-11-02T10:53:49Z</time>
      </trkpt>
      <trkpt lat="38.350453" lon="-1.429789">
        <ele>361.1</ele>
        <time>2013-11-02T10:54:08Z</time>
      </trkpt>
      <trkpt lat="38.350328" lon="-1.429998">
        <ele>360.1</ele>
        <time>2013-11-02T10:54:23Z</time>
      </trkpt>
      <trkpt lat="38.350199" lon="-1.430211">
        <ele>359.7</ele>
        <time>2013-11-02T10:54:39Z</time>
      </trkpt>
      <trkpt lat="38.350090" lon="-1.430443">
        <ele>359.2</ele>
        <time>2013-11-02T10:54:55Z</time>
      </trkpt>
      <trkpt lat="38.349962" lon="-1.430664">
        <ele>358.7</ele>
        <time>2013-11-02T10:55:11Z</time>
      </trkpt>
      <trkpt lat="38.349861" lon="-1.430892">
        <ele>357.3</ele>
        <time>2013-11-02T10:55:26Z</time>
      </trkpt>
      <trkpt lat="38.349790" lon="-1.431199">
        <ele>356.8</ele>
        <time>2013-11-02T10:55:45Z</time>
      </trkpt>
      <trkpt lat="38.349735" lon="-1.431473">
        <ele>356.3</ele>
        <time>2013-11-02T10:56:02Z</time>
      </trkpt>
      <trkpt lat="38.349666" lon="-1.431726">
        <ele>355.8</ele>
        <time>2013-11-02T10:56:18Z</time>
      </trkpt>
      <trkpt lat="38.349586" lon="-1.431992">
        <ele>355.8</ele>
        <time>2013-11-02T10:56:35Z</time>
      </trkpt>
      <trkpt lat="38.349530" lon="-1.432266">
        <ele>355.3</ele>
        <time>2013-11-02T10:56:51Z</time>
      </trkpt>
      <trkpt lat="38.349499" lon="-1.432379">
        <ele>354.9</ele>
        <time>2013-11-02T10:56:58Z</time>
      </trkpt>
      <trkpt lat="38.349443" lon="-1.432698">
        <ele>353.9</ele>
        <time>2013-11-02T10:57:17Z</time>
      </trkpt>
      <trkpt lat="38.349406" lon="-1.432929">
        <ele>353.9</ele>
        <time>2013-11-02T10:57:31Z</time>
      </trkpt>
      <trkpt lat="38.349390" lon="-1.433157">
        <ele>353.4</ele>
        <time>2013-11-02T10:57:45Z</time>
      </trkpt>
      <trkpt lat="38.349368" lon="-1.433450">
        <ele>352.0</ele>
        <time>2013-11-02T10:58:04Z</time>
      </trkpt>
      <trkpt lat="38.349251" lon="-1.433644">
        <ele>351.0</ele>
        <time>2013-11-02T10:58:18Z</time>
      </trkpt>
      <trkpt lat="38.349207" lon="-1.433726">
        <ele>350.5</ele>
        <time>2013-11-02T10:58:24Z</time>
      </trkpt>
      <trkpt lat="38.349232" lon="-1.433956">
        <ele>348.6</ele>
        <time>2013-11-02T10:58:38Z</time>
      </trkpt>
      <trkpt lat="38.349233" lon="-1.434007">
        <ele>348.1</ele>
        <time>2013-11-02T10:58:41Z</time>
      </trkpt>
      <trkpt lat="38.349255" lon="-1.434171">
        <ele>347.2</ele>
        <time>2013-11-02T10:58:51Z</time>
      </trkpt>
      <trkpt lat="38.349289" lon="-1.434419">
        <ele>345.7</ele>
        <time>2013-11-02T10:59:05Z</time>
      </trkpt>
      <trkpt lat="38.349332" lon="-1.434502">
        <ele>345.2</ele>
        <time>2013-11-02T10:59:12Z</time>
      </trkpt>
      <trkpt lat="38.349387" lon="-1.434548">
        <ele>345.2</ele>
        <time>2013-11-02T10:59:18Z</time>
      </trkpt>
      <trkpt lat="38.349437" lon="-1.434565">
        <ele>345.2</ele>
        <time>2013-11-02T10:59:22Z</time>
      </trkpt>
      <trkpt lat="38.349489" lon="-1.434582">
        <ele>345.2</ele>
        <time>2013-11-02T10:59:26Z</time>
      </trkpt>
      <trkpt lat="38.349574" lon="-1.434588">
        <ele>345.2</ele>
        <time>2013-11-02T10:59:33Z</time>
      </trkpt>
      <trkpt lat="38.349636" lon="-1.434602">
        <ele>344.8</ele>
        <time>2013-11-02T10:59:38Z</time>
      </trkpt>
      <trkpt lat="38.349863" lon="-1.434663">
        <ele>344.3</ele>
        <time>2013-11-02T10:59:56Z</time>
      </trkpt>
      <trkpt lat="38.350067" lon="-1.434731">
        <ele>343.8</ele>
        <time>2013-11-02T11:00:12Z</time>
      </trkpt>
      <trkpt lat="38.350243" lon="-1.434790">
        <ele>343.8</ele>
        <time>2013-11-02T11:00:26Z</time>
      </trkpt>
      <trkpt lat="38.350457" lon="-1.434876">
        <ele>343.8</ele>
        <time>2013-11-02T11:00:43Z</time>
      </trkpt>
      <trkpt lat="38.350617" lon="-1.434958">
        <ele>343.8</ele>
        <time>2013-11-02T11:00:57Z</time>
      </trkpt>
      <trkpt lat="38.350688" lon="-1.434996">
        <ele>343.8</ele>
        <time>2013-11-02T11:01:03Z</time>
      </trkpt>
      <trkpt lat="38.350838" lon="-1.435142">
        <ele>344.3</ele>
        <time>2013-11-02T11:01:18Z</time>
      </trkpt>
      <trkpt lat="38.351041" lon="-1.435294">
        <ele>344.8</ele>
        <time>2013-11-02T11:01:37Z</time>
      </trkpt>
      <trkpt lat="38.351169" lon="-1.435385">
        <ele>344.8</ele>
        <time>2013-11-02T11:01:50Z</time>
      </trkpt>
      <trkpt lat="38.351286" lon="-1.435482">
        <ele>345.2</ele>
        <time>2013-11-02T11:02:01Z</time>
      </trkpt>
      <trkpt lat="38.351502" lon="-1.435658">
        <ele>346.7</ele>
        <time>2013-11-02T11:02:20Z</time>
      </trkpt>
      <trkpt lat="38.351723" lon="-1.435824">
        <ele>347.2</ele>
        <time>2013-11-02T11:02:38Z</time>
      </trkpt>
      <trkpt lat="38.351933" lon="-1.435987">
        <ele>347.6</ele>
        <time>2013-11-02T11:02:56Z</time>
      </trkpt>
      <trkpt lat="38.352160" lon="-1.436157">
        <ele>347.6</ele>
        <time>2013-11-02T11:03:15Z</time>
      </trkpt>
      <trkpt lat="38.352397" lon="-1.436329">
        <ele>348.6</ele>
        <time>2013-11-02T11:03:34Z</time>
      </trkpt>
      <trkpt lat="38.352655" lon="-1.436509">
        <ele>349.6</ele>
        <time>2013-11-02T11:03:56Z</time>
      </trkpt>
      <trkpt lat="38.352870" lon="-1.436619">
        <ele>351.0</ele>
        <time>2013-11-02T11:04:13Z</time>
      </trkpt>
      <trkpt lat="38.353054" lon="-1.436747">
        <ele>351.0</ele>
        <time>2013-11-02T11:04:29Z</time>
      </trkpt>
      <trkpt lat="38.353127" lon="-1.436819">
        <ele>351.5</ele>
        <time>2013-11-02T11:04:41Z</time>
      </trkpt>
      <trkpt lat="38.353189" lon="-1.436878">
        <ele>352.5</ele>
        <time>2013-11-02T11:04:53Z</time>
      </trkpt>
      <trkpt lat="38.353251" lon="-1.436930">
        <ele>352.9</ele>
        <time>2013-11-02T11:05:02Z</time>
      </trkpt>
      <trkpt lat="38.353384" lon="-1.437030">
        <ele>353.9</ele>
        <time>2013-11-02T11:05:17Z</time>
      </trkpt>
      <trkpt lat="38.353417" lon="-1.437072">
        <ele>354.4</ele>
        <time>2013-11-02T11:05:21Z</time>
      </trkpt>
      <trkpt lat="38.353602" lon="-1.437233">
        <ele>355.3</ele>
        <time>2013-11-02T11:05:38Z</time>
      </trkpt>
      <trkpt lat="38.353656" lon="-1.437280">
        <ele>355.3</ele>
        <time>2013-11-02T11:05:43Z</time>
      </trkpt>
      <trkpt lat="38.353678" lon="-1.437286">
        <ele>355.8</ele>
        <time>2013-11-02T11:05:45Z</time>
      </trkpt>
      <trkpt lat="38.353873" lon="-1.437439">
        <ele>355.3</ele>
        <time>2013-11-02T11:06:02Z</time>
      </trkpt>
      <trkpt lat="38.354117" lon="-1.437548">
        <ele>355.3</ele>
        <time>2013-11-02T11:06:22Z</time>
      </trkpt>
      <trkpt lat="38.354343" lon="-1.437622">
        <ele>354.9</ele>
        <time>2013-11-02T11:06:40Z</time>
      </trkpt>
      <trkpt lat="38.354623" lon="-1.437659">
        <ele>353.9</ele>
        <time>2013-11-02T11:07:00Z</time>
      </trkpt>
      <trkpt lat="38.354902" lon="-1.437681">
        <ele>352.5</ele>
        <time>2013-11-02T11:07:20Z</time>
      </trkpt>
      <trkpt lat="38.354997" lon="-1.437678">
        <ele>352.5</ele>
        <time>2013-11-02T11:07:30Z</time>
      </trkpt>
      <trkpt lat="38.355205" lon="-1.437720">
        <ele>350.5</ele>
        <time>2013-11-02T11:07:46Z</time>
      </trkpt>
      <trkpt lat="38.355291" lon="-1.437723">
        <ele>351.0</ele>
        <time>2013-11-02T11:07:53Z</time>
      </trkpt>
      <trkpt lat="38.355314" lon="-1.437732">
        <ele>350.5</ele>
        <time>2013-11-02T11:07:55Z</time>
      </trkpt>
      <trkpt lat="38.355541" lon="-1.437769">
        <ele>349.6</ele>
        <time>2013-11-02T11:08:13Z</time>
      </trkpt>
      <trkpt lat="38.355760" lon="-1.437793">
        <ele>350.1</ele>
        <time>2013-11-02T11:08:29Z</time>
      </trkpt>
      <trkpt lat="38.356004" lon="-1.437825">
        <ele>351.0</ele>
        <time>2013-11-02T11:08:47Z</time>
      </trkpt>
      <trkpt lat="38.356185" lon="-1.437848">
        <ele>350.5</ele>
        <time>2013-11-02T11:09:02Z</time>
      </trkpt>
      <trkpt lat="38.356257" lon="-1.437847">
        <ele>350.5</ele>
        <time>2013-11-02T11:09:11Z</time>
      </trkpt>
      <trkpt lat="38.356487" lon="-1.437895">
        <ele>350.1</ele>
        <time>2013-11-02T11:09:28Z</time>
      </trkpt>
      <trkpt lat="38.356746" lon="-1.437919">
        <ele>349.1</ele>
        <time>2013-11-02T11:09:47Z</time>
      </trkpt>
      <trkpt lat="38.356758" lon="-1.437925">
        <ele>349.1</ele>
        <time>2013-11-02T11:09:48Z</time>
      </trkpt>
      <trkpt lat="38.356855" lon="-1.437929">
        <ele>349.1</ele>
        <time>2013-11-02T11:09:56Z</time>
      </trkpt>
      <trkpt lat="38.356875" lon="-1.437932">
        <ele>349.1</ele>
        <time>2013-11-02T11:09:58Z</time>
      </trkpt>
      <trkpt lat="38.357111" lon="-1.437964">
        <ele>347.6</ele>
        <time>2013-11-02T11:10:15Z</time>
      </trkpt>
      <trkpt lat="38.357364" lon="-1.437993">
        <ele>346.7</ele>
        <time>2013-11-02T11:10:33Z</time>
      </trkpt>
      <trkpt lat="38.357605" lon="-1.438026">
        <ele>345.7</ele>
        <time>2013-11-02T11:10:51Z</time>
      </trkpt>
      <trkpt lat="38.357854" lon="-1.438057">
        <ele>345.2</ele>
        <time>2013-11-02T11:11:10Z</time>
      </trkpt>
      <trkpt lat="38.357954" lon="-1.438060">
        <ele>345.2</ele>
        <time>2013-11-02T11:11:17Z</time>
      </trkpt>
      <trkpt lat="38.358081" lon="-1.438078">
        <ele>345.2</ele>
        <time>2013-11-02T11:11:28Z</time>
      </trkpt>
      <trkpt lat="38.358291" lon="-1.438207">
        <ele>344.8</ele>
        <time>2013-11-02T11:11:45Z</time>
      </trkpt>
      <trkpt lat="38.358366" lon="-1.438422">
        <ele>344.8</ele>
        <time>2013-11-02T11:11:59Z</time>
      </trkpt>
      <trkpt lat="38.358378" lon="-1.438753">
        <ele>344.3</ele>
        <time>2013-11-02T11:12:18Z</time>
      </trkpt>
      <trkpt lat="38.358373" lon="-1.438983">
        <ele>344.3</ele>
        <time>2013-11-02T11:12:33Z</time>
      </trkpt>
      <trkpt lat="38.358356" lon="-1.439038">
        <ele>344.3</ele>
        <time>2013-11-02T11:12:37Z</time>
      </trkpt>
      <trkpt lat="38.358378" lon="-1.439219">
        <ele>345.2</ele>
        <time>2013-11-02T11:12:52Z</time>
      </trkpt>
      <trkpt lat="38.358404" lon="-1.439564">
        <ele>346.2</ele>
        <time>2013-11-02T11:13:10Z</time>
      </trkpt>
      <trkpt lat="38.358408" lon="-1.439580">
        <ele>346.2</ele>
        <time>2013-11-02T11:13:12Z</time>
      </trkpt>
      <trkpt lat="38.358402" lon="-1.439677">
        <ele>346.7</ele>
        <time>2013-11-02T11:13:17Z</time>
      </trkpt>
      <trkpt lat="38.358483" lon="-1.439972">
        <ele>347.2</ele>
        <time>2013-11-02T11:13:34Z</time>
      </trkpt>
      <trkpt lat="38.358485" lon="-1.440011">
        <ele>346.2</ele>
        <time>2013-11-02T11:21:42Z</time>
      </trkpt>
      <trkpt lat="38.358583" lon="-1.440239">
        <ele>347.2</ele>
        <time>2013-11-02T11:21:56Z</time>
      </trkpt>
      <trkpt lat="38.358723" lon="-1.440505">
        <ele>347.2</ele>
        <time>2013-11-02T11:22:13Z</time>
      </trkpt>
      <trkpt lat="38.358845" lon="-1.440729">
        <ele>347.2</ele>
        <time>2013-11-02T11:22:27Z</time>
      </trkpt>
      <trkpt lat="38.358933" lon="-1.440917">
        <ele>347.2</ele>
        <time>2013-11-02T11:22:39Z</time>
      </trkpt>
      <trkpt lat="38.359082" lon="-1.441182">
        <ele>347.2</ele>
        <time>2013-11-02T11:22:56Z</time>
      </trkpt>
      <trkpt lat="38.359185" lon="-1.441420">
        <ele>348.1</ele>
        <time>2013-11-02T11:23:12Z</time>
      </trkpt>
      <trkpt lat="38.359332" lon="-1.441613">
        <ele>347.6</ele>
        <time>2013-11-02T11:23:29Z</time>
      </trkpt>
      <trkpt lat="38.359434" lon="-1.441833">
        <ele>347.2</ele>
        <time>2013-11-02T11:23:44Z</time>
      </trkpt>
      <trkpt lat="38.359547" lon="-1.442049">
        <ele>347.2</ele>
        <time>2013-11-02T11:24:01Z</time>
      </trkpt>
      <trkpt lat="38.359588" lon="-1.442117">
        <ele>347.6</ele>
        <time>2013-11-02T11:24:06Z</time>
      </trkpt>
      <trkpt lat="38.359607" lon="-1.442186">
        <ele>347.2</ele>
        <time>2013-11-02T11:24:11Z</time>
      </trkpt>
      <trkpt lat="38.359662" lon="-1.442292">
        <ele>347.2</ele>
        <time>2013-11-02T11:24:18Z</time>
      </trkpt>
      <trkpt lat="38.359818" lon="-1.442603">
        <ele>348.1</ele>
        <time>2013-11-02T11:24:38Z</time>
      </trkpt>
      <trkpt lat="38.359977" lon="-1.442874">
        <ele>347.6</ele>
        <time>2013-11-02T11:24:56Z</time>
      </trkpt>
      <trkpt lat="38.360154" lon="-1.443131">
        <ele>348.1</ele>
        <time>2013-11-02T11:25:14Z</time>
      </trkpt>
      <trkpt lat="38.360382" lon="-1.443334">
        <ele>348.1</ele>
        <time>2013-11-02T11:25:32Z</time>
      </trkpt>
      <trkpt lat="38.360579" lon="-1.443530">
        <ele>348.6</ele>
        <time>2013-11-02T11:25:49Z</time>
      </trkpt>
      <trkpt lat="38.360796" lon="-1.443761">
        <ele>348.6</ele>
        <time>2013-11-02T11:26:08Z</time>
      </trkpt>
      <trkpt lat="38.361036" lon="-1.443970">
        <ele>348.1</ele>
        <time>2013-11-02T11:26:28Z</time>
      </trkpt>
      <trkpt lat="38.361257" lon="-1.444166">
        <ele>348.6</ele>
        <time>2013-11-02T11:26:47Z</time>
      </trkpt>
      <trkpt lat="38.361404" lon="-1.444426">
        <ele>348.6</ele>
        <time>2013-11-02T11:27:04Z</time>
      </trkpt>
      <trkpt lat="38.361537" lon="-1.444666">
        <ele>349.1</ele>
        <time>2013-11-02T11:27:20Z</time>
      </trkpt>
      <trkpt lat="38.361665" lon="-1.444939">
        <ele>348.6</ele>
        <time>2013-11-02T11:27:37Z</time>
      </trkpt>
      <trkpt lat="38.361780" lon="-1.445217">
        <ele>349.1</ele>
        <time>2013-11-02T11:27:55Z</time>
      </trkpt>
      <trkpt lat="38.361907" lon="-1.445516">
        <ele>349.1</ele>
        <time>2013-11-02T11:28:10Z</time>
      </trkpt>
      <trkpt lat="38.361991" lon="-1.445696">
        <ele>349.1</ele>
        <time>2013-11-02T11:28:26Z</time>
      </trkpt>
      <trkpt lat="38.362106" lon="-1.445946">
        <ele>349.1</ele>
        <time>2013-11-02T11:28:39Z</time>
      </trkpt>
      <trkpt lat="38.362192" lon="-1.446144">
        <ele>349.1</ele>
        <time>2013-11-02T11:28:52Z</time>
      </trkpt>
      <trkpt lat="38.362261" lon="-1.446330">
        <ele>349.6</ele>
        <time>2013-11-02T11:29:05Z</time>
      </trkpt>
      <trkpt lat="38.362350" lon="-1.446594">
        <ele>349.6</ele>
        <time>2013-11-02T11:29:18Z</time>
      </trkpt>
      <trkpt lat="38.362427" lon="-1.446820">
        <ele>349.6</ele>
        <time>2013-11-02T11:29:33Z</time>
      </trkpt>
      <trkpt lat="38.362468" lon="-1.447022">
        <ele>349.1</ele>
        <time>2013-11-02T11:29:46Z</time>
      </trkpt>
      <trkpt lat="38.362474" lon="-1.447045">
        <ele>349.6</ele>
        <time>2013-11-02T11:29:48Z</time>
      </trkpt>
      <trkpt lat="38.362500" lon="-1.447125">
        <ele>349.6</ele>
        <time>2013-11-02T11:29:52Z</time>
      </trkpt>
      <trkpt lat="38.362551" lon="-1.447348">
        <ele>349.6</ele>
        <time>2013-11-02T11:30:12Z</time>
      </trkpt>
      <trkpt lat="38.362582" lon="-1.447386">
        <ele>350.5</ele>
        <time>2013-11-02T11:30:18Z</time>
      </trkpt>
      <trkpt lat="38.362628" lon="-1.447376">
        <ele>350.5</ele>
        <time>2013-11-02T11:31:41Z</time>
      </trkpt>
      <trkpt lat="38.362710" lon="-1.447296">
        <ele>351.0</ele>
        <time>2013-11-02T11:31:54Z</time>
      </trkpt>
      <trkpt lat="38.362764" lon="-1.447272">
        <ele>350.5</ele>
        <time>2013-11-02T11:32:00Z</time>
      </trkpt>
      <trkpt lat="38.362861" lon="-1.447226">
        <ele>351.0</ele>
        <time>2013-11-02T11:32:11Z</time>
      </trkpt>
      <trkpt lat="38.362877" lon="-1.447220">
        <ele>351.5</ele>
        <time>2013-11-02T11:32:13Z</time>
      </trkpt>
      <trkpt lat="38.362948" lon="-1.447178">
        <ele>351.5</ele>
        <time>2013-11-02T11:32:20Z</time>
      </trkpt>
      <trkpt lat="38.363111" lon="-1.447102">
        <ele>351.5</ele>
        <time>2013-11-02T11:32:35Z</time>
      </trkpt>
      <trkpt lat="38.363281" lon="-1.447040">
        <ele>351.5</ele>
        <time>2013-11-02T11:32:50Z</time>
      </trkpt>
      <trkpt lat="38.363466" lon="-1.446969">
        <ele>351.5</ele>
        <time>2013-11-02T11:33:05Z</time>
      </trkpt>
      <trkpt lat="38.363623" lon="-1.446894">
        <ele>351.0</ele>
        <time>2013-11-02T11:33:19Z</time>
      </trkpt>
      <trkpt lat="38.363788" lon="-1.446824">
        <ele>351.0</ele>
        <time>2013-11-02T11:33:33Z</time>
      </trkpt>
      <trkpt lat="38.363974" lon="-1.446889">
        <ele>351.5</ele>
        <time>2013-11-02T11:33:50Z</time>
      </trkpt>
      <trkpt lat="38.363996" lon="-1.446897">
        <ele>352.0</ele>
        <time>2013-11-02T11:33:52Z</time>
      </trkpt>
      <trkpt lat="38.364116" lon="-1.446956">
        <ele>351.5</ele>
        <time>2013-11-02T11:34:04Z</time>
      </trkpt>
      <trkpt lat="38.364308" lon="-1.447027">
        <ele>352.0</ele>
        <time>2013-11-02T11:34:21Z</time>
      </trkpt>
      <trkpt lat="38.364461" lon="-1.447075">
        <ele>351.5</ele>
        <time>2013-11-02T11:34:34Z</time>
      </trkpt>
      <trkpt lat="38.364599" lon="-1.447158">
        <ele>352.5</ele>
        <time>2013-11-02T11:34:47Z</time>
      </trkpt>
      <trkpt lat="38.364763" lon="-1.447241">
        <ele>352.5</ele>
        <time>2013-11-02T11:35:02Z</time>
      </trkpt>
      <trkpt lat="38.364891" lon="-1.447296">
        <ele>352.5</ele>
        <time>2013-11-02T11:35:16Z</time>
      </trkpt>
      <trkpt lat="38.364942" lon="-1.447324">
        <ele>352.5</ele>
        <time>2013-11-02T11:35:21Z</time>
      </trkpt>
      <trkpt lat="38.364977" lon="-1.447329">
        <ele>352.5</ele>
        <time>2013-11-02T11:35:24Z</time>
      </trkpt>
      <trkpt lat="38.365082" lon="-1.447359">
        <ele>352.5</ele>
        <time>2013-11-02T11:35:35Z</time>
      </trkpt>
      <trkpt lat="38.365191" lon="-1.447597">
        <ele>352.5</ele>
        <time>2013-11-02T11:35:51Z</time>
      </trkpt>
      <trkpt lat="38.365207" lon="-1.447637">
        <ele>352.9</ele>
        <time>2013-11-02T11:35:54Z</time>
      </trkpt>
      <trkpt lat="38.365236" lon="-1.447729">
        <ele>352.9</ele>
        <time>2013-11-02T11:36:00Z</time>
      </trkpt>
      <trkpt lat="38.365316" lon="-1.447952">
        <ele>353.4</ele>
        <time>2013-11-02T11:36:17Z</time>
      </trkpt>
      <trkpt lat="38.365389" lon="-1.448150">
        <ele>353.4</ele>
        <time>2013-11-02T11:36:31Z</time>
      </trkpt>
      <trkpt lat="38.365422" lon="-1.448248">
        <ele>353.9</ele>
        <time>2013-11-02T11:36:37Z</time>
      </trkpt>
      <trkpt lat="38.365497" lon="-1.448359">
        <ele>354.9</ele>
        <time>2013-11-02T11:36:48Z</time>
      </trkpt>
      <trkpt lat="38.365597" lon="-1.448574">
        <ele>354.4</ele>
        <time>2013-11-02T11:37:04Z</time>
      </trkpt>
      <trkpt lat="38.365670" lon="-1.448759">
        <ele>354.9</ele>
        <time>2013-11-02T11:37:17Z</time>
      </trkpt>
      <trkpt lat="38.365676" lon="-1.448773">
        <ele>354.9</ele>
        <time>2013-11-02T11:37:18Z</time>
      </trkpt>
      <trkpt lat="38.365735" lon="-1.448906">
        <ele>354.9</ele>
        <time>2013-11-02T11:37:28Z</time>
      </trkpt>
      <trkpt lat="38.365766" lon="-1.449020">
        <ele>355.3</ele>
        <time>2013-11-02T11:37:36Z</time>
      </trkpt>
      <trkpt lat="38.365837" lon="-1.449202">
        <ele>355.3</ele>
        <time>2013-11-02T11:37:50Z</time>
      </trkpt>
      <trkpt lat="38.365848" lon="-1.449223">
        <ele>355.8</ele>
        <time>2013-11-02T11:37:52Z</time>
      </trkpt>
      <trkpt lat="38.365871" lon="-1.449308">
        <ele>355.8</ele>
        <time>2013-11-02T11:37:58Z</time>
      </trkpt>
      <trkpt lat="38.365980" lon="-1.449572">
        <ele>356.3</ele>
        <time>2013-11-02T11:38:16Z</time>
      </trkpt>
      <trkpt lat="38.366085" lon="-1.449774">
        <ele>356.8</ele>
        <time>2013-11-02T11:38:32Z</time>
      </trkpt>
      <trkpt lat="38.366191" lon="-1.449927">
        <ele>356.3</ele>
        <time>2013-11-02T11:38:46Z</time>
      </trkpt>
      <trkpt lat="38.366259" lon="-1.450122">
        <ele>357.3</ele>
        <time>2013-11-02T11:39:00Z</time>
      </trkpt>
      <trkpt lat="38.366342" lon="-1.450325">
        <ele>357.8</ele>
        <time>2013-11-02T11:39:15Z</time>
      </trkpt>
      <trkpt lat="38.366447" lon="-1.450553">
        <ele>358.7</ele>
        <time>2013-11-02T11:39:32Z</time>
      </trkpt>
      <trkpt lat="38.366544" lon="-1.450787">
        <ele>359.2</ele>
        <time>2013-11-02T11:39:48Z</time>
      </trkpt>
      <trkpt lat="38.366630" lon="-1.450975">
        <ele>359.7</ele>
        <time>2013-11-02T11:40:02Z</time>
      </trkpt>
      <trkpt lat="38.366637" lon="-1.450989">
        <ele>359.7</ele>
        <time>2013-11-02T11:40:03Z</time>
      </trkpt>
      <trkpt lat="38.366673" lon="-1.451020">
        <ele>359.7</ele>
        <time>2013-11-02T11:40:07Z</time>
      </trkpt>
      <trkpt lat="38.366691" lon="-1.451049">
        <ele>359.7</ele>
        <time>2013-11-02T11:40:10Z</time>
      </trkpt>
      <trkpt lat="38.366713" lon="-1.451077">
        <ele>360.1</ele>
        <time>2013-11-02T11:40:13Z</time>
      </trkpt>
      <trkpt lat="38.366741" lon="-1.451130">
        <ele>359.7</ele>
        <time>2013-11-02T11:40:18Z</time>
      </trkpt>
      <trkpt lat="38.366772" lon="-1.451202">
        <ele>360.1</ele>
        <time>2013-11-02T11:40:24Z</time>
      </trkpt>
      <trkpt lat="38.366792" lon="-1.451242">
        <ele>360.6</ele>
        <time>2013-11-02T11:40:27Z</time>
      </trkpt>
      <trkpt lat="38.366829" lon="-1.451309">
        <ele>359.7</ele>
        <time>2013-11-02T11:40:33Z</time>
      </trkpt>
      <trkpt lat="38.366854" lon="-1.451371">
        <ele>360.6</ele>
        <time>2013-11-02T11:40:39Z</time>
      </trkpt>
      <trkpt lat="38.366876" lon="-1.451556">
        <ele>361.1</ele>
        <time>2013-11-02T11:40:52Z</time>
      </trkpt>
      <trkpt lat="38.366882" lon="-1.451634">
        <ele>361.6</ele>
        <time>2013-11-02T11:41:04Z</time>
      </trkpt>
      <trkpt lat="38.366883" lon="-1.451601">
        <ele>361.6</ele>
        <time>2013-11-02T11:41:17Z</time>
      </trkpt>
      <trkpt lat="38.366885" lon="-1.451610">
        <ele>361.6</ele>
        <time>2013-11-02T11:41:20Z</time>
      </trkpt>
      <trkpt lat="38.366884" lon="-1.451649">
        <ele>361.6</ele>
        <time>2013-11-02T11:41:23Z</time>
      </trkpt>
      <trkpt lat="38.366875" lon="-1.451741">
        <ele>361.6</ele>
        <time>2013-11-02T11:41:29Z</time>
      </trkpt>
      <trkpt lat="38.366832" lon="-1.451848">
        <ele>361.6</ele>
        <time>2013-11-02T11:41:36Z</time>
      </trkpt>
      <trkpt lat="38.366816" lon="-1.451908">
        <ele>361.6</ele>
        <time>2013-11-02T11:41:40Z</time>
      </trkpt>
      <trkpt lat="38.366775" lon="-1.452010">
        <ele>362.1</ele>
        <time>2013-11-02T11:41:48Z</time>
      </trkpt>
      <trkpt lat="38.366751" lon="-1.452115">
        <ele>362.5</ele>
        <time>2013-11-02T11:41:55Z</time>
      </trkpt>
      <trkpt lat="38.366733" lon="-1.452317">
        <ele>363.0</ele>
        <time>2013-11-02T11:42:10Z</time>
      </trkpt>
      <trkpt lat="38.366753" lon="-1.452384">
        <ele>362.5</ele>
        <time>2013-11-02T11:42:14Z</time>
      </trkpt>
      <trkpt lat="38.366817" lon="-1.452673">
        <ele>363.5</ele>
        <time>2013-11-02T11:42:31Z</time>
      </trkpt>
      <trkpt lat="38.366906" lon="-1.452944">
        <ele>364.0</ele>
        <time>2013-11-02T11:42:48Z</time>
      </trkpt>
      <trkpt lat="38.366976" lon="-1.453194">
        <ele>365.0</ele>
        <time>2013-11-02T11:43:03Z</time>
      </trkpt>
      <trkpt lat="38.367060" lon="-1.453477">
        <ele>365.9</ele>
        <time>2013-11-02T11:43:21Z</time>
      </trkpt>
      <trkpt lat="38.367106" lon="-1.453583">
        <ele>365.9</ele>
        <time>2013-11-02T11:43:28Z</time>
      </trkpt>
      <trkpt lat="38.367113" lon="-1.453610">
        <ele>365.9</ele>
        <time>2013-11-02T11:43:30Z</time>
      </trkpt>
      <trkpt lat="38.367204" lon="-1.453822">
        <ele>366.9</ele>
        <time>2013-11-02T11:43:45Z</time>
      </trkpt>
      <trkpt lat="38.367209" lon="-1.453853">
        <ele>366.4</ele>
        <time>2013-11-02T11:43:47Z</time>
      </trkpt>
      <trkpt lat="38.367292" lon="-1.454102">
        <ele>367.4</ele>
        <time>2013-11-02T11:44:04Z</time>
      </trkpt>
      <trkpt lat="38.367316" lon="-1.454179">
        <ele>366.9</ele>
        <time>2013-11-02T11:44:09Z</time>
      </trkpt>
      <trkpt lat="38.367357" lon="-1.454307">
        <ele>367.4</ele>
        <time>2013-11-02T11:44:18Z</time>
      </trkpt>
      <trkpt lat="38.367373" lon="-1.454362">
        <ele>367.4</ele>
        <time>2013-11-02T11:44:22Z</time>
      </trkpt>
      <trkpt lat="38.367408" lon="-1.454468">
        <ele>367.8</ele>
        <time>2013-11-02T11:44:30Z</time>
      </trkpt>
      <trkpt lat="38.367435" lon="-1.454550">
        <ele>367.8</ele>
        <time>2013-11-02T11:44:36Z</time>
      </trkpt>
      <trkpt lat="38.367463" lon="-1.454626">
        <ele>368.3</ele>
        <time>2013-11-02T11:44:42Z</time>
      </trkpt>
      <trkpt lat="38.367535" lon="-1.454854">
        <ele>368.8</ele>
        <time>2013-11-02T11:44:58Z</time>
      </trkpt>
      <trkpt lat="38.367560" lon="-1.454924">
        <ele>369.3</ele>
        <time>2013-11-02T11:45:03Z</time>
      </trkpt>
      <trkpt lat="38.367575" lon="-1.454984">
        <ele>369.3</ele>
        <time>2013-11-02T11:45:07Z</time>
      </trkpt>
      <trkpt lat="38.367649" lon="-1.455221">
        <ele>369.8</ele>
        <time>2013-11-02T11:45:23Z</time>
      </trkpt>
      <trkpt lat="38.367692" lon="-1.455342">
        <ele>370.2</ele>
        <time>2013-11-02T11:45:31Z</time>
      </trkpt>
      <trkpt lat="38.367761" lon="-1.455561">
        <ele>370.7</ele>
        <time>2013-11-02T11:45:47Z</time>
      </trkpt>
      <trkpt lat="38.367842" lon="-1.455809">
        <ele>371.7</ele>
        <time>2013-11-02T11:46:04Z</time>
      </trkpt>
      <trkpt lat="38.367925" lon="-1.456050">
        <ele>371.7</ele>
        <time>2013-11-02T11:46:21Z</time>
      </trkpt>
      <trkpt lat="38.367977" lon="-1.456184">
        <ele>372.6</ele>
        <time>2013-11-02T11:46:31Z</time>
      </trkpt>
      <trkpt lat="38.368017" lon="-1.456253">
        <ele>372.6</ele>
        <time>2013-11-02T11:46:36Z</time>
      </trkpt>
      <trkpt lat="38.368021" lon="-1.456279">
        <ele>373.1</ele>
        <time>2013-11-02T11:46:38Z</time>
      </trkpt>
      <trkpt lat="38.368051" lon="-1.456347">
        <ele>373.6</ele>
        <time>2013-11-02T11:46:43Z</time>
      </trkpt>
      <trkpt lat="38.368120" lon="-1.456582">
        <ele>374.6</ele>
        <time>2013-11-02T11:47:00Z</time>
      </trkpt>
      <trkpt lat="38.368188" lon="-1.456820">
        <ele>374.6</ele>
        <time>2013-11-02T11:47:16Z</time>
      </trkpt>
      <trkpt lat="38.368220" lon="-1.456923">
        <ele>375.0</ele>
        <time>2013-11-02T11:47:23Z</time>
      </trkpt>
      <trkpt lat="38.368246" lon="-1.456994">
        <ele>375.0</ele>
        <time>2013-11-02T11:47:28Z</time>
      </trkpt>
      <trkpt lat="38.368316" lon="-1.457203">
        <ele>374.6</ele>
        <time>2013-11-02T11:47:43Z</time>
      </trkpt>
      <trkpt lat="38.368359" lon="-1.457315">
        <ele>375.0</ele>
        <time>2013-11-02T11:47:51Z</time>
      </trkpt>
      <trkpt lat="38.368387" lon="-1.457401">
        <ele>375.5</ele>
        <time>2013-11-02T11:47:57Z</time>
      </trkpt>
      <trkpt lat="38.368477" lon="-1.457629">
        <ele>376.0</ele>
        <time>2013-11-02T11:48:13Z</time>
      </trkpt>
      <trkpt lat="38.368483" lon="-1.457858">
        <ele>376.5</ele>
        <time>2013-11-02T11:48:28Z</time>
      </trkpt>
      <trkpt lat="38.368484" lon="-1.457854">
        <ele>377.0</ele>
        <time>2013-11-02T11:48:43Z</time>
      </trkpt>
      <trkpt lat="38.368485" lon="-1.457870">
        <ele>377.0</ele>
        <time>2013-11-02T11:48:59Z</time>
      </trkpt>
      <trkpt lat="38.368490" lon="-1.457911">
        <ele>377.0</ele>
        <time>2013-11-02T11:49:18Z</time>
      </trkpt>
      <trkpt lat="38.368489" lon="-1.457906">
        <ele>377.5</ele>
        <time>2013-11-02T11:49:33Z</time>
      </trkpt>
      <trkpt lat="38.368491" lon="-1.457906">
        <ele>377.5</ele>
        <time>2013-11-02T11:49:48Z</time>
      </trkpt>
      <trkpt lat="38.368485" lon="-1.457913">
        <ele>377.0</ele>
        <time>2013-11-02T11:50:08Z</time>
      </trkpt>
      <trkpt lat="38.368478" lon="-1.457950">
        <ele>377.5</ele>
        <time>2013-11-02T11:50:17Z</time>
      </trkpt>
      <trkpt lat="38.368461" lon="-1.457983">
        <ele>377.9</ele>
        <time>2013-11-02T11:50:20Z</time>
      </trkpt>
      <trkpt lat="38.368439" lon="-1.458089">
        <ele>377.9</ele>
        <time>2013-11-02T11:50:27Z</time>
      </trkpt>
      <trkpt lat="38.368440" lon="-1.458361">
        <ele>378.4</ele>
        <time>2013-11-02T11:50:44Z</time>
      </trkpt>
      <trkpt lat="38.368486" lon="-1.458493">
        <ele>378.4</ele>
        <time>2013-11-02T11:50:53Z</time>
      </trkpt>
      <trkpt lat="38.368506" lon="-1.458551">
        <ele>378.9</ele>
        <time>2013-11-02T11:50:57Z</time>
      </trkpt>
      <trkpt lat="38.368584" lon="-1.458737">
        <ele>378.9</ele>
        <time>2013-11-02T11:51:10Z</time>
      </trkpt>
      <trkpt lat="38.368600" lon="-1.458825">
        <ele>379.4</ele>
        <time>2013-11-02T11:51:16Z</time>
      </trkpt>
      <trkpt lat="38.368613" lon="-1.459026">
        <ele>380.3</ele>
        <time>2013-11-02T11:51:30Z</time>
      </trkpt>
      <trkpt lat="38.368621" lon="-1.459087">
        <ele>379.9</ele>
        <time>2013-11-02T11:51:34Z</time>
      </trkpt>
      <trkpt lat="38.368634" lon="-1.459139">
        <ele>380.3</ele>
        <time>2013-11-02T11:51:37Z</time>
      </trkpt>
      <trkpt lat="38.368632" lon="-1.459205">
        <ele>380.3</ele>
        <time>2013-11-02T11:51:41Z</time>
      </trkpt>
      <trkpt lat="38.368681" lon="-1.459422">
        <ele>380.8</ele>
        <time>2013-11-02T11:51:57Z</time>
      </trkpt>
      <trkpt lat="38.368701" lon="-1.459509">
        <ele>380.8</ele>
        <time>2013-11-02T11:52:03Z</time>
      </trkpt>
      <trkpt lat="38.368725" lon="-1.459775">
        <ele>381.8</ele>
        <time>2013-11-02T11:52:19Z</time>
      </trkpt>
      <trkpt lat="38.368756" lon="-1.459998">
        <ele>382.7</ele>
        <time>2013-11-02T11:52:33Z</time>
      </trkpt>
      <trkpt lat="38.368796" lon="-1.460276">
        <ele>383.2</ele>
        <time>2013-11-02T11:52:50Z</time>
      </trkpt>
      <trkpt lat="38.368834" lon="-1.460493">
        <ele>384.2</ele>
        <time>2013-11-02T11:53:04Z</time>
      </trkpt>
      <trkpt lat="38.368839" lon="-1.460566">
        <ele>384.7</ele>
        <time>2013-11-02T11:53:09Z</time>
      </trkpt>
      <trkpt lat="38.368844" lon="-1.460646">
        <ele>384.2</ele>
        <time>2013-11-02T11:53:14Z</time>
      </trkpt>
      <trkpt lat="38.368854" lon="-1.460706">
        <ele>385.1</ele>
        <time>2013-11-02T11:53:18Z</time>
      </trkpt>
      <trkpt lat="38.368856" lon="-1.460767">
        <ele>384.7</ele>
        <time>2013-11-02T11:53:22Z</time>
      </trkpt>
      <trkpt lat="38.368899" lon="-1.461019">
        <ele>385.6</ele>
        <time>2013-11-02T11:53:38Z</time>
      </trkpt>
      <trkpt lat="38.368901" lon="-1.461035">
        <ele>385.6</ele>
        <time>2013-11-02T11:53:39Z</time>
      </trkpt>
      <trkpt lat="38.368936" lon="-1.461243">
        <ele>386.1</ele>
        <time>2013-11-02T11:53:53Z</time>
      </trkpt>
      <trkpt lat="38.368960" lon="-1.461466">
        <ele>387.1</ele>
        <time>2013-11-02T11:54:07Z</time>
      </trkpt>
      <trkpt lat="38.368976" lon="-1.461583">
        <ele>387.5</ele>
        <time>2013-11-02T11:54:15Z</time>
      </trkpt>
      <trkpt lat="38.368987" lon="-1.461639">
        <ele>387.5</ele>
        <time>2013-11-02T11:54:19Z</time>
      </trkpt>
      <trkpt lat="38.369017" lon="-1.461911">
        <ele>388.5</ele>
        <time>2013-11-02T11:54:35Z</time>
      </trkpt>
      <trkpt lat="38.369042" lon="-1.462073">
        <ele>389.0</ele>
        <time>2013-11-02T11:54:45Z</time>
      </trkpt>
      <trkpt lat="38.369043" lon="-1.462201">
        <ele>389.5</ele>
        <time>2013-11-02T11:54:54Z</time>
      </trkpt>
      <trkpt lat="38.369071" lon="-1.462410">
        <ele>390.0</ele>
        <time>2013-11-02T11:55:07Z</time>
      </trkpt>
      <trkpt lat="38.369108" lon="-1.462656">
        <ele>390.4</ele>
        <time>2013-11-02T11:55:22Z</time>
      </trkpt>
      <trkpt lat="38.369149" lon="-1.462864">
        <ele>390.9</ele>
        <time>2013-11-02T11:55:36Z</time>
      </trkpt>
      <trkpt lat="38.369156" lon="-1.462910">
        <ele>391.4</ele>
        <time>2013-11-02T11:55:39Z</time>
      </trkpt>
      <trkpt lat="38.369210" lon="-1.463088">
        <ele>391.9</ele>
        <time>2013-11-02T11:55:52Z</time>
      </trkpt>
      <trkpt lat="38.369227" lon="-1.463338">
        <ele>392.4</ele>
        <time>2013-11-02T11:56:09Z</time>
      </trkpt>
      <trkpt lat="38.369252" lon="-1.463513">
        <ele>393.3</ele>
        <time>2013-11-02T11:56:22Z</time>
      </trkpt>
      <trkpt lat="38.369304" lon="-1.463729">
        <ele>394.3</ele>
        <time>2013-11-02T11:56:38Z</time>
      </trkpt>
      <trkpt lat="38.369363" lon="-1.463968">
        <ele>394.8</ele>
        <time>2013-11-02T11:56:54Z</time>
      </trkpt>
      <trkpt lat="38.369389" lon="-1.464113">
        <ele>394.8</ele>
        <time>2013-11-02T11:57:03Z</time>
      </trkpt>
      <trkpt lat="38.369440" lon="-1.464456">
        <ele>395.7</ele>
        <time>2013-11-02T11:57:23Z</time>
      </trkpt>
      <trkpt lat="38.369448" lon="-1.464758">
        <ele>396.7</ele>
        <time>2013-11-02T11:57:40Z</time>
      </trkpt>
      <trkpt lat="38.369426" lon="-1.465034">
        <ele>398.6</ele>
        <time>2013-11-02T11:57:56Z</time>
      </trkpt>
      <trkpt lat="38.369405" lon="-1.465284">
        <ele>399.6</ele>
        <time>2013-11-02T11:58:10Z</time>
      </trkpt>
      <trkpt lat="38.369402" lon="-1.465590">
        <ele>400.0</ele>
        <time>2013-11-02T11:58:28Z</time>
      </trkpt>
      <trkpt lat="38.369414" lon="-1.465887">
        <ele>401.0</ele>
        <time>2013-11-02T11:58:45Z</time>
      </trkpt>
      <trkpt lat="38.369438" lon="-1.466148">
        <ele>401.5</ele>
        <time>2013-11-02T11:59:00Z</time>
      </trkpt>
      <trkpt lat="38.369454" lon="-1.466427">
        <ele>402.5</ele>
        <time>2013-11-02T11:59:16Z</time>
      </trkpt>
      <trkpt lat="38.369466" lon="-1.466707">
        <ele>403.4</ele>
        <time>2013-11-02T11:59:33Z</time>
      </trkpt>
      <trkpt lat="38.369453" lon="-1.466828">
        <ele>404.4</ele>
        <time>2013-11-02T11:59:40Z</time>
      </trkpt>
      <trkpt lat="38.369459" lon="-1.467102">
        <ele>405.3</ele>
        <time>2013-11-02T11:59:56Z</time>
      </trkpt>
      <trkpt lat="38.369412" lon="-1.467356">
        <ele>405.8</ele>
        <time>2013-11-02T12:00:12Z</time>
      </trkpt>
      <trkpt lat="38.369371" lon="-1.467602">
        <ele>406.3</ele>
        <time>2013-11-02T12:00:28Z</time>
      </trkpt>
      <trkpt lat="38.369335" lon="-1.467871">
        <ele>407.3</ele>
        <time>2013-11-02T12:00:45Z</time>
      </trkpt>
      <trkpt lat="38.369282" lon="-1.468129">
        <ele>408.7</ele>
        <time>2013-11-02T12:01:01Z</time>
      </trkpt>
      <trkpt lat="38.369254" lon="-1.468373">
        <ele>409.7</ele>
        <time>2013-11-02T12:01:16Z</time>
      </trkpt>
      <trkpt lat="38.369233" lon="-1.468609">
        <ele>410.6</ele>
        <time>2013-11-02T12:01:31Z</time>
      </trkpt>
      <trkpt lat="38.369211" lon="-1.468821">
        <ele>411.1</ele>
        <time>2013-11-02T12:01:43Z</time>
      </trkpt>
      <trkpt lat="38.369197" lon="-1.468887">
        <ele>411.1</ele>
        <time>2013-11-02T12:01:48Z</time>
      </trkpt>
      <trkpt lat="38.369215" lon="-1.469100">
        <ele>413.0</ele>
        <time>2013-11-02T12:02:02Z</time>
      </trkpt>
      <trkpt lat="38.369219" lon="-1.469117">
        <ele>412.5</ele>
        <time>2013-11-02T12:02:03Z</time>
      </trkpt>
      <trkpt lat="38.369219" lon="-1.469207">
        <ele>413.0</ele>
        <time>2013-11-02T12:02:08Z</time>
      </trkpt>
      <trkpt lat="38.369230" lon="-1.469275">
        <ele>413.5</ele>
        <time>2013-11-02T12:02:12Z</time>
      </trkpt>
      <trkpt lat="38.369236" lon="-1.469428">
        <ele>414.0</ele>
        <time>2013-11-02T12:02:21Z</time>
      </trkpt>
      <trkpt lat="38.369242" lon="-1.469674">
        <ele>414.5</ele>
        <time>2013-11-02T12:02:36Z</time>
      </trkpt>
      <trkpt lat="38.369254" lon="-1.469897">
        <ele>415.0</ele>
        <time>2013-11-02T12:02:49Z</time>
      </trkpt>
      <trkpt lat="38.369284" lon="-1.470157">
        <ele>416.9</ele>
        <time>2013-11-02T12:03:05Z</time>
      </trkpt>
      <trkpt lat="38.369296" lon="-1.470408">
        <ele>417.4</ele>
        <time>2013-11-02T12:03:20Z</time>
      </trkpt>
      <trkpt lat="38.369302" lon="-1.470580">
        <ele>418.3</ele>
        <time>2013-11-02T12:03:32Z</time>
      </trkpt>
      <trkpt lat="38.369306" lon="-1.470611">
        <ele>419.3</ele>
        <time>2013-11-02T12:03:35Z</time>
      </trkpt>
      <trkpt lat="38.369349" lon="-1.470816">
        <ele>419.3</ele>
        <time>2013-11-02T12:03:49Z</time>
      </trkpt>
      <trkpt lat="38.369353" lon="-1.470863">
        <ele>420.2</ele>
        <time>2013-11-02T12:03:52Z</time>
      </trkpt>
      <trkpt lat="38.369388" lon="-1.470980">
        <ele>420.2</ele>
        <time>2013-11-02T12:04:02Z</time>
      </trkpt>
      <trkpt lat="38.369426" lon="-1.471215">
        <ele>421.7</ele>
        <time>2013-11-02T12:04:17Z</time>
      </trkpt>
      <trkpt lat="38.369428" lon="-1.471398">
        <ele>421.7</ele>
        <time>2013-11-02T12:04:31Z</time>
      </trkpt>
      <trkpt lat="38.369358" lon="-1.471574">
        <ele>423.1</ele>
        <time>2013-11-02T12:04:46Z</time>
      </trkpt>
      <trkpt lat="38.369334" lon="-1.471612">
        <ele>423.1</ele>
        <time>2013-11-02T12:04:50Z</time>
      </trkpt>
      <trkpt lat="38.369282" lon="-1.471694">
        <ele>423.6</ele>
        <time>2013-11-02T12:04:57Z</time>
      </trkpt>
      <trkpt lat="38.369186" lon="-1.471845">
        <ele>423.1</ele>
        <time>2013-11-02T12:05:10Z</time>
      </trkpt>
      <trkpt lat="38.369043" lon="-1.471911">
        <ele>424.1</ele>
        <time>2013-11-02T12:05:24Z</time>
      </trkpt>
      <trkpt lat="38.368826" lon="-1.471996">
        <ele>425.0</ele>
        <time>2013-11-02T12:05:41Z</time>
      </trkpt>
      <trkpt lat="38.368640" lon="-1.472051">
        <ele>424.6</ele>
        <time>2013-11-02T12:05:57Z</time>
      </trkpt>
      <trkpt lat="38.368422" lon="-1.472151">
        <ele>425.0</ele>
        <time>2013-11-02T12:06:15Z</time>
      </trkpt>
      <trkpt lat="38.368275" lon="-1.472206">
        <ele>425.0</ele>
        <time>2013-11-02T12:06:30Z</time>
      </trkpt>
      <trkpt lat="38.368237" lon="-1.472229">
        <ele>425.0</ele>
        <time>2013-11-02T12:06:36Z</time>
      </trkpt>
      <trkpt lat="38.368022" lon="-1.472363">
        <ele>424.1</ele>
        <time>2013-11-02T12:06:53Z</time>
      </trkpt>
      <trkpt lat="38.367847" lon="-1.472462">
        <ele>425.0</ele>
        <time>2013-11-02T12:07:08Z</time>
      </trkpt>
      <trkpt lat="38.367712" lon="-1.472545">
        <ele>424.6</ele>
        <time>2013-11-02T12:07:20Z</time>
      </trkpt>
      <trkpt lat="38.367686" lon="-1.472539">
        <ele>424.1</ele>
        <time>2013-11-02T12:07:32Z</time>
      </trkpt>
      <trkpt lat="38.367683" lon="-1.472552">
        <ele>424.1</ele>
        <time>2013-11-02T12:07:50Z</time>
      </trkpt>
      <trkpt lat="38.367707" lon="-1.472547">
        <ele>425.0</ele>
        <time>2013-11-02T12:08:07Z</time>
      </trkpt>
      <trkpt lat="38.367700" lon="-1.472547">
        <ele>424.1</ele>
        <time>2013-11-02T12:08:19Z</time>
      </trkpt>
      <trkpt lat="38.367624" lon="-1.472603">
        <ele>423.6</ele>
        <time>2013-11-02T12:08:33Z</time>
      </trkpt>
      <trkpt lat="38.367621" lon="-1.472608">
        <ele>424.1</ele>
        <time>2013-11-02T12:08:46Z</time>
      </trkpt>
      <trkpt lat="38.367558" lon="-1.472633">
        <ele>423.6</ele>
        <time>2013-11-02T12:08:58Z</time>
      </trkpt>
      <trkpt lat="38.367417" lon="-1.472668">
        <ele>423.1</ele>
        <time>2013-11-02T12:09:12Z</time>
      </trkpt>
      <trkpt lat="38.367397" lon="-1.472664">
        <ele>423.6</ele>
        <time>2013-11-02T12:09:14Z</time>
      </trkpt>
      <trkpt lat="38.367353" lon="-1.472657">
        <ele>423.1</ele>
        <time>2013-11-02T12:09:18Z</time>
      </trkpt>
      <trkpt lat="38.367325" lon="-1.472643">
        <ele>423.6</ele>
        <time>2013-11-02T12:09:21Z</time>
      </trkpt>
      <trkpt lat="38.367151" lon="-1.472573">
        <ele>422.6</ele>
        <time>2013-11-02T12:09:37Z</time>
      </trkpt>
      <trkpt lat="38.366976" lon="-1.472512">
        <ele>422.2</ele>
        <time>2013-11-02T12:09:53Z</time>
      </trkpt>
      <trkpt lat="38.366786" lon="-1.472499">
        <ele>422.2</ele>
        <time>2013-11-02T12:10:10Z</time>
      </trkpt>
      <trkpt lat="38.366606" lon="-1.472554">
        <ele>421.2</ele>
        <time>2013-11-02T12:10:26Z</time>
      </trkpt>
      <trkpt lat="38.366407" lon="-1.472595">
        <ele>421.7</ele>
        <time>2013-11-02T12:10:43Z</time>
      </trkpt>
      <trkpt lat="38.366203" lon="-1.472626">
        <ele>420.2</ele>
        <time>2013-11-02T12:10:59Z</time>
      </trkpt>
      <trkpt lat="38.365994" lon="-1.472563">
        <ele>419.8</ele>
        <time>2013-11-02T12:11:17Z</time>
      </trkpt>
      <trkpt lat="38.365809" lon="-1.472468">
        <ele>418.8</ele>
        <time>2013-11-02T12:11:33Z</time>
      </trkpt>
      <trkpt lat="38.365586" lon="-1.472412">
        <ele>418.3</ele>
        <time>2013-11-02T12:11:51Z</time>
      </trkpt>
      <trkpt lat="38.365336" lon="-1.472408">
        <ele>417.4</ele>
        <time>2013-11-02T12:12:10Z</time>
      </trkpt>
      <trkpt lat="38.365161" lon="-1.472579">
        <ele>417.4</ele>
        <time>2013-11-02T12:12:27Z</time>
      </trkpt>
      <trkpt lat="38.365084" lon="-1.472630">
        <ele>417.4</ele>
        <time>2013-11-02T12:12:34Z</time>
      </trkpt>
      <trkpt lat="38.364932" lon="-1.472751">
        <ele>418.3</ele>
        <time>2013-11-02T12:12:48Z</time>
      </trkpt>
      <trkpt lat="38.364756" lon="-1.472907">
        <ele>418.3</ele>
        <time>2013-11-02T12:13:05Z</time>
      </trkpt>
      <trkpt lat="38.364555" lon="-1.473064">
        <ele>417.8</ele>
        <time>2013-11-02T12:13:23Z</time>
      </trkpt>
      <trkpt lat="38.364357" lon="-1.473168">
        <ele>416.9</ele>
        <time>2013-11-02T12:13:40Z</time>
      </trkpt>
      <trkpt lat="38.364181" lon="-1.473261">
        <ele>416.4</ele>
        <time>2013-11-02T12:13:55Z</time>
      </trkpt>
      <trkpt lat="38.364020" lon="-1.473444">
        <ele>417.8</ele>
        <time>2013-11-02T12:14:13Z</time>
      </trkpt>
      <trkpt lat="38.363910" lon="-1.473519">
        <ele>418.3</ele>
        <time>2013-11-02T12:14:23Z</time>
      </trkpt>
      <trkpt lat="38.363819" lon="-1.473565">
        <ele>418.3</ele>
        <time>2013-11-02T12:14:31Z</time>
      </trkpt>
      <trkpt lat="38.363706" lon="-1.473631">
        <ele>417.8</ele>
        <time>2013-11-02T12:14:42Z</time>
      </trkpt>
      <trkpt lat="38.363577" lon="-1.473730">
        <ele>417.8</ele>
        <time>2013-11-02T12:14:54Z</time>
      </trkpt>
      <trkpt lat="38.363431" lon="-1.473808">
        <ele>418.3</ele>
        <time>2013-11-02T12:15:07Z</time>
      </trkpt>
      <trkpt lat="38.363386" lon="-1.473827">
        <ele>418.8</ele>
        <time>2013-11-02T12:15:11Z</time>
      </trkpt>
      <trkpt lat="38.363235" lon="-1.473932">
        <ele>418.3</ele>
        <time>2013-11-02T12:15:25Z</time>
      </trkpt>
      <trkpt lat="38.363011" lon="-1.474086">
        <ele>418.3</ele>
        <time>2013-11-02T12:15:45Z</time>
      </trkpt>
      <trkpt lat="38.362838" lon="-1.474234">
        <ele>417.4</ele>
        <time>2013-11-02T12:16:01Z</time>
      </trkpt>
      <trkpt lat="38.362617" lon="-1.474357">
        <ele>417.4</ele>
        <time>2013-11-02T12:16:20Z</time>
      </trkpt>
      <trkpt lat="38.362424" lon="-1.474331">
        <ele>416.9</ele>
        <time>2013-11-02T12:16:35Z</time>
      </trkpt>
      <trkpt lat="38.362277" lon="-1.474130">
        <ele>417.4</ele>
        <time>2013-11-02T12:16:52Z</time>
      </trkpt>
      <trkpt lat="38.362046" lon="-1.474036">
        <ele>418.3</ele>
        <time>2013-11-02T12:17:12Z</time>
      </trkpt>
      <trkpt lat="38.361831" lon="-1.474026">
        <ele>417.8</ele>
        <time>2013-11-02T12:17:29Z</time>
      </trkpt>
      <trkpt lat="38.361625" lon="-1.473988">
        <ele>416.4</ele>
        <time>2013-11-02T12:17:46Z</time>
      </trkpt>
      <trkpt lat="38.361488" lon="-1.473991">
        <ele>415.0</ele>
        <time>2013-11-02T12:17:58Z</time>
      </trkpt>
      <trkpt lat="38.361385" lon="-1.473755">
        <ele>413.5</ele>
        <time>2013-11-02T12:18:15Z</time>
      </trkpt>
      <trkpt lat="38.361355" lon="-1.473455">
        <ele>413.0</ele>
        <time>2013-11-02T12:18:33Z</time>
      </trkpt>
      <trkpt lat="38.361326" lon="-1.473195">
        <ele>412.1</ele>
        <time>2013-11-02T12:18:49Z</time>
      </trkpt>
      <trkpt lat="38.361326" lon="-1.473156">
        <ele>412.5</ele>
        <time>2013-11-02T12:18:52Z</time>
      </trkpt>
      <trkpt lat="38.361280" lon="-1.472914">
        <ele>411.1</ele>
        <time>2013-11-02T12:19:09Z</time>
      </trkpt>
      <trkpt lat="38.361281" lon="-1.472794">
        <ele>410.6</ele>
        <time>2013-11-02T12:19:17Z</time>
      </trkpt>
      <trkpt lat="38.361291" lon="-1.472709">
        <ele>409.7</ele>
        <time>2013-11-02T12:19:23Z</time>
      </trkpt>
      <trkpt lat="38.361299" lon="-1.472467">
        <ele>410.6</ele>
        <time>2013-11-02T12:19:41Z</time>
      </trkpt>
      <trkpt lat="38.361301" lon="-1.472392">
        <ele>410.1</ele>
        <time>2013-11-02T12:19:48Z</time>
      </trkpt>
      <trkpt lat="38.361300" lon="-1.472318">
        <ele>409.7</ele>
        <time>2013-11-02T12:19:54Z</time>
      </trkpt>
      <trkpt lat="38.361309" lon="-1.472212">
        <ele>409.2</ele>
        <time>2013-11-02T12:20:01Z</time>
      </trkpt>
      <trkpt lat="38.361274" lon="-1.472107">
        <ele>408.7</ele>
        <time>2013-11-02T12:20:08Z</time>
      </trkpt>
      <trkpt lat="38.361266" lon="-1.472044">
        <ele>407.7</ele>
        <time>2013-11-02T12:20:12Z</time>
      </trkpt>
      <trkpt lat="38.361205" lon="-1.471761">
        <ele>406.3</ele>
        <time>2013-11-02T12:20:29Z</time>
      </trkpt>
      <trkpt lat="38.361033" lon="-1.471544">
        <ele>406.8</ele>
        <time>2013-11-02T12:20:47Z</time>
      </trkpt>
      <trkpt lat="38.360831" lon="-1.471339">
        <ele>405.8</ele>
        <time>2013-11-02T12:21:06Z</time>
      </trkpt>
      <trkpt lat="38.360626" lon="-1.471181">
        <ele>405.3</ele>
        <time>2013-11-02T12:21:24Z</time>
      </trkpt>
      <trkpt lat="38.360390" lon="-1.471013">
        <ele>403.4</ele>
        <time>2013-11-02T12:21:44Z</time>
      </trkpt>
      <trkpt lat="38.360215" lon="-1.470791">
        <ele>402.5</ele>
        <time>2013-11-02T12:22:03Z</time>
      </trkpt>
      <trkpt lat="38.360163" lon="-1.470705">
        <ele>402.9</ele>
        <time>2013-11-02T12:22:09Z</time>
      </trkpt>
      <trkpt lat="38.360137" lon="-1.470638">
        <ele>402.9</ele>
        <time>2013-11-02T12:22:13Z</time>
      </trkpt>
      <trkpt lat="38.359999" lon="-1.470427">
        <ele>402.0</ele>
        <time>2013-11-02T12:22:29Z</time>
      </trkpt>
      <trkpt lat="38.359775" lon="-1.470247">
        <ele>401.5</ele>
        <time>2013-11-02T12:22:48Z</time>
      </trkpt>
      <trkpt lat="38.359691" lon="-1.470209">
        <ele>401.5</ele>
        <time>2013-11-02T12:24:42Z</time>
      </trkpt>
      <trkpt lat="38.359675" lon="-1.470289">
        <ele>402.0</ele>
        <time>2013-11-02T12:24:47Z</time>
      </trkpt>
      <trkpt lat="38.359553" lon="-1.470595">
        <ele>402.5</ele>
        <time>2013-11-02T12:25:05Z</time>
      </trkpt>
      <trkpt lat="38.359611" lon="-1.470865">
        <ele>403.4</ele>
        <time>2013-11-02T12:25:21Z</time>
      </trkpt>
      <trkpt lat="38.359657" lon="-1.471093">
        <ele>404.4</ele>
        <time>2013-11-02T12:25:36Z</time>
      </trkpt>
      <trkpt lat="38.359675" lon="-1.471333">
        <ele>405.3</ele>
        <time>2013-11-02T12:25:52Z</time>
      </trkpt>
      <trkpt lat="38.359707" lon="-1.471463">
        <ele>405.8</ele>
        <time>2013-11-02T12:26:05Z</time>
      </trkpt>
      <trkpt lat="38.359744" lon="-1.471735">
        <ele>407.3</ele>
        <time>2013-11-02T12:26:22Z</time>
      </trkpt>
      <trkpt lat="38.359795" lon="-1.472046">
        <ele>408.7</ele>
        <time>2013-11-02T12:26:40Z</time>
      </trkpt>
      <trkpt lat="38.359807" lon="-1.472182">
        <ele>410.1</ele>
        <time>2013-11-02T12:26:49Z</time>
      </trkpt>
      <trkpt lat="38.359802" lon="-1.472209">
        <ele>410.6</ele>
        <time>2013-11-02T12:26:51Z</time>
      </trkpt>
      <trkpt lat="38.359803" lon="-1.472305">
        <ele>412.1</ele>
        <time>2013-11-02T12:26:58Z</time>
      </trkpt>
      <trkpt lat="38.359852" lon="-1.472436">
        <ele>413.5</ele>
        <time>2013-11-02T12:27:10Z</time>
      </trkpt>
      <trkpt lat="38.359883" lon="-1.472517">
        <ele>414.0</ele>
        <time>2013-11-02T12:27:16Z</time>
      </trkpt>
      <trkpt lat="38.359889" lon="-1.472554">
        <ele>414.0</ele>
        <time>2013-11-02T12:27:18Z</time>
      </trkpt>
      <trkpt lat="38.359986" lon="-1.472849">
        <ele>415.0</ele>
        <time>2013-11-02T12:27:36Z</time>
      </trkpt>
      <trkpt lat="38.360060" lon="-1.473076">
        <ele>415.4</ele>
        <time>2013-11-02T12:27:50Z</time>
      </trkpt>
      <trkpt lat="38.360078" lon="-1.473179">
        <ele>415.4</ele>
        <time>2013-11-02T12:27:56Z</time>
      </trkpt>
      <trkpt lat="38.360108" lon="-1.473290">
        <ele>415.4</ele>
        <time>2013-11-02T12:28:03Z</time>
      </trkpt>
      <trkpt lat="38.360124" lon="-1.473481">
        <ele>416.4</ele>
        <time>2013-11-02T12:28:14Z</time>
      </trkpt>
      <trkpt lat="38.360115" lon="-1.473731">
        <ele>416.9</ele>
        <time>2013-11-02T12:28:28Z</time>
      </trkpt>
      <trkpt lat="38.360107" lon="-1.473835">
        <ele>416.9</ele>
        <time>2013-11-02T12:28:34Z</time>
      </trkpt>
      <trkpt lat="38.360110" lon="-1.473886">
        <ele>416.4</ele>
        <time>2013-11-02T12:28:37Z</time>
      </trkpt>
      <trkpt lat="38.360100" lon="-1.474018">
        <ele>418.3</ele>
        <time>2013-11-02T12:28:49Z</time>
      </trkpt>
      <trkpt lat="38.360105" lon="-1.474021">
        <ele>417.8</ele>
        <time>2013-11-02T12:30:50Z</time>
      </trkpt>
      <trkpt lat="38.360095" lon="-1.474042">
        <ele>417.8</ele>
        <time>2013-11-02T12:30:59Z</time>
      </trkpt>
      <trkpt lat="38.360116" lon="-1.474154">
        <ele>418.8</ele>
        <time>2013-11-02T12:31:53Z</time>
      </trkpt>
      <trkpt lat="38.360108" lon="-1.474266">
        <ele>418.8</ele>
        <time>2013-11-02T12:32:00Z</time>
      </trkpt>
      <trkpt lat="38.360138" lon="-1.474558">
        <ele>419.8</ele>
        <time>2013-11-02T12:32:15Z</time>
      </trkpt>
      <trkpt lat="38.360155" lon="-1.474622">
        <ele>419.8</ele>
        <time>2013-11-02T12:32:20Z</time>
      </trkpt>
      <trkpt lat="38.360148" lon="-1.474669">
        <ele>420.2</ele>
        <time>2013-11-02T12:32:26Z</time>
      </trkpt>
      <trkpt lat="38.360152" lon="-1.474709">
        <ele>420.2</ele>
        <time>2013-11-02T12:32:29Z</time>
      </trkpt>
      <trkpt lat="38.360158" lon="-1.474771">
        <ele>420.2</ele>
        <time>2013-11-02T12:32:40Z</time>
      </trkpt>
      <trkpt lat="38.360157" lon="-1.474778">
        <ele>419.8</ele>
        <time>2013-11-02T12:32:41Z</time>
      </trkpt>
      <trkpt lat="38.360131" lon="-1.474914">
        <ele>421.2</ele>
        <time>2013-11-02T12:32:51Z</time>
      </trkpt>
      <trkpt lat="38.360138" lon="-1.475182">
        <ele>421.7</ele>
        <time>2013-11-02T12:33:07Z</time>
      </trkpt>
      <trkpt lat="38.360153" lon="-1.475466">
        <ele>423.1</ele>
        <time>2013-11-02T12:33:23Z</time>
      </trkpt>
      <trkpt lat="38.360180" lon="-1.475789">
        <ele>423.1</ele>
        <time>2013-11-02T12:33:40Z</time>
      </trkpt>
      <trkpt lat="38.360189" lon="-1.476126">
        <ele>424.1</ele>
        <time>2013-11-02T12:33:59Z</time>
      </trkpt>
      <trkpt lat="38.360191" lon="-1.476364">
        <ele>425.0</ele>
        <time>2013-11-02T12:34:13Z</time>
      </trkpt>
      <trkpt lat="38.360044" lon="-1.476626">
        <ele>425.5</ele>
        <time>2013-11-02T12:34:32Z</time>
      </trkpt>
      <trkpt lat="38.359948" lon="-1.476898">
        <ele>425.5</ele>
        <time>2013-11-02T12:34:49Z</time>
      </trkpt>
      <trkpt lat="38.359850" lon="-1.477212">
        <ele>427.0</ele>
        <time>2013-11-02T12:35:08Z</time>
      </trkpt>
      <trkpt lat="38.359752" lon="-1.477496">
        <ele>426.0</ele>
        <time>2013-11-02T12:35:25Z</time>
      </trkpt>
      <trkpt lat="38.359638" lon="-1.477643">
        <ele>427.9</ele>
        <time>2013-11-02T12:35:39Z</time>
      </trkpt>
      <trkpt lat="38.359479" lon="-1.477807">
        <ele>429.4</ele>
        <time>2013-11-02T12:35:55Z</time>
      </trkpt>
      <trkpt lat="38.359372" lon="-1.477970">
        <ele>429.4</ele>
        <time>2013-11-02T12:36:08Z</time>
      </trkpt>
      <trkpt lat="38.359281" lon="-1.478215">
        <ele>427.4</ele>
        <time>2013-11-02T12:36:24Z</time>
      </trkpt>
      <trkpt lat="38.359143" lon="-1.478443">
        <ele>427.0</ele>
        <time>2013-11-02T12:36:40Z</time>
      </trkpt>
      <trkpt lat="38.358985" lon="-1.478635">
        <ele>427.0</ele>
        <time>2013-11-02T12:36:56Z</time>
      </trkpt>
      <trkpt lat="38.358931" lon="-1.478650">
        <ele>427.0</ele>
        <time>2013-11-02T12:37:00Z</time>
      </trkpt>
      <trkpt lat="38.358803" lon="-1.478577">
        <ele>427.9</ele>
        <time>2013-11-02T12:37:16Z</time>
      </trkpt>
      <trkpt lat="38.358759" lon="-1.478538">
        <ele>427.9</ele>
        <time>2013-11-02T12:37:27Z</time>
      </trkpt>
      <trkpt lat="38.358613" lon="-1.478481">
        <ele>428.9</ele>
        <time>2013-11-02T12:37:39Z</time>
      </trkpt>
      <trkpt lat="38.358394" lon="-1.478580">
        <ele>428.9</ele>
        <time>2013-11-02T12:37:59Z</time>
      </trkpt>
      <trkpt lat="38.358393" lon="-1.478587">
        <ele>428.4</ele>
        <time>2013-11-02T12:38:00Z</time>
      </trkpt>
      <trkpt lat="38.358335" lon="-1.478687">
        <ele>426.0</ele>
        <time>2013-11-02T12:38:08Z</time>
      </trkpt>
      <trkpt lat="38.358147" lon="-1.478738">
        <ele>426.0</ele>
        <time>2013-11-02T12:38:22Z</time>
      </trkpt>
      <trkpt lat="38.357940" lon="-1.478633">
        <ele>427.4</ele>
        <time>2013-11-02T12:38:40Z</time>
      </trkpt>
      <trkpt lat="38.357745" lon="-1.478470">
        <ele>427.0</ele>
        <time>2013-11-02T12:38:56Z</time>
      </trkpt>
      <trkpt lat="38.357607" lon="-1.478241">
        <ele>426.5</ele>
        <time>2013-11-02T12:39:14Z</time>
      </trkpt>
      <trkpt lat="38.357429" lon="-1.477982">
        <ele>426.5</ele>
        <time>2013-11-02T12:39:33Z</time>
      </trkpt>
      <trkpt lat="38.357188" lon="-1.477787">
        <ele>424.6</ele>
        <time>2013-11-02T12:39:53Z</time>
      </trkpt>
      <trkpt lat="38.356957" lon="-1.477651">
        <ele>424.6</ele>
        <time>2013-11-02T12:40:12Z</time>
      </trkpt>
      <trkpt lat="38.356735" lon="-1.477456">
        <ele>423.1</ele>
        <time>2013-11-02T12:40:31Z</time>
      </trkpt>
      <trkpt lat="38.356549" lon="-1.477289">
        <ele>422.6</ele>
        <time>2013-11-02T12:40:47Z</time>
      </trkpt>
      <trkpt lat="38.356292" lon="-1.477080">
        <ele>421.7</ele>
        <time>2013-11-02T12:41:07Z</time>
      </trkpt>
      <trkpt lat="38.356010" lon="-1.477058">
        <ele>418.8</ele>
        <time>2013-11-02T12:41:26Z</time>
      </trkpt>
      <trkpt lat="38.355793" lon="-1.477045">
        <ele>415.9</ele>
        <time>2013-11-02T12:41:40Z</time>
      </trkpt>
      <trkpt lat="38.355746" lon="-1.477048">
        <ele>414.5</ele>
        <time>2013-11-02T12:41:43Z</time>
      </trkpt>
      <trkpt lat="38.355546" lon="-1.477019">
        <ele>411.6</ele>
        <time>2013-11-02T12:41:57Z</time>
      </trkpt>
      <trkpt lat="38.355360" lon="-1.476789">
        <ele>410.1</ele>
        <time>2013-11-02T12:42:16Z</time>
      </trkpt>
      <trkpt lat="38.355234" lon="-1.476635">
        <ele>408.7</ele>
        <time>2013-11-02T12:42:31Z</time>
      </trkpt>
      <trkpt lat="38.355152" lon="-1.476652">
        <ele>408.7</ele>
        <time>2013-11-02T12:42:36Z</time>
      </trkpt>
      <trkpt lat="38.355031" lon="-1.476709">
        <ele>407.3</ele>
        <time>2013-11-02T12:42:48Z</time>
      </trkpt>
      <trkpt lat="38.354906" lon="-1.476766">
        <ele>407.3</ele>
        <time>2013-11-02T12:42:58Z</time>
      </trkpt>
      <trkpt lat="38.354740" lon="-1.476816">
        <ele>409.2</ele>
        <time>2013-11-02T12:43:12Z</time>
      </trkpt>
      <trkpt lat="38.354705" lon="-1.476816">
        <ele>409.2</ele>
        <time>2013-11-02T12:43:15Z</time>
      </trkpt>
      <trkpt lat="38.354632" lon="-1.476819">
        <ele>410.6</ele>
        <time>2013-11-02T12:43:22Z</time>
      </trkpt>
      <trkpt lat="38.354614" lon="-1.476809">
        <ele>411.1</ele>
        <time>2013-11-02T12:43:24Z</time>
      </trkpt>
      <trkpt lat="38.354503" lon="-1.476784">
        <ele>410.6</ele>
        <time>2013-11-02T12:43:39Z</time>
      </trkpt>
      <trkpt lat="38.354477" lon="-1.476776">
        <ele>410.6</ele>
        <time>2013-11-02T12:43:52Z</time>
      </trkpt>
      <trkpt lat="38.354477" lon="-1.476817">
        <ele>410.6</ele>
        <time>2013-11-02T12:48:10Z</time>
      </trkpt>
      <trkpt lat="38.354508" lon="-1.476885">
        <ele>411.1</ele>
        <time>2013-11-02T12:48:17Z</time>
      </trkpt>
      <trkpt lat="38.354584" lon="-1.477087">
        <ele>411.6</ele>
        <time>2013-11-02T12:48:31Z</time>
      </trkpt>
      <trkpt lat="38.354640" lon="-1.477218">
        <ele>412.5</ele>
        <time>2013-11-02T12:48:41Z</time>
      </trkpt>
      <trkpt lat="38.354718" lon="-1.477412">
        <ele>413.0</ele>
        <time>2013-11-02T12:48:54Z</time>
      </trkpt>
      <trkpt lat="38.354722" lon="-1.477428">
        <ele>413.0</ele>
        <time>2013-11-02T12:48:55Z</time>
      </trkpt>
      <trkpt lat="38.354777" lon="-1.477537">
        <ele>413.5</ele>
        <time>2013-11-02T12:49:03Z</time>
      </trkpt>
      <trkpt lat="38.354779" lon="-1.477569">
        <ele>413.5</ele>
        <time>2013-11-02T12:49:06Z</time>
      </trkpt>
      <trkpt lat="38.354795" lon="-1.477624">
        <ele>414.5</ele>
        <time>2013-11-02T12:49:16Z</time>
      </trkpt>
      <trkpt lat="38.354813" lon="-1.477702">
        <ele>414.0</ele>
        <time>2013-11-02T12:49:21Z</time>
      </trkpt>
      <trkpt lat="38.354816" lon="-1.477735">
        <ele>414.5</ele>
        <time>2013-11-02T12:49:23Z</time>
      </trkpt>
      <trkpt lat="38.354924" lon="-1.478002">
        <ele>415.4</ele>
        <time>2013-11-02T12:49:39Z</time>
      </trkpt>
      <trkpt lat="38.355034" lon="-1.478243">
        <ele>415.9</ele>
        <time>2013-11-02T12:49:53Z</time>
      </trkpt>
      <trkpt lat="38.355178" lon="-1.478569">
        <ele>415.9</ele>
        <time>2013-11-02T12:50:12Z</time>
      </trkpt>
      <trkpt lat="38.355241" lon="-1.478875">
        <ele>416.4</ele>
        <time>2013-11-02T12:50:29Z</time>
      </trkpt>
      <trkpt lat="38.355290" lon="-1.479171">
        <ele>417.4</ele>
        <time>2013-11-02T12:50:46Z</time>
      </trkpt>
      <trkpt lat="38.355401" lon="-1.479436">
        <ele>418.8</ele>
        <time>2013-11-02T12:51:01Z</time>
      </trkpt>
      <trkpt lat="38.355441" lon="-1.479725">
        <ele>420.2</ele>
        <time>2013-11-02T12:51:17Z</time>
      </trkpt>
      <trkpt lat="38.355524" lon="-1.480035">
        <ele>421.2</ele>
        <time>2013-11-02T12:51:34Z</time>
      </trkpt>
      <trkpt lat="38.355558" lon="-1.480269">
        <ele>422.2</ele>
        <time>2013-11-02T12:51:49Z</time>
      </trkpt>
      <trkpt lat="38.355525" lon="-1.480547">
        <ele>423.1</ele>
        <time>2013-11-02T12:52:05Z</time>
      </trkpt>
      <trkpt lat="38.355482" lon="-1.480836">
        <ele>423.6</ele>
        <time>2013-11-02T12:52:21Z</time>
      </trkpt>
      <trkpt lat="38.355479" lon="-1.481227">
        <ele>423.6</ele>
        <time>2013-11-02T12:52:41Z</time>
      </trkpt>
      <trkpt lat="38.355491" lon="-1.481573">
        <ele>422.6</ele>
        <time>2013-11-02T12:52:59Z</time>
      </trkpt>
      <trkpt lat="38.355477" lon="-1.482010">
        <ele>424.1</ele>
        <time>2013-11-02T12:53:22Z</time>
      </trkpt>
      <trkpt lat="38.355463" lon="-1.482419">
        <ele>422.2</ele>
        <time>2013-11-02T12:53:44Z</time>
      </trkpt>
      <trkpt lat="38.355464" lon="-1.482509">
        <ele>422.6</ele>
        <time>2013-11-02T12:53:49Z</time>
      </trkpt>
      <trkpt lat="38.355479" lon="-1.482547">
        <ele>422.6</ele>
        <time>2013-11-02T12:53:51Z</time>
      </trkpt>
      <trkpt lat="38.355470" lon="-1.482894">
        <ele>423.6</ele>
        <time>2013-11-02T12:54:09Z</time>
      </trkpt>
      <trkpt lat="38.355478" lon="-1.483267">
        <ele>424.6</ele>
        <time>2013-11-02T12:54:26Z</time>
      </trkpt>
      <trkpt lat="38.355474" lon="-1.483561">
        <ele>426.0</ele>
        <time>2013-11-02T12:54:42Z</time>
      </trkpt>
      <trkpt lat="38.355460" lon="-1.483916">
        <ele>427.0</ele>
        <time>2013-11-02T12:55:01Z</time>
      </trkpt>
      <trkpt lat="38.355458" lon="-1.484052">
        <ele>427.9</ele>
        <time>2013-11-02T12:55:08Z</time>
      </trkpt>
      <trkpt lat="38.355463" lon="-1.484311">
        <ele>429.4</ele>
        <time>2013-11-02T12:55:23Z</time>
      </trkpt>
      <trkpt lat="38.355466" lon="-1.484562">
        <ele>430.3</ele>
        <time>2013-11-02T12:55:39Z</time>
      </trkpt>
      <trkpt lat="38.355485" lon="-1.484812">
        <ele>430.8</ele>
        <time>2013-11-02T12:55:56Z</time>
      </trkpt>
      <trkpt lat="38.355499" lon="-1.484981">
        <ele>430.8</ele>
        <time>2013-11-02T12:56:06Z</time>
      </trkpt>
      <trkpt lat="38.355478" lon="-1.485186">
        <ele>431.3</ele>
        <time>2013-11-02T12:56:19Z</time>
      </trkpt>
      <trkpt lat="38.355472" lon="-1.485208">
        <ele>431.3</ele>
        <time>2013-11-02T12:56:21Z</time>
      </trkpt>
      <trkpt lat="38.355465" lon="-1.485281">
        <ele>430.8</ele>
        <time>2013-11-02T12:56:25Z</time>
      </trkpt>
      <trkpt lat="38.355441" lon="-1.485481">
        <ele>431.3</ele>
        <time>2013-11-02T12:56:36Z</time>
      </trkpt>
      <trkpt lat="38.355414" lon="-1.485693">
        <ele>432.2</ele>
        <time>2013-11-02T12:56:49Z</time>
      </trkpt>
      <trkpt lat="38.355409" lon="-1.485901">
        <ele>433.7</ele>
        <time>2013-11-02T12:57:03Z</time>
      </trkpt>
      <trkpt lat="38.355407" lon="-1.485914">
        <ele>434.2</ele>
        <time>2013-11-02T12:57:04Z</time>
      </trkpt>
      <trkpt lat="38.355413" lon="-1.485940">
        <ele>434.2</ele>
        <time>2013-11-02T12:57:06Z</time>
      </trkpt>
      <trkpt lat="38.355424" lon="-1.486042">
        <ele>435.1</ele>
        <time>2013-11-02T12:57:13Z</time>
      </trkpt>
      <trkpt lat="38.355433" lon="-1.486119">
        <ele>435.1</ele>
        <time>2013-11-02T12:57:19Z</time>
      </trkpt>
      <trkpt lat="38.355500" lon="-1.486381">
        <ele>436.1</ele>
        <time>2013-11-02T12:57:37Z</time>
      </trkpt>
      <trkpt lat="38.355590" lon="-1.486590">
        <ele>437.1</ele>
        <time>2013-11-02T12:57:52Z</time>
      </trkpt>
      <trkpt lat="38.355662" lon="-1.486704">
        <ele>437.1</ele>
        <time>2013-11-02T12:58:02Z</time>
      </trkpt>
      <trkpt lat="38.355725" lon="-1.486776">
        <ele>437.5</ele>
        <time>2013-11-02T12:58:09Z</time>
      </trkpt>
      <trkpt lat="38.355842" lon="-1.486876">
        <ele>439.5</ele>
        <time>2013-11-02T12:58:20Z</time>
      </trkpt>
      <trkpt lat="38.355953" lon="-1.487027">
        <ele>436.6</ele>
        <time>2013-11-02T12:58:33Z</time>
      </trkpt>
      <trkpt lat="38.355968" lon="-1.487144">
        <ele>436.6</ele>
        <time>2013-11-02T12:58:41Z</time>
      </trkpt>
      <trkpt lat="38.355957" lon="-1.487469">
        <ele>435.6</ele>
        <time>2013-11-02T12:59:00Z</time>
      </trkpt>
      <trkpt lat="38.355843" lon="-1.487678">
        <ele>437.1</ele>
        <time>2013-11-02T12:59:17Z</time>
      </trkpt>
      <trkpt lat="38.355613" lon="-1.487822">
        <ele>436.1</ele>
        <time>2013-11-02T12:59:37Z</time>
      </trkpt>
      <trkpt lat="38.355534" lon="-1.487856">
        <ele>436.1</ele>
        <time>2013-11-02T12:59:50Z</time>
      </trkpt>
      <trkpt lat="38.355481" lon="-1.487881">
        <ele>436.6</ele>
        <time>2013-11-02T12:59:55Z</time>
      </trkpt>
      <trkpt lat="38.355357" lon="-1.488047">
        <ele>437.5</ele>
        <time>2013-11-02T13:00:10Z</time>
      </trkpt>
      <trkpt lat="38.355322" lon="-1.488325">
        <ele>437.5</ele>
        <time>2013-11-02T13:00:29Z</time>
      </trkpt>
      <trkpt lat="38.355280" lon="-1.488596">
        <ele>436.6</ele>
        <time>2013-11-02T13:00:47Z</time>
      </trkpt>
      <trkpt lat="38.355265" lon="-1.488865">
        <ele>437.1</ele>
        <time>2013-11-02T13:01:03Z</time>
      </trkpt>
      <trkpt lat="38.355257" lon="-1.488996">
        <ele>437.5</ele>
        <time>2013-11-02T13:01:12Z</time>
      </trkpt>
      <trkpt lat="38.355241" lon="-1.489088">
        <ele>438.5</ele>
        <time>2013-11-02T13:01:18Z</time>
      </trkpt>
      <trkpt lat="38.355202" lon="-1.489347">
        <ele>439.9</ele>
        <time>2013-11-02T13:01:36Z</time>
      </trkpt>
      <trkpt lat="38.355176" lon="-1.489569">
        <ele>440.9</ele>
        <time>2013-11-02T13:01:51Z</time>
      </trkpt>
      <trkpt lat="38.355154" lon="-1.489841">
        <ele>441.4</ele>
        <time>2013-11-02T13:02:08Z</time>
      </trkpt>
      <trkpt lat="38.355114" lon="-1.490130">
        <ele>441.9</ele>
        <time>2013-11-02T13:02:27Z</time>
      </trkpt>
      <trkpt lat="38.355092" lon="-1.490326">
        <ele>442.3</ele>
        <time>2013-11-02T13:02:41Z</time>
      </trkpt>
      <trkpt lat="38.355070" lon="-1.490540">
        <ele>442.8</ele>
        <time>2013-11-02T13:02:55Z</time>
      </trkpt>
      <trkpt lat="38.355040" lon="-1.490840">
        <ele>443.3</ele>
        <time>2013-11-02T13:03:13Z</time>
      </trkpt>
      <trkpt lat="38.355011" lon="-1.491114">
        <ele>444.3</ele>
        <time>2013-11-02T13:03:29Z</time>
      </trkpt>
      <trkpt lat="38.354988" lon="-1.491364">
        <ele>444.8</ele>
        <time>2013-11-02T13:03:45Z</time>
      </trkpt>
      <trkpt lat="38.354960" lon="-1.491621">
        <ele>445.2</ele>
        <time>2013-11-02T13:04:01Z</time>
      </trkpt>
      <trkpt lat="38.354933" lon="-1.491863">
        <ele>445.2</ele>
        <time>2013-11-02T13:04:16Z</time>
      </trkpt>
      <trkpt lat="38.354932" lon="-1.491896">
        <ele>445.2</ele>
        <time>2013-11-02T13:04:18Z</time>
      </trkpt>
      <trkpt lat="38.354907" lon="-1.492173">
        <ele>446.2</ele>
        <time>2013-11-02T13:04:35Z</time>
      </trkpt>
      <trkpt lat="38.354876" lon="-1.492349">
        <ele>446.7</ele>
        <time>2013-11-02T13:04:48Z</time>
      </trkpt>
      <trkpt lat="38.354845" lon="-1.492486">
        <ele>446.7</ele>
        <time>2013-11-02T13:04:59Z</time>
      </trkpt>
      <trkpt lat="38.354834" lon="-1.492761">
        <ele>449.1</ele>
        <time>2013-11-02T13:05:15Z</time>
      </trkpt>
      <trkpt lat="38.354858" lon="-1.492996">
        <ele>448.6</ele>
        <time>2013-11-02T13:05:28Z</time>
      </trkpt>
      <trkpt lat="38.354900" lon="-1.493335">
        <ele>449.5</ele>
        <time>2013-11-02T13:05:46Z</time>
      </trkpt>
      <trkpt lat="38.354906" lon="-1.493465">
        <ele>450.5</ele>
        <time>2013-11-02T13:05:59Z</time>
      </trkpt>
      <trkpt lat="38.354918" lon="-1.493640">
        <ele>451.0</ele>
        <time>2013-11-02T13:06:12Z</time>
      </trkpt>
      <trkpt lat="38.354925" lon="-1.493685">
        <ele>451.0</ele>
        <time>2013-11-02T13:06:15Z</time>
      </trkpt>
      <trkpt lat="38.354924" lon="-1.493758">
        <ele>451.0</ele>
        <time>2013-11-02T13:06:20Z</time>
      </trkpt>
      <trkpt lat="38.354928" lon="-1.493792">
        <ele>451.5</ele>
        <time>2013-11-02T13:06:22Z</time>
      </trkpt>
      <trkpt lat="38.354898" lon="-1.494048">
        <ele>452.0</ele>
        <time>2013-11-02T13:06:39Z</time>
      </trkpt>
      <trkpt lat="38.354808" lon="-1.494321">
        <ele>450.5</ele>
        <time>2013-11-02T13:06:58Z</time>
      </trkpt>
      <trkpt lat="38.354643" lon="-1.494598">
        <ele>451.5</ele>
        <time>2013-11-02T13:07:15Z</time>
      </trkpt>
      <trkpt lat="38.354508" lon="-1.494754">
        <ele>451.0</ele>
        <time>2013-11-02T13:07:30Z</time>
      </trkpt>
      <trkpt lat="38.354316" lon="-1.494923">
        <ele>450.5</ele>
        <time>2013-11-02T13:07:48Z</time>
      </trkpt>
      <trkpt lat="38.354121" lon="-1.495041">
        <ele>450.5</ele>
        <time>2013-11-02T13:08:05Z</time>
      </trkpt>
      <trkpt lat="38.353932" lon="-1.495050">
        <ele>448.6</ele>
        <time>2013-11-02T13:08:21Z</time>
      </trkpt>
      <trkpt lat="38.353717" lon="-1.495093">
        <ele>446.7</ele>
        <time>2013-11-02T13:08:38Z</time>
      </trkpt>
      <trkpt lat="38.353542" lon="-1.495238">
        <ele>446.2</ele>
        <time>2013-11-02T13:08:54Z</time>
      </trkpt>
      <trkpt lat="38.353398" lon="-1.495428">
        <ele>445.2</ele>
        <time>2013-11-02T13:09:11Z</time>
      </trkpt>
      <trkpt lat="38.353362" lon="-1.495469">
        <ele>445.2</ele>
        <time>2013-11-02T13:09:15Z</time>
      </trkpt>
      <trkpt lat="38.353150" lon="-1.495703">
        <ele>445.7</ele>
        <time>2013-11-02T13:09:37Z</time>
      </trkpt>
      <trkpt lat="38.352922" lon="-1.495901">
        <ele>443.8</ele>
        <time>2013-11-02T13:09:58Z</time>
      </trkpt>
      <trkpt lat="38.352758" lon="-1.496023">
        <ele>442.3</ele>
        <time>2013-11-02T13:10:13Z</time>
      </trkpt>
      <trkpt lat="38.352537" lon="-1.496172">
        <ele>440.4</ele>
        <time>2013-11-02T13:10:33Z</time>
      </trkpt>
      <trkpt lat="38.352332" lon="-1.496309">
        <ele>438.5</ele>
        <time>2013-11-02T13:10:51Z</time>
      </trkpt>
      <trkpt lat="38.352155" lon="-1.496571">
        <ele>438.0</ele>
        <time>2013-11-02T13:11:11Z</time>
      </trkpt>
      <trkpt lat="38.352047" lon="-1.496774">
        <ele>436.6</ele>
        <time>2013-11-02T13:11:25Z</time>
      </trkpt>
      <trkpt lat="38.351923" lon="-1.497040">
        <ele>435.6</ele>
        <time>2013-11-02T13:11:43Z</time>
      </trkpt>
      <trkpt lat="38.351804" lon="-1.497282">
        <ele>435.1</ele>
        <time>2013-11-02T13:12:00Z</time>
      </trkpt>
      <trkpt lat="38.351696" lon="-1.497491">
        <ele>435.1</ele>
        <time>2013-11-02T13:12:15Z</time>
      </trkpt>
      <trkpt lat="38.351682" lon="-1.497519">
        <ele>435.6</ele>
        <time>2013-11-02T13:12:17Z</time>
      </trkpt>
      <trkpt lat="38.351638" lon="-1.497585">
        <ele>436.6</ele>
        <time>2013-11-02T13:12:23Z</time>
      </trkpt>
      <trkpt lat="38.351444" lon="-1.497800">
        <ele>436.1</ele>
        <time>2013-11-02T13:12:44Z</time>
      </trkpt>
      <trkpt lat="38.351243" lon="-1.497936">
        <ele>434.6</ele>
        <time>2013-11-02T13:13:01Z</time>
      </trkpt>
      <trkpt lat="38.351026" lon="-1.498067">
        <ele>434.6</ele>
        <time>2013-11-02T13:13:19Z</time>
      </trkpt>
      <trkpt lat="38.350952" lon="-1.498137">
        <ele>434.2</ele>
        <time>2013-11-02T13:13:26Z</time>
      </trkpt>
      <trkpt lat="38.350940" lon="-1.498385">
        <ele>434.2</ele>
        <time>2013-11-02T13:13:42Z</time>
      </trkpt>
      <trkpt lat="38.351060" lon="-1.498574">
        <ele>431.8</ele>
        <time>2013-11-02T13:13:57Z</time>
      </trkpt>
      <trkpt lat="38.351197" lon="-1.498820">
        <ele>431.8</ele>
        <time>2013-11-02T13:14:15Z</time>
      </trkpt>
      <trkpt lat="38.351189" lon="-1.498917">
        <ele>432.2</ele>
        <time>2013-11-02T13:14:21Z</time>
      </trkpt>
      <trkpt lat="38.351108" lon="-1.499007">
        <ele>432.2</ele>
        <time>2013-11-02T13:14:29Z</time>
      </trkpt>
      <trkpt lat="38.350897" lon="-1.499047">
        <ele>431.8</ele>
        <time>2013-11-02T13:14:45Z</time>
      </trkpt>
      <trkpt lat="38.350654" lon="-1.499060">
        <ele>431.3</ele>
        <time>2013-11-02T13:15:04Z</time>
      </trkpt>
      <trkpt lat="38.350400" lon="-1.499118">
        <ele>432.2</ele>
        <time>2013-11-02T13:15:25Z</time>
      </trkpt>
      <trkpt lat="38.350197" lon="-1.499188">
        <ele>431.3</ele>
        <time>2013-11-02T13:15:40Z</time>
      </trkpt>
      <trkpt lat="38.350083" lon="-1.499230">
        <ele>431.3</ele>
        <time>2013-11-02T13:15:49Z</time>
      </trkpt>
      <trkpt lat="38.350022" lon="-1.499241">
        <ele>430.8</ele>
        <time>2013-11-02T13:15:54Z</time>
      </trkpt>
      <trkpt lat="38.349927" lon="-1.499267">
        <ele>430.3</ele>
        <time>2013-11-02T13:16:01Z</time>
      </trkpt>
      <trkpt lat="38.349877" lon="-1.499285">
        <ele>430.8</ele>
        <time>2013-11-02T13:16:05Z</time>
      </trkpt>
      <trkpt lat="38.349842" lon="-1.499303">
        <ele>430.8</ele>
        <time>2013-11-02T13:16:08Z</time>
      </trkpt>
      <trkpt lat="38.349853" lon="-1.499310">
        <ele>430.3</ele>
        <time>2013-11-02T13:16:14Z</time>
      </trkpt>
      <trkpt lat="38.349746" lon="-1.499335">
        <ele>431.3</ele>
        <time>2013-11-02T13:16:24Z</time>
      </trkpt>
      <trkpt lat="38.349689" lon="-1.499355">
        <ele>430.8</ele>
        <time>2013-11-02T13:16:30Z</time>
      </trkpt>
      <trkpt lat="38.349602" lon="-1.499377">
        <ele>431.3</ele>
        <time>2013-11-02T13:16:37Z</time>
      </trkpt>
      <trkpt lat="38.349546" lon="-1.499395">
        <ele>431.8</ele>
        <time>2013-11-02T13:16:42Z</time>
      </trkpt>
      <trkpt lat="38.349455" lon="-1.499436">
        <ele>431.3</ele>
        <time>2013-11-02T13:16:51Z</time>
      </trkpt>
      <trkpt lat="38.349410" lon="-1.499468">
        <ele>432.7</ele>
        <time>2013-11-02T13:16:55Z</time>
      </trkpt>
      <trkpt lat="38.349303" lon="-1.499541">
        <ele>432.7</ele>
        <time>2013-11-02T13:17:05Z</time>
      </trkpt>
      <trkpt lat="38.349248" lon="-1.499590">
        <ele>432.2</ele>
        <time>2013-11-02T13:17:11Z</time>
      </trkpt>
      <trkpt lat="38.349229" lon="-1.499610">
        <ele>432.7</ele>
        <time>2013-11-02T13:17:13Z</time>
      </trkpt>
      <trkpt lat="38.349149" lon="-1.499686">
        <ele>433.2</ele>
        <time>2013-11-02T13:17:21Z</time>
      </trkpt>
      <trkpt lat="38.349018" lon="-1.499870">
        <ele>433.7</ele>
        <time>2013-11-02T13:17:36Z</time>
      </trkpt>
      <trkpt lat="38.348927" lon="-1.500040">
        <ele>433.2</ele>
        <time>2013-11-02T13:17:49Z</time>
      </trkpt>
      <trkpt lat="38.348802" lon="-1.500238">
        <ele>433.2</ele>
        <time>2013-11-02T13:18:05Z</time>
      </trkpt>
      <trkpt lat="38.348681" lon="-1.500424">
        <ele>431.8</ele>
        <time>2013-11-02T13:18:20Z</time>
      </trkpt>
      <trkpt lat="38.348558" lon="-1.500641">
        <ele>430.3</ele>
        <time>2013-11-02T13:18:37Z</time>
      </trkpt>
      <trkpt lat="38.348431" lon="-1.500851">
        <ele>430.3</ele>
        <time>2013-11-02T13:18:53Z</time>
      </trkpt>
      <trkpt lat="38.348305" lon="-1.501068">
        <ele>429.4</ele>
        <time>2013-11-02T13:19:10Z</time>
      </trkpt>
      <trkpt lat="38.348192" lon="-1.501267">
        <ele>429.9</ele>
        <time>2013-11-02T13:19:25Z</time>
      </trkpt>
      <trkpt lat="38.348088" lon="-1.501457">
        <ele>428.4</ele>
        <time>2013-11-02T13:19:39Z</time>
      </trkpt>
      <trkpt lat="38.348022" lon="-1.501555">
        <ele>427.9</ele>
        <time>2013-11-02T13:19:47Z</time>
      </trkpt>
      <trkpt lat="38.347905" lon="-1.501766">
        <ele>427.4</ele>
        <time>2013-11-02T13:20:03Z</time>
      </trkpt>
      <trkpt lat="38.347784" lon="-1.501969">
        <ele>427.0</ele>
        <time>2013-11-02T13:20:19Z</time>
      </trkpt>
      <trkpt lat="38.347623" lon="-1.502224">
        <ele>426.5</ele>
        <time>2013-11-02T13:20:39Z</time>
      </trkpt>
      <trkpt lat="38.347521" lon="-1.502415">
        <ele>425.5</ele>
        <time>2013-11-02T13:20:54Z</time>
      </trkpt>
      <trkpt lat="38.347477" lon="-1.502473">
        <ele>426.0</ele>
        <time>2013-11-02T13:20:59Z</time>
      </trkpt>
      <trkpt lat="38.347374" lon="-1.502645">
        <ele>427.0</ele>
        <time>2013-11-02T13:21:13Z</time>
      </trkpt>
      <trkpt lat="38.347368" lon="-1.502658">
        <ele>427.0</ele>
        <time>2013-11-02T13:21:14Z</time>
      </trkpt>
      <trkpt lat="38.347339" lon="-1.502703">
        <ele>427.4</ele>
        <time>2013-11-02T13:21:18Z</time>
      </trkpt>
      <trkpt lat="38.347321" lon="-1.502740">
        <ele>427.9</ele>
        <time>2013-11-02T13:21:21Z</time>
      </trkpt>
      <trkpt lat="38.347286" lon="-1.502791">
        <ele>427.4</ele>
        <time>2013-11-02T13:21:26Z</time>
      </trkpt>
      <trkpt lat="38.347160" lon="-1.503025">
        <ele>426.5</ele>
        <time>2013-11-02T13:21:44Z</time>
      </trkpt>
      <trkpt lat="38.347029" lon="-1.503251">
        <ele>425.5</ele>
        <time>2013-11-02T13:22:01Z</time>
      </trkpt>
      <trkpt lat="38.346895" lon="-1.503441">
        <ele>425.0</ele>
        <time>2013-11-02T13:22:17Z</time>
      </trkpt>
      <trkpt lat="38.346778" lon="-1.503646">
        <ele>422.6</ele>
        <time>2013-11-02T13:22:33Z</time>
      </trkpt>
      <trkpt lat="38.346664" lon="-1.503840">
        <ele>421.2</ele>
        <time>2013-11-02T13:22:48Z</time>
      </trkpt>
      <trkpt lat="38.346552" lon="-1.504031">
        <ele>420.7</ele>
        <time>2013-11-02T13:23:03Z</time>
      </trkpt>
      <trkpt lat="38.346411" lon="-1.504119">
        <ele>420.7</ele>
        <time>2013-11-02T13:23:16Z</time>
      </trkpt>
      <trkpt lat="38.346252" lon="-1.504023">
        <ele>419.3</ele>
        <time>2013-11-02T13:23:31Z</time>
      </trkpt>
      <trkpt lat="38.346129" lon="-1.503868">
        <ele>417.8</ele>
        <time>2013-11-02T13:23:46Z</time>
      </trkpt>
      <trkpt lat="38.345997" lon="-1.503768">
        <ele>417.4</ele>
        <time>2013-11-02T13:23:59Z</time>
      </trkpt>
      <trkpt lat="38.345878" lon="-1.503698">
        <ele>416.4</ele>
        <time>2013-11-02T13:24:11Z</time>
      </trkpt>
      <trkpt lat="38.345756" lon="-1.503703">
        <ele>415.9</ele>
        <time>2013-11-02T13:24:21Z</time>
      </trkpt>
      <trkpt lat="38.345584" lon="-1.503657">
        <ele>415.0</ele>
        <time>2013-11-02T13:24:36Z</time>
      </trkpt>
      <trkpt lat="38.345416" lon="-1.503567">
        <ele>413.5</ele>
        <time>2013-11-02T13:24:51Z</time>
      </trkpt>
      <trkpt lat="38.345398" lon="-1.503548">
        <ele>414.0</ele>
        <time>2013-11-02T13:24:53Z</time>
      </trkpt>
      <trkpt lat="38.345376" lon="-1.503516">
        <ele>413.5</ele>
        <time>2013-11-02T13:24:56Z</time>
      </trkpt>
      <trkpt lat="38.345330" lon="-1.503489">
        <ele>413.0</ele>
        <time>2013-11-02T13:25:00Z</time>
      </trkpt>
      <trkpt lat="38.345154" lon="-1.503341">
        <ele>412.1</ele>
        <time>2013-11-02T13:25:17Z</time>
      </trkpt>
      <trkpt lat="38.345023" lon="-1.503252">
        <ele>410.6</ele>
        <time>2013-11-02T13:25:29Z</time>
      </trkpt>
      <trkpt lat="38.344974" lon="-1.503212">
        <ele>410.1</ele>
        <time>2013-11-02T13:25:34Z</time>
      </trkpt>
      <trkpt lat="38.344812" lon="-1.503093">
        <ele>409.2</ele>
        <time>2013-11-02T13:25:50Z</time>
      </trkpt>
      <trkpt lat="38.344590" lon="-1.502940">
        <ele>407.7</ele>
        <time>2013-11-02T13:26:10Z</time>
      </trkpt>
      <trkpt lat="38.344381" lon="-1.502801">
        <ele>406.8</ele>
        <time>2013-11-02T13:26:28Z</time>
      </trkpt>
      <trkpt lat="38.344212" lon="-1.502682">
        <ele>405.3</ele>
        <time>2013-11-02T13:26:43Z</time>
      </trkpt>
      <trkpt lat="38.344036" lon="-1.502564">
        <ele>403.9</ele>
        <time>2013-11-02T13:26:59Z</time>
      </trkpt>
      <trkpt lat="38.343883" lon="-1.502458">
        <ele>403.4</ele>
        <time>2013-11-02T13:27:13Z</time>
      </trkpt>
      <trkpt lat="38.343814" lon="-1.502424">
        <ele>402.5</ele>
        <time>2013-11-02T13:27:19Z</time>
      </trkpt>
      <trkpt lat="38.343728" lon="-1.502367">
        <ele>402.5</ele>
        <time>2013-11-02T13:27:27Z</time>
      </trkpt>
      <trkpt lat="38.343563" lon="-1.502252">
        <ele>401.0</ele>
        <time>2013-11-02T13:27:43Z</time>
      </trkpt>
      <trkpt lat="38.343469" lon="-1.502190">
        <ele>400.5</ele>
        <time>2013-11-02T13:27:52Z</time>
      </trkpt>
      <trkpt lat="38.343289" lon="-1.502082">
        <ele>398.6</ele>
        <time>2013-11-02T13:28:09Z</time>
      </trkpt>
      <trkpt lat="38.343095" lon="-1.502016">
        <ele>397.6</ele>
        <time>2013-11-02T13:28:25Z</time>
      </trkpt>
      <trkpt lat="38.342925" lon="-1.501959">
        <ele>396.7</ele>
        <time>2013-11-02T13:28:40Z</time>
      </trkpt>
      <trkpt lat="38.342768" lon="-1.501915">
        <ele>396.2</ele>
        <time>2013-11-02T13:28:54Z</time>
      </trkpt>
      <trkpt lat="38.342713" lon="-1.501914">
        <ele>395.7</ele>
        <time>2013-11-02T13:28:58Z</time>
      </trkpt>
      <trkpt lat="38.342491" lon="-1.501846">
        <ele>394.8</ele>
        <time>2013-11-02T13:29:16Z</time>
      </trkpt>
      <trkpt lat="38.342294" lon="-1.501804">
        <ele>394.8</ele>
        <time>2013-11-02T13:29:32Z</time>
      </trkpt>
      <trkpt lat="38.342243" lon="-1.501797">
        <ele>394.3</ele>
        <time>2013-11-02T13:29:36Z</time>
      </trkpt>
      <trkpt lat="38.342045" lon="-1.501735">
        <ele>393.8</ele>
        <time>2013-11-02T13:29:52Z</time>
      </trkpt>
      <trkpt lat="38.341929" lon="-1.501700">
        <ele>393.3</ele>
        <time>2013-11-02T13:30:02Z</time>
      </trkpt>
      <trkpt lat="38.341879" lon="-1.501695">
        <ele>392.8</ele>
        <time>2013-11-02T13:30:06Z</time>
      </trkpt>
      <trkpt lat="38.341668" lon="-1.501618">
        <ele>391.4</ele>
        <time>2013-11-02T13:30:23Z</time>
      </trkpt>
      <trkpt lat="38.341446" lon="-1.501596">
        <ele>389.5</ele>
        <time>2013-11-02T13:30:39Z</time>
      </trkpt>
      <trkpt lat="38.341362" lon="-1.501676">
        <ele>378.9</ele>
        <time>2013-12-06T07:33:53Z</time>
      </trkpt>
      <trkpt lat="38.341326" lon="-1.501721">
        <ele>384.2</ele>
        <time>2013-12-06T07:34:23Z</time>
      </trkpt>
      <trkpt lat="38.341329" lon="-1.501744">
        <ele>385.1</ele>
        <time>2013-12-06T07:34:34Z</time>
      </trkpt>
      <trkpt lat="38.341327" lon="-1.501766">
        <ele>384.7</ele>
        <time>2013-12-06T07:34:36Z</time>
      </trkpt>
      <trkpt lat="38.341297" lon="-1.501965">
        <ele>384.2</ele>
        <time>2013-12-06T07:34:50Z</time>
      </trkpt>
      <trkpt lat="38.341283" lon="-1.502024">
        <ele>384.2</ele>
        <time>2013-12-06T07:34:56Z</time>
      </trkpt>
      <trkpt lat="38.341278" lon="-1.502093">
        <ele>383.7</ele>
        <time>2013-12-06T07:35:01Z</time>
      </trkpt>
      <trkpt lat="38.341218" lon="-1.502556">
        <ele>383.2</ele>
        <time>2013-12-06T07:35:32Z</time>
      </trkpt>
      <trkpt lat="38.341143" lon="-1.502750">
        <ele>384.2</ele>
        <time>2013-12-06T07:35:46Z</time>
      </trkpt>
      <trkpt lat="38.341045" lon="-1.502877">
        <ele>384.7</ele>
        <time>2013-12-06T07:35:59Z</time>
      </trkpt>
      <trkpt lat="38.340847" lon="-1.502838">
        <ele>383.2</ele>
        <time>2013-12-06T07:36:16Z</time>
      </trkpt>
      <trkpt lat="38.340796" lon="-1.502810">
        <ele>382.7</ele>
        <time>2013-12-06T07:36:21Z</time>
      </trkpt>
      <trkpt lat="38.340621" lon="-1.502935">
        <ele>382.3</ele>
        <time>2013-12-06T07:36:38Z</time>
      </trkpt>
      <trkpt lat="38.340492" lon="-1.503131">
        <ele>381.8</ele>
        <time>2013-12-06T07:36:55Z</time>
      </trkpt>
      <trkpt lat="38.340335" lon="-1.503297">
        <ele>381.8</ele>
        <time>2013-12-06T07:37:12Z</time>
      </trkpt>
      <trkpt lat="38.340167" lon="-1.503467">
        <ele>380.8</ele>
        <time>2013-12-06T07:37:30Z</time>
      </trkpt>
      <trkpt lat="38.340003" lon="-1.503637">
        <ele>380.3</ele>
        <time>2013-12-06T07:37:47Z</time>
      </trkpt>
      <trkpt lat="38.339868" lon="-1.503788">
        <ele>379.4</ele>
        <time>2013-12-06T07:38:01Z</time>
      </trkpt>
      <trkpt lat="38.339730" lon="-1.503901">
        <ele>378.9</ele>
        <time>2013-12-06T07:38:15Z</time>
      </trkpt>
      <trkpt lat="38.339569" lon="-1.504083">
        <ele>378.4</ele>
        <time>2013-12-06T07:38:32Z</time>
      </trkpt>
      <trkpt lat="38.339389" lon="-1.504267">
        <ele>377.5</ele>
        <time>2013-12-06T07:38:50Z</time>
      </trkpt>
      <trkpt lat="38.339232" lon="-1.504415">
        <ele>377.0</ele>
        <time>2013-12-06T07:39:05Z</time>
      </trkpt>
      <trkpt lat="38.339043" lon="-1.504581">
        <ele>375.0</ele>
        <time>2013-12-06T07:39:23Z</time>
      </trkpt>
      <trkpt lat="38.338872" lon="-1.504764">
        <ele>375.0</ele>
        <time>2013-12-06T07:39:41Z</time>
      </trkpt>
      <trkpt lat="38.338700" lon="-1.504933">
        <ele>374.6</ele>
        <time>2013-12-06T07:39:58Z</time>
      </trkpt>
      <trkpt lat="38.338466" lon="-1.505148">
        <ele>372.6</ele>
        <time>2013-12-06T07:40:20Z</time>
      </trkpt>
      <trkpt lat="38.338293" lon="-1.505335">
        <ele>371.7</ele>
        <time>2013-12-06T07:40:38Z</time>
      </trkpt>
      <trkpt lat="38.338129" lon="-1.505479">
        <ele>371.2</ele>
        <time>2013-12-06T07:40:54Z</time>
      </trkpt>
      <trkpt lat="38.337946" lon="-1.505660">
        <ele>371.7</ele>
        <time>2013-12-06T07:41:12Z</time>
      </trkpt>
      <trkpt lat="38.337731" lon="-1.505876">
        <ele>371.2</ele>
        <time>2013-12-06T07:41:32Z</time>
      </trkpt>
      <trkpt lat="38.337522" lon="-1.506089">
        <ele>371.2</ele>
        <time>2013-12-06T07:41:52Z</time>
      </trkpt>
      <trkpt lat="38.337312" lon="-1.506294">
        <ele>370.7</ele>
        <time>2013-12-06T07:42:12Z</time>
      </trkpt>
      <trkpt lat="38.337087" lon="-1.506534">
        <ele>370.7</ele>
        <time>2013-12-06T07:42:31Z</time>
      </trkpt>
      <trkpt lat="38.337051" lon="-1.506588">
        <ele>370.2</ele>
        <time>2013-12-06T07:42:35Z</time>
      </trkpt>
      <trkpt lat="38.336869" lon="-1.506766">
        <ele>370.2</ele>
        <time>2013-12-06T07:42:49Z</time>
      </trkpt>
      <trkpt lat="38.336816" lon="-1.506814">
        <ele>368.8</ele>
        <time>2013-12-06T07:43:01Z</time>
      </trkpt>
      <trkpt lat="38.336814" lon="-1.506818">
        <ele>368.8</ele>
        <time>2013-12-06T07:43:02Z</time>
      </trkpt>
      <trkpt lat="38.336735" lon="-1.506885">
        <ele>368.8</ele>
        <time>2013-12-06T07:43:11Z</time>
      </trkpt>
      <trkpt lat="38.336610" lon="-1.506999">
        <ele>369.3</ele>
        <time>2013-12-06T07:43:23Z</time>
      </trkpt>
      <trkpt lat="38.336560" lon="-1.507055">
        <ele>369.3</ele>
        <time>2013-12-06T07:43:28Z</time>
      </trkpt>
      <trkpt lat="38.336315" lon="-1.507308">
        <ele>368.8</ele>
        <time>2013-12-06T07:43:48Z</time>
      </trkpt>
      <trkpt lat="38.336191" lon="-1.507425">
        <ele>369.3</ele>
        <time>2013-12-06T07:43:59Z</time>
      </trkpt>
      <trkpt lat="38.336109" lon="-1.507534">
        <ele>368.8</ele>
        <time>2013-12-06T07:44:08Z</time>
      </trkpt>
      <trkpt lat="38.335910" lon="-1.507747">
        <ele>368.3</ele>
        <time>2013-12-06T07:44:27Z</time>
      </trkpt>
      <trkpt lat="38.335750" lon="-1.507892">
        <ele>367.8</ele>
        <time>2013-12-06T07:44:42Z</time>
      </trkpt>
      <trkpt lat="38.335581" lon="-1.508061">
        <ele>367.4</ele>
        <time>2013-12-06T07:44:58Z</time>
      </trkpt>
      <trkpt lat="38.335376" lon="-1.508275">
        <ele>366.4</ele>
        <time>2013-12-06T07:45:17Z</time>
      </trkpt>
      <trkpt lat="38.335160" lon="-1.508491">
        <ele>366.4</ele>
        <time>2013-12-06T07:45:37Z</time>
      </trkpt>
      <trkpt lat="38.334941" lon="-1.508717">
        <ele>365.9</ele>
        <time>2013-12-06T07:45:57Z</time>
      </trkpt>
      <trkpt lat="38.334773" lon="-1.508891">
        <ele>364.5</ele>
        <time>2013-12-06T07:46:13Z</time>
      </trkpt>
      <trkpt lat="38.334605" lon="-1.509063">
        <ele>363.0</ele>
        <time>2013-12-06T07:46:30Z</time>
      </trkpt>
      <trkpt lat="38.334463" lon="-1.509245">
        <ele>361.1</ele>
        <time>2013-12-06T07:46:45Z</time>
      </trkpt>
      <trkpt lat="38.334286" lon="-1.509451">
        <ele>361.6</ele>
        <time>2013-12-06T07:47:03Z</time>
      </trkpt>
      <trkpt lat="38.334105" lon="-1.509653">
        <ele>361.1</ele>
        <time>2013-12-06T07:47:21Z</time>
      </trkpt>
      <trkpt lat="38.333938" lon="-1.509778">
        <ele>361.6</ele>
        <time>2013-12-06T07:47:36Z</time>
      </trkpt>
      <trkpt lat="38.333778" lon="-1.509892">
        <ele>362.5</ele>
        <time>2013-12-06T07:47:50Z</time>
      </trkpt>
      <trkpt lat="38.333541" lon="-1.509932">
        <ele>363.0</ele>
        <time>2013-12-06T07:48:07Z</time>
      </trkpt>
      <trkpt lat="38.333326" lon="-1.509969">
        <ele>363.5</ele>
        <time>2013-12-06T07:48:23Z</time>
      </trkpt>
      <trkpt lat="38.333260" lon="-1.509975">
        <ele>363.5</ele>
        <time>2013-12-06T07:48:28Z</time>
      </trkpt>
      <trkpt lat="38.333058" lon="-1.510012">
        <ele>363.5</ele>
        <time>2013-12-06T07:48:42Z</time>
      </trkpt>
      <trkpt lat="38.332786" lon="-1.510044">
        <ele>363.5</ele>
        <time>2013-12-06T07:49:02Z</time>
      </trkpt>
      <trkpt lat="38.332585" lon="-1.510070">
        <ele>363.5</ele>
        <time>2013-12-06T07:49:17Z</time>
      </trkpt>
      <trkpt lat="38.332328" lon="-1.510096">
        <ele>363.5</ele>
        <time>2013-12-06T07:49:35Z</time>
      </trkpt>
      <trkpt lat="38.332096" lon="-1.510130">
        <ele>363.0</ele>
        <time>2013-12-06T07:49:52Z</time>
      </trkpt>
      <trkpt lat="38.331956" lon="-1.510189">
        <ele>363.5</ele>
        <time>2013-12-06T07:50:03Z</time>
      </trkpt>
      <trkpt lat="38.331910" lon="-1.510285">
        <ele>363.0</ele>
        <time>2013-12-06T07:50:10Z</time>
      </trkpt>
      <trkpt lat="38.331963" lon="-1.510557">
        <ele>360.6</ele>
        <time>2013-12-06T07:50:28Z</time>
      </trkpt>
      <trkpt lat="38.332064" lon="-1.510746">
        <ele>359.2</ele>
        <time>2013-12-06T07:50:43Z</time>
      </trkpt>
      <trkpt lat="38.332176" lon="-1.510968">
        <ele>357.3</ele>
        <time>2013-12-06T07:50:59Z</time>
      </trkpt>
      <trkpt lat="38.332270" lon="-1.511183">
        <ele>356.8</ele>
        <time>2013-12-06T07:51:15Z</time>
      </trkpt>
      <trkpt lat="38.332301" lon="-1.511248">
        <ele>355.3</ele>
        <time>2013-12-06T07:51:20Z</time>
      </trkpt>
      <trkpt lat="38.332426" lon="-1.511409">
        <ele>353.9</ele>
        <time>2013-12-06T07:51:34Z</time>
      </trkpt>
      <trkpt lat="38.332525" lon="-1.511518">
        <ele>352.5</ele>
        <time>2013-12-06T07:51:44Z</time>
      </trkpt>
      <trkpt lat="38.332673" lon="-1.511746">
        <ele>350.1</ele>
        <time>2013-12-06T07:52:02Z</time>
      </trkpt>
      <trkpt lat="38.332663" lon="-1.511969">
        <ele>348.6</ele>
        <time>2013-12-06T07:52:16Z</time>
      </trkpt>
      <trkpt lat="38.332504" lon="-1.512162">
        <ele>347.6</ele>
        <time>2013-12-06T07:52:32Z</time>
      </trkpt>
      <trkpt lat="38.332395" lon="-1.512316">
        <ele>346.7</ele>
        <time>2013-12-06T07:52:44Z</time>
      </trkpt>
      <trkpt lat="38.332383" lon="-1.512401">
        <ele>346.7</ele>
        <time>2013-12-06T07:52:49Z</time>
      </trkpt>
      <trkpt lat="38.332339" lon="-1.512650">
        <ele>344.3</ele>
        <time>2013-12-06T07:53:04Z</time>
      </trkpt>
      <trkpt lat="38.332312" lon="-1.512916">
        <ele>341.9</ele>
        <time>2013-12-06T07:53:20Z</time>
      </trkpt>
      <trkpt lat="38.332269" lon="-1.513155">
        <ele>340.9</ele>
        <time>2013-12-06T07:53:35Z</time>
      </trkpt>
      <trkpt lat="38.332200" lon="-1.513405">
        <ele>338.5</ele>
        <time>2013-12-06T07:53:50Z</time>
      </trkpt>
      <trkpt lat="38.332103" lon="-1.513653">
        <ele>338.0</ele>
        <time>2013-12-06T07:54:07Z</time>
      </trkpt>
      <trkpt lat="38.331967" lon="-1.513890">
        <ele>336.6</ele>
        <time>2013-12-06T07:54:24Z</time>
      </trkpt>
      <trkpt lat="38.331792" lon="-1.514105">
        <ele>335.2</ele>
        <time>2013-12-06T07:54:42Z</time>
      </trkpt>
      <trkpt lat="38.331583" lon="-1.514296">
        <ele>333.2</ele>
        <time>2013-12-06T07:55:01Z</time>
      </trkpt>
      <trkpt lat="38.331411" lon="-1.514467">
        <ele>331.3</ele>
        <time>2013-12-06T07:55:17Z</time>
      </trkpt>
      <trkpt lat="38.331185" lon="-1.514606">
        <ele>329.4</ele>
        <time>2013-12-06T07:55:35Z</time>
      </trkpt>
      <trkpt lat="38.330912" lon="-1.514600">
        <ele>328.4</ele>
        <time>2013-12-06T07:55:54Z</time>
      </trkpt>
      <trkpt lat="38.330595" lon="-1.514607">
        <ele>326.5</ele>
        <time>2013-12-06T07:56:16Z</time>
      </trkpt>
      <trkpt lat="38.330352" lon="-1.514690">
        <ele>325.5</ele>
        <time>2013-12-06T07:56:33Z</time>
      </trkpt>
      <trkpt lat="38.330279" lon="-1.514742">
        <ele>325.1</ele>
        <time>2013-12-06T07:56:39Z</time>
      </trkpt>
      <trkpt lat="38.330225" lon="-1.514813">
        <ele>325.1</ele>
        <time>2013-12-06T07:56:44Z</time>
      </trkpt>
      <trkpt lat="38.330156" lon="-1.514925">
        <ele>323.6</ele>
        <time>2013-12-06T07:56:52Z</time>
      </trkpt>
      <trkpt lat="38.330144" lon="-1.515129">
        <ele>323.1</ele>
        <time>2013-12-06T07:57:04Z</time>
      </trkpt>
      <trkpt lat="38.330186" lon="-1.515248">
        <ele>322.7</ele>
        <time>2013-12-06T07:57:11Z</time>
      </trkpt>
      <trkpt lat="38.330218" lon="-1.515318">
        <ele>322.2</ele>
        <time>2013-12-06T07:57:16Z</time>
      </trkpt>
      <trkpt lat="38.330294" lon="-1.515382">
        <ele>322.2</ele>
        <time>2013-12-06T07:57:22Z</time>
      </trkpt>
      <trkpt lat="38.330371" lon="-1.515446">
        <ele>321.2</ele>
        <time>2013-12-06T07:57:29Z</time>
      </trkpt>
      <trkpt lat="38.330396" lon="-1.515445">
        <ele>320.7</ele>
        <time>2013-12-06T07:57:31Z</time>
      </trkpt>
      <trkpt lat="38.330447" lon="-1.515424">
        <ele>320.3</ele>
        <time>2013-12-06T07:57:35Z</time>
      </trkpt>
      <trkpt lat="38.330637" lon="-1.515402">
        <ele>319.8</ele>
        <time>2013-12-06T07:57:50Z</time>
      </trkpt>
      <trkpt lat="38.330815" lon="-1.515394">
        <ele>319.8</ele>
        <time>2013-12-06T07:58:04Z</time>
      </trkpt>
      <trkpt lat="38.331034" lon="-1.515410">
        <ele>319.8</ele>
        <time>2013-12-06T07:58:19Z</time>
      </trkpt>
      <trkpt lat="38.331293" lon="-1.515486">
        <ele>320.3</ele>
        <time>2013-12-06T07:58:39Z</time>
      </trkpt>
      <trkpt lat="38.331524" lon="-1.515552">
        <ele>320.3</ele>
        <time>2013-12-06T07:58:56Z</time>
      </trkpt>
      <trkpt lat="38.331717" lon="-1.515632">
        <ele>319.8</ele>
        <time>2013-12-06T07:59:11Z</time>
      </trkpt>
      <trkpt lat="38.331802" lon="-1.515714">
        <ele>319.3</ele>
        <time>2013-12-06T07:59:19Z</time>
      </trkpt>
      <trkpt lat="38.331879" lon="-1.515819">
        <ele>317.4</ele>
        <time>2013-12-06T07:59:29Z</time>
      </trkpt>
      <trkpt lat="38.331899" lon="-1.515888">
        <ele>316.4</ele>
        <time>2013-12-06T07:59:33Z</time>
      </trkpt>
      <trkpt lat="38.331949" lon="-1.515957">
        <ele>316.4</ele>
        <time>2013-12-06T07:59:39Z</time>
      </trkpt>
      <trkpt lat="38.331992" lon="-1.516100">
        <ele>316.9</ele>
        <time>2013-12-06T07:59:48Z</time>
      </trkpt>
      <trkpt lat="38.331998" lon="-1.516168">
        <ele>317.9</ele>
        <time>2013-12-06T07:59:52Z</time>
      </trkpt>
      <trkpt lat="38.332017" lon="-1.516293">
        <ele>318.8</ele>
        <time>2013-12-06T08:00:03Z</time>
      </trkpt>
      <trkpt lat="38.332031" lon="-1.516370">
        <ele>319.3</ele>
        <time>2013-12-06T08:00:08Z</time>
      </trkpt>
      <trkpt lat="38.332056" lon="-1.516456">
        <ele>319.8</ele>
        <time>2013-12-06T08:00:14Z</time>
      </trkpt>
      <trkpt lat="38.332064" lon="-1.516501">
        <ele>319.8</ele>
        <time>2013-12-06T08:00:17Z</time>
      </trkpt>
      <trkpt lat="38.332079" lon="-1.516576">
        <ele>320.7</ele>
        <time>2013-12-06T08:00:22Z</time>
      </trkpt>
      <trkpt lat="38.332098" lon="-1.516656">
        <ele>321.2</ele>
        <time>2013-12-06T08:00:27Z</time>
      </trkpt>
      <trkpt lat="38.332117" lon="-1.516771">
        <ele>321.7</ele>
        <time>2013-12-06T08:00:34Z</time>
      </trkpt>
      <trkpt lat="38.332156" lon="-1.516971">
        <ele>323.1</ele>
        <time>2013-12-06T08:00:47Z</time>
      </trkpt>
      <trkpt lat="38.332178" lon="-1.517055">
        <ele>323.6</ele>
        <time>2013-12-06T08:00:52Z</time>
      </trkpt>
      <trkpt lat="38.332201" lon="-1.517161">
        <ele>324.6</ele>
        <time>2013-12-06T08:00:59Z</time>
      </trkpt>
      <trkpt lat="38.332243" lon="-1.517383">
        <ele>326.5</ele>
        <time>2013-12-06T08:01:13Z</time>
      </trkpt>
      <trkpt lat="38.332279" lon="-1.517633">
        <ele>327.5</ele>
        <time>2013-12-06T08:01:28Z</time>
      </trkpt>
      <trkpt lat="38.332198" lon="-1.517856">
        <ele>327.5</ele>
        <time>2013-12-06T08:01:44Z</time>
      </trkpt>
      <trkpt lat="38.332006" lon="-1.517963">
        <ele>327.5</ele>
        <time>2013-12-06T08:02:00Z</time>
      </trkpt>
      <trkpt lat="38.331827" lon="-1.517908">
        <ele>328.4</ele>
        <time>2013-12-06T08:02:14Z</time>
      </trkpt>
      <trkpt lat="38.331677" lon="-1.517814">
        <ele>330.4</ele>
        <time>2013-12-06T08:02:28Z</time>
      </trkpt>
      <trkpt lat="38.331598" lon="-1.517763">
        <ele>330.8</ele>
        <time>2013-12-06T08:02:35Z</time>
      </trkpt>
      <trkpt lat="38.331419" lon="-1.517654">
        <ele>332.8</ele>
        <time>2013-12-06T08:02:50Z</time>
      </trkpt>
      <trkpt lat="38.331384" lon="-1.517628">
        <ele>332.3</ele>
        <time>2013-12-06T08:02:53Z</time>
      </trkpt>
      <trkpt lat="38.331263" lon="-1.517607">
        <ele>333.7</ele>
        <time>2013-12-06T08:03:02Z</time>
      </trkpt>
      <trkpt lat="38.331166" lon="-1.517705">
        <ele>334.7</ele>
        <time>2013-12-06T08:03:12Z</time>
      </trkpt>
      <trkpt lat="38.331138" lon="-1.517797">
        <ele>335.6</ele>
        <time>2013-12-06T08:03:18Z</time>
      </trkpt>
      <trkpt lat="38.331091" lon="-1.518030">
        <ele>336.6</ele>
        <time>2013-12-06T08:03:32Z</time>
      </trkpt>
      <trkpt lat="38.331080" lon="-1.518111">
        <ele>337.6</ele>
        <time>2013-12-06T08:03:37Z</time>
      </trkpt>
      <trkpt lat="38.331085" lon="-1.518199">
        <ele>338.0</ele>
        <time>2013-12-06T08:03:42Z</time>
      </trkpt>
      <trkpt lat="38.331093" lon="-1.518453">
        <ele>339.5</ele>
        <time>2013-12-06T08:03:57Z</time>
      </trkpt>
      <trkpt lat="38.331116" lon="-1.518689">
        <ele>340.4</ele>
        <time>2013-12-06T08:04:11Z</time>
      </trkpt>
      <trkpt lat="38.331128" lon="-1.518921">
        <ele>341.4</ele>
        <time>2013-12-06T08:04:25Z</time>
      </trkpt>
      <trkpt lat="38.331122" lon="-1.519051">
        <ele>342.4</ele>
        <time>2013-12-06T08:04:33Z</time>
      </trkpt>
      <trkpt lat="38.331121" lon="-1.519254">
        <ele>344.3</ele>
        <time>2013-12-06T08:04:45Z</time>
      </trkpt>
      <trkpt lat="38.331123" lon="-1.519357">
        <ele>345.2</ele>
        <time>2013-12-06T08:04:51Z</time>
      </trkpt>
      <trkpt lat="38.331099" lon="-1.519598">
        <ele>346.2</ele>
        <time>2013-12-06T08:05:06Z</time>
      </trkpt>
      <trkpt lat="38.331032" lon="-1.519861">
        <ele>347.6</ele>
        <time>2013-12-06T08:05:22Z</time>
      </trkpt>
      <trkpt lat="38.330955" lon="-1.520116">
        <ele>349.1</ele>
        <time>2013-12-06T08:05:38Z</time>
      </trkpt>
      <trkpt lat="38.330879" lon="-1.520317">
        <ele>350.1</ele>
        <time>2013-12-06T08:05:52Z</time>
      </trkpt>
      <trkpt lat="38.330829" lon="-1.520403">
        <ele>350.5</ele>
        <time>2013-12-06T08:05:58Z</time>
      </trkpt>
      <trkpt lat="38.330733" lon="-1.520641">
        <ele>351.0</ele>
        <time>2013-12-06T08:06:15Z</time>
      </trkpt>
      <trkpt lat="38.330700" lon="-1.520688">
        <ele>351.5</ele>
        <time>2013-12-06T08:06:19Z</time>
      </trkpt>
      <trkpt lat="38.330614" lon="-1.520880">
        <ele>352.9</ele>
        <time>2013-12-06T08:06:36Z</time>
      </trkpt>
      <trkpt lat="38.330527" lon="-1.521079">
        <ele>352.9</ele>
        <time>2013-12-06T08:06:51Z</time>
      </trkpt>
      <trkpt lat="38.330452" lon="-1.521328">
        <ele>353.4</ele>
        <time>2013-12-06T08:07:07Z</time>
      </trkpt>
      <trkpt lat="38.330551" lon="-1.521633">
        <ele>353.9</ele>
        <time>2013-12-06T08:07:24Z</time>
      </trkpt>
      <trkpt lat="38.330629" lon="-1.521861">
        <ele>354.9</ele>
        <time>2013-12-06T08:07:39Z</time>
      </trkpt>
      <trkpt lat="38.330648" lon="-1.522101">
        <ele>355.3</ele>
        <time>2013-12-06T08:07:54Z</time>
      </trkpt>
      <trkpt lat="38.330630" lon="-1.522340">
        <ele>355.8</ele>
        <time>2013-12-06T08:08:09Z</time>
      </trkpt>
      <trkpt lat="38.330597" lon="-1.522594">
        <ele>357.3</ele>
        <time>2013-12-06T08:08:25Z</time>
      </trkpt>
      <trkpt lat="38.330562" lon="-1.522832">
        <ele>357.8</ele>
        <time>2013-12-06T08:08:40Z</time>
      </trkpt>
      <trkpt lat="38.330549" lon="-1.522883">
        <ele>357.8</ele>
        <time>2013-12-06T08:08:43Z</time>
      </trkpt>
      <trkpt lat="38.330539" lon="-1.522949">
        <ele>358.2</ele>
        <time>2013-12-06T08:08:47Z</time>
      </trkpt>
      <trkpt lat="38.330488" lon="-1.523228">
        <ele>359.7</ele>
        <time>2013-12-06T08:09:05Z</time>
      </trkpt>
      <trkpt lat="38.330453" lon="-1.523474">
        <ele>360.6</ele>
        <time>2013-12-06T08:09:20Z</time>
      </trkpt>
      <trkpt lat="38.330414" lon="-1.523701">
        <ele>361.1</ele>
        <time>2013-12-06T08:09:34Z</time>
      </trkpt>
      <trkpt lat="38.330375" lon="-1.524007">
        <ele>362.1</ele>
        <time>2013-12-06T08:09:52Z</time>
      </trkpt>
      <trkpt lat="38.330328" lon="-1.524254">
        <ele>363.0</ele>
        <time>2013-12-06T08:10:07Z</time>
      </trkpt>
      <trkpt lat="38.330308" lon="-1.524503">
        <ele>364.0</ele>
        <time>2013-12-06T08:10:22Z</time>
      </trkpt>
      <trkpt lat="38.330260" lon="-1.524742">
        <ele>365.4</ele>
        <time>2013-12-06T08:10:37Z</time>
      </trkpt>
      <trkpt lat="38.330224" lon="-1.524998">
        <ele>366.9</ele>
        <time>2013-12-06T08:10:52Z</time>
      </trkpt>
      <trkpt lat="38.330184" lon="-1.525220">
        <ele>367.8</ele>
        <time>2013-12-06T08:11:06Z</time>
      </trkpt>
      <trkpt lat="38.330149" lon="-1.525442">
        <ele>369.3</ele>
        <time>2013-12-06T08:11:20Z</time>
      </trkpt>
      <trkpt lat="38.330112" lon="-1.525660">
        <ele>370.2</ele>
        <time>2013-12-06T08:11:34Z</time>
      </trkpt>
      <trkpt lat="38.330112" lon="-1.525677">
        <ele>370.7</ele>
        <time>2013-12-06T08:11:35Z</time>
      </trkpt>
      <trkpt lat="38.330091" lon="-1.525780">
        <ele>371.2</ele>
        <time>2013-12-06T08:11:42Z</time>
      </trkpt>
      <trkpt lat="38.330042" lon="-1.526017">
        <ele>372.2</ele>
        <time>2013-12-06T08:11:57Z</time>
      </trkpt>
      <trkpt lat="38.330003" lon="-1.526260">
        <ele>373.1</ele>
        <time>2013-12-06T08:12:12Z</time>
      </trkpt>
      <trkpt lat="38.329967" lon="-1.526497">
        <ele>374.6</ele>
        <time>2013-12-06T08:12:27Z</time>
      </trkpt>
      <trkpt lat="38.329925" lon="-1.526744">
        <ele>376.0</ele>
        <time>2013-12-06T08:12:42Z</time>
      </trkpt>
      <trkpt lat="38.329893" lon="-1.526984">
        <ele>377.0</ele>
        <time>2013-12-06T08:12:57Z</time>
      </trkpt>
      <trkpt lat="38.329848" lon="-1.527232">
        <ele>377.9</ele>
        <time>2013-12-06T08:13:12Z</time>
      </trkpt>
      <trkpt lat="38.329819" lon="-1.527416">
        <ele>378.4</ele>
        <time>2013-12-06T08:13:23Z</time>
      </trkpt>
      <trkpt lat="38.329801" lon="-1.527524">
        <ele>378.9</ele>
        <time>2013-12-06T08:13:29Z</time>
      </trkpt>
      <trkpt lat="38.329780" lon="-1.527671">
        <ele>379.4</ele>
        <time>2013-12-06T08:13:38Z</time>
      </trkpt>
      <trkpt lat="38.329743" lon="-1.527858">
        <ele>380.3</ele>
        <time>2013-12-06T08:13:50Z</time>
      </trkpt>
      <trkpt lat="38.329713" lon="-1.528018">
        <ele>380.8</ele>
        <time>2013-12-06T08:14:00Z</time>
      </trkpt>
      <trkpt lat="38.329655" lon="-1.528236">
        <ele>382.3</ele>
        <time>2013-12-06T08:14:14Z</time>
      </trkpt>
      <trkpt lat="38.329567" lon="-1.528420">
        <ele>384.2</ele>
        <time>2013-12-06T08:14:28Z</time>
      </trkpt>
      <trkpt lat="38.329475" lon="-1.528548">
        <ele>384.7</ele>
        <time>2013-12-06T08:14:38Z</time>
      </trkpt>
      <trkpt lat="38.329431" lon="-1.528637">
        <ele>384.2</ele>
        <time>2013-12-06T08:14:44Z</time>
      </trkpt>
      <trkpt lat="38.329281" lon="-1.528846">
        <ele>384.7</ele>
        <time>2013-12-06T08:15:01Z</time>
      </trkpt>
      <trkpt lat="38.329210" lon="-1.528966">
        <ele>385.1</ele>
        <time>2013-12-06T08:15:10Z</time>
      </trkpt>
      <trkpt lat="38.329084" lon="-1.529160">
        <ele>384.7</ele>
        <time>2013-12-06T08:15:27Z</time>
      </trkpt>
      <trkpt lat="38.328932" lon="-1.529329">
        <ele>383.7</ele>
        <time>2013-12-06T08:15:42Z</time>
      </trkpt>
      <trkpt lat="38.328732" lon="-1.529352">
        <ele>382.7</ele>
        <time>2013-12-06T08:15:57Z</time>
      </trkpt>
      <trkpt lat="38.328548" lon="-1.529221">
        <ele>383.7</ele>
        <time>2013-12-06T08:16:13Z</time>
      </trkpt>
      <trkpt lat="38.328498" lon="-1.529024">
        <ele>385.1</ele>
        <time>2013-12-06T08:16:26Z</time>
      </trkpt>
      <trkpt lat="38.328530" lon="-1.528773">
        <ele>386.1</ele>
        <time>2013-12-06T08:16:41Z</time>
      </trkpt>
      <trkpt lat="38.328549" lon="-1.528699">
        <ele>386.6</ele>
        <time>2013-12-06T08:16:46Z</time>
      </trkpt>
      <trkpt lat="38.328571" lon="-1.528453">
        <ele>388.0</ele>
        <time>2013-12-06T08:17:01Z</time>
      </trkpt>
      <trkpt lat="38.328538" lon="-1.528354">
        <ele>388.0</ele>
        <time>2013-12-06T08:17:08Z</time>
      </trkpt>
      <trkpt lat="38.328361" lon="-1.528310">
        <ele>389.0</ele>
        <time>2013-12-06T08:17:23Z</time>
      </trkpt>
      <trkpt lat="38.328234" lon="-1.528446">
        <ele>390.0</ele>
        <time>2013-12-06T08:17:36Z</time>
      </trkpt>
      <trkpt lat="38.328090" lon="-1.528605">
        <ele>390.9</ele>
        <time>2013-12-06T08:17:51Z</time>
      </trkpt>
      <trkpt lat="38.328058" lon="-1.528628">
        <ele>391.9</ele>
        <time>2013-12-06T08:17:54Z</time>
      </trkpt>
      <trkpt lat="38.327988" lon="-1.528712">
        <ele>391.9</ele>
        <time>2013-12-06T08:18:01Z</time>
      </trkpt>
      <trkpt lat="38.327840" lon="-1.528886">
        <ele>393.8</ele>
        <time>2013-12-06T08:18:16Z</time>
      </trkpt>
      <trkpt lat="38.327710" lon="-1.529056">
        <ele>394.8</ele>
        <time>2013-12-06T08:18:30Z</time>
      </trkpt>
      <trkpt lat="38.327635" lon="-1.529140">
        <ele>395.2</ele>
        <time>2013-12-06T08:18:38Z</time>
      </trkpt>
      <trkpt lat="38.327531" lon="-1.529280">
        <ele>396.2</ele>
        <time>2013-12-06T08:18:50Z</time>
      </trkpt>
      <trkpt lat="38.327483" lon="-1.529333">
        <ele>397.2</ele>
        <time>2013-12-06T08:18:55Z</time>
      </trkpt>
      <trkpt lat="38.327362" lon="-1.529475">
        <ele>398.1</ele>
        <time>2013-12-06T08:19:08Z</time>
      </trkpt>
      <trkpt lat="38.327326" lon="-1.529539">
        <ele>398.6</ele>
        <time>2013-12-06T08:19:13Z</time>
      </trkpt>
      <trkpt lat="38.327271" lon="-1.529601">
        <ele>399.1</ele>
        <time>2013-12-06T08:19:19Z</time>
      </trkpt>
      <trkpt lat="38.327236" lon="-1.529639">
        <ele>399.6</ele>
        <time>2013-12-06T08:19:23Z</time>
      </trkpt>
      <trkpt lat="38.327100" lon="-1.529819">
        <ele>401.0</ele>
        <time>2013-12-06T08:19:38Z</time>
      </trkpt>
      <trkpt lat="38.326987" lon="-1.529961">
        <ele>402.0</ele>
        <time>2013-12-06T08:19:50Z</time>
      </trkpt>
      <trkpt lat="38.326870" lon="-1.530105">
        <ele>403.4</ele>
        <time>2013-12-06T08:20:03Z</time>
      </trkpt>
      <trkpt lat="38.326861" lon="-1.530115">
        <ele>403.9</ele>
        <time>2013-12-06T08:20:04Z</time>
      </trkpt>
      <trkpt lat="38.326818" lon="-1.530171">
        <ele>404.4</ele>
        <time>2013-12-06T08:20:09Z</time>
      </trkpt>
      <trkpt lat="38.326690" lon="-1.530321">
        <ele>405.8</ele>
        <time>2013-12-06T08:20:23Z</time>
      </trkpt>
      <trkpt lat="38.326558" lon="-1.530464">
        <ele>407.7</ele>
        <time>2013-12-06T08:20:37Z</time>
      </trkpt>
      <trkpt lat="38.326436" lon="-1.530608">
        <ele>409.2</ele>
        <time>2013-12-06T08:20:50Z</time>
      </trkpt>
      <trkpt lat="38.326351" lon="-1.530672">
        <ele>410.1</ele>
        <time>2013-12-06T08:20:57Z</time>
      </trkpt>
      <trkpt lat="38.326265" lon="-1.530717">
        <ele>410.6</ele>
        <time>2013-12-06T08:21:04Z</time>
      </trkpt>
      <trkpt lat="38.326066" lon="-1.530865">
        <ele>411.6</ele>
        <time>2013-12-06T08:21:21Z</time>
      </trkpt>
      <trkpt lat="38.325898" lon="-1.531008">
        <ele>412.1</ele>
        <time>2013-12-06T08:21:36Z</time>
      </trkpt>
      <trkpt lat="38.325808" lon="-1.531122">
        <ele>413.0</ele>
        <time>2013-12-06T08:21:45Z</time>
      </trkpt>
      <trkpt lat="38.325717" lon="-1.531317">
        <ele>415.0</ele>
        <time>2013-12-06T08:21:59Z</time>
      </trkpt>
      <trkpt lat="38.325708" lon="-1.531380">
        <ele>415.4</ele>
        <time>2013-12-06T08:22:03Z</time>
      </trkpt>
      <trkpt lat="38.325684" lon="-1.531536">
        <ele>416.9</ele>
        <time>2013-12-06T08:22:16Z</time>
      </trkpt>
      <trkpt lat="38.325655" lon="-1.531581">
        <ele>416.9</ele>
        <time>2013-12-06T08:22:20Z</time>
      </trkpt>
      <trkpt lat="38.325604" lon="-1.531668">
        <ele>417.8</ele>
        <time>2013-12-06T08:22:26Z</time>
      </trkpt>
      <trkpt lat="38.325498" lon="-1.531904">
        <ele>418.8</ele>
        <time>2013-12-06T08:22:43Z</time>
      </trkpt>
      <trkpt lat="38.325442" lon="-1.532160">
        <ele>419.8</ele>
        <time>2013-12-06T08:22:59Z</time>
      </trkpt>
      <trkpt lat="38.325439" lon="-1.532399">
        <ele>420.2</ele>
        <time>2013-12-06T08:23:13Z</time>
      </trkpt>
      <trkpt lat="38.325433" lon="-1.532611">
        <ele>422.2</ele>
        <time>2013-12-06T08:23:26Z</time>
      </trkpt>
      <trkpt lat="38.325431" lon="-1.532625">
        <ele>422.2</ele>
        <time>2013-12-06T08:23:27Z</time>
      </trkpt>
      <trkpt lat="38.325449" lon="-1.532712">
        <ele>423.1</ele>
        <time>2013-12-06T08:23:35Z</time>
      </trkpt>
      <trkpt lat="38.325473" lon="-1.532800">
        <ele>424.1</ele>
        <time>2013-12-06T08:23:43Z</time>
      </trkpt>
      <trkpt lat="38.325593" lon="-1.532933">
        <ele>424.6</ele>
        <time>2013-12-06T08:23:57Z</time>
      </trkpt>
      <trkpt lat="38.325789" lon="-1.532952">
        <ele>425.0</ele>
        <time>2013-12-06T08:24:11Z</time>
      </trkpt>
      <trkpt lat="38.325841" lon="-1.532935">
        <ele>426.0</ele>
        <time>2013-12-06T08:24:15Z</time>
      </trkpt>
      <trkpt lat="38.325896" lon="-1.532908">
        <ele>426.0</ele>
        <time>2013-12-06T08:24:20Z</time>
      </trkpt>
      <trkpt lat="38.326026" lon="-1.532746">
        <ele>427.4</ele>
        <time>2013-12-06T08:24:34Z</time>
      </trkpt>
      <trkpt lat="38.326141" lon="-1.532593">
        <ele>428.4</ele>
        <time>2013-12-06T08:24:48Z</time>
      </trkpt>
      <trkpt lat="38.326170" lon="-1.532557">
        <ele>428.4</ele>
        <time>2013-12-06T08:24:51Z</time>
      </trkpt>
      <trkpt lat="38.326208" lon="-1.532523">
        <ele>428.4</ele>
        <time>2013-12-06T08:24:55Z</time>
      </trkpt>
      <trkpt lat="38.326356" lon="-1.532452">
        <ele>429.4</ele>
        <time>2013-12-06T08:25:07Z</time>
      </trkpt>
      <trkpt lat="38.326409" lon="-1.532447">
        <ele>429.9</ele>
        <time>2013-12-06T08:25:11Z</time>
      </trkpt>
      <trkpt lat="38.326513" lon="-1.532428">
        <ele>429.9</ele>
        <time>2013-12-06T08:25:19Z</time>
      </trkpt>
      <trkpt lat="38.326564" lon="-1.532446">
        <ele>429.9</ele>
        <time>2013-12-06T08:25:23Z</time>
      </trkpt>
      <trkpt lat="38.326753" lon="-1.532453">
        <ele>431.3</ele>
        <time>2013-12-06T08:25:38Z</time>
      </trkpt>
      <trkpt lat="38.326926" lon="-1.532544">
        <ele>432.7</ele>
        <time>2013-12-06T08:25:52Z</time>
      </trkpt>
      <trkpt lat="38.326965" lon="-1.532586">
        <ele>432.7</ele>
        <time>2013-12-06T08:25:56Z</time>
      </trkpt>
      <trkpt lat="38.327025" lon="-1.532712">
        <ele>434.2</ele>
        <time>2013-12-06T08:26:06Z</time>
      </trkpt>
      <trkpt lat="38.327103" lon="-1.532906">
        <ele>436.1</ele>
        <time>2013-12-06T08:26:20Z</time>
      </trkpt>
      <trkpt lat="38.327133" lon="-1.532978">
        <ele>436.6</ele>
        <time>2013-12-06T08:26:25Z</time>
      </trkpt>
      <trkpt lat="38.327151" lon="-1.533040">
        <ele>437.1</ele>
        <time>2013-12-06T08:26:29Z</time>
      </trkpt>
      <trkpt lat="38.327170" lon="-1.533083">
        <ele>437.1</ele>
        <time>2013-12-06T08:26:32Z</time>
      </trkpt>
      <trkpt lat="38.327208" lon="-1.533283">
        <ele>438.5</ele>
        <time>2013-12-06T08:26:45Z</time>
      </trkpt>
      <trkpt lat="38.327222" lon="-1.533311">
        <ele>439.0</ele>
        <time>2013-12-06T08:26:47Z</time>
      </trkpt>
      <trkpt lat="38.327288" lon="-1.533521">
        <ele>440.4</ele>
        <time>2013-12-06T08:27:01Z</time>
      </trkpt>
      <trkpt lat="38.327295" lon="-1.533533">
        <ele>440.4</ele>
        <time>2013-12-06T08:27:02Z</time>
      </trkpt>
      <trkpt lat="38.327336" lon="-1.533729">
        <ele>441.9</ele>
        <time>2013-12-06T08:27:15Z</time>
      </trkpt>
      <trkpt lat="38.327387" lon="-1.533852">
        <ele>442.3</ele>
        <time>2013-12-06T08:27:23Z</time>
      </trkpt>
      <trkpt lat="38.327437" lon="-1.533949">
        <ele>443.3</ele>
        <time>2013-12-06T08:27:30Z</time>
      </trkpt>
      <trkpt lat="38.327569" lon="-1.534082">
        <ele>444.8</ele>
        <time>2013-12-06T08:27:43Z</time>
      </trkpt>
      <trkpt lat="38.327777" lon="-1.534088">
        <ele>446.7</ele>
        <time>2013-12-06T08:27:58Z</time>
      </trkpt>
      <trkpt lat="38.327952" lon="-1.534029">
        <ele>448.6</ele>
        <time>2013-12-06T08:28:12Z</time>
      </trkpt>
      <trkpt lat="38.328132" lon="-1.533999">
        <ele>450.5</ele>
        <time>2013-12-06T08:28:27Z</time>
      </trkpt>
      <trkpt lat="38.328310" lon="-1.534019">
        <ele>452.0</ele>
        <time>2013-12-06T08:28:42Z</time>
      </trkpt>
      <trkpt lat="38.328517" lon="-1.534098">
        <ele>453.4</ele>
        <time>2013-12-06T08:28:59Z</time>
      </trkpt>
      <trkpt lat="38.328745" lon="-1.534188">
        <ele>454.4</ele>
        <time>2013-12-06T08:29:16Z</time>
      </trkpt>
      <trkpt lat="38.328948" lon="-1.534183">
        <ele>455.3</ele>
        <time>2013-12-06T08:29:30Z</time>
      </trkpt>
      <trkpt lat="38.329144" lon="-1.534140">
        <ele>457.2</ele>
        <time>2013-12-06T08:29:45Z</time>
      </trkpt>
      <trkpt lat="38.329171" lon="-1.534126">
        <ele>457.7</ele>
        <time>2013-12-06T08:29:47Z</time>
      </trkpt>
      <trkpt lat="38.329225" lon="-1.534113">
        <ele>457.7</ele>
        <time>2013-12-06T08:29:51Z</time>
      </trkpt>
      <trkpt lat="38.329271" lon="-1.534088">
        <ele>458.2</ele>
        <time>2013-12-06T08:29:55Z</time>
      </trkpt>
      <trkpt lat="38.329449" lon="-1.533998">
        <ele>459.6</ele>
        <time>2013-12-06T08:30:10Z</time>
      </trkpt>
      <trkpt lat="38.329552" lon="-1.533961">
        <ele>460.6</ele>
        <time>2013-12-06T08:30:18Z</time>
      </trkpt>
      <trkpt lat="38.329753" lon="-1.533864">
        <ele>462.0</ele>
        <time>2013-12-06T08:30:34Z</time>
      </trkpt>
      <trkpt lat="38.329946" lon="-1.533767">
        <ele>464.5</ele>
        <time>2013-12-06T08:30:51Z</time>
      </trkpt>
      <trkpt lat="38.330126" lon="-1.533696">
        <ele>464.9</ele>
        <time>2013-12-06T08:31:07Z</time>
      </trkpt>
      <trkpt lat="38.330341" lon="-1.533627">
        <ele>465.4</ele>
        <time>2013-12-06T08:31:25Z</time>
      </trkpt>
      <trkpt lat="38.330533" lon="-1.533614">
        <ele>466.9</ele>
        <time>2013-12-06T08:31:41Z</time>
      </trkpt>
      <trkpt lat="38.330619" lon="-1.533720">
        <ele>467.3</ele>
        <time>2013-12-06T08:31:51Z</time>
      </trkpt>
      <trkpt lat="38.330620" lon="-1.533786">
        <ele>467.3</ele>
        <time>2013-12-06T08:31:55Z</time>
      </trkpt>
      <trkpt lat="38.330591" lon="-1.534095">
        <ele>466.9</ele>
        <time>2013-12-06T08:32:15Z</time>
      </trkpt>
      <trkpt lat="38.330682" lon="-1.534285">
        <ele>465.9</ele>
        <time>2013-12-06T08:32:30Z</time>
      </trkpt>
      <trkpt lat="38.330815" lon="-1.534429">
        <ele>465.4</ele>
        <time>2013-12-06T08:32:45Z</time>
      </trkpt>
      <trkpt lat="38.330981" lon="-1.534537">
        <ele>464.9</ele>
        <time>2013-12-06T08:33:00Z</time>
      </trkpt>
      <trkpt lat="38.331237" lon="-1.534610">
        <ele>464.9</ele>
        <time>2013-12-06T08:33:20Z</time>
      </trkpt>
      <trkpt lat="38.331294" lon="-1.534630">
        <ele>464.0</ele>
        <time>2013-12-06T08:33:34Z</time>
      </trkpt>
      <trkpt lat="38.331340" lon="-1.534598">
        <ele>463.5</ele>
        <time>2013-12-06T08:33:46Z</time>
      </trkpt>
      <trkpt lat="38.331369" lon="-1.534641">
        <ele>464.0</ele>
        <time>2013-12-06T08:36:09Z</time>
      </trkpt>
      <trkpt lat="38.331372" lon="-1.534666">
        <ele>467.3</ele>
        <time>2013-12-06T09:14:13Z</time>
      </trkpt>
      <trkpt lat="38.331383" lon="-1.534699">
        <ele>467.8</ele>
        <time>2013-12-06T09:14:22Z</time>
      </trkpt>
      <trkpt lat="38.331388" lon="-1.534758">
        <ele>467.8</ele>
        <time>2013-12-06T09:14:26Z</time>
      </trkpt>
      <trkpt lat="38.331425" lon="-1.534940">
        <ele>466.9</ele>
        <time>2013-12-06T09:14:43Z</time>
      </trkpt>
      <trkpt lat="38.331409" lon="-1.535043">
        <ele>466.9</ele>
        <time>2013-12-06T09:15:41Z</time>
      </trkpt>
      <trkpt lat="38.331384" lon="-1.535340">
        <ele>466.9</ele>
        <time>2013-12-06T09:15:57Z</time>
      </trkpt>
      <trkpt lat="38.331311" lon="-1.535626">
        <ele>465.9</ele>
        <time>2013-12-06T09:16:13Z</time>
      </trkpt>
      <trkpt lat="38.331361" lon="-1.535929">
        <ele>465.9</ele>
        <time>2013-12-06T09:16:30Z</time>
      </trkpt>
      <trkpt lat="38.331534" lon="-1.536209">
        <ele>467.3</ele>
        <time>2013-12-06T09:16:49Z</time>
      </trkpt>
      <trkpt lat="38.331600" lon="-1.536502">
        <ele>466.4</ele>
        <time>2013-12-06T09:17:05Z</time>
      </trkpt>
      <trkpt lat="38.331594" lon="-1.536781">
        <ele>466.4</ele>
        <time>2013-12-06T09:17:21Z</time>
      </trkpt>
      <trkpt lat="38.331566" lon="-1.536952">
        <ele>465.4</ele>
        <time>2013-12-06T09:17:38Z</time>
      </trkpt>
      <trkpt lat="38.331561" lon="-1.536961">
        <ele>464.9</ele>
        <time>2013-12-06T09:18:10Z</time>
      </trkpt>
      <trkpt lat="38.331639" lon="-1.537124">
        <ele>466.4</ele>
        <time>2013-12-06T09:18:19Z</time>
      </trkpt>
      <trkpt lat="38.331712" lon="-1.537435">
        <ele>465.9</ele>
        <time>2013-12-06T09:18:37Z</time>
      </trkpt>
      <trkpt lat="38.331646" lon="-1.537607">
        <ele>466.4</ele>
        <time>2013-12-06T09:18:48Z</time>
      </trkpt>
      <trkpt lat="38.331605" lon="-1.537957">
        <ele>467.8</ele>
        <time>2013-12-06T09:19:07Z</time>
      </trkpt>
      <trkpt lat="38.331603" lon="-1.537993">
        <ele>467.8</ele>
        <time>2013-12-06T09:19:09Z</time>
      </trkpt>
      <trkpt lat="38.331622" lon="-1.538094">
        <ele>468.8</ele>
        <time>2013-12-06T09:19:15Z</time>
      </trkpt>
      <trkpt lat="38.331664" lon="-1.538406">
        <ele>470.7</ele>
        <time>2013-12-06T09:19:32Z</time>
      </trkpt>
      <trkpt lat="38.331674" lon="-1.538671">
        <ele>471.2</ele>
        <time>2013-12-06T09:19:47Z</time>
      </trkpt>
      <trkpt lat="38.331705" lon="-1.538969">
        <ele>472.1</ele>
        <time>2013-12-06T09:20:03Z</time>
      </trkpt>
      <trkpt lat="38.331833" lon="-1.539206">
        <ele>472.6</ele>
        <time>2013-12-06T09:20:18Z</time>
      </trkpt>
      <trkpt lat="38.332023" lon="-1.539402">
        <ele>474.1</ele>
        <time>2013-12-06T09:20:35Z</time>
      </trkpt>
      <trkpt lat="38.332053" lon="-1.539658">
        <ele>475.0</ele>
        <time>2013-12-06T09:20:49Z</time>
      </trkpt>
      <trkpt lat="38.332010" lon="-1.539969">
        <ele>475.5</ele>
        <time>2013-12-06T09:21:06Z</time>
      </trkpt>
      <trkpt lat="38.331917" lon="-1.540282">
        <ele>476.5</ele>
        <time>2013-12-06T09:21:24Z</time>
      </trkpt>
      <trkpt lat="38.331813" lon="-1.540578">
        <ele>477.9</ele>
        <time>2013-12-06T09:21:41Z</time>
      </trkpt>
      <trkpt lat="38.331698" lon="-1.540847">
        <ele>479.4</ele>
        <time>2013-12-06T09:21:58Z</time>
      </trkpt>
      <trkpt lat="38.331589" lon="-1.541055">
        <ele>480.3</ele>
        <time>2013-12-06T09:22:12Z</time>
      </trkpt>
      <trkpt lat="38.331465" lon="-1.541321">
        <ele>481.8</ele>
        <time>2013-12-06T09:22:28Z</time>
      </trkpt>
      <trkpt lat="38.331374" lon="-1.541605">
        <ele>483.2</ele>
        <time>2013-12-06T09:22:44Z</time>
      </trkpt>
      <trkpt lat="38.331374" lon="-1.541698">
        <ele>484.2</ele>
        <time>2013-12-06T09:22:49Z</time>
      </trkpt>
      <trkpt lat="38.331277" lon="-1.542005">
        <ele>485.6</ele>
        <time>2013-12-06T09:23:07Z</time>
      </trkpt>
      <trkpt lat="38.331160" lon="-1.542235">
        <ele>486.6</ele>
        <time>2013-12-06T09:23:23Z</time>
      </trkpt>
      <trkpt lat="38.331044" lon="-1.542467">
        <ele>487.0</ele>
        <time>2013-12-06T09:23:38Z</time>
      </trkpt>
      <trkpt lat="38.330960" lon="-1.542684">
        <ele>489.5</ele>
        <time>2013-12-06T09:23:51Z</time>
      </trkpt>
      <trkpt lat="38.330886" lon="-1.542916">
        <ele>491.4</ele>
        <time>2013-12-06T09:24:05Z</time>
      </trkpt>
      <trkpt lat="38.330849" lon="-1.543016">
        <ele>491.9</ele>
        <time>2013-12-06T09:24:11Z</time>
      </trkpt>
      <trkpt lat="38.330726" lon="-1.543326">
        <ele>494.3</ele>
        <time>2013-12-06T09:24:30Z</time>
      </trkpt>
      <trkpt lat="38.330655" lon="-1.543589">
        <ele>495.7</ele>
        <time>2013-12-06T09:24:45Z</time>
      </trkpt>
      <trkpt lat="38.330663" lon="-1.543749">
        <ele>496.7</ele>
        <time>2013-12-06T09:24:54Z</time>
      </trkpt>
      <trkpt lat="38.330666" lon="-1.543814">
        <ele>497.1</ele>
        <time>2013-12-06T09:24:58Z</time>
      </trkpt>
      <trkpt lat="38.330716" lon="-1.543954">
        <ele>498.1</ele>
        <time>2013-12-06T09:25:06Z</time>
      </trkpt>
      <trkpt lat="38.330737" lon="-1.544020">
        <ele>498.1</ele>
        <time>2013-12-06T09:25:10Z</time>
      </trkpt>
      <trkpt lat="38.330803" lon="-1.544224">
        <ele>500.5</ele>
        <time>2013-12-06T09:25:25Z</time>
      </trkpt>
      <trkpt lat="38.330811" lon="-1.544228">
        <ele>500.0</ele>
        <time>2013-12-06T09:25:29Z</time>
      </trkpt>
      <trkpt lat="38.330781" lon="-1.544344">
        <ele>500.5</ele>
        <time>2013-12-06T09:25:37Z</time>
      </trkpt>
      <trkpt lat="38.330765" lon="-1.544364">
        <ele>501.0</ele>
        <time>2013-12-06T09:25:39Z</time>
      </trkpt>
      <trkpt lat="38.330749" lon="-1.544398">
        <ele>501.0</ele>
        <time>2013-12-06T09:25:42Z</time>
      </trkpt>
      <trkpt lat="38.330732" lon="-1.544419">
        <ele>501.5</ele>
        <time>2013-12-06T09:25:44Z</time>
      </trkpt>
      <trkpt lat="38.330710" lon="-1.544466">
        <ele>501.5</ele>
        <time>2013-12-06T09:25:48Z</time>
      </trkpt>
      <trkpt lat="38.330589" lon="-1.544658">
        <ele>502.4</ele>
        <time>2013-12-06T09:26:03Z</time>
      </trkpt>
      <trkpt lat="38.330487" lon="-1.544860">
        <ele>504.4</ele>
        <time>2013-12-06T09:26:17Z</time>
      </trkpt>
      <trkpt lat="38.330346" lon="-1.545049">
        <ele>505.3</ele>
        <time>2013-12-06T09:26:32Z</time>
      </trkpt>
      <trkpt lat="38.330206" lon="-1.545210">
        <ele>506.3</ele>
        <time>2013-12-06T09:26:46Z</time>
      </trkpt>
      <trkpt lat="38.330072" lon="-1.545387">
        <ele>506.8</ele>
        <time>2013-12-06T09:27:00Z</time>
      </trkpt>
      <trkpt lat="38.329945" lon="-1.545593">
        <ele>508.2</ele>
        <time>2013-12-06T09:27:15Z</time>
      </trkpt>
      <trkpt lat="38.329791" lon="-1.545807">
        <ele>509.2</ele>
        <time>2013-12-06T09:27:31Z</time>
      </trkpt>
      <trkpt lat="38.329603" lon="-1.545994">
        <ele>510.6</ele>
        <time>2013-12-06T09:27:48Z</time>
      </trkpt>
      <trkpt lat="38.329415" lon="-1.546137">
        <ele>512.0</ele>
        <time>2013-12-06T09:28:03Z</time>
      </trkpt>
      <trkpt lat="38.329281" lon="-1.546202">
        <ele>513.0</ele>
        <time>2013-12-06T09:28:14Z</time>
      </trkpt>
      <trkpt lat="38.329085" lon="-1.546281">
        <ele>514.0</ele>
        <time>2013-12-06T09:28:30Z</time>
      </trkpt>
      <trkpt lat="38.328907" lon="-1.546358">
        <ele>515.4</ele>
        <time>2013-12-06T09:28:45Z</time>
      </trkpt>
      <trkpt lat="38.328719" lon="-1.546454">
        <ele>517.8</ele>
        <time>2013-12-06T09:29:00Z</time>
      </trkpt>
      <trkpt lat="38.328565" lon="-1.546624">
        <ele>518.8</ele>
        <time>2013-12-06T09:29:15Z</time>
      </trkpt>
      <trkpt lat="38.328457" lon="-1.546816">
        <ele>520.2</ele>
        <time>2013-12-06T09:29:29Z</time>
      </trkpt>
      <trkpt lat="38.328347" lon="-1.547080">
        <ele>520.2</ele>
        <time>2013-12-06T09:29:47Z</time>
      </trkpt>
      <trkpt lat="38.328320" lon="-1.547130">
        <ele>520.7</ele>
        <time>2013-12-06T09:29:51Z</time>
      </trkpt>
      <trkpt lat="38.328227" lon="-1.547367">
        <ele>521.2</ele>
        <time>2013-12-06T09:30:08Z</time>
      </trkpt>
      <trkpt lat="38.328119" lon="-1.547633">
        <ele>520.7</ele>
        <time>2013-12-06T09:30:26Z</time>
      </trkpt>
      <trkpt lat="38.328125" lon="-1.547982">
        <ele>520.7</ele>
        <time>2013-12-06T09:30:46Z</time>
      </trkpt>
      <trkpt lat="38.328311" lon="-1.548156">
        <ele>520.7</ele>
        <time>2013-12-06T09:31:03Z</time>
      </trkpt>
      <trkpt lat="38.328564" lon="-1.548118">
        <ele>521.2</ele>
        <time>2013-12-06T09:31:21Z</time>
      </trkpt>
      <trkpt lat="38.328808" lon="-1.548061">
        <ele>520.2</ele>
        <time>2013-12-06T09:31:39Z</time>
      </trkpt>
      <trkpt lat="38.329029" lon="-1.548030">
        <ele>519.7</ele>
        <time>2013-12-06T09:31:56Z</time>
      </trkpt>
      <trkpt lat="38.329084" lon="-1.548035">
        <ele>519.7</ele>
        <time>2013-12-06T09:32:00Z</time>
      </trkpt>
      <trkpt lat="38.329316" lon="-1.548018">
        <ele>519.2</ele>
        <time>2013-12-06T09:32:18Z</time>
      </trkpt>
      <trkpt lat="38.329512" lon="-1.547988">
        <ele>519.2</ele>
        <time>2013-12-06T09:32:33Z</time>
      </trkpt>
      <trkpt lat="38.329759" lon="-1.547992">
        <ele>518.3</ele>
        <time>2013-12-06T09:32:52Z</time>
      </trkpt>
      <trkpt lat="38.329972" lon="-1.548064">
        <ele>517.3</ele>
        <time>2013-12-06T09:33:08Z</time>
      </trkpt>
      <trkpt lat="38.330167" lon="-1.548129">
        <ele>517.8</ele>
        <time>2013-12-06T09:33:23Z</time>
      </trkpt>
      <trkpt lat="38.330412" lon="-1.548249">
        <ele>517.8</ele>
        <time>2013-12-06T09:33:42Z</time>
      </trkpt>
      <trkpt lat="38.330460" lon="-1.548331">
        <ele>518.3</ele>
        <time>2013-12-06T09:33:48Z</time>
      </trkpt>
      <trkpt lat="38.330440" lon="-1.548602">
        <ele>518.8</ele>
        <time>2013-12-06T09:34:05Z</time>
      </trkpt>
      <trkpt lat="38.330314" lon="-1.548853">
        <ele>518.3</ele>
        <time>2013-12-06T09:34:23Z</time>
      </trkpt>
      <trkpt lat="38.330284" lon="-1.548899">
        <ele>518.3</ele>
        <time>2013-12-06T09:34:37Z</time>
      </trkpt>
      <trkpt lat="38.330100" lon="-1.549112">
        <ele>518.3</ele>
        <time>2013-12-06T09:34:54Z</time>
      </trkpt>
      <trkpt lat="38.329932" lon="-1.549277">
        <ele>518.8</ele>
        <time>2013-12-06T09:35:09Z</time>
      </trkpt>
      <trkpt lat="38.329785" lon="-1.549458">
        <ele>519.2</ele>
        <time>2013-12-06T09:35:24Z</time>
      </trkpt>
      <trkpt lat="38.329595" lon="-1.549712">
        <ele>518.3</ele>
        <time>2013-12-06T09:35:42Z</time>
      </trkpt>
      <trkpt lat="38.329366" lon="-1.549941">
        <ele>517.3</ele>
        <time>2013-12-06T09:36:03Z</time>
      </trkpt>
      <trkpt lat="38.329183" lon="-1.550185">
        <ele>517.8</ele>
        <time>2013-12-06T09:36:21Z</time>
      </trkpt>
      <trkpt lat="38.329012" lon="-1.550388">
        <ele>517.8</ele>
        <time>2013-12-06T09:36:37Z</time>
      </trkpt>
      <trkpt lat="38.328965" lon="-1.550449">
        <ele>517.3</ele>
        <time>2013-12-06T09:36:42Z</time>
      </trkpt>
      <trkpt lat="38.328917" lon="-1.550496">
        <ele>517.3</ele>
        <time>2013-12-06T09:36:46Z</time>
      </trkpt>
      <trkpt lat="38.328683" lon="-1.550769">
        <ele>517.3</ele>
        <time>2013-12-06T09:37:08Z</time>
      </trkpt>
      <trkpt lat="38.328466" lon="-1.551022">
        <ele>517.8</ele>
        <time>2013-12-06T09:37:29Z</time>
      </trkpt>
      <trkpt lat="38.328376" lon="-1.551132">
        <ele>517.3</ele>
        <time>2013-12-06T09:37:38Z</time>
      </trkpt>
      <trkpt lat="38.328327" lon="-1.551192">
        <ele>517.8</ele>
        <time>2013-12-06T09:37:43Z</time>
      </trkpt>
      <trkpt lat="38.328131" lon="-1.551439">
        <ele>518.8</ele>
        <time>2013-12-06T09:38:03Z</time>
      </trkpt>
      <trkpt lat="38.327972" lon="-1.551620">
        <ele>519.7</ele>
        <time>2013-12-06T09:38:19Z</time>
      </trkpt>
      <trkpt lat="38.327762" lon="-1.551849">
        <ele>519.7</ele>
        <time>2013-12-06T09:38:39Z</time>
      </trkpt>
      <trkpt lat="38.327596" lon="-1.552045">
        <ele>519.2</ele>
        <time>2013-12-06T09:38:55Z</time>
      </trkpt>
      <trkpt lat="38.327433" lon="-1.552230">
        <ele>518.8</ele>
        <time>2013-12-06T09:39:10Z</time>
      </trkpt>
      <trkpt lat="38.327264" lon="-1.552422">
        <ele>518.3</ele>
        <time>2013-12-06T09:39:26Z</time>
      </trkpt>
      <trkpt lat="38.327072" lon="-1.552686">
        <ele>518.3</ele>
        <time>2013-12-06T09:39:45Z</time>
      </trkpt>
      <trkpt lat="38.326884" lon="-1.552916">
        <ele>517.8</ele>
        <time>2013-12-06T09:40:04Z</time>
      </trkpt>
      <trkpt lat="38.326722" lon="-1.553111">
        <ele>516.8</ele>
        <time>2013-12-06T09:40:20Z</time>
      </trkpt>
      <trkpt lat="38.326529" lon="-1.553324">
        <ele>516.8</ele>
        <time>2013-12-06T09:40:38Z</time>
      </trkpt>
      <trkpt lat="38.326365" lon="-1.553517">
        <ele>515.9</ele>
        <time>2013-12-06T09:40:53Z</time>
      </trkpt>
      <trkpt lat="38.326241" lon="-1.553632">
        <ele>515.9</ele>
        <time>2013-12-06T09:41:04Z</time>
      </trkpt>
      <trkpt lat="38.326232" lon="-1.553676">
        <ele>515.4</ele>
        <time>2013-12-06T09:41:18Z</time>
      </trkpt>
      <trkpt lat="38.326104" lon="-1.553829">
        <ele>514.0</ele>
        <time>2013-12-06T09:41:33Z</time>
      </trkpt>
      <trkpt lat="38.326006" lon="-1.553951">
        <ele>513.0</ele>
        <time>2013-12-06T09:41:47Z</time>
      </trkpt>
      <trkpt lat="38.326000" lon="-1.553958">
        <ele>513.0</ele>
        <time>2013-12-06T09:41:48Z</time>
      </trkpt>
      <trkpt lat="38.325895" lon="-1.554061">
        <ele>512.0</ele>
        <time>2013-12-06T09:42:02Z</time>
      </trkpt>
      <trkpt lat="38.325810" lon="-1.554170">
        <ele>512.0</ele>
        <time>2013-12-06T09:42:13Z</time>
      </trkpt>
      <trkpt lat="38.325653" lon="-1.554335">
        <ele>511.1</ele>
        <time>2013-12-06T09:42:30Z</time>
      </trkpt>
      <trkpt lat="38.325505" lon="-1.554503">
        <ele>511.1</ele>
        <time>2013-12-06T09:42:46Z</time>
      </trkpt>
      <trkpt lat="38.325326" lon="-1.554697">
        <ele>510.1</ele>
        <time>2013-12-06T09:43:05Z</time>
      </trkpt>
      <trkpt lat="38.325318" lon="-1.554705">
        <ele>510.1</ele>
        <time>2013-12-06T09:43:06Z</time>
      </trkpt>
      <trkpt lat="38.325152" lon="-1.554913">
        <ele>509.6</ele>
        <time>2013-12-06T09:43:24Z</time>
      </trkpt>
      <trkpt lat="38.324976" lon="-1.555116">
        <ele>508.7</ele>
        <time>2013-12-06T09:43:42Z</time>
      </trkpt>
      <trkpt lat="38.324823" lon="-1.555289">
        <ele>508.7</ele>
        <time>2013-12-06T09:43:58Z</time>
      </trkpt>
      <trkpt lat="38.324782" lon="-1.555320">
        <ele>508.7</ele>
        <time>2013-12-06T09:44:02Z</time>
      </trkpt>
      <trkpt lat="38.324601" lon="-1.555557">
        <ele>508.2</ele>
        <time>2013-12-06T09:44:21Z</time>
      </trkpt>
      <trkpt lat="38.324411" lon="-1.555784">
        <ele>507.7</ele>
        <time>2013-12-06T09:44:41Z</time>
      </trkpt>
      <trkpt lat="38.324215" lon="-1.556008">
        <ele>506.3</ele>
        <time>2013-12-06T09:45:00Z</time>
      </trkpt>
      <trkpt lat="38.324021" lon="-1.556215">
        <ele>506.3</ele>
        <time>2013-12-06T09:45:19Z</time>
      </trkpt>
      <trkpt lat="38.323837" lon="-1.556438">
        <ele>506.3</ele>
        <time>2013-12-06T09:45:38Z</time>
      </trkpt>
      <trkpt lat="38.323636" lon="-1.556667">
        <ele>506.3</ele>
        <time>2013-12-06T09:45:59Z</time>
      </trkpt>
      <trkpt lat="38.323443" lon="-1.556878">
        <ele>505.3</ele>
        <time>2013-12-06T09:46:18Z</time>
      </trkpt>
      <trkpt lat="38.323269" lon="-1.557092">
        <ele>504.8</ele>
        <time>2013-12-06T09:46:36Z</time>
      </trkpt>
      <trkpt lat="38.323174" lon="-1.557260">
        <ele>504.8</ele>
        <time>2013-12-06T09:46:52Z</time>
      </trkpt>
      <trkpt lat="38.323155" lon="-1.557259">
        <ele>504.8</ele>
        <time>2013-12-06T09:47:03Z</time>
      </trkpt>
      <trkpt lat="38.322948" lon="-1.557489">
        <ele>504.8</ele>
        <time>2013-12-06T09:47:22Z</time>
      </trkpt>
      <trkpt lat="38.322731" lon="-1.557672">
        <ele>504.8</ele>
        <time>2013-12-06T09:47:40Z</time>
      </trkpt>
      <trkpt lat="38.322468" lon="-1.557928">
        <ele>504.4</ele>
        <time>2013-12-06T09:48:02Z</time>
      </trkpt>
      <trkpt lat="38.322248" lon="-1.558157">
        <ele>504.4</ele>
        <time>2013-12-06T09:48:21Z</time>
      </trkpt>
      <trkpt lat="38.322053" lon="-1.558321">
        <ele>504.8</ele>
        <time>2013-12-06T09:48:38Z</time>
      </trkpt>
      <trkpt lat="38.321811" lon="-1.558556">
        <ele>504.8</ele>
        <time>2013-12-06T09:48:58Z</time>
      </trkpt>
      <trkpt lat="38.321587" lon="-1.558782">
        <ele>505.8</ele>
        <time>2013-12-06T09:49:17Z</time>
      </trkpt>
      <trkpt lat="38.321402" lon="-1.558963">
        <ele>506.3</ele>
        <time>2013-12-06T09:49:34Z</time>
      </trkpt>
      <trkpt lat="38.321373" lon="-1.558998">
        <ele>507.2</ele>
        <time>2013-12-06T09:49:37Z</time>
      </trkpt>
      <trkpt lat="38.321264" lon="-1.559106">
        <ele>507.2</ele>
        <time>2013-12-06T09:49:47Z</time>
      </trkpt>
      <trkpt lat="38.321158" lon="-1.559211">
        <ele>508.7</ele>
        <time>2013-12-06T09:49:57Z</time>
      </trkpt>
      <trkpt lat="38.320982" lon="-1.559427">
        <ele>509.2</ele>
        <time>2013-12-06T09:50:16Z</time>
      </trkpt>
      <trkpt lat="38.320846" lon="-1.559632">
        <ele>510.6</ele>
        <time>2013-12-06T09:50:32Z</time>
      </trkpt>
      <trkpt lat="38.320755" lon="-1.559779">
        <ele>511.1</ele>
        <time>2013-12-06T09:50:43Z</time>
      </trkpt>
      <trkpt lat="38.320622" lon="-1.559964">
        <ele>512.0</ele>
        <time>2013-12-06T09:50:58Z</time>
      </trkpt>
      <trkpt lat="38.320496" lon="-1.560110">
        <ele>512.5</ele>
        <time>2013-12-06T09:51:13Z</time>
      </trkpt>
      <trkpt lat="38.320413" lon="-1.560202">
        <ele>512.5</ele>
        <time>2013-12-06T09:51:24Z</time>
      </trkpt>
      <trkpt lat="38.320243" lon="-1.560392">
        <ele>512.5</ele>
        <time>2013-12-06T09:51:40Z</time>
      </trkpt>
      <trkpt lat="38.320061" lon="-1.560626">
        <ele>512.5</ele>
        <time>2013-12-06T09:51:58Z</time>
      </trkpt>
      <trkpt lat="38.319936" lon="-1.560955">
        <ele>512.0</ele>
        <time>2013-12-06T09:52:17Z</time>
      </trkpt>
      <trkpt lat="38.319815" lon="-1.561261">
        <ele>512.5</ele>
        <time>2013-12-06T09:52:36Z</time>
      </trkpt>
      <trkpt lat="38.319717" lon="-1.561490">
        <ele>512.5</ele>
        <time>2013-12-06T09:52:52Z</time>
      </trkpt>
      <trkpt lat="38.319595" lon="-1.561775">
        <ele>512.5</ele>
        <time>2013-12-06T09:53:11Z</time>
      </trkpt>
      <trkpt lat="38.319466" lon="-1.562027">
        <ele>513.0</ele>
        <time>2013-12-06T09:53:29Z</time>
      </trkpt>
      <trkpt lat="38.319356" lon="-1.562275">
        <ele>513.5</ele>
        <time>2013-12-06T09:53:46Z</time>
      </trkpt>
      <trkpt lat="38.319218" lon="-1.562534">
        <ele>514.0</ele>
        <time>2013-12-06T09:54:04Z</time>
      </trkpt>
      <trkpt lat="38.319095" lon="-1.562778">
        <ele>514.9</ele>
        <time>2013-12-06T09:54:21Z</time>
      </trkpt>
      <trkpt lat="38.318960" lon="-1.563054">
        <ele>516.4</ele>
        <time>2013-12-06T09:54:39Z</time>
      </trkpt>
      <trkpt lat="38.318801" lon="-1.563365">
        <ele>516.4</ele>
        <time>2013-12-06T09:54:59Z</time>
      </trkpt>
      <trkpt lat="38.318669" lon="-1.563622">
        <ele>517.3</ele>
        <time>2013-12-06T09:55:16Z</time>
      </trkpt>
      <trkpt lat="38.318535" lon="-1.563867">
        <ele>518.3</ele>
        <time>2013-12-06T09:55:33Z</time>
      </trkpt>
      <trkpt lat="38.318395" lon="-1.564145">
        <ele>519.7</ele>
        <time>2013-12-06T09:55:52Z</time>
      </trkpt>
      <trkpt lat="38.318236" lon="-1.564431">
        <ele>520.2</ele>
        <time>2013-12-06T09:56:11Z</time>
      </trkpt>
      <trkpt lat="38.318099" lon="-1.564717">
        <ele>520.7</ele>
        <time>2013-12-06T09:56:30Z</time>
      </trkpt>
      <trkpt lat="38.317988" lon="-1.564949">
        <ele>521.2</ele>
        <time>2013-12-06T09:56:46Z</time>
      </trkpt>
      <trkpt lat="38.317887" lon="-1.565152">
        <ele>522.1</ele>
        <time>2013-12-06T09:57:01Z</time>
      </trkpt>
      <trkpt lat="38.317878" lon="-1.565164">
        <ele>521.7</ele>
        <time>2013-12-06T09:57:02Z</time>
      </trkpt>
      <trkpt lat="38.317821" lon="-1.565273">
        <ele>522.1</ele>
        <time>2013-12-06T09:57:13Z</time>
      </trkpt>
      <trkpt lat="38.317691" lon="-1.565512">
        <ele>523.6</ele>
        <time>2013-12-06T09:57:30Z</time>
      </trkpt>
      <trkpt lat="38.317572" lon="-1.565762">
        <ele>524.1</ele>
        <time>2013-12-06T09:57:47Z</time>
      </trkpt>
      <trkpt lat="38.317442" lon="-1.566021">
        <ele>525.0</ele>
        <time>2013-12-06T09:58:05Z</time>
      </trkpt>
      <trkpt lat="38.317394" lon="-1.566106">
        <ele>525.5</ele>
        <time>2013-12-06T09:58:12Z</time>
      </trkpt>
      <trkpt lat="38.317357" lon="-1.566185">
        <ele>526.0</ele>
        <time>2013-12-06T09:58:18Z</time>
      </trkpt>
      <trkpt lat="38.317281" lon="-1.566348">
        <ele>527.4</ele>
        <time>2013-12-06T09:58:30Z</time>
      </trkpt>
      <trkpt lat="38.317253" lon="-1.566421">
        <ele>527.4</ele>
        <time>2013-12-06T09:58:35Z</time>
      </trkpt>
      <trkpt lat="38.317142" lon="-1.566625">
        <ele>528.4</ele>
        <time>2013-12-06T09:58:51Z</time>
      </trkpt>
      <trkpt lat="38.317042" lon="-1.566821">
        <ele>529.8</ele>
        <time>2013-12-06T09:59:06Z</time>
      </trkpt>
      <trkpt lat="38.317015" lon="-1.566894">
        <ele>529.8</ele>
        <time>2013-12-06T09:59:11Z</time>
      </trkpt>
      <trkpt lat="38.316914" lon="-1.567100">
        <ele>530.3</ele>
        <time>2013-12-06T09:59:26Z</time>
      </trkpt>
      <trkpt lat="38.316840" lon="-1.567234">
        <ele>530.8</ele>
        <time>2013-12-06T09:59:37Z</time>
      </trkpt>
      <trkpt lat="38.316790" lon="-1.567361">
        <ele>531.3</ele>
        <time>2013-12-06T09:59:46Z</time>
      </trkpt>
      <trkpt lat="38.316695" lon="-1.567520">
        <ele>532.2</ele>
        <time>2013-12-06T09:59:59Z</time>
      </trkpt>
      <trkpt lat="38.316618" lon="-1.567691">
        <ele>532.2</ele>
        <time>2013-12-06T10:00:12Z</time>
      </trkpt>
      <trkpt lat="38.316612" lon="-1.567708">
        <ele>532.2</ele>
        <time>2013-12-06T10:00:13Z</time>
      </trkpt>
      <trkpt lat="38.316583" lon="-1.567762">
        <ele>532.7</ele>
        <time>2013-12-06T10:00:17Z</time>
      </trkpt>
      <trkpt lat="38.316473" lon="-1.567994">
        <ele>532.7</ele>
        <time>2013-12-06T10:00:34Z</time>
      </trkpt>
      <trkpt lat="38.316446" lon="-1.568022">
        <ele>532.7</ele>
        <time>2013-12-06T10:00:37Z</time>
      </trkpt>
      <trkpt lat="38.316380" lon="-1.568164">
        <ele>532.7</ele>
        <time>2013-12-06T10:00:47Z</time>
      </trkpt>
      <trkpt lat="38.316266" lon="-1.568367">
        <ele>533.2</ele>
        <time>2013-12-06T10:01:02Z</time>
      </trkpt>
      <trkpt lat="38.316155" lon="-1.568612">
        <ele>532.7</ele>
        <time>2013-12-06T10:01:19Z</time>
      </trkpt>
      <trkpt lat="38.316033" lon="-1.568882">
        <ele>532.7</ele>
        <time>2013-12-06T10:01:38Z</time>
      </trkpt>
      <trkpt lat="38.315907" lon="-1.569123">
        <ele>531.8</ele>
        <time>2013-12-06T10:01:56Z</time>
      </trkpt>
      <trkpt lat="38.315804" lon="-1.569305">
        <ele>531.3</ele>
        <time>2013-12-06T10:02:10Z</time>
      </trkpt>
      <trkpt lat="38.315685" lon="-1.569515">
        <ele>530.8</ele>
        <time>2013-12-06T10:02:26Z</time>
      </trkpt>
      <trkpt lat="38.315548" lon="-1.569793">
        <ele>530.3</ele>
        <time>2013-12-06T10:02:45Z</time>
      </trkpt>
      <trkpt lat="38.315531" lon="-1.569861">
        <ele>528.9</ele>
        <time>2013-12-06T10:03:01Z</time>
      </trkpt>
      <trkpt lat="38.315529" lon="-1.569860">
        <ele>528.9</ele>
        <time>2013-12-06T10:03:03Z</time>
      </trkpt>
      <trkpt lat="38.315506" lon="-1.569921">
        <ele>529.8</ele>
        <time>2013-12-06T10:03:07Z</time>
      </trkpt>
      <trkpt lat="38.315439" lon="-1.570024">
        <ele>529.8</ele>
        <time>2013-12-06T10:03:14Z</time>
      </trkpt>
      <trkpt lat="38.315388" lon="-1.570094">
        <ele>529.8</ele>
        <time>2013-12-06T10:03:18Z</time>
      </trkpt>
      <trkpt lat="38.315258" lon="-1.570337">
        <ele>529.3</ele>
        <time>2013-12-06T10:03:34Z</time>
      </trkpt>
      <trkpt lat="38.315210" lon="-1.570441">
        <ele>529.3</ele>
        <time>2013-12-06T10:03:45Z</time>
      </trkpt>
      <trkpt lat="38.315215" lon="-1.570471">
        <ele>529.8</ele>
        <time>2013-12-06T10:04:06Z</time>
      </trkpt>
      <trkpt lat="38.315193" lon="-1.570490">
        <ele>529.8</ele>
        <time>2013-12-06T10:04:25Z</time>
      </trkpt>
      <trkpt lat="38.315195" lon="-1.570487">
        <ele>529.3</ele>
        <time>2013-12-06T10:04:31Z</time>
      </trkpt>
      <trkpt lat="38.315178" lon="-1.570512">
        <ele>529.3</ele>
        <time>2013-12-06T10:04:34Z</time>
      </trkpt>
      <trkpt lat="38.315122" lon="-1.570600">
        <ele>529.3</ele>
        <time>2013-12-06T10:04:41Z</time>
      </trkpt>
      <trkpt lat="38.315058" lon="-1.570687">
        <ele>529.8</ele>
        <time>2013-12-06T10:04:48Z</time>
      </trkpt>
      <trkpt lat="38.315000" lon="-1.570831">
        <ele>529.3</ele>
        <time>2013-12-06T10:05:02Z</time>
      </trkpt>
      <trkpt lat="38.315018" lon="-1.570817">
        <ele>529.3</ele>
        <time>2013-12-06T10:05:19Z</time>
      </trkpt>
      <trkpt lat="38.314950" lon="-1.570887">
        <ele>529.8</ele>
        <time>2013-12-06T10:05:26Z</time>
      </trkpt>
      <trkpt lat="38.314814" lon="-1.571090">
        <ele>530.8</ele>
        <time>2013-12-06T10:05:40Z</time>
      </trkpt>
      <trkpt lat="38.314620" lon="-1.571277">
        <ele>531.8</ele>
        <time>2013-12-06T10:05:57Z</time>
      </trkpt>
      <trkpt lat="38.314496" lon="-1.571433">
        <ele>532.2</ele>
        <time>2013-12-06T10:07:28Z</time>
      </trkpt>
      <trkpt lat="38.314307" lon="-1.571599">
        <ele>532.7</ele>
        <time>2013-12-06T10:07:45Z</time>
      </trkpt>
      <trkpt lat="38.314123" lon="-1.571793">
        <ele>533.7</ele>
        <time>2013-12-06T10:08:01Z</time>
      </trkpt>
      <trkpt lat="38.313921" lon="-1.572030">
        <ele>534.2</ele>
        <time>2013-12-06T10:08:19Z</time>
      </trkpt>
      <trkpt lat="38.313683" lon="-1.572258">
        <ele>535.1</ele>
        <time>2013-12-06T10:08:39Z</time>
      </trkpt>
      <trkpt lat="38.313509" lon="-1.572430">
        <ele>537.0</ele>
        <time>2013-12-06T10:08:54Z</time>
      </trkpt>
      <trkpt lat="38.313315" lon="-1.572639">
        <ele>538.5</ele>
        <time>2013-12-06T10:09:11Z</time>
      </trkpt>
      <trkpt lat="38.313120" lon="-1.572855">
        <ele>539.4</ele>
        <time>2013-12-06T10:09:29Z</time>
      </trkpt>
      <trkpt lat="38.312887" lon="-1.573091">
        <ele>540.4</ele>
        <time>2013-12-06T10:09:49Z</time>
      </trkpt>
      <trkpt lat="38.312701" lon="-1.573284">
        <ele>543.3</ele>
        <time>2013-12-06T10:10:05Z</time>
      </trkpt>
      <trkpt lat="38.312490" lon="-1.573484">
        <ele>542.3</ele>
        <time>2013-12-06T10:10:23Z</time>
      </trkpt>
      <trkpt lat="38.312287" lon="-1.573686">
        <ele>543.8</ele>
        <time>2013-12-06T10:10:40Z</time>
      </trkpt>
      <trkpt lat="38.312221" lon="-1.573764">
        <ele>544.2</ele>
        <time>2013-12-06T10:10:46Z</time>
      </trkpt>
      <trkpt lat="38.312037" lon="-1.573953">
        <ele>545.2</ele>
        <time>2013-12-06T10:11:02Z</time>
      </trkpt>
      <trkpt lat="38.311791" lon="-1.574196">
        <ele>546.7</ele>
        <time>2013-12-06T10:11:23Z</time>
      </trkpt>
      <trkpt lat="38.311610" lon="-1.574393">
        <ele>548.6</ele>
        <time>2013-12-06T10:11:39Z</time>
      </trkpt>
      <trkpt lat="38.311601" lon="-1.574411">
        <ele>548.6</ele>
        <time>2013-12-06T10:11:40Z</time>
      </trkpt>
      <trkpt lat="38.311405" lon="-1.574623">
        <ele>549.0</ele>
        <time>2013-12-06T10:11:57Z</time>
      </trkpt>
      <trkpt lat="38.311188" lon="-1.574839">
        <ele>550.0</ele>
        <time>2013-12-06T10:12:15Z</time>
      </trkpt>
      <trkpt lat="38.310965" lon="-1.575066">
        <ele>551.5</ele>
        <time>2013-12-06T10:12:34Z</time>
      </trkpt>
      <trkpt lat="38.310747" lon="-1.575310">
        <ele>552.9</ele>
        <time>2013-12-06T10:12:53Z</time>
      </trkpt>
      <trkpt lat="38.310573" lon="-1.575593">
        <ele>554.8</ele>
        <time>2013-12-06T10:13:12Z</time>
      </trkpt>
      <trkpt lat="38.310522" lon="-1.575682">
        <ele>555.3</ele>
        <time>2013-12-06T10:13:18Z</time>
      </trkpt>
      <trkpt lat="38.310474" lon="-1.575790">
        <ele>556.3</ele>
        <time>2013-12-06T10:13:25Z</time>
      </trkpt>
      <trkpt lat="38.310335" lon="-1.576020">
        <ele>558.2</ele>
        <time>2013-12-06T10:13:41Z</time>
      </trkpt>
      <trkpt lat="38.310197" lon="-1.576274">
        <ele>559.1</ele>
        <time>2013-12-06T10:13:58Z</time>
      </trkpt>
      <trkpt lat="38.310064" lon="-1.576528">
        <ele>561.1</ele>
        <time>2013-12-06T10:14:16Z</time>
      </trkpt>
      <trkpt lat="38.309950" lon="-1.576743">
        <ele>563.0</ele>
        <time>2013-12-06T10:14:31Z</time>
      </trkpt>
      <trkpt lat="38.309832" lon="-1.576988">
        <ele>565.4</ele>
        <time>2013-12-06T10:14:47Z</time>
      </trkpt>
      <trkpt lat="38.309774" lon="-1.577244">
        <ele>566.3</ele>
        <time>2013-12-06T10:15:01Z</time>
      </trkpt>
      <trkpt lat="38.309750" lon="-1.577369">
        <ele>566.8</ele>
        <time>2013-12-06T10:15:07Z</time>
      </trkpt>
      <trkpt lat="38.309732" lon="-1.577450">
        <ele>567.3</ele>
        <time>2013-12-06T10:15:11Z</time>
      </trkpt>
      <trkpt lat="38.309702" lon="-1.577687">
        <ele>569.2</ele>
        <time>2013-12-06T10:15:25Z</time>
      </trkpt>
      <trkpt lat="38.309692" lon="-1.577769">
        <ele>568.8</ele>
        <time>2013-12-06T10:15:30Z</time>
      </trkpt>
      <trkpt lat="38.309688" lon="-1.577881">
        <ele>569.7</ele>
        <time>2013-12-06T10:15:37Z</time>
      </trkpt>
      <trkpt lat="38.309683" lon="-1.578034">
        <ele>570.7</ele>
        <time>2013-12-06T10:15:46Z</time>
      </trkpt>
      <trkpt lat="38.309684" lon="-1.578204">
        <ele>571.6</ele>
        <time>2013-12-06T10:15:55Z</time>
      </trkpt>
      <trkpt lat="38.309714" lon="-1.578495">
        <ele>572.6</ele>
        <time>2013-12-06T10:16:15Z</time>
      </trkpt>
      <trkpt lat="38.309720" lon="-1.578525">
        <ele>573.1</ele>
        <time>2013-12-06T10:16:20Z</time>
      </trkpt>
      <trkpt lat="38.309709" lon="-1.578617">
        <ele>573.6</ele>
        <time>2013-12-06T10:16:25Z</time>
      </trkpt>
      <trkpt lat="38.309711" lon="-1.578912">
        <ele>574.5</ele>
        <time>2013-12-06T10:16:42Z</time>
      </trkpt>
      <trkpt lat="38.309711" lon="-1.579067">
        <ele>576.0</ele>
        <time>2013-12-06T10:16:54Z</time>
      </trkpt>
      <trkpt lat="38.309705" lon="-1.579189">
        <ele>576.9</ele>
        <time>2013-12-06T10:17:02Z</time>
      </trkpt>
      <trkpt lat="38.309707" lon="-1.579260">
        <ele>577.9</ele>
        <time>2013-12-06T10:17:07Z</time>
      </trkpt>
      <trkpt lat="38.309704" lon="-1.579344">
        <ele>578.8</ele>
        <time>2013-12-06T10:17:12Z</time>
      </trkpt>
      <trkpt lat="38.309696" lon="-1.579542">
        <ele>579.3</ele>
        <time>2013-12-06T10:17:27Z</time>
      </trkpt>
      <trkpt lat="38.309667" lon="-1.579613">
        <ele>579.8</ele>
        <time>2013-12-06T10:19:23Z</time>
      </trkpt>
      <trkpt lat="38.309636" lon="-1.579627">
        <ele>580.8</ele>
        <time>2013-12-06T10:19:37Z</time>
      </trkpt>
      <trkpt lat="38.309596" lon="-1.579710">
        <ele>581.7</ele>
        <time>2013-12-06T10:19:50Z</time>
      </trkpt>
      <trkpt lat="38.309585" lon="-1.579737">
        <ele>581.2</ele>
        <time>2013-12-06T10:19:52Z</time>
      </trkpt>
      <trkpt lat="38.309545" lon="-1.579786">
        <ele>582.7</ele>
        <time>2013-12-06T10:19:58Z</time>
      </trkpt>
      <trkpt lat="38.309469" lon="-1.579829">
        <ele>584.1</ele>
        <time>2013-12-06T10:20:06Z</time>
      </trkpt>
      <trkpt lat="38.309427" lon="-1.579884">
        <ele>584.6</ele>
        <time>2013-12-06T10:20:11Z</time>
      </trkpt>
      <trkpt lat="38.309420" lon="-1.579910">
        <ele>585.1</ele>
        <time>2013-12-06T10:20:13Z</time>
      </trkpt>
      <trkpt lat="38.309373" lon="-1.580006">
        <ele>587.0</ele>
        <time>2013-12-06T10:20:21Z</time>
      </trkpt>
      <trkpt lat="38.309343" lon="-1.580082">
        <ele>587.5</ele>
        <time>2013-12-06T10:20:27Z</time>
      </trkpt>
      <trkpt lat="38.309263" lon="-1.580238">
        <ele>589.0</ele>
        <time>2013-12-06T10:20:41Z</time>
      </trkpt>
      <trkpt lat="38.309217" lon="-1.580469">
        <ele>589.4</ele>
        <time>2013-12-06T10:20:54Z</time>
      </trkpt>
      <trkpt lat="38.309103" lon="-1.580786">
        <ele>589.9</ele>
        <time>2013-12-06T10:21:12Z</time>
      </trkpt>
      <trkpt lat="38.308943" lon="-1.580971">
        <ele>591.8</ele>
        <time>2013-12-06T10:21:27Z</time>
      </trkpt>
      <trkpt lat="38.308900" lon="-1.581065">
        <ele>592.8</ele>
        <time>2013-12-06T10:21:38Z</time>
      </trkpt>
      <trkpt lat="38.308881" lon="-1.581115">
        <ele>593.3</ele>
        <time>2013-12-06T10:21:41Z</time>
      </trkpt>
      <trkpt lat="38.308854" lon="-1.581233">
        <ele>593.8</ele>
        <time>2013-12-06T10:21:52Z</time>
      </trkpt>
      <trkpt lat="38.308851" lon="-1.581268">
        <ele>593.8</ele>
        <time>2013-12-06T10:21:59Z</time>
      </trkpt>
      <trkpt lat="38.308832" lon="-1.581289">
        <ele>594.2</ele>
        <time>2013-12-06T10:22:01Z</time>
      </trkpt>
      <trkpt lat="38.308797" lon="-1.581343">
        <ele>594.2</ele>
        <time>2013-12-06T10:22:05Z</time>
      </trkpt>
      <trkpt lat="38.308779" lon="-1.581401">
        <ele>594.7</ele>
        <time>2013-12-06T10:22:11Z</time>
      </trkpt>
      <trkpt lat="38.308735" lon="-1.581438">
        <ele>595.2</ele>
        <time>2013-12-06T10:22:15Z</time>
      </trkpt>
      <trkpt lat="38.308684" lon="-1.581533">
        <ele>596.2</ele>
        <time>2013-12-06T10:22:24Z</time>
      </trkpt>
      <trkpt lat="38.308585" lon="-1.581744">
        <ele>597.6</ele>
        <time>2013-12-06T10:22:40Z</time>
      </trkpt>
      <trkpt lat="38.308531" lon="-1.581955">
        <ele>598.1</ele>
        <time>2013-12-06T10:22:54Z</time>
      </trkpt>
      <trkpt lat="38.308505" lon="-1.582089">
        <ele>597.6</ele>
        <time>2013-12-06T10:23:02Z</time>
      </trkpt>
      <trkpt lat="38.308456" lon="-1.582228">
        <ele>598.6</ele>
        <time>2013-12-06T10:23:13Z</time>
      </trkpt>
      <trkpt lat="38.308434" lon="-1.582298">
        <ele>599.5</ele>
        <time>2013-12-06T10:23:18Z</time>
      </trkpt>
      <trkpt lat="38.308395" lon="-1.582401">
        <ele>600.0</ele>
        <time>2013-12-06T10:23:25Z</time>
      </trkpt>
      <trkpt lat="38.308315" lon="-1.582608">
        <ele>601.0</ele>
        <time>2013-12-06T10:23:39Z</time>
      </trkpt>
      <trkpt lat="38.308262" lon="-1.582892">
        <ele>601.9</ele>
        <time>2013-12-06T10:23:55Z</time>
      </trkpt>
      <trkpt lat="38.308235" lon="-1.582939">
        <ele>601.9</ele>
        <time>2013-12-06T10:23:59Z</time>
      </trkpt>
      <trkpt lat="38.308166" lon="-1.583163">
        <ele>605.3</ele>
        <time>2013-12-06T10:24:14Z</time>
      </trkpt>
      <trkpt lat="38.308161" lon="-1.583176">
        <ele>605.3</ele>
        <time>2013-12-06T10:24:15Z</time>
      </trkpt>
      <trkpt lat="38.308156" lon="-1.583225">
        <ele>606.2</ele>
        <time>2013-12-06T10:24:24Z</time>
      </trkpt>
      <trkpt lat="38.308159" lon="-1.583254">
        <ele>607.2</ele>
        <time>2013-12-06T10:24:37Z</time>
      </trkpt>
      <trkpt lat="38.308155" lon="-1.583271">
        <ele>607.2</ele>
        <time>2013-12-06T10:25:19Z</time>
      </trkpt>
      <trkpt lat="38.308137" lon="-1.583307">
        <ele>607.7</ele>
        <time>2013-12-06T10:25:22Z</time>
      </trkpt>
      <trkpt lat="38.308057" lon="-1.583443">
        <ele>610.1</ele>
        <time>2013-12-06T10:25:32Z</time>
      </trkpt>
      <trkpt lat="38.307985" lon="-1.583515">
        <ele>611.1</ele>
        <time>2013-12-06T10:25:46Z</time>
      </trkpt>
      <trkpt lat="38.307973" lon="-1.583524">
        <ele>611.1</ele>
        <time>2013-12-06T10:26:59Z</time>
      </trkpt>
      <trkpt lat="38.307954" lon="-1.583517">
        <ele>610.6</ele>
        <time>2013-12-06T10:27:01Z</time>
      </trkpt>
      <trkpt lat="38.307884" lon="-1.583483">
        <ele>612.0</ele>
        <time>2013-12-06T10:27:07Z</time>
      </trkpt>
      <trkpt lat="38.307842" lon="-1.583442">
        <ele>613.0</ele>
        <time>2013-12-06T10:27:12Z</time>
      </trkpt>
      <trkpt lat="38.307784" lon="-1.583415">
        <ele>614.9</ele>
        <time>2013-12-06T10:27:18Z</time>
      </trkpt>
      <trkpt lat="38.307744" lon="-1.583412">
        <ele>616.3</ele>
        <time>2013-12-06T10:27:26Z</time>
      </trkpt>
      <trkpt lat="38.307724" lon="-1.583408">
        <ele>616.8</ele>
        <time>2013-12-06T10:27:28Z</time>
      </trkpt>
      <trkpt lat="38.307700" lon="-1.583386">
        <ele>616.8</ele>
        <time>2013-12-06T10:27:31Z</time>
      </trkpt>
      <trkpt lat="38.307583" lon="-1.583356">
        <ele>619.7</ele>
        <time>2013-12-06T10:27:43Z</time>
      </trkpt>
      <trkpt lat="38.307505" lon="-1.583349">
        <ele>622.6</ele>
        <time>2013-12-06T10:27:54Z</time>
      </trkpt>
      <trkpt lat="38.307426" lon="-1.583326">
        <ele>624.5</ele>
        <time>2013-12-06T10:28:06Z</time>
      </trkpt>
      <trkpt lat="38.307357" lon="-1.583305">
        <ele>626.9</ele>
        <time>2013-12-06T10:28:17Z</time>
      </trkpt>
      <trkpt lat="38.307361" lon="-1.583280">
        <ele>627.9</ele>
        <time>2013-12-06T10:28:25Z</time>
      </trkpt>
      <trkpt lat="38.307297" lon="-1.583236">
        <ele>630.8</ele>
        <time>2013-12-06T10:28:35Z</time>
      </trkpt>
      <trkpt lat="38.307236" lon="-1.583182">
        <ele>634.1</ele>
        <time>2013-12-06T10:28:46Z</time>
      </trkpt>
      <trkpt lat="38.307184" lon="-1.583151">
        <ele>635.1</ele>
        <time>2013-12-06T10:28:55Z</time>
      </trkpt>
      <trkpt lat="38.307090" lon="-1.583117">
        <ele>638.0</ele>
        <time>2013-12-06T10:29:08Z</time>
      </trkpt>
      <trkpt lat="38.307068" lon="-1.583110">
        <ele>636.5</ele>
        <time>2013-12-06T10:31:01Z</time>
      </trkpt>
      <trkpt lat="38.307058" lon="-1.583158">
        <ele>635.6</ele>
        <time>2013-12-06T10:35:40Z</time>
      </trkpt>
      <trkpt lat="38.307072" lon="-1.583169">
        <ele>635.6</ele>
        <time>2013-12-06T10:36:54Z</time>
      </trkpt>
      <trkpt lat="38.307113" lon="-1.583176">
        <ele>636.5</ele>
        <time>2013-12-06T10:40:21Z</time>
      </trkpt>
      <trkpt lat="38.307168" lon="-1.583177">
        <ele>635.1</ele>
        <time>2013-12-06T10:41:57Z</time>
      </trkpt>
      <trkpt lat="38.307218" lon="-1.583200">
        <ele>634.1</ele>
        <time>2013-12-06T10:42:09Z</time>
      </trkpt>
      <trkpt lat="38.307273" lon="-1.583247">
        <ele>630.8</ele>
        <time>2013-12-06T10:42:22Z</time>
      </trkpt>
      <trkpt lat="38.307323" lon="-1.583282">
        <ele>629.3</ele>
        <time>2013-12-06T10:42:34Z</time>
      </trkpt>
      <trkpt lat="38.307350" lon="-1.583353">
        <ele>626.4</ele>
        <time>2013-12-06T10:42:47Z</time>
      </trkpt>
      <trkpt lat="38.307426" lon="-1.583380">
        <ele>624.0</ele>
        <time>2013-12-06T10:43:01Z</time>
      </trkpt>
      <trkpt lat="38.307429" lon="-1.583382">
        <ele>624.0</ele>
        <time>2013-12-06T10:43:02Z</time>
      </trkpt>
      <trkpt lat="38.307526" lon="-1.583384">
        <ele>621.2</ele>
        <time>2013-12-06T10:43:13Z</time>
      </trkpt>
      <trkpt lat="38.307625" lon="-1.583411">
        <ele>618.8</ele>
        <time>2013-12-06T10:43:24Z</time>
      </trkpt>
      <trkpt lat="38.307742" lon="-1.583452">
        <ele>616.3</ele>
        <time>2013-12-06T10:43:38Z</time>
      </trkpt>
      <trkpt lat="38.307862" lon="-1.583489">
        <ele>613.0</ele>
        <time>2013-12-06T10:43:50Z</time>
      </trkpt>
      <trkpt lat="38.307871" lon="-1.583503">
        <ele>612.0</ele>
        <time>2013-12-06T10:43:52Z</time>
      </trkpt>
      <trkpt lat="38.307925" lon="-1.583538">
        <ele>612.0</ele>
        <time>2013-12-06T10:43:57Z</time>
      </trkpt>
      <trkpt lat="38.307954" lon="-1.583542">
        <ele>610.6</ele>
        <time>2013-12-06T10:43:59Z</time>
      </trkpt>
      <trkpt lat="38.307949" lon="-1.583618">
        <ele>610.1</ele>
        <time>2013-12-06T10:44:05Z</time>
      </trkpt>
      <trkpt lat="38.307779" lon="-1.583901">
        <ele>607.2</ele>
        <time>2013-12-06T10:44:25Z</time>
      </trkpt>
      <trkpt lat="38.307710" lon="-1.584170">
        <ele>604.8</ele>
        <time>2013-12-06T10:44:41Z</time>
      </trkpt>
      <trkpt lat="38.307711" lon="-1.584326">
        <ele>603.4</ele>
        <time>2013-12-06T10:44:49Z</time>
      </trkpt>
      <trkpt lat="38.307712" lon="-1.584646">
        <ele>600.0</ele>
        <time>2013-12-06T10:45:07Z</time>
      </trkpt>
      <trkpt lat="38.307730" lon="-1.584871">
        <ele>597.1</ele>
        <time>2013-12-06T10:45:20Z</time>
      </trkpt>
      <trkpt lat="38.307763" lon="-1.585123">
        <ele>594.7</ele>
        <time>2013-12-06T10:45:34Z</time>
      </trkpt>
      <trkpt lat="38.307836" lon="-1.585369">
        <ele>591.8</ele>
        <time>2013-12-06T10:45:50Z</time>
      </trkpt>
      <trkpt lat="38.307849" lon="-1.585462">
        <ele>590.4</ele>
        <time>2013-12-06T10:45:55Z</time>
      </trkpt>
      <trkpt lat="38.307893" lon="-1.585580">
        <ele>589.9</ele>
        <time>2013-12-06T10:46:02Z</time>
      </trkpt>
      <trkpt lat="38.308012" lon="-1.585933">
        <ele>586.5</ele>
        <time>2013-12-06T10:46:22Z</time>
      </trkpt>
      <trkpt lat="38.308099" lon="-1.586154">
        <ele>585.1</ele>
        <time>2013-12-06T10:46:35Z</time>
      </trkpt>
      <trkpt lat="38.308111" lon="-1.586420">
        <ele>582.2</ele>
        <time>2013-12-06T10:46:51Z</time>
      </trkpt>
      <trkpt lat="38.308044" lon="-1.586699">
        <ele>580.3</ele>
        <time>2013-12-06T10:47:08Z</time>
      </trkpt>
      <trkpt lat="38.308014" lon="-1.586986">
        <ele>579.3</ele>
        <time>2013-12-06T10:47:24Z</time>
      </trkpt>
      <trkpt lat="38.308025" lon="-1.587041">
        <ele>578.8</ele>
        <time>2013-12-06T10:47:27Z</time>
      </trkpt>
      <trkpt lat="38.308004" lon="-1.587286">
        <ele>576.0</ele>
        <time>2013-12-06T10:47:41Z</time>
      </trkpt>
      <trkpt lat="38.307952" lon="-1.587549">
        <ele>574.5</ele>
        <time>2013-12-06T10:47:56Z</time>
      </trkpt>
      <trkpt lat="38.307911" lon="-1.587636">
        <ele>574.0</ele>
        <time>2013-12-06T10:48:02Z</time>
      </trkpt>
      <trkpt lat="38.307854" lon="-1.587761">
        <ele>573.6</ele>
        <time>2013-12-06T10:48:11Z</time>
      </trkpt>
      <trkpt lat="38.307814" lon="-1.588104">
        <ele>572.1</ele>
        <time>2013-12-06T10:48:30Z</time>
      </trkpt>
      <trkpt lat="38.307834" lon="-1.588155">
        <ele>572.1</ele>
        <time>2013-12-06T10:48:41Z</time>
      </trkpt>
      <trkpt lat="38.307823" lon="-1.588187">
        <ele>572.6</ele>
        <time>2013-12-06T10:48:59Z</time>
      </trkpt>
      <trkpt lat="38.307742" lon="-1.588463">
        <ele>571.6</ele>
        <time>2013-12-06T10:49:14Z</time>
      </trkpt>
      <trkpt lat="38.307724" lon="-1.588662">
        <ele>570.2</ele>
        <time>2013-12-06T10:49:29Z</time>
      </trkpt>
      <trkpt lat="38.307754" lon="-1.588720">
        <ele>570.2</ele>
        <time>2013-12-06T10:49:33Z</time>
      </trkpt>
      <trkpt lat="38.307910" lon="-1.588927">
        <ele>570.2</ele>
        <time>2013-12-06T10:49:48Z</time>
      </trkpt>
      <trkpt lat="38.307942" lon="-1.588952">
        <ele>570.7</ele>
        <time>2013-12-06T10:49:51Z</time>
      </trkpt>
      <trkpt lat="38.307979" lon="-1.589022">
        <ele>571.6</ele>
        <time>2013-12-06T10:49:56Z</time>
      </trkpt>
      <trkpt lat="38.307953" lon="-1.589340">
        <ele>570.7</ele>
        <time>2013-12-06T10:50:15Z</time>
      </trkpt>
      <trkpt lat="38.307948" lon="-1.589437">
        <ele>568.8</ele>
        <time>2013-12-06T10:50:26Z</time>
      </trkpt>
      <trkpt lat="38.307950" lon="-1.589489">
        <ele>569.2</ele>
        <time>2013-12-06T10:58:21Z</time>
      </trkpt>
      <trkpt lat="38.307943" lon="-1.589821">
        <ele>567.3</ele>
        <time>2013-12-06T10:58:42Z</time>
      </trkpt>
      <trkpt lat="38.307925" lon="-1.590118">
        <ele>564.9</ele>
        <time>2013-12-06T10:59:01Z</time>
      </trkpt>
      <trkpt lat="38.307930" lon="-1.590448">
        <ele>563.5</ele>
        <time>2013-12-06T10:59:21Z</time>
      </trkpt>
      <trkpt lat="38.307935" lon="-1.590711">
        <ele>563.5</ele>
        <time>2013-12-06T10:59:37Z</time>
      </trkpt>
      <trkpt lat="38.307935" lon="-1.590803">
        <ele>562.5</ele>
        <time>2013-12-06T10:59:43Z</time>
      </trkpt>
      <trkpt lat="38.307930" lon="-1.590935">
        <ele>562.5</ele>
        <time>2013-12-06T10:59:51Z</time>
      </trkpt>
      <trkpt lat="38.307935" lon="-1.590995">
        <ele>561.5</ele>
        <time>2013-12-06T10:59:55Z</time>
      </trkpt>
      <trkpt lat="38.307935" lon="-1.591183">
        <ele>560.6</ele>
        <time>2013-12-06T11:00:08Z</time>
      </trkpt>
      <trkpt lat="38.307933" lon="-1.591302">
        <ele>560.1</ele>
        <time>2013-12-06T11:00:19Z</time>
      </trkpt>
      <trkpt lat="38.307934" lon="-1.591313">
        <ele>560.1</ele>
        <time>2013-12-06T11:00:20Z</time>
      </trkpt>
      <trkpt lat="38.307924" lon="-1.591530">
        <ele>559.6</ele>
        <time>2013-12-06T11:00:35Z</time>
      </trkpt>
      <trkpt lat="38.307888" lon="-1.591686">
        <ele>558.7</ele>
        <time>2013-12-06T11:00:50Z</time>
      </trkpt>
      <trkpt lat="38.307875" lon="-1.591682">
        <ele>558.7</ele>
        <time>2013-12-06T11:00:54Z</time>
      </trkpt>
      <trkpt lat="38.307849" lon="-1.591731">
        <ele>559.1</ele>
        <time>2013-12-06T11:00:59Z</time>
      </trkpt>
      <trkpt lat="38.307800" lon="-1.591944">
        <ele>557.7</ele>
        <time>2013-12-06T11:01:13Z</time>
      </trkpt>
      <trkpt lat="38.307780" lon="-1.592054">
        <ele>557.2</ele>
        <time>2013-12-06T11:01:21Z</time>
      </trkpt>
      <trkpt lat="38.307750" lon="-1.592204">
        <ele>556.7</ele>
        <time>2013-12-06T11:01:31Z</time>
      </trkpt>
      <trkpt lat="38.307721" lon="-1.592258">
        <ele>557.2</ele>
        <time>2013-12-06T11:01:35Z</time>
      </trkpt>
      <trkpt lat="38.307669" lon="-1.592361">
        <ele>556.3</ele>
        <time>2013-12-06T11:01:49Z</time>
      </trkpt>
      <trkpt lat="38.307656" lon="-1.592362">
        <ele>556.3</ele>
        <time>2013-12-06T11:01:51Z</time>
      </trkpt>
      <trkpt lat="38.307602" lon="-1.592380">
        <ele>555.3</ele>
        <time>2013-12-06T11:02:03Z</time>
      </trkpt>
      <trkpt lat="38.307581" lon="-1.592409">
        <ele>554.8</ele>
        <time>2013-12-06T11:02:18Z</time>
      </trkpt>
      <trkpt lat="38.307576" lon="-1.592415">
        <ele>554.8</ele>
        <time>2013-12-06T11:02:19Z</time>
      </trkpt>
      <trkpt lat="38.307572" lon="-1.592443">
        <ele>555.3</ele>
        <time>2013-12-06T11:02:21Z</time>
      </trkpt>
      <trkpt lat="38.307532" lon="-1.592517">
        <ele>555.3</ele>
        <time>2013-12-06T11:02:28Z</time>
      </trkpt>
      <trkpt lat="38.307511" lon="-1.592595">
        <ele>554.3</ele>
        <time>2013-12-06T11:02:33Z</time>
      </trkpt>
      <trkpt lat="38.307497" lon="-1.592641">
        <ele>554.8</ele>
        <time>2013-12-06T11:02:36Z</time>
      </trkpt>
      <trkpt lat="38.307471" lon="-1.592705">
        <ele>554.8</ele>
        <time>2013-12-06T11:03:32Z</time>
      </trkpt>
      <trkpt lat="38.307457" lon="-1.592756">
        <ele>554.8</ele>
        <time>2013-12-06T11:03:36Z</time>
      </trkpt>
      <trkpt lat="38.307424" lon="-1.592835">
        <ele>554.3</ele>
        <time>2013-12-06T11:03:42Z</time>
      </trkpt>
      <trkpt lat="38.307416" lon="-1.592968">
        <ele>553.9</ele>
        <time>2013-12-06T11:03:51Z</time>
      </trkpt>
      <trkpt lat="38.307415" lon="-1.592989">
        <ele>553.9</ele>
        <time>2013-12-06T11:03:53Z</time>
      </trkpt>
      <trkpt lat="38.307407" lon="-1.593098">
        <ele>552.4</ele>
        <time>2013-12-06T11:03:59Z</time>
      </trkpt>
      <trkpt lat="38.307334" lon="-1.593328">
        <ele>552.4</ele>
        <time>2013-12-06T11:04:14Z</time>
      </trkpt>
      <trkpt lat="38.307317" lon="-1.593421">
        <ele>551.9</ele>
        <time>2013-12-06T11:04:20Z</time>
      </trkpt>
      <trkpt lat="38.307170" lon="-1.593615">
        <ele>551.5</ele>
        <time>2013-12-06T11:04:36Z</time>
      </trkpt>
      <trkpt lat="38.307162" lon="-1.593629">
        <ele>551.5</ele>
        <time>2013-12-06T11:04:37Z</time>
      </trkpt>
      <trkpt lat="38.307059" lon="-1.593675">
        <ele>551.5</ele>
        <time>2013-12-06T11:04:53Z</time>
      </trkpt>
      <trkpt lat="38.306996" lon="-1.593692">
        <ele>551.9</ele>
        <time>2013-12-06T11:05:03Z</time>
      </trkpt>
      <trkpt lat="38.306953" lon="-1.593758">
        <ele>551.9</ele>
        <time>2013-12-06T11:05:12Z</time>
      </trkpt>
      <trkpt lat="38.306830" lon="-1.593833">
        <ele>554.3</ele>
        <time>2013-12-06T11:05:23Z</time>
      </trkpt>
      <trkpt lat="38.306755" lon="-1.593884">
        <ele>555.3</ele>
        <time>2013-12-06T11:05:32Z</time>
      </trkpt>
      <trkpt lat="38.306697" lon="-1.593945">
        <ele>555.8</ele>
        <time>2013-12-06T11:05:38Z</time>
      </trkpt>
      <trkpt lat="38.306568" lon="-1.594067">
        <ele>556.3</ele>
        <time>2013-12-06T11:05:51Z</time>
      </trkpt>
      <trkpt lat="38.306543" lon="-1.594090">
        <ele>556.3</ele>
        <time>2013-12-06T11:05:54Z</time>
      </trkpt>
      <trkpt lat="38.306449" lon="-1.594114">
        <ele>556.3</ele>
        <time>2013-12-06T11:06:06Z</time>
      </trkpt>
      <trkpt lat="38.306407" lon="-1.594123">
        <ele>557.2</ele>
        <time>2013-12-06T11:06:10Z</time>
      </trkpt>
      <trkpt lat="38.306337" lon="-1.594151">
        <ele>557.7</ele>
        <time>2013-12-06T11:06:17Z</time>
      </trkpt>
      <trkpt lat="38.306293" lon="-1.594181">
        <ele>558.7</ele>
        <time>2013-12-06T11:06:22Z</time>
      </trkpt>
      <trkpt lat="38.306245" lon="-1.594211">
        <ele>559.1</ele>
        <time>2013-12-06T11:06:27Z</time>
      </trkpt>
      <trkpt lat="38.306100" lon="-1.594275">
        <ele>560.1</ele>
        <time>2013-12-06T11:06:41Z</time>
      </trkpt>
      <trkpt lat="38.306035" lon="-1.594308">
        <ele>560.6</ele>
        <time>2013-12-06T11:06:49Z</time>
      </trkpt>
      <trkpt lat="38.305965" lon="-1.594320">
        <ele>563.0</ele>
        <time>2013-12-06T11:07:02Z</time>
      </trkpt>
      <trkpt lat="38.305961" lon="-1.594328">
        <ele>562.0</ele>
        <time>2013-12-06T11:07:03Z</time>
      </trkpt>
      <trkpt lat="38.305889" lon="-1.594399">
        <ele>562.5</ele>
        <time>2013-12-06T11:07:12Z</time>
      </trkpt>
      <trkpt lat="38.305884" lon="-1.594418">
        <ele>562.5</ele>
        <time>2013-12-06T11:07:16Z</time>
      </trkpt>
      <trkpt lat="38.305887" lon="-1.594405">
        <ele>562.5</ele>
        <time>2013-12-06T11:07:19Z</time>
      </trkpt>
      <trkpt lat="38.305807" lon="-1.594489">
        <ele>562.5</ele>
        <time>2013-12-06T11:07:30Z</time>
      </trkpt>
      <trkpt lat="38.305689" lon="-1.594607">
        <ele>563.0</ele>
        <time>2013-12-06T11:07:41Z</time>
      </trkpt>
      <trkpt lat="38.305582" lon="-1.594712">
        <ele>564.0</ele>
        <time>2013-12-06T11:07:53Z</time>
      </trkpt>
      <trkpt lat="38.305422" lon="-1.594849">
        <ele>564.4</ele>
        <time>2013-12-06T11:08:06Z</time>
      </trkpt>
      <trkpt lat="38.305377" lon="-1.594918">
        <ele>565.4</ele>
        <time>2013-12-06T11:08:14Z</time>
      </trkpt>
      <trkpt lat="38.305316" lon="-1.594982">
        <ele>566.8</ele>
        <time>2013-12-06T11:08:22Z</time>
      </trkpt>
      <trkpt lat="38.305304" lon="-1.594989">
        <ele>567.3</ele>
        <time>2013-12-06T11:08:24Z</time>
      </trkpt>
      <trkpt lat="38.305285" lon="-1.595018">
        <ele>567.3</ele>
        <time>2013-12-06T11:08:27Z</time>
      </trkpt>
      <trkpt lat="38.305255" lon="-1.595032">
        <ele>567.3</ele>
        <time>2013-12-06T11:08:30Z</time>
      </trkpt>
      <trkpt lat="38.305228" lon="-1.595033">
        <ele>568.3</ele>
        <time>2013-12-06T11:08:33Z</time>
      </trkpt>
      <trkpt lat="38.305196" lon="-1.595071">
        <ele>569.2</ele>
        <time>2013-12-06T11:08:46Z</time>
      </trkpt>
      <trkpt lat="38.305171" lon="-1.595080">
        <ele>568.3</ele>
        <time>2013-12-06T11:09:46Z</time>
      </trkpt>
      <trkpt lat="38.305158" lon="-1.595057">
        <ele>568.3</ele>
        <time>2013-12-06T11:10:06Z</time>
      </trkpt>
      <trkpt lat="38.305139" lon="-1.595051">
        <ele>568.3</ele>
        <time>2013-12-06T11:10:23Z</time>
      </trkpt>
      <trkpt lat="38.305137" lon="-1.595056">
        <ele>567.3</ele>
        <time>2013-12-06T11:10:24Z</time>
      </trkpt>
      <trkpt lat="38.305115" lon="-1.595079">
        <ele>565.9</ele>
        <time>2013-12-06T11:10:40Z</time>
      </trkpt>
      <trkpt lat="38.305101" lon="-1.595077">
        <ele>566.3</ele>
        <time>2013-12-06T11:11:05Z</time>
      </trkpt>
      <trkpt lat="38.305070" lon="-1.595057">
        <ele>565.9</ele>
        <time>2013-12-06T11:11:17Z</time>
      </trkpt>
      <trkpt lat="38.305042" lon="-1.595118">
        <ele>563.5</ele>
        <time>2013-12-06T11:11:30Z</time>
      </trkpt>
      <trkpt lat="38.305007" lon="-1.595079">
        <ele>562.5</ele>
        <time>2013-12-06T11:11:36Z</time>
      </trkpt>
      <trkpt lat="38.304952" lon="-1.595043">
        <ele>561.1</ele>
        <time>2013-12-06T11:11:51Z</time>
      </trkpt>
      <trkpt lat="38.304918" lon="-1.595035">
        <ele>559.1</ele>
        <time>2013-12-06T11:12:01Z</time>
      </trkpt>
      <trkpt lat="38.304862" lon="-1.595044">
        <ele>557.7</ele>
        <time>2013-12-06T11:12:13Z</time>
      </trkpt>
      <trkpt lat="38.304819" lon="-1.595002">
        <ele>554.8</ele>
        <time>2013-12-06T11:12:22Z</time>
      </trkpt>
      <trkpt lat="38.304780" lon="-1.594959">
        <ele>553.4</ele>
        <time>2013-12-06T11:12:33Z</time>
      </trkpt>
      <trkpt lat="38.304722" lon="-1.594942">
        <ele>551.0</ele>
        <time>2013-12-06T11:12:43Z</time>
      </trkpt>
      <trkpt lat="38.304714" lon="-1.594938">
        <ele>550.5</ele>
        <time>2013-12-06T11:12:46Z</time>
      </trkpt>
      <trkpt lat="38.304676" lon="-1.594857">
        <ele>548.6</ele>
        <time>2013-12-06T11:13:00Z</time>
      </trkpt>
      <trkpt lat="38.304657" lon="-1.594856">
        <ele>548.6</ele>
        <time>2013-12-06T11:13:20Z</time>
      </trkpt>
      <trkpt lat="38.304660" lon="-1.594855">
        <ele>549.0</ele>
        <time>2013-12-06T11:13:35Z</time>
      </trkpt>
      <trkpt lat="38.304556" lon="-1.594771">
        <ele>545.7</ele>
        <time>2013-12-06T11:13:51Z</time>
      </trkpt>
      <trkpt lat="38.304496" lon="-1.594734">
        <ele>543.3</ele>
        <time>2013-12-06T11:14:04Z</time>
      </trkpt>
      <trkpt lat="38.304447" lon="-1.594698">
        <ele>541.8</ele>
        <time>2013-12-06T11:14:13Z</time>
      </trkpt>
      <trkpt lat="38.304354" lon="-1.594642">
        <ele>538.0</ele>
        <time>2013-12-06T11:14:28Z</time>
      </trkpt>
      <trkpt lat="38.304282" lon="-1.594601">
        <ele>535.1</ele>
        <time>2013-12-06T11:14:41Z</time>
      </trkpt>
      <trkpt lat="38.304259" lon="-1.594585">
        <ele>535.1</ele>
        <time>2013-12-06T11:14:44Z</time>
      </trkpt>
      <trkpt lat="38.304205" lon="-1.594542">
        <ele>533.7</ele>
        <time>2013-12-06T11:14:59Z</time>
      </trkpt>
      <trkpt lat="38.304165" lon="-1.594506">
        <ele>532.7</ele>
        <time>2013-12-06T11:15:10Z</time>
      </trkpt>
      <trkpt lat="38.304082" lon="-1.594488">
        <ele>529.3</ele>
        <time>2013-12-06T11:15:24Z</time>
      </trkpt>
      <trkpt lat="38.304028" lon="-1.594467">
        <ele>526.5</ele>
        <time>2013-12-06T11:15:36Z</time>
      </trkpt>
      <trkpt lat="38.304020" lon="-1.594472">
        <ele>526.0</ele>
        <time>2013-12-06T11:15:51Z</time>
      </trkpt>
      <trkpt lat="38.303992" lon="-1.594435">
        <ele>525.0</ele>
        <time>2013-12-06T11:16:05Z</time>
      </trkpt>
      <trkpt lat="38.303951" lon="-1.594398">
        <ele>522.1</ele>
        <time>2013-12-06T11:16:18Z</time>
      </trkpt>
      <trkpt lat="38.303914" lon="-1.594435">
        <ele>520.7</ele>
        <time>2013-12-06T11:16:27Z</time>
      </trkpt>
      <trkpt lat="38.303873" lon="-1.594481">
        <ele>506.3</ele>
        <time>2013-12-06T11:16:36Z</time>
      </trkpt>
      <trkpt lat="38.303854" lon="-1.594489">
        <ele>519.7</ele>
        <time>2013-12-06T11:16:38Z</time>
      </trkpt>
      <trkpt lat="38.303839" lon="-1.594497">
        <ele>517.8</ele>
        <time>2013-12-06T11:16:40Z</time>
      </trkpt>
      <trkpt lat="38.303828" lon="-1.594505">
        <ele>516.8</ele>
        <time>2013-12-06T11:16:43Z</time>
      </trkpt>
      <trkpt lat="38.303802" lon="-1.594526">
        <ele>515.4</ele>
        <time>2013-12-06T11:16:51Z</time>
      </trkpt>
      <trkpt lat="38.303750" lon="-1.594522">
        <ele>513.5</ele>
        <time>2013-12-06T11:17:04Z</time>
      </trkpt>
      <trkpt lat="38.303731" lon="-1.594480">
        <ele>511.1</ele>
        <time>2013-12-06T11:17:16Z</time>
      </trkpt>
      <trkpt lat="38.303716" lon="-1.594461">
        <ele>510.1</ele>
        <time>2013-12-06T11:17:26Z</time>
      </trkpt>
      <trkpt lat="38.303700" lon="-1.594461">
        <ele>508.7</ele>
        <time>2013-12-06T11:17:37Z</time>
      </trkpt>
      <trkpt lat="38.303650" lon="-1.594439">
        <ele>506.8</ele>
        <time>2013-12-06T11:17:48Z</time>
      </trkpt>
      <trkpt lat="38.303595" lon="-1.594431">
        <ele>506.8</ele>
        <time>2013-12-06T11:18:01Z</time>
      </trkpt>
      <trkpt lat="38.303545" lon="-1.594447">
        <ele>502.9</ele>
        <time>2013-12-06T11:18:24Z</time>
      </trkpt>
      <trkpt lat="38.303529" lon="-1.594442">
        <ele>502.4</ele>
        <time>2013-12-06T11:18:30Z</time>
      </trkpt>
      <trkpt lat="38.303478" lon="-1.594436">
        <ele>499.5</ele>
        <time>2013-12-06T11:18:43Z</time>
      </trkpt>
      <trkpt lat="38.303468" lon="-1.594430">
        <ele>498.6</ele>
        <time>2013-12-06T11:18:48Z</time>
      </trkpt>
      <trkpt lat="38.303414" lon="-1.594419">
        <ele>496.2</ele>
        <time>2013-12-06T11:19:00Z</time>
      </trkpt>
      <trkpt lat="38.303420" lon="-1.594376">
        <ele>494.7</ele>
        <time>2013-12-06T11:19:10Z</time>
      </trkpt>
      <trkpt lat="38.303410" lon="-1.594341">
        <ele>493.3</ele>
        <time>2013-12-06T11:19:21Z</time>
      </trkpt>
      <trkpt lat="38.303399" lon="-1.594305">
        <ele>491.4</ele>
        <time>2013-12-06T11:19:33Z</time>
      </trkpt>
      <trkpt lat="38.303406" lon="-1.594263">
        <ele>489.5</ele>
        <time>2013-12-06T11:19:45Z</time>
      </trkpt>
      <trkpt lat="38.303432" lon="-1.594151">
        <ele>475.0</ele>
        <time>2013-12-06T11:20:33Z</time>
      </trkpt>
      <trkpt lat="38.303438" lon="-1.594147">
        <ele>501.0</ele>
        <time>2013-12-06T11:20:34Z</time>
      </trkpt>
      <trkpt lat="38.303442" lon="-1.594138">
        <ele>490.9</ele>
        <time>2013-12-06T11:20:35Z</time>
      </trkpt>
      <trkpt lat="38.303445" lon="-1.594127">
        <ele>490.4</ele>
        <time>2013-12-06T11:20:36Z</time>
      </trkpt>
      <trkpt lat="38.303466" lon="-1.594021">
        <ele>487.0</ele>
        <time>2013-12-06T11:20:47Z</time>
      </trkpt>
      <trkpt lat="38.303464" lon="-1.594015">
        <ele>489.0</ele>
        <time>2013-12-06T11:20:48Z</time>
      </trkpt>
      <trkpt lat="38.303460" lon="-1.593938">
        <ele>486.1</ele>
        <time>2013-12-06T11:20:58Z</time>
      </trkpt>
      <trkpt lat="38.303421" lon="-1.593852">
        <ele>483.7</ele>
        <time>2013-12-06T11:21:10Z</time>
      </trkpt>
      <trkpt lat="38.303414" lon="-1.593824">
        <ele>483.7</ele>
        <time>2013-12-06T11:21:19Z</time>
      </trkpt>
      <trkpt lat="38.303404" lon="-1.593756">
        <ele>482.2</ele>
        <time>2013-12-06T11:21:28Z</time>
      </trkpt>
      <trkpt lat="38.303403" lon="-1.593676">
        <ele>482.2</ele>
        <time>2013-12-06T11:21:35Z</time>
      </trkpt>
      <trkpt lat="38.303385" lon="-1.593592">
        <ele>480.3</ele>
        <time>2013-12-06T11:21:50Z</time>
      </trkpt>
      <trkpt lat="38.303386" lon="-1.593584">
        <ele>480.3</ele>
        <time>2013-12-06T11:21:51Z</time>
      </trkpt>
      <trkpt lat="38.303340" lon="-1.593538">
        <ele>478.4</ele>
        <time>2013-12-06T11:22:02Z</time>
      </trkpt>
      <trkpt lat="38.303329" lon="-1.593553">
        <ele>478.9</ele>
        <time>2013-12-06T11:22:04Z</time>
      </trkpt>
      <trkpt lat="38.303230" lon="-1.593550">
        <ele>472.6</ele>
        <time>2013-12-06T11:22:34Z</time>
      </trkpt>
      <trkpt lat="38.303194" lon="-1.593567">
        <ele>471.7</ele>
        <time>2013-12-06T11:22:44Z</time>
      </trkpt>
      <trkpt lat="38.303157" lon="-1.593662">
        <ele>469.7</ele>
        <time>2013-12-06T11:22:57Z</time>
      </trkpt>
      <trkpt lat="38.303142" lon="-1.593728">
        <ele>468.8</ele>
        <time>2013-12-06T11:23:02Z</time>
      </trkpt>
      <trkpt lat="38.303112" lon="-1.593823">
        <ele>467.8</ele>
        <time>2013-12-06T11:23:09Z</time>
      </trkpt>
      <trkpt lat="38.303030" lon="-1.593921">
        <ele>465.4</ele>
        <time>2013-12-06T11:23:21Z</time>
      </trkpt>
      <trkpt lat="38.303011" lon="-1.593938">
        <ele>464.9</ele>
        <time>2013-12-06T11:23:24Z</time>
      </trkpt>
      <trkpt lat="38.302896" lon="-1.593993">
        <ele>461.6</ele>
        <time>2013-12-06T11:23:37Z</time>
      </trkpt>
      <trkpt lat="38.302880" lon="-1.594006">
        <ele>461.1</ele>
        <time>2013-12-06T11:23:40Z</time>
      </trkpt>
      <trkpt lat="38.302850" lon="-1.594047">
        <ele>460.1</ele>
        <time>2013-12-06T11:23:44Z</time>
      </trkpt>
      <trkpt lat="38.302821" lon="-1.594061">
        <ele>459.6</ele>
        <time>2013-12-06T11:23:47Z</time>
      </trkpt>
      <trkpt lat="38.302786" lon="-1.594117">
        <ele>457.7</ele>
        <time>2013-12-06T11:23:55Z</time>
      </trkpt>
      <trkpt lat="38.302761" lon="-1.594163">
        <ele>456.8</ele>
        <time>2013-12-06T11:23:58Z</time>
      </trkpt>
      <trkpt lat="38.302716" lon="-1.594250">
        <ele>456.8</ele>
        <time>2013-12-06T11:24:05Z</time>
      </trkpt>
      <trkpt lat="38.302682" lon="-1.594255">
        <ele>455.8</ele>
        <time>2013-12-06T11:24:08Z</time>
      </trkpt>
      <trkpt lat="38.302602" lon="-1.594226">
        <ele>454.8</ele>
        <time>2013-12-06T11:24:13Z</time>
      </trkpt>
      <trkpt lat="38.302584" lon="-1.594223">
        <ele>454.8</ele>
        <time>2013-12-06T11:24:14Z</time>
      </trkpt>
      <trkpt lat="38.302471" lon="-1.594196">
        <ele>452.4</ele>
        <time>2013-12-06T11:24:21Z</time>
      </trkpt>
      <trkpt lat="38.302419" lon="-1.594178">
        <ele>452.4</ele>
        <time>2013-12-06T11:24:25Z</time>
      </trkpt>
      <trkpt lat="38.302209" lon="-1.594084">
        <ele>450.0</ele>
        <time>2013-12-06T11:24:40Z</time>
      </trkpt>
      <trkpt lat="38.302090" lon="-1.594035">
        <ele>446.7</ele>
        <time>2013-12-06T11:24:50Z</time>
      </trkpt>
      <trkpt lat="38.302073" lon="-1.594032">
        <ele>446.2</ele>
        <time>2013-12-06T11:24:52Z</time>
      </trkpt>
      <trkpt lat="38.302032" lon="-1.594018">
        <ele>446.2</ele>
        <time>2013-12-06T11:24:56Z</time>
      </trkpt>
      <trkpt lat="38.301917" lon="-1.593986">
        <ele>443.3</ele>
        <time>2013-12-06T11:25:08Z</time>
      </trkpt>
      <trkpt lat="38.301835" lon="-1.593956">
        <ele>443.3</ele>
        <time>2013-12-06T11:25:14Z</time>
      </trkpt>
      <trkpt lat="38.301775" lon="-1.593919">
        <ele>442.8</ele>
        <time>2013-12-06T11:25:19Z</time>
      </trkpt>
      <trkpt lat="38.301617" lon="-1.593863">
        <ele>439.9</ele>
        <time>2013-12-06T11:25:33Z</time>
      </trkpt>
      <trkpt lat="38.301449" lon="-1.593793">
        <ele>436.6</ele>
        <time>2013-12-06T11:25:46Z</time>
      </trkpt>
      <trkpt lat="38.301438" lon="-1.593789">
        <ele>436.6</ele>
        <time>2013-12-06T11:25:47Z</time>
      </trkpt>
      <trkpt lat="38.301430" lon="-1.593784">
        <ele>438.5</ele>
        <time>2013-12-06T11:25:49Z</time>
      </trkpt>
      <trkpt lat="38.301308" lon="-1.593746">
        <ele>435.6</ele>
        <time>2013-12-06T11:26:00Z</time>
      </trkpt>
      <trkpt lat="38.301294" lon="-1.593745">
        <ele>435.1</ele>
        <time>2013-12-06T11:26:02Z</time>
      </trkpt>
      <trkpt lat="38.301182" lon="-1.593716">
        <ele>431.3</ele>
        <time>2013-12-06T11:26:15Z</time>
      </trkpt>
      <trkpt lat="38.301102" lon="-1.593651">
        <ele>429.4</ele>
        <time>2013-12-06T11:26:28Z</time>
      </trkpt>
      <trkpt lat="38.300939" lon="-1.593577">
        <ele>427.0</ele>
        <time>2013-12-06T11:26:42Z</time>
      </trkpt>
      <trkpt lat="38.300741" lon="-1.593501">
        <ele>427.0</ele>
        <time>2013-12-06T11:26:58Z</time>
      </trkpt>
      <trkpt lat="38.300701" lon="-1.593475">
        <ele>427.4</ele>
        <time>2013-12-06T11:27:02Z</time>
      </trkpt>
      <trkpt lat="38.300493" lon="-1.593406">
        <ele>427.9</ele>
        <time>2013-12-06T11:27:17Z</time>
      </trkpt>
      <trkpt lat="38.300275" lon="-1.593338">
        <ele>426.0</ele>
        <time>2013-12-06T11:27:33Z</time>
      </trkpt>
      <trkpt lat="38.300124" lon="-1.593301">
        <ele>424.6</ele>
        <time>2013-12-06T11:27:44Z</time>
      </trkpt>
      <trkpt lat="38.299961" lon="-1.593218">
        <ele>421.7</ele>
        <time>2013-12-06T11:27:57Z</time>
      </trkpt>
      <trkpt lat="38.299896" lon="-1.593194">
        <ele>419.8</ele>
        <time>2013-12-06T11:28:03Z</time>
      </trkpt>
      <trkpt lat="38.299797" lon="-1.593156">
        <ele>417.8</ele>
        <time>2013-12-06T11:28:11Z</time>
      </trkpt>
      <trkpt lat="38.299742" lon="-1.593128">
        <ele>416.4</ele>
        <time>2013-12-06T11:28:15Z</time>
      </trkpt>
      <trkpt lat="38.299616" lon="-1.593090">
        <ele>413.5</ele>
        <time>2013-12-06T11:28:27Z</time>
      </trkpt>
      <trkpt lat="38.299581" lon="-1.593086">
        <ele>413.5</ele>
        <time>2013-12-06T11:28:30Z</time>
      </trkpt>
      <trkpt lat="38.299509" lon="-1.593064">
        <ele>412.1</ele>
        <time>2013-12-06T11:28:36Z</time>
      </trkpt>
      <trkpt lat="38.299303" lon="-1.592986">
        <ele>410.6</ele>
        <time>2013-12-06T11:28:51Z</time>
      </trkpt>
      <trkpt lat="38.299105" lon="-1.592915">
        <ele>412.1</ele>
        <time>2013-12-06T11:29:05Z</time>
      </trkpt>
      <trkpt lat="38.298794" lon="-1.592801">
        <ele>409.7</ele>
        <time>2013-12-06T11:29:26Z</time>
      </trkpt>
      <trkpt lat="38.298538" lon="-1.592712">
        <ele>406.3</ele>
        <time>2013-12-06T11:29:44Z</time>
      </trkpt>
      <trkpt lat="38.298330" lon="-1.592640">
        <ele>403.9</ele>
        <time>2013-12-06T11:30:01Z</time>
      </trkpt>
      <trkpt lat="38.298269" lon="-1.592629">
        <ele>403.9</ele>
        <time>2013-12-06T11:30:12Z</time>
      </trkpt>
      <trkpt lat="38.297998" lon="-1.592510">
        <ele>400.5</ele>
        <time>2013-12-06T11:30:32Z</time>
      </trkpt>
      <trkpt lat="38.297749" lon="-1.592420">
        <ele>398.1</ele>
        <time>2013-12-06T11:30:50Z</time>
      </trkpt>
      <trkpt lat="38.297530" lon="-1.592327">
        <ele>395.7</ele>
        <time>2013-12-06T11:31:06Z</time>
      </trkpt>
      <trkpt lat="38.297218" lon="-1.592214">
        <ele>393.3</ele>
        <time>2013-12-06T11:31:28Z</time>
      </trkpt>
      <trkpt lat="38.297213" lon="-1.592210">
        <ele>392.4</ele>
        <time>2013-12-06T11:31:35Z</time>
      </trkpt>
      <trkpt lat="38.297017" lon="-1.592154">
        <ele>392.8</ele>
        <time>2013-12-06T11:31:49Z</time>
      </trkpt>
      <trkpt lat="38.296801" lon="-1.592058">
        <ele>390.4</ele>
        <time>2013-12-06T11:32:05Z</time>
      </trkpt>
      <trkpt lat="38.296617" lon="-1.592003">
        <ele>387.1</ele>
        <time>2013-12-06T11:32:18Z</time>
      </trkpt>
      <trkpt lat="38.296405" lon="-1.591925">
        <ele>385.1</ele>
        <time>2013-12-06T11:32:33Z</time>
      </trkpt>
      <trkpt lat="38.296179" lon="-1.591833">
        <ele>385.1</ele>
        <time>2013-12-06T11:32:50Z</time>
      </trkpt>
      <trkpt lat="38.295939" lon="-1.591741">
        <ele>383.7</ele>
        <time>2013-12-06T11:33:08Z</time>
      </trkpt>
      <trkpt lat="38.295915" lon="-1.591723">
        <ele>384.2</ele>
        <time>2013-12-06T11:33:10Z</time>
      </trkpt>
      <trkpt lat="38.295702" lon="-1.591648">
        <ele>381.8</ele>
        <time>2013-12-06T11:33:27Z</time>
      </trkpt>
      <trkpt lat="38.295536" lon="-1.591595">
        <ele>380.8</ele>
        <time>2013-12-06T11:33:41Z</time>
      </trkpt>
      <trkpt lat="38.295387" lon="-1.591519">
        <ele>379.9</ele>
        <time>2013-12-06T11:33:56Z</time>
      </trkpt>
      <trkpt lat="38.295355" lon="-1.591518">
        <ele>379.9</ele>
        <time>2013-12-06T11:34:12Z</time>
      </trkpt>
      <trkpt lat="38.295371" lon="-1.591525">
        <ele>379.4</ele>
        <time>2013-12-06T11:34:40Z</time>
      </trkpt>
      <trkpt lat="38.295368" lon="-1.591514">
        <ele>379.9</ele>
        <time>2013-12-06T11:34:55Z</time>
      </trkpt>
      <trkpt lat="38.295362" lon="-1.591510">
        <ele>379.9</ele>
        <time>2013-12-06T11:34:56Z</time>
      </trkpt>
      <trkpt lat="38.295173" lon="-1.591444">
        <ele>378.4</ele>
        <time>2013-12-06T11:35:12Z</time>
      </trkpt>
      <trkpt lat="38.295128" lon="-1.591451">
        <ele>378.4</ele>
        <time>2013-12-06T11:35:23Z</time>
      </trkpt>
      <trkpt lat="38.295119" lon="-1.591443">
        <ele>378.4</ele>
        <time>2013-12-06T11:35:24Z</time>
      </trkpt>
      <trkpt lat="38.294990" lon="-1.591386">
        <ele>377.5</ele>
        <time>2013-12-06T11:35:37Z</time>
      </trkpt>
      <trkpt lat="38.294806" lon="-1.591321">
        <ele>376.0</ele>
        <time>2013-12-06T11:35:53Z</time>
      </trkpt>
      <trkpt lat="38.294631" lon="-1.591242">
        <ele>375.0</ele>
        <time>2013-12-06T11:36:07Z</time>
      </trkpt>
      <trkpt lat="38.294512" lon="-1.591192">
        <ele>374.6</ele>
        <time>2013-12-06T11:36:16Z</time>
      </trkpt>
      <trkpt lat="38.294246" lon="-1.591107">
        <ele>374.1</ele>
        <time>2013-12-06T11:36:35Z</time>
      </trkpt>
      <trkpt lat="38.294072" lon="-1.591041">
        <ele>375.0</ele>
        <time>2013-12-06T11:36:48Z</time>
      </trkpt>
      <trkpt lat="38.293865" lon="-1.590946">
        <ele>376.0</ele>
        <time>2013-12-06T11:37:05Z</time>
      </trkpt>
      <trkpt lat="38.293836" lon="-1.590941">
        <ele>375.5</ele>
        <time>2013-12-06T11:37:07Z</time>
      </trkpt>
      <trkpt lat="38.293763" lon="-1.590914">
        <ele>375.0</ele>
        <time>2013-12-06T11:37:13Z</time>
      </trkpt>
      <trkpt lat="38.293496" lon="-1.590808">
        <ele>373.6</ele>
        <time>2013-12-06T11:37:33Z</time>
      </trkpt>
      <trkpt lat="38.293237" lon="-1.590701">
        <ele>372.6</ele>
        <time>2013-12-06T11:37:52Z</time>
      </trkpt>
      <trkpt lat="38.292983" lon="-1.590612">
        <ele>371.2</ele>
        <time>2013-12-06T11:38:10Z</time>
      </trkpt>
      <trkpt lat="38.292719" lon="-1.590538">
        <ele>369.3</ele>
        <time>2013-12-06T11:38:28Z</time>
      </trkpt>
      <trkpt lat="38.292520" lon="-1.590479">
        <ele>366.9</ele>
        <time>2013-12-06T11:38:42Z</time>
      </trkpt>
      <trkpt lat="38.292508" lon="-1.590474">
        <ele>366.9</ele>
        <time>2013-12-06T11:38:43Z</time>
      </trkpt>
      <trkpt lat="38.292410" lon="-1.590447">
        <ele>367.8</ele>
        <time>2013-12-06T11:38:51Z</time>
      </trkpt>
      <trkpt lat="38.292321" lon="-1.590415">
        <ele>368.8</ele>
        <time>2013-12-06T11:38:58Z</time>
      </trkpt>
      <trkpt lat="38.292088" lon="-1.590347">
        <ele>368.8</ele>
        <time>2013-12-06T11:39:15Z</time>
      </trkpt>
      <trkpt lat="38.292064" lon="-1.590361">
        <ele>368.8</ele>
        <time>2013-12-06T11:39:18Z</time>
      </trkpt>
      <trkpt lat="38.291942" lon="-1.590284">
        <ele>368.3</ele>
        <time>2013-12-06T11:39:30Z</time>
      </trkpt>
      <trkpt lat="38.291920" lon="-1.590276">
        <ele>367.4</ele>
        <time>2013-12-06T11:39:32Z</time>
      </trkpt>
      <trkpt lat="38.291724" lon="-1.590203">
        <ele>367.4</ele>
        <time>2013-12-06T11:39:49Z</time>
      </trkpt>
      <trkpt lat="38.291530" lon="-1.590132">
        <ele>366.4</ele>
        <time>2013-12-06T11:40:04Z</time>
      </trkpt>
      <trkpt lat="38.291309" lon="-1.590030">
        <ele>365.4</ele>
        <time>2013-12-06T11:40:21Z</time>
      </trkpt>
      <trkpt lat="38.291143" lon="-1.589936">
        <ele>364.5</ele>
        <time>2013-12-06T11:40:34Z</time>
      </trkpt>
      <trkpt lat="38.291112" lon="-1.589927">
        <ele>364.5</ele>
        <time>2013-12-06T11:40:38Z</time>
      </trkpt>
      <trkpt lat="38.291015" lon="-1.589705">
        <ele>364.0</ele>
        <time>2013-12-06T11:40:54Z</time>
      </trkpt>
      <trkpt lat="38.290906" lon="-1.589465">
        <ele>362.5</ele>
        <time>2013-12-06T11:41:10Z</time>
      </trkpt>
      <trkpt lat="38.290830" lon="-1.589217">
        <ele>361.6</ele>
        <time>2013-12-06T11:41:25Z</time>
      </trkpt>
      <trkpt lat="38.290727" lon="-1.588976">
        <ele>360.1</ele>
        <time>2013-12-06T11:41:41Z</time>
      </trkpt>
      <trkpt lat="38.290572" lon="-1.588595">
        <ele>358.7</ele>
        <time>2013-12-06T11:42:04Z</time>
      </trkpt>
      <trkpt lat="38.290454" lon="-1.588250">
        <ele>356.8</ele>
        <time>2013-12-06T11:42:24Z</time>
      </trkpt>
      <trkpt lat="38.290278" lon="-1.587884">
        <ele>354.9</ele>
        <time>2013-12-06T11:42:47Z</time>
      </trkpt>
      <trkpt lat="38.290027" lon="-1.587634">
        <ele>354.9</ele>
        <time>2013-12-06T11:43:08Z</time>
      </trkpt>
      <trkpt lat="38.289793" lon="-1.587421">
        <ele>353.4</ele>
        <time>2013-12-06T11:43:27Z</time>
      </trkpt>
      <trkpt lat="38.289562" lon="-1.587232">
        <ele>351.5</ele>
        <time>2013-12-06T11:43:46Z</time>
      </trkpt>
      <trkpt lat="38.289310" lon="-1.586942">
        <ele>349.1</ele>
        <time>2013-12-06T11:44:09Z</time>
      </trkpt>
      <trkpt lat="38.289054" lon="-1.586682">
        <ele>347.6</ele>
        <time>2013-12-06T11:44:32Z</time>
      </trkpt>
      <trkpt lat="38.288805" lon="-1.586452">
        <ele>346.7</ele>
        <time>2013-12-06T11:44:53Z</time>
      </trkpt>
      <trkpt lat="38.288532" lon="-1.586268">
        <ele>345.2</ele>
        <time>2013-12-06T11:45:14Z</time>
      </trkpt>
      <trkpt lat="38.288261" lon="-1.586038">
        <ele>343.8</ele>
        <time>2013-12-06T11:45:35Z</time>
      </trkpt>
      <trkpt lat="38.287991" lon="-1.585819">
        <ele>341.9</ele>
        <time>2013-12-06T11:45:57Z</time>
      </trkpt>
      <trkpt lat="38.287755" lon="-1.585582">
        <ele>340.4</ele>
        <time>2013-12-06T11:46:17Z</time>
      </trkpt>
      <trkpt lat="38.287537" lon="-1.585362">
        <ele>338.5</ele>
        <time>2013-12-06T11:46:36Z</time>
      </trkpt>
      <trkpt lat="38.287283" lon="-1.585130">
        <ele>336.1</ele>
        <time>2013-12-06T11:46:57Z</time>
      </trkpt>
      <trkpt lat="38.287016" lon="-1.584890">
        <ele>335.6</ele>
        <time>2013-12-06T11:47:19Z</time>
      </trkpt>
      <trkpt lat="38.286784" lon="-1.584693">
        <ele>337.1</ele>
        <time>2013-12-06T11:47:38Z</time>
      </trkpt>
      <trkpt lat="38.286517" lon="-1.584555">
        <ele>336.6</ele>
        <time>2013-12-06T11:47:58Z</time>
      </trkpt>
      <trkpt lat="38.286200" lon="-1.584452">
        <ele>335.2</ele>
        <time>2013-12-06T11:48:21Z</time>
      </trkpt>
      <trkpt lat="38.285953" lon="-1.584382">
        <ele>335.6</ele>
        <time>2013-12-06T11:48:39Z</time>
      </trkpt>
      <trkpt lat="38.285645" lon="-1.584299">
        <ele>335.2</ele>
        <time>2013-12-06T11:49:01Z</time>
      </trkpt>
      <trkpt lat="38.285357" lon="-1.584228">
        <ele>334.7</ele>
        <time>2013-12-06T11:49:22Z</time>
      </trkpt>
      <trkpt lat="38.285080" lon="-1.584179">
        <ele>334.7</ele>
        <time>2013-12-06T11:49:44Z</time>
      </trkpt>
      <trkpt lat="38.284953" lon="-1.584185">
        <ele>334.2</ele>
        <time>2013-12-06T11:52:24Z</time>
      </trkpt>
      <trkpt lat="38.284944" lon="-1.584184">
        <ele>334.2</ele>
        <time>2013-12-06T11:52:25Z</time>
      </trkpt>
      <trkpt lat="38.284728" lon="-1.584130">
        <ele>333.7</ele>
        <time>2013-12-06T11:52:43Z</time>
      </trkpt>
      <trkpt lat="38.284476" lon="-1.584058">
        <ele>333.2</ele>
        <time>2013-12-06T11:53:02Z</time>
      </trkpt>
      <trkpt lat="38.284213" lon="-1.584109">
        <ele>332.8</ele>
        <time>2013-12-06T11:53:19Z</time>
      </trkpt>
      <trkpt lat="38.283968" lon="-1.584217">
        <ele>332.8</ele>
        <time>2013-12-06T11:53:37Z</time>
      </trkpt>
      <trkpt lat="38.283704" lon="-1.584249">
        <ele>331.8</ele>
        <time>2013-12-06T11:53:55Z</time>
      </trkpt>
      <trkpt lat="38.283436" lon="-1.584152">
        <ele>330.8</ele>
        <time>2013-12-06T11:54:14Z</time>
      </trkpt>
      <trkpt lat="38.283181" lon="-1.584001">
        <ele>330.4</ele>
        <time>2013-12-06T11:54:34Z</time>
      </trkpt>
      <trkpt lat="38.282935" lon="-1.583824">
        <ele>329.9</ele>
        <time>2013-12-06T11:54:53Z</time>
      </trkpt>
      <trkpt lat="38.282692" lon="-1.583633">
        <ele>329.4</ele>
        <time>2013-12-06T11:55:13Z</time>
      </trkpt>
      <trkpt lat="38.282495" lon="-1.583490">
        <ele>329.9</ele>
        <time>2013-12-06T11:55:29Z</time>
      </trkpt>
      <trkpt lat="38.282277" lon="-1.583391">
        <ele>328.4</ele>
        <time>2013-12-06T11:55:45Z</time>
      </trkpt>
      <trkpt lat="38.281976" lon="-1.583332">
        <ele>328.0</ele>
        <time>2013-12-06T11:56:06Z</time>
      </trkpt>
      <trkpt lat="38.281678" lon="-1.583280">
        <ele>327.5</ele>
        <time>2013-12-06T11:56:28Z</time>
      </trkpt>
      <trkpt lat="38.281460" lon="-1.583232">
        <ele>327.0</ele>
        <time>2013-12-06T11:56:45Z</time>
      </trkpt>
      <trkpt lat="38.281191" lon="-1.583207">
        <ele>326.5</ele>
        <time>2013-12-06T11:57:05Z</time>
      </trkpt>
      <trkpt lat="38.280959" lon="-1.583187">
        <ele>325.5</ele>
        <time>2013-12-06T11:57:22Z</time>
      </trkpt>
      <trkpt lat="38.280745" lon="-1.583135">
        <ele>325.1</ele>
        <time>2013-12-06T11:57:38Z</time>
      </trkpt>
      <trkpt lat="38.280489" lon="-1.583082">
        <ele>323.1</ele>
        <time>2013-12-06T11:57:57Z</time>
      </trkpt>
      <trkpt lat="38.280264" lon="-1.583040">
        <ele>322.7</ele>
        <time>2013-12-06T11:58:14Z</time>
      </trkpt>
      <trkpt lat="38.280040" lon="-1.582962">
        <ele>322.2</ele>
        <time>2013-12-06T11:58:31Z</time>
      </trkpt>
      <trkpt lat="38.279911" lon="-1.582814">
        <ele>321.2</ele>
        <time>2013-12-06T11:58:44Z</time>
      </trkpt>
      <trkpt lat="38.279763" lon="-1.582644">
        <ele>320.7</ele>
        <time>2013-12-06T11:58:58Z</time>
      </trkpt>
      <trkpt lat="38.279572" lon="-1.582430">
        <ele>320.3</ele>
        <time>2013-12-06T11:59:16Z</time>
      </trkpt>
      <trkpt lat="38.279375" lon="-1.582212">
        <ele>319.3</ele>
        <time>2013-12-06T11:59:35Z</time>
      </trkpt>
      <trkpt lat="38.279192" lon="-1.582005">
        <ele>318.3</ele>
        <time>2013-12-06T11:59:53Z</time>
      </trkpt>
      <trkpt lat="38.279038" lon="-1.581844">
        <ele>316.4</ele>
        <time>2013-12-06T12:00:09Z</time>
      </trkpt>
      <trkpt lat="38.278855" lon="-1.581663">
        <ele>314.0</ele>
        <time>2013-12-06T12:00:27Z</time>
      </trkpt>
      <trkpt lat="38.278701" lon="-1.581845">
        <ele>314.0</ele>
        <time>2013-12-06T12:00:42Z</time>
      </trkpt>
      <trkpt lat="38.278490" lon="-1.582085">
        <ele>315.0</ele>
        <time>2013-12-06T12:01:01Z</time>
      </trkpt>
      <trkpt lat="38.278277" lon="-1.582303">
        <ele>315.0</ele>
        <time>2013-12-06T12:01:21Z</time>
      </trkpt>
      <trkpt lat="38.278167" lon="-1.582411">
        <ele>315.9</ele>
        <time>2013-12-06T12:01:38Z</time>
      </trkpt>
      <trkpt lat="38.278147" lon="-1.582459">
        <ele>315.5</ele>
        <time>2013-12-06T12:01:52Z</time>
      </trkpt>
      <trkpt lat="38.278004" lon="-1.582648">
        <ele>315.5</ele>
        <time>2013-12-06T12:02:07Z</time>
      </trkpt>
      <trkpt lat="38.277839" lon="-1.582879">
        <ele>314.5</ele>
        <time>2013-12-06T12:02:26Z</time>
      </trkpt>
      <trkpt lat="38.277654" lon="-1.583113">
        <ele>314.5</ele>
        <time>2013-12-06T12:02:45Z</time>
      </trkpt>
      <trkpt lat="38.277546" lon="-1.583240">
        <ele>314.0</ele>
        <time>2013-12-06T12:02:55Z</time>
      </trkpt>
      <trkpt lat="38.277311" lon="-1.583406">
        <ele>314.0</ele>
        <time>2013-12-06T12:03:13Z</time>
      </trkpt>
      <trkpt lat="38.277076" lon="-1.583557">
        <ele>313.0</ele>
        <time>2013-12-06T12:03:30Z</time>
      </trkpt>
      <trkpt lat="38.276844" lon="-1.583838">
        <ele>312.6</ele>
        <time>2013-12-06T12:03:51Z</time>
      </trkpt>
      <trkpt lat="38.276649" lon="-1.583990">
        <ele>312.1</ele>
        <time>2013-12-06T12:04:08Z</time>
      </trkpt>
      <trkpt lat="38.276641" lon="-1.583966">
        <ele>311.6</ele>
        <time>2013-12-06T12:04:14Z</time>
      </trkpt>
      <trkpt lat="38.276615" lon="-1.583885">
        <ele>309.2</ele>
        <time>2013-12-06T12:04:25Z</time>
      </trkpt>
      <trkpt lat="38.276628" lon="-1.583774">
        <ele>309.7</ele>
        <time>2013-12-06T12:04:38Z</time>
      </trkpt>
      <trkpt lat="38.276677" lon="-1.583691">
        <ele>312.6</ele>
        <time>2013-12-06T12:04:49Z</time>
      </trkpt>
      <trkpt lat="38.276692" lon="-1.583631">
        <ele>312.6</ele>
        <time>2013-12-06T12:04:54Z</time>
      </trkpt>
      <trkpt lat="38.276709" lon="-1.583600">
        <ele>312.6</ele>
        <time>2013-12-06T12:04:59Z</time>
      </trkpt>
      <trkpt lat="38.276641" lon="-1.583577">
        <ele>312.6</ele>
        <time>2013-12-06T12:05:03Z</time>
      </trkpt>
      <trkpt lat="38.276601" lon="-1.583561">
        <ele>312.1</ele>
        <time>2013-12-06T12:05:27Z</time>
      </trkpt>
      <trkpt lat="38.276553" lon="-1.583577">
        <ele>312.1</ele>
        <time>2013-12-06T12:06:34Z</time>
      </trkpt>
      <trkpt lat="38.276456" lon="-1.583584">
        <ele>311.6</ele>
        <time>2013-12-06T12:06:49Z</time>
      </trkpt>
      <trkpt lat="38.276442" lon="-1.583571">
        <ele>312.6</ele>
        <time>2013-12-06T12:07:01Z</time>
      </trkpt>
      <trkpt lat="38.276429" lon="-1.583539">
        <ele>312.1</ele>
        <time>2013-12-06T12:07:12Z</time>
      </trkpt>
      <trkpt lat="38.276419" lon="-1.583532">
        <ele>312.1</ele>
        <time>2013-12-06T12:07:59Z</time>
      </trkpt>
      <trkpt lat="38.276365" lon="-1.583531">
        <ele>312.1</ele>
        <time>2013-12-06T12:08:13Z</time>
      </trkpt>
      <trkpt lat="38.276345" lon="-1.583503">
        <ele>311.1</ele>
        <time>2013-12-06T12:08:27Z</time>
      </trkpt>
      <trkpt lat="38.276334" lon="-1.583486">
        <ele>311.1</ele>
        <time>2013-12-06T12:08:42Z</time>
      </trkpt>
      <trkpt lat="38.276299" lon="-1.583465">
        <ele>311.1</ele>
        <time>2013-12-06T12:08:57Z</time>
      </trkpt>
      <trkpt lat="38.276276" lon="-1.583433">
        <ele>310.6</ele>
        <time>2013-12-06T12:09:00Z</time>
      </trkpt>
      <trkpt lat="38.276253" lon="-1.583347">
        <ele>310.6</ele>
        <time>2013-12-06T12:09:06Z</time>
      </trkpt>
      <trkpt lat="38.276258" lon="-1.583334">
        <ele>310.2</ele>
        <time>2013-12-06T12:09:09Z</time>
      </trkpt>
      <trkpt lat="38.276246" lon="-1.583174">
        <ele>310.2</ele>
        <time>2013-12-06T12:09:23Z</time>
      </trkpt>
      <trkpt lat="38.276257" lon="-1.583056">
        <ele>310.2</ele>
        <time>2013-12-06T12:09:39Z</time>
      </trkpt>
      <trkpt lat="38.276239" lon="-1.582868">
        <ele>309.7</ele>
        <time>2013-12-06T12:09:51Z</time>
      </trkpt>
      <trkpt lat="38.276239" lon="-1.582728">
        <ele>309.2</ele>
        <time>2013-12-06T12:10:02Z</time>
      </trkpt>
      <trkpt lat="38.276221" lon="-1.582631">
        <ele>309.7</ele>
        <time>2013-12-06T12:10:18Z</time>
      </trkpt>
      <trkpt lat="38.276221" lon="-1.582627">
        <ele>309.7</ele>
        <time>2013-12-06T12:10:19Z</time>
      </trkpt>
      <trkpt lat="38.276224" lon="-1.582437">
        <ele>308.7</ele>
        <time>2013-12-06T12:10:35Z</time>
      </trkpt>
      <trkpt lat="38.276220" lon="-1.582352">
        <ele>309.2</ele>
        <time>2013-12-06T12:10:48Z</time>
      </trkpt>
      <trkpt lat="38.276230" lon="-1.582107">
        <ele>308.2</ele>
        <time>2013-12-06T12:11:06Z</time>
      </trkpt>
      <trkpt lat="38.276263" lon="-1.581886">
        <ele>308.2</ele>
        <time>2013-12-06T12:11:20Z</time>
      </trkpt>
      <trkpt lat="38.276224" lon="-1.581664">
        <ele>308.2</ele>
        <time>2013-12-06T12:11:36Z</time>
      </trkpt>
      <trkpt lat="38.276216" lon="-1.581662">
        <ele>307.8</ele>
        <time>2013-12-06T12:11:41Z</time>
      </trkpt>
      <trkpt lat="38.276145" lon="-1.581638">
        <ele>307.8</ele>
        <time>2013-12-06T12:11:53Z</time>
      </trkpt>
      <trkpt lat="38.275869" lon="-1.581597">
        <ele>305.8</ele>
        <time>2013-12-06T12:12:12Z</time>
      </trkpt>
      <trkpt lat="38.275662" lon="-1.581516">
        <ele>305.8</ele>
        <time>2013-12-06T12:12:30Z</time>
      </trkpt>
      <trkpt lat="38.275355" lon="-1.581460">
        <ele>303.9</ele>
        <time>2013-12-06T12:12:53Z</time>
      </trkpt>
      <trkpt lat="38.275243" lon="-1.581443">
        <ele>304.4</ele>
        <time>2013-12-06T12:13:01Z</time>
      </trkpt>
      <trkpt lat="38.275183" lon="-1.581466">
        <ele>303.9</ele>
        <time>2013-12-06T12:13:06Z</time>
      </trkpt>
      <trkpt lat="38.275088" lon="-1.581440">
        <ele>303.9</ele>
        <time>2013-12-06T12:13:13Z</time>
      </trkpt>
      <trkpt lat="38.275041" lon="-1.581429">
        <ele>303.9</ele>
        <time>2013-12-06T12:13:16Z</time>
      </trkpt>
      <trkpt lat="38.275023" lon="-1.581390">
        <ele>303.4</ele>
        <time>2013-12-06T12:13:26Z</time>
      </trkpt>
      <trkpt lat="38.274778" lon="-1.581350">
        <ele>303.0</ele>
        <time>2013-12-06T12:13:42Z</time>
      </trkpt>
      <trkpt lat="38.274468" lon="-1.581259">
        <ele>302.5</ele>
        <time>2013-12-06T12:14:01Z</time>
      </trkpt>
      <trkpt lat="38.274186" lon="-1.581208">
        <ele>302.0</ele>
        <time>2013-12-06T12:14:20Z</time>
      </trkpt>
      <trkpt lat="38.273970" lon="-1.581175">
        <ele>301.5</ele>
        <time>2013-12-06T12:14:37Z</time>
      </trkpt>
      <trkpt lat="38.273903" lon="-1.581170">
        <ele>301.5</ele>
        <time>2013-12-06T12:14:45Z</time>
      </trkpt>
      <trkpt lat="38.273852" lon="-1.581155">
        <ele>301.0</ele>
        <time>2013-12-06T12:14:49Z</time>
      </trkpt>
      <trkpt lat="38.273569" lon="-1.581089">
        <ele>301.0</ele>
        <time>2013-12-06T12:15:08Z</time>
      </trkpt>
      <trkpt lat="38.273291" lon="-1.581021">
        <ele>300.1</ele>
        <time>2013-12-06T12:15:28Z</time>
      </trkpt>
      <trkpt lat="38.273065" lon="-1.580986">
        <ele>300.1</ele>
        <time>2013-12-06T12:15:45Z</time>
      </trkpt>
      <trkpt lat="38.272819" lon="-1.580986">
        <ele>299.6</ele>
        <time>2013-12-06T12:16:04Z</time>
      </trkpt>
      <trkpt lat="38.272568" lon="-1.580962">
        <ele>300.1</ele>
        <time>2013-12-06T12:16:23Z</time>
      </trkpt>
      <trkpt lat="38.272305" lon="-1.580911">
        <ele>300.5</ele>
        <time>2013-12-06T12:16:42Z</time>
      </trkpt>
      <trkpt lat="38.272088" lon="-1.580878">
        <ele>301.0</ele>
        <time>2013-12-06T12:16:58Z</time>
      </trkpt>
      <trkpt lat="38.271860" lon="-1.580833">
        <ele>301.0</ele>
        <time>2013-12-06T12:17:15Z</time>
      </trkpt>
      <trkpt lat="38.271632" lon="-1.580775">
        <ele>301.5</ele>
        <time>2013-12-06T12:17:31Z</time>
      </trkpt>
      <trkpt lat="38.271346" lon="-1.580726">
        <ele>302.5</ele>
        <time>2013-12-06T12:17:50Z</time>
      </trkpt>
      <trkpt lat="38.271074" lon="-1.580665">
        <ele>302.5</ele>
        <time>2013-12-06T12:18:09Z</time>
      </trkpt>
      <trkpt lat="38.270801" lon="-1.580596">
        <ele>302.5</ele>
        <time>2013-12-06T12:18:29Z</time>
      </trkpt>
      <trkpt lat="38.270580" lon="-1.580571">
        <ele>302.0</ele>
        <time>2013-12-06T12:18:46Z</time>
      </trkpt>
      <trkpt lat="38.270356" lon="-1.580533">
        <ele>302.0</ele>
        <time>2013-12-06T12:19:03Z</time>
      </trkpt>
      <trkpt lat="38.270146" lon="-1.580473">
        <ele>301.5</ele>
        <time>2013-12-06T12:19:19Z</time>
      </trkpt>
      <trkpt lat="38.270096" lon="-1.580443">
        <ele>301.5</ele>
        <time>2013-12-06T12:19:23Z</time>
      </trkpt>
      <trkpt lat="38.270073" lon="-1.580444">
        <ele>301.5</ele>
        <time>2013-12-06T12:19:25Z</time>
      </trkpt>
      <trkpt lat="38.270029" lon="-1.580445">
        <ele>301.5</ele>
        <time>2013-12-06T12:19:29Z</time>
      </trkpt>
      <trkpt lat="38.269983" lon="-1.580431">
        <ele>302.0</ele>
        <time>2013-12-06T12:19:34Z</time>
      </trkpt>
      <trkpt lat="38.269821" lon="-1.580313">
        <ele>301.0</ele>
        <time>2013-12-06T12:19:48Z</time>
      </trkpt>
      <trkpt lat="38.269660" lon="-1.580174">
        <ele>300.1</ele>
        <time>2013-12-06T12:20:03Z</time>
      </trkpt>
      <trkpt lat="38.269494" lon="-1.579926">
        <ele>300.1</ele>
        <time>2013-12-06T12:20:22Z</time>
      </trkpt>
      <trkpt lat="38.269367" lon="-1.579666">
        <ele>299.1</ele>
        <time>2013-12-06T12:20:41Z</time>
      </trkpt>
      <trkpt lat="38.269280" lon="-1.579395">
        <ele>298.6</ele>
        <time>2013-12-06T12:20:59Z</time>
      </trkpt>
      <trkpt lat="38.269200" lon="-1.579085">
        <ele>298.1</ele>
        <time>2013-12-06T12:21:18Z</time>
      </trkpt>
      <trkpt lat="38.269128" lon="-1.578811">
        <ele>297.2</ele>
        <time>2013-12-06T12:21:35Z</time>
      </trkpt>
      <trkpt lat="38.269061" lon="-1.578491">
        <ele>296.7</ele>
        <time>2013-12-06T12:21:55Z</time>
      </trkpt>
      <trkpt lat="38.268961" lon="-1.578123">
        <ele>295.3</ele>
        <time>2013-12-06T12:22:18Z</time>
      </trkpt>
      <trkpt lat="38.268891" lon="-1.577840">
        <ele>294.8</ele>
        <time>2013-12-06T12:22:36Z</time>
      </trkpt>
      <trkpt lat="38.268808" lon="-1.577544">
        <ele>293.8</ele>
        <time>2013-12-06T12:22:55Z</time>
      </trkpt>
      <trkpt lat="38.268743" lon="-1.577217">
        <ele>292.9</ele>
        <time>2013-12-06T12:23:16Z</time>
      </trkpt>
      <trkpt lat="38.268655" lon="-1.576929">
        <ele>292.4</ele>
        <time>2013-12-06T12:23:34Z</time>
      </trkpt>
      <trkpt lat="38.268589" lon="-1.576635">
        <ele>291.4</ele>
        <time>2013-12-06T12:23:53Z</time>
      </trkpt>
      <trkpt lat="38.268511" lon="-1.576343">
        <ele>290.5</ele>
        <time>2013-12-06T12:24:14Z</time>
      </trkpt>
      <trkpt lat="38.268446" lon="-1.576087">
        <ele>289.5</ele>
        <time>2013-12-06T12:24:32Z</time>
      </trkpt>
      <trkpt lat="38.268428" lon="-1.576014">
        <ele>289.5</ele>
        <time>2013-12-06T12:24:37Z</time>
      </trkpt>
      <trkpt lat="38.268355" lon="-1.575713">
        <ele>288.5</ele>
        <time>2013-12-06T12:24:57Z</time>
      </trkpt>
      <trkpt lat="38.268286" lon="-1.575457">
        <ele>288.0</ele>
        <time>2013-12-06T12:25:15Z</time>
      </trkpt>
      <trkpt lat="38.268208" lon="-1.575156">
        <ele>287.6</ele>
        <time>2013-12-06T12:25:34Z</time>
      </trkpt>
      <trkpt lat="38.268119" lon="-1.574863">
        <ele>287.1</ele>
        <time>2013-12-06T12:25:53Z</time>
      </trkpt>
      <trkpt lat="38.268034" lon="-1.574526">
        <ele>287.1</ele>
        <time>2013-12-06T12:26:14Z</time>
      </trkpt>
      <trkpt lat="38.267955" lon="-1.574190">
        <ele>286.6</ele>
        <time>2013-12-06T12:26:35Z</time>
      </trkpt>
      <trkpt lat="38.267898" lon="-1.573909">
        <ele>286.1</ele>
        <time>2013-12-06T12:26:53Z</time>
      </trkpt>
      <trkpt lat="38.267810" lon="-1.573582">
        <ele>285.2</ele>
        <time>2013-12-06T12:27:13Z</time>
      </trkpt>
      <trkpt lat="38.267713" lon="-1.573200">
        <ele>284.2</ele>
        <time>2013-12-06T12:27:36Z</time>
      </trkpt>
      <trkpt lat="38.267572" lon="-1.572835">
        <ele>284.2</ele>
        <time>2013-12-06T12:27:57Z</time>
      </trkpt>
      <trkpt lat="38.267543" lon="-1.572609">
        <ele>284.7</ele>
        <time>2013-12-06T12:28:15Z</time>
      </trkpt>
      <trkpt lat="38.267488" lon="-1.572376">
        <ele>283.2</ele>
        <time>2013-12-06T12:28:30Z</time>
      </trkpt>
      <trkpt lat="38.267416" lon="-1.572097">
        <ele>282.3</ele>
        <time>2013-12-06T12:28:47Z</time>
      </trkpt>
      <trkpt lat="38.267367" lon="-1.571812">
        <ele>280.8</ele>
        <time>2013-12-06T12:29:04Z</time>
      </trkpt>
      <trkpt lat="38.267304" lon="-1.571508">
        <ele>279.9</ele>
        <time>2013-12-06T12:29:22Z</time>
      </trkpt>
      <trkpt lat="38.267245" lon="-1.571170">
        <ele>278.4</ele>
        <time>2013-12-06T12:29:42Z</time>
      </trkpt>
      <trkpt lat="38.267207" lon="-1.570946">
        <ele>278.0</ele>
        <time>2013-12-06T12:29:56Z</time>
      </trkpt>
      <trkpt lat="38.267157" lon="-1.570667">
        <ele>277.0</ele>
        <time>2013-12-06T12:30:14Z</time>
      </trkpt>
      <trkpt lat="38.267111" lon="-1.570380">
        <ele>276.0</ele>
        <time>2013-12-06T12:30:32Z</time>
      </trkpt>
      <trkpt lat="38.267055" lon="-1.570075">
        <ele>275.1</ele>
        <time>2013-12-06T12:30:51Z</time>
      </trkpt>
      <trkpt lat="38.267000" lon="-1.569759">
        <ele>273.6</ele>
        <time>2013-12-06T12:31:10Z</time>
      </trkpt>
      <trkpt lat="38.266931" lon="-1.569418">
        <ele>272.2</ele>
        <time>2013-12-06T12:31:31Z</time>
      </trkpt>
      <trkpt lat="38.266866" lon="-1.569122">
        <ele>270.8</ele>
        <time>2013-12-06T12:31:49Z</time>
      </trkpt>
      <trkpt lat="38.266803" lon="-1.568780">
        <ele>268.8</ele>
        <time>2013-12-06T12:32:10Z</time>
      </trkpt>
      <trkpt lat="38.266718" lon="-1.568493">
        <ele>265.9</ele>
        <time>2013-12-06T12:32:28Z</time>
      </trkpt>
      <trkpt lat="38.266657" lon="-1.568143">
        <ele>264.0</ele>
        <time>2013-12-06T12:32:49Z</time>
      </trkpt>
      <trkpt lat="38.266575" lon="-1.567799">
        <ele>261.6</ele>
        <time>2013-12-06T12:33:09Z</time>
      </trkpt>
      <trkpt lat="38.266497" lon="-1.567496">
        <ele>260.2</ele>
        <time>2013-12-06T12:33:26Z</time>
      </trkpt>
      <trkpt lat="38.266435" lon="-1.567221">
        <ele>259.7</ele>
        <time>2013-12-06T12:33:43Z</time>
      </trkpt>
      <trkpt lat="38.266336" lon="-1.566867">
        <ele>259.2</ele>
        <time>2013-12-06T12:34:03Z</time>
      </trkpt>
      <trkpt lat="38.266238" lon="-1.566443">
        <ele>259.2</ele>
        <time>2013-12-06T12:34:27Z</time>
      </trkpt>
      <trkpt lat="38.266162" lon="-1.566140">
        <ele>260.2</ele>
        <time>2013-12-06T12:34:45Z</time>
      </trkpt>
      <trkpt lat="38.266102" lon="-1.565886">
        <ele>262.1</ele>
        <time>2013-12-06T12:35:00Z</time>
      </trkpt>
      <trkpt lat="38.266015" lon="-1.565567">
        <ele>263.1</ele>
        <time>2013-12-06T12:35:18Z</time>
      </trkpt>
      <trkpt lat="38.265928" lon="-1.565324">
        <ele>264.0</ele>
        <time>2013-12-06T12:35:33Z</time>
      </trkpt>
      <trkpt lat="38.265817" lon="-1.565032">
        <ele>265.0</ele>
        <time>2013-12-06T12:35:51Z</time>
      </trkpt>
      <trkpt lat="38.265688" lon="-1.564735">
        <ele>266.9</ele>
        <time>2013-12-06T12:36:10Z</time>
      </trkpt>
      <trkpt lat="38.265546" lon="-1.564458">
        <ele>267.4</ele>
        <time>2013-12-06T12:36:29Z</time>
      </trkpt>
      <trkpt lat="38.265409" lon="-1.564176">
        <ele>267.4</ele>
        <time>2013-12-06T12:36:48Z</time>
      </trkpt>
      <trkpt lat="38.265282" lon="-1.563931">
        <ele>266.9</ele>
        <time>2013-12-06T12:37:05Z</time>
      </trkpt>
      <trkpt lat="38.265131" lon="-1.563641">
        <ele>266.4</ele>
        <time>2013-12-06T12:37:25Z</time>
      </trkpt>
      <trkpt lat="38.264973" lon="-1.563324">
        <ele>265.5</ele>
        <time>2013-12-06T12:37:47Z</time>
      </trkpt>
      <trkpt lat="38.264842" lon="-1.563019">
        <ele>265.0</ele>
        <time>2013-12-06T12:38:07Z</time>
      </trkpt>
      <trkpt lat="38.264708" lon="-1.562747">
        <ele>265.5</ele>
        <time>2013-12-06T12:38:25Z</time>
      </trkpt>
      <trkpt lat="38.264561" lon="-1.562459">
        <ele>265.9</ele>
        <time>2013-12-06T12:38:44Z</time>
      </trkpt>
      <trkpt lat="38.264369" lon="-1.562113">
        <ele>266.9</ele>
        <time>2013-12-06T12:39:06Z</time>
      </trkpt>
      <trkpt lat="38.264212" lon="-1.561796">
        <ele>267.9</ele>
        <time>2013-12-06T12:39:26Z</time>
      </trkpt>
      <trkpt lat="38.264064" lon="-1.561495">
        <ele>268.8</ele>
        <time>2013-12-06T12:39:46Z</time>
      </trkpt>
      <trkpt lat="38.263923" lon="-1.561231">
        <ele>268.8</ele>
        <time>2013-12-06T12:40:04Z</time>
      </trkpt>
      <trkpt lat="38.263732" lon="-1.560944">
        <ele>268.8</ele>
        <time>2013-12-06T12:40:25Z</time>
      </trkpt>
      <trkpt lat="38.263500" lon="-1.560625">
        <ele>268.8</ele>
        <time>2013-12-06T12:40:49Z</time>
      </trkpt>
      <trkpt lat="38.263425" lon="-1.560501">
        <ele>267.9</ele>
        <time>2013-12-06T12:40:58Z</time>
      </trkpt>
      <trkpt lat="38.263277" lon="-1.560262">
        <ele>267.9</ele>
        <time>2013-12-06T12:41:15Z</time>
      </trkpt>
      <trkpt lat="38.263099" lon="-1.559947">
        <ele>267.4</ele>
        <time>2013-12-06T12:41:37Z</time>
      </trkpt>
      <trkpt lat="38.263025" lon="-1.559780">
        <ele>266.4</ele>
        <time>2013-12-06T12:41:48Z</time>
      </trkpt>
      <trkpt lat="38.262885" lon="-1.559514">
        <ele>265.9</ele>
        <time>2013-12-06T12:42:06Z</time>
      </trkpt>
      <trkpt lat="38.262765" lon="-1.559204">
        <ele>265.9</ele>
        <time>2013-12-06T12:42:26Z</time>
      </trkpt>
      <trkpt lat="38.262681" lon="-1.558938">
        <ele>265.5</ele>
        <time>2013-12-06T12:42:43Z</time>
      </trkpt>
      <trkpt lat="38.262635" lon="-1.558892">
        <ele>265.0</ele>
        <time>2013-12-06T12:42:55Z</time>
      </trkpt>
      <trkpt lat="38.262637" lon="-1.558867">
        <ele>265.0</ele>
        <time>2013-12-06T12:42:59Z</time>
      </trkpt>
      <trkpt lat="38.262627" lon="-1.558805">
        <ele>265.0</ele>
        <time>2013-12-06T12:43:03Z</time>
      </trkpt>
      <trkpt lat="38.262523" lon="-1.558508">
        <ele>265.5</ele>
        <time>2013-12-06T12:43:21Z</time>
      </trkpt>
      <trkpt lat="38.262415" lon="-1.558176">
        <ele>265.5</ele>
        <time>2013-12-06T12:43:41Z</time>
      </trkpt>
      <trkpt lat="38.262336" lon="-1.557878">
        <ele>265.5</ele>
        <time>2013-12-06T12:43:59Z</time>
      </trkpt>
      <trkpt lat="38.262271" lon="-1.557535">
        <ele>266.4</ele>
        <time>2013-12-06T12:44:18Z</time>
      </trkpt>
      <trkpt lat="38.262208" lon="-1.557220">
        <ele>266.9</ele>
        <time>2013-12-06T12:44:36Z</time>
      </trkpt>
      <trkpt lat="38.262095" lon="-1.556893">
        <ele>266.9</ele>
        <time>2013-12-06T12:44:55Z</time>
      </trkpt>
      <trkpt lat="38.261966" lon="-1.556605">
        <ele>266.9</ele>
        <time>2013-12-06T12:45:14Z</time>
      </trkpt>
      <trkpt lat="38.261807" lon="-1.556290">
        <ele>265.9</ele>
        <time>2013-12-06T12:45:34Z</time>
      </trkpt>
      <trkpt lat="38.261627" lon="-1.556022">
        <ele>265.9</ele>
        <time>2013-12-06T12:45:53Z</time>
      </trkpt>
      <trkpt lat="38.261456" lon="-1.555799">
        <ele>265.9</ele>
        <time>2013-12-06T12:46:10Z</time>
      </trkpt>
      <trkpt lat="38.261254" lon="-1.555542">
        <ele>265.5</ele>
        <time>2013-12-06T12:46:30Z</time>
      </trkpt>
      <trkpt lat="38.261048" lon="-1.555241">
        <ele>264.0</ele>
        <time>2013-12-06T12:46:52Z</time>
      </trkpt>
      <trkpt lat="38.260874" lon="-1.554971">
        <ele>264.0</ele>
        <time>2013-12-06T12:47:11Z</time>
      </trkpt>
      <trkpt lat="38.260675" lon="-1.554663">
        <ele>263.1</ele>
        <time>2013-12-06T12:47:33Z</time>
      </trkpt>
      <trkpt lat="38.260505" lon="-1.554403">
        <ele>263.1</ele>
        <time>2013-12-06T12:47:53Z</time>
      </trkpt>
      <trkpt lat="38.260341" lon="-1.554145">
        <ele>262.6</ele>
        <time>2013-12-06T12:48:12Z</time>
      </trkpt>
      <trkpt lat="38.260180" lon="-1.553878">
        <ele>262.1</ele>
        <time>2013-12-06T12:48:31Z</time>
      </trkpt>
      <trkpt lat="38.259993" lon="-1.553563">
        <ele>261.1</ele>
        <time>2013-12-06T12:48:51Z</time>
      </trkpt>
      <trkpt lat="38.259833" lon="-1.553289">
        <ele>261.1</ele>
        <time>2013-12-06T12:49:11Z</time>
      </trkpt>
      <trkpt lat="38.259645" lon="-1.552913">
        <ele>260.2</ele>
        <time>2013-12-06T12:49:36Z</time>
      </trkpt>
      <trkpt lat="38.259512" lon="-1.552574">
        <ele>260.6</ele>
        <time>2013-12-06T12:49:58Z</time>
      </trkpt>
      <trkpt lat="38.259380" lon="-1.552257">
        <ele>259.7</ele>
        <time>2013-12-06T12:50:18Z</time>
      </trkpt>
      <trkpt lat="38.259209" lon="-1.551963">
        <ele>259.2</ele>
        <time>2013-12-06T12:50:38Z</time>
      </trkpt>
      <trkpt lat="38.259044" lon="-1.551661">
        <ele>259.2</ele>
        <time>2013-12-06T12:50:58Z</time>
      </trkpt>
      <trkpt lat="38.258873" lon="-1.551374">
        <ele>259.2</ele>
        <time>2013-12-06T12:51:18Z</time>
      </trkpt>
      <trkpt lat="38.258707" lon="-1.551084">
        <ele>258.2</ele>
        <time>2013-12-06T12:51:38Z</time>
      </trkpt>
      <trkpt lat="38.258499" lon="-1.550721">
        <ele>258.7</ele>
        <time>2013-12-06T12:52:02Z</time>
      </trkpt>
      <trkpt lat="38.258342" lon="-1.550423">
        <ele>258.7</ele>
        <time>2013-12-06T12:52:22Z</time>
      </trkpt>
      <trkpt lat="38.258183" lon="-1.550058">
        <ele>259.2</ele>
        <time>2013-12-06T12:52:45Z</time>
      </trkpt>
      <trkpt lat="38.258064" lon="-1.549749">
        <ele>259.2</ele>
        <time>2013-12-06T12:53:04Z</time>
      </trkpt>
      <trkpt lat="38.257937" lon="-1.549419">
        <ele>259.2</ele>
        <time>2013-12-06T12:53:24Z</time>
      </trkpt>
      <trkpt lat="38.257801" lon="-1.549060">
        <ele>259.2</ele>
        <time>2013-12-06T12:53:46Z</time>
      </trkpt>
      <trkpt lat="38.257658" lon="-1.548707">
        <ele>259.7</ele>
        <time>2013-12-06T12:54:08Z</time>
      </trkpt>
      <trkpt lat="38.257510" lon="-1.548373">
        <ele>259.7</ele>
        <time>2013-12-06T12:54:29Z</time>
      </trkpt>
      <trkpt lat="38.257305" lon="-1.548089">
        <ele>259.7</ele>
        <time>2013-12-06T12:54:50Z</time>
      </trkpt>
      <trkpt lat="38.257076" lon="-1.547861">
        <ele>259.7</ele>
        <time>2013-12-06T12:55:10Z</time>
      </trkpt>
      <trkpt lat="38.256823" lon="-1.547605">
        <ele>259.7</ele>
        <time>2013-12-06T12:55:33Z</time>
      </trkpt>
      <trkpt lat="38.256621" lon="-1.547380">
        <ele>260.2</ele>
        <time>2013-12-06T12:55:52Z</time>
      </trkpt>
      <trkpt lat="38.256414" lon="-1.547172">
        <ele>260.6</ele>
        <time>2013-12-06T12:56:11Z</time>
      </trkpt>
      <trkpt lat="38.256163" lon="-1.546914">
        <ele>260.2</ele>
        <time>2013-12-06T12:56:34Z</time>
      </trkpt>
      <trkpt lat="38.255957" lon="-1.546733">
        <ele>260.2</ele>
        <time>2013-12-06T12:56:52Z</time>
      </trkpt>
      <trkpt lat="38.255874" lon="-1.546720">
        <ele>260.2</ele>
        <time>2013-12-06T12:57:00Z</time>
      </trkpt>
      <trkpt lat="38.255823" lon="-1.546716">
        <ele>260.6</ele>
        <time>2013-12-06T12:57:04Z</time>
      </trkpt>
      <trkpt lat="38.255731" lon="-1.546743">
        <ele>260.2</ele>
        <time>2013-12-06T12:57:19Z</time>
      </trkpt>
      <trkpt lat="38.255733" lon="-1.546755">
        <ele>260.6</ele>
        <time>2013-12-06T12:57:42Z</time>
      </trkpt>
      <trkpt lat="38.255746" lon="-1.546743">
        <ele>260.6</ele>
        <time>2013-12-06T12:58:02Z</time>
      </trkpt>
      <trkpt lat="38.255737" lon="-1.546741">
        <ele>260.2</ele>
        <time>2013-12-06T12:58:20Z</time>
      </trkpt>
      <trkpt lat="38.255719" lon="-1.546747">
        <ele>260.2</ele>
        <time>2013-12-06T12:58:33Z</time>
      </trkpt>
      <trkpt lat="38.255701" lon="-1.546761">
        <ele>259.7</ele>
        <time>2013-12-06T12:58:53Z</time>
      </trkpt>
      <trkpt lat="38.255676" lon="-1.546773">
        <ele>260.2</ele>
        <time>2013-12-06T12:58:57Z</time>
      </trkpt>
      <trkpt lat="38.255647" lon="-1.546811">
        <ele>259.7</ele>
        <time>2013-12-06T12:59:01Z</time>
      </trkpt>
      <trkpt lat="38.255515" lon="-1.547051">
        <ele>259.7</ele>
        <time>2013-12-06T12:59:19Z</time>
      </trkpt>
      <trkpt lat="38.255407" lon="-1.547282">
        <ele>258.2</ele>
        <time>2013-12-06T12:59:36Z</time>
      </trkpt>
      <trkpt lat="38.255340" lon="-1.547458">
        <ele>258.2</ele>
        <time>2013-12-06T12:59:52Z</time>
      </trkpt>
      <trkpt lat="38.255288" lon="-1.547587">
        <ele>258.2</ele>
        <time>2013-12-06T13:00:03Z</time>
      </trkpt>
      <trkpt lat="38.255149" lon="-1.547778">
        <ele>257.8</ele>
        <time>2013-12-06T13:00:20Z</time>
      </trkpt>
      <trkpt lat="38.255075" lon="-1.547996">
        <ele>258.7</ele>
        <time>2013-12-06T13:00:36Z</time>
      </trkpt>
      <trkpt lat="38.254933" lon="-1.548227">
        <ele>259.2</ele>
        <time>2013-12-06T13:00:52Z</time>
      </trkpt>
      <trkpt lat="38.254803" lon="-1.548476">
        <ele>260.2</ele>
        <time>2013-12-06T13:01:10Z</time>
      </trkpt>
      <trkpt lat="38.254713" lon="-1.548713">
        <ele>261.6</ele>
        <time>2013-12-06T13:01:27Z</time>
      </trkpt>
      <trkpt lat="38.254542" lon="-1.548984">
        <ele>262.6</ele>
        <time>2013-12-06T13:01:47Z</time>
      </trkpt>
      <trkpt lat="38.254413" lon="-1.549205">
        <ele>264.0</ele>
        <time>2013-12-06T13:02:03Z</time>
      </trkpt>
      <trkpt lat="38.254344" lon="-1.549367">
        <ele>264.5</ele>
        <time>2013-12-06T13:02:15Z</time>
      </trkpt>
      <trkpt lat="38.254246" lon="-1.549546">
        <ele>262.1</ele>
        <time>2013-12-06T13:02:28Z</time>
      </trkpt>
      <trkpt lat="38.254240" lon="-1.549560">
        <ele>265.9</ele>
        <time>2013-12-06T13:02:29Z</time>
      </trkpt>
      <trkpt lat="38.254148" lon="-1.549737">
        <ele>265.9</ele>
        <time>2013-12-06T13:02:43Z</time>
      </trkpt>
      <trkpt lat="38.253970" lon="-1.549971">
        <ele>267.9</ele>
        <time>2013-12-06T13:03:04Z</time>
      </trkpt>
      <trkpt lat="38.253767" lon="-1.550204">
        <ele>268.4</ele>
        <time>2013-12-06T13:03:23Z</time>
      </trkpt>
      <trkpt lat="38.253565" lon="-1.550380">
        <ele>268.4</ele>
        <time>2013-12-06T13:03:40Z</time>
      </trkpt>
      <trkpt lat="38.253520" lon="-1.550455">
        <ele>268.8</ele>
        <time>2013-12-06T13:03:52Z</time>
      </trkpt>
      <trkpt lat="38.253499" lon="-1.550469">
        <ele>268.4</ele>
        <time>2013-12-06T13:04:05Z</time>
      </trkpt>
      <trkpt lat="38.253453" lon="-1.550497">
        <ele>268.4</ele>
        <time>2013-12-06T13:04:14Z</time>
      </trkpt>
      <trkpt lat="38.253434" lon="-1.550510">
        <ele>268.4</ele>
        <time>2013-12-06T13:04:16Z</time>
      </trkpt>
      <trkpt lat="38.253205" lon="-1.550678">
        <ele>266.9</ele>
        <time>2013-12-06T13:04:37Z</time>
      </trkpt>
      <trkpt lat="38.253016" lon="-1.550881">
        <ele>265.9</ele>
        <time>2013-12-06T13:04:56Z</time>
      </trkpt>
      <trkpt lat="38.252894" lon="-1.551114">
        <ele>265.5</ele>
        <time>2013-12-06T13:05:14Z</time>
      </trkpt>
      <trkpt lat="38.252775" lon="-1.551413">
        <ele>263.5</ele>
        <time>2013-12-06T13:05:33Z</time>
      </trkpt>
      <trkpt lat="38.252653" lon="-1.551718">
        <ele>263.1</ele>
        <time>2013-12-06T13:05:53Z</time>
      </trkpt>
      <trkpt lat="38.252510" lon="-1.552084">
        <ele>261.6</ele>
        <time>2013-12-06T13:06:15Z</time>
      </trkpt>
      <trkpt lat="38.252452" lon="-1.552212">
        <ele>260.6</ele>
        <time>2013-12-06T13:06:24Z</time>
      </trkpt>
      <trkpt lat="38.252429" lon="-1.552278">
        <ele>260.6</ele>
        <time>2013-12-06T13:06:28Z</time>
      </trkpt>
      <trkpt lat="38.252287" lon="-1.552669">
        <ele>259.2</ele>
        <time>2013-12-06T13:06:51Z</time>
      </trkpt>
      <trkpt lat="38.252173" lon="-1.552940">
        <ele>257.8</ele>
        <time>2013-12-06T13:07:11Z</time>
      </trkpt>
      <trkpt lat="38.252044" lon="-1.553245">
        <ele>255.9</ele>
        <time>2013-12-06T13:07:31Z</time>
      </trkpt>
      <trkpt lat="38.252038" lon="-1.553258">
        <ele>255.9</ele>
        <time>2013-12-06T13:07:32Z</time>
      </trkpt>
      <trkpt lat="38.251902" lon="-1.553473">
        <ele>254.9</ele>
        <time>2013-12-06T13:07:49Z</time>
      </trkpt>
      <trkpt lat="38.251675" lon="-1.553672">
        <ele>253.4</ele>
        <time>2013-12-06T13:08:09Z</time>
      </trkpt>
      <trkpt lat="38.251492" lon="-1.553827">
        <ele>252.0</ele>
        <time>2013-12-06T13:08:25Z</time>
      </trkpt>
      <trkpt lat="38.251267" lon="-1.554030">
        <ele>250.1</ele>
        <time>2013-12-06T13:08:46Z</time>
      </trkpt>
      <trkpt lat="38.251069" lon="-1.554196">
        <ele>249.1</ele>
        <time>2013-12-06T13:09:04Z</time>
      </trkpt>
      <trkpt lat="38.250813" lon="-1.554420">
        <ele>248.2</ele>
        <time>2013-12-06T13:09:27Z</time>
      </trkpt>
      <trkpt lat="38.250586" lon="-1.554634">
        <ele>247.7</ele>
        <time>2013-12-06T13:09:47Z</time>
      </trkpt>
      <trkpt lat="38.250375" lon="-1.554854">
        <ele>246.7</ele>
        <time>2013-12-06T13:10:07Z</time>
      </trkpt>
      <trkpt lat="38.250212" lon="-1.555011">
        <ele>245.3</ele>
        <time>2013-12-06T13:10:22Z</time>
      </trkpt>
      <trkpt lat="38.250051" lon="-1.555123">
        <ele>245.8</ele>
        <time>2013-12-06T13:10:37Z</time>
      </trkpt>
      <trkpt lat="38.249859" lon="-1.555293">
        <ele>245.3</ele>
        <time>2013-12-06T13:10:55Z</time>
      </trkpt>
      <trkpt lat="38.249616" lon="-1.555385">
        <ele>244.3</ele>
        <time>2013-12-06T13:11:16Z</time>
      </trkpt>
      <trkpt lat="38.249353" lon="-1.555337">
        <ele>242.9</ele>
        <time>2013-12-06T13:11:36Z</time>
      </trkpt>
      <trkpt lat="38.249118" lon="-1.555325">
        <ele>240.9</ele>
        <time>2013-12-06T13:11:55Z</time>
      </trkpt>
      <trkpt lat="38.248869" lon="-1.555288">
        <ele>240.0</ele>
        <time>2013-12-06T13:12:14Z</time>
      </trkpt>
      <trkpt lat="38.248605" lon="-1.555273">
        <ele>238.1</ele>
        <time>2013-12-06T13:12:34Z</time>
      </trkpt>
      <trkpt lat="38.248354" lon="-1.555241">
        <ele>236.6</ele>
        <time>2013-12-06T13:12:54Z</time>
      </trkpt>
      <trkpt lat="38.248109" lon="-1.555220">
        <ele>235.2</ele>
        <time>2013-12-06T13:13:13Z</time>
      </trkpt>
      <trkpt lat="38.247822" lon="-1.555184">
        <ele>233.3</ele>
        <time>2013-12-06T13:13:36Z</time>
      </trkpt>
      <trkpt lat="38.247569" lon="-1.555160">
        <ele>231.8</ele>
        <time>2013-12-06T13:13:55Z</time>
      </trkpt>
      <trkpt lat="38.247304" lon="-1.555140">
        <ele>229.9</ele>
        <time>2013-12-06T13:14:15Z</time>
      </trkpt>
      <trkpt lat="38.247035" lon="-1.555101">
        <ele>228.4</ele>
        <time>2013-12-06T13:14:35Z</time>
      </trkpt>
      <trkpt lat="38.246780" lon="-1.555068">
        <ele>228.4</ele>
        <time>2013-12-06T13:14:54Z</time>
      </trkpt>
      <trkpt lat="38.246745" lon="-1.555067">
        <ele>228.4</ele>
        <time>2013-12-06T13:14:57Z</time>
      </trkpt>
      <trkpt lat="38.246518" lon="-1.555042">
        <ele>227.5</ele>
        <time>2013-12-06T13:15:14Z</time>
      </trkpt>
      <trkpt lat="38.246306" lon="-1.555147">
        <ele>228.9</ele>
        <time>2013-12-06T13:15:30Z</time>
      </trkpt>
      <trkpt lat="38.246157" lon="-1.555364">
        <ele>229.9</ele>
        <time>2013-12-06T13:15:46Z</time>
      </trkpt>
      <trkpt lat="38.246060" lon="-1.555622">
        <ele>229.9</ele>
        <time>2013-12-06T13:16:03Z</time>
      </trkpt>
      <trkpt lat="38.246084" lon="-1.555958">
        <ele>228.0</ele>
        <time>2013-12-06T13:16:21Z</time>
      </trkpt>
      <trkpt lat="38.246164" lon="-1.556182">
        <ele>227.0</ele>
        <time>2013-12-06T13:16:38Z</time>
      </trkpt>
      <trkpt lat="38.246181" lon="-1.556195">
        <ele>227.0</ele>
        <time>2013-12-06T13:16:57Z</time>
      </trkpt>
      <trkpt lat="38.246185" lon="-1.556176">
        <ele>226.5</ele>
        <time>2013-12-06T13:17:16Z</time>
      </trkpt>
      <trkpt lat="38.246174" lon="-1.556165">
        <ele>227.0</ele>
        <time>2013-12-06T13:17:36Z</time>
      </trkpt>
      <trkpt lat="38.246150" lon="-1.556168">
        <ele>227.0</ele>
        <time>2013-12-06T13:17:56Z</time>
      </trkpt>
      <trkpt lat="38.246148" lon="-1.556159">
        <ele>227.0</ele>
        <time>2013-12-06T13:18:02Z</time>
      </trkpt>
      <trkpt lat="38.246145" lon="-1.556148">
        <ele>226.1</ele>
        <time>2013-12-06T13:18:13Z</time>
      </trkpt>
      <trkpt lat="38.246143" lon="-1.556149">
        <ele>226.1</ele>
        <time>2013-12-06T13:18:35Z</time>
      </trkpt>
      <trkpt lat="38.246139" lon="-1.556153">
        <ele>225.6</ele>
        <time>2013-12-06T13:18:50Z</time>
      </trkpt>
      <trkpt lat="38.246143" lon="-1.556141">
        <ele>226.1</ele>
        <time>2013-12-06T13:18:57Z</time>
      </trkpt>
      <trkpt lat="38.246148" lon="-1.556146">
        <ele>227.5</ele>
        <time>2013-12-06T13:19:04Z</time>
      </trkpt>
      <trkpt lat="38.246136" lon="-1.556146">
        <ele>227.0</ele>
        <time>2013-12-06T13:19:07Z</time>
      </trkpt>
      <trkpt lat="38.246243" lon="-1.556408">
        <ele>225.6</ele>
        <time>2013-12-06T13:19:24Z</time>
      </trkpt>
      <trkpt lat="38.246288" lon="-1.556512">
        <ele>224.6</ele>
        <time>2013-12-06T13:19:31Z</time>
      </trkpt>
      <trkpt lat="38.246441" lon="-1.556860">
        <ele>222.2</ele>
        <time>2013-12-06T13:19:53Z</time>
      </trkpt>
      <trkpt lat="38.246525" lon="-1.557143">
        <ele>219.3</ele>
        <time>2013-12-06T13:20:11Z</time>
      </trkpt>
      <trkpt lat="38.246515" lon="-1.557171">
        <ele>219.3</ele>
        <time>2013-12-06T13:20:13Z</time>
      </trkpt>
      <trkpt lat="38.246346" lon="-1.557359">
        <ele>217.4</ele>
        <time>2013-12-06T13:20:30Z</time>
      </trkpt>
      <trkpt lat="38.246099" lon="-1.557575">
        <ele>215.5</ele>
        <time>2013-12-06T13:20:50Z</time>
      </trkpt>
      <trkpt lat="38.245851" lon="-1.557804">
        <ele>214.5</ele>
        <time>2013-12-06T13:21:11Z</time>
      </trkpt>
      <trkpt lat="38.245663" lon="-1.558004">
        <ele>214.0</ele>
        <time>2013-12-06T13:21:30Z</time>
      </trkpt>
      <trkpt lat="38.245511" lon="-1.558166">
        <ele>215.0</ele>
        <time>2013-12-06T13:21:44Z</time>
      </trkpt>
      <trkpt lat="38.245458" lon="-1.558190">
        <ele>215.9</ele>
        <time>2013-12-06T13:21:50Z</time>
      </trkpt>
      <trkpt lat="38.245406" lon="-1.558233">
        <ele>216.9</ele>
        <time>2013-12-06T13:21:55Z</time>
      </trkpt>
      <trkpt lat="38.245372" lon="-1.558265">
        <ele>217.4</ele>
        <time>2013-12-06T13:21:58Z</time>
      </trkpt>
      <trkpt lat="38.245341" lon="-1.558305">
        <ele>217.9</ele>
        <time>2013-12-06T13:22:02Z</time>
      </trkpt>
      <trkpt lat="38.245203" lon="-1.558435">
        <ele>220.3</ele>
        <time>2013-12-06T13:22:15Z</time>
      </trkpt>
      <trkpt lat="38.245166" lon="-1.558474">
        <ele>221.2</ele>
        <time>2013-12-06T13:22:19Z</time>
      </trkpt>
      <trkpt lat="38.245029" lon="-1.558615">
        <ele>223.6</ele>
        <time>2013-12-06T13:22:33Z</time>
      </trkpt>
      <trkpt lat="38.245005" lon="-1.558649">
        <ele>224.6</ele>
        <time>2013-12-06T13:22:36Z</time>
      </trkpt>
      <trkpt lat="38.244888" lon="-1.558780">
        <ele>226.5</ele>
        <time>2013-12-06T13:22:49Z</time>
      </trkpt>
      <trkpt lat="38.244777" lon="-1.558903">
        <ele>228.4</ele>
        <time>2013-12-06T13:23:02Z</time>
      </trkpt>
      <trkpt lat="38.244724" lon="-1.558992">
        <ele>229.4</ele>
        <time>2013-12-06T13:23:10Z</time>
      </trkpt>
      <trkpt lat="38.244699" lon="-1.558995">
        <ele>229.4</ele>
        <time>2013-12-06T13:23:14Z</time>
      </trkpt>
      <trkpt lat="38.244609" lon="-1.559081">
        <ele>230.9</ele>
        <time>2013-12-06T13:23:25Z</time>
      </trkpt>
      <trkpt lat="38.244487" lon="-1.559261">
        <ele>232.3</ele>
        <time>2013-12-06T13:23:38Z</time>
      </trkpt>
      <trkpt lat="38.244343" lon="-1.559483">
        <ele>233.3</ele>
        <time>2013-12-06T13:23:54Z</time>
      </trkpt>
      <trkpt lat="38.244257" lon="-1.559740">
        <ele>234.2</ele>
        <time>2013-12-06T13:24:12Z</time>
      </trkpt>
      <trkpt lat="38.244251" lon="-1.559932">
        <ele>233.7</ele>
        <time>2013-12-06T13:24:24Z</time>
      </trkpt>
      <trkpt lat="38.244262" lon="-1.560254">
        <ele>232.8</ele>
        <time>2013-12-06T13:24:44Z</time>
      </trkpt>
      <trkpt lat="38.244252" lon="-1.560548">
        <ele>232.8</ele>
        <time>2013-12-06T13:25:02Z</time>
      </trkpt>
      <trkpt lat="38.244245" lon="-1.560652">
        <ele>233.3</ele>
        <time>2013-12-06T13:25:09Z</time>
      </trkpt>
      <trkpt lat="38.244247" lon="-1.560680">
        <ele>232.8</ele>
        <time>2013-12-06T13:25:13Z</time>
      </trkpt>
      <trkpt lat="38.244246" lon="-1.560700">
        <ele>232.8</ele>
        <time>2013-12-06T13:25:15Z</time>
      </trkpt>
      <trkpt lat="38.244252" lon="-1.560779">
        <ele>232.8</ele>
        <time>2013-12-06T13:25:20Z</time>
      </trkpt>
      <trkpt lat="38.244270" lon="-1.561169">
        <ele>233.7</ele>
        <time>2013-12-06T13:25:41Z</time>
      </trkpt>
      <trkpt lat="38.244288" lon="-1.561567">
        <ele>234.7</ele>
        <time>2013-12-06T13:26:00Z</time>
      </trkpt>
      <trkpt lat="38.244296" lon="-1.561620">
        <ele>235.2</ele>
        <time>2013-12-06T13:26:05Z</time>
      </trkpt>
      <trkpt lat="38.244283" lon="-1.561980">
        <ele>237.1</ele>
        <time>2013-12-06T13:26:25Z</time>
      </trkpt>
      <trkpt lat="38.244283" lon="-1.562212">
        <ele>238.5</ele>
        <time>2013-12-06T13:26:39Z</time>
      </trkpt>
      <trkpt lat="38.244280" lon="-1.562310">
        <ele>238.5</ele>
        <time>2013-12-06T13:26:45Z</time>
      </trkpt>
      <trkpt lat="38.244285" lon="-1.562367">
        <ele>239.5</ele>
        <time>2013-12-06T13:26:49Z</time>
      </trkpt>
      <trkpt lat="38.244285" lon="-1.562452">
        <ele>240.0</ele>
        <time>2013-12-06T13:26:55Z</time>
      </trkpt>
      <trkpt lat="38.244283" lon="-1.562508">
        <ele>240.5</ele>
        <time>2013-12-06T13:26:59Z</time>
      </trkpt>
      <trkpt lat="38.244280" lon="-1.562681">
        <ele>242.4</ele>
        <time>2013-12-06T13:27:11Z</time>
      </trkpt>
      <trkpt lat="38.244287" lon="-1.562741">
        <ele>242.9</ele>
        <time>2013-12-06T13:27:15Z</time>
      </trkpt>
      <trkpt lat="38.244290" lon="-1.562799">
        <ele>243.8</ele>
        <time>2013-12-06T13:27:20Z</time>
      </trkpt>
      <trkpt lat="38.244294" lon="-1.562851">
        <ele>243.8</ele>
        <time>2013-12-06T13:27:24Z</time>
      </trkpt>
      <trkpt lat="38.244301" lon="-1.562991">
        <ele>245.3</ele>
        <time>2013-12-06T13:27:35Z</time>
      </trkpt>
      <trkpt lat="38.244302" lon="-1.563050">
        <ele>246.2</ele>
        <time>2013-12-06T13:27:39Z</time>
      </trkpt>
      <trkpt lat="38.244303" lon="-1.563077">
        <ele>246.7</ele>
        <time>2013-12-06T13:27:41Z</time>
      </trkpt>
      <trkpt lat="38.244299" lon="-1.563106">
        <ele>246.7</ele>
        <time>2013-12-06T13:27:43Z</time>
      </trkpt>
      <trkpt lat="38.244301" lon="-1.563134">
        <ele>246.7</ele>
        <time>2013-12-06T13:27:45Z</time>
      </trkpt>
      <trkpt lat="38.244301" lon="-1.563188">
        <ele>247.2</ele>
        <time>2013-12-06T13:27:49Z</time>
      </trkpt>
      <trkpt lat="38.244299" lon="-1.563211">
        <ele>248.2</ele>
        <time>2013-12-06T13:27:51Z</time>
      </trkpt>
      <trkpt lat="38.244304" lon="-1.563265">
        <ele>248.2</ele>
        <time>2013-12-06T13:27:55Z</time>
      </trkpt>
      <trkpt lat="38.244308" lon="-1.563316">
        <ele>248.6</ele>
        <time>2013-12-06T13:27:59Z</time>
      </trkpt>
      <trkpt lat="38.244309" lon="-1.563488">
        <ele>250.6</ele>
        <time>2013-12-06T13:28:11Z</time>
      </trkpt>
      <trkpt lat="38.244305" lon="-1.563643">
        <ele>251.5</ele>
        <time>2013-12-06T13:28:22Z</time>
      </trkpt>
      <trkpt lat="38.244314" lon="-1.563738">
        <ele>252.0</ele>
        <time>2013-12-06T13:28:29Z</time>
      </trkpt>
      <trkpt lat="38.244310" lon="-1.563816">
        <ele>253.4</ele>
        <time>2013-12-06T13:28:35Z</time>
      </trkpt>
      <trkpt lat="38.244307" lon="-1.563944">
        <ele>254.4</ele>
        <time>2013-12-06T13:28:44Z</time>
      </trkpt>
      <trkpt lat="38.244306" lon="-1.564022">
        <ele>254.4</ele>
        <time>2013-12-06T13:28:49Z</time>
      </trkpt>
      <trkpt lat="38.244316" lon="-1.564188">
        <ele>256.3</ele>
        <time>2013-12-06T13:28:59Z</time>
      </trkpt>
      <trkpt lat="38.244321" lon="-1.564282">
        <ele>256.3</ele>
        <time>2013-12-06T13:29:05Z</time>
      </trkpt>
      <trkpt lat="38.244316" lon="-1.564360">
        <ele>257.3</ele>
        <time>2013-12-06T13:29:10Z</time>
      </trkpt>
      <trkpt lat="38.244320" lon="-1.564636">
        <ele>258.2</ele>
        <time>2013-12-06T13:29:27Z</time>
      </trkpt>
      <trkpt lat="38.244318" lon="-1.564737">
        <ele>259.2</ele>
        <time>2013-12-06T13:29:34Z</time>
      </trkpt>
      <trkpt lat="38.244319" lon="-1.564795">
        <ele>259.7</ele>
        <time>2013-12-06T13:29:38Z</time>
      </trkpt>
      <trkpt lat="38.244316" lon="-1.564836">
        <ele>259.7</ele>
        <time>2013-12-06T13:29:43Z</time>
      </trkpt>
      <trkpt lat="38.244317" lon="-1.564913">
        <ele>260.2</ele>
        <time>2013-12-06T13:29:48Z</time>
      </trkpt>
      <trkpt lat="38.244312" lon="-1.564944">
        <ele>259.7</ele>
        <time>2013-12-06T13:29:50Z</time>
      </trkpt>
      <trkpt lat="38.244311" lon="-1.565160">
        <ele>261.1</ele>
        <time>2013-12-06T13:30:04Z</time>
      </trkpt>
      <trkpt lat="38.244314" lon="-1.565414">
        <ele>262.6</ele>
        <time>2013-12-06T13:30:20Z</time>
      </trkpt>
      <trkpt lat="38.244306" lon="-1.565618">
        <ele>263.5</ele>
        <time>2013-12-06T13:30:33Z</time>
      </trkpt>
      <trkpt lat="38.244301" lon="-1.565644">
        <ele>263.5</ele>
        <time>2013-12-06T13:30:35Z</time>
      </trkpt>
      <trkpt lat="38.244313" lon="-1.565746">
        <ele>264.5</ele>
        <time>2013-12-06T13:30:41Z</time>
      </trkpt>
      <trkpt lat="38.244331" lon="-1.565998">
        <ele>264.5</ele>
        <time>2013-12-06T13:30:56Z</time>
      </trkpt>
      <trkpt lat="38.244327" lon="-1.566027">
        <ele>265.5</ele>
        <time>2013-12-06T13:30:58Z</time>
      </trkpt>
      <trkpt lat="38.244323" lon="-1.566041">
        <ele>266.4</ele>
        <time>2013-12-06T13:31:01Z</time>
      </trkpt>
      <trkpt lat="38.244308" lon="-1.566308">
        <ele>266.9</ele>
        <time>2013-12-06T13:31:18Z</time>
      </trkpt>
      <trkpt lat="38.244232" lon="-1.566325">
        <ele>266.9</ele>
        <time>2013-12-06T13:31:24Z</time>
      </trkpt>
      <trkpt lat="38.244194" lon="-1.566354">
        <ele>267.4</ele>
        <time>2013-12-06T13:31:27Z</time>
      </trkpt>
      <trkpt lat="38.244142" lon="-1.566381">
        <ele>268.4</ele>
        <time>2013-12-06T13:31:31Z</time>
      </trkpt>
      <trkpt lat="38.243967" lon="-1.566539">
        <ele>270.3</ele>
        <time>2013-12-06T13:31:46Z</time>
      </trkpt>
      <trkpt lat="38.243835" lon="-1.566692">
        <ele>271.7</ele>
        <time>2013-12-06T13:31:58Z</time>
      </trkpt>
      <trkpt lat="38.243670" lon="-1.566906">
        <ele>272.2</ele>
        <time>2013-12-06T13:32:14Z</time>
      </trkpt>
      <trkpt lat="38.243641" lon="-1.566937">
        <ele>273.1</ele>
        <time>2013-12-06T13:32:17Z</time>
      </trkpt>
      <trkpt lat="38.243591" lon="-1.566966">
        <ele>274.6</ele>
        <time>2013-12-06T13:32:21Z</time>
      </trkpt>
      <trkpt lat="38.243382" lon="-1.567000">
        <ele>274.6</ele>
        <time>2013-12-06T13:32:36Z</time>
      </trkpt>
      <trkpt lat="38.243219" lon="-1.567040">
        <ele>276.5</ele>
        <time>2013-12-06T13:32:48Z</time>
      </trkpt>
      <trkpt lat="38.243127" lon="-1.567053">
        <ele>277.0</ele>
        <time>2013-12-06T13:32:59Z</time>
      </trkpt>
      <trkpt lat="38.243076" lon="-1.567072">
        <ele>277.5</ele>
        <time>2013-12-06T13:33:13Z</time>
      </trkpt>
      <trkpt lat="38.243038" lon="-1.567072">
        <ele>277.5</ele>
        <time>2013-12-06T13:33:16Z</time>
      </trkpt>
      <trkpt lat="38.242819" lon="-1.567107">
        <ele>278.9</ele>
        <time>2013-12-06T13:33:32Z</time>
      </trkpt>
      <trkpt lat="38.242740" lon="-1.567094">
        <ele>278.4</ele>
        <time>2013-12-06T13:34:23Z</time>
      </trkpt>
      <trkpt lat="38.242675" lon="-1.567049">
        <ele>279.9</ele>
        <time>2013-12-06T13:34:29Z</time>
      </trkpt>
      <trkpt lat="38.242543" lon="-1.567011">
        <ele>279.4</ele>
        <time>2013-12-06T13:34:41Z</time>
      </trkpt>
      <trkpt lat="38.242500" lon="-1.566996">
        <ele>279.4</ele>
        <time>2013-12-06T13:34:45Z</time>
      </trkpt>
      <trkpt lat="38.242415" lon="-1.566964">
        <ele>279.4</ele>
        <time>2013-12-06T13:34:53Z</time>
      </trkpt>
      <trkpt lat="38.242400" lon="-1.566947">
        <ele>279.4</ele>
        <time>2013-12-06T13:34:55Z</time>
      </trkpt>
      <trkpt lat="38.242363" lon="-1.566922">
        <ele>278.9</ele>
        <time>2013-12-06T13:35:12Z</time>
      </trkpt>
      <trkpt lat="38.242266" lon="-1.566838">
        <ele>279.9</ele>
        <time>2013-12-06T13:35:29Z</time>
      </trkpt>
      <trkpt lat="38.242225" lon="-1.566740">
        <ele>280.8</ele>
        <time>2013-12-06T13:35:36Z</time>
      </trkpt>
      <trkpt lat="38.242162" lon="-1.566651">
        <ele>281.3</ele>
        <time>2013-12-06T13:35:51Z</time>
      </trkpt>
      <trkpt lat="38.242064" lon="-1.566485">
        <ele>280.4</ele>
        <time>2013-12-06T13:36:06Z</time>
      </trkpt>
      <trkpt lat="38.241946" lon="-1.566242">
        <ele>278.0</ele>
        <time>2013-12-06T13:36:23Z</time>
      </trkpt>
      <trkpt lat="38.241931" lon="-1.566201">
        <ele>278.0</ele>
        <time>2013-12-06T13:36:26Z</time>
      </trkpt>
      <trkpt lat="38.241917" lon="-1.566102">
        <ele>276.5</ele>
        <time>2013-12-06T13:36:33Z</time>
      </trkpt>
      <trkpt lat="38.241908" lon="-1.566078">
        <ele>277.0</ele>
        <time>2013-12-06T13:36:45Z</time>
      </trkpt>
      <trkpt lat="38.241804" lon="-1.565827">
        <ele>274.1</ele>
        <time>2013-12-06T13:37:00Z</time>
      </trkpt>
      <trkpt lat="38.241714" lon="-1.565527">
        <ele>273.1</ele>
        <time>2013-12-06T13:37:18Z</time>
      </trkpt>
      <trkpt lat="38.241700" lon="-1.565259">
        <ele>271.2</ele>
        <time>2013-12-06T13:37:34Z</time>
      </trkpt>
      <trkpt lat="38.241702" lon="-1.565137">
        <ele>270.3</ele>
        <time>2013-12-06T13:37:53Z</time>
      </trkpt>
      <trkpt lat="38.241703" lon="-1.565140">
        <ele>270.3</ele>
        <time>2013-12-06T13:38:08Z</time>
      </trkpt>
      <trkpt lat="38.241632" lon="-1.564877">
        <ele>268.8</ele>
        <time>2013-12-06T13:38:24Z</time>
      </trkpt>
      <trkpt lat="38.241589" lon="-1.564586">
        <ele>267.4</ele>
        <time>2013-12-06T13:38:42Z</time>
      </trkpt>
      <trkpt lat="38.241589" lon="-1.564572">
        <ele>266.9</ele>
        <time>2013-12-06T13:38:43Z</time>
      </trkpt>
      <trkpt lat="38.241637" lon="-1.564313">
        <ele>267.4</ele>
        <time>2013-12-06T13:39:00Z</time>
      </trkpt>
      <trkpt lat="38.241572" lon="-1.564045">
        <ele>265.5</ele>
        <time>2013-12-06T13:39:17Z</time>
      </trkpt>
      <trkpt lat="38.241531" lon="-1.563957">
        <ele>265.0</ele>
        <time>2013-12-06T13:39:24Z</time>
      </trkpt>
      <trkpt lat="38.241448" lon="-1.563781">
        <ele>263.5</ele>
        <time>2013-12-06T13:39:40Z</time>
      </trkpt>
      <trkpt lat="38.241403" lon="-1.563701">
        <ele>262.6</ele>
        <time>2013-12-06T13:39:54Z</time>
      </trkpt>
      <trkpt lat="38.241380" lon="-1.563657">
        <ele>263.1</ele>
        <time>2013-12-06T13:40:20Z</time>
      </trkpt>
      <trkpt lat="38.241362" lon="-1.563624">
        <ele>262.6</ele>
        <time>2013-12-06T13:41:26Z</time>
      </trkpt>
      <trkpt lat="38.241248" lon="-1.563474">
        <ele>262.6</ele>
        <time>2013-12-06T13:41:39Z</time>
      </trkpt>
      <trkpt lat="38.241032" lon="-1.563257">
        <ele>262.1</ele>
        <time>2013-12-06T13:41:57Z</time>
      </trkpt>
      <trkpt lat="38.240865" lon="-1.563033">
        <ele>260.6</ele>
        <time>2013-12-06T13:42:13Z</time>
      </trkpt>
      <trkpt lat="38.240737" lon="-1.562766">
        <ele>260.2</ele>
        <time>2013-12-06T13:42:29Z</time>
      </trkpt>
      <trkpt lat="38.240634" lon="-1.562505">
        <ele>259.2</ele>
        <time>2013-12-06T13:42:45Z</time>
      </trkpt>
      <trkpt lat="38.240544" lon="-1.562269">
        <ele>258.2</ele>
        <time>2013-12-06T13:42:59Z</time>
      </trkpt>
      <trkpt lat="38.240436" lon="-1.561992">
        <ele>255.4</ele>
        <time>2013-12-06T13:43:15Z</time>
      </trkpt>
      <trkpt lat="38.240393" lon="-1.561782">
        <ele>254.4</ele>
        <time>2013-12-06T13:43:25Z</time>
      </trkpt>
      <trkpt lat="38.240228" lon="-1.561531">
        <ele>253.4</ele>
        <time>2013-12-06T13:43:43Z</time>
      </trkpt>
      <trkpt lat="38.240070" lon="-1.561323">
        <ele>250.6</ele>
        <time>2013-12-06T13:43:59Z</time>
      </trkpt>
      <trkpt lat="38.239873" lon="-1.561056">
        <ele>249.1</ele>
        <time>2013-12-06T13:44:18Z</time>
      </trkpt>
      <trkpt lat="38.239713" lon="-1.560785">
        <ele>246.2</ele>
        <time>2013-12-06T13:44:36Z</time>
      </trkpt>
      <trkpt lat="38.239646" lon="-1.560533">
        <ele>244.3</ele>
        <time>2013-12-06T13:44:51Z</time>
      </trkpt>
      <trkpt lat="38.239562" lon="-1.560384">
        <ele>242.4</ele>
        <time>2013-12-06T13:45:02Z</time>
      </trkpt>
      <trkpt lat="38.239543" lon="-1.560315">
        <ele>241.9</ele>
        <time>2013-12-06T13:45:06Z</time>
      </trkpt>
      <trkpt lat="38.239415" lon="-1.560054">
        <ele>240.5</ele>
        <time>2013-12-06T13:45:23Z</time>
      </trkpt>
      <trkpt lat="38.239336" lon="-1.559794">
        <ele>237.6</ele>
        <time>2013-12-06T13:45:40Z</time>
      </trkpt>
      <trkpt lat="38.239333" lon="-1.559778">
        <ele>237.6</ele>
        <time>2013-12-06T13:45:41Z</time>
      </trkpt>
      <trkpt lat="38.239178" lon="-1.559362">
        <ele>233.3</ele>
        <time>2013-12-06T13:46:11Z</time>
      </trkpt>
      <trkpt lat="38.239044" lon="-1.559094">
        <ele>233.7</ele>
        <time>2013-12-06T13:46:29Z</time>
      </trkpt>
      <trkpt lat="38.239041" lon="-1.559079">
        <ele>232.3</ele>
        <time>2013-12-06T13:46:30Z</time>
      </trkpt>
      <trkpt lat="38.239054" lon="-1.559050">
        <ele>231.8</ele>
        <time>2013-12-06T13:46:32Z</time>
      </trkpt>
      <trkpt lat="38.239102" lon="-1.558940">
        <ele>231.3</ele>
        <time>2013-12-06T13:46:40Z</time>
      </trkpt>
      <trkpt lat="38.239146" lon="-1.558897">
        <ele>231.3</ele>
        <time>2013-12-06T13:46:44Z</time>
      </trkpt>
      <trkpt lat="38.239147" lon="-1.558867">
        <ele>230.9</ele>
        <time>2013-12-06T13:46:46Z</time>
      </trkpt>
      <trkpt lat="38.239106" lon="-1.558772">
        <ele>229.9</ele>
        <time>2013-12-06T13:46:53Z</time>
      </trkpt>
      <trkpt lat="38.239104" lon="-1.558595">
        <ele>227.5</ele>
        <time>2013-12-06T13:47:04Z</time>
      </trkpt>
      <trkpt lat="38.239115" lon="-1.558549">
        <ele>227.0</ele>
        <time>2013-12-06T13:47:47Z</time>
      </trkpt>
      <trkpt lat="38.239117" lon="-1.558499">
        <ele>224.6</ele>
        <time>2013-12-06T13:47:56Z</time>
      </trkpt>
      <trkpt lat="38.239126" lon="-1.558390">
        <ele>226.1</ele>
        <time>2013-12-06T13:48:03Z</time>
      </trkpt>
      <trkpt lat="38.239116" lon="-1.558321">
        <ele>226.1</ele>
        <time>2013-12-06T13:48:08Z</time>
      </trkpt>
      <trkpt lat="38.239079" lon="-1.558250">
        <ele>227.0</ele>
        <time>2013-12-06T13:48:23Z</time>
      </trkpt>
      <trkpt lat="38.238947" lon="-1.558147">
        <ele>226.1</ele>
        <time>2013-12-06T13:48:46Z</time>
      </trkpt>
      <trkpt lat="38.238920" lon="-1.558086">
        <ele>226.5</ele>
        <time>2013-12-06T13:48:54Z</time>
      </trkpt>
      <trkpt lat="38.238811" lon="-1.557875">
        <ele>225.6</ele>
        <time>2013-12-06T13:49:13Z</time>
      </trkpt>
      <trkpt lat="38.238801" lon="-1.557715">
        <ele>225.6</ele>
        <time>2013-12-06T13:49:23Z</time>
      </trkpt>
      <trkpt lat="38.238759" lon="-1.557551">
        <ele>225.1</ele>
        <time>2013-12-06T13:49:32Z</time>
      </trkpt>
      <trkpt lat="38.238775" lon="-1.557473">
        <ele>223.2</ele>
        <time>2013-12-06T13:49:36Z</time>
      </trkpt>
      <trkpt lat="38.238822" lon="-1.557293">
        <ele>220.8</ele>
        <time>2013-12-06T13:49:49Z</time>
      </trkpt>
      <trkpt lat="38.238835" lon="-1.557277">
        <ele>220.3</ele>
        <time>2013-12-06T13:49:50Z</time>
      </trkpt>
      <trkpt lat="38.238866" lon="-1.557142">
        <ele>220.3</ele>
        <time>2013-12-06T13:50:01Z</time>
      </trkpt>
      <trkpt lat="38.238924" lon="-1.557086">
        <ele>218.4</ele>
        <time>2013-12-06T13:50:13Z</time>
      </trkpt>
      <trkpt lat="38.238977" lon="-1.557040">
        <ele>217.4</ele>
        <time>2013-12-06T13:50:25Z</time>
      </trkpt>
      <trkpt lat="38.239058" lon="-1.556982">
        <ele>215.0</ele>
        <time>2013-12-06T13:50:36Z</time>
      </trkpt>
      <trkpt lat="38.239201" lon="-1.556881">
        <ele>212.6</ele>
        <time>2013-12-06T13:50:53Z</time>
      </trkpt>
      <trkpt lat="38.239253" lon="-1.556848">
        <ele>211.6</ele>
        <time>2013-12-06T13:50:59Z</time>
      </trkpt>
      <trkpt lat="38.239267" lon="-1.556829">
        <ele>211.6</ele>
        <time>2013-12-06T13:51:01Z</time>
      </trkpt>
      <trkpt lat="38.239288" lon="-1.556812">
        <ele>210.7</ele>
        <time>2013-12-06T13:51:05Z</time>
      </trkpt>
      <trkpt lat="38.239305" lon="-1.556784">
        <ele>210.7</ele>
        <time>2013-12-06T13:51:08Z</time>
      </trkpt>
      <trkpt lat="38.239339" lon="-1.556769">
        <ele>210.2</ele>
        <time>2013-12-06T13:51:12Z</time>
      </trkpt>
      <trkpt lat="38.239376" lon="-1.556686">
        <ele>208.3</ele>
        <time>2013-12-06T13:51:25Z</time>
      </trkpt>
      <trkpt lat="38.239328" lon="-1.556686">
        <ele>205.4</ele>
        <time>2013-12-06T13:51:35Z</time>
      </trkpt>
      <trkpt lat="38.239245" lon="-1.556698">
        <ele>203.5</ele>
        <time>2013-12-06T13:51:48Z</time>
      </trkpt>
      <trkpt lat="38.239204" lon="-1.556757">
        <ele>202.5</ele>
        <time>2013-12-06T13:52:01Z</time>
      </trkpt>
      <trkpt lat="38.239159" lon="-1.556784">
        <ele>203.5</ele>
        <time>2013-12-06T13:52:20Z</time>
      </trkpt>
      <trkpt lat="38.239115" lon="-1.556830">
        <ele>202.0</ele>
        <time>2013-12-06T13:52:27Z</time>
      </trkpt>
      <trkpt lat="38.239035" lon="-1.556827">
        <ele>202.0</ele>
        <time>2013-12-06T13:52:39Z</time>
      </trkpt>
      <trkpt lat="38.239010" lon="-1.556809">
        <ele>201.5</ele>
        <time>2013-12-06T13:52:43Z</time>
      </trkpt>
      <trkpt lat="38.238990" lon="-1.556786">
        <ele>201.1</ele>
        <time>2013-12-06T13:52:45Z</time>
      </trkpt>
      <trkpt lat="38.238949" lon="-1.556806">
        <ele>200.6</ele>
        <time>2013-12-06T13:52:49Z</time>
      </trkpt>
      <trkpt lat="38.238935" lon="-1.556816">
        <ele>201.1</ele>
        <time>2013-12-06T13:52:51Z</time>
      </trkpt>
      <trkpt lat="38.238852" lon="-1.556830">
        <ele>200.1</ele>
        <time>2013-12-06T13:53:03Z</time>
      </trkpt>
      <trkpt lat="38.238840" lon="-1.556829">
        <ele>200.1</ele>
        <time>2013-12-06T13:53:05Z</time>
      </trkpt>
      <trkpt lat="38.238817" lon="-1.556839">
        <ele>199.6</ele>
        <time>2013-12-06T13:53:08Z</time>
      </trkpt>
      <trkpt lat="38.238780" lon="-1.556820">
        <ele>199.6</ele>
        <time>2013-12-06T13:53:19Z</time>
      </trkpt>
      <trkpt lat="38.238782" lon="-1.556824">
        <ele>199.1</ele>
        <time>2013-12-06T13:53:34Z</time>
      </trkpt>
      <trkpt lat="38.238748" lon="-1.556842">
        <ele>199.6</ele>
        <time>2013-12-06T13:54:20Z</time>
      </trkpt>
      <trkpt lat="38.238708" lon="-1.556853">
        <ele>199.6</ele>
        <time>2013-12-06T13:54:30Z</time>
      </trkpt>
      <trkpt lat="38.238665" lon="-1.556871">
        <ele>200.1</ele>
        <time>2013-12-06T13:54:41Z</time>
      </trkpt>
      <trkpt lat="38.238573" lon="-1.556911">
        <ele>200.1</ele>
        <time>2013-12-06T13:54:50Z</time>
      </trkpt>
      <trkpt lat="38.238540" lon="-1.556927">
        <ele>200.6</ele>
        <time>2013-12-06T13:54:54Z</time>
      </trkpt>
      <trkpt lat="38.238451" lon="-1.557003">
        <ele>200.1</ele>
        <time>2013-12-06T13:55:07Z</time>
      </trkpt>
      <trkpt lat="38.238410" lon="-1.557041">
        <ele>200.6</ele>
        <time>2013-12-06T13:55:12Z</time>
      </trkpt>
      <trkpt lat="38.238327" lon="-1.557059">
        <ele>199.6</ele>
        <time>2013-12-06T13:55:25Z</time>
      </trkpt>
      <trkpt lat="38.238254" lon="-1.557043">
        <ele>198.6</ele>
        <time>2013-12-06T13:55:36Z</time>
      </trkpt>
      <trkpt lat="38.238205" lon="-1.557049">
        <ele>198.6</ele>
        <time>2013-12-06T13:55:46Z</time>
      </trkpt>
      <trkpt lat="38.238193" lon="-1.557107">
        <ele>199.1</ele>
        <time>2013-12-06T13:55:57Z</time>
      </trkpt>
      <trkpt lat="38.238199" lon="-1.557147">
        <ele>199.6</ele>
        <time>2013-12-06T13:56:09Z</time>
      </trkpt>
      <trkpt lat="38.238175" lon="-1.557155">
        <ele>202.5</ele>
        <time>2013-12-06T13:56:18Z</time>
      </trkpt>
      <trkpt lat="38.238142" lon="-1.557098">
        <ele>202.5</ele>
        <time>2013-12-06T13:56:34Z</time>
      </trkpt>
      <trkpt lat="38.238044" lon="-1.557000">
        <ele>202.5</ele>
        <time>2013-12-06T13:56:56Z</time>
      </trkpt>
      <trkpt lat="38.237995" lon="-1.556963">
        <ele>202.0</ele>
        <time>2013-12-06T13:57:08Z</time>
      </trkpt>
      <trkpt lat="38.237973" lon="-1.556934">
        <ele>202.5</ele>
        <time>2013-12-06T13:57:24Z</time>
      </trkpt>
      <trkpt lat="38.237921" lon="-1.556859">
        <ele>202.0</ele>
        <time>2013-12-06T13:57:30Z</time>
      </trkpt>
      <trkpt lat="38.237846" lon="-1.556863">
        <ele>201.5</ele>
        <time>2013-12-06T13:57:56Z</time>
      </trkpt>
      <trkpt lat="38.237863" lon="-1.556790">
        <ele>200.6</ele>
        <time>2013-12-06T13:58:04Z</time>
      </trkpt>
      <trkpt lat="38.237907" lon="-1.556746">
        <ele>199.6</ele>
        <time>2013-12-06T13:58:08Z</time>
      </trkpt>
      <trkpt lat="38.237923" lon="-1.556664">
        <ele>199.6</ele>
        <time>2013-12-06T13:58:14Z</time>
      </trkpt>
      <trkpt lat="38.238040" lon="-1.556592">
        <ele>198.2</ele>
        <time>2013-12-06T13:58:27Z</time>
      </trkpt>
      <trkpt lat="38.238130" lon="-1.556571">
        <ele>199.1</ele>
        <time>2013-12-06T13:58:37Z</time>
      </trkpt>
      <trkpt lat="38.238219" lon="-1.556590">
        <ele>198.6</ele>
        <time>2013-12-06T13:58:50Z</time>
      </trkpt>
      <trkpt lat="38.238253" lon="-1.556551">
        <ele>200.1</ele>
        <time>2013-12-06T13:59:02Z</time>
      </trkpt>
      <trkpt lat="38.238348" lon="-1.556557">
        <ele>202.0</ele>
        <time>2013-12-06T13:59:15Z</time>
      </trkpt>
      <trkpt lat="38.238406" lon="-1.556559">
        <ele>203.0</ele>
        <time>2013-12-06T13:59:21Z</time>
      </trkpt>
      <trkpt lat="38.238416" lon="-1.556491">
        <ele>206.3</ele>
        <time>2013-12-06T13:59:31Z</time>
      </trkpt>
      <trkpt lat="38.238364" lon="-1.556443">
        <ele>207.8</ele>
        <time>2013-12-06T13:59:40Z</time>
      </trkpt>
      <trkpt lat="38.238328" lon="-1.556389">
        <ele>209.2</ele>
        <time>2013-12-06T13:59:46Z</time>
      </trkpt>
      <trkpt lat="38.238306" lon="-1.556386">
        <ele>209.7</ele>
        <time>2013-12-06T13:59:48Z</time>
      </trkpt>
      <trkpt lat="38.238255" lon="-1.556341">
        <ele>212.1</ele>
        <time>2013-12-06T13:59:55Z</time>
      </trkpt>
      <trkpt lat="38.238196" lon="-1.556308">
        <ele>213.1</ele>
        <time>2013-12-06T14:00:01Z</time>
      </trkpt>
      <trkpt lat="38.238160" lon="-1.556252">
        <ele>215.0</ele>
        <time>2013-12-06T14:00:09Z</time>
      </trkpt>
      <trkpt lat="38.238174" lon="-1.556211">
        <ele>216.9</ele>
        <time>2013-12-06T14:00:13Z</time>
      </trkpt>
      <trkpt lat="38.238171" lon="-1.556189">
        <ele>217.4</ele>
        <time>2013-12-06T14:00:15Z</time>
      </trkpt>
      <trkpt lat="38.238127" lon="-1.556160">
        <ele>218.4</ele>
        <time>2013-12-06T14:00:26Z</time>
      </trkpt>
      <trkpt lat="38.238143" lon="-1.556139">
        <ele>218.4</ele>
        <time>2013-12-06T14:00:41Z</time>
      </trkpt>
      <trkpt lat="38.238153" lon="-1.556090">
        <ele>218.8</ele>
        <time>2013-12-06T14:00:49Z</time>
      </trkpt>
      <trkpt lat="38.238085" lon="-1.556114">
        <ele>215.9</ele>
        <time>2013-12-07T07:47:24Z</time>
      </trkpt>
      <trkpt lat="38.237992" lon="-1.556154">
        <ele>215.5</ele>
        <time>2013-12-07T07:47:38Z</time>
      </trkpt>
      <trkpt lat="38.237905" lon="-1.556180">
        <ele>216.4</ele>
        <time>2013-12-07T07:47:49Z</time>
      </trkpt>
      <trkpt lat="38.237900" lon="-1.556174">
        <ele>215.9</ele>
        <time>2013-12-07T07:47:50Z</time>
      </trkpt>
      <trkpt lat="38.237712" lon="-1.556164">
        <ele>216.4</ele>
        <time>2013-12-07T07:48:06Z</time>
      </trkpt>
      <trkpt lat="38.237608" lon="-1.556139">
        <ele>217.4</ele>
        <time>2013-12-07T07:48:20Z</time>
      </trkpt>
      <trkpt lat="38.237489" lon="-1.556154">
        <ele>217.4</ele>
        <time>2013-12-07T07:48:33Z</time>
      </trkpt>
      <trkpt lat="38.237365" lon="-1.556180">
        <ele>218.4</ele>
        <time>2013-12-07T07:48:41Z</time>
      </trkpt>
      <trkpt lat="38.237213" lon="-1.556399">
        <ele>219.8</ele>
        <time>2013-12-07T07:48:57Z</time>
      </trkpt>
      <trkpt lat="38.237185" lon="-1.556472">
        <ele>219.8</ele>
        <time>2013-12-07T07:49:09Z</time>
      </trkpt>
      <trkpt lat="38.237152" lon="-1.556523">
        <ele>219.8</ele>
        <time>2013-12-07T07:49:18Z</time>
      </trkpt>
      <trkpt lat="38.237114" lon="-1.556566">
        <ele>219.3</ele>
        <time>2013-12-07T07:49:22Z</time>
      </trkpt>
      <trkpt lat="38.236967" lon="-1.556783">
        <ele>219.8</ele>
        <time>2013-12-07T07:49:39Z</time>
      </trkpt>
      <trkpt lat="38.236845" lon="-1.557112">
        <ele>221.7</ele>
        <time>2013-12-07T07:49:57Z</time>
      </trkpt>
      <trkpt lat="38.236827" lon="-1.557232">
        <ele>221.7</ele>
        <time>2013-12-07T07:50:03Z</time>
      </trkpt>
      <trkpt lat="38.236837" lon="-1.557277">
        <ele>221.7</ele>
        <time>2013-12-07T07:50:14Z</time>
      </trkpt>
      <trkpt lat="38.236811" lon="-1.557510">
        <ele>222.7</ele>
        <time>2013-12-07T07:50:27Z</time>
      </trkpt>
      <trkpt lat="38.236794" lon="-1.557650">
        <ele>223.2</ele>
        <time>2013-12-07T07:50:36Z</time>
      </trkpt>
      <trkpt lat="38.236779" lon="-1.557848">
        <ele>224.1</ele>
        <time>2013-12-07T07:50:50Z</time>
      </trkpt>
      <trkpt lat="38.236777" lon="-1.557882">
        <ele>224.1</ele>
        <time>2013-12-07T07:50:52Z</time>
      </trkpt>
      <trkpt lat="38.236698" lon="-1.558049">
        <ele>225.6</ele>
        <time>2013-12-07T07:51:06Z</time>
      </trkpt>
      <trkpt lat="38.236548" lon="-1.558068">
        <ele>227.5</ele>
        <time>2013-12-07T07:51:19Z</time>
      </trkpt>
      <trkpt lat="38.236356" lon="-1.558062">
        <ele>228.0</ele>
        <time>2013-12-07T07:51:34Z</time>
      </trkpt>
      <trkpt lat="38.236321" lon="-1.558061">
        <ele>227.5</ele>
        <time>2013-12-07T07:51:37Z</time>
      </trkpt>
      <trkpt lat="38.236147" lon="-1.558043">
        <ele>228.4</ele>
        <time>2013-12-07T07:51:53Z</time>
      </trkpt>
      <trkpt lat="38.235938" lon="-1.558081">
        <ele>228.9</ele>
        <time>2013-12-07T07:52:09Z</time>
      </trkpt>
      <trkpt lat="38.235717" lon="-1.558171">
        <ele>230.4</ele>
        <time>2013-12-07T07:52:27Z</time>
      </trkpt>
      <trkpt lat="38.235507" lon="-1.558228">
        <ele>231.3</ele>
        <time>2013-12-07T07:52:45Z</time>
      </trkpt>
      <trkpt lat="38.235344" lon="-1.558361">
        <ele>232.8</ele>
        <time>2013-12-07T07:53:00Z</time>
      </trkpt>
      <trkpt lat="38.235316" lon="-1.558453">
        <ele>232.8</ele>
        <time>2013-12-07T07:53:05Z</time>
      </trkpt>
      <trkpt lat="38.235363" lon="-1.558689">
        <ele>233.3</ele>
        <time>2013-12-07T07:53:19Z</time>
      </trkpt>
      <trkpt lat="38.235516" lon="-1.558841">
        <ele>234.7</ele>
        <time>2013-12-07T07:53:33Z</time>
      </trkpt>
      <trkpt lat="38.235754" lon="-1.558952">
        <ele>236.1</ele>
        <time>2013-12-07T07:53:51Z</time>
      </trkpt>
      <trkpt lat="38.235930" lon="-1.559008">
        <ele>236.6</ele>
        <time>2013-12-07T07:54:05Z</time>
      </trkpt>
      <trkpt lat="38.235997" lon="-1.559060">
        <ele>236.6</ele>
        <time>2013-12-07T07:54:14Z</time>
      </trkpt>
      <trkpt lat="38.235978" lon="-1.559120">
        <ele>238.1</ele>
        <time>2013-12-07T07:54:20Z</time>
      </trkpt>
      <trkpt lat="38.235904" lon="-1.559119">
        <ele>239.0</ele>
        <time>2013-12-07T07:54:29Z</time>
      </trkpt>
      <trkpt lat="38.235791" lon="-1.559135">
        <ele>240.5</ele>
        <time>2013-12-07T07:54:41Z</time>
      </trkpt>
      <trkpt lat="38.235759" lon="-1.559148">
        <ele>240.5</ele>
        <time>2013-12-07T07:54:57Z</time>
      </trkpt>
      <trkpt lat="38.235754" lon="-1.559145">
        <ele>240.5</ele>
        <time>2013-12-07T07:55:02Z</time>
      </trkpt>
      <trkpt lat="38.235536" lon="-1.559164">
        <ele>241.4</ele>
        <time>2013-12-07T07:55:20Z</time>
      </trkpt>
      <trkpt lat="38.235313" lon="-1.559238">
        <ele>239.5</ele>
        <time>2013-12-07T07:55:37Z</time>
      </trkpt>
      <trkpt lat="38.235301" lon="-1.559244">
        <ele>243.4</ele>
        <time>2013-12-07T07:55:38Z</time>
      </trkpt>
      <trkpt lat="38.235163" lon="-1.559274">
        <ele>242.9</ele>
        <time>2013-12-07T07:55:49Z</time>
      </trkpt>
      <trkpt lat="38.235088" lon="-1.559284">
        <ele>243.4</ele>
        <time>2013-12-07T07:55:55Z</time>
      </trkpt>
      <trkpt lat="38.234917" lon="-1.559336">
        <ele>244.8</ele>
        <time>2013-12-07T07:56:10Z</time>
      </trkpt>
      <trkpt lat="38.234762" lon="-1.559437">
        <ele>247.2</ele>
        <time>2013-12-07T07:56:24Z</time>
      </trkpt>
      <trkpt lat="38.234553" lon="-1.559451">
        <ele>248.6</ele>
        <time>2013-12-07T07:56:40Z</time>
      </trkpt>
      <trkpt lat="38.234542" lon="-1.559445">
        <ele>248.6</ele>
        <time>2013-12-07T07:56:41Z</time>
      </trkpt>
      <trkpt lat="38.234359" lon="-1.559424">
        <ele>250.6</ele>
        <time>2013-12-07T07:56:57Z</time>
      </trkpt>
      <trkpt lat="38.234249" lon="-1.559435">
        <ele>252.0</ele>
        <time>2013-12-07T07:57:06Z</time>
      </trkpt>
      <trkpt lat="38.234110" lon="-1.559444">
        <ele>253.0</ele>
        <time>2013-12-07T07:57:19Z</time>
      </trkpt>
      <trkpt lat="38.234031" lon="-1.559453">
        <ele>253.9</ele>
        <time>2013-12-07T07:57:46Z</time>
      </trkpt>
      <trkpt lat="38.233784" lon="-1.559520">
        <ele>255.9</ele>
        <time>2013-12-07T07:58:02Z</time>
      </trkpt>
      <trkpt lat="38.233556" lon="-1.559535">
        <ele>257.8</ele>
        <time>2013-12-07T07:58:20Z</time>
      </trkpt>
      <trkpt lat="38.233377" lon="-1.559556">
        <ele>260.2</ele>
        <time>2013-12-07T07:58:35Z</time>
      </trkpt>
      <trkpt lat="38.233188" lon="-1.559674">
        <ele>262.6</ele>
        <time>2013-12-07T07:58:52Z</time>
      </trkpt>
      <trkpt lat="38.233130" lon="-1.559761">
        <ele>263.5</ele>
        <time>2013-12-07T07:58:59Z</time>
      </trkpt>
      <trkpt lat="38.233065" lon="-1.559853">
        <ele>265.0</ele>
        <time>2013-12-07T07:59:07Z</time>
      </trkpt>
      <trkpt lat="38.233035" lon="-1.559908">
        <ele>265.9</ele>
        <time>2013-12-07T07:59:15Z</time>
      </trkpt>
      <trkpt lat="38.233001" lon="-1.559951">
        <ele>265.9</ele>
        <time>2013-12-07T07:59:19Z</time>
      </trkpt>
      <trkpt lat="38.232925" lon="-1.560067">
        <ele>267.4</ele>
        <time>2013-12-07T07:59:29Z</time>
      </trkpt>
      <trkpt lat="38.232898" lon="-1.560090">
        <ele>267.4</ele>
        <time>2013-12-07T07:59:32Z</time>
      </trkpt>
      <trkpt lat="38.232843" lon="-1.560165">
        <ele>268.4</ele>
        <time>2013-12-07T07:59:39Z</time>
      </trkpt>
      <trkpt lat="38.232806" lon="-1.560201">
        <ele>268.4</ele>
        <time>2013-12-07T07:59:43Z</time>
      </trkpt>
      <trkpt lat="38.232619" lon="-1.560243">
        <ele>270.8</ele>
        <time>2013-12-07T07:59:58Z</time>
      </trkpt>
      <trkpt lat="38.232594" lon="-1.560252">
        <ele>271.2</ele>
        <time>2013-12-07T08:00:00Z</time>
      </trkpt>
      <trkpt lat="38.232528" lon="-1.560276">
        <ele>271.7</ele>
        <time>2013-12-07T08:00:12Z</time>
      </trkpt>
      <trkpt lat="38.232379" lon="-1.560225">
        <ele>272.7</ele>
        <time>2013-12-07T08:00:24Z</time>
      </trkpt>
      <trkpt lat="38.232196" lon="-1.560111">
        <ele>273.6</ele>
        <time>2013-12-07T08:00:40Z</time>
      </trkpt>
      <trkpt lat="38.232158" lon="-1.560102">
        <ele>274.1</ele>
        <time>2013-12-07T08:00:43Z</time>
      </trkpt>
      <trkpt lat="38.232089" lon="-1.560049">
        <ele>275.1</ele>
        <time>2013-12-07T08:00:51Z</time>
      </trkpt>
      <trkpt lat="38.231986" lon="-1.559983">
        <ele>277.5</ele>
        <time>2013-12-07T08:01:01Z</time>
      </trkpt>
      <trkpt lat="38.231908" lon="-1.559942">
        <ele>277.5</ele>
        <time>2013-12-07T08:01:08Z</time>
      </trkpt>
      <trkpt lat="38.231859" lon="-1.559918">
        <ele>278.4</ele>
        <time>2013-12-07T08:01:12Z</time>
      </trkpt>
      <trkpt lat="38.231728" lon="-1.559889">
        <ele>280.4</ele>
        <time>2013-12-07T08:01:22Z</time>
      </trkpt>
      <trkpt lat="38.231612" lon="-1.559953">
        <ele>280.8</ele>
        <time>2013-12-07T08:01:38Z</time>
      </trkpt>
      <trkpt lat="38.231614" lon="-1.559960">
        <ele>280.8</ele>
        <time>2013-12-07T08:01:52Z</time>
      </trkpt>
      <trkpt lat="38.231585" lon="-1.559988">
        <ele>281.3</ele>
        <time>2013-12-07T08:02:04Z</time>
      </trkpt>
      <trkpt lat="38.231596" lon="-1.559985">
        <ele>281.3</ele>
        <time>2013-12-07T08:02:09Z</time>
      </trkpt>
      <trkpt lat="38.231542" lon="-1.560079">
        <ele>281.8</ele>
        <time>2013-12-07T08:02:19Z</time>
      </trkpt>
      <trkpt lat="38.231490" lon="-1.560226">
        <ele>282.3</ele>
        <time>2013-12-07T08:02:33Z</time>
      </trkpt>
      <trkpt lat="38.231424" lon="-1.560375">
        <ele>283.2</ele>
        <time>2013-12-07T08:02:48Z</time>
      </trkpt>
      <trkpt lat="38.231297" lon="-1.560696">
        <ele>285.6</ele>
        <time>2013-12-07T08:03:07Z</time>
      </trkpt>
      <trkpt lat="38.231201" lon="-1.561017">
        <ele>287.6</ele>
        <time>2013-12-07T08:03:26Z</time>
      </trkpt>
      <trkpt lat="38.231100" lon="-1.561226">
        <ele>288.5</ele>
        <time>2013-12-07T08:03:40Z</time>
      </trkpt>
      <trkpt lat="38.230972" lon="-1.561356">
        <ele>289.0</ele>
        <time>2013-12-07T08:03:55Z</time>
      </trkpt>
      <trkpt lat="38.230787" lon="-1.561446">
        <ele>289.5</ele>
        <time>2013-12-07T08:04:10Z</time>
      </trkpt>
      <trkpt lat="38.230700" lon="-1.561522">
        <ele>288.5</ele>
        <time>2013-12-07T08:04:19Z</time>
      </trkpt>
      <trkpt lat="38.230618" lon="-1.561518">
        <ele>288.0</ele>
        <time>2013-12-07T08:04:25Z</time>
      </trkpt>
      <trkpt lat="38.230440" lon="-1.561669">
        <ele>286.6</ele>
        <time>2013-12-07T08:04:40Z</time>
      </trkpt>
      <trkpt lat="38.230358" lon="-1.561771">
        <ele>286.1</ele>
        <time>2013-12-07T08:04:50Z</time>
      </trkpt>
      <trkpt lat="38.230242" lon="-1.561953">
        <ele>286.1</ele>
        <time>2013-12-07T08:05:04Z</time>
      </trkpt>
      <trkpt lat="38.230172" lon="-1.562101">
        <ele>286.1</ele>
        <time>2013-12-07T08:05:14Z</time>
      </trkpt>
      <trkpt lat="38.230141" lon="-1.562214">
        <ele>285.6</ele>
        <time>2013-12-07T08:06:06Z</time>
      </trkpt>
      <trkpt lat="38.230020" lon="-1.562446">
        <ele>286.6</ele>
        <time>2013-12-07T08:06:22Z</time>
      </trkpt>
      <trkpt lat="38.229959" lon="-1.562693">
        <ele>288.0</ele>
        <time>2013-12-07T08:06:37Z</time>
      </trkpt>
      <trkpt lat="38.229929" lon="-1.562946">
        <ele>289.5</ele>
        <time>2013-12-07T08:06:53Z</time>
      </trkpt>
      <trkpt lat="38.229943" lon="-1.563000">
        <ele>289.5</ele>
        <time>2013-12-07T08:06:57Z</time>
      </trkpt>
      <trkpt lat="38.229928" lon="-1.563099">
        <ele>289.5</ele>
        <time>2013-12-07T08:07:02Z</time>
      </trkpt>
      <trkpt lat="38.229928" lon="-1.563136">
        <ele>290.0</ele>
        <time>2013-12-07T08:07:04Z</time>
      </trkpt>
      <trkpt lat="38.229927" lon="-1.563361">
        <ele>292.4</ele>
        <time>2013-12-07T08:07:20Z</time>
      </trkpt>
      <trkpt lat="38.229920" lon="-1.563612">
        <ele>290.9</ele>
        <time>2013-12-07T08:08:27Z</time>
      </trkpt>
      <trkpt lat="38.229918" lon="-1.563630">
        <ele>291.4</ele>
        <time>2013-12-07T08:08:29Z</time>
      </trkpt>
      <trkpt lat="38.229893" lon="-1.563975">
        <ele>293.8</ele>
        <time>2013-12-07T08:08:48Z</time>
      </trkpt>
      <trkpt lat="38.229892" lon="-1.563992">
        <ele>293.8</ele>
        <time>2013-12-07T08:08:49Z</time>
      </trkpt>
      <trkpt lat="38.229890" lon="-1.564246">
        <ele>297.2</ele>
        <time>2013-12-07T08:09:03Z</time>
      </trkpt>
      <trkpt lat="38.229889" lon="-1.564284">
        <ele>297.7</ele>
        <time>2013-12-07T08:09:05Z</time>
      </trkpt>
      <trkpt lat="38.229896" lon="-1.564394">
        <ele>298.6</ele>
        <time>2013-12-07T08:09:11Z</time>
      </trkpt>
      <trkpt lat="38.229863" lon="-1.564571">
        <ele>299.6</ele>
        <time>2013-12-07T08:09:23Z</time>
      </trkpt>
      <trkpt lat="38.229856" lon="-1.564627">
        <ele>300.1</ele>
        <time>2013-12-07T08:09:27Z</time>
      </trkpt>
      <trkpt lat="38.229800" lon="-1.564962">
        <ele>301.0</ele>
        <time>2013-12-07T08:09:46Z</time>
      </trkpt>
      <trkpt lat="38.229799" lon="-1.565064">
        <ele>297.2</ele>
        <time>2013-12-07T08:09:53Z</time>
      </trkpt>
      <trkpt lat="38.229802" lon="-1.565077">
        <ele>297.2</ele>
        <time>2013-12-07T08:09:54Z</time>
      </trkpt>
      <trkpt lat="38.229804" lon="-1.565091">
        <ele>302.5</ele>
        <time>2013-12-07T08:09:55Z</time>
      </trkpt>
      <trkpt lat="38.229802" lon="-1.565106">
        <ele>301.0</ele>
        <time>2013-12-07T08:09:56Z</time>
      </trkpt>
      <trkpt lat="38.229813" lon="-1.565216">
        <ele>301.5</ele>
        <time>2013-12-07T08:10:03Z</time>
      </trkpt>
      <trkpt lat="38.229828" lon="-1.565474">
        <ele>306.3</ele>
        <time>2013-12-07T08:10:18Z</time>
      </trkpt>
      <trkpt lat="38.229832" lon="-1.565738">
        <ele>303.0</ele>
        <time>2013-12-07T08:10:34Z</time>
      </trkpt>
      <trkpt lat="38.229801" lon="-1.565977">
        <ele>303.9</ele>
        <time>2013-12-07T08:10:49Z</time>
      </trkpt>
      <trkpt lat="38.229689" lon="-1.566252">
        <ele>303.4</ele>
        <time>2013-12-07T08:11:08Z</time>
      </trkpt>
      <trkpt lat="38.229605" lon="-1.566414">
        <ele>305.8</ele>
        <time>2013-12-07T08:11:22Z</time>
      </trkpt>
      <trkpt lat="38.229549" lon="-1.566506">
        <ele>306.3</ele>
        <time>2013-12-07T08:11:30Z</time>
      </trkpt>
      <trkpt lat="38.229476" lon="-1.566600">
        <ele>306.8</ele>
        <time>2013-12-07T08:11:45Z</time>
      </trkpt>
      <trkpt lat="38.229428" lon="-1.566670">
        <ele>306.3</ele>
        <time>2013-12-07T08:11:50Z</time>
      </trkpt>
      <trkpt lat="38.229188" lon="-1.566861">
        <ele>306.3</ele>
        <time>2013-12-07T08:12:11Z</time>
      </trkpt>
      <trkpt lat="38.229142" lon="-1.566891">
        <ele>305.8</ele>
        <time>2013-12-07T08:12:25Z</time>
      </trkpt>
      <trkpt lat="38.229140" lon="-1.566895">
        <ele>306.3</ele>
        <time>2013-12-07T08:12:35Z</time>
      </trkpt>
      <trkpt lat="38.229067" lon="-1.567040">
        <ele>305.8</ele>
        <time>2013-12-07T08:12:45Z</time>
      </trkpt>
      <trkpt lat="38.229059" lon="-1.567072">
        <ele>305.8</ele>
        <time>2013-12-07T08:12:58Z</time>
      </trkpt>
      <trkpt lat="38.228997" lon="-1.567217">
        <ele>306.3</ele>
        <time>2013-12-07T08:13:16Z</time>
      </trkpt>
      <trkpt lat="38.228888" lon="-1.567455">
        <ele>308.2</ele>
        <time>2013-12-07T08:13:30Z</time>
      </trkpt>
      <trkpt lat="38.228783" lon="-1.567709">
        <ele>309.7</ele>
        <time>2013-12-07T08:13:47Z</time>
      </trkpt>
      <trkpt lat="38.228726" lon="-1.567857">
        <ele>311.1</ele>
        <time>2013-12-07T08:13:58Z</time>
      </trkpt>
      <trkpt lat="38.228609" lon="-1.568105">
        <ele>313.0</ele>
        <time>2013-12-07T08:14:14Z</time>
      </trkpt>
      <trkpt lat="38.228478" lon="-1.568340">
        <ele>313.0</ele>
        <time>2013-12-07T08:14:30Z</time>
      </trkpt>
      <trkpt lat="38.228293" lon="-1.568547">
        <ele>313.5</ele>
        <time>2013-12-07T08:14:47Z</time>
      </trkpt>
      <trkpt lat="38.228054" lon="-1.568629">
        <ele>313.5</ele>
        <time>2013-12-07T08:15:04Z</time>
      </trkpt>
      <trkpt lat="38.227831" lon="-1.568690">
        <ele>314.0</ele>
        <time>2013-12-07T08:15:20Z</time>
      </trkpt>
      <trkpt lat="38.227581" lon="-1.568747">
        <ele>315.5</ele>
        <time>2013-12-07T08:15:38Z</time>
      </trkpt>
      <trkpt lat="38.227365" lon="-1.568785">
        <ele>317.4</ele>
        <time>2013-12-07T08:15:55Z</time>
      </trkpt>
      <trkpt lat="38.227185" lon="-1.568837">
        <ele>318.8</ele>
        <time>2013-12-07T08:16:09Z</time>
      </trkpt>
      <trkpt lat="38.227160" lon="-1.568875">
        <ele>319.3</ele>
        <time>2013-12-07T08:16:13Z</time>
      </trkpt>
      <trkpt lat="38.226937" lon="-1.568985">
        <ele>322.2</ele>
        <time>2013-12-07T08:16:29Z</time>
      </trkpt>
      <trkpt lat="38.226860" lon="-1.569031">
        <ele>323.1</ele>
        <time>2013-12-07T08:16:35Z</time>
      </trkpt>
      <trkpt lat="38.226657" lon="-1.569161">
        <ele>325.5</ele>
        <time>2013-12-07T08:16:51Z</time>
      </trkpt>
      <trkpt lat="38.226594" lon="-1.569191">
        <ele>326.0</ele>
        <time>2013-12-07T08:16:56Z</time>
      </trkpt>
      <trkpt lat="38.226484" lon="-1.569287">
        <ele>326.5</ele>
        <time>2013-12-07T08:17:06Z</time>
      </trkpt>
      <trkpt lat="38.226444" lon="-1.569319">
        <ele>327.0</ele>
        <time>2013-12-07T08:17:10Z</time>
      </trkpt>
      <trkpt lat="38.226414" lon="-1.569341">
        <ele>328.0</ele>
        <time>2013-12-07T08:17:13Z</time>
      </trkpt>
      <trkpt lat="38.226377" lon="-1.569447">
        <ele>328.0</ele>
        <time>2013-12-07T08:17:20Z</time>
      </trkpt>
      <trkpt lat="38.226264" lon="-1.569590">
        <ele>330.4</ele>
        <time>2013-12-07T08:17:34Z</time>
      </trkpt>
      <trkpt lat="38.226256" lon="-1.569603">
        <ele>330.4</ele>
        <time>2013-12-07T08:17:35Z</time>
      </trkpt>
      <trkpt lat="38.226241" lon="-1.569628">
        <ele>330.8</ele>
        <time>2013-12-07T08:17:38Z</time>
      </trkpt>
      <trkpt lat="38.226186" lon="-1.569711">
        <ele>331.3</ele>
        <time>2013-12-07T08:17:48Z</time>
      </trkpt>
      <trkpt lat="38.226013" lon="-1.569777">
        <ele>333.2</ele>
        <time>2013-12-07T08:18:03Z</time>
      </trkpt>
      <trkpt lat="38.225986" lon="-1.569767">
        <ele>333.7</ele>
        <time>2013-12-07T08:18:14Z</time>
      </trkpt>
      <trkpt lat="38.225995" lon="-1.569766">
        <ele>333.7</ele>
        <time>2013-12-07T08:18:34Z</time>
      </trkpt>
      <trkpt lat="38.225874" lon="-1.569687">
        <ele>334.7</ele>
        <time>2013-12-07T08:18:53Z</time>
      </trkpt>
      <trkpt lat="38.225775" lon="-1.569583">
        <ele>335.6</ele>
        <time>2013-12-07T08:19:08Z</time>
      </trkpt>
      <trkpt lat="38.225761" lon="-1.569572">
        <ele>335.2</ele>
        <time>2013-12-07T08:19:24Z</time>
      </trkpt>
      <trkpt lat="38.225756" lon="-1.569547">
        <ele>336.1</ele>
        <time>2013-12-07T08:19:26Z</time>
      </trkpt>
      <trkpt lat="38.225725" lon="-1.569479">
        <ele>336.1</ele>
        <time>2013-12-07T08:19:40Z</time>
      </trkpt>
      <trkpt lat="38.225680" lon="-1.569383">
        <ele>336.6</ele>
        <time>2013-12-07T08:19:46Z</time>
      </trkpt>
      <trkpt lat="38.225504" lon="-1.569098">
        <ele>338.0</ele>
        <time>2013-12-07T08:20:04Z</time>
      </trkpt>
      <trkpt lat="38.225368" lon="-1.568830">
        <ele>340.0</ele>
        <time>2013-12-07T08:20:21Z</time>
      </trkpt>
      <trkpt lat="38.225343" lon="-1.568741">
        <ele>340.0</ele>
        <time>2013-12-07T08:20:26Z</time>
      </trkpt>
      <trkpt lat="38.225236" lon="-1.568578">
        <ele>340.9</ele>
        <time>2013-12-07T08:20:37Z</time>
      </trkpt>
      <trkpt lat="38.225120" lon="-1.568349">
        <ele>341.9</ele>
        <time>2013-12-07T08:20:53Z</time>
      </trkpt>
      <trkpt lat="38.224978" lon="-1.568122">
        <ele>342.4</ele>
        <time>2013-12-07T08:21:09Z</time>
      </trkpt>
      <trkpt lat="38.224946" lon="-1.568025">
        <ele>342.9</ele>
        <time>2013-12-07T08:21:15Z</time>
      </trkpt>
      <trkpt lat="38.224841" lon="-1.567866">
        <ele>343.3</ele>
        <time>2013-12-07T08:21:29Z</time>
      </trkpt>
      <trkpt lat="38.224734" lon="-1.567699">
        <ele>344.3</ele>
        <time>2013-12-07T08:21:44Z</time>
      </trkpt>
      <trkpt lat="38.224730" lon="-1.567695">
        <ele>343.8</ele>
        <time>2013-12-07T08:21:45Z</time>
      </trkpt>
      <trkpt lat="38.224697" lon="-1.567667">
        <ele>344.3</ele>
        <time>2013-12-07T08:21:57Z</time>
      </trkpt>
      <trkpt lat="38.224631" lon="-1.567498">
        <ele>345.2</ele>
        <time>2013-12-07T08:22:07Z</time>
      </trkpt>
      <trkpt lat="38.224547" lon="-1.567360">
        <ele>346.2</ele>
        <time>2013-12-07T08:22:16Z</time>
      </trkpt>
      <trkpt lat="38.224474" lon="-1.567199">
        <ele>346.7</ele>
        <time>2013-12-07T08:22:26Z</time>
      </trkpt>
      <trkpt lat="38.224429" lon="-1.567121">
        <ele>348.1</ele>
        <time>2013-12-07T08:22:31Z</time>
      </trkpt>
      <trkpt lat="38.224364" lon="-1.567032">
        <ele>348.6</ele>
        <time>2013-12-07T08:22:44Z</time>
      </trkpt>
      <trkpt lat="38.224315" lon="-1.566922">
        <ele>348.6</ele>
        <time>2013-12-07T08:22:51Z</time>
      </trkpt>
      <trkpt lat="38.224240" lon="-1.566786">
        <ele>350.1</ele>
        <time>2013-12-07T08:23:01Z</time>
      </trkpt>
      <trkpt lat="38.224231" lon="-1.566745">
        <ele>350.1</ele>
        <time>2013-12-07T08:23:05Z</time>
      </trkpt>
      <trkpt lat="38.224116" lon="-1.566551">
        <ele>351.0</ele>
        <time>2013-12-07T08:23:19Z</time>
      </trkpt>
      <trkpt lat="38.223989" lon="-1.566309">
        <ele>352.5</ele>
        <time>2013-12-07T08:23:35Z</time>
      </trkpt>
      <trkpt lat="38.223856" lon="-1.566083">
        <ele>353.4</ele>
        <time>2013-12-07T08:23:51Z</time>
      </trkpt>
      <trkpt lat="38.223849" lon="-1.566069">
        <ele>353.4</ele>
        <time>2013-12-07T08:23:52Z</time>
      </trkpt>
      <trkpt lat="38.223764" lon="-1.565974">
        <ele>352.9</ele>
        <time>2013-12-07T08:24:05Z</time>
      </trkpt>
      <trkpt lat="38.223690" lon="-1.565908">
        <ele>352.9</ele>
        <time>2013-12-07T08:24:17Z</time>
      </trkpt>
      <trkpt lat="38.223606" lon="-1.565639">
        <ele>353.4</ele>
        <time>2013-12-07T08:24:33Z</time>
      </trkpt>
      <trkpt lat="38.223655" lon="-1.565427">
        <ele>353.4</ele>
        <time>2013-12-07T08:24:45Z</time>
      </trkpt>
      <trkpt lat="38.223638" lon="-1.565237">
        <ele>354.4</ele>
        <time>2013-12-07T08:24:56Z</time>
      </trkpt>
      <trkpt lat="38.223614" lon="-1.565137">
        <ele>353.4</ele>
        <time>2013-12-07T08:25:03Z</time>
      </trkpt>
      <trkpt lat="38.223516" lon="-1.564938">
        <ele>352.9</ele>
        <time>2013-12-07T08:25:19Z</time>
      </trkpt>
      <trkpt lat="38.223460" lon="-1.564881">
        <ele>352.5</ele>
        <time>2013-12-07T08:25:57Z</time>
      </trkpt>
      <trkpt lat="38.223361" lon="-1.564674">
        <ele>352.0</ele>
        <time>2013-12-07T08:26:12Z</time>
      </trkpt>
      <trkpt lat="38.223307" lon="-1.564502">
        <ele>350.1</ele>
        <time>2013-12-07T08:26:24Z</time>
      </trkpt>
      <trkpt lat="38.223272" lon="-1.564249">
        <ele>349.6</ele>
        <time>2013-12-07T08:26:38Z</time>
      </trkpt>
      <trkpt lat="38.223292" lon="-1.564088">
        <ele>349.1</ele>
        <time>2013-12-07T08:26:51Z</time>
      </trkpt>
      <trkpt lat="38.223396" lon="-1.563824">
        <ele>349.1</ele>
        <time>2013-12-07T08:27:08Z</time>
      </trkpt>
      <trkpt lat="38.223444" lon="-1.563519">
        <ele>348.6</ele>
        <time>2013-12-07T08:27:26Z</time>
      </trkpt>
      <trkpt lat="38.223354" lon="-1.563299">
        <ele>347.6</ele>
        <time>2013-12-07T08:27:41Z</time>
      </trkpt>
      <trkpt lat="38.223217" lon="-1.563096">
        <ele>348.6</ele>
        <time>2013-12-07T08:27:57Z</time>
      </trkpt>
      <trkpt lat="38.223156" lon="-1.562880">
        <ele>348.1</ele>
        <time>2013-12-07T08:28:11Z</time>
      </trkpt>
      <trkpt lat="38.223151" lon="-1.562646">
        <ele>348.6</ele>
        <time>2013-12-07T08:28:25Z</time>
      </trkpt>
      <trkpt lat="38.223143" lon="-1.562441">
        <ele>350.1</ele>
        <time>2013-12-07T08:28:38Z</time>
      </trkpt>
      <trkpt lat="38.223142" lon="-1.562261">
        <ele>350.5</ele>
        <time>2013-12-07T08:28:49Z</time>
      </trkpt>
      <trkpt lat="38.223153" lon="-1.561940">
        <ele>352.0</ele>
        <time>2013-12-07T08:29:07Z</time>
      </trkpt>
      <trkpt lat="38.223062" lon="-1.561743">
        <ele>352.5</ele>
        <time>2013-12-07T08:29:20Z</time>
      </trkpt>
      <trkpt lat="38.223019" lon="-1.561532">
        <ele>352.5</ele>
        <time>2013-12-07T08:29:33Z</time>
      </trkpt>
      <trkpt lat="38.223020" lon="-1.561343">
        <ele>353.4</ele>
        <time>2013-12-07T08:29:45Z</time>
      </trkpt>
      <trkpt lat="38.222973" lon="-1.561051">
        <ele>352.5</ele>
        <time>2013-12-07T08:30:03Z</time>
      </trkpt>
      <trkpt lat="38.223040" lon="-1.560884">
        <ele>351.5</ele>
        <time>2013-12-07T08:30:14Z</time>
      </trkpt>
      <trkpt lat="38.223078" lon="-1.560567">
        <ele>350.5</ele>
        <time>2013-12-07T08:30:33Z</time>
      </trkpt>
      <trkpt lat="38.223098" lon="-1.560247">
        <ele>349.6</ele>
        <time>2013-12-07T08:30:51Z</time>
      </trkpt>
      <trkpt lat="38.223097" lon="-1.560040">
        <ele>349.6</ele>
        <time>2013-12-07T08:31:03Z</time>
      </trkpt>
      <trkpt lat="38.223058" lon="-1.559732">
        <ele>347.6</ele>
        <time>2013-12-07T08:31:21Z</time>
      </trkpt>
      <trkpt lat="38.223019" lon="-1.559476">
        <ele>347.6</ele>
        <time>2013-12-07T08:31:36Z</time>
      </trkpt>
      <trkpt lat="38.223061" lon="-1.559194">
        <ele>346.7</ele>
        <time>2013-12-07T08:31:53Z</time>
      </trkpt>
      <trkpt lat="38.223096" lon="-1.559100">
        <ele>346.7</ele>
        <time>2013-12-07T08:31:59Z</time>
      </trkpt>
      <trkpt lat="38.223050" lon="-1.558839">
        <ele>345.2</ele>
        <time>2013-12-07T08:32:14Z</time>
      </trkpt>
      <trkpt lat="38.223026" lon="-1.558714">
        <ele>345.2</ele>
        <time>2013-12-07T08:32:27Z</time>
      </trkpt>
      <trkpt lat="38.222994" lon="-1.558593">
        <ele>345.2</ele>
        <time>2013-12-07T08:32:39Z</time>
      </trkpt>
      <trkpt lat="38.222986" lon="-1.558504">
        <ele>345.2</ele>
        <time>2013-12-07T08:32:47Z</time>
      </trkpt>
      <trkpt lat="38.222877" lon="-1.558213">
        <ele>344.8</ele>
        <time>2013-12-07T08:33:20Z</time>
      </trkpt>
      <trkpt lat="38.222795" lon="-1.558050">
        <ele>343.3</ele>
        <time>2013-12-07T08:33:34Z</time>
      </trkpt>
      <trkpt lat="38.222743" lon="-1.557879">
        <ele>343.3</ele>
        <time>2013-12-07T08:33:48Z</time>
      </trkpt>
      <trkpt lat="38.222735" lon="-1.557839">
        <ele>343.3</ele>
        <time>2013-12-07T08:34:10Z</time>
      </trkpt>
      <trkpt lat="38.222709" lon="-1.557698">
        <ele>343.3</ele>
        <time>2013-12-07T08:34:23Z</time>
      </trkpt>
      <trkpt lat="38.222657" lon="-1.557419">
        <ele>343.3</ele>
        <time>2013-12-07T08:34:40Z</time>
      </trkpt>
      <trkpt lat="38.222632" lon="-1.557174">
        <ele>343.3</ele>
        <time>2013-12-07T08:34:54Z</time>
      </trkpt>
      <trkpt lat="38.222617" lon="-1.556916">
        <ele>343.8</ele>
        <time>2013-12-07T08:35:09Z</time>
      </trkpt>
      <trkpt lat="38.222594" lon="-1.556694">
        <ele>344.3</ele>
        <time>2013-12-07T08:35:25Z</time>
      </trkpt>
      <trkpt lat="38.222609" lon="-1.556457">
        <ele>345.2</ele>
        <time>2013-12-07T08:35:39Z</time>
      </trkpt>
      <trkpt lat="38.222633" lon="-1.556173">
        <ele>345.7</ele>
        <time>2013-12-07T08:35:56Z</time>
      </trkpt>
      <trkpt lat="38.222649" lon="-1.555918">
        <ele>346.2</ele>
        <time>2013-12-07T08:36:11Z</time>
      </trkpt>
      <trkpt lat="38.222678" lon="-1.555675">
        <ele>347.2</ele>
        <time>2013-12-07T08:36:25Z</time>
      </trkpt>
      <trkpt lat="38.222674" lon="-1.555451">
        <ele>347.2</ele>
        <time>2013-12-07T08:36:39Z</time>
      </trkpt>
      <trkpt lat="38.222650" lon="-1.555140">
        <ele>347.2</ele>
        <time>2013-12-07T08:36:57Z</time>
      </trkpt>
      <trkpt lat="38.222615" lon="-1.554940">
        <ele>346.2</ele>
        <time>2013-12-07T08:37:10Z</time>
      </trkpt>
      <trkpt lat="38.222588" lon="-1.554664">
        <ele>347.6</ele>
        <time>2013-12-07T08:37:26Z</time>
      </trkpt>
      <trkpt lat="38.222561" lon="-1.554405">
        <ele>348.1</ele>
        <time>2013-12-07T08:37:41Z</time>
      </trkpt>
      <trkpt lat="38.222531" lon="-1.554247">
        <ele>348.1</ele>
        <time>2013-12-07T08:37:50Z</time>
      </trkpt>
      <trkpt lat="38.222538" lon="-1.554209">
        <ele>348.1</ele>
        <time>2013-12-07T08:37:52Z</time>
      </trkpt>
      <trkpt lat="38.222563" lon="-1.553865">
        <ele>348.6</ele>
        <time>2013-12-07T08:38:12Z</time>
      </trkpt>
      <trkpt lat="38.222608" lon="-1.553558">
        <ele>349.1</ele>
        <time>2013-12-07T08:38:30Z</time>
      </trkpt>
      <trkpt lat="38.222566" lon="-1.553436">
        <ele>349.1</ele>
        <time>2013-12-07T08:38:37Z</time>
      </trkpt>
      <trkpt lat="38.222542" lon="-1.553237">
        <ele>350.5</ele>
        <time>2013-12-07T08:38:49Z</time>
      </trkpt>
      <trkpt lat="38.222564" lon="-1.553015">
        <ele>350.5</ele>
        <time>2013-12-07T08:39:02Z</time>
      </trkpt>
      <trkpt lat="38.222503" lon="-1.552683">
        <ele>352.0</ele>
        <time>2013-12-07T08:39:21Z</time>
      </trkpt>
      <trkpt lat="38.222436" lon="-1.552376">
        <ele>352.9</ele>
        <time>2013-12-07T08:39:39Z</time>
      </trkpt>
      <trkpt lat="38.222393" lon="-1.552081">
        <ele>352.9</ele>
        <time>2013-12-07T08:39:56Z</time>
      </trkpt>
      <trkpt lat="38.222377" lon="-1.551779">
        <ele>352.9</ele>
        <time>2013-12-07T08:40:14Z</time>
      </trkpt>
      <trkpt lat="38.222370" lon="-1.551707">
        <ele>353.4</ele>
        <time>2013-12-07T08:40:18Z</time>
      </trkpt>
      <trkpt lat="38.222360" lon="-1.551403">
        <ele>353.9</ele>
        <time>2013-12-07T08:40:35Z</time>
      </trkpt>
      <trkpt lat="38.222296" lon="-1.551179">
        <ele>356.3</ele>
        <time>2013-12-07T08:40:49Z</time>
      </trkpt>
      <trkpt lat="38.222189" lon="-1.551007">
        <ele>358.7</ele>
        <time>2013-12-07T08:41:02Z</time>
      </trkpt>
      <trkpt lat="38.222002" lon="-1.550902">
        <ele>361.1</ele>
        <time>2013-12-07T08:41:17Z</time>
      </trkpt>
      <trkpt lat="38.221813" lon="-1.550947">
        <ele>362.1</ele>
        <time>2013-12-07T08:41:32Z</time>
      </trkpt>
      <trkpt lat="38.221640" lon="-1.550982">
        <ele>362.5</ele>
        <time>2013-12-07T08:41:46Z</time>
      </trkpt>
      <trkpt lat="38.221481" lon="-1.551020">
        <ele>362.5</ele>
        <time>2013-12-07T08:41:59Z</time>
      </trkpt>
      <trkpt lat="38.221300" lon="-1.551111">
        <ele>361.1</ele>
        <time>2013-12-07T08:42:15Z</time>
      </trkpt>
      <trkpt lat="38.221119" lon="-1.551209">
        <ele>357.8</ele>
        <time>2013-12-07T08:42:32Z</time>
      </trkpt>
      <trkpt lat="38.220972" lon="-1.551261">
        <ele>356.8</ele>
        <time>2013-12-07T08:42:46Z</time>
      </trkpt>
      <trkpt lat="38.220802" lon="-1.551303">
        <ele>354.9</ele>
        <time>2013-12-07T08:43:01Z</time>
      </trkpt>
      <trkpt lat="38.220640" lon="-1.551361">
        <ele>352.9</ele>
        <time>2013-12-07T08:43:15Z</time>
      </trkpt>
      <trkpt lat="38.220531" lon="-1.551454">
        <ele>351.5</ele>
        <time>2013-12-07T08:43:31Z</time>
      </trkpt>
      <trkpt lat="38.220363" lon="-1.551589">
        <ele>350.1</ele>
        <time>2013-12-07T08:44:25Z</time>
      </trkpt>
      <trkpt lat="38.220224" lon="-1.551743">
        <ele>349.1</ele>
        <time>2013-12-07T08:44:41Z</time>
      </trkpt>
      <trkpt lat="38.220178" lon="-1.551810">
        <ele>348.1</ele>
        <time>2013-12-07T08:44:47Z</time>
      </trkpt>
      <trkpt lat="38.220146" lon="-1.551872">
        <ele>347.2</ele>
        <time>2013-12-07T08:44:53Z</time>
      </trkpt>
      <trkpt lat="38.220086" lon="-1.551976">
        <ele>346.7</ele>
        <time>2013-12-07T08:45:02Z</time>
      </trkpt>
      <trkpt lat="38.219999" lon="-1.552227">
        <ele>344.3</ele>
        <time>2013-12-07T08:45:21Z</time>
      </trkpt>
      <trkpt lat="38.219965" lon="-1.552336">
        <ele>344.3</ele>
        <time>2013-12-07T08:45:29Z</time>
      </trkpt>
      <trkpt lat="38.219883" lon="-1.552551">
        <ele>343.3</ele>
        <time>2013-12-07T08:45:45Z</time>
      </trkpt>
      <trkpt lat="38.219817" lon="-1.552822">
        <ele>340.9</ele>
        <time>2013-12-07T08:46:02Z</time>
      </trkpt>
      <trkpt lat="38.219807" lon="-1.553075">
        <ele>338.5</ele>
        <time>2013-12-07T08:46:18Z</time>
      </trkpt>
      <trkpt lat="38.219805" lon="-1.553090">
        <ele>338.0</ele>
        <time>2013-12-07T08:46:19Z</time>
      </trkpt>
      <trkpt lat="38.219735" lon="-1.553346">
        <ele>336.1</ele>
        <time>2013-12-07T08:46:36Z</time>
      </trkpt>
      <trkpt lat="38.219547" lon="-1.553282">
        <ele>336.6</ele>
        <time>2013-12-07T08:46:51Z</time>
      </trkpt>
      <trkpt lat="38.219428" lon="-1.553196">
        <ele>338.0</ele>
        <time>2013-12-07T08:47:04Z</time>
      </trkpt>
      <trkpt lat="38.219301" lon="-1.553032">
        <ele>339.5</ele>
        <time>2013-12-07T08:47:18Z</time>
      </trkpt>
      <trkpt lat="38.219240" lon="-1.552842">
        <ele>340.9</ele>
        <time>2013-12-07T08:47:30Z</time>
      </trkpt>
      <trkpt lat="38.219213" lon="-1.552639">
        <ele>341.4</ele>
        <time>2013-12-07T08:47:43Z</time>
      </trkpt>
      <trkpt lat="38.219177" lon="-1.552499">
        <ele>341.9</ele>
        <time>2013-12-07T08:47:56Z</time>
      </trkpt>
      <trkpt lat="38.219168" lon="-1.552496">
        <ele>341.9</ele>
        <time>2013-12-07T08:48:01Z</time>
      </trkpt>
      <trkpt lat="38.218977" lon="-1.552551">
        <ele>342.9</ele>
        <time>2013-12-07T08:48:15Z</time>
      </trkpt>
      <trkpt lat="38.218889" lon="-1.552663">
        <ele>343.3</ele>
        <time>2013-12-07T08:48:27Z</time>
      </trkpt>
      <trkpt lat="38.218823" lon="-1.552763">
        <ele>343.8</ele>
        <time>2013-12-07T08:48:35Z</time>
      </trkpt>
      <trkpt lat="38.218779" lon="-1.552821">
        <ele>343.8</ele>
        <time>2013-12-07T08:48:41Z</time>
      </trkpt>
      <trkpt lat="38.218764" lon="-1.552835">
        <ele>344.8</ele>
        <time>2013-12-07T08:48:43Z</time>
      </trkpt>
      <trkpt lat="38.218731" lon="-1.552876">
        <ele>344.3</ele>
        <time>2013-12-07T08:48:53Z</time>
      </trkpt>
      <trkpt lat="38.218722" lon="-1.552876">
        <ele>343.8</ele>
        <time>2013-12-07T08:49:14Z</time>
      </trkpt>
      <trkpt lat="38.218689" lon="-1.552909">
        <ele>344.3</ele>
        <time>2013-12-07T08:49:38Z</time>
      </trkpt>
      <trkpt lat="38.218671" lon="-1.552935">
        <ele>345.7</ele>
        <time>2013-12-07T08:49:43Z</time>
      </trkpt>
      <trkpt lat="38.218635" lon="-1.552964">
        <ele>345.7</ele>
        <time>2013-12-07T08:50:13Z</time>
      </trkpt>
      <trkpt lat="38.218594" lon="-1.552997">
        <ele>346.7</ele>
        <time>2013-12-07T08:50:53Z</time>
      </trkpt>
      <trkpt lat="38.218544" lon="-1.553043">
        <ele>346.2</ele>
        <time>2013-12-07T08:52:07Z</time>
      </trkpt>
      <trkpt lat="38.218540" lon="-1.553056">
        <ele>346.7</ele>
        <time>2013-12-07T08:52:14Z</time>
      </trkpt>
      <trkpt lat="38.218525" lon="-1.553064">
        <ele>346.2</ele>
        <time>2013-12-07T08:52:16Z</time>
      </trkpt>
      <trkpt lat="38.218458" lon="-1.553127">
        <ele>346.7</ele>
        <time>2013-12-07T08:52:24Z</time>
      </trkpt>
      <trkpt lat="38.218404" lon="-1.553191">
        <ele>347.2</ele>
        <time>2013-12-07T08:52:31Z</time>
      </trkpt>
      <trkpt lat="38.218370" lon="-1.553235">
        <ele>347.6</ele>
        <time>2013-12-07T08:52:35Z</time>
      </trkpt>
      <trkpt lat="38.218281" lon="-1.553314">
        <ele>348.6</ele>
        <time>2013-12-07T08:52:49Z</time>
      </trkpt>
      <trkpt lat="38.218255" lon="-1.553331">
        <ele>348.6</ele>
        <time>2013-12-07T08:53:06Z</time>
      </trkpt>
      <trkpt lat="38.218211" lon="-1.553345">
        <ele>348.6</ele>
        <time>2013-12-07T08:53:10Z</time>
      </trkpt>
      <trkpt lat="38.218029" lon="-1.553396">
        <ele>350.5</ele>
        <time>2013-12-07T08:53:24Z</time>
      </trkpt>
      <trkpt lat="38.217885" lon="-1.553600">
        <ele>351.0</ele>
        <time>2013-12-07T08:53:38Z</time>
      </trkpt>
      <trkpt lat="38.217863" lon="-1.553645">
        <ele>351.5</ele>
        <time>2013-12-07T08:53:41Z</time>
      </trkpt>
      <trkpt lat="38.217819" lon="-1.553722">
        <ele>352.0</ele>
        <time>2013-12-07T08:53:47Z</time>
      </trkpt>
      <trkpt lat="38.217874" lon="-1.554008">
        <ele>352.0</ele>
        <time>2013-12-07T08:54:03Z</time>
      </trkpt>
      <trkpt lat="38.218011" lon="-1.554218">
        <ele>353.9</ele>
        <time>2013-12-07T08:54:19Z</time>
      </trkpt>
      <trkpt lat="38.218070" lon="-1.554303">
        <ele>354.4</ele>
        <time>2013-12-07T08:54:26Z</time>
      </trkpt>
      <trkpt lat="38.218124" lon="-1.554396">
        <ele>354.9</ele>
        <time>2013-12-07T08:54:33Z</time>
      </trkpt>
      <trkpt lat="38.218143" lon="-1.554426">
        <ele>355.8</ele>
        <time>2013-12-07T08:54:35Z</time>
      </trkpt>
      <trkpt lat="38.218164" lon="-1.554520">
        <ele>355.8</ele>
        <time>2013-12-07T08:54:41Z</time>
      </trkpt>
      <trkpt lat="38.218176" lon="-1.554642">
        <ele>356.8</ele>
        <time>2013-12-07T08:54:49Z</time>
      </trkpt>
      <trkpt lat="38.218166" lon="-1.554877">
        <ele>358.2</ele>
        <time>2013-12-07T08:55:04Z</time>
      </trkpt>
      <trkpt lat="38.218155" lon="-1.554947">
        <ele>359.7</ele>
        <time>2013-12-07T08:55:09Z</time>
      </trkpt>
      <trkpt lat="38.218139" lon="-1.555100">
        <ele>360.1</ele>
        <time>2013-12-07T08:55:19Z</time>
      </trkpt>
      <trkpt lat="38.218129" lon="-1.555169">
        <ele>361.1</ele>
        <time>2013-12-07T08:55:24Z</time>
      </trkpt>
      <trkpt lat="38.218113" lon="-1.555261">
        <ele>361.1</ele>
        <time>2013-12-07T08:55:30Z</time>
      </trkpt>
      <trkpt lat="38.218090" lon="-1.555364">
        <ele>362.1</ele>
        <time>2013-12-07T08:55:37Z</time>
      </trkpt>
      <trkpt lat="38.218065" lon="-1.555576">
        <ele>363.5</ele>
        <time>2013-12-07T08:55:51Z</time>
      </trkpt>
      <trkpt lat="38.218049" lon="-1.555765">
        <ele>365.4</ele>
        <time>2013-12-07T08:56:04Z</time>
      </trkpt>
      <trkpt lat="38.218018" lon="-1.555974">
        <ele>366.9</ele>
        <time>2013-12-07T08:56:18Z</time>
      </trkpt>
      <trkpt lat="38.217994" lon="-1.556150">
        <ele>368.3</ele>
        <time>2013-12-07T08:56:30Z</time>
      </trkpt>
      <trkpt lat="38.217978" lon="-1.556207">
        <ele>368.8</ele>
        <time>2013-12-07T08:56:35Z</time>
      </trkpt>
      <trkpt lat="38.217956" lon="-1.556234">
        <ele>369.8</ele>
        <time>2013-12-07T08:56:38Z</time>
      </trkpt>
      <trkpt lat="38.217923" lon="-1.556307">
        <ele>370.7</ele>
        <time>2013-12-07T08:56:45Z</time>
      </trkpt>
      <trkpt lat="38.217896" lon="-1.556327">
        <ele>370.2</ele>
        <time>2013-12-07T08:56:48Z</time>
      </trkpt>
      <trkpt lat="38.217848" lon="-1.556370">
        <ele>371.7</ele>
        <time>2013-12-07T08:56:53Z</time>
      </trkpt>
      <trkpt lat="38.217809" lon="-1.556426">
        <ele>372.2</ele>
        <time>2013-12-07T08:56:58Z</time>
      </trkpt>
      <trkpt lat="38.217656" lon="-1.556579">
        <ele>374.1</ele>
        <time>2013-12-07T08:57:14Z</time>
      </trkpt>
      <trkpt lat="38.217568" lon="-1.556841">
        <ele>373.1</ele>
        <time>2013-12-07T08:57:30Z</time>
      </trkpt>
      <trkpt lat="38.217531" lon="-1.556966">
        <ele>373.1</ele>
        <time>2013-12-07T08:57:38Z</time>
      </trkpt>
      <trkpt lat="38.217481" lon="-1.557233">
        <ele>373.6</ele>
        <time>2013-12-07T08:57:54Z</time>
      </trkpt>
      <trkpt lat="38.217440" lon="-1.557401">
        <ele>374.6</ele>
        <time>2013-12-07T08:58:04Z</time>
      </trkpt>
      <trkpt lat="38.217451" lon="-1.557496">
        <ele>375.0</ele>
        <time>2013-12-07T08:58:15Z</time>
      </trkpt>
      <trkpt lat="38.217429" lon="-1.557629">
        <ele>375.0</ele>
        <time>2013-12-07T08:58:26Z</time>
      </trkpt>
      <trkpt lat="38.217376" lon="-1.557827">
        <ele>376.0</ele>
        <time>2013-12-07T08:58:39Z</time>
      </trkpt>
      <trkpt lat="38.217356" lon="-1.557865">
        <ele>377.0</ele>
        <time>2013-12-07T08:58:42Z</time>
      </trkpt>
      <trkpt lat="38.217263" lon="-1.558074">
        <ele>377.9</ele>
        <time>2013-12-07T08:58:57Z</time>
      </trkpt>
      <trkpt lat="38.217153" lon="-1.558265">
        <ele>378.9</ele>
        <time>2013-12-07T08:59:12Z</time>
      </trkpt>
      <trkpt lat="38.217013" lon="-1.558465">
        <ele>380.3</ele>
        <time>2013-12-07T08:59:29Z</time>
      </trkpt>
      <trkpt lat="38.216993" lon="-1.558480">
        <ele>380.8</ele>
        <time>2013-12-07T08:59:31Z</time>
      </trkpt>
      <trkpt lat="38.216819" lon="-1.558530">
        <ele>382.3</ele>
        <time>2013-12-07T08:59:46Z</time>
      </trkpt>
      <trkpt lat="38.216786" lon="-1.558526">
        <ele>382.3</ele>
        <time>2013-12-07T08:59:49Z</time>
      </trkpt>
      <trkpt lat="38.216690" lon="-1.558523">
        <ele>383.2</ele>
        <time>2013-12-07T08:59:57Z</time>
      </trkpt>
      <trkpt lat="38.216617" lon="-1.558522">
        <ele>383.7</ele>
        <time>2013-12-07T09:00:03Z</time>
      </trkpt>
      <trkpt lat="38.216525" lon="-1.558516">
        <ele>384.2</ele>
        <time>2013-12-07T09:00:11Z</time>
      </trkpt>
      <trkpt lat="38.216505" lon="-1.558515">
        <ele>383.7</ele>
        <time>2013-12-07T09:00:13Z</time>
      </trkpt>
      <trkpt lat="38.216466" lon="-1.558495">
        <ele>384.2</ele>
        <time>2013-12-07T09:00:17Z</time>
      </trkpt>
      <trkpt lat="38.216424" lon="-1.558488">
        <ele>384.7</ele>
        <time>2013-12-07T09:00:21Z</time>
      </trkpt>
      <trkpt lat="38.216341" lon="-1.558511">
        <ele>385.1</ele>
        <time>2013-12-07T09:00:30Z</time>
      </trkpt>
      <trkpt lat="38.216284" lon="-1.558509">
        <ele>385.1</ele>
        <time>2013-12-07T09:00:35Z</time>
      </trkpt>
      <trkpt lat="38.216261" lon="-1.558511">
        <ele>385.6</ele>
        <time>2013-12-07T09:00:37Z</time>
      </trkpt>
      <trkpt lat="38.216241" lon="-1.558523">
        <ele>385.6</ele>
        <time>2013-12-07T09:00:39Z</time>
      </trkpt>
      <trkpt lat="38.216173" lon="-1.558563">
        <ele>386.6</ele>
        <time>2013-12-07T09:00:49Z</time>
      </trkpt>
      <trkpt lat="38.216114" lon="-1.558601">
        <ele>388.0</ele>
        <time>2013-12-07T09:01:02Z</time>
      </trkpt>
      <trkpt lat="38.216113" lon="-1.558606">
        <ele>387.5</ele>
        <time>2013-12-07T09:01:03Z</time>
      </trkpt>
      <trkpt lat="38.216001" lon="-1.558702">
        <ele>388.0</ele>
        <time>2013-12-07T09:01:15Z</time>
      </trkpt>
      <trkpt lat="38.215995" lon="-1.558710">
        <ele>388.0</ele>
        <time>2013-12-07T09:01:18Z</time>
      </trkpt>
      <trkpt lat="38.215803" lon="-1.558829">
        <ele>388.0</ele>
        <time>2013-12-07T09:01:34Z</time>
      </trkpt>
      <trkpt lat="38.215656" lon="-1.558979">
        <ele>388.5</ele>
        <time>2013-12-07T09:01:49Z</time>
      </trkpt>
      <trkpt lat="38.215521" lon="-1.559061">
        <ele>390.0</ele>
        <time>2013-12-07T09:02:01Z</time>
      </trkpt>
      <trkpt lat="38.215449" lon="-1.559128">
        <ele>390.0</ele>
        <time>2013-12-07T09:02:12Z</time>
      </trkpt>
      <trkpt lat="38.215402" lon="-1.559152">
        <ele>390.4</ele>
        <time>2013-12-07T09:02:22Z</time>
      </trkpt>
      <trkpt lat="38.215324" lon="-1.559205">
        <ele>390.9</ele>
        <time>2013-12-07T09:02:30Z</time>
      </trkpt>
      <trkpt lat="38.215259" lon="-1.559268">
        <ele>391.9</ele>
        <time>2013-12-07T09:02:40Z</time>
      </trkpt>
      <trkpt lat="38.215236" lon="-1.559293">
        <ele>391.9</ele>
        <time>2013-12-07T09:02:48Z</time>
      </trkpt>
      <trkpt lat="38.215182" lon="-1.559347">
        <ele>392.4</ele>
        <time>2013-12-07T09:03:01Z</time>
      </trkpt>
      <trkpt lat="38.215158" lon="-1.559371">
        <ele>392.4</ele>
        <time>2013-12-07T09:03:11Z</time>
      </trkpt>
      <trkpt lat="38.215085" lon="-1.559402">
        <ele>392.8</ele>
        <time>2013-12-07T09:03:21Z</time>
      </trkpt>
      <trkpt lat="38.215069" lon="-1.559407">
        <ele>392.8</ele>
        <time>2013-12-07T09:03:23Z</time>
      </trkpt>
      <trkpt lat="38.215023" lon="-1.559441">
        <ele>393.8</ele>
        <time>2013-12-07T09:03:28Z</time>
      </trkpt>
      <trkpt lat="38.214903" lon="-1.559488">
        <ele>394.3</ele>
        <time>2013-12-07T09:03:38Z</time>
      </trkpt>
      <trkpt lat="38.214793" lon="-1.559551">
        <ele>393.8</ele>
        <time>2013-12-07T09:03:48Z</time>
      </trkpt>
      <trkpt lat="38.214570" lon="-1.559653">
        <ele>395.2</ele>
        <time>2013-12-07T09:04:07Z</time>
      </trkpt>
      <trkpt lat="38.214487" lon="-1.559673">
        <ele>395.2</ele>
        <time>2013-12-07T09:04:13Z</time>
      </trkpt>
      <trkpt lat="38.214445" lon="-1.559710">
        <ele>395.2</ele>
        <time>2013-12-07T09:04:17Z</time>
      </trkpt>
      <trkpt lat="38.214253" lon="-1.559824">
        <ele>395.7</ele>
        <time>2013-12-07T09:04:34Z</time>
      </trkpt>
      <trkpt lat="38.214048" lon="-1.559936">
        <ele>395.7</ele>
        <time>2013-12-07T09:04:51Z</time>
      </trkpt>
      <trkpt lat="38.213838" lon="-1.560058">
        <ele>395.2</ele>
        <time>2013-12-07T09:05:08Z</time>
      </trkpt>
      <trkpt lat="38.213788" lon="-1.560083">
        <ele>395.7</ele>
        <time>2013-12-07T09:05:13Z</time>
      </trkpt>
      <trkpt lat="38.213568" lon="-1.560201">
        <ele>396.2</ele>
        <time>2013-12-07T09:05:31Z</time>
      </trkpt>
      <trkpt lat="38.213361" lon="-1.560267">
        <ele>396.7</ele>
        <time>2013-12-07T09:05:46Z</time>
      </trkpt>
      <trkpt lat="38.213191" lon="-1.560255">
        <ele>397.6</ele>
        <time>2013-12-07T09:06:00Z</time>
      </trkpt>
      <trkpt lat="38.213139" lon="-1.560269">
        <ele>397.6</ele>
        <time>2013-12-07T09:06:04Z</time>
      </trkpt>
      <trkpt lat="38.212949" lon="-1.560284">
        <ele>399.1</ele>
        <time>2013-12-07T09:06:20Z</time>
      </trkpt>
      <trkpt lat="38.212809" lon="-1.560277">
        <ele>399.6</ele>
        <time>2013-12-07T09:06:34Z</time>
      </trkpt>
      <trkpt lat="38.212725" lon="-1.560263">
        <ele>399.6</ele>
        <time>2013-12-07T09:06:43Z</time>
      </trkpt>
      <trkpt lat="38.212521" lon="-1.560269">
        <ele>400.5</ele>
        <time>2013-12-07T09:06:58Z</time>
      </trkpt>
      <trkpt lat="38.212305" lon="-1.560392">
        <ele>402.5</ele>
        <time>2013-12-07T09:07:15Z</time>
      </trkpt>
      <trkpt lat="38.212282" lon="-1.560423">
        <ele>402.0</ele>
        <time>2013-12-07T09:07:19Z</time>
      </trkpt>
      <trkpt lat="38.212117" lon="-1.560458">
        <ele>402.9</ele>
        <time>2013-12-07T09:07:32Z</time>
      </trkpt>
      <trkpt lat="38.211883" lon="-1.560553">
        <ele>401.5</ele>
        <time>2013-12-07T09:07:50Z</time>
      </trkpt>
      <trkpt lat="38.211687" lon="-1.560582">
        <ele>401.0</ele>
        <time>2013-12-07T09:08:05Z</time>
      </trkpt>
      <trkpt lat="38.211445" lon="-1.560554">
        <ele>400.5</ele>
        <time>2013-12-07T09:08:22Z</time>
      </trkpt>
      <trkpt lat="38.211245" lon="-1.560438">
        <ele>400.5</ele>
        <time>2013-12-07T09:08:38Z</time>
      </trkpt>
      <trkpt lat="38.211049" lon="-1.560346">
        <ele>401.0</ele>
        <time>2013-12-07T09:08:54Z</time>
      </trkpt>
      <trkpt lat="38.210922" lon="-1.560274">
        <ele>400.5</ele>
        <time>2013-12-07T09:09:08Z</time>
      </trkpt>
      <trkpt lat="38.210768" lon="-1.560326">
        <ele>403.4</ele>
        <time>2013-12-07T09:51:41Z</time>
      </trkpt>
      <trkpt lat="38.210746" lon="-1.560380">
        <ele>403.9</ele>
        <time>2013-12-07T09:51:46Z</time>
      </trkpt>
      <trkpt lat="38.210716" lon="-1.560444">
        <ele>403.9</ele>
        <time>2013-12-07T09:51:52Z</time>
      </trkpt>
      <trkpt lat="38.210636" lon="-1.560650">
        <ele>404.4</ele>
        <time>2013-12-07T09:52:09Z</time>
      </trkpt>
      <trkpt lat="38.210490" lon="-1.560764">
        <ele>403.9</ele>
        <time>2013-12-07T09:52:24Z</time>
      </trkpt>
      <trkpt lat="38.210434" lon="-1.560799">
        <ele>403.9</ele>
        <time>2013-12-07T09:52:29Z</time>
      </trkpt>
      <trkpt lat="38.210413" lon="-1.560807">
        <ele>403.9</ele>
        <time>2013-12-07T09:52:31Z</time>
      </trkpt>
      <trkpt lat="38.210227" lon="-1.560898">
        <ele>404.4</ele>
        <time>2013-12-07T09:52:48Z</time>
      </trkpt>
      <trkpt lat="38.210047" lon="-1.560999">
        <ele>403.4</ele>
        <time>2013-12-07T09:53:04Z</time>
      </trkpt>
      <trkpt lat="38.209874" lon="-1.561030">
        <ele>403.4</ele>
        <time>2013-12-07T09:53:19Z</time>
      </trkpt>
      <trkpt lat="38.209707" lon="-1.561017">
        <ele>402.9</ele>
        <time>2013-12-07T09:53:33Z</time>
      </trkpt>
      <trkpt lat="38.209549" lon="-1.561010">
        <ele>402.0</ele>
        <time>2013-12-07T09:53:46Z</time>
      </trkpt>
      <trkpt lat="38.209510" lon="-1.561004">
        <ele>401.5</ele>
        <time>2013-12-07T09:53:49Z</time>
      </trkpt>
      <trkpt lat="38.209314" lon="-1.560970">
        <ele>401.0</ele>
        <time>2013-12-07T09:54:05Z</time>
      </trkpt>
      <trkpt lat="38.209096" lon="-1.560891">
        <ele>400.0</ele>
        <time>2013-12-07T09:54:23Z</time>
      </trkpt>
      <trkpt lat="38.208852" lon="-1.560783">
        <ele>399.6</ele>
        <time>2013-12-07T09:54:42Z</time>
      </trkpt>
      <trkpt lat="38.208603" lon="-1.560836">
        <ele>398.1</ele>
        <time>2013-12-07T09:55:23Z</time>
      </trkpt>
      <trkpt lat="38.208494" lon="-1.560884">
        <ele>397.2</ele>
        <time>2013-12-07T09:55:33Z</time>
      </trkpt>
      <trkpt lat="38.208409" lon="-1.560907">
        <ele>396.7</ele>
        <time>2013-12-07T09:55:39Z</time>
      </trkpt>
      <trkpt lat="38.208338" lon="-1.560921">
        <ele>395.7</ele>
        <time>2013-12-07T09:56:05Z</time>
      </trkpt>
      <trkpt lat="38.208092" lon="-1.561054">
        <ele>394.8</ele>
        <time>2013-12-07T09:56:23Z</time>
      </trkpt>
      <trkpt lat="38.207820" lon="-1.561191">
        <ele>392.4</ele>
        <time>2013-12-07T09:56:42Z</time>
      </trkpt>
      <trkpt lat="38.207677" lon="-1.561237">
        <ele>392.4</ele>
        <time>2013-12-07T09:56:52Z</time>
      </trkpt>
      <trkpt lat="38.207638" lon="-1.561260">
        <ele>390.9</ele>
        <time>2013-12-07T09:57:02Z</time>
      </trkpt>
      <trkpt lat="38.207640" lon="-1.561266">
        <ele>390.4</ele>
        <time>2013-12-07T09:57:12Z</time>
      </trkpt>
      <trkpt lat="38.207633" lon="-1.561261">
        <ele>391.9</ele>
        <time>2013-12-07T09:57:16Z</time>
      </trkpt>
      <trkpt lat="38.207570" lon="-1.561282">
        <ele>392.4</ele>
        <time>2013-12-07T09:57:21Z</time>
      </trkpt>
      <trkpt lat="38.207295" lon="-1.561318">
        <ele>391.9</ele>
        <time>2013-12-07T09:57:39Z</time>
      </trkpt>
      <trkpt lat="38.207206" lon="-1.561365">
        <ele>391.4</ele>
        <time>2013-12-07T09:57:52Z</time>
      </trkpt>
      <trkpt lat="38.207217" lon="-1.561367">
        <ele>390.9</ele>
        <time>2013-12-07T09:58:10Z</time>
      </trkpt>
      <trkpt lat="38.207211" lon="-1.561361">
        <ele>390.4</ele>
        <time>2013-12-07T09:58:21Z</time>
      </trkpt>
      <trkpt lat="38.207094" lon="-1.561356">
        <ele>390.4</ele>
        <time>2013-12-07T09:58:34Z</time>
      </trkpt>
      <trkpt lat="38.206882" lon="-1.561380">
        <ele>389.0</ele>
        <time>2013-12-07T09:58:48Z</time>
      </trkpt>
      <trkpt lat="38.206785" lon="-1.561485">
        <ele>388.5</ele>
        <time>2013-12-07T09:59:02Z</time>
      </trkpt>
      <trkpt lat="38.206790" lon="-1.561492">
        <ele>388.0</ele>
        <time>2013-12-07T09:59:30Z</time>
      </trkpt>
      <trkpt lat="38.206618" lon="-1.561661">
        <ele>387.5</ele>
        <time>2013-12-07T09:59:45Z</time>
      </trkpt>
      <trkpt lat="38.206424" lon="-1.561909">
        <ele>387.1</ele>
        <time>2013-12-07T10:00:04Z</time>
      </trkpt>
      <trkpt lat="38.206348" lon="-1.561979">
        <ele>387.5</ele>
        <time>2013-12-07T10:00:17Z</time>
      </trkpt>
      <trkpt lat="38.206335" lon="-1.561993">
        <ele>387.5</ele>
        <time>2013-12-07T10:00:25Z</time>
      </trkpt>
      <trkpt lat="38.206097" lon="-1.562277">
        <ele>387.1</ele>
        <time>2013-12-07T10:00:46Z</time>
      </trkpt>
      <trkpt lat="38.205882" lon="-1.562555">
        <ele>385.6</ele>
        <time>2013-12-07T10:01:06Z</time>
      </trkpt>
      <trkpt lat="38.205604" lon="-1.562732">
        <ele>386.1</ele>
        <time>2013-12-07T10:01:25Z</time>
      </trkpt>
      <trkpt lat="38.205317" lon="-1.562869">
        <ele>387.1</ele>
        <time>2013-12-07T10:01:44Z</time>
      </trkpt>
      <trkpt lat="38.205089" lon="-1.563015">
        <ele>386.6</ele>
        <time>2013-12-07T10:02:01Z</time>
      </trkpt>
      <trkpt lat="38.204883" lon="-1.563340">
        <ele>385.1</ele>
        <time>2013-12-07T10:02:22Z</time>
      </trkpt>
      <trkpt lat="38.204715" lon="-1.563691">
        <ele>383.2</ele>
        <time>2013-12-07T10:02:42Z</time>
      </trkpt>
      <trkpt lat="38.204560" lon="-1.563921">
        <ele>383.2</ele>
        <time>2013-12-07T10:02:59Z</time>
      </trkpt>
      <trkpt lat="38.204447" lon="-1.564026">
        <ele>382.3</ele>
        <time>2013-12-07T10:03:09Z</time>
      </trkpt>
      <trkpt lat="38.204150" lon="-1.564297">
        <ele>380.3</ele>
        <time>2013-12-07T10:03:32Z</time>
      </trkpt>
      <trkpt lat="38.204023" lon="-1.564572">
        <ele>377.0</ele>
        <time>2013-12-07T10:03:49Z</time>
      </trkpt>
      <trkpt lat="38.204041" lon="-1.564881">
        <ele>374.1</ele>
        <time>2013-12-07T10:04:06Z</time>
      </trkpt>
      <trkpt lat="38.204054" lon="-1.565221">
        <ele>370.7</ele>
        <time>2013-12-07T10:04:25Z</time>
      </trkpt>
      <trkpt lat="38.203938" lon="-1.565467">
        <ele>369.3</ele>
        <time>2013-12-07T10:04:41Z</time>
      </trkpt>
      <trkpt lat="38.203817" lon="-1.565838">
        <ele>366.9</ele>
        <time>2013-12-07T10:05:03Z</time>
      </trkpt>
      <trkpt lat="38.203629" lon="-1.566086">
        <ele>365.0</ele>
        <time>2013-12-07T10:05:22Z</time>
      </trkpt>
      <trkpt lat="38.203343" lon="-1.566227">
        <ele>364.0</ele>
        <time>2013-12-07T10:05:43Z</time>
      </trkpt>
      <trkpt lat="38.203197" lon="-1.566475">
        <ele>363.5</ele>
        <time>2013-12-07T10:06:00Z</time>
      </trkpt>
      <trkpt lat="38.203086" lon="-1.566817">
        <ele>362.1</ele>
        <time>2013-12-07T10:06:20Z</time>
      </trkpt>
      <trkpt lat="38.202940" lon="-1.567074">
        <ele>361.1</ele>
        <time>2013-12-07T10:06:37Z</time>
      </trkpt>
      <trkpt lat="38.202795" lon="-1.567385">
        <ele>359.7</ele>
        <time>2013-12-07T10:06:56Z</time>
      </trkpt>
      <trkpt lat="38.202613" lon="-1.567758">
        <ele>357.8</ele>
        <time>2013-12-07T10:07:19Z</time>
      </trkpt>
      <trkpt lat="38.202482" lon="-1.568068">
        <ele>357.3</ele>
        <time>2013-12-07T10:07:38Z</time>
      </trkpt>
      <trkpt lat="38.202368" lon="-1.568406">
        <ele>353.9</ele>
        <time>2013-12-07T10:07:57Z</time>
      </trkpt>
      <trkpt lat="38.202230" lon="-1.568635">
        <ele>351.0</ele>
        <time>2013-12-07T10:08:12Z</time>
      </trkpt>
      <trkpt lat="38.202075" lon="-1.568956">
        <ele>349.1</ele>
        <time>2013-12-07T10:08:32Z</time>
      </trkpt>
      <trkpt lat="38.201979" lon="-1.569241">
        <ele>349.6</ele>
        <time>2013-12-07T10:08:49Z</time>
      </trkpt>
      <trkpt lat="38.201972" lon="-1.569285">
        <ele>350.1</ele>
        <time>2013-12-07T10:08:52Z</time>
      </trkpt>
      <trkpt lat="38.201946" lon="-1.569409">
        <ele>351.5</ele>
        <time>2013-12-07T10:09:05Z</time>
      </trkpt>
      <trkpt lat="38.201927" lon="-1.569459">
        <ele>352.0</ele>
        <time>2013-12-07T10:09:22Z</time>
      </trkpt>
      <trkpt lat="38.201925" lon="-1.569488">
        <ele>352.0</ele>
        <time>2013-12-07T10:09:24Z</time>
      </trkpt>
      <trkpt lat="38.201910" lon="-1.569550">
        <ele>352.5</ele>
        <time>2013-12-07T10:09:28Z</time>
      </trkpt>
      <trkpt lat="38.201876" lon="-1.569765">
        <ele>354.4</ele>
        <time>2013-12-07T10:09:41Z</time>
      </trkpt>
      <trkpt lat="38.201798" lon="-1.570031">
        <ele>355.8</ele>
        <time>2013-12-07T10:09:57Z</time>
      </trkpt>
      <trkpt lat="38.201582" lon="-1.570156">
        <ele>356.8</ele>
        <time>2013-12-07T10:10:15Z</time>
      </trkpt>
      <trkpt lat="38.201491" lon="-1.570157">
        <ele>357.8</ele>
        <time>2013-12-07T10:10:22Z</time>
      </trkpt>
      <trkpt lat="38.201404" lon="-1.570159">
        <ele>359.2</ele>
        <time>2013-12-07T10:10:29Z</time>
      </trkpt>
      <trkpt lat="38.201159" lon="-1.570151">
        <ele>360.6</ele>
        <time>2013-12-07T10:10:47Z</time>
      </trkpt>
      <trkpt lat="38.200961" lon="-1.570132">
        <ele>362.1</ele>
        <time>2013-12-07T10:11:02Z</time>
      </trkpt>
      <trkpt lat="38.200946" lon="-1.570135">
        <ele>362.1</ele>
        <time>2013-12-07T10:11:03Z</time>
      </trkpt>
      <trkpt lat="38.200767" lon="-1.570191">
        <ele>363.5</ele>
        <time>2013-12-07T10:11:18Z</time>
      </trkpt>
      <trkpt lat="38.200597" lon="-1.570348">
        <ele>364.5</ele>
        <time>2013-12-07T10:11:34Z</time>
      </trkpt>
      <trkpt lat="38.200364" lon="-1.570509">
        <ele>366.4</ele>
        <time>2013-12-07T10:11:53Z</time>
      </trkpt>
      <trkpt lat="38.200194" lon="-1.570684">
        <ele>367.4</ele>
        <time>2013-12-07T10:12:09Z</time>
      </trkpt>
      <trkpt lat="38.200058" lon="-1.570928">
        <ele>367.4</ele>
        <time>2013-12-07T10:12:26Z</time>
      </trkpt>
      <trkpt lat="38.199858" lon="-1.570963">
        <ele>370.2</ele>
        <time>2013-12-07T10:12:41Z</time>
      </trkpt>
      <trkpt lat="38.199651" lon="-1.570980">
        <ele>371.2</ele>
        <time>2013-12-07T10:12:57Z</time>
      </trkpt>
      <trkpt lat="38.199511" lon="-1.570926">
        <ele>372.2</ele>
        <time>2013-12-07T10:13:08Z</time>
      </trkpt>
      <trkpt lat="38.199446" lon="-1.570897">
        <ele>373.1</ele>
        <time>2013-12-07T10:13:14Z</time>
      </trkpt>
      <trkpt lat="38.199402" lon="-1.570877">
        <ele>373.6</ele>
        <time>2013-12-07T10:13:18Z</time>
      </trkpt>
      <trkpt lat="38.199225" lon="-1.570782">
        <ele>376.5</ele>
        <time>2013-12-07T10:13:34Z</time>
      </trkpt>
      <trkpt lat="38.198996" lon="-1.570726">
        <ele>377.0</ele>
        <time>2013-12-07T10:13:51Z</time>
      </trkpt>
      <trkpt lat="38.198783" lon="-1.570689">
        <ele>377.9</ele>
        <time>2013-12-07T10:14:07Z</time>
      </trkpt>
      <trkpt lat="38.198575" lon="-1.570657">
        <ele>378.9</ele>
        <time>2013-12-07T10:14:23Z</time>
      </trkpt>
      <trkpt lat="38.198326" lon="-1.570681">
        <ele>380.8</ele>
        <time>2013-12-07T10:14:40Z</time>
      </trkpt>
      <trkpt lat="38.198095" lon="-1.570733">
        <ele>381.3</ele>
        <time>2013-12-07T10:14:57Z</time>
      </trkpt>
      <trkpt lat="38.197913" lon="-1.570780">
        <ele>383.2</ele>
        <time>2013-12-07T10:15:12Z</time>
      </trkpt>
      <trkpt lat="38.197855" lon="-1.570790">
        <ele>383.7</ele>
        <time>2013-12-07T10:15:17Z</time>
      </trkpt>
      <trkpt lat="38.197713" lon="-1.570838">
        <ele>382.3</ele>
        <time>2013-12-07T10:15:29Z</time>
      </trkpt>
      <trkpt lat="38.197638" lon="-1.570869">
        <ele>383.2</ele>
        <time>2013-12-07T10:15:35Z</time>
      </trkpt>
      <trkpt lat="38.197609" lon="-1.570926">
        <ele>383.7</ele>
        <time>2013-12-07T10:15:39Z</time>
      </trkpt>
      <trkpt lat="38.197592" lon="-1.570956">
        <ele>383.7</ele>
        <time>2013-12-07T10:15:42Z</time>
      </trkpt>
      <trkpt lat="38.197591" lon="-1.571074">
        <ele>384.2</ele>
        <time>2013-12-07T10:15:49Z</time>
      </trkpt>
      <trkpt lat="38.197585" lon="-1.571324">
        <ele>384.2</ele>
        <time>2013-12-07T10:16:03Z</time>
      </trkpt>
      <trkpt lat="38.197568" lon="-1.571457">
        <ele>384.7</ele>
        <time>2013-12-07T10:16:11Z</time>
      </trkpt>
      <trkpt lat="38.197561" lon="-1.571498">
        <ele>387.5</ele>
        <time>2013-12-07T10:16:14Z</time>
      </trkpt>
      <trkpt lat="38.197555" lon="-1.571528">
        <ele>384.2</ele>
        <time>2013-12-07T10:16:16Z</time>
      </trkpt>
      <trkpt lat="38.197503" lon="-1.571714">
        <ele>384.2</ele>
        <time>2013-12-07T10:16:32Z</time>
      </trkpt>
      <trkpt lat="38.197484" lon="-1.571757">
        <ele>385.1</ele>
        <time>2013-12-07T10:16:46Z</time>
      </trkpt>
      <trkpt lat="38.197467" lon="-1.571768">
        <ele>386.1</ele>
        <time>2013-12-07T10:20:40Z</time>
      </trkpt>
      <trkpt lat="38.197438" lon="-1.571853">
        <ele>386.1</ele>
        <time>2013-12-07T10:20:53Z</time>
      </trkpt>
      <trkpt lat="38.197426" lon="-1.571882">
        <ele>386.1</ele>
        <time>2013-12-07T10:21:07Z</time>
      </trkpt>
      <trkpt lat="38.197348" lon="-1.571946">
        <ele>386.1</ele>
        <time>2013-12-07T10:21:16Z</time>
      </trkpt>
      <trkpt lat="38.197333" lon="-1.571965">
        <ele>386.1</ele>
        <time>2013-12-07T10:21:18Z</time>
      </trkpt>
      <trkpt lat="38.197230" lon="-1.572036">
        <ele>386.6</ele>
        <time>2013-12-07T10:21:29Z</time>
      </trkpt>
      <trkpt lat="38.197179" lon="-1.572043">
        <ele>386.1</ele>
        <time>2013-12-07T10:21:33Z</time>
      </trkpt>
      <trkpt lat="38.197109" lon="-1.572092">
        <ele>385.6</ele>
        <time>2013-12-07T10:22:26Z</time>
      </trkpt>
      <trkpt lat="38.197060" lon="-1.572105">
        <ele>385.6</ele>
        <time>2013-12-07T10:22:30Z</time>
      </trkpt>
      <trkpt lat="38.196775" lon="-1.572187">
        <ele>382.7</ele>
        <time>2013-12-07T10:22:49Z</time>
      </trkpt>
      <trkpt lat="38.196562" lon="-1.572299">
        <ele>380.3</ele>
        <time>2013-12-07T10:23:05Z</time>
      </trkpt>
      <trkpt lat="38.196309" lon="-1.572406">
        <ele>378.4</ele>
        <time>2013-12-07T10:23:21Z</time>
      </trkpt>
      <trkpt lat="38.196062" lon="-1.572438">
        <ele>377.5</ele>
        <time>2013-12-07T10:23:38Z</time>
      </trkpt>
      <trkpt lat="38.196030" lon="-1.572452">
        <ele>377.5</ele>
        <time>2013-12-07T10:23:42Z</time>
      </trkpt>
      <trkpt lat="38.195952" lon="-1.572448">
        <ele>377.5</ele>
        <time>2013-12-07T10:23:49Z</time>
      </trkpt>
      <trkpt lat="38.195665" lon="-1.572527">
        <ele>377.5</ele>
        <time>2013-12-07T10:24:10Z</time>
      </trkpt>
      <trkpt lat="38.195441" lon="-1.572690">
        <ele>377.5</ele>
        <time>2013-12-07T10:24:28Z</time>
      </trkpt>
      <trkpt lat="38.195276" lon="-1.572882">
        <ele>378.4</ele>
        <time>2013-12-07T10:24:44Z</time>
      </trkpt>
      <trkpt lat="38.195161" lon="-1.573060">
        <ele>377.9</ele>
        <time>2013-12-07T10:24:58Z</time>
      </trkpt>
      <trkpt lat="38.194986" lon="-1.573247">
        <ele>377.9</ele>
        <time>2013-12-07T10:25:15Z</time>
      </trkpt>
      <trkpt lat="38.194812" lon="-1.573441">
        <ele>377.0</ele>
        <time>2013-12-07T10:25:31Z</time>
      </trkpt>
      <trkpt lat="38.194726" lon="-1.573527">
        <ele>376.0</ele>
        <time>2013-12-07T10:25:44Z</time>
      </trkpt>
      <trkpt lat="38.194679" lon="-1.573549">
        <ele>375.5</ele>
        <time>2013-12-07T10:25:48Z</time>
      </trkpt>
      <trkpt lat="38.194643" lon="-1.573562">
        <ele>375.0</ele>
        <time>2013-12-07T10:26:00Z</time>
      </trkpt>
      <trkpt lat="38.194453" lon="-1.573645">
        <ele>374.6</ele>
        <time>2013-12-07T10:26:15Z</time>
      </trkpt>
      <trkpt lat="38.194439" lon="-1.573651">
        <ele>374.1</ele>
        <time>2013-12-07T10:26:16Z</time>
      </trkpt>
      <trkpt lat="38.194373" lon="-1.573672">
        <ele>373.6</ele>
        <time>2013-12-07T10:26:21Z</time>
      </trkpt>
      <trkpt lat="38.194330" lon="-1.573703">
        <ele>374.1</ele>
        <time>2013-12-07T10:26:27Z</time>
      </trkpt>
      <trkpt lat="38.194140" lon="-1.573744">
        <ele>373.6</ele>
        <time>2013-12-07T10:26:44Z</time>
      </trkpt>
      <trkpt lat="38.193999" lon="-1.573783">
        <ele>373.1</ele>
        <time>2013-12-07T10:26:55Z</time>
      </trkpt>
      <trkpt lat="38.193790" lon="-1.573891">
        <ele>373.6</ele>
        <time>2013-12-07T10:27:11Z</time>
      </trkpt>
      <trkpt lat="38.193555" lon="-1.574059">
        <ele>373.6</ele>
        <time>2013-12-07T10:27:30Z</time>
      </trkpt>
      <trkpt lat="38.193405" lon="-1.574150">
        <ele>373.6</ele>
        <time>2013-12-07T10:27:42Z</time>
      </trkpt>
      <trkpt lat="38.193152" lon="-1.574313">
        <ele>374.6</ele>
        <time>2013-12-07T10:28:01Z</time>
      </trkpt>
      <trkpt lat="38.192937" lon="-1.574455">
        <ele>374.6</ele>
        <time>2013-12-07T10:28:17Z</time>
      </trkpt>
      <trkpt lat="38.192808" lon="-1.574572">
        <ele>374.6</ele>
        <time>2013-12-07T10:28:29Z</time>
      </trkpt>
      <trkpt lat="38.192639" lon="-1.574736">
        <ele>374.1</ele>
        <time>2013-12-07T10:28:44Z</time>
      </trkpt>
      <trkpt lat="38.192416" lon="-1.574878">
        <ele>373.1</ele>
        <time>2013-12-07T10:29:01Z</time>
      </trkpt>
      <trkpt lat="38.192127" lon="-1.574975">
        <ele>372.6</ele>
        <time>2013-12-07T10:29:21Z</time>
      </trkpt>
      <trkpt lat="38.191870" lon="-1.575110">
        <ele>372.2</ele>
        <time>2013-12-07T10:29:40Z</time>
      </trkpt>
      <trkpt lat="38.191636" lon="-1.575253">
        <ele>371.7</ele>
        <time>2013-12-07T10:29:58Z</time>
      </trkpt>
      <trkpt lat="38.191452" lon="-1.575388">
        <ele>371.7</ele>
        <time>2013-12-07T10:30:13Z</time>
      </trkpt>
      <trkpt lat="38.191233" lon="-1.575695">
        <ele>370.7</ele>
        <time>2013-12-07T10:30:35Z</time>
      </trkpt>
      <trkpt lat="38.191082" lon="-1.575997">
        <ele>370.2</ele>
        <time>2013-12-07T10:30:54Z</time>
      </trkpt>
      <trkpt lat="38.190938" lon="-1.576297">
        <ele>370.2</ele>
        <time>2013-12-07T10:31:13Z</time>
      </trkpt>
      <trkpt lat="38.190740" lon="-1.576667">
        <ele>369.3</ele>
        <time>2013-12-07T10:31:37Z</time>
      </trkpt>
      <trkpt lat="38.190602" lon="-1.576901">
        <ele>369.3</ele>
        <time>2013-12-07T10:31:53Z</time>
      </trkpt>
      <trkpt lat="38.190438" lon="-1.577178">
        <ele>369.3</ele>
        <time>2013-12-07T10:32:12Z</time>
      </trkpt>
      <trkpt lat="38.190407" lon="-1.577257">
        <ele>369.3</ele>
        <time>2013-12-07T10:32:17Z</time>
      </trkpt>
      <trkpt lat="38.190348" lon="-1.577314">
        <ele>368.8</ele>
        <time>2013-12-07T10:33:02Z</time>
      </trkpt>
      <trkpt lat="38.190174" lon="-1.577615">
        <ele>370.7</ele>
        <time>2013-12-07T10:33:20Z</time>
      </trkpt>
      <trkpt lat="38.190058" lon="-1.577809">
        <ele>371.7</ele>
        <time>2013-12-07T10:33:34Z</time>
      </trkpt>
      <trkpt lat="38.189912" lon="-1.578020">
        <ele>372.2</ele>
        <time>2013-12-07T10:33:50Z</time>
      </trkpt>
      <trkpt lat="38.189712" lon="-1.578245">
        <ele>371.7</ele>
        <time>2013-12-07T10:34:08Z</time>
      </trkpt>
      <trkpt lat="38.189620" lon="-1.578328">
        <ele>370.7</ele>
        <time>2013-12-07T10:34:16Z</time>
      </trkpt>
      <trkpt lat="38.189418" lon="-1.578522">
        <ele>369.8</ele>
        <time>2013-12-07T10:34:34Z</time>
      </trkpt>
      <trkpt lat="38.189233" lon="-1.578691">
        <ele>369.3</ele>
        <time>2013-12-07T10:34:51Z</time>
      </trkpt>
      <trkpt lat="38.189166" lon="-1.578767">
        <ele>368.8</ele>
        <time>2013-12-07T10:34:57Z</time>
      </trkpt>
      <trkpt lat="38.188949" lon="-1.578948">
        <ele>369.8</ele>
        <time>2013-12-07T10:35:16Z</time>
      </trkpt>
      <trkpt lat="38.188786" lon="-1.579119">
        <ele>369.3</ele>
        <time>2013-12-07T10:35:32Z</time>
      </trkpt>
      <trkpt lat="38.188709" lon="-1.579182">
        <ele>369.8</ele>
        <time>2013-12-07T10:35:38Z</time>
      </trkpt>
      <trkpt lat="38.188550" lon="-1.579424">
        <ele>369.3</ele>
        <time>2013-12-07T10:35:56Z</time>
      </trkpt>
      <trkpt lat="38.188389" lon="-1.579651">
        <ele>369.8</ele>
        <time>2013-12-07T10:36:14Z</time>
      </trkpt>
      <trkpt lat="38.188243" lon="-1.579867">
        <ele>369.8</ele>
        <time>2013-12-07T10:36:30Z</time>
      </trkpt>
      <trkpt lat="38.188088" lon="-1.580094">
        <ele>369.3</ele>
        <time>2013-12-07T10:36:46Z</time>
      </trkpt>
      <trkpt lat="38.187865" lon="-1.580351">
        <ele>368.3</ele>
        <time>2013-12-07T10:37:07Z</time>
      </trkpt>
      <trkpt lat="38.187670" lon="-1.580563">
        <ele>366.9</ele>
        <time>2013-12-07T10:37:25Z</time>
      </trkpt>
      <trkpt lat="38.187485" lon="-1.580768">
        <ele>365.4</ele>
        <time>2013-12-07T10:37:43Z</time>
      </trkpt>
      <trkpt lat="38.187327" lon="-1.581033">
        <ele>364.0</ele>
        <time>2013-12-07T10:38:02Z</time>
      </trkpt>
      <trkpt lat="38.187184" lon="-1.581243">
        <ele>363.5</ele>
        <time>2013-12-07T10:38:18Z</time>
      </trkpt>
      <trkpt lat="38.187010" lon="-1.581493">
        <ele>363.5</ele>
        <time>2013-12-07T10:38:37Z</time>
      </trkpt>
      <trkpt lat="38.186838" lon="-1.581779">
        <ele>363.0</ele>
        <time>2013-12-07T10:38:57Z</time>
      </trkpt>
      <trkpt lat="38.186772" lon="-1.581884">
        <ele>363.5</ele>
        <time>2013-12-07T10:39:08Z</time>
      </trkpt>
      <trkpt lat="38.186763" lon="-1.581905">
        <ele>363.5</ele>
        <time>2013-12-07T10:39:12Z</time>
      </trkpt>
      <trkpt lat="38.186681" lon="-1.581990">
        <ele>363.5</ele>
        <time>2013-12-07T10:39:23Z</time>
      </trkpt>
      <trkpt lat="38.186588" lon="-1.582115">
        <ele>364.0</ele>
        <time>2013-12-07T10:39:33Z</time>
      </trkpt>
      <trkpt lat="38.186576" lon="-1.582142">
        <ele>364.0</ele>
        <time>2013-12-07T10:39:36Z</time>
      </trkpt>
      <trkpt lat="38.186522" lon="-1.582221">
        <ele>364.0</ele>
        <time>2013-12-07T10:39:42Z</time>
      </trkpt>
      <trkpt lat="38.186490" lon="-1.582272">
        <ele>364.5</ele>
        <time>2013-12-07T10:39:46Z</time>
      </trkpt>
      <trkpt lat="38.186411" lon="-1.582359">
        <ele>365.4</ele>
        <time>2013-12-07T10:39:53Z</time>
      </trkpt>
      <trkpt lat="38.186377" lon="-1.582423">
        <ele>365.9</ele>
        <time>2013-12-07T10:41:11Z</time>
      </trkpt>
      <trkpt lat="38.186372" lon="-1.582415">
        <ele>366.4</ele>
        <time>2013-12-07T10:41:27Z</time>
      </trkpt>
      <trkpt lat="38.186335" lon="-1.582397">
        <ele>365.9</ele>
        <time>2013-12-07T10:42:44Z</time>
      </trkpt>
      <trkpt lat="38.186303" lon="-1.582383">
        <ele>366.4</ele>
        <time>2013-12-07T10:42:57Z</time>
      </trkpt>
      <trkpt lat="38.186290" lon="-1.582366">
        <ele>365.9</ele>
        <time>2013-12-07T10:43:05Z</time>
      </trkpt>
      <trkpt lat="38.186237" lon="-1.582207">
        <ele>364.5</ele>
        <time>2013-12-07T10:43:19Z</time>
      </trkpt>
      <trkpt lat="38.186228" lon="-1.582195">
        <ele>365.0</ele>
        <time>2013-12-07T10:43:22Z</time>
      </trkpt>
      <trkpt lat="38.186206" lon="-1.582141">
        <ele>364.5</ele>
        <time>2013-12-07T10:43:26Z</time>
      </trkpt>
      <trkpt lat="38.186142" lon="-1.582013">
        <ele>363.5</ele>
        <time>2013-12-07T10:43:34Z</time>
      </trkpt>
      <trkpt lat="38.186096" lon="-1.581891">
        <ele>362.5</ele>
        <time>2013-12-07T10:43:46Z</time>
      </trkpt>
      <trkpt lat="38.185997" lon="-1.581661">
        <ele>361.1</ele>
        <time>2013-12-07T10:44:02Z</time>
      </trkpt>
      <trkpt lat="38.185891" lon="-1.581433">
        <ele>359.7</ele>
        <time>2013-12-07T10:44:17Z</time>
      </trkpt>
      <trkpt lat="38.185730" lon="-1.581259">
        <ele>359.2</ele>
        <time>2013-12-07T10:44:32Z</time>
      </trkpt>
      <trkpt lat="38.185559" lon="-1.581052">
        <ele>359.2</ele>
        <time>2013-12-07T10:44:48Z</time>
      </trkpt>
      <trkpt lat="38.185411" lon="-1.580769">
        <ele>359.2</ele>
        <time>2013-12-07T10:45:05Z</time>
      </trkpt>
      <trkpt lat="38.185290" lon="-1.580504">
        <ele>358.7</ele>
        <time>2013-12-07T10:45:20Z</time>
      </trkpt>
      <trkpt lat="38.185228" lon="-1.580216">
        <ele>359.2</ele>
        <time>2013-12-07T10:45:35Z</time>
      </trkpt>
      <trkpt lat="38.185148" lon="-1.579856">
        <ele>360.6</ele>
        <time>2013-12-07T10:45:53Z</time>
      </trkpt>
      <trkpt lat="38.185009" lon="-1.579457">
        <ele>363.5</ele>
        <time>2013-12-07T10:46:14Z</time>
      </trkpt>
      <trkpt lat="38.184947" lon="-1.579119">
        <ele>365.0</ele>
        <time>2013-12-07T10:46:31Z</time>
      </trkpt>
      <trkpt lat="38.184871" lon="-1.578757">
        <ele>366.4</ele>
        <time>2013-12-07T10:46:49Z</time>
      </trkpt>
      <trkpt lat="38.184797" lon="-1.578432">
        <ele>366.9</ele>
        <time>2013-12-07T10:47:05Z</time>
      </trkpt>
      <trkpt lat="38.184741" lon="-1.578114">
        <ele>366.9</ele>
        <time>2013-12-07T10:47:20Z</time>
      </trkpt>
      <trkpt lat="38.184721" lon="-1.577955">
        <ele>366.9</ele>
        <time>2013-12-07T10:47:28Z</time>
      </trkpt>
      <trkpt lat="38.184706" lon="-1.577755">
        <ele>366.4</ele>
        <time>2013-12-07T10:47:38Z</time>
      </trkpt>
      <trkpt lat="38.184662" lon="-1.577569">
        <ele>365.9</ele>
        <time>2013-12-07T10:47:47Z</time>
      </trkpt>
      <trkpt lat="38.184625" lon="-1.577361">
        <ele>365.9</ele>
        <time>2013-12-07T10:48:00Z</time>
      </trkpt>
      <trkpt lat="38.184570" lon="-1.577109">
        <ele>365.9</ele>
        <time>2013-12-07T10:48:13Z</time>
      </trkpt>
      <trkpt lat="38.184514" lon="-1.576951">
        <ele>365.9</ele>
        <time>2013-12-07T10:48:23Z</time>
      </trkpt>
      <trkpt lat="38.184489" lon="-1.576877">
        <ele>365.9</ele>
        <time>2013-12-07T10:48:34Z</time>
      </trkpt>
      <trkpt lat="38.184493" lon="-1.576867">
        <ele>365.9</ele>
        <time>2013-12-07T10:48:36Z</time>
      </trkpt>
      <trkpt lat="38.184451" lon="-1.576683">
        <ele>366.9</ele>
        <time>2013-12-07T10:48:48Z</time>
      </trkpt>
      <trkpt lat="38.184431" lon="-1.576535">
        <ele>366.9</ele>
        <time>2013-12-07T10:48:56Z</time>
      </trkpt>
      <trkpt lat="38.184440" lon="-1.576441">
        <ele>366.9</ele>
        <time>2013-12-07T10:49:01Z</time>
      </trkpt>
      <trkpt lat="38.184415" lon="-1.576164">
        <ele>367.8</ele>
        <time>2013-12-07T10:49:16Z</time>
      </trkpt>
      <trkpt lat="38.184407" lon="-1.576078">
        <ele>367.8</ele>
        <time>2013-12-07T10:49:20Z</time>
      </trkpt>
      <trkpt lat="38.184396" lon="-1.576012">
        <ele>367.8</ele>
        <time>2013-12-07T10:49:24Z</time>
      </trkpt>
      <trkpt lat="38.184381" lon="-1.575934">
        <ele>367.8</ele>
        <time>2013-12-07T10:49:31Z</time>
      </trkpt>
      <trkpt lat="38.184358" lon="-1.575606">
        <ele>368.3</ele>
        <time>2013-12-07T10:49:48Z</time>
      </trkpt>
      <trkpt lat="38.184373" lon="-1.575293">
        <ele>369.8</ele>
        <time>2013-12-07T10:50:05Z</time>
      </trkpt>
      <trkpt lat="38.184445" lon="-1.575024">
        <ele>370.2</ele>
        <time>2013-12-07T10:50:21Z</time>
      </trkpt>
      <trkpt lat="38.184474" lon="-1.574687">
        <ele>370.7</ele>
        <time>2013-12-07T10:50:39Z</time>
      </trkpt>
      <trkpt lat="38.184341" lon="-1.574353">
        <ele>371.7</ele>
        <time>2013-12-07T10:50:59Z</time>
      </trkpt>
      <trkpt lat="38.184165" lon="-1.574112">
        <ele>371.7</ele>
        <time>2013-12-07T10:51:16Z</time>
      </trkpt>
      <trkpt lat="38.183945" lon="-1.573836">
        <ele>372.6</ele>
        <time>2013-12-07T10:51:37Z</time>
      </trkpt>
      <trkpt lat="38.183785" lon="-1.573582">
        <ele>374.1</ele>
        <time>2013-12-07T10:51:55Z</time>
      </trkpt>
      <trkpt lat="38.183630" lon="-1.573265">
        <ele>374.6</ele>
        <time>2013-12-07T10:52:16Z</time>
      </trkpt>
      <trkpt lat="38.183465" lon="-1.572995">
        <ele>376.5</ele>
        <time>2013-12-07T10:52:35Z</time>
      </trkpt>
      <trkpt lat="38.183340" lon="-1.572794">
        <ele>377.5</ele>
        <time>2013-12-07T10:52:50Z</time>
      </trkpt>
      <trkpt lat="38.183284" lon="-1.572726">
        <ele>377.5</ele>
        <time>2013-12-07T10:53:02Z</time>
      </trkpt>
      <trkpt lat="38.183286" lon="-1.572726">
        <ele>377.5</ele>
        <time>2013-12-07T10:53:15Z</time>
      </trkpt>
      <trkpt lat="38.183280" lon="-1.572721">
        <ele>377.0</ele>
        <time>2013-12-07T10:53:36Z</time>
      </trkpt>
      <trkpt lat="38.183246" lon="-1.572666">
        <ele>377.5</ele>
        <time>2013-12-07T10:53:48Z</time>
      </trkpt>
      <trkpt lat="38.183236" lon="-1.572642">
        <ele>377.5</ele>
        <time>2013-12-07T10:53:50Z</time>
      </trkpt>
      <trkpt lat="38.183158" lon="-1.572506">
        <ele>377.5</ele>
        <time>2013-12-07T10:54:02Z</time>
      </trkpt>
      <trkpt lat="38.183132" lon="-1.572474">
        <ele>377.5</ele>
        <time>2013-12-07T10:54:06Z</time>
      </trkpt>
      <trkpt lat="38.183039" lon="-1.572379">
        <ele>377.5</ele>
        <time>2013-12-07T10:54:16Z</time>
      </trkpt>
      <trkpt lat="38.183006" lon="-1.572330">
        <ele>377.5</ele>
        <time>2013-12-07T10:54:20Z</time>
      </trkpt>
      <trkpt lat="38.182855" lon="-1.572178">
        <ele>377.9</ele>
        <time>2013-12-07T10:54:35Z</time>
      </trkpt>
      <trkpt lat="38.182703" lon="-1.571987">
        <ele>378.9</ele>
        <time>2013-12-07T10:54:52Z</time>
      </trkpt>
      <trkpt lat="38.182562" lon="-1.571823">
        <ele>379.4</ele>
        <time>2013-12-07T10:55:07Z</time>
      </trkpt>
      <trkpt lat="38.182447" lon="-1.571622">
        <ele>379.4</ele>
        <time>2013-12-07T10:55:23Z</time>
      </trkpt>
      <trkpt lat="38.182370" lon="-1.571399">
        <ele>379.9</ele>
        <time>2013-12-07T10:55:39Z</time>
      </trkpt>
      <trkpt lat="38.182308" lon="-1.571146">
        <ele>380.3</ele>
        <time>2013-12-07T10:55:55Z</time>
      </trkpt>
      <trkpt lat="38.182243" lon="-1.570931">
        <ele>380.8</ele>
        <time>2013-12-07T10:56:09Z</time>
      </trkpt>
      <trkpt lat="38.182227" lon="-1.570835">
        <ele>381.3</ele>
        <time>2013-12-07T10:56:15Z</time>
      </trkpt>
      <trkpt lat="38.182145" lon="-1.570579">
        <ele>381.3</ele>
        <time>2013-12-07T10:56:32Z</time>
      </trkpt>
      <trkpt lat="38.182076" lon="-1.570306">
        <ele>381.8</ele>
        <time>2013-12-07T10:56:50Z</time>
      </trkpt>
      <trkpt lat="38.182003" lon="-1.570070">
        <ele>382.3</ele>
        <time>2013-12-07T10:57:06Z</time>
      </trkpt>
      <trkpt lat="38.181965" lon="-1.569854">
        <ele>382.3</ele>
        <time>2013-12-07T10:57:21Z</time>
      </trkpt>
      <trkpt lat="38.181935" lon="-1.569740">
        <ele>382.7</ele>
        <time>2013-12-07T10:57:29Z</time>
      </trkpt>
      <trkpt lat="38.181876" lon="-1.569519">
        <ele>382.3</ele>
        <time>2013-12-07T10:57:46Z</time>
      </trkpt>
      <trkpt lat="38.181841" lon="-1.569457">
        <ele>381.8</ele>
        <time>2013-12-07T10:58:00Z</time>
      </trkpt>
      <trkpt lat="38.181790" lon="-1.569305">
        <ele>381.3</ele>
        <time>2013-12-07T10:59:47Z</time>
      </trkpt>
      <trkpt lat="38.181761" lon="-1.569143">
        <ele>381.3</ele>
        <time>2013-12-07T11:00:00Z</time>
      </trkpt>
      <trkpt lat="38.181762" lon="-1.569023">
        <ele>381.3</ele>
        <time>2013-12-07T11:00:10Z</time>
      </trkpt>
      <trkpt lat="38.181742" lon="-1.568956">
        <ele>381.8</ele>
        <time>2013-12-07T11:00:46Z</time>
      </trkpt>
      <trkpt lat="38.181751" lon="-1.568885">
        <ele>381.8</ele>
        <time>2013-12-07T11:01:24Z</time>
      </trkpt>
      <trkpt lat="38.181736" lon="-1.568633">
        <ele>382.3</ele>
        <time>2013-12-07T11:01:39Z</time>
      </trkpt>
      <trkpt lat="38.181737" lon="-1.568627">
        <ele>381.8</ele>
        <time>2013-12-07T11:01:46Z</time>
      </trkpt>
      <trkpt lat="38.181717" lon="-1.568578">
        <ele>381.8</ele>
        <time>2013-12-07T11:02:00Z</time>
      </trkpt>
      <trkpt lat="38.181717" lon="-1.568576">
        <ele>381.8</ele>
        <time>2013-12-07T11:02:01Z</time>
      </trkpt>
      <trkpt lat="38.181713" lon="-1.568519">
        <ele>381.8</ele>
        <time>2013-12-07T11:02:05Z</time>
      </trkpt>
      <trkpt lat="38.181706" lon="-1.568466">
        <ele>381.8</ele>
        <time>2013-12-07T11:02:08Z</time>
      </trkpt>
      <trkpt lat="38.181686" lon="-1.568419">
        <ele>382.3</ele>
        <time>2013-12-07T11:02:12Z</time>
      </trkpt>
      <trkpt lat="38.181679" lon="-1.568386">
        <ele>381.8</ele>
        <time>2013-12-07T11:02:27Z</time>
      </trkpt>
      <trkpt lat="38.181657" lon="-1.568328">
        <ele>382.3</ele>
        <time>2013-12-07T11:02:37Z</time>
      </trkpt>
      <trkpt lat="38.181638" lon="-1.568313">
        <ele>382.3</ele>
        <time>2013-12-07T11:02:40Z</time>
      </trkpt>
      <trkpt lat="38.181601" lon="-1.568110">
        <ele>381.8</ele>
        <time>2013-12-07T11:02:52Z</time>
      </trkpt>
      <trkpt lat="38.181548" lon="-1.567863">
        <ele>381.8</ele>
        <time>2013-12-07T11:03:08Z</time>
      </trkpt>
      <trkpt lat="38.181507" lon="-1.567633">
        <ele>381.8</ele>
        <time>2013-12-07T11:03:21Z</time>
      </trkpt>
      <trkpt lat="38.181467" lon="-1.567409">
        <ele>382.3</ele>
        <time>2013-12-07T11:03:34Z</time>
      </trkpt>
      <trkpt lat="38.181459" lon="-1.567391">
        <ele>382.3</ele>
        <time>2013-12-07T11:03:35Z</time>
      </trkpt>
      <trkpt lat="38.181410" lon="-1.567322">
        <ele>382.3</ele>
        <time>2013-12-07T11:03:40Z</time>
      </trkpt>
      <trkpt lat="38.181280" lon="-1.567119">
        <ele>382.3</ele>
        <time>2013-12-07T11:03:55Z</time>
      </trkpt>
      <trkpt lat="38.181254" lon="-1.567094">
        <ele>382.3</ele>
        <time>2013-12-07T11:03:57Z</time>
      </trkpt>
      <trkpt lat="38.181239" lon="-1.567070">
        <ele>382.7</ele>
        <time>2013-12-07T11:03:59Z</time>
      </trkpt>
      <trkpt lat="38.181159" lon="-1.566929">
        <ele>382.3</ele>
        <time>2013-12-07T11:04:11Z</time>
      </trkpt>
      <trkpt lat="38.181122" lon="-1.566880">
        <ele>382.3</ele>
        <time>2013-12-07T11:04:24Z</time>
      </trkpt>
      <trkpt lat="38.181110" lon="-1.566846">
        <ele>382.7</ele>
        <time>2013-12-07T11:04:38Z</time>
      </trkpt>
      <trkpt lat="38.181070" lon="-1.566777">
        <ele>382.3</ele>
        <time>2013-12-07T11:04:52Z</time>
      </trkpt>
      <trkpt lat="38.181023" lon="-1.566737">
        <ele>382.3</ele>
        <time>2013-12-07T11:05:08Z</time>
      </trkpt>
      <trkpt lat="38.180932" lon="-1.566564">
        <ele>382.7</ele>
        <time>2013-12-07T11:05:21Z</time>
      </trkpt>
      <trkpt lat="38.180898" lon="-1.566507">
        <ele>383.2</ele>
        <time>2013-12-07T11:05:25Z</time>
      </trkpt>
      <trkpt lat="38.180823" lon="-1.566341">
        <ele>383.2</ele>
        <time>2013-12-07T11:05:39Z</time>
      </trkpt>
      <trkpt lat="38.180807" lon="-1.566307">
        <ele>383.2</ele>
        <time>2013-12-07T11:05:43Z</time>
      </trkpt>
      <trkpt lat="38.180717" lon="-1.566110">
        <ele>382.7</ele>
        <time>2013-12-07T11:05:55Z</time>
      </trkpt>
      <trkpt lat="38.180590" lon="-1.565826">
        <ele>383.7</ele>
        <time>2013-12-07T11:06:14Z</time>
      </trkpt>
      <trkpt lat="38.180423" lon="-1.565502">
        <ele>383.7</ele>
        <time>2013-12-07T11:06:34Z</time>
      </trkpt>
      <trkpt lat="38.180316" lon="-1.565250">
        <ele>384.2</ele>
        <time>2013-12-07T11:06:49Z</time>
      </trkpt>
      <trkpt lat="38.180228" lon="-1.565018">
        <ele>382.3</ele>
        <time>2013-12-07T11:07:02Z</time>
      </trkpt>
      <trkpt lat="38.180131" lon="-1.564712">
        <ele>384.2</ele>
        <time>2013-12-07T11:07:20Z</time>
      </trkpt>
      <trkpt lat="38.180037" lon="-1.564498">
        <ele>386.1</ele>
        <time>2013-12-07T11:07:33Z</time>
      </trkpt>
      <trkpt lat="38.179920" lon="-1.564248">
        <ele>384.2</ele>
        <time>2013-12-07T11:07:47Z</time>
      </trkpt>
      <trkpt lat="38.179898" lon="-1.564206">
        <ele>386.1</ele>
        <time>2013-12-07T11:07:55Z</time>
      </trkpt>
      <trkpt lat="38.179781" lon="-1.563966">
        <ele>382.3</ele>
        <time>2013-12-07T11:08:09Z</time>
      </trkpt>
      <trkpt lat="38.179762" lon="-1.563928">
        <ele>389.0</ele>
        <time>2013-12-07T11:08:11Z</time>
      </trkpt>
      <trkpt lat="38.179756" lon="-1.563909">
        <ele>386.1</ele>
        <time>2013-12-07T11:08:12Z</time>
      </trkpt>
      <trkpt lat="38.179699" lon="-1.563762">
        <ele>386.6</ele>
        <time>2013-12-07T11:08:27Z</time>
      </trkpt>
      <trkpt lat="38.179663" lon="-1.563647">
        <ele>387.1</ele>
        <time>2013-12-07T11:08:38Z</time>
      </trkpt>
      <trkpt lat="38.179554" lon="-1.563438">
        <ele>387.5</ele>
        <time>2013-12-07T11:08:52Z</time>
      </trkpt>
      <trkpt lat="38.179495" lon="-1.563265">
        <ele>387.5</ele>
        <time>2013-12-07T11:09:05Z</time>
      </trkpt>
      <trkpt lat="38.179389" lon="-1.562990">
        <ele>388.0</ele>
        <time>2013-12-07T11:09:22Z</time>
      </trkpt>
      <trkpt lat="38.179293" lon="-1.562726">
        <ele>388.5</ele>
        <time>2013-12-07T11:09:38Z</time>
      </trkpt>
      <trkpt lat="38.179284" lon="-1.562671">
        <ele>388.5</ele>
        <time>2013-12-07T11:09:42Z</time>
      </trkpt>
      <trkpt lat="38.179249" lon="-1.562550">
        <ele>388.5</ele>
        <time>2013-12-07T11:09:49Z</time>
      </trkpt>
      <trkpt lat="38.179196" lon="-1.562207">
        <ele>388.5</ele>
        <time>2013-12-07T11:10:07Z</time>
      </trkpt>
      <trkpt lat="38.179167" lon="-1.562013">
        <ele>389.5</ele>
        <time>2013-12-07T11:10:19Z</time>
      </trkpt>
      <trkpt lat="38.179155" lon="-1.561674">
        <ele>389.5</ele>
        <time>2013-12-07T11:10:36Z</time>
      </trkpt>
      <trkpt lat="38.179136" lon="-1.561483">
        <ele>389.0</ele>
        <time>2013-12-07T11:10:50Z</time>
      </trkpt>
      <trkpt lat="38.179145" lon="-1.561277">
        <ele>388.0</ele>
        <time>2013-12-07T11:11:02Z</time>
      </trkpt>
      <trkpt lat="38.179168" lon="-1.561212">
        <ele>388.0</ele>
        <time>2013-12-07T11:11:06Z</time>
      </trkpt>
      <trkpt lat="38.179178" lon="-1.561179">
        <ele>388.0</ele>
        <time>2013-12-07T11:11:08Z</time>
      </trkpt>
      <trkpt lat="38.179179" lon="-1.561128">
        <ele>388.0</ele>
        <time>2013-12-07T11:11:11Z</time>
      </trkpt>
      <trkpt lat="38.179198" lon="-1.561022">
        <ele>388.0</ele>
        <time>2013-12-07T11:11:19Z</time>
      </trkpt>
      <trkpt lat="38.179225" lon="-1.560972">
        <ele>387.5</ele>
        <time>2013-12-07T11:11:23Z</time>
      </trkpt>
      <trkpt lat="38.179363" lon="-1.560695">
        <ele>387.5</ele>
        <time>2013-12-07T11:11:41Z</time>
      </trkpt>
      <trkpt lat="38.179476" lon="-1.560422">
        <ele>387.5</ele>
        <time>2013-12-07T11:11:58Z</time>
      </trkpt>
      <trkpt lat="38.179599" lon="-1.560100">
        <ele>387.1</ele>
        <time>2013-12-07T11:12:18Z</time>
      </trkpt>
      <trkpt lat="38.179610" lon="-1.559773">
        <ele>387.5</ele>
        <time>2013-12-07T11:12:35Z</time>
      </trkpt>
      <trkpt lat="38.179561" lon="-1.559474">
        <ele>387.1</ele>
        <time>2013-12-07T11:12:50Z</time>
      </trkpt>
      <trkpt lat="38.179493" lon="-1.559098">
        <ele>386.6</ele>
        <time>2013-12-07T11:13:10Z</time>
      </trkpt>
      <trkpt lat="38.179463" lon="-1.558728">
        <ele>387.1</ele>
        <time>2013-12-07T11:13:30Z</time>
      </trkpt>
      <trkpt lat="38.179435" lon="-1.558534">
        <ele>387.1</ele>
        <time>2013-12-07T11:13:41Z</time>
      </trkpt>
      <trkpt lat="38.179422" lon="-1.558402">
        <ele>387.5</ele>
        <time>2013-12-07T11:13:48Z</time>
      </trkpt>
      <trkpt lat="38.179404" lon="-1.558030">
        <ele>386.6</ele>
        <time>2013-12-07T11:14:07Z</time>
      </trkpt>
      <trkpt lat="38.179366" lon="-1.557733">
        <ele>385.6</ele>
        <time>2013-12-07T11:14:23Z</time>
      </trkpt>
      <trkpt lat="38.179326" lon="-1.557448">
        <ele>385.6</ele>
        <time>2013-12-07T11:14:40Z</time>
      </trkpt>
      <trkpt lat="38.179327" lon="-1.557409">
        <ele>385.1</ele>
        <time>2013-12-07T11:14:42Z</time>
      </trkpt>
      <trkpt lat="38.179410" lon="-1.557194">
        <ele>385.1</ele>
        <time>2013-12-07T11:14:55Z</time>
      </trkpt>
      <trkpt lat="38.179455" lon="-1.557116">
        <ele>385.6</ele>
        <time>2013-12-07T11:15:00Z</time>
      </trkpt>
      <trkpt lat="38.179465" lon="-1.557065">
        <ele>384.7</ele>
        <time>2013-12-07T11:15:03Z</time>
      </trkpt>
      <trkpt lat="38.179457" lon="-1.556982">
        <ele>385.1</ele>
        <time>2013-12-07T11:15:08Z</time>
      </trkpt>
      <trkpt lat="38.179439" lon="-1.556872">
        <ele>385.6</ele>
        <time>2013-12-07T11:15:17Z</time>
      </trkpt>
      <trkpt lat="38.179420" lon="-1.556748">
        <ele>385.6</ele>
        <time>2013-12-07T11:15:24Z</time>
      </trkpt>
      <trkpt lat="38.179402" lon="-1.556612">
        <ele>385.6</ele>
        <time>2013-12-07T11:15:32Z</time>
      </trkpt>
      <trkpt lat="38.179359" lon="-1.556373">
        <ele>386.1</ele>
        <time>2013-12-07T11:15:46Z</time>
      </trkpt>
      <trkpt lat="38.179320" lon="-1.556134">
        <ele>386.6</ele>
        <time>2013-12-07T11:16:01Z</time>
      </trkpt>
      <trkpt lat="38.179268" lon="-1.555864">
        <ele>386.6</ele>
        <time>2013-12-07T11:16:17Z</time>
      </trkpt>
      <trkpt lat="38.179244" lon="-1.555743">
        <ele>387.1</ele>
        <time>2013-12-07T11:16:25Z</time>
      </trkpt>
      <trkpt lat="38.179213" lon="-1.555591">
        <ele>387.1</ele>
        <time>2013-12-07T11:16:39Z</time>
      </trkpt>
      <trkpt lat="38.179141" lon="-1.555292">
        <ele>387.1</ele>
        <time>2013-12-07T11:16:55Z</time>
      </trkpt>
      <trkpt lat="38.179069" lon="-1.555015">
        <ele>387.5</ele>
        <time>2013-12-07T11:17:11Z</time>
      </trkpt>
      <trkpt lat="38.178985" lon="-1.554789">
        <ele>388.5</ele>
        <time>2013-12-07T11:17:25Z</time>
      </trkpt>
      <trkpt lat="38.178965" lon="-1.554620">
        <ele>388.5</ele>
        <time>2013-12-07T11:17:35Z</time>
      </trkpt>
      <trkpt lat="38.178954" lon="-1.554530">
        <ele>389.0</ele>
        <time>2013-12-07T11:17:40Z</time>
      </trkpt>
      <trkpt lat="38.178883" lon="-1.554250">
        <ele>389.0</ele>
        <time>2013-12-07T11:17:56Z</time>
      </trkpt>
      <trkpt lat="38.178789" lon="-1.553915">
        <ele>389.0</ele>
        <time>2013-12-07T11:18:15Z</time>
      </trkpt>
      <trkpt lat="38.178716" lon="-1.553613">
        <ele>389.0</ele>
        <time>2013-12-07T11:18:32Z</time>
      </trkpt>
      <trkpt lat="38.178711" lon="-1.553597">
        <ele>389.0</ele>
        <time>2013-12-07T11:18:33Z</time>
      </trkpt>
      <trkpt lat="38.178650" lon="-1.553430">
        <ele>388.5</ele>
        <time>2013-12-07T11:18:43Z</time>
      </trkpt>
      <trkpt lat="38.178589" lon="-1.553090">
        <ele>388.5</ele>
        <time>2013-12-07T11:19:01Z</time>
      </trkpt>
      <trkpt lat="38.178526" lon="-1.552840">
        <ele>389.0</ele>
        <time>2013-12-07T11:19:15Z</time>
      </trkpt>
      <trkpt lat="38.178499" lon="-1.552747">
        <ele>389.0</ele>
        <time>2013-12-07T11:19:21Z</time>
      </trkpt>
      <trkpt lat="38.178405" lon="-1.552454">
        <ele>390.0</ele>
        <time>2013-12-07T11:19:38Z</time>
      </trkpt>
      <trkpt lat="38.178348" lon="-1.552207">
        <ele>390.0</ele>
        <time>2013-12-07T11:19:53Z</time>
      </trkpt>
      <trkpt lat="38.178321" lon="-1.552126">
        <ele>390.4</ele>
        <time>2013-12-07T11:19:58Z</time>
      </trkpt>
      <trkpt lat="38.178289" lon="-1.552063">
        <ele>390.9</ele>
        <time>2013-12-07T11:20:03Z</time>
      </trkpt>
      <trkpt lat="38.178248" lon="-1.552014">
        <ele>390.4</ele>
        <time>2013-12-07T11:20:07Z</time>
      </trkpt>
      <trkpt lat="38.178187" lon="-1.551849">
        <ele>390.9</ele>
        <time>2013-12-07T11:20:21Z</time>
      </trkpt>
      <trkpt lat="38.178170" lon="-1.551811">
        <ele>390.9</ele>
        <time>2013-12-07T11:20:35Z</time>
      </trkpt>
      <trkpt lat="38.178146" lon="-1.551743">
        <ele>391.4</ele>
        <time>2013-12-07T11:20:39Z</time>
      </trkpt>
      <trkpt lat="38.178118" lon="-1.551686">
        <ele>391.9</ele>
        <time>2013-12-07T11:20:43Z</time>
      </trkpt>
      <trkpt lat="38.177977" lon="-1.551460">
        <ele>391.9</ele>
        <time>2013-12-07T11:20:59Z</time>
      </trkpt>
      <trkpt lat="38.177814" lon="-1.551162">
        <ele>393.3</ele>
        <time>2013-12-07T11:21:18Z</time>
      </trkpt>
      <trkpt lat="38.177640" lon="-1.550852">
        <ele>393.8</ele>
        <time>2013-12-07T11:21:37Z</time>
      </trkpt>
      <trkpt lat="38.177533" lon="-1.550577">
        <ele>393.8</ele>
        <time>2013-12-07T11:21:54Z</time>
      </trkpt>
      <trkpt lat="38.177478" lon="-1.550489">
        <ele>393.8</ele>
        <time>2013-12-07T11:22:11Z</time>
      </trkpt>
      <trkpt lat="38.177371" lon="-1.550225">
        <ele>393.8</ele>
        <time>2013-12-07T11:22:27Z</time>
      </trkpt>
      <trkpt lat="38.177265" lon="-1.549957">
        <ele>394.8</ele>
        <time>2013-12-07T11:22:43Z</time>
      </trkpt>
      <trkpt lat="38.177132" lon="-1.549785">
        <ele>395.2</ele>
        <time>2013-12-07T11:22:56Z</time>
      </trkpt>
      <trkpt lat="38.177037" lon="-1.549547">
        <ele>396.2</ele>
        <time>2013-12-07T11:23:10Z</time>
      </trkpt>
      <trkpt lat="38.176974" lon="-1.549346">
        <ele>395.2</ele>
        <time>2013-12-07T11:23:23Z</time>
      </trkpt>
      <trkpt lat="38.176937" lon="-1.549222">
        <ele>395.2</ele>
        <time>2013-12-07T11:23:30Z</time>
      </trkpt>
      <trkpt lat="38.176835" lon="-1.548876">
        <ele>395.7</ele>
        <time>2013-12-07T11:23:44Z</time>
      </trkpt>
      <trkpt lat="38.176747" lon="-1.548684">
        <ele>395.7</ele>
        <time>2013-12-07T11:23:59Z</time>
      </trkpt>
      <trkpt lat="38.176583" lon="-1.548422">
        <ele>396.7</ele>
        <time>2013-12-07T11:24:13Z</time>
      </trkpt>
      <trkpt lat="38.176443" lon="-1.548176">
        <ele>396.7</ele>
        <time>2013-12-07T11:24:28Z</time>
      </trkpt>
      <trkpt lat="38.176286" lon="-1.547940">
        <ele>396.7</ele>
        <time>2013-12-07T11:24:45Z</time>
      </trkpt>
      <trkpt lat="38.176129" lon="-1.547749">
        <ele>397.2</ele>
        <time>2013-12-07T11:25:00Z</time>
      </trkpt>
      <trkpt lat="38.175949" lon="-1.547504">
        <ele>397.6</ele>
        <time>2013-12-07T11:25:18Z</time>
      </trkpt>
      <trkpt lat="38.175897" lon="-1.547411">
        <ele>397.6</ele>
        <time>2013-12-07T11:25:25Z</time>
      </trkpt>
      <trkpt lat="38.175994" lon="-1.547218">
        <ele>399.1</ele>
        <time>2013-12-07T11:25:40Z</time>
      </trkpt>
      <trkpt lat="38.176159" lon="-1.547049">
        <ele>398.1</ele>
        <time>2013-12-07T11:25:54Z</time>
      </trkpt>
      <trkpt lat="38.176207" lon="-1.547010">
        <ele>398.6</ele>
        <time>2013-12-07T11:25:58Z</time>
      </trkpt>
      <trkpt lat="38.176231" lon="-1.546994">
        <ele>398.1</ele>
        <time>2013-12-07T11:26:00Z</time>
      </trkpt>
      <trkpt lat="38.176333" lon="-1.546917">
        <ele>397.6</ele>
        <time>2013-12-07T11:26:08Z</time>
      </trkpt>
      <trkpt lat="38.176360" lon="-1.546854">
        <ele>398.1</ele>
        <time>2013-12-07T11:26:12Z</time>
      </trkpt>
      <trkpt lat="38.176330" lon="-1.546784">
        <ele>399.6</ele>
        <time>2013-12-07T11:30:30Z</time>
      </trkpt>
      <trkpt lat="38.176305" lon="-1.546722">
        <ele>399.1</ele>
        <time>2013-12-07T11:30:40Z</time>
      </trkpt>
      <trkpt lat="38.176273" lon="-1.546682">
        <ele>399.1</ele>
        <time>2013-12-07T11:30:49Z</time>
      </trkpt>
      <trkpt lat="38.176222" lon="-1.546554">
        <ele>399.6</ele>
        <time>2013-12-07T11:30:58Z</time>
      </trkpt>
      <trkpt lat="38.176130" lon="-1.546295">
        <ele>399.1</ele>
        <time>2013-12-07T11:31:14Z</time>
      </trkpt>
      <trkpt lat="38.176074" lon="-1.546031">
        <ele>400.0</ele>
        <time>2013-12-07T11:31:31Z</time>
      </trkpt>
      <trkpt lat="38.176032" lon="-1.545855">
        <ele>400.0</ele>
        <time>2013-12-07T11:31:43Z</time>
      </trkpt>
      <trkpt lat="38.175989" lon="-1.545732">
        <ele>400.0</ele>
        <time>2013-12-07T11:31:54Z</time>
      </trkpt>
      <trkpt lat="38.175988" lon="-1.545727">
        <ele>400.5</ele>
        <time>2013-12-07T11:31:55Z</time>
      </trkpt>
      <trkpt lat="38.175904" lon="-1.545409">
        <ele>401.0</ele>
        <time>2013-12-07T11:32:14Z</time>
      </trkpt>
      <trkpt lat="38.175905" lon="-1.545322">
        <ele>400.5</ele>
        <time>2013-12-07T11:32:19Z</time>
      </trkpt>
      <trkpt lat="38.175899" lon="-1.545236">
        <ele>401.0</ele>
        <time>2013-12-07T11:32:24Z</time>
      </trkpt>
      <trkpt lat="38.175869" lon="-1.544898">
        <ele>401.5</ele>
        <time>2013-12-07T11:32:42Z</time>
      </trkpt>
      <trkpt lat="38.175835" lon="-1.544592">
        <ele>401.0</ele>
        <time>2013-12-07T11:32:58Z</time>
      </trkpt>
      <trkpt lat="38.175682" lon="-1.544309">
        <ele>401.5</ele>
        <time>2013-12-07T11:33:15Z</time>
      </trkpt>
      <trkpt lat="38.175491" lon="-1.544058">
        <ele>401.5</ele>
        <time>2013-12-07T11:33:33Z</time>
      </trkpt>
      <trkpt lat="38.175296" lon="-1.543859">
        <ele>401.5</ele>
        <time>2013-12-07T11:33:50Z</time>
      </trkpt>
      <trkpt lat="38.175107" lon="-1.543695">
        <ele>400.5</ele>
        <time>2013-12-07T11:34:06Z</time>
      </trkpt>
      <trkpt lat="38.175098" lon="-1.543691">
        <ele>401.5</ele>
        <time>2013-12-07T11:34:07Z</time>
      </trkpt>
      <trkpt lat="38.175079" lon="-1.543669">
        <ele>401.5</ele>
        <time>2013-12-07T11:34:20Z</time>
      </trkpt>
      <trkpt lat="38.175072" lon="-1.543655">
        <ele>400.5</ele>
        <time>2013-12-07T11:34:32Z</time>
      </trkpt>
      <trkpt lat="38.174958" lon="-1.543549">
        <ele>401.5</ele>
        <time>2013-12-07T11:34:43Z</time>
      </trkpt>
      <trkpt lat="38.174869" lon="-1.543460">
        <ele>402.0</ele>
        <time>2013-12-07T11:34:54Z</time>
      </trkpt>
      <trkpt lat="38.174839" lon="-1.543350">
        <ele>401.5</ele>
        <time>2013-12-07T11:35:01Z</time>
      </trkpt>
      <trkpt lat="38.174825" lon="-1.543273">
        <ele>401.5</ele>
        <time>2013-12-07T11:35:05Z</time>
      </trkpt>
      <trkpt lat="38.174799" lon="-1.543244">
        <ele>401.5</ele>
        <time>2013-12-07T11:35:11Z</time>
      </trkpt>
      <trkpt lat="38.174722" lon="-1.542947">
        <ele>401.5</ele>
        <time>2013-12-07T11:35:28Z</time>
      </trkpt>
      <trkpt lat="38.174620" lon="-1.542656">
        <ele>402.5</ele>
        <time>2013-12-07T11:35:45Z</time>
      </trkpt>
      <trkpt lat="38.174569" lon="-1.542448">
        <ele>402.5</ele>
        <time>2013-12-07T11:35:57Z</time>
      </trkpt>
      <trkpt lat="38.174499" lon="-1.542155">
        <ele>402.0</ele>
        <time>2013-12-07T11:36:14Z</time>
      </trkpt>
      <trkpt lat="38.174435" lon="-1.541907">
        <ele>402.0</ele>
        <time>2013-12-07T11:36:29Z</time>
      </trkpt>
      <trkpt lat="38.174382" lon="-1.541601">
        <ele>402.5</ele>
        <time>2013-12-07T11:36:47Z</time>
      </trkpt>
      <trkpt lat="38.174371" lon="-1.541479">
        <ele>402.9</ele>
        <time>2013-12-07T11:36:55Z</time>
      </trkpt>
      <trkpt lat="38.174316" lon="-1.541324">
        <ele>402.5</ele>
        <time>2013-12-07T11:37:04Z</time>
      </trkpt>
      <trkpt lat="38.174289" lon="-1.541231">
        <ele>402.9</ele>
        <time>2013-12-07T11:37:10Z</time>
      </trkpt>
      <trkpt lat="38.174201" lon="-1.540916">
        <ele>402.5</ele>
        <time>2013-12-07T11:37:28Z</time>
      </trkpt>
      <trkpt lat="38.174129" lon="-1.540644">
        <ele>403.4</ele>
        <time>2013-12-07T11:37:46Z</time>
      </trkpt>
      <trkpt lat="38.174113" lon="-1.540590">
        <ele>403.9</ele>
        <time>2013-12-07T11:38:00Z</time>
      </trkpt>
      <trkpt lat="38.174106" lon="-1.540482">
        <ele>403.9</ele>
        <time>2013-12-07T11:38:12Z</time>
      </trkpt>
      <trkpt lat="38.174148" lon="-1.540407">
        <ele>403.9</ele>
        <time>2013-12-07T11:38:25Z</time>
      </trkpt>
      <trkpt lat="38.174186" lon="-1.540377">
        <ele>403.9</ele>
        <time>2013-12-07T11:38:38Z</time>
      </trkpt>
      <trkpt lat="38.174213" lon="-1.540364">
        <ele>403.9</ele>
        <time>2013-12-07T11:38:42Z</time>
      </trkpt>
      <trkpt lat="38.174246" lon="-1.540321">
        <ele>404.4</ele>
        <time>2013-12-07T11:38:54Z</time>
      </trkpt>
      <trkpt lat="38.174276" lon="-1.540300">
        <ele>403.9</ele>
        <time>2013-12-07T11:39:00Z</time>
      </trkpt>
      <trkpt lat="38.174435" lon="-1.540170">
        <ele>404.4</ele>
        <time>2013-12-07T11:39:17Z</time>
      </trkpt>
      <trkpt lat="38.174560" lon="-1.540035">
        <ele>404.4</ele>
        <time>2013-12-07T11:39:32Z</time>
      </trkpt>
      <trkpt lat="38.174753" lon="-1.539800">
        <ele>404.9</ele>
        <time>2013-12-07T11:39:51Z</time>
      </trkpt>
      <trkpt lat="38.174917" lon="-1.539541">
        <ele>404.4</ele>
        <time>2013-12-07T11:40:09Z</time>
      </trkpt>
      <trkpt lat="38.175018" lon="-1.539414">
        <ele>405.3</ele>
        <time>2013-12-07T11:40:20Z</time>
      </trkpt>
      <trkpt lat="38.175201" lon="-1.539175">
        <ele>405.3</ele>
        <time>2013-12-07T11:40:39Z</time>
      </trkpt>
      <trkpt lat="38.175376" lon="-1.538935">
        <ele>406.3</ele>
        <time>2013-12-07T11:40:56Z</time>
      </trkpt>
      <trkpt lat="38.175542" lon="-1.538781">
        <ele>407.7</ele>
        <time>2013-12-07T11:41:11Z</time>
      </trkpt>
      <trkpt lat="38.175662" lon="-1.538625">
        <ele>408.2</ele>
        <time>2013-12-07T11:41:24Z</time>
      </trkpt>
      <trkpt lat="38.175671" lon="-1.538614">
        <ele>407.7</ele>
        <time>2013-12-07T11:41:25Z</time>
      </trkpt>
      <trkpt lat="38.175718" lon="-1.538545">
        <ele>408.2</ele>
        <time>2013-12-07T11:41:30Z</time>
      </trkpt>
      <trkpt lat="38.175804" lon="-1.538401">
        <ele>408.7</ele>
        <time>2013-12-07T11:41:42Z</time>
      </trkpt>
      <trkpt lat="38.175949" lon="-1.538231">
        <ele>410.1</ele>
        <time>2013-12-07T11:41:56Z</time>
      </trkpt>
      <trkpt lat="38.176100" lon="-1.538026">
        <ele>411.6</ele>
        <time>2013-12-07T11:42:13Z</time>
      </trkpt>
      <trkpt lat="38.176234" lon="-1.537861">
        <ele>412.1</ele>
        <time>2013-12-07T11:42:27Z</time>
      </trkpt>
      <trkpt lat="38.176398" lon="-1.537647">
        <ele>412.1</ele>
        <time>2013-12-07T11:42:44Z</time>
      </trkpt>
      <trkpt lat="38.176588" lon="-1.537413">
        <ele>413.0</ele>
        <time>2013-12-07T11:43:03Z</time>
      </trkpt>
      <trkpt lat="38.176739" lon="-1.537216">
        <ele>414.0</ele>
        <time>2013-12-07T11:43:19Z</time>
      </trkpt>
      <trkpt lat="38.176930" lon="-1.536969">
        <ele>414.0</ele>
        <time>2013-12-07T11:43:38Z</time>
      </trkpt>
      <trkpt lat="38.177155" lon="-1.536744">
        <ele>415.4</ele>
        <time>2013-12-07T11:43:58Z</time>
      </trkpt>
      <trkpt lat="38.177288" lon="-1.536559">
        <ele>416.4</ele>
        <time>2013-12-07T11:44:12Z</time>
      </trkpt>
      <trkpt lat="38.177327" lon="-1.536480">
        <ele>416.4</ele>
        <time>2013-12-07T11:44:27Z</time>
      </trkpt>
      <trkpt lat="38.177329" lon="-1.536479">
        <ele>415.9</ele>
        <time>2013-12-07T11:44:28Z</time>
      </trkpt>
      <trkpt lat="38.177379" lon="-1.536440">
        <ele>415.9</ele>
        <time>2013-12-07T11:44:32Z</time>
      </trkpt>
      <trkpt lat="38.177488" lon="-1.536264">
        <ele>416.4</ele>
        <time>2013-12-07T11:44:48Z</time>
      </trkpt>
      <trkpt lat="38.177493" lon="-1.536245">
        <ele>416.4</ele>
        <time>2013-12-07T11:45:14Z</time>
      </trkpt>
      <trkpt lat="38.177515" lon="-1.536236">
        <ele>416.9</ele>
        <time>2013-12-07T11:45:17Z</time>
      </trkpt>
      <trkpt lat="38.177583" lon="-1.536164">
        <ele>416.9</ele>
        <time>2013-12-07T11:45:24Z</time>
      </trkpt>
      <trkpt lat="38.177684" lon="-1.536020">
        <ele>418.3</ele>
        <time>2013-12-07T11:45:36Z</time>
      </trkpt>
      <trkpt lat="38.177816" lon="-1.535792">
        <ele>418.3</ele>
        <time>2013-12-07T11:45:53Z</time>
      </trkpt>
      <trkpt lat="38.177828" lon="-1.535544">
        <ele>418.8</ele>
        <time>2013-12-07T11:46:09Z</time>
      </trkpt>
      <trkpt lat="38.177825" lon="-1.535544">
        <ele>418.3</ele>
        <time>2013-12-07T11:46:13Z</time>
      </trkpt>
      <trkpt lat="38.177816" lon="-1.535160">
        <ele>418.8</ele>
        <time>2013-12-07T11:46:32Z</time>
      </trkpt>
      <trkpt lat="38.177815" lon="-1.535141">
        <ele>418.8</ele>
        <time>2013-12-07T11:46:33Z</time>
      </trkpt>
      <trkpt lat="38.177800" lon="-1.534852">
        <ele>419.3</ele>
        <time>2013-12-07T11:46:51Z</time>
      </trkpt>
      <trkpt lat="38.177807" lon="-1.534753">
        <ele>419.3</ele>
        <time>2013-12-07T11:46:57Z</time>
      </trkpt>
      <trkpt lat="38.177790" lon="-1.534419">
        <ele>419.8</ele>
        <time>2013-12-07T11:47:16Z</time>
      </trkpt>
      <trkpt lat="38.177794" lon="-1.534152">
        <ele>419.8</ele>
        <time>2013-12-07T11:47:31Z</time>
      </trkpt>
      <trkpt lat="38.177819" lon="-1.533830">
        <ele>419.3</ele>
        <time>2013-12-07T11:47:50Z</time>
      </trkpt>
      <trkpt lat="38.177888" lon="-1.533550">
        <ele>420.2</ele>
        <time>2013-12-07T11:48:07Z</time>
      </trkpt>
      <trkpt lat="38.177970" lon="-1.533321">
        <ele>421.2</ele>
        <time>2013-12-07T11:48:23Z</time>
      </trkpt>
      <trkpt lat="38.178039" lon="-1.533094">
        <ele>421.2</ele>
        <time>2013-12-07T11:48:38Z</time>
      </trkpt>
      <trkpt lat="38.178065" lon="-1.533017">
        <ele>422.2</ele>
        <time>2013-12-07T11:48:52Z</time>
      </trkpt>
      <trkpt lat="38.178149" lon="-1.532886">
        <ele>422.6</ele>
        <time>2013-12-07T11:49:02Z</time>
      </trkpt>
      <trkpt lat="38.178244" lon="-1.532782">
        <ele>423.6</ele>
        <time>2013-12-07T11:49:18Z</time>
      </trkpt>
      <trkpt lat="38.178273" lon="-1.532755">
        <ele>424.1</ele>
        <time>2013-12-07T11:49:47Z</time>
      </trkpt>
      <trkpt lat="38.178380" lon="-1.532691">
        <ele>424.1</ele>
        <time>2013-12-07T11:49:54Z</time>
      </trkpt>
      <trkpt lat="38.178641" lon="-1.532433">
        <ele>426.5</ele>
        <time>2013-12-07T11:50:58Z</time>
      </trkpt>
      <trkpt lat="38.178808" lon="-1.532236">
        <ele>427.4</ele>
        <time>2013-12-07T11:51:12Z</time>
      </trkpt>
      <trkpt lat="38.178873" lon="-1.531857">
        <ele>427.4</ele>
        <time>2013-12-07T11:51:31Z</time>
      </trkpt>
      <trkpt lat="38.178912" lon="-1.531552">
        <ele>427.9</ele>
        <time>2013-12-07T11:51:47Z</time>
      </trkpt>
      <trkpt lat="38.178967" lon="-1.531277">
        <ele>427.9</ele>
        <time>2013-12-07T11:52:02Z</time>
      </trkpt>
      <trkpt lat="38.179005" lon="-1.530987">
        <ele>428.4</ele>
        <time>2013-12-07T11:52:23Z</time>
      </trkpt>
      <trkpt lat="38.179203" lon="-1.531015">
        <ele>428.4</ele>
        <time>2013-12-07T11:55:38Z</time>
      </trkpt>
      <trkpt lat="38.179281" lon="-1.531084">
        <ele>428.4</ele>
        <time>2013-12-07T11:55:46Z</time>
      </trkpt>
      <trkpt lat="38.179336" lon="-1.531138">
        <ele>428.9</ele>
        <time>2013-12-07T11:55:51Z</time>
      </trkpt>
      <trkpt lat="38.179592" lon="-1.531257">
        <ele>429.4</ele>
        <time>2013-12-07T11:56:07Z</time>
      </trkpt>
      <trkpt lat="38.179864" lon="-1.531260">
        <ele>430.8</ele>
        <time>2013-12-07T11:56:24Z</time>
      </trkpt>
      <trkpt lat="38.180070" lon="-1.531271">
        <ele>432.7</ele>
        <time>2013-12-07T11:56:38Z</time>
      </trkpt>
      <trkpt lat="38.180267" lon="-1.531250">
        <ele>434.2</ele>
        <time>2013-12-07T11:56:53Z</time>
      </trkpt>
      <trkpt lat="38.180488" lon="-1.531258">
        <ele>436.1</ele>
        <time>2013-12-07T11:57:32Z</time>
      </trkpt>
      <trkpt lat="38.180609" lon="-1.531277">
        <ele>438.0</ele>
        <time>2013-12-07T11:57:41Z</time>
      </trkpt>
      <trkpt lat="38.180628" lon="-1.531214">
        <ele>437.5</ele>
        <time>2013-12-07T11:57:45Z</time>
      </trkpt>
      <trkpt lat="38.180634" lon="-1.531158">
        <ele>437.5</ele>
        <time>2013-12-07T11:57:48Z</time>
      </trkpt>
      <trkpt lat="38.180666" lon="-1.530838">
        <ele>437.1</ele>
        <time>2013-12-07T11:58:06Z</time>
      </trkpt>
      <trkpt lat="38.180631" lon="-1.530552">
        <ele>435.6</ele>
        <time>2013-12-07T11:58:22Z</time>
      </trkpt>
      <trkpt lat="38.180615" lon="-1.530199">
        <ele>433.7</ele>
        <time>2013-12-07T11:58:42Z</time>
      </trkpt>
      <trkpt lat="38.180617" lon="-1.530023">
        <ele>432.7</ele>
        <time>2013-12-07T11:58:54Z</time>
      </trkpt>
      <trkpt lat="38.180629" lon="-1.529969">
        <ele>432.7</ele>
        <time>2013-12-07T11:58:57Z</time>
      </trkpt>
      <trkpt lat="38.180616" lon="-1.529887">
        <ele>432.2</ele>
        <time>2013-12-07T11:59:06Z</time>
      </trkpt>
      <trkpt lat="38.180584" lon="-1.529642">
        <ele>430.3</ele>
        <time>2013-12-07T11:59:21Z</time>
      </trkpt>
      <trkpt lat="38.180543" lon="-1.529501">
        <ele>428.9</ele>
        <time>2013-12-07T11:59:32Z</time>
      </trkpt>
      <trkpt lat="38.180519" lon="-1.529446">
        <ele>428.4</ele>
        <time>2013-12-07T11:59:36Z</time>
      </trkpt>
      <trkpt lat="38.180487" lon="-1.529224">
        <ele>426.5</ele>
        <time>2013-12-07T11:59:51Z</time>
      </trkpt>
      <trkpt lat="38.180492" lon="-1.529222">
        <ele>427.0</ele>
        <time>2013-12-07T11:59:54Z</time>
      </trkpt>
      <trkpt lat="38.180456" lon="-1.528949">
        <ele>425.0</ele>
        <time>2013-12-07T12:00:09Z</time>
      </trkpt>
      <trkpt lat="38.180459" lon="-1.528835">
        <ele>424.6</ele>
        <time>2013-12-07T12:00:16Z</time>
      </trkpt>
      <trkpt lat="38.180413" lon="-1.528579">
        <ele>423.1</ele>
        <time>2013-12-07T12:00:31Z</time>
      </trkpt>
      <trkpt lat="38.180413" lon="-1.528406">
        <ele>424.1</ele>
        <time>2013-12-07T12:00:41Z</time>
      </trkpt>
      <trkpt lat="38.180412" lon="-1.528372">
        <ele>422.6</ele>
        <time>2013-12-07T12:00:43Z</time>
      </trkpt>
      <trkpt lat="38.180390" lon="-1.528225">
        <ele>420.7</ele>
        <time>2013-12-07T12:00:53Z</time>
      </trkpt>
      <trkpt lat="38.180384" lon="-1.528205">
        <ele>424.6</ele>
        <time>2013-12-07T12:00:54Z</time>
      </trkpt>
      <trkpt lat="38.180379" lon="-1.528188">
        <ele>422.2</ele>
        <time>2013-12-07T12:00:55Z</time>
      </trkpt>
      <trkpt lat="38.180368" lon="-1.528082">
        <ele>421.2</ele>
        <time>2013-12-07T12:01:01Z</time>
      </trkpt>
      <trkpt lat="38.180372" lon="-1.527792">
        <ele>419.8</ele>
        <time>2013-12-07T12:01:18Z</time>
      </trkpt>
      <trkpt lat="38.180403" lon="-1.527564">
        <ele>419.3</ele>
        <time>2013-12-07T12:01:33Z</time>
      </trkpt>
      <trkpt lat="38.180473" lon="-1.527370">
        <ele>418.3</ele>
        <time>2013-12-07T12:01:50Z</time>
      </trkpt>
      <trkpt lat="38.180600" lon="-1.527047">
        <ele>417.8</ele>
        <time>2013-12-07T12:03:53Z</time>
      </trkpt>
      <trkpt lat="38.180582" lon="-1.526683">
        <ele>415.0</ele>
        <time>2013-12-07T12:04:14Z</time>
      </trkpt>
      <trkpt lat="38.180504" lon="-1.526386">
        <ele>413.0</ele>
        <time>2013-12-07T12:04:31Z</time>
      </trkpt>
      <trkpt lat="38.180576" lon="-1.526180">
        <ele>410.6</ele>
        <time>2013-12-07T12:04:45Z</time>
      </trkpt>
      <trkpt lat="38.180653" lon="-1.525906">
        <ele>409.2</ele>
        <time>2013-12-07T12:05:03Z</time>
      </trkpt>
      <trkpt lat="38.180672" lon="-1.525851">
        <ele>408.2</ele>
        <time>2013-12-07T12:05:08Z</time>
      </trkpt>
      <trkpt lat="38.180677" lon="-1.525759">
        <ele>407.7</ele>
        <time>2013-12-07T12:05:13Z</time>
      </trkpt>
      <trkpt lat="38.180701" lon="-1.525583">
        <ele>406.8</ele>
        <time>2013-12-07T12:05:26Z</time>
      </trkpt>
      <trkpt lat="38.180742" lon="-1.525295">
        <ele>404.9</ele>
        <time>2013-12-07T12:05:43Z</time>
      </trkpt>
      <trkpt lat="38.180766" lon="-1.524987">
        <ele>402.9</ele>
        <time>2013-12-07T12:06:01Z</time>
      </trkpt>
      <trkpt lat="38.180824" lon="-1.524642">
        <ele>401.5</ele>
        <time>2013-12-07T12:06:21Z</time>
      </trkpt>
      <trkpt lat="38.180970" lon="-1.524369">
        <ele>399.1</ele>
        <time>2013-12-07T12:06:40Z</time>
      </trkpt>
      <trkpt lat="38.181155" lon="-1.524192">
        <ele>396.2</ele>
        <time>2013-12-07T12:06:57Z</time>
      </trkpt>
      <trkpt lat="38.181295" lon="-1.523949">
        <ele>396.2</ele>
        <time>2013-12-07T12:07:14Z</time>
      </trkpt>
      <trkpt lat="38.181326" lon="-1.523696">
        <ele>395.7</ele>
        <time>2013-12-07T12:07:30Z</time>
      </trkpt>
      <trkpt lat="38.181250" lon="-1.523367">
        <ele>393.3</ele>
        <time>2013-12-07T12:07:49Z</time>
      </trkpt>
      <trkpt lat="38.181278" lon="-1.523104">
        <ele>392.4</ele>
        <time>2013-12-07T12:08:05Z</time>
      </trkpt>
      <trkpt lat="38.181274" lon="-1.522822">
        <ele>392.4</ele>
        <time>2013-12-07T12:08:21Z</time>
      </trkpt>
      <trkpt lat="38.181269" lon="-1.522546">
        <ele>390.9</ele>
        <time>2013-12-07T12:08:38Z</time>
      </trkpt>
      <trkpt lat="38.181267" lon="-1.522200">
        <ele>389.5</ele>
        <time>2013-12-07T12:08:59Z</time>
      </trkpt>
      <trkpt lat="38.181298" lon="-1.521867">
        <ele>388.5</ele>
        <time>2013-12-07T12:09:19Z</time>
      </trkpt>
      <trkpt lat="38.181322" lon="-1.521583">
        <ele>387.1</ele>
        <time>2013-12-07T12:09:36Z</time>
      </trkpt>
      <trkpt lat="38.181345" lon="-1.521289">
        <ele>385.6</ele>
        <time>2013-12-07T12:09:54Z</time>
      </trkpt>
      <trkpt lat="38.181354" lon="-1.521213">
        <ele>385.6</ele>
        <time>2013-12-07T12:09:59Z</time>
      </trkpt>
      <trkpt lat="38.181385" lon="-1.520865">
        <ele>385.1</ele>
        <time>2013-12-07T12:10:19Z</time>
      </trkpt>
      <trkpt lat="38.181380" lon="-1.520618">
        <ele>384.2</ele>
        <time>2013-12-07T12:10:34Z</time>
      </trkpt>
      <trkpt lat="38.181316" lon="-1.520316">
        <ele>383.7</ele>
        <time>2013-12-07T12:10:52Z</time>
      </trkpt>
      <trkpt lat="38.181234" lon="-1.520053">
        <ele>382.7</ele>
        <time>2013-12-07T12:11:10Z</time>
      </trkpt>
      <trkpt lat="38.181182" lon="-1.519815">
        <ele>381.3</ele>
        <time>2013-12-07T12:11:27Z</time>
      </trkpt>
      <trkpt lat="38.181173" lon="-1.519612">
        <ele>380.3</ele>
        <time>2013-12-07T12:11:42Z</time>
      </trkpt>
      <trkpt lat="38.181163" lon="-1.519321">
        <ele>377.9</ele>
        <time>2013-12-07T12:11:59Z</time>
      </trkpt>
      <trkpt lat="38.181189" lon="-1.519030">
        <ele>376.5</ele>
        <time>2013-12-07T12:12:16Z</time>
      </trkpt>
      <trkpt lat="38.181244" lon="-1.518723">
        <ele>376.0</ele>
        <time>2013-12-07T12:12:35Z</time>
      </trkpt>
      <trkpt lat="38.181293" lon="-1.518450">
        <ele>374.6</ele>
        <time>2013-12-07T12:12:51Z</time>
      </trkpt>
      <trkpt lat="38.181316" lon="-1.518182">
        <ele>373.1</ele>
        <time>2013-12-07T12:13:07Z</time>
      </trkpt>
      <trkpt lat="38.181322" lon="-1.518077">
        <ele>372.2</ele>
        <time>2013-12-07T12:13:14Z</time>
      </trkpt>
      <trkpt lat="38.181377" lon="-1.517803">
        <ele>369.3</ele>
        <time>2013-12-07T12:13:31Z</time>
      </trkpt>
      <trkpt lat="38.181355" lon="-1.517547">
        <ele>366.4</ele>
        <time>2013-12-07T12:13:46Z</time>
      </trkpt>
      <trkpt lat="38.181280" lon="-1.517310">
        <ele>365.4</ele>
        <time>2013-12-07T12:14:02Z</time>
      </trkpt>
      <trkpt lat="38.181280" lon="-1.517301">
        <ele>365.4</ele>
        <time>2013-12-07T12:14:07Z</time>
      </trkpt>
      <trkpt lat="38.181258" lon="-1.517244">
        <ele>364.5</ele>
        <time>2013-12-07T12:14:11Z</time>
      </trkpt>
      <trkpt lat="38.181197" lon="-1.517159">
        <ele>363.0</ele>
        <time>2013-12-07T12:14:18Z</time>
      </trkpt>
      <trkpt lat="38.181145" lon="-1.517087">
        <ele>362.5</ele>
        <time>2013-12-07T12:14:29Z</time>
      </trkpt>
      <trkpt lat="38.181092" lon="-1.516954">
        <ele>360.6</ele>
        <time>2013-12-07T12:14:39Z</time>
      </trkpt>
      <trkpt lat="38.181004" lon="-1.516744">
        <ele>358.2</ele>
        <time>2013-12-07T12:14:57Z</time>
      </trkpt>
      <trkpt lat="38.180999" lon="-1.516733">
        <ele>358.2</ele>
        <time>2013-12-07T12:15:19Z</time>
      </trkpt>
      <trkpt lat="38.180987" lon="-1.516689">
        <ele>358.2</ele>
        <time>2013-12-07T12:15:50Z</time>
      </trkpt>
      <trkpt lat="38.180958" lon="-1.516623">
        <ele>358.2</ele>
        <time>2013-12-07T12:16:02Z</time>
      </trkpt>
      <trkpt lat="38.180947" lon="-1.516639">
        <ele>358.2</ele>
        <time>2013-12-07T12:16:14Z</time>
      </trkpt>
      <trkpt lat="38.180911" lon="-1.516604">
        <ele>358.7</ele>
        <time>2013-12-07T12:16:28Z</time>
      </trkpt>
      <trkpt lat="38.180897" lon="-1.516593">
        <ele>359.2</ele>
        <time>2013-12-07T12:16:30Z</time>
      </trkpt>
      <trkpt lat="38.180764" lon="-1.516465">
        <ele>359.2</ele>
        <time>2013-12-07T12:16:43Z</time>
      </trkpt>
      <trkpt lat="38.180628" lon="-1.516339">
        <ele>359.2</ele>
        <time>2013-12-07T12:16:57Z</time>
      </trkpt>
      <trkpt lat="38.180584" lon="-1.516339">
        <ele>360.1</ele>
        <time>2013-12-07T12:17:01Z</time>
      </trkpt>
      <trkpt lat="38.180498" lon="-1.516363">
        <ele>361.1</ele>
        <time>2013-12-07T12:17:08Z</time>
      </trkpt>
      <trkpt lat="38.180446" lon="-1.516359">
        <ele>361.1</ele>
        <time>2013-12-07T12:17:12Z</time>
      </trkpt>
      <trkpt lat="38.180382" lon="-1.516360">
        <ele>362.5</ele>
        <time>2013-12-07T12:17:18Z</time>
      </trkpt>
      <trkpt lat="38.180361" lon="-1.516352">
        <ele>363.0</ele>
        <time>2013-12-07T12:17:21Z</time>
      </trkpt>
      <trkpt lat="38.180268" lon="-1.516230">
        <ele>363.5</ele>
        <time>2013-12-07T12:17:34Z</time>
      </trkpt>
      <trkpt lat="38.180210" lon="-1.516151">
        <ele>364.5</ele>
        <time>2013-12-07T12:17:41Z</time>
      </trkpt>
      <trkpt lat="38.180079" lon="-1.516054">
        <ele>365.9</ele>
        <time>2013-12-07T12:17:53Z</time>
      </trkpt>
      <trkpt lat="38.180049" lon="-1.516024">
        <ele>366.4</ele>
        <time>2013-12-07T12:17:56Z</time>
      </trkpt>
      <trkpt lat="38.179929" lon="-1.515941">
        <ele>368.3</ele>
        <time>2013-12-07T12:18:09Z</time>
      </trkpt>
      <trkpt lat="38.179935" lon="-1.515934">
        <ele>368.8</ele>
        <time>2013-12-07T12:18:23Z</time>
      </trkpt>
      <trkpt lat="38.179912" lon="-1.515872">
        <ele>368.3</ele>
        <time>2013-12-07T12:18:27Z</time>
      </trkpt>
      <trkpt lat="38.179886" lon="-1.515809">
        <ele>369.3</ele>
        <time>2013-12-07T12:18:31Z</time>
      </trkpt>
      <trkpt lat="38.179881" lon="-1.515778">
        <ele>369.8</ele>
        <time>2013-12-07T12:18:33Z</time>
      </trkpt>
      <trkpt lat="38.179869" lon="-1.515731">
        <ele>370.2</ele>
        <time>2013-12-07T12:18:37Z</time>
      </trkpt>
      <trkpt lat="38.179881" lon="-1.515617">
        <ele>370.7</ele>
        <time>2013-12-07T12:18:44Z</time>
      </trkpt>
      <trkpt lat="38.179924" lon="-1.515421">
        <ele>373.1</ele>
        <time>2013-12-07T12:18:58Z</time>
      </trkpt>
      <trkpt lat="38.179917" lon="-1.515401">
        <ele>373.1</ele>
        <time>2013-12-07T12:19:00Z</time>
      </trkpt>
      <trkpt lat="38.179882" lon="-1.515339">
        <ele>371.7</ele>
        <time>2013-12-07T12:19:04Z</time>
      </trkpt>
      <trkpt lat="38.179766" lon="-1.515155">
        <ele>375.0</ele>
        <time>2013-12-07T12:19:21Z</time>
      </trkpt>
      <trkpt lat="38.179667" lon="-1.515003">
        <ele>376.0</ele>
        <time>2013-12-07T12:19:35Z</time>
      </trkpt>
      <trkpt lat="38.179652" lon="-1.514989">
        <ele>377.0</ele>
        <time>2013-12-07T12:19:42Z</time>
      </trkpt>
      <trkpt lat="38.179591" lon="-1.514793">
        <ele>377.5</ele>
        <time>2013-12-07T12:19:57Z</time>
      </trkpt>
      <trkpt lat="38.179536" lon="-1.514675">
        <ele>378.9</ele>
        <time>2013-12-07T12:20:08Z</time>
      </trkpt>
      <trkpt lat="38.179520" lon="-1.514640">
        <ele>378.9</ele>
        <time>2013-12-07T12:20:14Z</time>
      </trkpt>
      <trkpt lat="38.179478" lon="-1.514425">
        <ele>379.9</ele>
        <time>2013-12-07T12:20:30Z</time>
      </trkpt>
      <trkpt lat="38.179559" lon="-1.514290">
        <ele>381.3</ele>
        <time>2013-12-07T12:20:42Z</time>
      </trkpt>
      <trkpt lat="38.179584" lon="-1.514262">
        <ele>381.8</ele>
        <time>2013-12-07T12:20:46Z</time>
      </trkpt>
      <trkpt lat="38.179626" lon="-1.514222">
        <ele>381.8</ele>
        <time>2013-12-07T12:20:50Z</time>
      </trkpt>
      <trkpt lat="38.179761" lon="-1.514094">
        <ele>382.3</ele>
        <time>2013-12-07T12:21:06Z</time>
      </trkpt>
      <trkpt lat="38.179876" lon="-1.514068">
        <ele>383.2</ele>
        <time>2013-12-07T12:21:16Z</time>
      </trkpt>
      <trkpt lat="38.179893" lon="-1.514072">
        <ele>383.2</ele>
        <time>2013-12-07T12:21:18Z</time>
      </trkpt>
      <trkpt lat="38.180111" lon="-1.514067">
        <ele>384.7</ele>
        <time>2013-12-07T12:21:35Z</time>
      </trkpt>
      <trkpt lat="38.180123" lon="-1.514063">
        <ele>384.7</ele>
        <time>2013-12-07T12:21:36Z</time>
      </trkpt>
      <trkpt lat="38.180176" lon="-1.514038">
        <ele>385.6</ele>
        <time>2013-12-07T12:21:40Z</time>
      </trkpt>
      <trkpt lat="38.180327" lon="-1.513899">
        <ele>386.6</ele>
        <time>2013-12-07T12:21:54Z</time>
      </trkpt>
      <trkpt lat="38.180334" lon="-1.513806">
        <ele>384.7</ele>
        <time>2013-12-07T12:22:03Z</time>
      </trkpt>
      <trkpt lat="38.180333" lon="-1.513728">
        <ele>387.1</ele>
        <time>2013-12-07T12:22:09Z</time>
      </trkpt>
      <trkpt lat="38.180339" lon="-1.513475">
        <ele>388.0</ele>
        <time>2013-12-07T12:22:26Z</time>
      </trkpt>
      <trkpt lat="38.180333" lon="-1.513318">
        <ele>389.0</ele>
        <time>2013-12-07T12:22:37Z</time>
      </trkpt>
      <trkpt lat="38.180336" lon="-1.513293">
        <ele>389.5</ele>
        <time>2013-12-07T12:22:39Z</time>
      </trkpt>
      <trkpt lat="38.180320" lon="-1.513088">
        <ele>388.0</ele>
        <time>2013-12-07T12:22:53Z</time>
      </trkpt>
      <trkpt lat="38.180300" lon="-1.512869">
        <ele>389.0</ele>
        <time>2013-12-07T12:23:08Z</time>
      </trkpt>
      <trkpt lat="38.180293" lon="-1.512818">
        <ele>388.0</ele>
        <time>2013-12-07T12:23:11Z</time>
      </trkpt>
      <trkpt lat="38.180287" lon="-1.512615">
        <ele>391.4</ele>
        <time>2013-12-07T12:23:24Z</time>
      </trkpt>
      <trkpt lat="38.180279" lon="-1.512289">
        <ele>390.4</ele>
        <time>2013-12-07T12:23:43Z</time>
      </trkpt>
      <trkpt lat="38.180283" lon="-1.512229">
        <ele>391.4</ele>
        <time>2013-12-07T12:23:54Z</time>
      </trkpt>
      <trkpt lat="38.180282" lon="-1.512108">
        <ele>392.4</ele>
        <time>2013-12-07T12:24:03Z</time>
      </trkpt>
      <trkpt lat="38.180284" lon="-1.512053">
        <ele>393.3</ele>
        <time>2013-12-07T12:24:07Z</time>
      </trkpt>
      <trkpt lat="38.180275" lon="-1.511943">
        <ele>393.8</ele>
        <time>2013-12-07T12:24:14Z</time>
      </trkpt>
      <trkpt lat="38.180259" lon="-1.511702">
        <ele>392.8</ele>
        <time>2013-12-07T12:24:30Z</time>
      </trkpt>
      <trkpt lat="38.180222" lon="-1.511485">
        <ele>393.3</ele>
        <time>2013-12-07T12:24:45Z</time>
      </trkpt>
      <trkpt lat="38.180208" lon="-1.511271">
        <ele>393.3</ele>
        <time>2013-12-07T12:25:00Z</time>
      </trkpt>
      <trkpt lat="38.180214" lon="-1.511230">
        <ele>393.8</ele>
        <time>2013-12-07T12:25:03Z</time>
      </trkpt>
      <trkpt lat="38.180228" lon="-1.511140">
        <ele>394.3</ele>
        <time>2013-12-07T12:25:09Z</time>
      </trkpt>
      <trkpt lat="38.180259" lon="-1.510891">
        <ele>395.2</ele>
        <time>2013-12-07T12:25:26Z</time>
      </trkpt>
      <trkpt lat="38.180296" lon="-1.510676">
        <ele>396.2</ele>
        <time>2013-12-07T12:25:40Z</time>
      </trkpt>
      <trkpt lat="38.180315" lon="-1.510459">
        <ele>395.7</ele>
        <time>2013-12-07T12:25:54Z</time>
      </trkpt>
      <trkpt lat="38.180328" lon="-1.510404">
        <ele>395.2</ele>
        <time>2013-12-07T12:25:58Z</time>
      </trkpt>
      <trkpt lat="38.180343" lon="-1.510313">
        <ele>395.7</ele>
        <time>2013-12-07T12:26:05Z</time>
      </trkpt>
      <trkpt lat="38.180382" lon="-1.510081">
        <ele>397.2</ele>
        <time>2013-12-07T12:26:20Z</time>
      </trkpt>
      <trkpt lat="38.180402" lon="-1.510027">
        <ele>397.2</ele>
        <time>2013-12-07T12:26:24Z</time>
      </trkpt>
      <trkpt lat="38.180422" lon="-1.509967">
        <ele>397.2</ele>
        <time>2013-12-07T12:26:28Z</time>
      </trkpt>
      <trkpt lat="38.180453" lon="-1.509803">
        <ele>398.1</ele>
        <time>2013-12-07T12:26:39Z</time>
      </trkpt>
      <trkpt lat="38.180450" lon="-1.509777">
        <ele>398.1</ele>
        <time>2013-12-07T12:26:41Z</time>
      </trkpt>
      <trkpt lat="38.180460" lon="-1.509750">
        <ele>397.6</ele>
        <time>2013-12-07T12:26:43Z</time>
      </trkpt>
      <trkpt lat="38.180452" lon="-1.509645">
        <ele>399.6</ele>
        <time>2013-12-07T12:26:57Z</time>
      </trkpt>
      <trkpt lat="38.180454" lon="-1.509627">
        <ele>399.6</ele>
        <time>2013-12-07T12:27:17Z</time>
      </trkpt>
      <trkpt lat="38.180473" lon="-1.509533">
        <ele>399.6</ele>
        <time>2013-12-07T12:27:23Z</time>
      </trkpt>
      <trkpt lat="38.180504" lon="-1.509276">
        <ele>401.5</ele>
        <time>2013-12-07T12:27:39Z</time>
      </trkpt>
      <trkpt lat="38.180537" lon="-1.508972">
        <ele>402.0</ele>
        <time>2013-12-07T12:27:56Z</time>
      </trkpt>
      <trkpt lat="38.180581" lon="-1.508713">
        <ele>403.9</ele>
        <time>2013-12-07T12:28:11Z</time>
      </trkpt>
      <trkpt lat="38.180660" lon="-1.508461">
        <ele>406.3</ele>
        <time>2013-12-07T12:28:27Z</time>
      </trkpt>
      <trkpt lat="38.180707" lon="-1.508350">
        <ele>407.3</ele>
        <time>2013-12-07T12:28:34Z</time>
      </trkpt>
      <trkpt lat="38.180762" lon="-1.508270">
        <ele>408.2</ele>
        <time>2013-12-07T12:28:40Z</time>
      </trkpt>
      <trkpt lat="38.180972" lon="-1.507908">
        <ele>408.7</ele>
        <time>2013-12-07T12:29:39Z</time>
      </trkpt>
      <trkpt lat="38.181037" lon="-1.507793">
        <ele>408.7</ele>
        <time>2013-12-07T12:29:48Z</time>
      </trkpt>
      <trkpt lat="38.181073" lon="-1.507737">
        <ele>409.7</ele>
        <time>2013-12-07T12:29:53Z</time>
      </trkpt>
      <trkpt lat="38.181081" lon="-1.507700">
        <ele>410.1</ele>
        <time>2013-12-07T12:29:56Z</time>
      </trkpt>
      <trkpt lat="38.181121" lon="-1.507598">
        <ele>410.6</ele>
        <time>2013-12-07T12:30:04Z</time>
      </trkpt>
      <trkpt lat="38.181137" lon="-1.507548">
        <ele>411.1</ele>
        <time>2013-12-07T12:30:08Z</time>
      </trkpt>
      <trkpt lat="38.181256" lon="-1.507386">
        <ele>408.7</ele>
        <time>2013-12-07T12:30:24Z</time>
      </trkpt>
      <trkpt lat="38.181263" lon="-1.507378">
        <ele>408.7</ele>
        <time>2013-12-07T12:30:25Z</time>
      </trkpt>
      <trkpt lat="38.181269" lon="-1.507368">
        <ele>413.0</ele>
        <time>2013-12-07T12:30:26Z</time>
      </trkpt>
      <trkpt lat="38.181292" lon="-1.507335">
        <ele>409.7</ele>
        <time>2013-12-07T12:30:29Z</time>
      </trkpt>
      <trkpt lat="38.181295" lon="-1.507321">
        <ele>415.0</ele>
        <time>2013-12-07T12:30:30Z</time>
      </trkpt>
      <trkpt lat="38.181317" lon="-1.507227">
        <ele>412.1</ele>
        <time>2013-12-07T12:30:37Z</time>
      </trkpt>
      <trkpt lat="38.181353" lon="-1.507180">
        <ele>413.0</ele>
        <time>2013-12-07T12:30:53Z</time>
      </trkpt>
      <trkpt lat="38.181377" lon="-1.507137">
        <ele>412.5</ele>
        <time>2013-12-07T12:31:17Z</time>
      </trkpt>
      <trkpt lat="38.181433" lon="-1.506847">
        <ele>414.0</ele>
        <time>2013-12-07T12:31:33Z</time>
      </trkpt>
      <trkpt lat="38.181579" lon="-1.506594">
        <ele>416.9</ele>
        <time>2013-12-07T12:31:49Z</time>
      </trkpt>
      <trkpt lat="38.181590" lon="-1.506577">
        <ele>416.9</ele>
        <time>2013-12-07T12:31:51Z</time>
      </trkpt>
      <trkpt lat="38.181628" lon="-1.506531">
        <ele>417.4</ele>
        <time>2013-12-07T12:31:55Z</time>
      </trkpt>
      <trkpt lat="38.181801" lon="-1.506358">
        <ele>419.8</ele>
        <time>2013-12-07T12:32:11Z</time>
      </trkpt>
      <trkpt lat="38.181897" lon="-1.506284">
        <ele>420.2</ele>
        <time>2013-12-07T12:32:18Z</time>
      </trkpt>
      <trkpt lat="38.181966" lon="-1.506235">
        <ele>420.7</ele>
        <time>2013-12-07T12:32:23Z</time>
      </trkpt>
      <trkpt lat="38.182171" lon="-1.506046">
        <ele>422.2</ele>
        <time>2013-12-07T12:32:38Z</time>
      </trkpt>
      <trkpt lat="38.182199" lon="-1.506025">
        <ele>422.2</ele>
        <time>2013-12-07T12:32:41Z</time>
      </trkpt>
      <trkpt lat="38.182247" lon="-1.505963">
        <ele>421.7</ele>
        <time>2013-12-07T12:32:55Z</time>
      </trkpt>
      <trkpt lat="38.182257" lon="-1.505957">
        <ele>421.2</ele>
        <time>2013-12-07T12:32:58Z</time>
      </trkpt>
      <trkpt lat="38.182332" lon="-1.505947">
        <ele>420.2</ele>
        <time>2013-12-07T12:39:09Z</time>
      </trkpt>
      <trkpt lat="38.182468" lon="-1.505904">
        <ele>421.7</ele>
        <time>2013-12-07T12:39:25Z</time>
      </trkpt>
      <trkpt lat="38.182648" lon="-1.505859">
        <ele>421.7</ele>
        <time>2013-12-07T12:39:42Z</time>
      </trkpt>
      <trkpt lat="38.182827" lon="-1.505829">
        <ele>422.2</ele>
        <time>2013-12-07T12:39:59Z</time>
      </trkpt>
      <trkpt lat="38.183007" lon="-1.505808">
        <ele>423.1</ele>
        <time>2013-12-07T12:40:16Z</time>
      </trkpt>
      <trkpt lat="38.183185" lon="-1.505799">
        <ele>422.6</ele>
        <time>2013-12-07T12:40:32Z</time>
      </trkpt>
      <trkpt lat="38.183356" lon="-1.505842">
        <ele>422.6</ele>
        <time>2013-12-07T12:40:47Z</time>
      </trkpt>
      <trkpt lat="38.183517" lon="-1.505949">
        <ele>422.6</ele>
        <time>2013-12-07T12:41:03Z</time>
      </trkpt>
      <trkpt lat="38.183727" lon="-1.506141">
        <ele>423.1</ele>
        <time>2013-12-07T12:41:23Z</time>
      </trkpt>
      <trkpt lat="38.183834" lon="-1.506407">
        <ele>423.6</ele>
        <time>2013-12-07T12:41:41Z</time>
      </trkpt>
      <trkpt lat="38.183993" lon="-1.506603">
        <ele>423.1</ele>
        <time>2013-12-07T12:41:58Z</time>
      </trkpt>
      <trkpt lat="38.184172" lon="-1.506711">
        <ele>423.6</ele>
        <time>2013-12-07T12:42:12Z</time>
      </trkpt>
      <trkpt lat="38.184380" lon="-1.506834">
        <ele>423.6</ele>
        <time>2013-12-07T12:42:29Z</time>
      </trkpt>
      <trkpt lat="38.184573" lon="-1.506763">
        <ele>424.6</ele>
        <time>2013-12-07T12:42:44Z</time>
      </trkpt>
      <trkpt lat="38.184628" lon="-1.506737">
        <ele>424.6</ele>
        <time>2013-12-07T12:42:57Z</time>
      </trkpt>
      <trkpt lat="38.184849" lon="-1.506611">
        <ele>425.0</ele>
        <time>2013-12-07T12:43:14Z</time>
      </trkpt>
      <trkpt lat="38.185096" lon="-1.506585">
        <ele>426.0</ele>
        <time>2013-12-07T12:43:33Z</time>
      </trkpt>
      <trkpt lat="38.185268" lon="-1.506564">
        <ele>426.0</ele>
        <time>2013-12-07T12:43:50Z</time>
      </trkpt>
      <trkpt lat="38.185501" lon="-1.506571">
        <ele>426.0</ele>
        <time>2013-12-07T12:44:08Z</time>
      </trkpt>
      <trkpt lat="38.185681" lon="-1.506435">
        <ele>426.0</ele>
        <time>2013-12-07T12:44:25Z</time>
      </trkpt>
      <trkpt lat="38.185706" lon="-1.506377">
        <ele>426.5</ele>
        <time>2013-12-07T12:44:29Z</time>
      </trkpt>
      <trkpt lat="38.185810" lon="-1.506117">
        <ele>427.0</ele>
        <time>2013-12-07T12:44:47Z</time>
      </trkpt>
      <trkpt lat="38.185921" lon="-1.505925">
        <ele>426.5</ele>
        <time>2013-12-07T12:45:05Z</time>
      </trkpt>
      <trkpt lat="38.186014" lon="-1.505695">
        <ele>426.5</ele>
        <time>2013-12-07T12:45:21Z</time>
      </trkpt>
      <trkpt lat="38.186067" lon="-1.505508">
        <ele>426.5</ele>
        <time>2013-12-07T12:45:36Z</time>
      </trkpt>
      <trkpt lat="38.186077" lon="-1.505488">
        <ele>426.5</ele>
        <time>2013-12-07T12:45:38Z</time>
      </trkpt>
      <trkpt lat="38.186149" lon="-1.505249">
        <ele>427.0</ele>
        <time>2013-12-07T12:45:54Z</time>
      </trkpt>
      <trkpt lat="38.186128" lon="-1.504958">
        <ele>426.5</ele>
        <time>2013-12-07T12:46:10Z</time>
      </trkpt>
      <trkpt lat="38.186014" lon="-1.504751">
        <ele>427.4</ele>
        <time>2013-12-07T12:46:26Z</time>
      </trkpt>
      <trkpt lat="38.185969" lon="-1.504461">
        <ele>427.9</ele>
        <time>2013-12-07T12:46:46Z</time>
      </trkpt>
      <trkpt lat="38.185931" lon="-1.504324">
        <ele>428.9</ele>
        <time>2013-12-07T12:47:01Z</time>
      </trkpt>
      <trkpt lat="38.185924" lon="-1.504301">
        <ele>428.4</ele>
        <time>2013-12-07T12:47:03Z</time>
      </trkpt>
      <trkpt lat="38.185931" lon="-1.504221">
        <ele>428.4</ele>
        <time>2013-12-07T12:47:08Z</time>
      </trkpt>
      <trkpt lat="38.185965" lon="-1.503904">
        <ele>428.9</ele>
        <time>2013-12-07T12:47:27Z</time>
      </trkpt>
      <trkpt lat="38.185991" lon="-1.503640">
        <ele>428.9</ele>
        <time>2013-12-07T12:47:43Z</time>
      </trkpt>
      <trkpt lat="38.186023" lon="-1.503324">
        <ele>429.4</ele>
        <time>2013-12-07T12:48:03Z</time>
      </trkpt>
      <trkpt lat="38.186043" lon="-1.503071">
        <ele>429.4</ele>
        <time>2013-12-07T12:48:19Z</time>
      </trkpt>
      <trkpt lat="38.186099" lon="-1.502792">
        <ele>429.4</ele>
        <time>2013-12-07T12:48:36Z</time>
      </trkpt>
      <trkpt lat="38.186131" lon="-1.502534">
        <ele>429.4</ele>
        <time>2013-12-07T12:48:52Z</time>
      </trkpt>
      <trkpt lat="38.186176" lon="-1.502363">
        <ele>429.9</ele>
        <time>2013-12-07T12:49:06Z</time>
      </trkpt>
      <trkpt lat="38.186279" lon="-1.502116">
        <ele>430.3</ele>
        <time>2013-12-07T12:49:24Z</time>
      </trkpt>
      <trkpt lat="38.186436" lon="-1.501952">
        <ele>430.3</ele>
        <time>2013-12-07T12:49:38Z</time>
      </trkpt>
      <trkpt lat="38.186596" lon="-1.501758">
        <ele>430.8</ele>
        <time>2013-12-07T12:49:55Z</time>
      </trkpt>
      <trkpt lat="38.186693" lon="-1.501651">
        <ele>431.3</ele>
        <time>2013-12-07T12:50:05Z</time>
      </trkpt>
      <trkpt lat="38.186757" lon="-1.501603">
        <ele>431.3</ele>
        <time>2013-12-07T12:50:11Z</time>
      </trkpt>
      <trkpt lat="38.186958" lon="-1.501579">
        <ele>431.8</ele>
        <time>2013-12-07T12:50:28Z</time>
      </trkpt>
      <trkpt lat="38.187141" lon="-1.501629">
        <ele>432.2</ele>
        <time>2013-12-07T12:50:42Z</time>
      </trkpt>
      <trkpt lat="38.187363" lon="-1.501474">
        <ele>433.2</ele>
        <time>2013-12-07T12:51:00Z</time>
      </trkpt>
      <trkpt lat="38.187516" lon="-1.501300">
        <ele>433.7</ele>
        <time>2013-12-07T12:51:16Z</time>
      </trkpt>
      <trkpt lat="38.187668" lon="-1.501131">
        <ele>433.7</ele>
        <time>2013-12-07T12:51:31Z</time>
      </trkpt>
      <trkpt lat="38.187772" lon="-1.501024">
        <ele>433.7</ele>
        <time>2013-12-07T12:51:42Z</time>
      </trkpt>
      <trkpt lat="38.187935" lon="-1.500785">
        <ele>434.2</ele>
        <time>2013-12-07T12:52:01Z</time>
      </trkpt>
      <trkpt lat="38.187981" lon="-1.500444">
        <ele>434.2</ele>
        <time>2013-12-07T12:52:21Z</time>
      </trkpt>
      <trkpt lat="38.188051" lon="-1.500178">
        <ele>434.2</ele>
        <time>2013-12-07T12:52:37Z</time>
      </trkpt>
      <trkpt lat="38.188194" lon="-1.499936">
        <ele>434.2</ele>
        <time>2013-12-07T12:52:54Z</time>
      </trkpt>
      <trkpt lat="38.188345" lon="-1.499638">
        <ele>433.7</ele>
        <time>2013-12-07T12:53:14Z</time>
      </trkpt>
      <trkpt lat="38.188370" lon="-1.499534">
        <ele>434.2</ele>
        <time>2013-12-07T12:53:24Z</time>
      </trkpt>
      <trkpt lat="38.188378" lon="-1.499212">
        <ele>434.6</ele>
        <time>2013-12-07T12:53:42Z</time>
      </trkpt>
      <trkpt lat="38.188430" lon="-1.499087">
        <ele>435.1</ele>
        <time>2013-12-07T12:53:54Z</time>
      </trkpt>
      <trkpt lat="38.188603" lon="-1.499022">
        <ele>435.6</ele>
        <time>2013-12-07T12:54:09Z</time>
      </trkpt>
      <trkpt lat="38.188880" lon="-1.498861">
        <ele>438.0</ele>
        <time>2013-12-07T12:54:27Z</time>
      </trkpt>
      <trkpt lat="38.188921" lon="-1.498710">
        <ele>439.0</ele>
        <time>2013-12-07T12:54:42Z</time>
      </trkpt>
      <trkpt lat="38.188992" lon="-1.498564">
        <ele>439.5</ele>
        <time>2013-12-07T12:54:55Z</time>
      </trkpt>
      <trkpt lat="38.189033" lon="-1.498322">
        <ele>440.4</ele>
        <time>2013-12-07T12:55:10Z</time>
      </trkpt>
      <trkpt lat="38.189046" lon="-1.498134">
        <ele>441.9</ele>
        <time>2013-12-07T12:55:22Z</time>
      </trkpt>
      <trkpt lat="38.189048" lon="-1.498116">
        <ele>441.9</ele>
        <time>2013-12-07T12:55:23Z</time>
      </trkpt>
      <trkpt lat="38.189040" lon="-1.498084">
        <ele>442.3</ele>
        <time>2013-12-07T12:55:26Z</time>
      </trkpt>
      <trkpt lat="38.189064" lon="-1.497863">
        <ele>443.3</ele>
        <time>2013-12-07T12:55:42Z</time>
      </trkpt>
      <trkpt lat="38.189113" lon="-1.497482">
        <ele>445.7</ele>
        <time>2013-12-07T12:56:01Z</time>
      </trkpt>
      <trkpt lat="38.189177" lon="-1.497205">
        <ele>447.1</ele>
        <time>2013-12-07T12:56:17Z</time>
      </trkpt>
      <trkpt lat="38.189190" lon="-1.497149">
        <ele>447.6</ele>
        <time>2013-12-07T12:56:28Z</time>
      </trkpt>
      <trkpt lat="38.189306" lon="-1.497040">
        <ele>447.6</ele>
        <time>2013-12-07T12:56:43Z</time>
      </trkpt>
      <trkpt lat="38.189446" lon="-1.496858">
        <ele>447.6</ele>
        <time>2013-12-07T12:56:57Z</time>
      </trkpt>
      <trkpt lat="38.189645" lon="-1.496595">
        <ele>447.6</ele>
        <time>2013-12-07T12:57:15Z</time>
      </trkpt>
      <trkpt lat="38.189658" lon="-1.496590">
        <ele>447.6</ele>
        <time>2013-12-07T12:57:19Z</time>
      </trkpt>
      <trkpt lat="38.189698" lon="-1.496475">
        <ele>447.6</ele>
        <time>2013-12-07T12:57:33Z</time>
      </trkpt>
      <trkpt lat="38.189786" lon="-1.496300">
        <ele>447.6</ele>
        <time>2013-12-07T12:57:45Z</time>
      </trkpt>
      <trkpt lat="38.189773" lon="-1.496098">
        <ele>448.1</ele>
        <time>2013-12-07T12:57:57Z</time>
      </trkpt>
      <trkpt lat="38.189725" lon="-1.495889">
        <ele>448.1</ele>
        <time>2013-12-07T12:58:09Z</time>
      </trkpt>
      <trkpt lat="38.189779" lon="-1.495791">
        <ele>448.1</ele>
        <time>2013-12-07T12:58:20Z</time>
      </trkpt>
      <trkpt lat="38.189908" lon="-1.495555">
        <ele>448.1</ele>
        <time>2013-12-07T12:58:35Z</time>
      </trkpt>
      <trkpt lat="38.190065" lon="-1.495316">
        <ele>448.1</ele>
        <time>2013-12-07T12:58:52Z</time>
      </trkpt>
      <trkpt lat="38.190253" lon="-1.495023">
        <ele>450.0</ele>
        <time>2013-12-07T12:59:12Z</time>
      </trkpt>
      <trkpt lat="38.190322" lon="-1.494911">
        <ele>450.5</ele>
        <time>2013-12-07T12:59:20Z</time>
      </trkpt>
      <trkpt lat="38.190345" lon="-1.494858">
        <ele>450.5</ele>
        <time>2013-12-07T12:59:24Z</time>
      </trkpt>
      <trkpt lat="38.190441" lon="-1.494612">
        <ele>451.5</ele>
        <time>2013-12-07T12:59:42Z</time>
      </trkpt>
      <trkpt lat="38.190488" lon="-1.494487">
        <ele>451.5</ele>
        <time>2013-12-07T12:59:52Z</time>
      </trkpt>
      <trkpt lat="38.190578" lon="-1.494279">
        <ele>451.5</ele>
        <time>2013-12-07T13:00:06Z</time>
      </trkpt>
      <trkpt lat="38.190631" lon="-1.494199">
        <ele>452.4</ele>
        <time>2013-12-07T13:00:13Z</time>
      </trkpt>
      <trkpt lat="38.190667" lon="-1.494123">
        <ele>452.9</ele>
        <time>2013-12-07T13:00:27Z</time>
      </trkpt>
      <trkpt lat="38.190707" lon="-1.494057">
        <ele>452.9</ele>
        <time>2013-12-07T13:00:34Z</time>
      </trkpt>
      <trkpt lat="38.190915" lon="-1.493864">
        <ele>453.4</ele>
        <time>2013-12-07T13:00:51Z</time>
      </trkpt>
      <trkpt lat="38.191105" lon="-1.493597">
        <ele>455.3</ele>
        <time>2013-12-07T13:01:09Z</time>
      </trkpt>
      <trkpt lat="38.191352" lon="-1.493463">
        <ele>456.3</ele>
        <time>2013-12-07T13:01:26Z</time>
      </trkpt>
      <trkpt lat="38.191363" lon="-1.493452">
        <ele>456.8</ele>
        <time>2013-12-07T13:01:27Z</time>
      </trkpt>
      <trkpt lat="38.191439" lon="-1.493427">
        <ele>457.2</ele>
        <time>2013-12-07T13:01:32Z</time>
      </trkpt>
      <trkpt lat="38.191700" lon="-1.493476">
        <ele>458.7</ele>
        <time>2013-12-07T13:01:51Z</time>
      </trkpt>
      <trkpt lat="38.191970" lon="-1.493298">
        <ele>460.6</ele>
        <time>2013-12-07T13:02:10Z</time>
      </trkpt>
      <trkpt lat="38.192020" lon="-1.492965">
        <ele>461.1</ele>
        <time>2013-12-07T13:02:28Z</time>
      </trkpt>
      <trkpt lat="38.192056" lon="-1.492629">
        <ele>461.6</ele>
        <time>2013-12-07T13:02:47Z</time>
      </trkpt>
      <trkpt lat="38.192106" lon="-1.492352">
        <ele>462.0</ele>
        <time>2013-12-07T13:03:03Z</time>
      </trkpt>
      <trkpt lat="38.192178" lon="-1.492187">
        <ele>462.5</ele>
        <time>2013-12-07T13:03:16Z</time>
      </trkpt>
      <trkpt lat="38.192261" lon="-1.492060">
        <ele>462.0</ele>
        <time>2013-12-07T13:03:29Z</time>
      </trkpt>
      <trkpt lat="38.192359" lon="-1.491929">
        <ele>463.5</ele>
        <time>2013-12-07T13:03:41Z</time>
      </trkpt>
      <trkpt lat="38.192544" lon="-1.491756">
        <ele>464.0</ele>
        <time>2013-12-07T13:03:58Z</time>
      </trkpt>
      <trkpt lat="38.192714" lon="-1.491661">
        <ele>464.0</ele>
        <time>2013-12-07T13:04:14Z</time>
      </trkpt>
      <trkpt lat="38.192892" lon="-1.491546">
        <ele>466.9</ele>
        <time>2013-12-07T13:04:29Z</time>
      </trkpt>
      <trkpt lat="38.193097" lon="-1.491388">
        <ele>468.8</ele>
        <time>2013-12-07T13:04:47Z</time>
      </trkpt>
      <trkpt lat="38.193243" lon="-1.491213">
        <ele>470.7</ele>
        <time>2013-12-07T13:05:04Z</time>
      </trkpt>
      <trkpt lat="38.193337" lon="-1.491091">
        <ele>470.7</ele>
        <time>2013-12-07T13:05:30Z</time>
      </trkpt>
      <trkpt lat="38.193345" lon="-1.491042">
        <ele>471.7</ele>
        <time>2013-12-07T13:06:07Z</time>
      </trkpt>
      <trkpt lat="38.193459" lon="-1.490806">
        <ele>473.1</ele>
        <time>2013-12-07T13:06:22Z</time>
      </trkpt>
      <trkpt lat="38.193456" lon="-1.490707">
        <ele>473.1</ele>
        <time>2013-12-07T13:06:35Z</time>
      </trkpt>
      <trkpt lat="38.193449" lon="-1.490598">
        <ele>472.6</ele>
        <time>2013-12-07T13:06:41Z</time>
      </trkpt>
      <trkpt lat="38.193433" lon="-1.490424">
        <ele>473.6</ele>
        <time>2013-12-07T13:06:53Z</time>
      </trkpt>
      <trkpt lat="38.193513" lon="-1.490277">
        <ele>472.6</ele>
        <time>2013-12-07T13:07:03Z</time>
      </trkpt>
      <trkpt lat="38.193603" lon="-1.490284">
        <ele>471.7</ele>
        <time>2013-12-07T13:07:17Z</time>
      </trkpt>
      <trkpt lat="38.193890" lon="-1.490296">
        <ele>472.1</ele>
        <time>2013-12-07T13:07:36Z</time>
      </trkpt>
      <trkpt lat="38.194119" lon="-1.490160">
        <ele>472.1</ele>
        <time>2013-12-07T13:07:53Z</time>
      </trkpt>
      <trkpt lat="38.194215" lon="-1.490191">
        <ele>471.7</ele>
        <time>2013-12-07T13:08:00Z</time>
      </trkpt>
      <trkpt lat="38.194241" lon="-1.490189">
        <ele>472.1</ele>
        <time>2013-12-07T13:08:03Z</time>
      </trkpt>
      <trkpt lat="38.194317" lon="-1.490214">
        <ele>472.1</ele>
        <time>2013-12-07T13:08:15Z</time>
      </trkpt>
      <trkpt lat="38.194365" lon="-1.490271">
        <ele>472.1</ele>
        <time>2013-12-07T13:08:19Z</time>
      </trkpt>
      <trkpt lat="38.194576" lon="-1.490465">
        <ele>471.2</ele>
        <time>2013-12-07T13:08:39Z</time>
      </trkpt>
      <trkpt lat="38.194672" lon="-1.490581">
        <ele>471.2</ele>
        <time>2013-12-07T13:08:51Z</time>
      </trkpt>
      <trkpt lat="38.194905" lon="-1.490587">
        <ele>470.7</ele>
        <time>2013-12-07T13:09:08Z</time>
      </trkpt>
      <trkpt lat="38.195128" lon="-1.490393">
        <ele>470.2</ele>
        <time>2013-12-07T13:09:27Z</time>
      </trkpt>
      <trkpt lat="38.195190" lon="-1.490112">
        <ele>469.7</ele>
        <time>2013-12-07T13:09:44Z</time>
      </trkpt>
      <trkpt lat="38.195194" lon="-1.490096">
        <ele>469.7</ele>
        <time>2013-12-07T13:09:52Z</time>
      </trkpt>
      <trkpt lat="38.195197" lon="-1.490049">
        <ele>469.3</ele>
        <time>2013-12-07T13:09:56Z</time>
      </trkpt>
      <trkpt lat="38.195244" lon="-1.489788">
        <ele>468.8</ele>
        <time>2013-12-07T13:10:11Z</time>
      </trkpt>
      <trkpt lat="38.195451" lon="-1.489545">
        <ele>467.3</ele>
        <time>2013-12-07T13:10:31Z</time>
      </trkpt>
      <trkpt lat="38.195643" lon="-1.489332">
        <ele>466.9</ele>
        <time>2013-12-07T13:10:48Z</time>
      </trkpt>
      <trkpt lat="38.195893" lon="-1.489100">
        <ele>465.9</ele>
        <time>2013-12-07T13:11:09Z</time>
      </trkpt>
      <trkpt lat="38.196014" lon="-1.488849">
        <ele>465.4</ele>
        <time>2013-12-07T13:11:25Z</time>
      </trkpt>
      <trkpt lat="38.196046" lon="-1.488752">
        <ele>464.5</ele>
        <time>2013-12-07T13:11:36Z</time>
      </trkpt>
      <trkpt lat="38.196203" lon="-1.488463">
        <ele>463.0</ele>
        <time>2013-12-07T13:11:55Z</time>
      </trkpt>
      <trkpt lat="38.196304" lon="-1.488336">
        <ele>462.5</ele>
        <time>2013-12-07T13:12:06Z</time>
      </trkpt>
      <trkpt lat="38.196401" lon="-1.488269">
        <ele>461.6</ele>
        <time>2013-12-07T13:12:14Z</time>
      </trkpt>
      <trkpt lat="38.196474" lon="-1.488231">
        <ele>461.1</ele>
        <time>2013-12-07T13:12:19Z</time>
      </trkpt>
      <trkpt lat="38.196707" lon="-1.488204">
        <ele>459.6</ele>
        <time>2013-12-07T13:12:36Z</time>
      </trkpt>
      <trkpt lat="38.196827" lon="-1.488418">
        <ele>458.7</ele>
        <time>2013-12-07T13:12:51Z</time>
      </trkpt>
      <trkpt lat="38.196914" lon="-1.488681">
        <ele>458.2</ele>
        <time>2013-12-07T13:13:07Z</time>
      </trkpt>
      <trkpt lat="38.197002" lon="-1.488945">
        <ele>457.7</ele>
        <time>2013-12-07T13:13:22Z</time>
      </trkpt>
      <trkpt lat="38.197139" lon="-1.489240">
        <ele>457.7</ele>
        <time>2013-12-07T13:13:39Z</time>
      </trkpt>
      <trkpt lat="38.197291" lon="-1.489312">
        <ele>456.8</ele>
        <time>2013-12-07T13:14:03Z</time>
      </trkpt>
      <trkpt lat="38.197455" lon="-1.489393">
        <ele>456.8</ele>
        <time>2013-12-07T13:14:17Z</time>
      </trkpt>
      <trkpt lat="38.197586" lon="-1.489383">
        <ele>456.3</ele>
        <time>2013-12-07T13:14:30Z</time>
      </trkpt>
      <trkpt lat="38.197672" lon="-1.489355">
        <ele>456.3</ele>
        <time>2013-12-07T13:14:45Z</time>
      </trkpt>
      <trkpt lat="38.197692" lon="-1.489341">
        <ele>456.8</ele>
        <time>2013-12-07T13:15:26Z</time>
      </trkpt>
      <trkpt lat="38.197747" lon="-1.489348">
        <ele>456.8</ele>
        <time>2013-12-07T13:15:36Z</time>
      </trkpt>
      <trkpt lat="38.197760" lon="-1.489284">
        <ele>454.8</ele>
        <time>2013-12-29T07:44:12Z</time>
      </trkpt>
      <trkpt lat="38.197759" lon="-1.489274">
        <ele>461.1</ele>
        <time>2013-12-29T07:45:11Z</time>
      </trkpt>
      <trkpt lat="38.197758" lon="-1.489243">
        <ele>460.1</ele>
        <time>2013-12-29T07:45:35Z</time>
      </trkpt>
      <trkpt lat="38.197735" lon="-1.489144">
        <ele>461.6</ele>
        <time>2013-12-29T07:45:46Z</time>
      </trkpt>
      <trkpt lat="38.197714" lon="-1.489121">
        <ele>461.1</ele>
        <time>2013-12-29T07:45:58Z</time>
      </trkpt>
      <trkpt lat="38.197721" lon="-1.489081">
        <ele>461.6</ele>
        <time>2013-12-29T07:46:04Z</time>
      </trkpt>
      <trkpt lat="38.197747" lon="-1.489005">
        <ele>462.0</ele>
        <time>2013-12-29T07:46:09Z</time>
      </trkpt>
      <trkpt lat="38.197785" lon="-1.488904">
        <ele>463.0</ele>
        <time>2013-12-29T07:46:25Z</time>
      </trkpt>
      <trkpt lat="38.197905" lon="-1.488906">
        <ele>463.5</ele>
        <time>2013-12-29T07:46:36Z</time>
      </trkpt>
      <trkpt lat="38.198065" lon="-1.489029">
        <ele>464.9</ele>
        <time>2013-12-29T07:46:51Z</time>
      </trkpt>
      <trkpt lat="38.198246" lon="-1.489099">
        <ele>466.9</ele>
        <time>2013-12-29T07:47:06Z</time>
      </trkpt>
      <trkpt lat="38.198514" lon="-1.489047">
        <ele>468.3</ele>
        <time>2013-12-29T07:47:26Z</time>
      </trkpt>
      <trkpt lat="38.198674" lon="-1.488862">
        <ele>468.8</ele>
        <time>2013-12-29T07:47:42Z</time>
      </trkpt>
      <trkpt lat="38.198725" lon="-1.488617">
        <ele>469.7</ele>
        <time>2013-12-29T07:47:57Z</time>
      </trkpt>
      <trkpt lat="38.198724" lon="-1.488605">
        <ele>469.7</ele>
        <time>2013-12-29T07:47:58Z</time>
      </trkpt>
      <trkpt lat="38.198711" lon="-1.488528">
        <ele>469.7</ele>
        <time>2013-12-29T07:48:03Z</time>
      </trkpt>
      <trkpt lat="38.198604" lon="-1.488265">
        <ele>470.7</ele>
        <time>2013-12-29T07:48:21Z</time>
      </trkpt>
      <trkpt lat="38.198629" lon="-1.488074">
        <ele>471.7</ele>
        <time>2013-12-29T07:48:34Z</time>
      </trkpt>
      <trkpt lat="38.198807" lon="-1.488034">
        <ele>472.6</ele>
        <time>2013-12-29T07:48:50Z</time>
      </trkpt>
      <trkpt lat="38.198998" lon="-1.487975">
        <ele>474.1</ele>
        <time>2013-12-29T07:49:06Z</time>
      </trkpt>
      <trkpt lat="38.199036" lon="-1.487774">
        <ele>474.5</ele>
        <time>2013-12-29T07:49:20Z</time>
      </trkpt>
      <trkpt lat="38.198934" lon="-1.487510">
        <ele>475.0</ele>
        <time>2013-12-29T07:49:38Z</time>
      </trkpt>
      <trkpt lat="38.198951" lon="-1.487267">
        <ele>476.5</ele>
        <time>2013-12-29T07:49:54Z</time>
      </trkpt>
      <trkpt lat="38.199017" lon="-1.487034">
        <ele>478.4</ele>
        <time>2013-12-29T07:50:09Z</time>
      </trkpt>
      <trkpt lat="38.198938" lon="-1.486809">
        <ele>479.4</ele>
        <time>2013-12-29T07:50:25Z</time>
      </trkpt>
      <trkpt lat="38.198929" lon="-1.486799">
        <ele>479.4</ele>
        <time>2013-12-29T07:50:26Z</time>
      </trkpt>
      <trkpt lat="38.198793" lon="-1.486551">
        <ele>480.3</ele>
        <time>2013-12-29T07:50:45Z</time>
      </trkpt>
      <trkpt lat="38.198733" lon="-1.486256">
        <ele>480.8</ele>
        <time>2013-12-29T07:51:03Z</time>
      </trkpt>
      <trkpt lat="38.198746" lon="-1.486048">
        <ele>480.8</ele>
        <time>2013-12-29T07:51:15Z</time>
      </trkpt>
      <trkpt lat="38.198801" lon="-1.486012">
        <ele>480.8</ele>
        <time>2013-12-29T07:51:20Z</time>
      </trkpt>
      <trkpt lat="38.198947" lon="-1.486120">
        <ele>481.8</ele>
        <time>2013-12-29T07:51:34Z</time>
      </trkpt>
      <trkpt lat="38.199132" lon="-1.486034">
        <ele>483.2</ele>
        <time>2013-12-29T07:51:50Z</time>
      </trkpt>
      <trkpt lat="38.199221" lon="-1.485961">
        <ele>483.7</ele>
        <time>2013-12-29T07:51:59Z</time>
      </trkpt>
      <trkpt lat="38.199419" lon="-1.485822">
        <ele>484.2</ele>
        <time>2013-12-29T07:52:16Z</time>
      </trkpt>
      <trkpt lat="38.199583" lon="-1.485664">
        <ele>485.6</ele>
        <time>2013-12-29T07:52:33Z</time>
      </trkpt>
      <trkpt lat="38.199651" lon="-1.485410">
        <ele>487.0</ele>
        <time>2013-12-29T07:52:50Z</time>
      </trkpt>
      <trkpt lat="38.199664" lon="-1.485204">
        <ele>488.0</ele>
        <time>2013-12-29T07:53:03Z</time>
      </trkpt>
      <trkpt lat="38.199682" lon="-1.484972">
        <ele>489.5</ele>
        <time>2013-12-29T07:53:17Z</time>
      </trkpt>
      <trkpt lat="38.199702" lon="-1.484731">
        <ele>491.4</ele>
        <time>2013-12-29T07:53:32Z</time>
      </trkpt>
      <trkpt lat="38.199719" lon="-1.484659">
        <ele>491.4</ele>
        <time>2013-12-29T07:53:37Z</time>
      </trkpt>
      <trkpt lat="38.199766" lon="-1.484533">
        <ele>491.4</ele>
        <time>2013-12-29T07:53:45Z</time>
      </trkpt>
      <trkpt lat="38.199823" lon="-1.484420">
        <ele>492.3</ele>
        <time>2013-12-29T07:53:53Z</time>
      </trkpt>
      <trkpt lat="38.199954" lon="-1.484228">
        <ele>493.3</ele>
        <time>2013-12-29T07:54:09Z</time>
      </trkpt>
      <trkpt lat="38.200088" lon="-1.484037">
        <ele>495.7</ele>
        <time>2013-12-29T07:54:26Z</time>
      </trkpt>
      <trkpt lat="38.200111" lon="-1.483993">
        <ele>496.2</ele>
        <time>2013-12-29T07:54:29Z</time>
      </trkpt>
      <trkpt lat="38.200120" lon="-1.483745">
        <ele>497.1</ele>
        <time>2013-12-29T07:54:46Z</time>
      </trkpt>
      <trkpt lat="38.200073" lon="-1.483679">
        <ele>497.1</ele>
        <time>2013-12-29T07:54:51Z</time>
      </trkpt>
      <trkpt lat="38.199899" lon="-1.483514">
        <ele>498.1</ele>
        <time>2013-12-29T07:55:08Z</time>
      </trkpt>
      <trkpt lat="38.200052" lon="-1.483385">
        <ele>498.6</ele>
        <time>2013-12-29T07:55:23Z</time>
      </trkpt>
      <trkpt lat="38.200134" lon="-1.483202">
        <ele>499.5</ele>
        <time>2013-12-29T07:55:37Z</time>
      </trkpt>
      <trkpt lat="38.200032" lon="-1.482971">
        <ele>501.0</ele>
        <time>2013-12-29T07:55:53Z</time>
      </trkpt>
      <trkpt lat="38.199842" lon="-1.482754">
        <ele>500.5</ele>
        <time>2013-12-29T07:56:12Z</time>
      </trkpt>
      <trkpt lat="38.199724" lon="-1.482627">
        <ele>501.5</ele>
        <time>2013-12-29T07:56:23Z</time>
      </trkpt>
      <trkpt lat="38.199581" lon="-1.482449">
        <ele>501.5</ele>
        <time>2013-12-29T07:56:40Z</time>
      </trkpt>
      <trkpt lat="38.199525" lon="-1.482203">
        <ele>501.0</ele>
        <time>2013-12-29T07:56:56Z</time>
      </trkpt>
      <trkpt lat="38.199532" lon="-1.481989">
        <ele>500.5</ele>
        <time>2013-12-29T07:57:10Z</time>
      </trkpt>
      <trkpt lat="38.199595" lon="-1.481933">
        <ele>501.0</ele>
        <time>2013-12-29T07:57:16Z</time>
      </trkpt>
      <trkpt lat="38.199773" lon="-1.482034">
        <ele>502.0</ele>
        <time>2013-12-29T07:57:34Z</time>
      </trkpt>
      <trkpt lat="38.199966" lon="-1.482044">
        <ele>503.4</ele>
        <time>2013-12-29T07:57:49Z</time>
      </trkpt>
      <trkpt lat="38.199994" lon="-1.482044">
        <ele>503.4</ele>
        <time>2013-12-29T07:57:51Z</time>
      </trkpt>
      <trkpt lat="38.200075" lon="-1.482000">
        <ele>503.4</ele>
        <time>2013-12-29T07:57:57Z</time>
      </trkpt>
      <trkpt lat="38.200218" lon="-1.481863">
        <ele>503.9</ele>
        <time>2013-12-29T07:58:08Z</time>
      </trkpt>
      <trkpt lat="38.200382" lon="-1.481594">
        <ele>503.9</ele>
        <time>2013-12-29T07:58:27Z</time>
      </trkpt>
      <trkpt lat="38.200583" lon="-1.481542">
        <ele>504.8</ele>
        <time>2013-12-29T07:58:44Z</time>
      </trkpt>
      <trkpt lat="38.200788" lon="-1.481483">
        <ele>504.8</ele>
        <time>2013-12-29T07:59:22Z</time>
      </trkpt>
      <trkpt lat="38.200787" lon="-1.481481">
        <ele>504.8</ele>
        <time>2013-12-29T07:59:44Z</time>
      </trkpt>
      <trkpt lat="38.200956" lon="-1.481341">
        <ele>505.3</ele>
        <time>2013-12-29T08:00:00Z</time>
      </trkpt>
      <trkpt lat="38.200959" lon="-1.481317">
        <ele>505.8</ele>
        <time>2013-12-29T08:00:29Z</time>
      </trkpt>
      <trkpt lat="38.201020" lon="-1.481199">
        <ele>505.8</ele>
        <time>2013-12-29T08:00:36Z</time>
      </trkpt>
      <trkpt lat="38.201066" lon="-1.480835">
        <ele>506.8</ele>
        <time>2013-12-29T08:00:56Z</time>
      </trkpt>
      <trkpt lat="38.200992" lon="-1.480580">
        <ele>506.8</ele>
        <time>2013-12-29T08:01:12Z</time>
      </trkpt>
      <trkpt lat="38.200919" lon="-1.480376">
        <ele>506.8</ele>
        <time>2013-12-29T08:01:23Z</time>
      </trkpt>
      <trkpt lat="38.200983" lon="-1.480195">
        <ele>506.8</ele>
        <time>2013-12-29T08:01:34Z</time>
      </trkpt>
      <trkpt lat="38.201034" lon="-1.480199">
        <ele>507.2</ele>
        <time>2013-12-29T08:01:38Z</time>
      </trkpt>
      <trkpt lat="38.201221" lon="-1.480377">
        <ele>507.2</ele>
        <time>2013-12-29T08:01:56Z</time>
      </trkpt>
      <trkpt lat="38.201433" lon="-1.480458">
        <ele>507.2</ele>
        <time>2013-12-29T08:02:14Z</time>
      </trkpt>
      <trkpt lat="38.201472" lon="-1.480480">
        <ele>507.2</ele>
        <time>2013-12-29T08:02:32Z</time>
      </trkpt>
      <trkpt lat="38.201589" lon="-1.480455">
        <ele>507.7</ele>
        <time>2013-12-29T08:02:48Z</time>
      </trkpt>
      <trkpt lat="38.201746" lon="-1.480370">
        <ele>507.7</ele>
        <time>2013-12-29T08:03:02Z</time>
      </trkpt>
      <trkpt lat="38.201971" lon="-1.480202">
        <ele>507.2</ele>
        <time>2013-12-29T08:03:20Z</time>
      </trkpt>
      <trkpt lat="38.202165" lon="-1.479974">
        <ele>508.2</ele>
        <time>2013-12-29T08:03:38Z</time>
      </trkpt>
      <trkpt lat="38.202294" lon="-1.479687">
        <ele>508.2</ele>
        <time>2013-12-29T08:03:57Z</time>
      </trkpt>
      <trkpt lat="38.202232" lon="-1.479427">
        <ele>508.7</ele>
        <time>2013-12-29T08:04:12Z</time>
      </trkpt>
      <trkpt lat="38.202272" lon="-1.479206">
        <ele>509.2</ele>
        <time>2013-12-29T08:04:25Z</time>
      </trkpt>
      <trkpt lat="38.202468" lon="-1.479017">
        <ele>510.1</ele>
        <time>2013-12-29T08:04:42Z</time>
      </trkpt>
      <trkpt lat="38.202626" lon="-1.478841">
        <ele>510.6</ele>
        <time>2013-12-29T08:04:57Z</time>
      </trkpt>
      <trkpt lat="38.202729" lon="-1.478592">
        <ele>511.6</ele>
        <time>2013-12-29T08:05:14Z</time>
      </trkpt>
      <trkpt lat="38.202756" lon="-1.478316">
        <ele>512.0</ele>
        <time>2013-12-29T08:05:30Z</time>
      </trkpt>
      <trkpt lat="38.202847" lon="-1.477985">
        <ele>512.5</ele>
        <time>2013-12-29T08:05:50Z</time>
      </trkpt>
      <trkpt lat="38.202893" lon="-1.477703">
        <ele>513.0</ele>
        <time>2013-12-29T08:06:06Z</time>
      </trkpt>
      <trkpt lat="38.202840" lon="-1.477456">
        <ele>512.0</ele>
        <time>2013-12-29T08:06:20Z</time>
      </trkpt>
      <trkpt lat="38.202781" lon="-1.477250">
        <ele>514.0</ele>
        <time>2013-12-29T08:06:32Z</time>
      </trkpt>
      <trkpt lat="38.202683" lon="-1.477060">
        <ele>514.4</ele>
        <time>2013-12-29T08:06:45Z</time>
      </trkpt>
      <trkpt lat="38.202575" lon="-1.476840">
        <ele>515.4</ele>
        <time>2013-12-29T08:07:01Z</time>
      </trkpt>
      <trkpt lat="38.202572" lon="-1.476825">
        <ele>514.9</ele>
        <time>2013-12-29T08:07:02Z</time>
      </trkpt>
      <trkpt lat="38.202590" lon="-1.476740">
        <ele>515.4</ele>
        <time>2013-12-29T08:07:07Z</time>
      </trkpt>
      <trkpt lat="38.202747" lon="-1.476519">
        <ele>515.9</ele>
        <time>2013-12-29T08:07:25Z</time>
      </trkpt>
      <trkpt lat="38.202859" lon="-1.476322">
        <ele>515.4</ele>
        <time>2013-12-29T08:08:45Z</time>
      </trkpt>
      <trkpt lat="38.203094" lon="-1.476073">
        <ele>515.9</ele>
        <time>2013-12-29T08:09:05Z</time>
      </trkpt>
      <trkpt lat="38.203122" lon="-1.475725">
        <ele>515.9</ele>
        <time>2013-12-29T08:09:24Z</time>
      </trkpt>
      <trkpt lat="38.203012" lon="-1.475448">
        <ele>515.4</ele>
        <time>2013-12-29T08:09:39Z</time>
      </trkpt>
      <trkpt lat="38.202854" lon="-1.475235">
        <ele>515.4</ele>
        <time>2013-12-29T08:09:55Z</time>
      </trkpt>
      <trkpt lat="38.202857" lon="-1.474979">
        <ele>515.9</ele>
        <time>2013-12-29T08:10:09Z</time>
      </trkpt>
      <trkpt lat="38.203034" lon="-1.474930">
        <ele>516.4</ele>
        <time>2013-12-29T08:10:23Z</time>
      </trkpt>
      <trkpt lat="38.203298" lon="-1.475065">
        <ele>515.4</ele>
        <time>2013-12-29T08:10:43Z</time>
      </trkpt>
      <trkpt lat="38.203577" lon="-1.475104">
        <ele>513.5</ele>
        <time>2013-12-29T08:11:02Z</time>
      </trkpt>
      <trkpt lat="38.203856" lon="-1.475156">
        <ele>513.0</ele>
        <time>2013-12-29T08:11:20Z</time>
      </trkpt>
      <trkpt lat="38.203903" lon="-1.475184">
        <ele>512.0</ele>
        <time>2013-12-29T08:11:36Z</time>
      </trkpt>
      <trkpt lat="38.204090" lon="-1.475132">
        <ele>512.5</ele>
        <time>2013-12-29T08:11:50Z</time>
      </trkpt>
      <trkpt lat="38.204387" lon="-1.475011">
        <ele>511.1</ele>
        <time>2013-12-29T08:12:09Z</time>
      </trkpt>
      <trkpt lat="38.204623" lon="-1.475030">
        <ele>510.6</ele>
        <time>2013-12-29T08:12:25Z</time>
      </trkpt>
      <trkpt lat="38.204899" lon="-1.474930">
        <ele>508.7</ele>
        <time>2013-12-29T08:12:44Z</time>
      </trkpt>
      <trkpt lat="38.205106" lon="-1.474742">
        <ele>507.7</ele>
        <time>2013-12-29T08:13:00Z</time>
      </trkpt>
      <trkpt lat="38.205243" lon="-1.474504">
        <ele>506.8</ele>
        <time>2013-12-29T08:13:16Z</time>
      </trkpt>
      <trkpt lat="38.205320" lon="-1.474233">
        <ele>506.3</ele>
        <time>2013-12-29T08:13:32Z</time>
      </trkpt>
      <trkpt lat="38.205371" lon="-1.474119">
        <ele>505.8</ele>
        <time>2013-12-29T08:13:39Z</time>
      </trkpt>
      <trkpt lat="38.205400" lon="-1.474028">
        <ele>505.8</ele>
        <time>2013-12-29T08:13:44Z</time>
      </trkpt>
      <trkpt lat="38.205501" lon="-1.473733">
        <ele>504.8</ele>
        <time>2013-12-29T08:14:01Z</time>
      </trkpt>
      <trkpt lat="38.205567" lon="-1.473424">
        <ele>503.9</ele>
        <time>2013-12-29T08:14:17Z</time>
      </trkpt>
      <trkpt lat="38.205616" lon="-1.473177">
        <ele>502.4</ele>
        <time>2013-12-29T08:14:30Z</time>
      </trkpt>
      <trkpt lat="38.205601" lon="-1.472795">
        <ele>501.0</ele>
        <time>2013-12-29T08:14:50Z</time>
      </trkpt>
      <trkpt lat="38.205410" lon="-1.472494">
        <ele>500.0</ele>
        <time>2013-12-29T08:15:08Z</time>
      </trkpt>
      <trkpt lat="38.205248" lon="-1.472306">
        <ele>499.5</ele>
        <time>2013-12-29T08:15:22Z</time>
      </trkpt>
      <trkpt lat="38.205373" lon="-1.472101">
        <ele>499.5</ele>
        <time>2013-12-29T08:15:36Z</time>
      </trkpt>
      <trkpt lat="38.205545" lon="-1.471925">
        <ele>499.5</ele>
        <time>2013-12-29T08:15:51Z</time>
      </trkpt>
      <trkpt lat="38.205581" lon="-1.471874">
        <ele>499.1</ele>
        <time>2013-12-29T08:15:56Z</time>
      </trkpt>
      <trkpt lat="38.205733" lon="-1.471710">
        <ele>498.1</ele>
        <time>2013-12-29T08:16:09Z</time>
      </trkpt>
      <trkpt lat="38.205912" lon="-1.471739">
        <ele>498.1</ele>
        <time>2013-12-29T08:16:25Z</time>
      </trkpt>
      <trkpt lat="38.206160" lon="-1.471607">
        <ele>497.6</ele>
        <time>2013-12-29T08:16:42Z</time>
      </trkpt>
      <trkpt lat="38.206334" lon="-1.471389">
        <ele>497.6</ele>
        <time>2013-12-29T08:16:59Z</time>
      </trkpt>
      <trkpt lat="38.206347" lon="-1.471292">
        <ele>497.1</ele>
        <time>2013-12-29T08:17:17Z</time>
      </trkpt>
      <trkpt lat="38.206461" lon="-1.470910">
        <ele>496.7</ele>
        <time>2013-12-29T08:17:38Z</time>
      </trkpt>
      <trkpt lat="38.206484" lon="-1.470773">
        <ele>496.2</ele>
        <time>2013-12-29T08:17:52Z</time>
      </trkpt>
      <trkpt lat="38.206482" lon="-1.470774">
        <ele>496.2</ele>
        <time>2013-12-29T08:17:54Z</time>
      </trkpt>
      <trkpt lat="38.206510" lon="-1.470710">
        <ele>495.7</ele>
        <time>2013-12-29T08:17:58Z</time>
      </trkpt>
      <trkpt lat="38.206590" lon="-1.470333">
        <ele>495.2</ele>
        <time>2013-12-29T08:18:17Z</time>
      </trkpt>
      <trkpt lat="38.206760" lon="-1.470215">
        <ele>493.8</ele>
        <time>2013-12-29T08:18:33Z</time>
      </trkpt>
      <trkpt lat="38.207011" lon="-1.470192">
        <ele>492.3</ele>
        <time>2013-12-29T08:18:52Z</time>
      </trkpt>
      <trkpt lat="38.207069" lon="-1.470183">
        <ele>492.8</ele>
        <time>2013-12-29T08:19:04Z</time>
      </trkpt>
      <trkpt lat="38.207342" lon="-1.470031">
        <ele>491.4</ele>
        <time>2013-12-29T08:19:22Z</time>
      </trkpt>
      <trkpt lat="38.207554" lon="-1.469879">
        <ele>491.4</ele>
        <time>2013-12-29T08:19:39Z</time>
      </trkpt>
      <trkpt lat="38.207576" lon="-1.469854">
        <ele>491.4</ele>
        <time>2013-12-29T08:19:49Z</time>
      </trkpt>
      <trkpt lat="38.207646" lon="-1.469788">
        <ele>491.4</ele>
        <time>2013-12-29T08:19:55Z</time>
      </trkpt>
      <trkpt lat="38.207739" lon="-1.469608">
        <ele>490.4</ele>
        <time>2013-12-29T08:20:07Z</time>
      </trkpt>
      <trkpt lat="38.207740" lon="-1.469575">
        <ele>490.4</ele>
        <time>2013-12-29T08:20:09Z</time>
      </trkpt>
      <trkpt lat="38.207780" lon="-1.469434">
        <ele>489.9</ele>
        <time>2013-12-29T08:20:17Z</time>
      </trkpt>
      <trkpt lat="38.207817" lon="-1.469248">
        <ele>490.4</ele>
        <time>2013-12-29T08:20:29Z</time>
      </trkpt>
      <trkpt lat="38.207809" lon="-1.468781">
        <ele>489.9</ele>
        <time>2013-12-29T08:21:11Z</time>
      </trkpt>
      <trkpt lat="38.207805" lon="-1.468776">
        <ele>489.5</ele>
        <time>2013-12-29T08:21:15Z</time>
      </trkpt>
      <trkpt lat="38.207781" lon="-1.468671">
        <ele>489.5</ele>
        <time>2013-12-29T08:21:26Z</time>
      </trkpt>
      <trkpt lat="38.207726" lon="-1.468616">
        <ele>489.9</ele>
        <time>2013-12-29T08:21:34Z</time>
      </trkpt>
      <trkpt lat="38.207507" lon="-1.468488">
        <ele>489.5</ele>
        <time>2013-12-29T08:21:52Z</time>
      </trkpt>
      <trkpt lat="38.207464" lon="-1.468479">
        <ele>489.0</ele>
        <time>2013-12-29T08:22:10Z</time>
      </trkpt>
      <trkpt lat="38.207450" lon="-1.468494">
        <ele>489.0</ele>
        <time>2013-12-29T08:22:20Z</time>
      </trkpt>
      <trkpt lat="38.207468" lon="-1.468486">
        <ele>489.0</ele>
        <time>2013-12-29T08:22:29Z</time>
      </trkpt>
      <trkpt lat="38.207406" lon="-1.468454">
        <ele>489.5</ele>
        <time>2013-12-29T08:22:33Z</time>
      </trkpt>
      <trkpt lat="38.207325" lon="-1.468184">
        <ele>488.0</ele>
        <time>2013-12-29T08:22:48Z</time>
      </trkpt>
      <trkpt lat="38.207299" lon="-1.467890">
        <ele>486.6</ele>
        <time>2013-12-29T08:23:04Z</time>
      </trkpt>
      <trkpt lat="38.207234" lon="-1.467638">
        <ele>486.1</ele>
        <time>2013-12-29T08:23:19Z</time>
      </trkpt>
      <trkpt lat="38.207458" lon="-1.467426">
        <ele>484.2</ele>
        <time>2013-12-29T08:23:38Z</time>
      </trkpt>
      <trkpt lat="38.207692" lon="-1.467281">
        <ele>482.7</ele>
        <time>2013-12-29T08:23:55Z</time>
      </trkpt>
      <trkpt lat="38.207831" lon="-1.466972">
        <ele>481.8</ele>
        <time>2013-12-29T08:24:14Z</time>
      </trkpt>
      <trkpt lat="38.207822" lon="-1.466592">
        <ele>480.8</ele>
        <time>2013-12-29T08:24:33Z</time>
      </trkpt>
      <trkpt lat="38.207656" lon="-1.466261">
        <ele>480.3</ele>
        <time>2013-12-29T08:24:53Z</time>
      </trkpt>
      <trkpt lat="38.207470" lon="-1.466025">
        <ele>480.8</ele>
        <time>2013-12-29T08:25:11Z</time>
      </trkpt>
      <trkpt lat="38.207530" lon="-1.465824">
        <ele>478.9</ele>
        <time>2013-12-29T08:25:25Z</time>
      </trkpt>
      <trkpt lat="38.207721" lon="-1.465525">
        <ele>478.9</ele>
        <time>2013-12-29T08:25:45Z</time>
      </trkpt>
      <trkpt lat="38.207706" lon="-1.465150">
        <ele>478.9</ele>
        <time>2013-12-29T08:26:05Z</time>
      </trkpt>
      <trkpt lat="38.207564" lon="-1.464884">
        <ele>479.8</ele>
        <time>2013-12-29T08:26:22Z</time>
      </trkpt>
      <trkpt lat="38.207304" lon="-1.464768">
        <ele>480.3</ele>
        <time>2013-12-29T08:26:39Z</time>
      </trkpt>
      <trkpt lat="38.207104" lon="-1.464685">
        <ele>480.3</ele>
        <time>2013-12-29T08:26:52Z</time>
      </trkpt>
      <trkpt lat="38.206830" lon="-1.464540">
        <ele>479.4</ele>
        <time>2013-12-29T08:27:09Z</time>
      </trkpt>
      <trkpt lat="38.206583" lon="-1.464435">
        <ele>479.4</ele>
        <time>2013-12-29T08:27:25Z</time>
      </trkpt>
      <trkpt lat="38.206405" lon="-1.464281">
        <ele>478.4</ele>
        <time>2013-12-29T08:27:39Z</time>
      </trkpt>
      <trkpt lat="38.206320" lon="-1.464102">
        <ele>477.0</ele>
        <time>2013-12-29T08:27:49Z</time>
      </trkpt>
      <trkpt lat="38.206458" lon="-1.464006">
        <ele>477.4</ele>
        <time>2013-12-29T08:27:59Z</time>
      </trkpt>
      <trkpt lat="38.206634" lon="-1.463769">
        <ele>478.4</ele>
        <time>2013-12-29T08:28:16Z</time>
      </trkpt>
      <trkpt lat="38.206840" lon="-1.463549">
        <ele>477.0</ele>
        <time>2013-12-29T08:28:33Z</time>
      </trkpt>
      <trkpt lat="38.207017" lon="-1.463501">
        <ele>476.5</ele>
        <time>2013-12-29T08:28:45Z</time>
      </trkpt>
      <trkpt lat="38.207241" lon="-1.463400">
        <ele>475.0</ele>
        <time>2013-12-29T08:29:02Z</time>
      </trkpt>
      <trkpt lat="38.207371" lon="-1.463237">
        <ele>474.1</ele>
        <time>2013-12-29T08:29:15Z</time>
      </trkpt>
      <trkpt lat="38.207474" lon="-1.463000">
        <ele>474.1</ele>
        <time>2013-12-29T08:29:32Z</time>
      </trkpt>
      <trkpt lat="38.207639" lon="-1.462769">
        <ele>473.6</ele>
        <time>2013-12-29T08:29:49Z</time>
      </trkpt>
      <trkpt lat="38.207811" lon="-1.462590">
        <ele>473.6</ele>
        <time>2013-12-29T08:30:05Z</time>
      </trkpt>
      <trkpt lat="38.207883" lon="-1.462285">
        <ele>473.6</ele>
        <time>2013-12-29T08:30:22Z</time>
      </trkpt>
      <trkpt lat="38.208045" lon="-1.462054">
        <ele>473.1</ele>
        <time>2013-12-29T08:30:40Z</time>
      </trkpt>
      <trkpt lat="38.208331" lon="-1.461967">
        <ele>472.6</ele>
        <time>2013-12-29T08:31:01Z</time>
      </trkpt>
      <trkpt lat="38.208557" lon="-1.461858">
        <ele>472.1</ele>
        <time>2013-12-29T08:31:17Z</time>
      </trkpt>
      <trkpt lat="38.208740" lon="-1.461630">
        <ele>473.1</ele>
        <time>2013-12-29T08:31:33Z</time>
      </trkpt>
      <trkpt lat="38.208899" lon="-1.461435">
        <ele>472.6</ele>
        <time>2013-12-29T08:31:48Z</time>
      </trkpt>
      <trkpt lat="38.208992" lon="-1.461199">
        <ele>472.1</ele>
        <time>2013-12-29T08:32:02Z</time>
      </trkpt>
      <trkpt lat="38.209092" lon="-1.460888">
        <ele>471.2</ele>
        <time>2013-12-29T08:32:20Z</time>
      </trkpt>
      <trkpt lat="38.209305" lon="-1.460736">
        <ele>472.1</ele>
        <time>2013-12-29T08:32:36Z</time>
      </trkpt>
      <trkpt lat="38.209490" lon="-1.460526">
        <ele>471.2</ele>
        <time>2013-12-29T08:32:53Z</time>
      </trkpt>
      <trkpt lat="38.209624" lon="-1.460299">
        <ele>470.7</ele>
        <time>2013-12-29T08:33:08Z</time>
      </trkpt>
      <trkpt lat="38.209679" lon="-1.459926">
        <ele>469.7</ele>
        <time>2013-12-29T08:33:28Z</time>
      </trkpt>
      <trkpt lat="38.209657" lon="-1.459554">
        <ele>469.7</ele>
        <time>2013-12-29T08:33:48Z</time>
      </trkpt>
      <trkpt lat="38.209639" lon="-1.459236">
        <ele>469.3</ele>
        <time>2013-12-29T08:34:05Z</time>
      </trkpt>
      <trkpt lat="38.209719" lon="-1.458892">
        <ele>468.8</ele>
        <time>2013-12-29T08:34:24Z</time>
      </trkpt>
      <trkpt lat="38.209668" lon="-1.458551">
        <ele>467.8</ele>
        <time>2013-12-29T08:34:43Z</time>
      </trkpt>
      <trkpt lat="38.209635" lon="-1.458229">
        <ele>468.8</ele>
        <time>2013-12-29T08:35:01Z</time>
      </trkpt>
      <trkpt lat="38.209518" lon="-1.457954">
        <ele>468.3</ele>
        <time>2013-12-29T08:35:17Z</time>
      </trkpt>
      <trkpt lat="38.209336" lon="-1.457677">
        <ele>467.3</ele>
        <time>2013-12-29T08:35:36Z</time>
      </trkpt>
      <trkpt lat="38.209191" lon="-1.457464">
        <ele>467.3</ele>
        <time>2013-12-29T08:35:52Z</time>
      </trkpt>
      <trkpt lat="38.209149" lon="-1.457163">
        <ele>465.4</ele>
        <time>2013-12-29T08:36:09Z</time>
      </trkpt>
      <trkpt lat="38.209175" lon="-1.456821">
        <ele>464.9</ele>
        <time>2013-12-29T08:36:28Z</time>
      </trkpt>
      <trkpt lat="38.209168" lon="-1.456428">
        <ele>465.4</ele>
        <time>2013-12-29T08:36:48Z</time>
      </trkpt>
      <trkpt lat="38.209117" lon="-1.456214">
        <ele>464.9</ele>
        <time>2013-12-29T08:37:05Z</time>
      </trkpt>
      <trkpt lat="38.209123" lon="-1.456209">
        <ele>464.9</ele>
        <time>2013-12-29T08:37:09Z</time>
      </trkpt>
      <trkpt lat="38.209126" lon="-1.455981">
        <ele>464.5</ele>
        <time>2013-12-29T08:37:24Z</time>
      </trkpt>
      <trkpt lat="38.209164" lon="-1.455752">
        <ele>464.0</ele>
        <time>2013-12-29T08:37:39Z</time>
      </trkpt>
      <trkpt lat="38.209172" lon="-1.455730">
        <ele>464.9</ele>
        <time>2013-12-29T08:37:51Z</time>
      </trkpt>
      <trkpt lat="38.209170" lon="-1.455684">
        <ele>464.9</ele>
        <time>2013-12-29T08:38:05Z</time>
      </trkpt>
      <trkpt lat="38.209156" lon="-1.455660">
        <ele>464.9</ele>
        <time>2013-12-29T08:38:27Z</time>
      </trkpt>
      <trkpt lat="38.209158" lon="-1.455629">
        <ele>464.9</ele>
        <time>2013-12-29T08:38:42Z</time>
      </trkpt>
      <trkpt lat="38.209210" lon="-1.455395">
        <ele>464.5</ele>
        <time>2013-12-29T08:38:58Z</time>
      </trkpt>
      <trkpt lat="38.209272" lon="-1.455099">
        <ele>464.9</ele>
        <time>2013-12-29T08:39:17Z</time>
      </trkpt>
      <trkpt lat="38.209246" lon="-1.455009">
        <ele>464.9</ele>
        <time>2013-12-29T08:39:23Z</time>
      </trkpt>
      <trkpt lat="38.209089" lon="-1.454800">
        <ele>464.9</ele>
        <time>2013-12-29T08:39:41Z</time>
      </trkpt>
      <trkpt lat="38.208990" lon="-1.454590">
        <ele>465.4</ele>
        <time>2013-12-29T08:39:58Z</time>
      </trkpt>
      <trkpt lat="38.208887" lon="-1.454294">
        <ele>465.9</ele>
        <time>2013-12-29T08:40:17Z</time>
      </trkpt>
      <trkpt lat="38.208826" lon="-1.454134">
        <ele>465.4</ele>
        <time>2013-12-29T08:40:29Z</time>
      </trkpt>
      <trkpt lat="38.208647" lon="-1.453976">
        <ele>465.4</ele>
        <time>2013-12-29T08:40:45Z</time>
      </trkpt>
      <trkpt lat="38.208446" lon="-1.453868">
        <ele>465.4</ele>
        <time>2013-12-29T08:41:01Z</time>
      </trkpt>
      <trkpt lat="38.208225" lon="-1.453765">
        <ele>464.5</ele>
        <time>2013-12-29T08:41:18Z</time>
      </trkpt>
      <trkpt lat="38.208008" lon="-1.453655">
        <ele>465.4</ele>
        <time>2013-12-29T08:41:34Z</time>
      </trkpt>
      <trkpt lat="38.207901" lon="-1.453497">
        <ele>464.0</ele>
        <time>2013-12-29T08:41:48Z</time>
      </trkpt>
      <trkpt lat="38.207908" lon="-1.453464">
        <ele>464.0</ele>
        <time>2013-12-29T08:41:51Z</time>
      </trkpt>
      <trkpt lat="38.207948" lon="-1.453391">
        <ele>464.9</ele>
        <time>2013-12-29T08:41:56Z</time>
      </trkpt>
      <trkpt lat="38.208020" lon="-1.453165">
        <ele>463.0</ele>
        <time>2013-12-29T08:42:12Z</time>
      </trkpt>
      <trkpt lat="38.208065" lon="-1.453161">
        <ele>463.0</ele>
        <time>2013-12-29T08:42:16Z</time>
      </trkpt>
      <trkpt lat="38.208129" lon="-1.453131">
        <ele>464.5</ele>
        <time>2013-12-29T08:42:35Z</time>
      </trkpt>
      <trkpt lat="38.208194" lon="-1.453129">
        <ele>464.9</ele>
        <time>2013-12-29T08:46:50Z</time>
      </trkpt>
      <trkpt lat="38.208347" lon="-1.453000">
        <ele>465.4</ele>
        <time>2013-12-29T08:47:04Z</time>
      </trkpt>
      <trkpt lat="38.208484" lon="-1.452780">
        <ele>463.5</ele>
        <time>2013-12-29T08:47:19Z</time>
      </trkpt>
      <trkpt lat="38.208623" lon="-1.452552">
        <ele>463.5</ele>
        <time>2013-12-29T08:47:34Z</time>
      </trkpt>
      <trkpt lat="38.208824" lon="-1.452343">
        <ele>461.6</ele>
        <time>2013-12-29T08:47:51Z</time>
      </trkpt>
      <trkpt lat="38.209061" lon="-1.452192">
        <ele>461.1</ele>
        <time>2013-12-29T08:48:08Z</time>
      </trkpt>
      <trkpt lat="38.209314" lon="-1.452102">
        <ele>459.2</ele>
        <time>2013-12-29T08:48:26Z</time>
      </trkpt>
      <trkpt lat="38.209555" lon="-1.451993">
        <ele>459.2</ele>
        <time>2013-12-29T08:48:42Z</time>
      </trkpt>
      <trkpt lat="38.209795" lon="-1.451898">
        <ele>458.2</ele>
        <time>2013-12-29T08:48:59Z</time>
      </trkpt>
      <trkpt lat="38.209979" lon="-1.451729">
        <ele>459.6</ele>
        <time>2013-12-29T08:49:14Z</time>
      </trkpt>
      <trkpt lat="38.210000" lon="-1.451669">
        <ele>458.7</ele>
        <time>2013-12-29T08:49:17Z</time>
      </trkpt>
      <trkpt lat="38.210024" lon="-1.451546">
        <ele>457.7</ele>
        <time>2013-12-29T08:49:23Z</time>
      </trkpt>
      <trkpt lat="38.210134" lon="-1.451283">
        <ele>454.8</ele>
        <time>2013-12-29T08:49:38Z</time>
      </trkpt>
      <trkpt lat="38.210275" lon="-1.451100">
        <ele>451.5</ele>
        <time>2013-12-29T08:49:52Z</time>
      </trkpt>
      <trkpt lat="38.210489" lon="-1.451069">
        <ele>449.5</ele>
        <time>2013-12-29T08:50:08Z</time>
      </trkpt>
      <trkpt lat="38.210756" lon="-1.450914">
        <ele>449.1</ele>
        <time>2013-12-29T08:50:26Z</time>
      </trkpt>
      <trkpt lat="38.210840" lon="-1.450597">
        <ele>447.6</ele>
        <time>2013-12-29T08:50:42Z</time>
      </trkpt>
      <trkpt lat="38.210768" lon="-1.450220">
        <ele>447.6</ele>
        <time>2013-12-29T08:51:02Z</time>
      </trkpt>
      <trkpt lat="38.210660" lon="-1.449881">
        <ele>445.7</ele>
        <time>2013-12-29T08:51:21Z</time>
      </trkpt>
      <trkpt lat="38.210605" lon="-1.449559">
        <ele>444.3</ele>
        <time>2013-12-29T08:51:39Z</time>
      </trkpt>
      <trkpt lat="38.210633" lon="-1.449262">
        <ele>442.8</ele>
        <time>2013-12-29T08:51:55Z</time>
      </trkpt>
      <trkpt lat="38.210609" lon="-1.448954">
        <ele>440.9</ele>
        <time>2013-12-29T08:52:12Z</time>
      </trkpt>
      <trkpt lat="38.210604" lon="-1.448937">
        <ele>439.9</ele>
        <time>2013-12-29T08:52:13Z</time>
      </trkpt>
      <trkpt lat="38.210528" lon="-1.448622">
        <ele>437.1</ele>
        <time>2013-12-29T08:52:31Z</time>
      </trkpt>
      <trkpt lat="38.210440" lon="-1.448310">
        <ele>435.6</ele>
        <time>2013-12-29T08:52:49Z</time>
      </trkpt>
      <trkpt lat="38.210288" lon="-1.448108">
        <ele>434.2</ele>
        <time>2013-12-29T08:53:04Z</time>
      </trkpt>
      <trkpt lat="38.210100" lon="-1.447965">
        <ele>432.7</ele>
        <time>2013-12-29T08:53:18Z</time>
      </trkpt>
      <trkpt lat="38.209930" lon="-1.447747">
        <ele>432.7</ele>
        <time>2013-12-29T08:53:35Z</time>
      </trkpt>
      <trkpt lat="38.209831" lon="-1.447644">
        <ele>432.2</ele>
        <time>2013-12-29T08:53:43Z</time>
      </trkpt>
      <trkpt lat="38.209638" lon="-1.447540">
        <ele>432.2</ele>
        <time>2013-12-29T08:53:57Z</time>
      </trkpt>
      <trkpt lat="38.209559" lon="-1.447296">
        <ele>431.8</ele>
        <time>2013-12-29T08:54:12Z</time>
      </trkpt>
      <trkpt lat="38.209576" lon="-1.447072">
        <ele>431.3</ele>
        <time>2013-12-29T08:54:26Z</time>
      </trkpt>
      <trkpt lat="38.209730" lon="-1.446917">
        <ele>430.3</ele>
        <time>2013-12-29T08:54:40Z</time>
      </trkpt>
      <trkpt lat="38.209929" lon="-1.446872">
        <ele>428.4</ele>
        <time>2013-12-29T08:54:54Z</time>
      </trkpt>
      <trkpt lat="38.210184" lon="-1.446715">
        <ele>427.4</ele>
        <time>2013-12-29T08:55:13Z</time>
      </trkpt>
      <trkpt lat="38.210231" lon="-1.446399">
        <ele>427.0</ele>
        <time>2013-12-29T08:55:30Z</time>
      </trkpt>
      <trkpt lat="38.210083" lon="-1.446156">
        <ele>425.5</ele>
        <time>2013-12-29T08:55:45Z</time>
      </trkpt>
      <trkpt lat="38.210049" lon="-1.445936">
        <ele>424.6</ele>
        <time>2013-12-29T08:55:58Z</time>
      </trkpt>
      <trkpt lat="38.210125" lon="-1.445604">
        <ele>424.1</ele>
        <time>2013-12-29T08:56:17Z</time>
      </trkpt>
      <trkpt lat="38.210255" lon="-1.445341">
        <ele>422.2</ele>
        <time>2013-12-29T08:56:34Z</time>
      </trkpt>
      <trkpt lat="38.210439" lon="-1.445178">
        <ele>421.7</ele>
        <time>2013-12-29T08:56:50Z</time>
      </trkpt>
      <trkpt lat="38.210505" lon="-1.444828">
        <ele>420.7</ele>
        <time>2013-12-29T08:57:09Z</time>
      </trkpt>
      <trkpt lat="38.210378" lon="-1.444540">
        <ele>418.3</ele>
        <time>2013-12-29T08:57:26Z</time>
      </trkpt>
      <trkpt lat="38.210280" lon="-1.444248">
        <ele>417.8</ele>
        <time>2013-12-29T08:57:43Z</time>
      </trkpt>
      <trkpt lat="38.210102" lon="-1.444027">
        <ele>416.4</ele>
        <time>2013-12-29T08:58:00Z</time>
      </trkpt>
      <trkpt lat="38.210093" lon="-1.444017">
        <ele>416.9</ele>
        <time>2013-12-29T08:58:01Z</time>
      </trkpt>
      <trkpt lat="38.210046" lon="-1.443997">
        <ele>415.9</ele>
        <time>2013-12-29T08:58:05Z</time>
      </trkpt>
      <trkpt lat="38.209829" lon="-1.443831">
        <ele>415.9</ele>
        <time>2013-12-29T08:58:23Z</time>
      </trkpt>
      <trkpt lat="38.209627" lon="-1.443695">
        <ele>415.4</ele>
        <time>2013-12-29T08:58:39Z</time>
      </trkpt>
      <trkpt lat="38.209407" lon="-1.443540">
        <ele>415.0</ele>
        <time>2013-12-29T08:58:56Z</time>
      </trkpt>
      <trkpt lat="38.209245" lon="-1.443429">
        <ele>414.0</ele>
        <time>2013-12-29T08:59:09Z</time>
      </trkpt>
      <trkpt lat="38.209204" lon="-1.443381">
        <ele>413.5</ele>
        <time>2013-12-29T08:59:14Z</time>
      </trkpt>
      <trkpt lat="38.209101" lon="-1.443151">
        <ele>413.0</ele>
        <time>2013-12-29T08:59:31Z</time>
      </trkpt>
      <trkpt lat="38.209142" lon="-1.442902">
        <ele>411.1</ele>
        <time>2013-12-29T08:59:46Z</time>
      </trkpt>
      <trkpt lat="38.209167" lon="-1.442683">
        <ele>409.7</ele>
        <time>2013-12-29T09:00:02Z</time>
      </trkpt>
      <trkpt lat="38.209165" lon="-1.442608">
        <ele>409.2</ele>
        <time>2013-12-29T09:00:52Z</time>
      </trkpt>
      <trkpt lat="38.209166" lon="-1.442579">
        <ele>408.2</ele>
        <time>2013-12-29T09:02:24Z</time>
      </trkpt>
      <trkpt lat="38.209156" lon="-1.442534">
        <ele>409.7</ele>
        <time>2013-12-29T09:35:18Z</time>
      </trkpt>
      <trkpt lat="38.209157" lon="-1.442472">
        <ele>409.2</ele>
        <time>2013-12-29T09:35:27Z</time>
      </trkpt>
      <trkpt lat="38.209189" lon="-1.442434">
        <ele>408.2</ele>
        <time>2013-12-29T09:35:31Z</time>
      </trkpt>
      <trkpt lat="38.209261" lon="-1.442440">
        <ele>407.3</ele>
        <time>2013-12-29T09:35:38Z</time>
      </trkpt>
      <trkpt lat="38.209472" lon="-1.442425">
        <ele>405.3</ele>
        <time>2013-12-29T09:35:56Z</time>
      </trkpt>
      <trkpt lat="38.209636" lon="-1.442448">
        <ele>403.4</ele>
        <time>2013-12-29T09:36:10Z</time>
      </trkpt>
      <trkpt lat="38.209852" lon="-1.442432">
        <ele>401.0</ele>
        <time>2013-12-29T09:36:27Z</time>
      </trkpt>
      <trkpt lat="38.210038" lon="-1.442543">
        <ele>398.6</ele>
        <time>2013-12-29T09:36:44Z</time>
      </trkpt>
      <trkpt lat="38.210153" lon="-1.442790">
        <ele>397.2</ele>
        <time>2013-12-29T09:37:01Z</time>
      </trkpt>
      <trkpt lat="38.210345" lon="-1.442834">
        <ele>395.2</ele>
        <time>2013-12-29T09:37:15Z</time>
      </trkpt>
      <trkpt lat="38.210533" lon="-1.442760">
        <ele>391.9</ele>
        <time>2013-12-29T09:37:30Z</time>
      </trkpt>
      <trkpt lat="38.210709" lon="-1.442711">
        <ele>391.4</ele>
        <time>2013-12-29T09:37:45Z</time>
      </trkpt>
      <trkpt lat="38.210920" lon="-1.442625">
        <ele>389.5</ele>
        <time>2013-12-29T09:38:01Z</time>
      </trkpt>
      <trkpt lat="38.211088" lon="-1.442445">
        <ele>388.0</ele>
        <time>2013-12-29T09:38:17Z</time>
      </trkpt>
      <trkpt lat="38.211166" lon="-1.442321">
        <ele>387.1</ele>
        <time>2013-12-29T09:38:33Z</time>
      </trkpt>
      <trkpt lat="38.211285" lon="-1.442143">
        <ele>385.6</ele>
        <time>2013-12-29T09:39:10Z</time>
      </trkpt>
      <trkpt lat="38.211399" lon="-1.441803">
        <ele>384.2</ele>
        <time>2013-12-29T09:39:30Z</time>
      </trkpt>
      <trkpt lat="38.211447" lon="-1.441467">
        <ele>381.3</ele>
        <time>2013-12-29T09:39:48Z</time>
      </trkpt>
      <trkpt lat="38.211452" lon="-1.441430">
        <ele>380.8</ele>
        <time>2013-12-29T09:39:50Z</time>
      </trkpt>
      <trkpt lat="38.211634" lon="-1.441352">
        <ele>379.9</ele>
        <time>2013-12-29T09:40:07Z</time>
      </trkpt>
      <trkpt lat="38.211932" lon="-1.441522">
        <ele>380.3</ele>
        <time>2013-12-29T09:40:29Z</time>
      </trkpt>
      <trkpt lat="38.212200" lon="-1.441489">
        <ele>380.3</ele>
        <time>2013-12-29T09:40:47Z</time>
      </trkpt>
      <trkpt lat="38.212345" lon="-1.441199">
        <ele>378.9</ele>
        <time>2013-12-29T09:41:05Z</time>
      </trkpt>
      <trkpt lat="38.212320" lon="-1.440829">
        <ele>377.0</ele>
        <time>2013-12-29T09:41:25Z</time>
      </trkpt>
      <trkpt lat="38.212351" lon="-1.440494">
        <ele>376.0</ele>
        <time>2013-12-29T09:41:44Z</time>
      </trkpt>
      <trkpt lat="38.212519" lon="-1.440280">
        <ele>375.0</ele>
        <time>2013-12-29T09:42:00Z</time>
      </trkpt>
      <trkpt lat="38.212717" lon="-1.440319">
        <ele>375.5</ele>
        <time>2013-12-29T09:42:16Z</time>
      </trkpt>
      <trkpt lat="38.212919" lon="-1.440562">
        <ele>375.5</ele>
        <time>2013-12-29T09:42:36Z</time>
      </trkpt>
      <trkpt lat="38.213075" lon="-1.440822">
        <ele>376.0</ele>
        <time>2013-12-29T09:42:53Z</time>
      </trkpt>
      <trkpt lat="38.213246" lon="-1.441096">
        <ele>375.5</ele>
        <time>2013-12-29T09:43:12Z</time>
      </trkpt>
      <trkpt lat="38.213429" lon="-1.441364">
        <ele>375.0</ele>
        <time>2013-12-29T09:43:30Z</time>
      </trkpt>
      <trkpt lat="38.213569" lon="-1.441605">
        <ele>376.5</ele>
        <time>2013-12-29T09:43:46Z</time>
      </trkpt>
      <trkpt lat="38.213763" lon="-1.441911">
        <ele>377.5</ele>
        <time>2013-12-29T09:44:06Z</time>
      </trkpt>
      <trkpt lat="38.213935" lon="-1.442181">
        <ele>376.5</ele>
        <time>2013-12-29T09:44:25Z</time>
      </trkpt>
      <trkpt lat="38.213990" lon="-1.442249">
        <ele>376.5</ele>
        <time>2013-12-29T09:44:39Z</time>
      </trkpt>
      <trkpt lat="38.214008" lon="-1.442281">
        <ele>377.0</ele>
        <time>2013-12-29T09:44:59Z</time>
      </trkpt>
      <trkpt lat="38.214049" lon="-1.442187">
        <ele>377.5</ele>
        <time>2013-12-29T09:45:10Z</time>
      </trkpt>
      <trkpt lat="38.214040" lon="-1.442086">
        <ele>378.4</ele>
        <time>2013-12-29T09:45:17Z</time>
      </trkpt>
      <trkpt lat="38.214035" lon="-1.442051">
        <ele>378.9</ele>
        <time>2013-12-29T09:45:20Z</time>
      </trkpt>
      <trkpt lat="38.214034" lon="-1.442024">
        <ele>379.4</ele>
        <time>2013-12-29T09:45:22Z</time>
      </trkpt>
      <trkpt lat="38.214031" lon="-1.441981">
        <ele>379.9</ele>
        <time>2013-12-29T09:45:26Z</time>
      </trkpt>
      <trkpt lat="38.214030" lon="-1.441925">
        <ele>380.3</ele>
        <time>2013-12-29T09:45:30Z</time>
      </trkpt>
      <trkpt lat="38.214022" lon="-1.441894">
        <ele>380.8</ele>
        <time>2013-12-29T09:45:32Z</time>
      </trkpt>
      <trkpt lat="38.214023" lon="-1.441864">
        <ele>381.3</ele>
        <time>2013-12-29T09:45:34Z</time>
      </trkpt>
      <trkpt lat="38.214023" lon="-1.441785">
        <ele>382.3</ele>
        <time>2013-12-29T09:45:40Z</time>
      </trkpt>
      <trkpt lat="38.214024" lon="-1.441754">
        <ele>382.3</ele>
        <time>2013-12-29T09:45:42Z</time>
      </trkpt>
      <trkpt lat="38.214018" lon="-1.441727">
        <ele>382.3</ele>
        <time>2013-12-29T09:45:44Z</time>
      </trkpt>
      <trkpt lat="38.214021" lon="-1.441700">
        <ele>382.3</ele>
        <time>2013-12-29T09:45:46Z</time>
      </trkpt>
      <trkpt lat="38.214024" lon="-1.441674">
        <ele>383.2</ele>
        <time>2013-12-29T09:45:48Z</time>
      </trkpt>
      <trkpt lat="38.214030" lon="-1.441641">
        <ele>383.2</ele>
        <time>2013-12-29T09:45:51Z</time>
      </trkpt>
      <trkpt lat="38.214026" lon="-1.441613">
        <ele>383.7</ele>
        <time>2013-12-29T09:45:53Z</time>
      </trkpt>
      <trkpt lat="38.214033" lon="-1.441537">
        <ele>384.2</ele>
        <time>2013-12-29T09:45:58Z</time>
      </trkpt>
      <trkpt lat="38.214053" lon="-1.441362">
        <ele>384.7</ele>
        <time>2013-12-29T09:46:09Z</time>
      </trkpt>
      <trkpt lat="38.214033" lon="-1.441240">
        <ele>385.1</ele>
        <time>2013-12-29T09:46:17Z</time>
      </trkpt>
      <trkpt lat="38.214006" lon="-1.440994">
        <ele>387.1</ele>
        <time>2013-12-29T09:46:32Z</time>
      </trkpt>
      <trkpt lat="38.214010" lon="-1.440697">
        <ele>388.5</ele>
        <time>2013-12-29T09:46:50Z</time>
      </trkpt>
      <trkpt lat="38.214015" lon="-1.440519">
        <ele>391.9</ele>
        <time>2013-12-29T09:47:02Z</time>
      </trkpt>
      <trkpt lat="38.214023" lon="-1.440494">
        <ele>391.4</ele>
        <time>2013-12-29T09:47:04Z</time>
      </trkpt>
      <trkpt lat="38.214039" lon="-1.440429">
        <ele>391.9</ele>
        <time>2013-12-29T09:47:08Z</time>
      </trkpt>
      <trkpt lat="38.214158" lon="-1.440210">
        <ele>393.3</ele>
        <time>2013-12-29T09:47:25Z</time>
      </trkpt>
      <trkpt lat="38.214305" lon="-1.439978">
        <ele>394.3</ele>
        <time>2013-12-29T09:47:42Z</time>
      </trkpt>
      <trkpt lat="38.214378" lon="-1.439808">
        <ele>395.2</ele>
        <time>2013-12-29T09:47:56Z</time>
      </trkpt>
      <trkpt lat="38.214401" lon="-1.439766">
        <ele>396.2</ele>
        <time>2013-12-29T09:48:00Z</time>
      </trkpt>
      <trkpt lat="38.214518" lon="-1.439638">
        <ele>398.1</ele>
        <time>2013-12-29T09:48:14Z</time>
      </trkpt>
      <trkpt lat="38.214639" lon="-1.439537">
        <ele>400.0</ele>
        <time>2013-12-29T09:48:28Z</time>
      </trkpt>
      <trkpt lat="38.214665" lon="-1.439496">
        <ele>400.5</ele>
        <time>2013-12-29T09:48:32Z</time>
      </trkpt>
      <trkpt lat="38.214707" lon="-1.439395">
        <ele>401.0</ele>
        <time>2013-12-29T09:48:39Z</time>
      </trkpt>
      <trkpt lat="38.214701" lon="-1.439192">
        <ele>402.5</ele>
        <time>2013-12-29T09:48:53Z</time>
      </trkpt>
      <trkpt lat="38.214730" lon="-1.439066">
        <ele>403.4</ele>
        <time>2013-12-29T09:49:06Z</time>
      </trkpt>
      <trkpt lat="38.214773" lon="-1.439034">
        <ele>404.4</ele>
        <time>2013-12-29T09:49:35Z</time>
      </trkpt>
      <trkpt lat="38.214874" lon="-1.439018">
        <ele>403.9</ele>
        <time>2013-12-29T09:49:48Z</time>
      </trkpt>
      <trkpt lat="38.214870" lon="-1.439031">
        <ele>404.4</ele>
        <time>2013-12-29T09:50:02Z</time>
      </trkpt>
      <trkpt lat="38.214952" lon="-1.439085">
        <ele>404.4</ele>
        <time>2013-12-29T09:50:09Z</time>
      </trkpt>
      <trkpt lat="38.215143" lon="-1.439204">
        <ele>407.7</ele>
        <time>2013-12-29T09:50:26Z</time>
      </trkpt>
      <trkpt lat="38.215266" lon="-1.439162">
        <ele>408.7</ele>
        <time>2013-12-29T09:50:36Z</time>
      </trkpt>
      <trkpt lat="38.215308" lon="-1.439080">
        <ele>409.2</ele>
        <time>2013-12-29T09:50:42Z</time>
      </trkpt>
      <trkpt lat="38.215424" lon="-1.438867">
        <ele>411.1</ele>
        <time>2013-12-29T09:50:57Z</time>
      </trkpt>
      <trkpt lat="38.215514" lon="-1.438695">
        <ele>412.1</ele>
        <time>2013-12-29T09:51:09Z</time>
      </trkpt>
      <trkpt lat="38.215514" lon="-1.438625">
        <ele>412.5</ele>
        <time>2013-12-29T09:51:13Z</time>
      </trkpt>
      <trkpt lat="38.215501" lon="-1.438531">
        <ele>414.0</ele>
        <time>2013-12-29T09:51:19Z</time>
      </trkpt>
      <trkpt lat="38.215485" lon="-1.438398">
        <ele>415.4</ele>
        <time>2013-12-29T09:51:27Z</time>
      </trkpt>
      <trkpt lat="38.215492" lon="-1.438372">
        <ele>415.4</ele>
        <time>2013-12-29T09:51:29Z</time>
      </trkpt>
      <trkpt lat="38.215483" lon="-1.438333">
        <ele>416.4</ele>
        <time>2013-12-29T09:51:32Z</time>
      </trkpt>
      <trkpt lat="38.215488" lon="-1.438187">
        <ele>416.9</ele>
        <time>2013-12-29T09:51:41Z</time>
      </trkpt>
      <trkpt lat="38.215495" lon="-1.437943">
        <ele>418.8</ele>
        <time>2013-12-29T09:51:57Z</time>
      </trkpt>
      <trkpt lat="38.215510" lon="-1.437738">
        <ele>420.2</ele>
        <time>2013-12-29T09:52:11Z</time>
      </trkpt>
      <trkpt lat="38.215530" lon="-1.437527">
        <ele>422.2</ele>
        <time>2013-12-29T09:52:25Z</time>
      </trkpt>
      <trkpt lat="38.215567" lon="-1.437415">
        <ele>424.1</ele>
        <time>2013-12-29T09:52:34Z</time>
      </trkpt>
      <trkpt lat="38.215574" lon="-1.437393">
        <ele>425.0</ele>
        <time>2013-12-29T09:52:36Z</time>
      </trkpt>
      <trkpt lat="38.215644" lon="-1.437246">
        <ele>426.5</ele>
        <time>2013-12-29T09:52:48Z</time>
      </trkpt>
      <trkpt lat="38.215650" lon="-1.437235">
        <ele>427.0</ele>
        <time>2013-12-29T09:52:49Z</time>
      </trkpt>
      <trkpt lat="38.215705" lon="-1.437151">
        <ele>427.9</ele>
        <time>2013-12-29T09:53:04Z</time>
      </trkpt>
      <trkpt lat="38.215730" lon="-1.437113">
        <ele>427.4</ele>
        <time>2013-12-29T09:56:04Z</time>
      </trkpt>
      <trkpt lat="38.215816" lon="-1.437032">
        <ele>427.9</ele>
        <time>2013-12-29T09:56:17Z</time>
      </trkpt>
      <trkpt lat="38.215922" lon="-1.436998">
        <ele>427.0</ele>
        <time>2013-12-29T09:57:21Z</time>
      </trkpt>
      <trkpt lat="38.215999" lon="-1.436904">
        <ele>425.0</ele>
        <time>2013-12-29T09:58:11Z</time>
      </trkpt>
      <trkpt lat="38.216000" lon="-1.436877">
        <ele>425.5</ele>
        <time>2013-12-29T09:58:13Z</time>
      </trkpt>
      <trkpt lat="38.215988" lon="-1.436803">
        <ele>424.6</ele>
        <time>2013-12-29T09:58:21Z</time>
      </trkpt>
      <trkpt lat="38.215957" lon="-1.436715">
        <ele>423.6</ele>
        <time>2013-12-29T09:58:28Z</time>
      </trkpt>
      <trkpt lat="38.215911" lon="-1.436657">
        <ele>423.6</ele>
        <time>2013-12-29T09:58:33Z</time>
      </trkpt>
      <trkpt lat="38.215859" lon="-1.436555">
        <ele>422.2</ele>
        <time>2013-12-29T09:58:42Z</time>
      </trkpt>
      <trkpt lat="38.215854" lon="-1.436472">
        <ele>420.7</ele>
        <time>2013-12-29T09:58:49Z</time>
      </trkpt>
      <trkpt lat="38.215856" lon="-1.436403">
        <ele>420.2</ele>
        <time>2013-12-29T09:58:54Z</time>
      </trkpt>
      <trkpt lat="38.215914" lon="-1.436201">
        <ele>419.3</ele>
        <time>2013-12-29T09:59:08Z</time>
      </trkpt>
      <trkpt lat="38.216077" lon="-1.436029">
        <ele>418.8</ele>
        <time>2013-12-29T09:59:25Z</time>
      </trkpt>
      <trkpt lat="38.216254" lon="-1.435843">
        <ele>417.4</ele>
        <time>2013-12-29T09:59:43Z</time>
      </trkpt>
      <trkpt lat="38.216324" lon="-1.435733">
        <ele>415.9</ele>
        <time>2013-12-29T09:59:51Z</time>
      </trkpt>
      <trkpt lat="38.216399" lon="-1.435493">
        <ele>413.0</ele>
        <time>2013-12-29T10:00:06Z</time>
      </trkpt>
      <trkpt lat="38.216411" lon="-1.435372">
        <ele>412.5</ele>
        <time>2013-12-29T10:00:13Z</time>
      </trkpt>
      <trkpt lat="38.216517" lon="-1.435103">
        <ele>410.1</ele>
        <time>2013-12-29T10:00:31Z</time>
      </trkpt>
      <trkpt lat="38.216549" lon="-1.434995">
        <ele>409.7</ele>
        <time>2013-12-29T10:00:38Z</time>
      </trkpt>
      <trkpt lat="38.216627" lon="-1.434698">
        <ele>407.3</ele>
        <time>2013-12-29T10:00:56Z</time>
      </trkpt>
      <trkpt lat="38.216662" lon="-1.434411">
        <ele>405.8</ele>
        <time>2013-12-29T10:01:13Z</time>
      </trkpt>
      <trkpt lat="38.216602" lon="-1.434167">
        <ele>404.9</ele>
        <time>2013-12-29T10:01:29Z</time>
      </trkpt>
      <trkpt lat="38.216468" lon="-1.433926">
        <ele>406.3</ele>
        <time>2013-12-29T10:01:47Z</time>
      </trkpt>
      <trkpt lat="38.216279" lon="-1.433938">
        <ele>405.8</ele>
        <time>2013-12-29T10:02:02Z</time>
      </trkpt>
      <trkpt lat="38.216170" lon="-1.433989">
        <ele>406.3</ele>
        <time>2013-12-29T10:02:11Z</time>
      </trkpt>
      <trkpt lat="38.216011" lon="-1.434158">
        <ele>404.4</ele>
        <time>2013-12-29T10:02:29Z</time>
      </trkpt>
      <trkpt lat="38.215831" lon="-1.434114">
        <ele>401.5</ele>
        <time>2013-12-29T10:02:44Z</time>
      </trkpt>
      <trkpt lat="38.215665" lon="-1.433985">
        <ele>399.6</ele>
        <time>2013-12-29T10:02:59Z</time>
      </trkpt>
      <trkpt lat="38.215475" lon="-1.433963">
        <ele>397.6</ele>
        <time>2013-12-29T10:03:13Z</time>
      </trkpt>
      <trkpt lat="38.215288" lon="-1.433903">
        <ele>395.2</ele>
        <time>2013-12-29T10:03:27Z</time>
      </trkpt>
      <trkpt lat="38.215168" lon="-1.433751">
        <ele>393.3</ele>
        <time>2013-12-29T10:03:40Z</time>
      </trkpt>
      <trkpt lat="38.215138" lon="-1.433700">
        <ele>391.9</ele>
        <time>2013-12-29T10:03:45Z</time>
      </trkpt>
      <trkpt lat="38.215159" lon="-1.433595">
        <ele>390.4</ele>
        <time>2013-12-29T10:03:55Z</time>
      </trkpt>
      <trkpt lat="38.215185" lon="-1.433423">
        <ele>390.4</ele>
        <time>2013-12-29T10:04:08Z</time>
      </trkpt>
      <trkpt lat="38.215185" lon="-1.433410">
        <ele>389.5</ele>
        <time>2013-12-29T10:04:09Z</time>
      </trkpt>
      <trkpt lat="38.215208" lon="-1.433294">
        <ele>389.0</ele>
        <time>2013-12-29T10:04:16Z</time>
      </trkpt>
      <trkpt lat="38.215195" lon="-1.433233">
        <ele>389.0</ele>
        <time>2013-12-29T10:04:20Z</time>
      </trkpt>
      <trkpt lat="38.215190" lon="-1.433037">
        <ele>389.0</ele>
        <time>2013-12-29T10:04:35Z</time>
      </trkpt>
      <trkpt lat="38.215205" lon="-1.432968">
        <ele>388.5</ele>
        <time>2013-12-29T10:04:43Z</time>
      </trkpt>
      <trkpt lat="38.215215" lon="-1.432632">
        <ele>390.9</ele>
        <time>2013-12-29T10:05:56Z</time>
      </trkpt>
      <trkpt lat="38.215189" lon="-1.432579">
        <ele>390.9</ele>
        <time>2013-12-29T10:06:09Z</time>
      </trkpt>
      <trkpt lat="38.215193" lon="-1.432579">
        <ele>391.4</ele>
        <time>2013-12-29T10:06:19Z</time>
      </trkpt>
      <trkpt lat="38.215178" lon="-1.432522">
        <ele>390.9</ele>
        <time>2013-12-29T10:06:25Z</time>
      </trkpt>
      <trkpt lat="38.215087" lon="-1.432394">
        <ele>389.5</ele>
        <time>2013-12-29T10:06:37Z</time>
      </trkpt>
      <trkpt lat="38.214907" lon="-1.432245">
        <ele>388.0</ele>
        <time>2013-12-29T10:06:54Z</time>
      </trkpt>
      <trkpt lat="38.214883" lon="-1.432193">
        <ele>388.5</ele>
        <time>2013-12-29T10:06:58Z</time>
      </trkpt>
      <trkpt lat="38.214827" lon="-1.431983">
        <ele>386.6</ele>
        <time>2013-12-29T10:07:14Z</time>
      </trkpt>
      <trkpt lat="38.214821" lon="-1.431717">
        <ele>385.6</ele>
        <time>2013-12-29T10:07:30Z</time>
      </trkpt>
      <trkpt lat="38.214833" lon="-1.431459">
        <ele>384.7</ele>
        <time>2013-12-29T10:07:47Z</time>
      </trkpt>
      <trkpt lat="38.214871" lon="-1.431233">
        <ele>384.7</ele>
        <time>2013-12-29T10:08:02Z</time>
      </trkpt>
      <trkpt lat="38.214813" lon="-1.431091">
        <ele>385.6</ele>
        <time>2013-12-29T10:08:12Z</time>
      </trkpt>
      <trkpt lat="38.214683" lon="-1.431039">
        <ele>386.1</ele>
        <time>2013-12-29T10:08:22Z</time>
      </trkpt>
      <trkpt lat="38.214613" lon="-1.430994">
        <ele>386.6</ele>
        <time>2013-12-29T10:08:28Z</time>
      </trkpt>
      <trkpt lat="38.214566" lon="-1.430938">
        <ele>386.6</ele>
        <time>2013-12-29T10:08:33Z</time>
      </trkpt>
      <trkpt lat="38.214484" lon="-1.430824">
        <ele>387.1</ele>
        <time>2013-12-29T10:08:43Z</time>
      </trkpt>
      <trkpt lat="38.214294" lon="-1.430623">
        <ele>387.1</ele>
        <time>2013-12-29T10:09:01Z</time>
      </trkpt>
      <trkpt lat="38.214286" lon="-1.430581">
        <ele>386.6</ele>
        <time>2013-12-29T10:09:04Z</time>
      </trkpt>
      <trkpt lat="38.214172" lon="-1.430390">
        <ele>387.1</ele>
        <time>2013-12-29T10:09:19Z</time>
      </trkpt>
      <trkpt lat="38.214165" lon="-1.430369">
        <ele>387.5</ele>
        <time>2013-12-29T10:09:21Z</time>
      </trkpt>
      <trkpt lat="38.214170" lon="-1.430304">
        <ele>387.5</ele>
        <time>2013-12-29T10:09:26Z</time>
      </trkpt>
      <trkpt lat="38.214215" lon="-1.430210">
        <ele>389.5</ele>
        <time>2013-12-29T10:09:34Z</time>
      </trkpt>
      <trkpt lat="38.214257" lon="-1.430047">
        <ele>390.4</ele>
        <time>2013-12-29T10:09:47Z</time>
      </trkpt>
      <trkpt lat="38.214253" lon="-1.429912">
        <ele>391.9</ele>
        <time>2013-12-29T10:09:56Z</time>
      </trkpt>
      <trkpt lat="38.214171" lon="-1.429827">
        <ele>393.3</ele>
        <time>2013-12-29T10:10:04Z</time>
      </trkpt>
      <trkpt lat="38.213968" lon="-1.429914">
        <ele>392.8</ele>
        <time>2013-12-29T10:10:22Z</time>
      </trkpt>
      <trkpt lat="38.213950" lon="-1.429906">
        <ele>392.4</ele>
        <time>2013-12-29T10:10:24Z</time>
      </trkpt>
      <trkpt lat="38.213887" lon="-1.429845">
        <ele>392.8</ele>
        <time>2013-12-29T10:10:31Z</time>
      </trkpt>
      <trkpt lat="38.213859" lon="-1.429777">
        <ele>391.9</ele>
        <time>2013-12-29T10:10:38Z</time>
      </trkpt>
      <trkpt lat="38.213838" lon="-1.429530">
        <ele>390.9</ele>
        <time>2013-12-29T10:10:58Z</time>
      </trkpt>
      <trkpt lat="38.213875" lon="-1.429265">
        <ele>389.5</ele>
        <time>2013-12-29T10:11:16Z</time>
      </trkpt>
      <trkpt lat="38.214017" lon="-1.429059">
        <ele>390.0</ele>
        <time>2013-12-29T10:11:33Z</time>
      </trkpt>
      <trkpt lat="38.214048" lon="-1.428949">
        <ele>389.0</ele>
        <time>2013-12-29T10:11:41Z</time>
      </trkpt>
      <trkpt lat="38.214081" lon="-1.428818">
        <ele>387.1</ele>
        <time>2013-12-29T10:11:50Z</time>
      </trkpt>
      <trkpt lat="38.214095" lon="-1.428746">
        <ele>386.6</ele>
        <time>2013-12-29T10:11:55Z</time>
      </trkpt>
      <trkpt lat="38.214123" lon="-1.428695">
        <ele>386.6</ele>
        <time>2013-12-29T10:11:59Z</time>
      </trkpt>
      <trkpt lat="38.214136" lon="-1.428658">
        <ele>385.6</ele>
        <time>2013-12-29T10:12:02Z</time>
      </trkpt>
      <trkpt lat="38.214173" lon="-1.428617">
        <ele>385.6</ele>
        <time>2013-12-29T10:12:06Z</time>
      </trkpt>
      <trkpt lat="38.214286" lon="-1.428389">
        <ele>384.7</ele>
        <time>2013-12-29T10:12:24Z</time>
      </trkpt>
      <trkpt lat="38.214260" lon="-1.428183">
        <ele>383.2</ele>
        <time>2013-12-29T10:12:39Z</time>
      </trkpt>
      <trkpt lat="38.214248" lon="-1.428087">
        <ele>381.3</ele>
        <time>2013-12-29T10:12:47Z</time>
      </trkpt>
      <trkpt lat="38.214245" lon="-1.428035">
        <ele>381.3</ele>
        <time>2013-12-29T10:12:51Z</time>
      </trkpt>
      <trkpt lat="38.214236" lon="-1.428007">
        <ele>381.3</ele>
        <time>2013-12-29T10:12:53Z</time>
      </trkpt>
      <trkpt lat="38.214172" lon="-1.427769">
        <ele>379.9</ele>
        <time>2013-12-29T10:13:11Z</time>
      </trkpt>
      <trkpt lat="38.214046" lon="-1.427615">
        <ele>378.4</ele>
        <time>2013-12-29T10:13:26Z</time>
      </trkpt>
      <trkpt lat="38.213991" lon="-1.427576">
        <ele>377.9</ele>
        <time>2013-12-29T10:13:33Z</time>
      </trkpt>
      <trkpt lat="38.213861" lon="-1.427482">
        <ele>376.5</ele>
        <time>2013-12-29T10:13:47Z</time>
      </trkpt>
      <trkpt lat="38.213705" lon="-1.427365">
        <ele>374.6</ele>
        <time>2013-12-29T10:14:02Z</time>
      </trkpt>
      <trkpt lat="38.213697" lon="-1.427366">
        <ele>375.0</ele>
        <time>2013-12-29T10:14:03Z</time>
      </trkpt>
      <trkpt lat="38.213571" lon="-1.427537">
        <ele>373.1</ele>
        <time>2013-12-29T10:14:19Z</time>
      </trkpt>
      <trkpt lat="38.213556" lon="-1.427557">
        <ele>373.1</ele>
        <time>2013-12-29T10:14:21Z</time>
      </trkpt>
      <trkpt lat="38.213528" lon="-1.427605">
        <ele>372.6</ele>
        <time>2013-12-29T10:14:25Z</time>
      </trkpt>
      <trkpt lat="38.213381" lon="-1.427600">
        <ele>370.7</ele>
        <time>2013-12-29T10:14:39Z</time>
      </trkpt>
      <trkpt lat="38.213323" lon="-1.427464">
        <ele>368.3</ele>
        <time>2013-12-29T10:14:53Z</time>
      </trkpt>
      <trkpt lat="38.213310" lon="-1.427433">
        <ele>367.8</ele>
        <time>2013-12-29T10:14:58Z</time>
      </trkpt>
      <trkpt lat="38.213276" lon="-1.427257">
        <ele>365.9</ele>
        <time>2013-12-29T10:15:11Z</time>
      </trkpt>
      <trkpt lat="38.213240" lon="-1.427058">
        <ele>364.5</ele>
        <time>2013-12-29T10:15:26Z</time>
      </trkpt>
      <trkpt lat="38.213221" lon="-1.427012">
        <ele>364.5</ele>
        <time>2013-12-29T10:15:38Z</time>
      </trkpt>
      <trkpt lat="38.213217" lon="-1.426979">
        <ele>365.0</ele>
        <time>2013-12-29T10:15:41Z</time>
      </trkpt>
      <trkpt lat="38.213218" lon="-1.426958">
        <ele>364.5</ele>
        <time>2013-12-29T10:15:43Z</time>
      </trkpt>
      <trkpt lat="38.213219" lon="-1.426923">
        <ele>364.5</ele>
        <time>2013-12-29T10:15:46Z</time>
      </trkpt>
      <trkpt lat="38.213216" lon="-1.426899">
        <ele>365.4</ele>
        <time>2013-12-29T10:15:48Z</time>
      </trkpt>
      <trkpt lat="38.213221" lon="-1.426870">
        <ele>365.0</ele>
        <time>2013-12-29T10:15:50Z</time>
      </trkpt>
      <trkpt lat="38.213234" lon="-1.426716">
        <ele>367.8</ele>
        <time>2013-12-29T10:16:00Z</time>
      </trkpt>
      <trkpt lat="38.213234" lon="-1.426698">
        <ele>364.0</ele>
        <time>2013-12-29T10:16:01Z</time>
      </trkpt>
      <trkpt lat="38.213193" lon="-1.426494">
        <ele>363.0</ele>
        <time>2013-12-29T10:16:17Z</time>
      </trkpt>
      <trkpt lat="38.213175" lon="-1.426450">
        <ele>362.5</ele>
        <time>2013-12-29T10:16:21Z</time>
      </trkpt>
      <trkpt lat="38.213060" lon="-1.426294">
        <ele>359.7</ele>
        <time>2013-12-29T10:16:37Z</time>
      </trkpt>
      <trkpt lat="38.213007" lon="-1.426116">
        <ele>358.7</ele>
        <time>2013-12-29T10:16:52Z</time>
      </trkpt>
      <trkpt lat="38.212993" lon="-1.426093">
        <ele>356.8</ele>
        <time>2013-12-29T10:16:54Z</time>
      </trkpt>
      <trkpt lat="38.212978" lon="-1.426068">
        <ele>360.6</ele>
        <time>2013-12-29T10:16:56Z</time>
      </trkpt>
      <trkpt lat="38.212972" lon="-1.426055">
        <ele>358.2</ele>
        <time>2013-12-29T10:16:57Z</time>
      </trkpt>
      <trkpt lat="38.212906" lon="-1.425831">
        <ele>356.3</ele>
        <time>2013-12-29T10:17:13Z</time>
      </trkpt>
      <trkpt lat="38.212874" lon="-1.425612">
        <ele>354.4</ele>
        <time>2013-12-29T10:17:30Z</time>
      </trkpt>
      <trkpt lat="38.212870" lon="-1.425600">
        <ele>358.2</ele>
        <time>2013-12-29T10:17:31Z</time>
      </trkpt>
      <trkpt lat="38.212858" lon="-1.425561">
        <ele>355.8</ele>
        <time>2013-12-29T10:17:34Z</time>
      </trkpt>
      <trkpt lat="38.212831" lon="-1.425405">
        <ele>355.3</ele>
        <time>2013-12-29T10:17:45Z</time>
      </trkpt>
      <trkpt lat="38.212816" lon="-1.425227">
        <ele>350.5</ele>
        <time>2013-12-29T10:17:59Z</time>
      </trkpt>
      <trkpt lat="38.212808" lon="-1.425131">
        <ele>351.0</ele>
        <time>2013-12-29T10:18:14Z</time>
      </trkpt>
      <trkpt lat="38.212816" lon="-1.425020">
        <ele>350.5</ele>
        <time>2013-12-29T10:18:26Z</time>
      </trkpt>
      <trkpt lat="38.212809" lon="-1.424960">
        <ele>349.6</ele>
        <time>2013-12-29T10:18:30Z</time>
      </trkpt>
      <trkpt lat="38.212812" lon="-1.424735">
        <ele>348.1</ele>
        <time>2013-12-29T10:18:45Z</time>
      </trkpt>
      <trkpt lat="38.212794" lon="-1.424600">
        <ele>346.7</ele>
        <time>2013-12-29T10:18:55Z</time>
      </trkpt>
      <trkpt lat="38.212787" lon="-1.424580">
        <ele>346.7</ele>
        <time>2013-12-29T10:18:57Z</time>
      </trkpt>
      <trkpt lat="38.212807" lon="-1.424458">
        <ele>345.7</ele>
        <time>2013-12-29T10:19:05Z</time>
      </trkpt>
      <trkpt lat="38.212811" lon="-1.424393">
        <ele>345.2</ele>
        <time>2013-12-29T10:19:09Z</time>
      </trkpt>
      <trkpt lat="38.212794" lon="-1.424306">
        <ele>344.8</ele>
        <time>2013-12-29T10:19:42Z</time>
      </trkpt>
      <trkpt lat="38.212789" lon="-1.424287">
        <ele>343.8</ele>
        <time>2013-12-29T10:19:54Z</time>
      </trkpt>
      <trkpt lat="38.212740" lon="-1.424125">
        <ele>342.9</ele>
        <time>2013-12-29T10:20:05Z</time>
      </trkpt>
      <trkpt lat="38.212725" lon="-1.424039">
        <ele>341.4</ele>
        <time>2013-12-29T10:20:11Z</time>
      </trkpt>
      <trkpt lat="38.212716" lon="-1.423939">
        <ele>339.0</ele>
        <time>2013-12-29T10:20:24Z</time>
      </trkpt>
      <trkpt lat="38.212719" lon="-1.423955">
        <ele>340.4</ele>
        <time>2013-12-29T10:21:00Z</time>
      </trkpt>
      <trkpt lat="38.212728" lon="-1.423949">
        <ele>340.4</ele>
        <time>2013-12-29T10:21:13Z</time>
      </trkpt>
      <trkpt lat="38.212692" lon="-1.423724">
        <ele>339.5</ele>
        <time>2013-12-29T10:21:26Z</time>
      </trkpt>
      <trkpt lat="38.212740" lon="-1.423418">
        <ele>339.0</ele>
        <time>2013-12-29T10:21:42Z</time>
      </trkpt>
      <trkpt lat="38.212706" lon="-1.423110">
        <ele>338.0</ele>
        <time>2013-12-29T10:21:58Z</time>
      </trkpt>
      <trkpt lat="38.212692" lon="-1.423006">
        <ele>337.6</ele>
        <time>2013-12-29T10:22:04Z</time>
      </trkpt>
      <trkpt lat="38.212696" lon="-1.422626">
        <ele>337.1</ele>
        <time>2013-12-29T10:22:24Z</time>
      </trkpt>
      <trkpt lat="38.212744" lon="-1.422274">
        <ele>335.6</ele>
        <time>2013-12-29T10:22:41Z</time>
      </trkpt>
      <trkpt lat="38.212706" lon="-1.421991">
        <ele>333.7</ele>
        <time>2013-12-29T10:22:56Z</time>
      </trkpt>
      <trkpt lat="38.212665" lon="-1.421651">
        <ele>332.3</ele>
        <time>2013-12-29T10:23:14Z</time>
      </trkpt>
      <trkpt lat="38.212668" lon="-1.421326">
        <ele>331.3</ele>
        <time>2013-12-29T10:23:31Z</time>
      </trkpt>
      <trkpt lat="38.212717" lon="-1.421032">
        <ele>330.4</ele>
        <time>2013-12-29T10:23:48Z</time>
      </trkpt>
      <trkpt lat="38.212650" lon="-1.420740">
        <ele>330.4</ele>
        <time>2013-12-29T10:24:04Z</time>
      </trkpt>
      <trkpt lat="38.212671" lon="-1.420444">
        <ele>329.4</ele>
        <time>2013-12-29T10:24:21Z</time>
      </trkpt>
      <trkpt lat="38.212676" lon="-1.420368">
        <ele>327.0</ele>
        <time>2013-12-29T10:24:25Z</time>
      </trkpt>
      <trkpt lat="38.212677" lon="-1.420347">
        <ele>331.3</ele>
        <time>2013-12-29T10:24:26Z</time>
      </trkpt>
      <trkpt lat="38.212677" lon="-1.420327">
        <ele>328.0</ele>
        <time>2013-12-29T10:24:27Z</time>
      </trkpt>
      <trkpt lat="38.212676" lon="-1.420226">
        <ele>328.9</ele>
        <time>2013-12-29T10:24:33Z</time>
      </trkpt>
      <trkpt lat="38.212851" lon="-1.419988">
        <ele>328.4</ele>
        <time>2013-12-29T10:24:50Z</time>
      </trkpt>
      <trkpt lat="38.213053" lon="-1.419845">
        <ele>328.4</ele>
        <time>2013-12-29T10:25:07Z</time>
      </trkpt>
      <trkpt lat="38.213062" lon="-1.419838">
        <ele>328.4</ele>
        <time>2013-12-29T10:25:08Z</time>
      </trkpt>
      <trkpt lat="38.213120" lon="-1.419807">
        <ele>328.4</ele>
        <time>2013-12-29T10:25:20Z</time>
      </trkpt>
      <trkpt lat="38.213121" lon="-1.419748">
        <ele>328.4</ele>
        <time>2014-04-06T09:10:11Z</time>
      </trkpt>
      <trkpt lat="38.213127" lon="-1.419737">
        <ele>327.0</ele>
        <time>2014-04-06T09:16:00Z</time>
      </trkpt>
      <trkpt lat="38.213146" lon="-1.419641">
        <ele>328.4</ele>
        <time>2014-04-06T09:24:06Z</time>
      </trkpt>
      <trkpt lat="38.213165" lon="-1.419500">
        <ele>328.0</ele>
        <time>2014-04-06T09:24:19Z</time>
      </trkpt>
      <trkpt lat="38.213169" lon="-1.419405">
        <ele>329.4</ele>
        <time>2014-04-06T09:24:25Z</time>
      </trkpt>
      <trkpt lat="38.213133" lon="-1.419334">
        <ele>329.4</ele>
        <time>2014-04-06T09:24:38Z</time>
      </trkpt>
      <trkpt lat="38.213130" lon="-1.419327">
        <ele>328.9</ele>
        <time>2014-04-06T09:25:05Z</time>
      </trkpt>
      <trkpt lat="38.213119" lon="-1.419324">
        <ele>329.4</ele>
        <time>2014-04-06T09:27:04Z</time>
      </trkpt>
      <trkpt lat="38.213065" lon="-1.419274">
        <ele>329.4</ele>
        <time>2014-04-06T09:27:17Z</time>
      </trkpt>
      <trkpt lat="38.213062" lon="-1.419252">
        <ele>329.4</ele>
        <time>2014-04-06T09:27:43Z</time>
      </trkpt>
      <trkpt lat="38.213023" lon="-1.419191">
        <ele>328.4</ele>
        <time>2014-04-06T09:27:54Z</time>
      </trkpt>
      <trkpt lat="38.213023" lon="-1.419173">
        <ele>328.4</ele>
        <time>2014-04-06T09:27:59Z</time>
      </trkpt>
      <trkpt lat="38.212983" lon="-1.419091">
        <ele>329.4</ele>
        <time>2014-04-06T09:28:05Z</time>
      </trkpt>
      <trkpt lat="38.212961" lon="-1.418969">
        <ele>330.4</ele>
        <time>2014-04-06T09:28:19Z</time>
      </trkpt>
      <trkpt lat="38.212960" lon="-1.418966">
        <ele>331.3</ele>
        <time>2014-04-06T09:30:38Z</time>
      </trkpt>
      <trkpt lat="38.212957" lon="-1.418956">
        <ele>331.3</ele>
        <time>2014-04-06T09:30:43Z</time>
      </trkpt>
      <trkpt lat="38.212961" lon="-1.418903">
        <ele>331.8</ele>
        <time>2014-04-06T09:30:47Z</time>
      </trkpt>
      <trkpt lat="38.212974" lon="-1.418891">
        <ele>331.3</ele>
        <time>2014-04-06T09:31:29Z</time>
      </trkpt>
      <trkpt lat="38.213007" lon="-1.418869">
        <ele>330.8</ele>
        <time>2014-04-06T09:34:15Z</time>
      </trkpt>
      <trkpt lat="38.213014" lon="-1.418860">
        <ele>330.8</ele>
        <time>2014-04-06T09:34:16Z</time>
      </trkpt>
      <trkpt lat="38.213015" lon="-1.418795">
        <ele>330.4</ele>
        <time>2014-04-06T09:34:27Z</time>
      </trkpt>
      <trkpt lat="38.213012" lon="-1.418791">
        <ele>330.4</ele>
        <time>2014-04-06T09:34:48Z</time>
      </trkpt>
      <trkpt lat="38.212989" lon="-1.418754">
        <ele>330.8</ele>
        <time>2014-04-06T09:35:03Z</time>
      </trkpt>
      <trkpt lat="38.212953" lon="-1.418742">
        <ele>329.9</ele>
        <time>2014-04-06T09:35:14Z</time>
      </trkpt>
      <trkpt lat="38.212930" lon="-1.418702">
        <ele>327.5</ele>
        <time>2014-04-06T09:36:04Z</time>
      </trkpt>
      <trkpt lat="38.212919" lon="-1.418700">
        <ele>327.5</ele>
        <time>2014-04-06T09:37:18Z</time>
      </trkpt>
      <trkpt lat="38.212905" lon="-1.418621">
        <ele>324.6</ele>
        <time>2014-04-06T09:37:34Z</time>
      </trkpt>
      <trkpt lat="38.212854" lon="-1.418576">
        <ele>323.1</ele>
        <time>2014-04-06T09:37:46Z</time>
      </trkpt>
      <trkpt lat="38.212815" lon="-1.418524">
        <ele>321.2</ele>
        <time>2014-04-06T09:37:57Z</time>
      </trkpt>
      <trkpt lat="38.212819" lon="-1.418527">
        <ele>321.7</ele>
        <time>2014-04-06T09:38:10Z</time>
      </trkpt>
      <trkpt lat="38.212819" lon="-1.418453">
        <ele>320.7</ele>
        <time>2014-04-06T09:38:18Z</time>
      </trkpt>
      <trkpt lat="38.212815" lon="-1.418360">
        <ele>320.7</ele>
        <time>2014-04-06T09:38:26Z</time>
      </trkpt>
      <trkpt lat="38.212812" lon="-1.418296">
        <ele>320.3</ele>
        <time>2014-04-06T09:38:31Z</time>
      </trkpt>
      <trkpt lat="38.212803" lon="-1.418182">
        <ele>320.3</ele>
        <time>2014-04-06T09:38:44Z</time>
      </trkpt>
      <trkpt lat="38.212808" lon="-1.418173">
        <ele>320.3</ele>
        <time>2014-04-06T09:38:45Z</time>
      </trkpt>
      <trkpt lat="38.212802" lon="-1.418023">
        <ele>320.3</ele>
        <time>2014-04-06T09:38:59Z</time>
      </trkpt>
      <trkpt lat="38.212783" lon="-1.417907">
        <ele>319.3</ele>
        <time>2014-04-06T09:39:11Z</time>
      </trkpt>
      <trkpt lat="38.212777" lon="-1.417876">
        <ele>319.3</ele>
        <time>2014-04-06T09:39:14Z</time>
      </trkpt>
      <trkpt lat="38.212764" lon="-1.417749">
        <ele>318.8</ele>
        <time>2014-04-06T09:39:26Z</time>
      </trkpt>
      <trkpt lat="38.212740" lon="-1.417639">
        <ele>318.8</ele>
        <time>2014-04-06T09:39:39Z</time>
      </trkpt>
      <trkpt lat="38.212746" lon="-1.417606">
        <ele>318.8</ele>
        <time>2014-04-06T09:39:43Z</time>
      </trkpt>
      <trkpt lat="38.212743" lon="-1.417532">
        <ele>319.3</ele>
        <time>2014-04-06T09:39:52Z</time>
      </trkpt>
      <trkpt lat="38.212740" lon="-1.417501">
        <ele>319.3</ele>
        <time>2014-04-06T09:39:55Z</time>
      </trkpt>
      <trkpt lat="38.212757" lon="-1.417404">
        <ele>319.8</ele>
        <time>2014-04-06T09:40:05Z</time>
      </trkpt>
      <trkpt lat="38.212732" lon="-1.417306">
        <ele>319.8</ele>
        <time>2014-04-06T09:40:17Z</time>
      </trkpt>
      <trkpt lat="38.212753" lon="-1.417210">
        <ele>319.8</ele>
        <time>2014-04-06T09:40:28Z</time>
      </trkpt>
      <trkpt lat="38.212766" lon="-1.417119">
        <ele>319.8</ele>
        <time>2014-04-06T09:40:39Z</time>
      </trkpt>
      <trkpt lat="38.212808" lon="-1.417038">
        <ele>320.3</ele>
        <time>2014-04-06T09:40:51Z</time>
      </trkpt>
      <trkpt lat="38.212827" lon="-1.417006">
        <ele>320.3</ele>
        <time>2014-04-06T09:40:54Z</time>
      </trkpt>
      <trkpt lat="38.212847" lon="-1.416930">
        <ele>320.3</ele>
        <time>2014-04-06T09:41:05Z</time>
      </trkpt>
      <trkpt lat="38.212861" lon="-1.416852">
        <ele>320.3</ele>
        <time>2014-04-06T09:41:12Z</time>
      </trkpt>
      <trkpt lat="38.212884" lon="-1.416714">
        <ele>319.8</ele>
        <time>2014-04-06T09:41:26Z</time>
      </trkpt>
      <trkpt lat="38.212889" lon="-1.416673">
        <ele>319.8</ele>
        <time>2014-04-06T09:41:38Z</time>
      </trkpt>
      <trkpt lat="38.212903" lon="-1.416649">
        <ele>320.3</ele>
        <time>2014-04-06T09:41:41Z</time>
      </trkpt>
      <trkpt lat="38.212916" lon="-1.416607">
        <ele>318.8</ele>
        <time>2014-04-06T09:41:55Z</time>
      </trkpt>
      <trkpt lat="38.212912" lon="-1.416573">
        <ele>319.3</ele>
        <time>2014-04-06T09:42:12Z</time>
      </trkpt>
      <trkpt lat="38.212912" lon="-1.416517">
        <ele>319.8</ele>
        <time>2014-04-06T09:42:18Z</time>
      </trkpt>
      <trkpt lat="38.212940" lon="-1.416359">
        <ele>319.8</ele>
        <time>2014-04-06T09:42:32Z</time>
      </trkpt>
      <trkpt lat="38.212943" lon="-1.416323">
        <ele>319.3</ele>
        <time>2014-04-06T09:42:35Z</time>
      </trkpt>
      <trkpt lat="38.212941" lon="-1.416261">
        <ele>319.3</ele>
        <time>2014-04-06T09:42:49Z</time>
      </trkpt>
      <trkpt lat="38.212938" lon="-1.416150">
        <ele>319.3</ele>
        <time>2014-04-06T09:43:00Z</time>
      </trkpt>
      <trkpt lat="38.212938" lon="-1.416139">
        <ele>319.3</ele>
        <time>2014-04-06T09:43:01Z</time>
      </trkpt>
      <trkpt lat="38.212935" lon="-1.416070">
        <ele>319.8</ele>
        <time>2014-04-06T09:43:12Z</time>
      </trkpt>
      <trkpt lat="38.212936" lon="-1.416006">
        <ele>321.2</ele>
        <time>2014-04-06T09:43:23Z</time>
      </trkpt>
      <trkpt lat="38.212935" lon="-1.415982">
        <ele>320.3</ele>
        <time>2014-04-06T09:47:37Z</time>
      </trkpt>
      <trkpt lat="38.212953" lon="-1.415936">
        <ele>319.3</ele>
        <time>2014-04-06T09:47:46Z</time>
      </trkpt>
      <trkpt lat="38.212958" lon="-1.415930">
        <ele>319.3</ele>
        <time>2014-04-06T09:47:47Z</time>
      </trkpt>
      <trkpt lat="38.212978" lon="-1.415889">
        <ele>318.3</ele>
        <time>2014-04-06T09:47:50Z</time>
      </trkpt>
      <trkpt lat="38.213018" lon="-1.415840">
        <ele>316.9</ele>
        <time>2014-04-06T09:48:55Z</time>
      </trkpt>
      <trkpt lat="38.213016" lon="-1.415839">
        <ele>316.4</ele>
        <time>2014-04-06T09:49:11Z</time>
      </trkpt>
      <trkpt lat="38.213017" lon="-1.415808">
        <ele>315.9</ele>
        <time>2014-04-06T09:49:23Z</time>
      </trkpt>
      <trkpt lat="38.213046" lon="-1.415768">
        <ele>315.0</ele>
        <time>2014-04-06T09:49:32Z</time>
      </trkpt>
      <trkpt lat="38.213074" lon="-1.415720">
        <ele>314.0</ele>
        <time>2014-04-06T09:49:45Z</time>
      </trkpt>
      <trkpt lat="38.213092" lon="-1.415685">
        <ele>313.0</ele>
        <time>2014-04-06T09:49:55Z</time>
      </trkpt>
      <trkpt lat="38.213092" lon="-1.415629">
        <ele>312.1</ele>
        <time>2014-04-06T09:50:05Z</time>
      </trkpt>
      <trkpt lat="38.213107" lon="-1.415622">
        <ele>309.7</ele>
        <time>2014-04-06T09:50:18Z</time>
      </trkpt>
      <trkpt lat="38.213148" lon="-1.415601">
        <ele>308.7</ele>
        <time>2014-04-06T09:50:30Z</time>
      </trkpt>
      <trkpt lat="38.213171" lon="-1.415555">
        <ele>306.8</ele>
        <time>2014-04-06T09:50:41Z</time>
      </trkpt>
      <trkpt lat="38.213177" lon="-1.415551">
        <ele>305.8</ele>
        <time>2014-04-06T09:50:56Z</time>
      </trkpt>
      <trkpt lat="38.213204" lon="-1.415522">
        <ele>304.9</ele>
        <time>2014-04-06T09:51:15Z</time>
      </trkpt>
      <trkpt lat="38.213268" lon="-1.415488">
        <ele>302.5</ele>
        <time>2014-04-06T09:51:28Z</time>
      </trkpt>
      <trkpt lat="38.213339" lon="-1.415475">
        <ele>300.5</ele>
        <time>2014-04-06T09:51:40Z</time>
      </trkpt>
      <trkpt lat="38.213371" lon="-1.415458">
        <ele>299.1</ele>
        <time>2014-04-06T09:51:51Z</time>
      </trkpt>
      <trkpt lat="38.213387" lon="-1.415437">
        <ele>298.6</ele>
        <time>2014-04-06T09:51:57Z</time>
      </trkpt>
      <trkpt lat="38.213395" lon="-1.415415">
        <ele>298.1</ele>
        <time>2014-04-06T09:51:59Z</time>
      </trkpt>
      <trkpt lat="38.213401" lon="-1.415374">
        <ele>298.1</ele>
        <time>2014-04-06T09:52:02Z</time>
      </trkpt>
      <trkpt lat="38.213416" lon="-1.415356">
        <ele>296.7</ele>
        <time>2014-04-06T09:52:04Z</time>
      </trkpt>
      <trkpt lat="38.213437" lon="-1.415356">
        <ele>296.7</ele>
        <time>2014-04-06T09:52:06Z</time>
      </trkpt>
      <trkpt lat="38.213474" lon="-1.415363">
        <ele>296.7</ele>
        <time>2014-04-06T09:52:34Z</time>
      </trkpt>
      <trkpt lat="38.213496" lon="-1.415375">
        <ele>296.2</ele>
        <time>2014-04-06T09:52:49Z</time>
      </trkpt>
      <trkpt lat="38.213520" lon="-1.415390">
        <ele>295.7</ele>
        <time>2014-04-06T09:52:56Z</time>
      </trkpt>
      <trkpt lat="38.213530" lon="-1.415405">
        <ele>296.2</ele>
        <time>2014-04-06T09:54:09Z</time>
      </trkpt>
      <trkpt lat="38.213565" lon="-1.415453">
        <ele>292.4</ele>
        <time>2014-04-06T09:54:22Z</time>
      </trkpt>
      <trkpt lat="38.213583" lon="-1.415487">
        <ele>291.4</ele>
        <time>2014-04-06T09:54:32Z</time>
      </trkpt>
      <trkpt lat="38.213596" lon="-1.415490">
        <ele>289.0</ele>
        <time>2014-04-06T09:54:42Z</time>
      </trkpt>
      <trkpt lat="38.213613" lon="-1.415519">
        <ele>287.6</ele>
        <time>2014-04-06T09:54:53Z</time>
      </trkpt>
      <trkpt lat="38.213667" lon="-1.415514">
        <ele>285.2</ele>
        <time>2014-04-06T09:55:00Z</time>
      </trkpt>
      <trkpt lat="38.213680" lon="-1.415526">
        <ele>284.7</ele>
        <time>2014-04-06T09:55:02Z</time>
      </trkpt>
      <trkpt lat="38.213737" lon="-1.415507">
        <ele>283.7</ele>
        <time>2014-04-06T09:55:15Z</time>
      </trkpt>
      <trkpt lat="38.213783" lon="-1.415523">
        <ele>280.4</ele>
        <time>2014-04-06T09:55:35Z</time>
      </trkpt>
      <trkpt lat="38.213801" lon="-1.415523">
        <ele>279.4</ele>
        <time>2014-04-06T09:55:38Z</time>
      </trkpt>
      <trkpt lat="38.213809" lon="-1.415595">
        <ele>275.1</ele>
        <time>2014-04-06T09:56:33Z</time>
      </trkpt>
      <trkpt lat="38.213818" lon="-1.415624">
        <ele>274.1</ele>
        <time>2014-04-06T09:56:38Z</time>
      </trkpt>
      <trkpt lat="38.213863" lon="-1.415649">
        <ele>272.7</ele>
        <time>2014-04-06T09:57:02Z</time>
      </trkpt>
      <trkpt lat="38.213908" lon="-1.415692">
        <ele>269.8</ele>
        <time>2014-04-06T09:57:12Z</time>
      </trkpt>
      <trkpt lat="38.213938" lon="-1.415730">
        <ele>267.9</ele>
        <time>2014-04-06T09:57:18Z</time>
      </trkpt>
      <trkpt lat="38.213948" lon="-1.415735">
        <ele>267.9</ele>
        <time>2014-04-06T09:57:20Z</time>
      </trkpt>
      <trkpt lat="38.213975" lon="-1.415751">
        <ele>266.9</ele>
        <time>2014-04-06T09:57:24Z</time>
      </trkpt>
      <trkpt lat="38.213979" lon="-1.415755">
        <ele>266.4</ele>
        <time>2014-04-06T09:57:25Z</time>
      </trkpt>
      <trkpt lat="38.213998" lon="-1.415762">
        <ele>266.4</ele>
        <time>2014-04-06T09:57:27Z</time>
      </trkpt>
      <trkpt lat="38.214025" lon="-1.415761">
        <ele>265.0</ele>
        <time>2014-04-06T09:57:31Z</time>
      </trkpt>
      <trkpt lat="38.214086" lon="-1.415730">
        <ele>264.5</ele>
        <time>2014-04-06T09:57:42Z</time>
      </trkpt>
      <trkpt lat="38.214095" lon="-1.415729">
        <ele>264.0</ele>
        <time>2014-04-06T09:57:43Z</time>
      </trkpt>
      <trkpt lat="38.214137" lon="-1.415718">
        <ele>264.0</ele>
        <time>2014-04-06T09:57:52Z</time>
      </trkpt>
      <trkpt lat="38.214142" lon="-1.415709">
        <ele>264.0</ele>
        <time>2014-04-06T09:57:59Z</time>
      </trkpt>
      <trkpt lat="38.214187" lon="-1.415667">
        <ele>264.5</ele>
        <time>2014-04-06T09:58:05Z</time>
      </trkpt>
      <trkpt lat="38.214199" lon="-1.415597">
        <ele>264.0</ele>
        <time>2014-04-06T09:58:16Z</time>
      </trkpt>
      <trkpt lat="38.214218" lon="-1.415560">
        <ele>263.5</ele>
        <time>2014-04-06T09:58:20Z</time>
      </trkpt>
      <trkpt lat="38.214251" lon="-1.415558">
        <ele>263.5</ele>
        <time>2014-04-06T09:58:23Z</time>
      </trkpt>
      <trkpt lat="38.214289" lon="-1.415514">
        <ele>262.6</ele>
        <time>2014-04-06T09:58:28Z</time>
      </trkpt>
      <trkpt lat="38.214331" lon="-1.415419">
        <ele>260.6</ele>
        <time>2014-04-06T09:58:39Z</time>
      </trkpt>
      <trkpt lat="38.214366" lon="-1.415345">
        <ele>258.7</ele>
        <time>2014-04-06T09:58:47Z</time>
      </trkpt>
      <trkpt lat="38.214439" lon="-1.415278">
        <ele>256.8</ele>
        <time>2014-04-06T09:59:00Z</time>
      </trkpt>
      <trkpt lat="38.214509" lon="-1.415228">
        <ele>254.4</ele>
        <time>2014-04-06T09:59:09Z</time>
      </trkpt>
      <trkpt lat="38.214591" lon="-1.415151">
        <ele>252.0</ele>
        <time>2014-04-06T09:59:23Z</time>
      </trkpt>
      <trkpt lat="38.214675" lon="-1.415105">
        <ele>249.1</ele>
        <time>2014-04-06T09:59:35Z</time>
      </trkpt>
      <trkpt lat="38.214707" lon="-1.415107">
        <ele>249.1</ele>
        <time>2014-04-06T09:59:41Z</time>
      </trkpt>
      <trkpt lat="38.214732" lon="-1.415114">
        <ele>248.6</ele>
        <time>2014-04-06T09:59:44Z</time>
      </trkpt>
      <trkpt lat="38.214783" lon="-1.415066">
        <ele>246.7</ele>
        <time>2014-04-06T09:59:49Z</time>
      </trkpt>
      <trkpt lat="38.214802" lon="-1.415044">
        <ele>246.2</ele>
        <time>2014-04-06T09:59:59Z</time>
      </trkpt>
      <trkpt lat="38.214833" lon="-1.415021">
        <ele>245.3</ele>
        <time>2014-04-06T10:00:11Z</time>
      </trkpt>
      <trkpt lat="38.214851" lon="-1.415028">
        <ele>244.8</ele>
        <time>2014-04-06T10:00:15Z</time>
      </trkpt>
      <trkpt lat="38.214918" lon="-1.415079">
        <ele>244.3</ele>
        <time>2014-04-06T10:00:28Z</time>
      </trkpt>
      <trkpt lat="38.214978" lon="-1.415061">
        <ele>242.9</ele>
        <time>2014-04-06T10:00:36Z</time>
      </trkpt>
      <trkpt lat="38.215050" lon="-1.414983">
        <ele>240.0</ele>
        <time>2014-04-06T10:00:48Z</time>
      </trkpt>
      <trkpt lat="38.215104" lon="-1.414906">
        <ele>237.1</ele>
        <time>2014-04-06T10:00:59Z</time>
      </trkpt>
      <trkpt lat="38.215141" lon="-1.414866">
        <ele>236.6</ele>
        <time>2014-04-06T10:01:10Z</time>
      </trkpt>
      <trkpt lat="38.215169" lon="-1.414858">
        <ele>232.8</ele>
        <time>2014-04-06T10:01:33Z</time>
      </trkpt>
      <trkpt lat="38.215201" lon="-1.414842">
        <ele>231.8</ele>
        <time>2014-04-06T10:01:38Z</time>
      </trkpt>
      <trkpt lat="38.215247" lon="-1.414825">
        <ele>231.3</ele>
        <time>2014-04-06T10:01:48Z</time>
      </trkpt>
      <trkpt lat="38.215322" lon="-1.414820">
        <ele>228.9</ele>
        <time>2014-04-06T10:01:59Z</time>
      </trkpt>
      <trkpt lat="38.215358" lon="-1.414799">
        <ele>228.0</ele>
        <time>2014-04-06T10:02:03Z</time>
      </trkpt>
      <trkpt lat="38.215454" lon="-1.414728">
        <ele>225.1</ele>
        <time>2014-04-06T10:02:16Z</time>
      </trkpt>
      <trkpt lat="38.215471" lon="-1.414691">
        <ele>224.1</ele>
        <time>2014-04-06T10:02:28Z</time>
      </trkpt>
      <trkpt lat="38.215517" lon="-1.414651">
        <ele>221.7</ele>
        <time>2014-04-06T10:02:42Z</time>
      </trkpt>
      <trkpt lat="38.215554" lon="-1.414592">
        <ele>220.3</ele>
        <time>2014-04-06T10:02:54Z</time>
      </trkpt>
      <trkpt lat="38.215587" lon="-1.414555">
        <ele>218.4</ele>
        <time>2014-04-06T10:03:07Z</time>
      </trkpt>
      <trkpt lat="38.215663" lon="-1.414424">
        <ele>216.4</ele>
        <time>2014-04-06T10:03:22Z</time>
      </trkpt>
      <trkpt lat="38.215722" lon="-1.414362">
        <ele>214.5</ele>
        <time>2014-04-06T10:03:33Z</time>
      </trkpt>
      <trkpt lat="38.215753" lon="-1.414297">
        <ele>213.1</ele>
        <time>2014-04-06T10:03:44Z</time>
      </trkpt>
      <trkpt lat="38.215805" lon="-1.414161">
        <ele>209.7</ele>
        <time>2014-04-06T10:03:57Z</time>
      </trkpt>
      <trkpt lat="38.215817" lon="-1.414140">
        <ele>209.7</ele>
        <time>2014-04-06T10:03:59Z</time>
      </trkpt>
      <trkpt lat="38.215845" lon="-1.414063">
        <ele>208.3</ele>
        <time>2014-04-06T10:04:11Z</time>
      </trkpt>
      <trkpt lat="38.215873" lon="-1.413996">
        <ele>206.8</ele>
        <time>2014-04-06T10:04:25Z</time>
      </trkpt>
      <trkpt lat="38.215909" lon="-1.413929">
        <ele>205.9</ele>
        <time>2014-04-06T10:04:39Z</time>
      </trkpt>
      <trkpt lat="38.215905" lon="-1.413835">
        <ele>204.4</ele>
        <time>2014-04-06T10:04:50Z</time>
      </trkpt>
      <trkpt lat="38.215915" lon="-1.413781">
        <ele>203.9</ele>
        <time>2014-04-06T10:05:51Z</time>
      </trkpt>
      <trkpt lat="38.215949" lon="-1.413688">
        <ele>202.0</ele>
        <time>2014-04-06T10:06:03Z</time>
      </trkpt>
      <trkpt lat="38.215945" lon="-1.413669">
        <ele>202.0</ele>
        <time>2014-04-06T10:06:56Z</time>
      </trkpt>
      <trkpt lat="38.215956" lon="-1.413599">
        <ele>201.1</ele>
        <time>2014-04-06T10:07:09Z</time>
      </trkpt>
      <trkpt lat="38.215969" lon="-1.413448">
        <ele>199.6</ele>
        <time>2014-04-06T10:07:49Z</time>
      </trkpt>
      <trkpt lat="38.215968" lon="-1.413438">
        <ele>199.1</ele>
        <time>2014-04-06T10:07:52Z</time>
      </trkpt>
      <trkpt lat="38.215989" lon="-1.413394">
        <ele>197.2</ele>
        <time>2014-04-06T10:08:00Z</time>
      </trkpt>
      <trkpt lat="38.215990" lon="-1.413382">
        <ele>197.2</ele>
        <time>2014-04-06T10:08:04Z</time>
      </trkpt>
      <trkpt lat="38.215999" lon="-1.413325">
        <ele>195.8</ele>
        <time>2014-04-06T10:08:09Z</time>
      </trkpt>
      <trkpt lat="38.216017" lon="-1.413309">
        <ele>195.8</ele>
        <time>2014-04-06T10:08:11Z</time>
      </trkpt>
      <trkpt lat="38.216027" lon="-1.413244">
        <ele>194.3</ele>
        <time>2014-04-06T10:08:18Z</time>
      </trkpt>
      <trkpt lat="38.216028" lon="-1.413226">
        <ele>193.4</ele>
        <time>2014-04-06T10:08:21Z</time>
      </trkpt>
      <trkpt lat="38.216058" lon="-1.413068">
        <ele>192.4</ele>
        <time>2014-04-06T10:08:35Z</time>
      </trkpt>
      <trkpt lat="38.216122" lon="-1.413051">
        <ele>191.4</ele>
        <time>2014-04-06T10:08:48Z</time>
      </trkpt>
      <trkpt lat="38.216144" lon="-1.413017">
        <ele>190.0</ele>
        <time>2014-04-06T10:08:53Z</time>
      </trkpt>
      <trkpt lat="38.216188" lon="-1.412946">
        <ele>188.6</ele>
        <time>2014-04-06T10:09:02Z</time>
      </trkpt>
      <trkpt lat="38.216201" lon="-1.412909">
        <ele>188.6</ele>
        <time>2014-04-06T10:09:05Z</time>
      </trkpt>
      <trkpt lat="38.216220" lon="-1.412861">
        <ele>187.6</ele>
        <time>2014-04-06T10:09:13Z</time>
      </trkpt>
      <trkpt lat="38.216222" lon="-1.412747">
        <ele>187.1</ele>
        <time>2014-04-06T10:09:21Z</time>
      </trkpt>
      <trkpt lat="38.216273" lon="-1.412647">
        <ele>186.6</ele>
        <time>2014-04-06T10:14:34Z</time>
      </trkpt>
      <trkpt lat="38.216317" lon="-1.412657">
        <ele>186.1</ele>
        <time>2014-04-06T10:14:39Z</time>
      </trkpt>
      <trkpt lat="38.216361" lon="-1.412504">
        <ele>185.2</ele>
        <time>2014-04-06T10:14:52Z</time>
      </trkpt>
      <trkpt lat="38.216321" lon="-1.412377">
        <ele>183.8</ele>
        <time>2014-04-06T10:15:08Z</time>
      </trkpt>
      <trkpt lat="38.216319" lon="-1.412322">
        <ele>183.8</ele>
        <time>2014-04-06T10:15:12Z</time>
      </trkpt>
      <trkpt lat="38.216318" lon="-1.412291">
        <ele>183.8</ele>
        <time>2014-04-06T10:15:14Z</time>
      </trkpt>
      <trkpt lat="38.216292" lon="-1.412264">
        <ele>183.3</ele>
        <time>2014-04-06T10:15:17Z</time>
      </trkpt>
      <trkpt lat="38.216275" lon="-1.412096">
        <ele>182.8</ele>
        <time>2014-04-06T10:15:30Z</time>
      </trkpt>
      <trkpt lat="38.216276" lon="-1.412080">
        <ele>181.8</ele>
        <time>2014-04-06T10:15:31Z</time>
      </trkpt>
      <trkpt lat="38.216256" lon="-1.411854">
        <ele>180.9</ele>
        <time>2014-04-06T10:15:46Z</time>
      </trkpt>
      <trkpt lat="38.216261" lon="-1.411665">
        <ele>179.9</ele>
        <time>2014-04-06T10:16:00Z</time>
      </trkpt>
      <trkpt lat="38.216316" lon="-1.411460">
        <ele>178.5</ele>
        <time>2014-04-06T10:16:16Z</time>
      </trkpt>
      <trkpt lat="38.216354" lon="-1.411340">
        <ele>177.5</ele>
        <time>2014-04-06T10:16:25Z</time>
      </trkpt>
      <trkpt lat="38.216430" lon="-1.411215">
        <ele>176.1</ele>
        <time>2014-04-06T10:16:38Z</time>
      </trkpt>
      <trkpt lat="38.216486" lon="-1.411192">
        <ele>175.6</ele>
        <time>2014-04-06T10:16:44Z</time>
      </trkpt>
      <trkpt lat="38.216512" lon="-1.411168">
        <ele>175.1</ele>
        <time>2014-04-06T10:16:47Z</time>
      </trkpt>
      <trkpt lat="38.216559" lon="-1.411139">
        <ele>174.1</ele>
        <time>2014-04-06T10:16:52Z</time>
      </trkpt>
      <trkpt lat="38.216672" lon="-1.411022">
        <ele>172.7</ele>
        <time>2014-04-06T10:17:06Z</time>
      </trkpt>
      <trkpt lat="38.216742" lon="-1.410830">
        <ele>171.2</ele>
        <time>2014-04-06T10:17:20Z</time>
      </trkpt>
      <trkpt lat="38.216814" lon="-1.410714">
        <ele>170.3</ele>
        <time>2014-04-06T10:17:30Z</time>
      </trkpt>
      <trkpt lat="38.216839" lon="-1.410691">
        <ele>170.3</ele>
        <time>2014-04-06T10:17:33Z</time>
      </trkpt>
      <trkpt lat="38.216890" lon="-1.410667">
        <ele>170.3</ele>
        <time>2014-04-06T10:17:38Z</time>
      </trkpt>
      <trkpt lat="38.216898" lon="-1.410661">
        <ele>169.8</ele>
        <time>2014-04-06T10:17:50Z</time>
      </trkpt>
      <trkpt lat="38.216960" lon="-1.410618">
        <ele>169.3</ele>
        <time>2014-04-06T10:18:07Z</time>
      </trkpt>
      <trkpt lat="38.217010" lon="-1.410509">
        <ele>168.4</ele>
        <time>2014-04-06T10:18:19Z</time>
      </trkpt>
      <trkpt lat="38.217060" lon="-1.410482">
        <ele>167.9</ele>
        <time>2014-04-06T10:18:30Z</time>
      </trkpt>
      <trkpt lat="38.217122" lon="-1.410520">
        <ele>166.9</ele>
        <time>2014-04-06T10:18:42Z</time>
      </trkpt>
      <trkpt lat="38.217233" lon="-1.410570">
        <ele>166.9</ele>
        <time>2014-04-06T10:19:17Z</time>
      </trkpt>
      <trkpt lat="38.217395" lon="-1.410722">
        <ele>166.9</ele>
        <time>2014-04-06T10:19:32Z</time>
      </trkpt>
      <trkpt lat="38.217446" lon="-1.410775">
        <ele>167.4</ele>
        <time>2014-04-06T10:19:38Z</time>
      </trkpt>
      <trkpt lat="38.217531" lon="-1.410855">
        <ele>166.0</ele>
        <time>2014-04-06T10:19:47Z</time>
      </trkpt>
      <trkpt lat="38.217587" lon="-1.410920">
        <ele>166.9</ele>
        <time>2014-04-06T10:20:43Z</time>
      </trkpt>
      <trkpt lat="38.217753" lon="-1.411085">
        <ele>166.9</ele>
        <time>2014-04-06T10:20:57Z</time>
      </trkpt>
      <trkpt lat="38.217813" lon="-1.411187">
        <ele>166.9</ele>
        <time>2014-04-06T10:21:04Z</time>
      </trkpt>
      <trkpt lat="38.217935" lon="-1.411429">
        <ele>167.4</ele>
        <time>2014-04-06T10:21:20Z</time>
      </trkpt>
      <trkpt lat="38.217988" lon="-1.411660">
        <ele>166.9</ele>
        <time>2014-04-06T10:21:33Z</time>
      </trkpt>
      <trkpt lat="38.218057" lon="-1.411917">
        <ele>166.4</ele>
        <time>2014-04-06T10:21:47Z</time>
      </trkpt>
      <trkpt lat="38.218117" lon="-1.412070">
        <ele>166.4</ele>
        <time>2014-04-06T10:21:56Z</time>
      </trkpt>
      <trkpt lat="38.218187" lon="-1.412337">
        <ele>166.0</ele>
        <time>2014-04-06T10:22:11Z</time>
      </trkpt>
      <trkpt lat="38.218242" lon="-1.412503">
        <ele>166.4</ele>
        <time>2014-04-06T10:22:20Z</time>
      </trkpt>
      <trkpt lat="38.218349" lon="-1.412610">
        <ele>165.0</ele>
        <time>2014-04-06T10:22:35Z</time>
      </trkpt>
      <trkpt lat="38.218348" lon="-1.412623">
        <ele>165.5</ele>
        <time>2014-04-06T10:22:36Z</time>
      </trkpt>
      <trkpt lat="38.218312" lon="-1.412798">
        <ele>165.0</ele>
        <time>2014-04-06T10:22:49Z</time>
      </trkpt>
      <trkpt lat="38.218290" lon="-1.413019">
        <ele>165.5</ele>
        <time>2014-04-06T10:23:04Z</time>
      </trkpt>
      <trkpt lat="38.218261" lon="-1.413190">
        <ele>166.0</ele>
        <time>2014-04-06T10:23:17Z</time>
      </trkpt>
      <trkpt lat="38.218259" lon="-1.413326">
        <ele>166.0</ele>
        <time>2014-04-06T10:23:26Z</time>
      </trkpt>
      <trkpt lat="38.218251" lon="-1.413538">
        <ele>165.5</ele>
        <time>2014-04-06T10:23:40Z</time>
      </trkpt>
      <trkpt lat="38.218246" lon="-1.413588">
        <ele>166.0</ele>
        <time>2014-04-06T10:23:44Z</time>
      </trkpt>
      <trkpt lat="38.218249" lon="-1.413654">
        <ele>165.5</ele>
        <time>2014-04-06T10:23:48Z</time>
      </trkpt>
      <trkpt lat="38.218204" lon="-1.413811">
        <ele>167.4</ele>
        <time>2014-04-06T10:24:02Z</time>
      </trkpt>
      <trkpt lat="38.218208" lon="-1.413913">
        <ele>167.9</ele>
        <time>2014-04-06T10:24:09Z</time>
      </trkpt>
      <trkpt lat="38.218191" lon="-1.414053">
        <ele>167.9</ele>
        <time>2014-04-06T10:24:21Z</time>
      </trkpt>
      <trkpt lat="38.218113" lon="-1.414205">
        <ele>166.4</ele>
        <time>2014-04-06T10:24:34Z</time>
      </trkpt>
      <trkpt lat="38.218037" lon="-1.414389">
        <ele>165.5</ele>
        <time>2014-04-06T10:24:49Z</time>
      </trkpt>
      <trkpt lat="38.218034" lon="-1.414403">
        <ele>165.5</ele>
        <time>2014-04-06T10:24:50Z</time>
      </trkpt>
      <trkpt lat="38.217948" lon="-1.414501">
        <ele>166.0</ele>
        <time>2014-04-06T10:25:03Z</time>
      </trkpt>
      <trkpt lat="38.217915" lon="-1.414630">
        <ele>165.0</ele>
        <time>2014-04-06T10:25:15Z</time>
      </trkpt>
      <trkpt lat="38.217912" lon="-1.414711">
        <ele>166.4</ele>
        <time>2014-04-06T10:25:27Z</time>
      </trkpt>
      <trkpt lat="38.217888" lon="-1.414791">
        <ele>166.9</ele>
        <time>2014-04-06T10:25:43Z</time>
      </trkpt>
      <trkpt lat="38.217910" lon="-1.414829">
        <ele>166.9</ele>
        <time>2014-04-06T10:25:48Z</time>
      </trkpt>
      <trkpt lat="38.217933" lon="-1.414864">
        <ele>166.0</ele>
        <time>2014-04-06T10:25:54Z</time>
      </trkpt>
      <trkpt lat="38.217942" lon="-1.414898">
        <ele>166.0</ele>
        <time>2014-04-06T10:25:57Z</time>
      </trkpt>
      <trkpt lat="38.217953" lon="-1.414951">
        <ele>166.0</ele>
        <time>2014-04-06T10:26:01Z</time>
      </trkpt>
      <trkpt lat="38.217943" lon="-1.415146">
        <ele>165.0</ele>
        <time>2014-04-06T10:26:15Z</time>
      </trkpt>
      <trkpt lat="38.217953" lon="-1.415196">
        <ele>166.0</ele>
        <time>2014-04-06T10:26:18Z</time>
      </trkpt>
      <trkpt lat="38.217994" lon="-1.415277">
        <ele>166.0</ele>
        <time>2014-04-06T10:26:25Z</time>
      </trkpt>
      <trkpt lat="38.218008" lon="-1.415306">
        <ele>166.4</ele>
        <time>2014-04-06T10:26:28Z</time>
      </trkpt>
      <trkpt lat="38.218029" lon="-1.415327">
        <ele>166.4</ele>
        <time>2014-04-06T10:26:30Z</time>
      </trkpt>
      <trkpt lat="38.218090" lon="-1.415374">
        <ele>165.5</ele>
        <time>2014-04-06T10:26:38Z</time>
      </trkpt>
      <trkpt lat="38.218120" lon="-1.415414">
        <ele>165.5</ele>
        <time>2014-04-06T10:26:42Z</time>
      </trkpt>
      <trkpt lat="38.218130" lon="-1.415422">
        <ele>165.0</ele>
        <time>2014-04-06T10:26:43Z</time>
      </trkpt>
      <trkpt lat="38.218138" lon="-1.415431">
        <ele>165.0</ele>
        <time>2014-04-06T10:26:44Z</time>
      </trkpt>
      <trkpt lat="38.218160" lon="-1.415447">
        <ele>165.5</ele>
        <time>2014-04-06T10:26:47Z</time>
      </trkpt>
      <trkpt lat="38.218173" lon="-1.415451">
        <ele>165.5</ele>
        <time>2014-04-06T10:26:48Z</time>
      </trkpt>
      <trkpt lat="38.218209" lon="-1.415475">
        <ele>165.5</ele>
        <time>2014-04-06T10:26:57Z</time>
      </trkpt>
      <trkpt lat="38.218210" lon="-1.415483">
        <ele>166.0</ele>
        <time>2014-04-06T10:26:59Z</time>
      </trkpt>
      <trkpt lat="38.218223" lon="-1.415490">
        <ele>165.5</ele>
        <time>2014-04-06T10:27:00Z</time>
      </trkpt>
      <trkpt lat="38.218238" lon="-1.415497">
        <ele>165.5</ele>
        <time>2014-04-06T10:27:01Z</time>
      </trkpt>
      <trkpt lat="38.218250" lon="-1.415507">
        <ele>166.0</ele>
        <time>2014-04-06T10:27:02Z</time>
      </trkpt>
      <trkpt lat="38.218261" lon="-1.415515">
        <ele>166.0</ele>
        <time>2014-04-06T10:27:03Z</time>
      </trkpt>
      <trkpt lat="38.218275" lon="-1.415523">
        <ele>165.5</ele>
        <time>2014-04-06T10:27:04Z</time>
      </trkpt>
      <trkpt lat="38.218289" lon="-1.415531">
        <ele>166.0</ele>
        <time>2014-04-06T10:27:05Z</time>
      </trkpt>
      <trkpt lat="38.218304" lon="-1.415543">
        <ele>166.0</ele>
        <time>2014-04-06T10:27:06Z</time>
      </trkpt>
      <trkpt lat="38.218494" lon="-1.415654">
        <ele>166.0</ele>
        <time>2014-04-06T10:27:20Z</time>
      </trkpt>
      <trkpt lat="38.218699" lon="-1.415691">
        <ele>166.0</ele>
        <time>2014-04-06T10:27:36Z</time>
      </trkpt>
      <trkpt lat="38.218855" lon="-1.415706">
        <ele>166.0</ele>
        <time>2014-04-06T10:27:51Z</time>
      </trkpt>
      <trkpt lat="38.219000" lon="-1.415725">
        <ele>165.5</ele>
        <time>2014-04-06T10:28:06Z</time>
      </trkpt>
      <trkpt lat="38.219046" lon="-1.415734">
        <ele>165.5</ele>
        <time>2014-04-06T10:28:10Z</time>
      </trkpt>
      <trkpt lat="38.219240" lon="-1.415765">
        <ele>164.5</ele>
        <time>2014-04-06T10:28:26Z</time>
      </trkpt>
      <trkpt lat="38.219314" lon="-1.415783">
        <ele>164.5</ele>
        <time>2014-04-06T10:28:33Z</time>
      </trkpt>
      <trkpt lat="38.219327" lon="-1.415788">
        <ele>165.0</ele>
        <time>2014-04-06T10:28:34Z</time>
      </trkpt>
      <trkpt lat="38.219340" lon="-1.415792">
        <ele>165.0</ele>
        <time>2014-04-06T10:28:35Z</time>
      </trkpt>
      <trkpt lat="38.219352" lon="-1.415797">
        <ele>165.0</ele>
        <time>2014-04-06T10:28:36Z</time>
      </trkpt>
      <trkpt lat="38.219505" lon="-1.415847">
        <ele>164.0</ele>
        <time>2014-04-06T10:28:50Z</time>
      </trkpt>
      <trkpt lat="38.219516" lon="-1.415845">
        <ele>164.0</ele>
        <time>2014-04-06T10:28:51Z</time>
      </trkpt>
      <trkpt lat="38.219530" lon="-1.415841">
        <ele>164.5</ele>
        <time>2014-04-06T10:28:52Z</time>
      </trkpt>
      <trkpt lat="38.219708" lon="-1.415834">
        <ele>165.5</ele>
        <time>2014-04-06T10:29:07Z</time>
      </trkpt>
      <trkpt lat="38.219853" lon="-1.415809">
        <ele>165.5</ele>
        <time>2014-04-06T10:29:22Z</time>
      </trkpt>
      <trkpt lat="38.219866" lon="-1.415808">
        <ele>165.5</ele>
        <time>2014-04-06T10:29:23Z</time>
      </trkpt>
      <trkpt lat="38.219879" lon="-1.415806">
        <ele>165.5</ele>
        <time>2014-04-06T10:29:24Z</time>
      </trkpt>
      <trkpt lat="38.219913" lon="-1.415798">
        <ele>165.0</ele>
        <time>2014-04-06T10:29:27Z</time>
      </trkpt>
      <trkpt lat="38.219925" lon="-1.415793">
        <ele>165.0</ele>
        <time>2014-04-06T10:29:28Z</time>
      </trkpt>
      <trkpt lat="38.220134" lon="-1.415736">
        <ele>165.0</ele>
        <time>2014-04-06T10:29:45Z</time>
      </trkpt>
      <trkpt lat="38.220198" lon="-1.415709">
        <ele>164.5</ele>
        <time>2014-04-06T10:29:51Z</time>
      </trkpt>
      <trkpt lat="38.220211" lon="-1.415707">
        <ele>165.0</ele>
        <time>2014-04-06T10:29:52Z</time>
      </trkpt>
      <trkpt lat="38.220387" lon="-1.415663">
        <ele>165.0</ele>
        <time>2014-04-06T10:30:07Z</time>
      </trkpt>
      <trkpt lat="38.220410" lon="-1.415665">
        <ele>165.0</ele>
        <time>2014-04-06T10:30:09Z</time>
      </trkpt>
      <trkpt lat="38.220421" lon="-1.415663">
        <ele>165.0</ele>
        <time>2014-04-06T10:30:10Z</time>
      </trkpt>
      <trkpt lat="38.220430" lon="-1.415657">
        <ele>165.0</ele>
        <time>2014-04-06T10:30:11Z</time>
      </trkpt>
      <trkpt lat="38.220442" lon="-1.415650">
        <ele>165.0</ele>
        <time>2014-04-06T10:30:12Z</time>
      </trkpt>
      <trkpt lat="38.220454" lon="-1.415646">
        <ele>165.5</ele>
        <time>2014-04-06T10:30:13Z</time>
      </trkpt>
      <trkpt lat="38.220588" lon="-1.415610">
        <ele>165.0</ele>
        <time>2014-04-06T10:30:26Z</time>
      </trkpt>
      <trkpt lat="38.220757" lon="-1.415541">
        <ele>165.5</ele>
        <time>2014-04-06T10:30:42Z</time>
      </trkpt>
      <trkpt lat="38.220934" lon="-1.415497">
        <ele>165.5</ele>
        <time>2014-04-06T10:30:57Z</time>
      </trkpt>
      <trkpt lat="38.221089" lon="-1.415452">
        <ele>165.5</ele>
        <time>2014-04-06T10:31:11Z</time>
      </trkpt>
      <trkpt lat="38.221149" lon="-1.415443">
        <ele>165.0</ele>
        <time>2014-04-06T10:31:16Z</time>
      </trkpt>
      <trkpt lat="38.221182" lon="-1.415434">
        <ele>165.5</ele>
        <time>2014-04-06T10:31:19Z</time>
      </trkpt>
      <trkpt lat="38.221333" lon="-1.415439">
        <ele>165.5</ele>
        <time>2014-04-06T10:31:32Z</time>
      </trkpt>
      <trkpt lat="38.221364" lon="-1.415439">
        <ele>166.0</ele>
        <time>2014-04-06T10:31:35Z</time>
      </trkpt>
      <trkpt lat="38.221512" lon="-1.415504">
        <ele>164.5</ele>
        <time>2014-04-06T10:31:48Z</time>
      </trkpt>
      <trkpt lat="38.221523" lon="-1.415517">
        <ele>165.0</ele>
        <time>2014-04-06T10:31:49Z</time>
      </trkpt>
      <trkpt lat="38.221553" lon="-1.415541">
        <ele>165.5</ele>
        <time>2014-04-06T10:31:52Z</time>
      </trkpt>
      <trkpt lat="38.221565" lon="-1.415546">
        <ele>165.0</ele>
        <time>2014-04-06T10:31:53Z</time>
      </trkpt>
      <trkpt lat="38.221579" lon="-1.415551">
        <ele>165.0</ele>
        <time>2014-04-06T10:31:54Z</time>
      </trkpt>
      <trkpt lat="38.221614" lon="-1.415558">
        <ele>165.0</ele>
        <time>2014-04-06T10:31:57Z</time>
      </trkpt>
      <trkpt lat="38.221630" lon="-1.415557">
        <ele>165.5</ele>
        <time>2014-04-06T10:31:58Z</time>
      </trkpt>
      <trkpt lat="38.221704" lon="-1.415568">
        <ele>165.5</ele>
        <time>2014-04-06T10:32:04Z</time>
      </trkpt>
      <trkpt lat="38.221879" lon="-1.415519">
        <ele>166.0</ele>
        <time>2014-04-06T10:32:18Z</time>
      </trkpt>
      <trkpt lat="38.221892" lon="-1.415517">
        <ele>166.0</ele>
        <time>2014-04-06T10:32:19Z</time>
      </trkpt>
      <trkpt lat="38.222027" lon="-1.415495">
        <ele>166.4</ele>
        <time>2014-04-06T10:32:32Z</time>
      </trkpt>
      <trkpt lat="38.222169" lon="-1.415465">
        <ele>166.0</ele>
        <time>2014-04-06T10:32:48Z</time>
      </trkpt>
      <trkpt lat="38.222199" lon="-1.415465">
        <ele>166.0</ele>
        <time>2014-04-06T10:32:51Z</time>
      </trkpt>
      <trkpt lat="38.222407" lon="-1.415461">
        <ele>165.0</ele>
        <time>2014-04-06T10:33:08Z</time>
      </trkpt>
      <trkpt lat="38.222496" lon="-1.415512">
        <ele>165.5</ele>
        <time>2014-04-06T10:33:16Z</time>
      </trkpt>
      <trkpt lat="38.222650" lon="-1.415630">
        <ele>165.5</ele>
        <time>2014-04-06T10:33:31Z</time>
      </trkpt>
      <trkpt lat="38.222660" lon="-1.415636">
        <ele>165.5</ele>
        <time>2014-04-06T10:33:32Z</time>
      </trkpt>
      <trkpt lat="38.222670" lon="-1.415643">
        <ele>165.5</ele>
        <time>2014-04-06T10:33:33Z</time>
      </trkpt>
      <trkpt lat="38.222680" lon="-1.415650">
        <ele>166.0</ele>
        <time>2014-04-06T10:33:34Z</time>
      </trkpt>
      <trkpt lat="38.222689" lon="-1.415658">
        <ele>165.5</ele>
        <time>2014-04-06T10:33:35Z</time>
      </trkpt>
      <trkpt lat="38.222834" lon="-1.415764">
        <ele>165.5</ele>
        <time>2014-04-06T10:33:49Z</time>
      </trkpt>
      <trkpt lat="38.223000" lon="-1.415911">
        <ele>165.0</ele>
        <time>2014-04-06T10:34:05Z</time>
      </trkpt>
      <trkpt lat="38.223013" lon="-1.415916">
        <ele>165.0</ele>
        <time>2014-04-06T10:34:06Z</time>
      </trkpt>
      <trkpt lat="38.223084" lon="-1.415974">
        <ele>165.0</ele>
        <time>2014-04-06T10:34:13Z</time>
      </trkpt>
      <trkpt lat="38.223096" lon="-1.415983">
        <ele>165.0</ele>
        <time>2014-04-06T10:34:14Z</time>
      </trkpt>
      <trkpt lat="38.223106" lon="-1.415995">
        <ele>165.5</ele>
        <time>2014-04-06T10:34:15Z</time>
      </trkpt>
      <trkpt lat="38.223117" lon="-1.416005">
        <ele>165.5</ele>
        <time>2014-04-06T10:34:16Z</time>
      </trkpt>
      <trkpt lat="38.223129" lon="-1.416014">
        <ele>165.5</ele>
        <time>2014-04-06T10:34:17Z</time>
      </trkpt>
      <trkpt lat="38.223141" lon="-1.416025">
        <ele>165.5</ele>
        <time>2014-04-06T10:34:18Z</time>
      </trkpt>
      <trkpt lat="38.223241" lon="-1.416143">
        <ele>165.5</ele>
        <time>2014-04-06T10:34:30Z</time>
      </trkpt>
      <trkpt lat="38.223364" lon="-1.416254">
        <ele>165.5</ele>
        <time>2014-04-06T10:34:44Z</time>
      </trkpt>
      <trkpt lat="38.223492" lon="-1.416365">
        <ele>166.0</ele>
        <time>2014-04-06T10:34:58Z</time>
      </trkpt>
      <trkpt lat="38.223637" lon="-1.416472">
        <ele>165.5</ele>
        <time>2014-04-06T10:35:13Z</time>
      </trkpt>
      <trkpt lat="38.223655" lon="-1.416487">
        <ele>165.5</ele>
        <time>2014-04-06T10:35:15Z</time>
      </trkpt>
      <trkpt lat="38.223667" lon="-1.416494">
        <ele>165.5</ele>
        <time>2014-04-06T10:35:16Z</time>
      </trkpt>
      <trkpt lat="38.223795" lon="-1.416573">
        <ele>165.5</ele>
        <time>2014-04-06T10:35:28Z</time>
      </trkpt>
      <trkpt lat="38.223901" lon="-1.416636">
        <ele>165.5</ele>
        <time>2014-04-06T10:35:38Z</time>
      </trkpt>
      <trkpt lat="38.223912" lon="-1.416641">
        <ele>165.5</ele>
        <time>2014-04-06T10:35:39Z</time>
      </trkpt>
      <trkpt lat="38.223923" lon="-1.416647">
        <ele>165.5</ele>
        <time>2014-04-06T10:35:40Z</time>
      </trkpt>
      <trkpt lat="38.224065" lon="-1.416738">
        <ele>165.5</ele>
        <time>2014-04-06T10:35:55Z</time>
      </trkpt>
      <trkpt lat="38.224183" lon="-1.416818">
        <ele>166.0</ele>
        <time>2014-04-06T10:36:07Z</time>
      </trkpt>
      <trkpt lat="38.224325" lon="-1.416908">
        <ele>166.0</ele>
        <time>2014-04-06T10:36:21Z</time>
      </trkpt>
      <trkpt lat="38.224355" lon="-1.416931">
        <ele>166.0</ele>
        <time>2014-04-06T10:36:24Z</time>
      </trkpt>
      <trkpt lat="38.224519" lon="-1.417065">
        <ele>166.0</ele>
        <time>2014-04-06T10:36:40Z</time>
      </trkpt>
      <trkpt lat="38.224545" lon="-1.417090">
        <ele>166.0</ele>
        <time>2014-04-06T10:36:43Z</time>
      </trkpt>
      <trkpt lat="38.224555" lon="-1.417097">
        <ele>166.4</ele>
        <time>2014-04-06T10:36:44Z</time>
      </trkpt>
      <trkpt lat="38.224565" lon="-1.417104">
        <ele>166.0</ele>
        <time>2014-04-06T10:36:45Z</time>
      </trkpt>
      <trkpt lat="38.224594" lon="-1.417116">
        <ele>166.0</ele>
        <time>2014-04-06T10:36:53Z</time>
      </trkpt>
      <trkpt lat="38.224626" lon="-1.417164">
        <ele>166.4</ele>
        <time>2014-04-06T10:36:57Z</time>
      </trkpt>
      <trkpt lat="38.224638" lon="-1.417174">
        <ele>166.4</ele>
        <time>2014-04-06T10:36:58Z</time>
      </trkpt>
      <trkpt lat="38.224649" lon="-1.417184">
        <ele>166.4</ele>
        <time>2014-04-06T10:36:59Z</time>
      </trkpt>
      <trkpt lat="38.224660" lon="-1.417195">
        <ele>166.0</ele>
        <time>2014-04-06T10:37:00Z</time>
      </trkpt>
      <trkpt lat="38.224672" lon="-1.417205">
        <ele>166.4</ele>
        <time>2014-04-06T10:37:01Z</time>
      </trkpt>
      <trkpt lat="38.224684" lon="-1.417212">
        <ele>166.9</ele>
        <time>2014-04-06T10:37:02Z</time>
      </trkpt>
      <trkpt lat="38.224731" lon="-1.417263">
        <ele>166.4</ele>
        <time>2014-04-06T10:37:07Z</time>
      </trkpt>
      <trkpt lat="38.224881" lon="-1.417393">
        <ele>166.4</ele>
        <time>2014-04-06T10:37:22Z</time>
      </trkpt>
      <trkpt lat="38.224888" lon="-1.417404">
        <ele>166.0</ele>
        <time>2014-04-06T10:37:23Z</time>
      </trkpt>
      <trkpt lat="38.224964" lon="-1.417506">
        <ele>165.5</ele>
        <time>2014-04-06T10:37:33Z</time>
      </trkpt>
      <trkpt lat="38.224972" lon="-1.417514">
        <ele>165.5</ele>
        <time>2014-04-06T10:37:34Z</time>
      </trkpt>
      <trkpt lat="38.225108" lon="-1.417689">
        <ele>166.4</ele>
        <time>2014-04-06T10:37:51Z</time>
      </trkpt>
      <trkpt lat="38.225112" lon="-1.417702">
        <ele>166.0</ele>
        <time>2014-04-06T10:37:52Z</time>
      </trkpt>
      <trkpt lat="38.225157" lon="-1.417752">
        <ele>166.0</ele>
        <time>2014-04-06T10:37:57Z</time>
      </trkpt>
      <trkpt lat="38.225206" lon="-1.417816">
        <ele>166.4</ele>
        <time>2014-04-06T10:38:03Z</time>
      </trkpt>
      <trkpt lat="38.225306" lon="-1.417905">
        <ele>166.4</ele>
        <time>2014-04-06T10:38:13Z</time>
      </trkpt>
      <trkpt lat="38.225372" lon="-1.417962">
        <ele>166.4</ele>
        <time>2014-04-06T10:38:20Z</time>
      </trkpt>
      <trkpt lat="38.225523" lon="-1.418104">
        <ele>166.9</ele>
        <time>2014-04-06T10:38:36Z</time>
      </trkpt>
      <trkpt lat="38.225652" lon="-1.418224">
        <ele>166.9</ele>
        <time>2014-04-06T10:38:50Z</time>
      </trkpt>
      <trkpt lat="38.225740" lon="-1.418340">
        <ele>166.4</ele>
        <time>2014-04-06T10:39:02Z</time>
      </trkpt>
      <trkpt lat="38.225918" lon="-1.418428">
        <ele>166.9</ele>
        <time>2014-04-06T10:39:17Z</time>
      </trkpt>
      <trkpt lat="38.226060" lon="-1.418456">
        <ele>166.4</ele>
        <time>2014-04-06T10:39:30Z</time>
      </trkpt>
      <trkpt lat="38.226262" lon="-1.418442">
        <ele>166.4</ele>
        <time>2014-04-06T10:39:47Z</time>
      </trkpt>
      <trkpt lat="38.226370" lon="-1.418411">
        <ele>166.4</ele>
        <time>2014-04-06T10:40:03Z</time>
      </trkpt>
      <trkpt lat="38.226429" lon="-1.418377">
        <ele>166.9</ele>
        <time>2014-04-06T10:40:13Z</time>
      </trkpt>
      <trkpt lat="38.226558" lon="-1.418291">
        <ele>166.4</ele>
        <time>2014-04-06T10:40:30Z</time>
      </trkpt>
      <trkpt lat="38.226578" lon="-1.418271">
        <ele>166.4</ele>
        <time>2014-04-06T10:40:32Z</time>
      </trkpt>
      <trkpt lat="38.226586" lon="-1.418262">
        <ele>166.9</ele>
        <time>2014-04-06T10:40:33Z</time>
      </trkpt>
      <trkpt lat="38.226723" lon="-1.418103">
        <ele>166.0</ele>
        <time>2014-04-06T10:40:49Z</time>
      </trkpt>
      <trkpt lat="38.226792" lon="-1.417979">
        <ele>166.0</ele>
        <time>2014-04-06T10:41:02Z</time>
      </trkpt>
      <trkpt lat="38.226925" lon="-1.417742">
        <ele>166.0</ele>
        <time>2014-04-06T10:41:22Z</time>
      </trkpt>
      <trkpt lat="38.227055" lon="-1.417481">
        <ele>165.5</ele>
        <time>2014-04-06T10:41:42Z</time>
      </trkpt>
      <trkpt lat="38.227181" lon="-1.417241">
        <ele>165.5</ele>
        <time>2014-04-06T10:42:01Z</time>
      </trkpt>
      <trkpt lat="38.227334" lon="-1.417003">
        <ele>166.0</ele>
        <time>2014-04-06T10:42:21Z</time>
      </trkpt>
      <trkpt lat="38.227475" lon="-1.416760">
        <ele>165.5</ele>
        <time>2014-04-06T10:42:40Z</time>
      </trkpt>
      <trkpt lat="38.227518" lon="-1.416692">
        <ele>165.5</ele>
        <time>2014-04-06T10:42:46Z</time>
      </trkpt>
      <trkpt lat="38.227521" lon="-1.416678">
        <ele>166.0</ele>
        <time>2014-04-06T10:42:47Z</time>
      </trkpt>
      <trkpt lat="38.227655" lon="-1.416459">
        <ele>166.4</ele>
        <time>2014-04-06T10:43:05Z</time>
      </trkpt>
      <trkpt lat="38.227771" lon="-1.416278">
        <ele>166.9</ele>
        <time>2014-04-06T10:43:21Z</time>
      </trkpt>
      <trkpt lat="38.227800" lon="-1.416228">
        <ele>166.9</ele>
        <time>2014-04-06T10:43:25Z</time>
      </trkpt>
      <trkpt lat="38.227807" lon="-1.416214">
        <ele>166.4</ele>
        <time>2014-04-06T10:43:26Z</time>
      </trkpt>
      <trkpt lat="38.227817" lon="-1.416203">
        <ele>166.4</ele>
        <time>2014-04-06T10:43:27Z</time>
      </trkpt>
      <trkpt lat="38.227823" lon="-1.416193">
        <ele>166.4</ele>
        <time>2014-04-06T10:43:28Z</time>
      </trkpt>
      <trkpt lat="38.227830" lon="-1.416186">
        <ele>166.4</ele>
        <time>2014-04-06T10:43:29Z</time>
      </trkpt>
      <trkpt lat="38.227838" lon="-1.416175">
        <ele>166.4</ele>
        <time>2014-04-06T10:43:30Z</time>
      </trkpt>
      <trkpt lat="38.227846" lon="-1.416161">
        <ele>166.9</ele>
        <time>2014-04-06T10:43:31Z</time>
      </trkpt>
      <trkpt lat="38.227861" lon="-1.416125">
        <ele>166.9</ele>
        <time>2014-04-06T10:43:34Z</time>
      </trkpt>
      <trkpt lat="38.227870" lon="-1.416113">
        <ele>166.9</ele>
        <time>2014-04-06T10:43:35Z</time>
      </trkpt>
      <trkpt lat="38.227889" lon="-1.416067">
        <ele>166.4</ele>
        <time>2014-04-06T10:43:39Z</time>
      </trkpt>
      <trkpt lat="38.227892" lon="-1.416054">
        <ele>166.9</ele>
        <time>2014-04-06T10:43:40Z</time>
      </trkpt>
      <trkpt lat="38.228001" lon="-1.415855">
        <ele>166.9</ele>
        <time>2014-04-06T10:43:56Z</time>
      </trkpt>
      <trkpt lat="38.228093" lon="-1.415662">
        <ele>167.4</ele>
        <time>2014-04-06T10:44:10Z</time>
      </trkpt>
      <trkpt lat="38.228104" lon="-1.415649">
        <ele>166.9</ele>
        <time>2014-04-06T10:44:11Z</time>
      </trkpt>
      <trkpt lat="38.228112" lon="-1.415635">
        <ele>167.4</ele>
        <time>2014-04-06T10:44:12Z</time>
      </trkpt>
      <trkpt lat="38.228117" lon="-1.415621">
        <ele>166.9</ele>
        <time>2014-04-06T10:44:13Z</time>
      </trkpt>
      <trkpt lat="38.228120" lon="-1.415608">
        <ele>166.4</ele>
        <time>2014-04-06T10:44:14Z</time>
      </trkpt>
      <trkpt lat="38.228123" lon="-1.415594">
        <ele>166.9</ele>
        <time>2014-04-06T10:44:15Z</time>
      </trkpt>
      <trkpt lat="38.228127" lon="-1.415582">
        <ele>166.4</ele>
        <time>2014-04-06T10:44:16Z</time>
      </trkpt>
      <trkpt lat="38.228131" lon="-1.415571">
        <ele>166.9</ele>
        <time>2014-04-06T10:44:17Z</time>
      </trkpt>
      <trkpt lat="38.228136" lon="-1.415557">
        <ele>166.9</ele>
        <time>2014-04-06T10:44:18Z</time>
      </trkpt>
      <trkpt lat="38.228212" lon="-1.415389">
        <ele>166.4</ele>
        <time>2014-04-06T10:44:31Z</time>
      </trkpt>
      <trkpt lat="38.228286" lon="-1.415218">
        <ele>167.4</ele>
        <time>2014-04-06T10:44:45Z</time>
      </trkpt>
      <trkpt lat="38.228395" lon="-1.415028">
        <ele>166.9</ele>
        <time>2014-04-06T10:45:00Z</time>
      </trkpt>
      <trkpt lat="38.228499" lon="-1.414834">
        <ele>167.4</ele>
        <time>2014-04-06T10:45:16Z</time>
      </trkpt>
      <trkpt lat="38.228515" lon="-1.414795">
        <ele>166.9</ele>
        <time>2014-04-06T10:45:19Z</time>
      </trkpt>
      <trkpt lat="38.228626" lon="-1.414612">
        <ele>166.9</ele>
        <time>2014-04-06T10:45:35Z</time>
      </trkpt>
      <trkpt lat="38.228730" lon="-1.414433">
        <ele>167.9</ele>
        <time>2014-04-06T10:45:51Z</time>
      </trkpt>
      <trkpt lat="38.228824" lon="-1.414279">
        <ele>167.4</ele>
        <time>2014-04-06T10:46:04Z</time>
      </trkpt>
      <trkpt lat="38.228935" lon="-1.414115">
        <ele>167.4</ele>
        <time>2014-04-06T10:46:18Z</time>
      </trkpt>
      <trkpt lat="38.229009" lon="-1.414039">
        <ele>167.9</ele>
        <time>2014-04-06T10:46:28Z</time>
      </trkpt>
      <trkpt lat="38.229017" lon="-1.414029">
        <ele>167.4</ele>
        <time>2014-04-06T10:46:29Z</time>
      </trkpt>
      <trkpt lat="38.229022" lon="-1.414018">
        <ele>167.9</ele>
        <time>2014-04-06T10:46:30Z</time>
      </trkpt>
      <trkpt lat="38.229031" lon="-1.414004">
        <ele>167.9</ele>
        <time>2014-04-06T10:46:31Z</time>
      </trkpt>
      <trkpt lat="38.229040" lon="-1.413995">
        <ele>167.4</ele>
        <time>2014-04-06T10:46:32Z</time>
      </trkpt>
      <trkpt lat="38.229051" lon="-1.413981">
        <ele>167.4</ele>
        <time>2014-04-06T10:46:33Z</time>
      </trkpt>
      <trkpt lat="38.229173" lon="-1.413823">
        <ele>167.4</ele>
        <time>2014-04-06T10:46:47Z</time>
      </trkpt>
      <trkpt lat="38.229294" lon="-1.413680">
        <ele>167.4</ele>
        <time>2014-04-06T10:47:02Z</time>
      </trkpt>
      <trkpt lat="38.229400" lon="-1.413550">
        <ele>167.9</ele>
        <time>2014-04-06T10:47:15Z</time>
      </trkpt>
      <trkpt lat="38.229407" lon="-1.413538">
        <ele>167.4</ele>
        <time>2014-04-06T10:47:16Z</time>
      </trkpt>
      <trkpt lat="38.229473" lon="-1.413449">
        <ele>167.9</ele>
        <time>2014-04-06T10:47:27Z</time>
      </trkpt>
      <trkpt lat="38.229514" lon="-1.413426">
        <ele>167.9</ele>
        <time>2014-04-06T10:47:31Z</time>
      </trkpt>
      <trkpt lat="38.229522" lon="-1.413415">
        <ele>167.4</ele>
        <time>2014-04-06T10:47:32Z</time>
      </trkpt>
      <trkpt lat="38.229532" lon="-1.413403">
        <ele>167.9</ele>
        <time>2014-04-06T10:47:33Z</time>
      </trkpt>
      <trkpt lat="38.229542" lon="-1.413393">
        <ele>167.9</ele>
        <time>2014-04-06T10:47:34Z</time>
      </trkpt>
      <trkpt lat="38.229553" lon="-1.413384">
        <ele>167.9</ele>
        <time>2014-04-06T10:47:35Z</time>
      </trkpt>
      <trkpt lat="38.229562" lon="-1.413375">
        <ele>167.9</ele>
        <time>2014-04-06T10:47:36Z</time>
      </trkpt>
      <trkpt lat="38.229569" lon="-1.413366">
        <ele>168.4</ele>
        <time>2014-04-06T10:47:37Z</time>
      </trkpt>
      <trkpt lat="38.229712" lon="-1.413205">
        <ele>167.9</ele>
        <time>2014-04-06T10:47:53Z</time>
      </trkpt>
      <trkpt lat="38.229764" lon="-1.413133">
        <ele>167.9</ele>
        <time>2014-04-06T10:48:00Z</time>
      </trkpt>
      <trkpt lat="38.229772" lon="-1.413124">
        <ele>167.9</ele>
        <time>2014-04-06T10:48:01Z</time>
      </trkpt>
      <trkpt lat="38.229816" lon="-1.413080">
        <ele>167.4</ele>
        <time>2014-04-06T10:48:07Z</time>
      </trkpt>
      <trkpt lat="38.229854" lon="-1.413059">
        <ele>167.4</ele>
        <time>2014-04-06T10:48:11Z</time>
      </trkpt>
      <trkpt lat="38.229863" lon="-1.413050">
        <ele>167.9</ele>
        <time>2014-04-06T10:48:12Z</time>
      </trkpt>
      <trkpt lat="38.229872" lon="-1.413041">
        <ele>167.4</ele>
        <time>2014-04-06T10:48:13Z</time>
      </trkpt>
      <trkpt lat="38.229881" lon="-1.413032">
        <ele>167.4</ele>
        <time>2014-04-06T10:48:14Z</time>
      </trkpt>
      <trkpt lat="38.229919" lon="-1.412992">
        <ele>167.9</ele>
        <time>2014-04-06T10:48:19Z</time>
      </trkpt>
      <trkpt lat="38.230048" lon="-1.412846">
        <ele>167.9</ele>
        <time>2014-04-06T10:48:34Z</time>
      </trkpt>
      <trkpt lat="38.230185" lon="-1.412741">
        <ele>167.9</ele>
        <time>2014-04-06T10:48:47Z</time>
      </trkpt>
      <trkpt lat="38.230358" lon="-1.412701">
        <ele>168.4</ele>
        <time>2014-04-06T10:49:03Z</time>
      </trkpt>
      <trkpt lat="38.230368" lon="-1.412699">
        <ele>167.9</ele>
        <time>2014-04-06T10:49:04Z</time>
      </trkpt>
      <trkpt lat="38.230379" lon="-1.412695">
        <ele>167.9</ele>
        <time>2014-04-06T10:49:05Z</time>
      </trkpt>
      <trkpt lat="38.230549" lon="-1.412686">
        <ele>168.4</ele>
        <time>2014-04-06T10:49:19Z</time>
      </trkpt>
      <trkpt lat="38.230733" lon="-1.412673">
        <ele>167.9</ele>
        <time>2014-04-06T10:49:34Z</time>
      </trkpt>
      <trkpt lat="38.230906" lon="-1.412688">
        <ele>168.4</ele>
        <time>2014-04-06T10:49:50Z</time>
      </trkpt>
      <trkpt lat="38.231072" lon="-1.412735">
        <ele>168.4</ele>
        <time>2014-04-06T10:50:04Z</time>
      </trkpt>
      <trkpt lat="38.231087" lon="-1.412736">
        <ele>168.4</ele>
        <time>2014-04-06T10:50:05Z</time>
      </trkpt>
      <trkpt lat="38.231138" lon="-1.412751">
        <ele>168.4</ele>
        <time>2014-04-06T10:50:09Z</time>
      </trkpt>
      <trkpt lat="38.231151" lon="-1.412755">
        <ele>168.4</ele>
        <time>2014-04-06T10:50:10Z</time>
      </trkpt>
      <trkpt lat="38.231340" lon="-1.412807">
        <ele>168.4</ele>
        <time>2014-04-06T10:50:25Z</time>
      </trkpt>
      <trkpt lat="38.231465" lon="-1.412850">
        <ele>167.9</ele>
        <time>2014-04-06T10:50:36Z</time>
      </trkpt>
      <trkpt lat="38.231479" lon="-1.412856">
        <ele>168.4</ele>
        <time>2014-04-06T10:50:37Z</time>
      </trkpt>
      <trkpt lat="38.231489" lon="-1.412864">
        <ele>168.4</ele>
        <time>2014-04-06T10:50:38Z</time>
      </trkpt>
      <trkpt lat="38.231646" lon="-1.412916">
        <ele>168.4</ele>
        <time>2014-04-06T10:50:51Z</time>
      </trkpt>
      <trkpt lat="38.231782" lon="-1.412950">
        <ele>168.9</ele>
        <time>2014-04-06T10:51:04Z</time>
      </trkpt>
      <trkpt lat="38.231938" lon="-1.412980">
        <ele>168.9</ele>
        <time>2014-04-06T10:51:17Z</time>
      </trkpt>
      <trkpt lat="38.232103" lon="-1.413022">
        <ele>168.9</ele>
        <time>2014-04-06T10:51:31Z</time>
      </trkpt>
      <trkpt lat="38.232285" lon="-1.413086">
        <ele>168.4</ele>
        <time>2014-04-06T10:51:46Z</time>
      </trkpt>
      <trkpt lat="38.232407" lon="-1.413222">
        <ele>168.9</ele>
        <time>2014-04-06T10:52:00Z</time>
      </trkpt>
      <trkpt lat="38.232474" lon="-1.413336">
        <ele>168.9</ele>
        <time>2014-04-06T10:52:09Z</time>
      </trkpt>
      <trkpt lat="38.232480" lon="-1.413358">
        <ele>168.4</ele>
        <time>2014-04-06T10:52:11Z</time>
      </trkpt>
      <trkpt lat="38.232485" lon="-1.413372">
        <ele>169.3</ele>
        <time>2014-04-06T10:52:12Z</time>
      </trkpt>
      <trkpt lat="38.232492" lon="-1.413386">
        <ele>168.9</ele>
        <time>2014-04-06T10:52:13Z</time>
      </trkpt>
      <trkpt lat="38.232500" lon="-1.413401">
        <ele>168.9</ele>
        <time>2014-04-06T10:52:14Z</time>
      </trkpt>
      <trkpt lat="38.232506" lon="-1.413416">
        <ele>169.3</ele>
        <time>2014-04-06T10:52:15Z</time>
      </trkpt>
      <trkpt lat="38.232515" lon="-1.413430">
        <ele>168.9</ele>
        <time>2014-04-06T10:52:16Z</time>
      </trkpt>
      <trkpt lat="38.232551" lon="-1.413565">
        <ele>169.3</ele>
        <time>2014-04-06T10:52:25Z</time>
      </trkpt>
      <trkpt lat="38.232558" lon="-1.413573">
        <ele>169.3</ele>
        <time>2014-04-06T10:52:26Z</time>
      </trkpt>
      <trkpt lat="38.232565" lon="-1.413582">
        <ele>168.9</ele>
        <time>2014-04-06T10:52:27Z</time>
      </trkpt>
      <trkpt lat="38.232570" lon="-1.413598">
        <ele>169.3</ele>
        <time>2014-04-06T10:52:28Z</time>
      </trkpt>
      <trkpt lat="38.232577" lon="-1.413613">
        <ele>168.9</ele>
        <time>2014-04-06T10:52:29Z</time>
      </trkpt>
      <trkpt lat="38.232649" lon="-1.413822">
        <ele>168.4</ele>
        <time>2014-04-06T10:52:43Z</time>
      </trkpt>
      <trkpt lat="38.232651" lon="-1.413837">
        <ele>168.4</ele>
        <time>2014-04-06T10:52:44Z</time>
      </trkpt>
      <trkpt lat="38.232658" lon="-1.413848">
        <ele>167.9</ele>
        <time>2014-04-06T10:52:45Z</time>
      </trkpt>
      <trkpt lat="38.232699" lon="-1.413984">
        <ele>168.4</ele>
        <time>2014-04-06T10:52:54Z</time>
      </trkpt>
      <trkpt lat="38.232705" lon="-1.413997">
        <ele>168.4</ele>
        <time>2014-04-06T10:52:55Z</time>
      </trkpt>
      <trkpt lat="38.232711" lon="-1.414012">
        <ele>168.4</ele>
        <time>2014-04-06T10:52:56Z</time>
      </trkpt>
      <trkpt lat="38.232739" lon="-1.414079">
        <ele>168.4</ele>
        <time>2014-04-06T10:53:01Z</time>
      </trkpt>
      <trkpt lat="38.232743" lon="-1.414107">
        <ele>168.4</ele>
        <time>2014-04-06T10:53:03Z</time>
      </trkpt>
      <trkpt lat="38.232748" lon="-1.414121">
        <ele>168.4</ele>
        <time>2014-04-06T10:53:04Z</time>
      </trkpt>
      <trkpt lat="38.232753" lon="-1.414136">
        <ele>168.4</ele>
        <time>2014-04-06T10:53:05Z</time>
      </trkpt>
      <trkpt lat="38.232756" lon="-1.414154">
        <ele>167.9</ele>
        <time>2014-04-06T10:53:06Z</time>
      </trkpt>
      <trkpt lat="38.232758" lon="-1.414170">
        <ele>168.4</ele>
        <time>2014-04-06T10:53:07Z</time>
      </trkpt>
      <trkpt lat="38.232763" lon="-1.414239">
        <ele>168.4</ele>
        <time>2014-04-06T10:53:11Z</time>
      </trkpt>
      <trkpt lat="38.232772" lon="-1.414278">
        <ele>168.4</ele>
        <time>2014-04-06T10:53:14Z</time>
      </trkpt>
      <trkpt lat="38.232777" lon="-1.414290">
        <ele>168.4</ele>
        <time>2014-04-06T10:53:15Z</time>
      </trkpt>
      <trkpt lat="38.232782" lon="-1.414304">
        <ele>168.4</ele>
        <time>2014-04-06T10:53:16Z</time>
      </trkpt>
      <trkpt lat="38.232789" lon="-1.414336">
        <ele>167.9</ele>
        <time>2014-04-06T10:53:18Z</time>
      </trkpt>
      <trkpt lat="38.232791" lon="-1.414381">
        <ele>168.4</ele>
        <time>2014-04-06T10:53:21Z</time>
      </trkpt>
      <trkpt lat="38.232797" lon="-1.414395">
        <ele>168.4</ele>
        <time>2014-04-06T10:53:22Z</time>
      </trkpt>
      <trkpt lat="38.232802" lon="-1.414407">
        <ele>168.4</ele>
        <time>2014-04-06T10:53:23Z</time>
      </trkpt>
      <trkpt lat="38.232808" lon="-1.414500">
        <ele>168.4</ele>
        <time>2014-04-06T10:53:29Z</time>
      </trkpt>
      <trkpt lat="38.232856" lon="-1.414700">
        <ele>168.9</ele>
        <time>2014-04-06T10:53:44Z</time>
      </trkpt>
      <trkpt lat="38.232879" lon="-1.414819">
        <ele>168.4</ele>
        <time>2014-04-06T10:53:52Z</time>
      </trkpt>
      <trkpt lat="38.232885" lon="-1.414831">
        <ele>168.9</ele>
        <time>2014-04-06T10:53:53Z</time>
      </trkpt>
      <trkpt lat="38.232889" lon="-1.414846">
        <ele>168.9</ele>
        <time>2014-04-06T10:53:54Z</time>
      </trkpt>
      <trkpt lat="38.232892" lon="-1.414859">
        <ele>168.4</ele>
        <time>2014-04-06T10:53:55Z</time>
      </trkpt>
      <trkpt lat="38.232893" lon="-1.414873">
        <ele>168.9</ele>
        <time>2014-04-06T10:53:56Z</time>
      </trkpt>
      <trkpt lat="38.232898" lon="-1.414899">
        <ele>169.3</ele>
        <time>2014-04-06T10:53:58Z</time>
      </trkpt>
      <trkpt lat="38.232904" lon="-1.414914">
        <ele>168.9</ele>
        <time>2014-04-06T10:53:59Z</time>
      </trkpt>
      <trkpt lat="38.232909" lon="-1.414929">
        <ele>168.4</ele>
        <time>2014-04-06T10:54:00Z</time>
      </trkpt>
      <trkpt lat="38.232926" lon="-1.415063">
        <ele>169.3</ele>
        <time>2014-04-06T10:54:10Z</time>
      </trkpt>
      <trkpt lat="38.232932" lon="-1.415122">
        <ele>169.3</ele>
        <time>2014-04-06T10:54:15Z</time>
      </trkpt>
      <trkpt lat="38.232936" lon="-1.415177">
        <ele>170.8</ele>
        <time>2014-04-06T10:54:20Z</time>
      </trkpt>
      <trkpt lat="38.232940" lon="-1.415203">
        <ele>170.3</ele>
        <time>2014-04-06T10:54:22Z</time>
      </trkpt>
      <trkpt lat="38.232971" lon="-1.415258">
        <ele>170.3</ele>
        <time>2014-04-06T10:54:27Z</time>
      </trkpt>
      <trkpt lat="38.233091" lon="-1.415239">
        <ele>170.8</ele>
        <time>2014-04-06T10:54:40Z</time>
      </trkpt>
      <trkpt lat="38.233100" lon="-1.415237">
        <ele>170.8</ele>
        <time>2014-04-06T10:54:41Z</time>
      </trkpt>
      <trkpt lat="38.233237" lon="-1.415223">
        <ele>171.2</ele>
        <time>2014-04-06T10:54:55Z</time>
      </trkpt>
      <trkpt lat="38.233343" lon="-1.415203">
        <ele>171.2</ele>
        <time>2014-04-06T10:55:05Z</time>
      </trkpt>
      <trkpt lat="38.233353" lon="-1.415197">
        <ele>171.2</ele>
        <time>2014-04-06T10:55:06Z</time>
      </trkpt>
      <trkpt lat="38.233468" lon="-1.415172">
        <ele>170.3</ele>
        <time>2014-04-06T10:55:17Z</time>
      </trkpt>
      <trkpt lat="38.233479" lon="-1.415161">
        <ele>170.3</ele>
        <time>2014-04-06T10:55:18Z</time>
      </trkpt>
      <trkpt lat="38.233528" lon="-1.415121">
        <ele>169.8</ele>
        <time>2014-04-06T10:55:23Z</time>
      </trkpt>
      <trkpt lat="38.233600" lon="-1.415003">
        <ele>169.8</ele>
        <time>2014-04-06T10:56:01Z</time>
      </trkpt>
      <trkpt lat="38.233605" lon="-1.414993">
        <ele>170.3</ele>
        <time>2014-04-06T10:56:02Z</time>
      </trkpt>
      <trkpt lat="38.233688" lon="-1.414923">
        <ele>170.8</ele>
        <time>2014-04-06T10:56:13Z</time>
      </trkpt>
      <trkpt lat="38.233724" lon="-1.414901">
        <ele>170.8</ele>
        <time>2014-04-06T10:56:30Z</time>
      </trkpt>
      <trkpt lat="38.233760" lon="-1.414830">
        <ele>171.2</ele>
        <time>2014-04-06T10:56:42Z</time>
      </trkpt>
      <trkpt lat="38.233793" lon="-1.414801">
        <ele>171.2</ele>
        <time>2014-04-06T10:56:47Z</time>
      </trkpt>
      <trkpt lat="38.233831" lon="-1.414734">
        <ele>171.2</ele>
        <time>2014-04-06T10:56:54Z</time>
      </trkpt>
      <trkpt lat="38.233861" lon="-1.414671">
        <ele>171.7</ele>
        <time>2014-04-06T10:57:00Z</time>
      </trkpt>
      <trkpt lat="38.233910" lon="-1.414574">
        <ele>172.2</ele>
        <time>2014-04-06T10:57:12Z</time>
      </trkpt>
      <trkpt lat="38.233978" lon="-1.414533">
        <ele>172.2</ele>
        <time>2014-04-06T10:57:21Z</time>
      </trkpt>
      <trkpt lat="38.234018" lon="-1.414532">
        <ele>172.2</ele>
        <time>2014-04-06T10:57:27Z</time>
      </trkpt>
      <trkpt lat="38.234106" lon="-1.414422">
        <ele>173.2</ele>
        <time>2014-04-06T10:57:37Z</time>
      </trkpt>
      <trkpt lat="38.234117" lon="-1.414397">
        <ele>173.2</ele>
        <time>2014-04-06T10:57:39Z</time>
      </trkpt>
      <trkpt lat="38.234171" lon="-1.414348">
        <ele>172.7</ele>
        <time>2014-04-06T10:57:46Z</time>
      </trkpt>
      <trkpt lat="38.234304" lon="-1.414426">
        <ele>173.2</ele>
        <time>2014-04-06T10:58:01Z</time>
      </trkpt>
      <trkpt lat="38.234420" lon="-1.414444">
        <ele>173.7</ele>
        <time>2014-04-06T10:58:14Z</time>
      </trkpt>
      <trkpt lat="38.234475" lon="-1.414459">
        <ele>173.2</ele>
        <time>2014-04-06T10:58:21Z</time>
      </trkpt>
      <trkpt lat="38.234506" lon="-1.414504">
        <ele>173.7</ele>
        <time>2014-04-06T10:58:25Z</time>
      </trkpt>
      <trkpt lat="38.234656" lon="-1.414686">
        <ele>173.7</ele>
        <time>2014-04-06T10:58:39Z</time>
      </trkpt>
      <trkpt lat="38.234748" lon="-1.414827">
        <ele>174.1</ele>
        <time>2014-04-06T10:58:50Z</time>
      </trkpt>
      <trkpt lat="38.234822" lon="-1.415015">
        <ele>174.1</ele>
        <time>2014-04-06T10:59:01Z</time>
      </trkpt>
      <trkpt lat="38.234891" lon="-1.415108">
        <ele>174.6</ele>
        <time>2014-04-06T10:59:09Z</time>
      </trkpt>
      <trkpt lat="38.234916" lon="-1.415137">
        <ele>174.6</ele>
        <time>2014-04-06T10:59:12Z</time>
      </trkpt>
      <trkpt lat="38.235006" lon="-1.415243">
        <ele>175.6</ele>
        <time>2014-04-06T10:59:24Z</time>
      </trkpt>
      <trkpt lat="38.235023" lon="-1.415263">
        <ele>175.6</ele>
        <time>2014-04-06T10:59:26Z</time>
      </trkpt>
      <trkpt lat="38.235212" lon="-1.415393">
        <ele>175.1</ele>
        <time>2014-04-06T10:59:43Z</time>
      </trkpt>
      <trkpt lat="38.235277" lon="-1.415484">
        <ele>175.6</ele>
        <time>2014-04-06T10:59:51Z</time>
      </trkpt>
      <trkpt lat="38.235347" lon="-1.415545">
        <ele>175.6</ele>
        <time>2014-04-06T10:59:58Z</time>
      </trkpt>
      <trkpt lat="38.235477" lon="-1.415641">
        <ele>176.1</ele>
        <time>2014-04-06T11:00:11Z</time>
      </trkpt>
      <trkpt lat="38.235508" lon="-1.415687">
        <ele>176.1</ele>
        <time>2014-04-06T11:00:17Z</time>
      </trkpt>
      <trkpt lat="38.235573" lon="-1.415729">
        <ele>175.6</ele>
        <time>2014-04-06T11:00:21Z</time>
      </trkpt>
      <trkpt lat="38.235745" lon="-1.415912">
        <ele>176.5</ele>
        <time>2014-04-06T11:00:36Z</time>
      </trkpt>
      <trkpt lat="38.235762" lon="-1.415940">
        <ele>176.5</ele>
        <time>2014-04-06T11:00:38Z</time>
      </trkpt>
      <trkpt lat="38.235838" lon="-1.415998">
        <ele>176.5</ele>
        <time>2014-04-06T11:00:50Z</time>
      </trkpt>
      <trkpt lat="38.235963" lon="-1.416148">
        <ele>176.5</ele>
        <time>2014-04-06T11:01:02Z</time>
      </trkpt>
      <trkpt lat="38.236143" lon="-1.416303">
        <ele>176.5</ele>
        <time>2014-04-06T11:01:16Z</time>
      </trkpt>
      <trkpt lat="38.236332" lon="-1.416500">
        <ele>178.0</ele>
        <time>2014-04-06T11:01:33Z</time>
      </trkpt>
      <trkpt lat="38.236492" lon="-1.416608">
        <ele>178.5</ele>
        <time>2014-04-06T11:01:46Z</time>
      </trkpt>
      <trkpt lat="38.236748" lon="-1.416916">
        <ele>179.9</ele>
        <time>2014-04-06T11:02:20Z</time>
      </trkpt>
      <trkpt lat="38.236768" lon="-1.416943">
        <ele>179.9</ele>
        <time>2014-04-06T11:02:24Z</time>
      </trkpt>
      <trkpt lat="38.236890" lon="-1.417349">
        <ele>180.4</ele>
        <time>2014-04-06T11:02:37Z</time>
      </trkpt>
      <trkpt lat="38.236945" lon="-1.423087">
        <ele>188.1</ele>
        <time>2014-04-06T11:07:51Z</time>
      </trkpt>
      <trkpt lat="38.237023" lon="-1.423102">
        <ele>188.6</ele>
        <time>2014-04-06T11:08:00Z</time>
      </trkpt>
      <trkpt lat="38.237109" lon="-1.423066">
        <ele>189.0</ele>
        <time>2014-04-06T11:08:05Z</time>
      </trkpt>
    </trkseg>
  </trk>
</gpx>
